<?xml version='1.0' encoding='UTF-8'?><gpx version="1.1" creator="JPX - https://github.com/jenetics/jpx" xmlns="http://www.topografix.com/GPX/1/1"><trk><trkseg><trkpt lat="42.07559" lon="13.6111883"><ele>918.1666666666666</ele><time>2026-05-02T13:41:22.861Z</time></trkpt><trkpt lat="42.0756783" lon="13.6111217"><ele>918.3333333333333</ele><time>2026-05-02T13:41:24.861Z</time></trkpt><trkpt lat="42.07575" lon="13.61105"><ele>918.5</ele><time>2026-05-02T13:41:26.862Z</time></trkpt><trkpt lat="42.0757917" lon="13.610975"><ele>918.6666666666666</ele><time>2026-05-02T13:41:28.862Z</time></trkpt><trkpt lat="42.0757633" lon="13.61088"><ele>918.8333333333333</ele><time>2026-05-02T13:41:31.861Z</time></trkpt><trkpt lat="42.07569" lon="13.6108883"><ele>919.0</ele><time>2026-05-02T13:41:34.861Z</time></trkpt><trkpt lat="42.0756217" lon="13.6109533"><ele>918.9999999999999</ele><time>2026-05-02T13:41:36.861Z</time></trkpt><trkpt lat="42.075555" lon="13.611005"><ele>919.0</ele><time>2026-05-02T13:41:38.861Z</time></trkpt><trkpt lat="42.0754933" lon="13.6110283"><ele>919.0</ele><time>2026-05-02T13:41:40.861Z</time></trkpt><trkpt lat="42.0754317" lon="13.6110633"><ele>919.0</ele><time>2026-05-02T13:41:42.862Z</time></trkpt><trkpt lat="42.0753717" lon="13.6111067"><ele>918.9999999999999</ele><time>2026-05-02T13:41:44.861Z</time></trkpt><trkpt lat="42.0752917" lon="13.61117"><ele>919.0</ele><time>2026-05-02T13:41:47.861Z</time></trkpt><trkpt lat="42.075203" lon="13.6112285"><ele>918.8000000000001</ele><time>2026-05-02T13:41:50.823Z</time></trkpt><trkpt lat="42.0751277" lon="13.611259"><ele>918.6000000000001</ele><time>2026-05-02T13:42:01.917Z</time></trkpt><trkpt lat="42.0750301" lon="13.6113053"><ele>918.4</ele><time>2026-05-02T13:42:03.885Z</time></trkpt><trkpt lat="42.0749195" lon="13.6113106"><ele>918.2</ele><time>2026-05-02T13:42:04.861Z</time></trkpt><trkpt lat="42.0748203" lon="13.6112977"><ele>918.0</ele><time>2026-05-02T13:42:05.861Z</time></trkpt><trkpt lat="42.0747273" lon="13.6112753"><ele>916.4</ele><time>2026-05-02T13:42:06.861Z</time></trkpt><trkpt lat="42.0746371" lon="13.6112514"><ele>914.8</ele><time>2026-05-02T13:42:07.861Z</time></trkpt><trkpt lat="42.0745472" lon="13.6112121"><ele>913.2</ele><time>2026-05-02T13:42:08.861Z</time></trkpt><trkpt lat="42.0744567" lon="13.611165"><ele>911.6</ele><time>2026-05-02T13:42:09.861Z</time></trkpt><trkpt lat="42.0743683" lon="13.61112"><ele>910.0</ele><time>2026-05-02T13:42:10.862Z</time></trkpt><trkpt lat="42.0742867" lon="13.61108"><ele>909.8</ele><time>2026-05-02T13:42:11.861Z</time></trkpt><trkpt lat="42.0742" lon="13.6110367"><ele>909.6</ele><time>2026-05-02T13:42:12.862Z</time></trkpt><trkpt lat="42.074115" lon="13.610985"><ele>909.4000000000001</ele><time>2026-05-02T13:42:13.861Z</time></trkpt><trkpt lat="42.0740367" lon="13.6109317"><ele>909.2</ele><time>2026-05-02T13:42:14.861Z</time></trkpt><trkpt lat="42.0739583" lon="13.6108767"><ele>909.0</ele><time>2026-05-02T13:42:15.862Z</time></trkpt><trkpt lat="42.0738767" lon="13.6108217"><ele>907.6</ele><time>2026-05-02T13:42:16.861Z</time></trkpt><trkpt lat="42.0737917" lon="13.6107633"><ele>906.2</ele><time>2026-05-02T13:42:17.862Z</time></trkpt><trkpt lat="42.0737083" lon="13.6107033"><ele>904.8000000000001</ele><time>2026-05-02T13:42:18.861Z</time></trkpt><trkpt lat="42.0736183" lon="13.6106383"><ele>903.4000000000001</ele><time>2026-05-02T13:42:19.861Z</time></trkpt><trkpt lat="42.0735217" lon="13.610555"><ele>902.0</ele><time>2026-05-02T13:42:20.861Z</time></trkpt><trkpt lat="42.0734283" lon="13.61046"><ele>902.0</ele><time>2026-05-02T13:42:21.861Z</time></trkpt><trkpt lat="42.0733417" lon="13.610365"><ele>902.0</ele><time>2026-05-02T13:42:22.861Z</time></trkpt><trkpt lat="42.073255" lon="13.610265"><ele>902.0</ele><time>2026-05-02T13:42:23.862Z</time></trkpt><trkpt lat="42.0731733" lon="13.6101767"><ele>902.0</ele><time>2026-05-02T13:42:24.862Z</time></trkpt><trkpt lat="42.0730917" lon="13.6100867"><ele>902.0</ele><time>2026-05-02T13:42:25.862Z</time></trkpt><trkpt lat="42.0730083" lon="13.6099933"><ele>899.8</ele><time>2026-05-02T13:42:26.862Z</time></trkpt><trkpt lat="42.072925" lon="13.609895"><ele>897.6</ele><time>2026-05-02T13:42:27.861Z</time></trkpt><trkpt lat="42.0728433" lon="13.6097983"><ele>895.3999999999999</ele><time>2026-05-02T13:42:28.862Z</time></trkpt><trkpt lat="42.072765" lon="13.609695"><ele>893.1999999999999</ele><time>2026-05-02T13:42:29.862Z</time></trkpt><trkpt lat="42.072685" lon="13.6095983"><ele>891.0</ele><time>2026-05-02T13:42:30.861Z</time></trkpt><trkpt lat="42.0726017" lon="13.6095033"><ele>890.6666666666666</ele><time>2026-05-02T13:42:31.862Z</time></trkpt><trkpt lat="42.0725217" lon="13.60941"><ele>890.3333333333333</ele><time>2026-05-02T13:42:32.862Z</time></trkpt><trkpt lat="42.0724483" lon="13.60932"><ele>890.0</ele><time>2026-05-02T13:42:33.861Z</time></trkpt><trkpt lat="42.0723867" lon="13.6092433"><ele>889.6666666666666</ele><time>2026-05-02T13:42:34.861Z</time></trkpt><trkpt lat="42.0723317" lon="13.60918"><ele>889.3333333333333</ele><time>2026-05-02T13:42:35.862Z</time></trkpt><trkpt lat="42.0722783" lon="13.6091067"><ele>889.0</ele><time>2026-05-02T13:42:36.862Z</time></trkpt><trkpt lat="42.07223" lon="13.6090267"><ele>887.4000000000001</ele><time>2026-05-02T13:42:37.861Z</time></trkpt><trkpt lat="42.0721967" lon="13.60893"><ele>885.8000000000001</ele><time>2026-05-02T13:42:38.861Z</time></trkpt><trkpt lat="42.0721717" lon="13.6088183"><ele>884.1999999999999</ele><time>2026-05-02T13:42:39.862Z</time></trkpt><trkpt lat="42.072155" lon="13.6086833"><ele>882.5999999999999</ele><time>2026-05-02T13:42:40.862Z</time></trkpt><trkpt lat="42.072135" lon="13.6085283"><ele>881.0</ele><time>2026-05-02T13:42:41.861Z</time></trkpt><trkpt lat="42.07211" lon="13.6083783"><ele>880.25</ele><time>2026-05-02T13:42:42.861Z</time></trkpt><trkpt lat="42.0720867" lon="13.6082283"><ele>879.5</ele><time>2026-05-02T13:42:43.861Z</time></trkpt><trkpt lat="42.0720767" lon="13.6080767"><ele>878.75</ele><time>2026-05-02T13:42:44.862Z</time></trkpt><trkpt lat="42.0720717" lon="13.6079283"><ele>878.0</ele><time>2026-05-02T13:42:45.861Z</time></trkpt><trkpt lat="42.0720683" lon="13.607775"><ele>876.8</ele><time>2026-05-02T13:42:46.862Z</time></trkpt><trkpt lat="42.07207" lon="13.6076283"><ele>875.5999999999999</ele><time>2026-05-02T13:42:47.861Z</time></trkpt><trkpt lat="42.072075" lon="13.6074783"><ele>874.4000000000001</ele><time>2026-05-02T13:42:48.862Z</time></trkpt><trkpt lat="42.0720767" lon="13.607345"><ele>873.2</ele><time>2026-05-02T13:42:49.862Z</time></trkpt><trkpt lat="42.0720717" lon="13.6072117"><ele>872.0</ele><time>2026-05-02T13:42:50.861Z</time></trkpt><trkpt lat="42.0720567" lon="13.6070833"><ele>870.2</ele><time>2026-05-02T13:42:51.862Z</time></trkpt><trkpt lat="42.072035" lon="13.6069517"><ele>868.4000000000001</ele><time>2026-05-02T13:42:52.861Z</time></trkpt><trkpt lat="42.0719983" lon="13.6068217"><ele>866.5999999999999</ele><time>2026-05-02T13:42:53.861Z</time></trkpt><trkpt lat="42.0719417" lon="13.6066883"><ele>864.8</ele><time>2026-05-02T13:42:54.861Z</time></trkpt><trkpt lat="42.071865" lon="13.6065633"><ele>863.0</ele><time>2026-05-02T13:42:55.861Z</time></trkpt><trkpt lat="42.07178" lon="13.6064533"><ele>863.0</ele><time>2026-05-02T13:42:56.862Z</time></trkpt><trkpt lat="42.071685" lon="13.6063383"><ele>863.0</ele><time>2026-05-02T13:42:57.862Z</time></trkpt><trkpt lat="42.0715817" lon="13.606235"><ele>863.0</ele><time>2026-05-02T13:42:58.861Z</time></trkpt><trkpt lat="42.071475" lon="13.6061517"><ele>863.0</ele><time>2026-05-02T13:42:59.861Z</time></trkpt><trkpt lat="42.0713717" lon="13.6060933"><ele>859.25</ele><time>2026-05-02T13:43:00.861Z</time></trkpt><trkpt lat="42.0712667" lon="13.6060383"><ele>855.5</ele><time>2026-05-02T13:43:01.861Z</time></trkpt><trkpt lat="42.07116" lon="13.605965"><ele>851.75</ele><time>2026-05-02T13:43:02.861Z</time></trkpt><trkpt lat="42.0710517" lon="13.60588"><ele>848.0</ele><time>2026-05-02T13:43:03.861Z</time></trkpt><trkpt lat="42.07094" lon="13.6057767"><ele>848.0</ele><time>2026-05-02T13:43:04.861Z</time></trkpt><trkpt lat="42.0708333" lon="13.605675"><ele>848.0</ele><time>2026-05-02T13:43:05.861Z</time></trkpt><trkpt lat="42.0707217" lon="13.6055717"><ele>848.0</ele><time>2026-05-02T13:43:06.862Z</time></trkpt><trkpt lat="42.0706233" lon="13.6054717"><ele>848.0</ele><time>2026-05-02T13:43:07.862Z</time></trkpt><trkpt lat="42.0705217" lon="13.60538"><ele>844.0</ele><time>2026-05-02T13:43:08.861Z</time></trkpt><trkpt lat="42.0704233" lon="13.6052917"><ele>840.0</ele><time>2026-05-02T13:43:09.862Z</time></trkpt><trkpt lat="42.07033" lon="13.605205"><ele>836.0</ele><time>2026-05-02T13:43:10.861Z</time></trkpt><trkpt lat="42.070235" lon="13.6051133"><ele>832.0</ele><time>2026-05-02T13:43:11.861Z</time></trkpt><trkpt lat="42.070145" lon="13.6050167"><ele>832.0</ele><time>2026-05-02T13:43:12.861Z</time></trkpt><trkpt lat="42.0700483" lon="13.6049217"><ele>832.0</ele><time>2026-05-02T13:43:13.861Z</time></trkpt><trkpt lat="42.069945" lon="13.6048217"><ele>832.0</ele><time>2026-05-02T13:43:14.861Z</time></trkpt><trkpt lat="42.0698383" lon="13.6047217"><ele>832.0</ele><time>2026-05-02T13:43:15.862Z</time></trkpt><trkpt lat="42.069725" lon="13.6046117"><ele>829.0</ele><time>2026-05-02T13:43:16.861Z</time></trkpt><trkpt lat="42.0696117" lon="13.604505"><ele>826.0</ele><time>2026-05-02T13:43:17.862Z</time></trkpt><trkpt lat="42.0694933" lon="13.6043967"><ele>823.0</ele><time>2026-05-02T13:43:18.861Z</time></trkpt><trkpt lat="42.0693817" lon="13.6042833"><ele>820.0</ele><time>2026-05-02T13:43:19.861Z</time></trkpt><trkpt lat="42.06927" lon="13.6041667"><ele>818.25</ele><time>2026-05-02T13:43:20.862Z</time></trkpt><trkpt lat="42.069165" lon="13.604045"><ele>816.5</ele><time>2026-05-02T13:43:21.862Z</time></trkpt><trkpt lat="42.06906" lon="13.603925"><ele>814.75</ele><time>2026-05-02T13:43:22.861Z</time></trkpt><trkpt lat="42.0689467" lon="13.6038117"><ele>813.0</ele><time>2026-05-02T13:43:23.861Z</time></trkpt><trkpt lat="42.068835" lon="13.6036967"><ele>812.0</ele><time>2026-05-02T13:43:24.861Z</time></trkpt><trkpt lat="42.0687233" lon="13.6035783"><ele>811.0</ele><time>2026-05-02T13:43:25.862Z</time></trkpt><trkpt lat="42.0686233" lon="13.6034783"><ele>810.0</ele><time>2026-05-02T13:43:26.861Z</time></trkpt><trkpt lat="42.06854" lon="13.6034033"><ele>809.0</ele><time>2026-05-02T13:43:27.861Z</time></trkpt><trkpt lat="42.0684667" lon="13.603355"><ele>808.0</ele><time>2026-05-02T13:43:28.862Z</time></trkpt><trkpt lat="42.0684" lon="13.6033417"><ele>807.9999999999999</ele><time>2026-05-02T13:43:29.862Z</time></trkpt><trkpt lat="42.0683383" lon="13.6033617"><ele>808.0</ele><time>2026-05-02T13:43:30.861Z</time></trkpt><trkpt lat="42.0682667" lon="13.603405"><ele>808.0</ele><time>2026-05-02T13:43:31.861Z</time></trkpt><trkpt lat="42.0681833" lon="13.603455"><ele>808.0</ele><time>2026-05-02T13:43:32.861Z</time></trkpt><trkpt lat="42.068105" lon="13.60349"><ele>807.9999999999999</ele><time>2026-05-02T13:43:33.861Z</time></trkpt><trkpt lat="42.0680183" lon="13.6035217"><ele>808.0</ele><time>2026-05-02T13:43:34.861Z</time></trkpt><trkpt lat="42.0679283" lon="13.6035333"><ele>810.25</ele><time>2026-05-02T13:43:35.861Z</time></trkpt><trkpt lat="42.0678183" lon="13.6035433"><ele>812.5</ele><time>2026-05-02T13:43:36.861Z</time></trkpt><trkpt lat="42.067705" lon="13.603545"><ele>814.75</ele><time>2026-05-02T13:43:37.862Z</time></trkpt><trkpt lat="42.067585" lon="13.6035383"><ele>817.0</ele><time>2026-05-02T13:43:38.861Z</time></trkpt><trkpt lat="42.067465" lon="13.603525"><ele>818.0</ele><time>2026-05-02T13:43:39.861Z</time></trkpt><trkpt lat="42.067345" lon="13.603515"><ele>819.0</ele><time>2026-05-02T13:43:40.862Z</time></trkpt><trkpt lat="42.067225" lon="13.6035033"><ele>820.0</ele><time>2026-05-02T13:43:41.862Z</time></trkpt><trkpt lat="42.0671083" lon="13.6034917"><ele>821.0</ele><time>2026-05-02T13:43:42.861Z</time></trkpt><trkpt lat="42.0669817" lon="13.60347"><ele>821.0</ele><time>2026-05-02T13:43:43.861Z</time></trkpt><trkpt lat="42.066855" lon="13.603435"><ele>821.0</ele><time>2026-05-02T13:43:44.861Z</time></trkpt><trkpt lat="42.0667233" lon="13.60339"><ele>821.0</ele><time>2026-05-02T13:43:45.862Z</time></trkpt><trkpt lat="42.0665883" lon="13.6033433"><ele>821.0</ele><time>2026-05-02T13:43:46.861Z</time></trkpt><trkpt lat="42.0664583" lon="13.603305"><ele>822.1666666666667</ele><time>2026-05-02T13:43:47.861Z</time></trkpt><trkpt lat="42.06634" lon="13.6032867"><ele>823.3333333333334</ele><time>2026-05-02T13:43:48.862Z</time></trkpt><trkpt lat="42.06624" lon="13.6032883"><ele>824.5</ele><time>2026-05-02T13:43:49.861Z</time></trkpt><trkpt lat="42.0661583" lon="13.6032983"><ele>825.6666666666667</ele><time>2026-05-02T13:43:50.861Z</time></trkpt><trkpt lat="42.0660883" lon="13.6033083"><ele>826.8333333333334</ele><time>2026-05-02T13:43:51.862Z</time></trkpt><trkpt lat="42.0660133" lon="13.6033267"><ele>828.0</ele><time>2026-05-02T13:43:52.861Z</time></trkpt><trkpt lat="42.06595" lon="13.60334"><ele>828.0</ele><time>2026-05-02T13:43:53.862Z</time></trkpt><trkpt lat="42.0658517" lon="13.603345"><ele>828.0</ele><time>2026-05-02T13:43:55.861Z</time></trkpt><trkpt lat="42.0657733" lon="13.6033167"><ele>828.0</ele><time>2026-05-02T13:43:57.861Z</time></trkpt><trkpt lat="42.06573" lon="13.6031983"><ele>828.0</ele><time>2026-05-02T13:43:59.861Z</time></trkpt><trkpt lat="42.0657133" lon="13.603085"><ele>828.0</ele><time>2026-05-02T13:44:01.862Z</time></trkpt><trkpt lat="42.06569" lon="13.602965"><ele>828.1428571428572</ele><time>2026-05-02T13:44:03.862Z</time></trkpt><trkpt lat="42.0656683" lon="13.60288"><ele>828.2857142857143</ele><time>2026-05-02T13:44:04.861Z</time></trkpt><trkpt lat="42.0656617" lon="13.6027933"><ele>828.4285714285714</ele><time>2026-05-02T13:44:05.861Z</time></trkpt><trkpt lat="42.0656833" lon="13.602705"><ele>828.5714285714287</ele><time>2026-05-02T13:44:06.862Z</time></trkpt><trkpt lat="42.0657267" lon="13.6026267"><ele>828.7142857142857</ele><time>2026-05-02T13:44:07.861Z</time></trkpt><trkpt lat="42.0657783" lon="13.602555"><ele>828.8571428571429</ele><time>2026-05-02T13:44:08.861Z</time></trkpt><trkpt lat="42.0658167" lon="13.6024817"><ele>829.0</ele><time>2026-05-02T13:44:09.861Z</time></trkpt><trkpt lat="42.0658533" lon="13.6023367"><ele>828.8000000000001</ele><time>2026-05-02T13:44:11.862Z</time></trkpt><trkpt lat="42.0658767" lon="13.6022317"><ele>828.6</ele><time>2026-05-02T13:44:12.862Z</time></trkpt><trkpt lat="42.0659033" lon="13.6021117"><ele>828.4</ele><time>2026-05-02T13:44:13.862Z</time></trkpt><trkpt lat="42.06593" lon="13.601985"><ele>828.2</ele><time>2026-05-02T13:44:14.862Z</time></trkpt><trkpt lat="42.0659567" lon="13.60185"><ele>828.0</ele><time>2026-05-02T13:44:15.861Z</time></trkpt><trkpt lat="42.0659883" lon="13.6017117"><ele>828.0</ele><time>2026-05-02T13:44:16.862Z</time></trkpt><trkpt lat="42.06602" lon="13.6015733"><ele>828.0</ele><time>2026-05-02T13:44:17.861Z</time></trkpt><trkpt lat="42.066045" lon="13.6014317"><ele>828.0</ele><time>2026-05-02T13:44:18.862Z</time></trkpt><trkpt lat="42.0660617" lon="13.6012917"><ele>828.0</ele><time>2026-05-02T13:44:19.861Z</time></trkpt><trkpt lat="42.06606" lon="13.6011567"><ele>828.0</ele><time>2026-05-02T13:44:20.862Z</time></trkpt><trkpt lat="42.06606" lon="13.6010133"><ele>828.0</ele><time>2026-05-02T13:44:21.861Z</time></trkpt><trkpt lat="42.0660717" lon="13.6008917"><ele>828.0</ele><time>2026-05-02T13:44:22.861Z</time></trkpt><trkpt lat="42.06608" lon="13.6007717"><ele>828.0</ele><time>2026-05-02T13:44:23.862Z</time></trkpt><trkpt lat="42.0660983" lon="13.60066"><ele>828.0</ele><time>2026-05-02T13:44:24.861Z</time></trkpt><trkpt lat="42.066115" lon="13.600565"><ele>828.0</ele><time>2026-05-02T13:44:25.861Z</time></trkpt><trkpt lat="42.066135" lon="13.6004767"><ele>828.0</ele><time>2026-05-02T13:44:26.862Z</time></trkpt><trkpt lat="42.06615" lon="13.6003283"><ele>828.0</ele><time>2026-05-02T13:44:28.862Z</time></trkpt><trkpt lat="42.0661083" lon="13.6002167"><ele>828.0</ele><time>2026-05-02T13:44:30.861Z</time></trkpt><trkpt lat="42.0660433" lon="13.6001967"><ele>828.0</ele><time>2026-05-02T13:44:31.861Z</time></trkpt><trkpt lat="42.0659583" lon="13.6001917"><ele>828.0</ele><time>2026-05-02T13:44:32.861Z</time></trkpt><trkpt lat="42.0658567" lon="13.6002"><ele>828.0</ele><time>2026-05-02T13:44:33.861Z</time></trkpt><trkpt lat="42.06575" lon="13.6002"><ele>826.5</ele><time>2026-05-02T13:44:34.861Z</time></trkpt><trkpt lat="42.0656617" lon="13.6002083"><ele>825.0</ele><time>2026-05-02T13:44:35.862Z</time></trkpt><trkpt lat="42.0655783" lon="13.6001933"><ele>823.5</ele><time>2026-05-02T13:44:36.862Z</time></trkpt><trkpt lat="42.06549" lon="13.600175"><ele>822.0</ele><time>2026-05-02T13:44:37.862Z</time></trkpt><trkpt lat="42.0654017" lon="13.6001667"><ele>820.5</ele><time>2026-05-02T13:44:38.861Z</time></trkpt><trkpt lat="42.06532" lon="13.6001567"><ele>819.0</ele><time>2026-05-02T13:44:39.861Z</time></trkpt><trkpt lat="42.0652333" lon="13.6001483"><ele>819.0</ele><time>2026-05-02T13:44:40.861Z</time></trkpt><trkpt lat="42.06516" lon="13.6001367"><ele>819.0</ele><time>2026-05-02T13:44:41.862Z</time></trkpt><trkpt lat="42.0650917" lon="13.6001217"><ele>819.0</ele><time>2026-05-02T13:44:42.862Z</time></trkpt><trkpt lat="42.0650183" lon="13.6001117"><ele>819.0</ele><time>2026-05-02T13:44:43.861Z</time></trkpt><trkpt lat="42.0649383" lon="13.6001033"><ele>819.0</ele><time>2026-05-02T13:44:44.861Z</time></trkpt><trkpt lat="42.0648567" lon="13.6000983"><ele>819.0</ele><time>2026-05-02T13:44:45.862Z</time></trkpt><trkpt lat="42.0647683" lon="13.6001083"><ele>817.5</ele><time>2026-05-02T13:44:46.861Z</time></trkpt><trkpt lat="42.06468" lon="13.60012"><ele>816.0</ele><time>2026-05-02T13:44:47.862Z</time></trkpt><trkpt lat="42.0646183" lon="13.6001383"><ele>814.5</ele><time>2026-05-02T13:44:48.862Z</time></trkpt><trkpt lat="42.0645217" lon="13.6001433"><ele>813.0</ele><time>2026-05-02T13:44:49.861Z</time></trkpt><trkpt lat="42.06443" lon="13.6001367"><ele>811.5</ele><time>2026-05-02T13:44:50.861Z</time></trkpt><trkpt lat="42.0643383" lon="13.6001433"><ele>810.0</ele><time>2026-05-02T13:44:51.861Z</time></trkpt><trkpt lat="42.0642533" lon="13.6001283"><ele>810.0</ele><time>2026-05-02T13:44:52.862Z</time></trkpt><trkpt lat="42.0641717" lon="13.60011"><ele>810.0</ele><time>2026-05-02T13:44:53.861Z</time></trkpt><trkpt lat="42.064105" lon="13.6000733"><ele>810.0</ele><time>2026-05-02T13:44:54.862Z</time></trkpt><trkpt lat="42.0640283" lon="13.6000533"><ele>810.0</ele><time>2026-05-02T13:44:55.862Z</time></trkpt><trkpt lat="42.0639483" lon="13.60003"><ele>810.0</ele><time>2026-05-02T13:44:56.861Z</time></trkpt><trkpt lat="42.0638717" lon="13.6000117"><ele>810.0</ele><time>2026-05-02T13:44:57.861Z</time></trkpt><trkpt lat="42.0638017" lon="13.5999967"><ele>808.6666666666666</ele><time>2026-05-02T13:44:58.862Z</time></trkpt><trkpt lat="42.063715" lon="13.5999433"><ele>807.3333333333333</ele><time>2026-05-02T13:45:00.862Z</time></trkpt><trkpt lat="42.063695" lon="13.5998583"><ele>806.0</ele><time>2026-05-02T13:45:02.862Z</time></trkpt><trkpt lat="42.06374" lon="13.5997467"><ele>804.6666666666666</ele><time>2026-05-02T13:45:04.861Z</time></trkpt><trkpt lat="42.0638" lon="13.5996233"><ele>803.3333333333333</ele><time>2026-05-02T13:45:06.861Z</time></trkpt><trkpt lat="42.063825" lon="13.599545"><ele>802.0</ele><time>2026-05-02T13:45:07.861Z</time></trkpt><trkpt lat="42.06385" lon="13.59946"><ele>802.4000000000001</ele><time>2026-05-02T13:45:08.861Z</time></trkpt><trkpt lat="42.0639017" lon="13.5993167"><ele>802.8000000000001</ele><time>2026-05-02T13:45:10.861Z</time></trkpt><trkpt lat="42.063965" lon="13.5991767"><ele>803.2</ele><time>2026-05-02T13:45:12.862Z</time></trkpt><trkpt lat="42.0639983" lon="13.59906"><ele>803.6</ele><time>2026-05-02T13:45:14.862Z</time></trkpt><trkpt lat="42.06403" lon="13.59897"><ele>804.0</ele><time>2026-05-02T13:45:16.861Z</time></trkpt><trkpt lat="42.0641483" lon="13.5989383"><ele>804.0</ele><time>2026-05-02T13:45:18.862Z</time></trkpt><trkpt lat="42.0642333" lon="13.5989383"><ele>804.0</ele><time>2026-05-02T13:45:19.862Z</time></trkpt><trkpt lat="42.064325" lon="13.59896"><ele>804.0</ele><time>2026-05-02T13:45:20.862Z</time></trkpt><trkpt lat="42.064415" lon="13.5989667"><ele>804.0</ele><time>2026-05-02T13:45:21.862Z</time></trkpt><trkpt lat="42.0645083" lon="13.5989783"><ele>804.0</ele><time>2026-05-02T13:45:22.861Z</time></trkpt><trkpt lat="42.0645983" lon="13.5989967"><ele>804.0</ele><time>2026-05-02T13:45:23.862Z</time></trkpt><trkpt lat="42.0646933" lon="13.5990133"><ele>804.0</ele><time>2026-05-02T13:45:24.861Z</time></trkpt><trkpt lat="42.0647933" lon="13.5990283"><ele>804.0</ele><time>2026-05-02T13:45:25.861Z</time></trkpt><trkpt lat="42.0649017" lon="13.5990367"><ele>804.0</ele><time>2026-05-02T13:45:26.861Z</time></trkpt><trkpt lat="42.065015" lon="13.5990233"><ele>804.0</ele><time>2026-05-02T13:45:27.862Z</time></trkpt><trkpt lat="42.0651317" lon="13.5990167"><ele>806.75</ele><time>2026-05-02T13:45:28.862Z</time></trkpt><trkpt lat="42.0652517" lon="13.599005"><ele>809.5</ele><time>2026-05-02T13:45:29.861Z</time></trkpt><trkpt lat="42.06538" lon="13.5989967"><ele>812.25</ele><time>2026-05-02T13:45:30.862Z</time></trkpt><trkpt lat="42.06551" lon="13.5989883"><ele>815.0</ele><time>2026-05-02T13:45:31.862Z</time></trkpt><trkpt lat="42.0656283" lon="13.5989933"><ele>815.0</ele><time>2026-05-02T13:45:32.861Z</time></trkpt><trkpt lat="42.06575" lon="13.59901"><ele>815.0</ele><time>2026-05-02T13:45:33.861Z</time></trkpt><trkpt lat="42.0658683" lon="13.59902"><ele>815.0</ele><time>2026-05-02T13:45:34.861Z</time></trkpt><trkpt lat="42.065965" lon="13.5990133"><ele>815.0</ele><time>2026-05-02T13:45:35.862Z</time></trkpt><trkpt lat="42.0660667" lon="13.5990133"><ele>815.0</ele><time>2026-05-02T13:45:36.862Z</time></trkpt><trkpt lat="42.0661583" lon="13.59902"><ele>817.0</ele><time>2026-05-02T13:45:37.861Z</time></trkpt><trkpt lat="42.0662367" lon="13.599035"><ele>819.0</ele><time>2026-05-02T13:45:38.862Z</time></trkpt><trkpt lat="42.0663383" lon="13.599065"><ele>821.0</ele><time>2026-05-02T13:45:40.861Z</time></trkpt><trkpt lat="42.0664383" lon="13.5989583"><ele>823.0</ele><time>2026-05-02T13:45:43.861Z</time></trkpt><trkpt lat="42.06646" lon="13.5988633"><ele>825.0</ele><time>2026-05-02T13:45:44.862Z</time></trkpt><trkpt lat="42.0664833" lon="13.5987417"><ele>825.8</ele><time>2026-05-02T13:45:45.862Z</time></trkpt><trkpt lat="42.0665183" lon="13.59861"><ele>826.6</ele><time>2026-05-02T13:45:46.861Z</time></trkpt><trkpt lat="42.066555" lon="13.5984833"><ele>827.4000000000001</ele><time>2026-05-02T13:45:47.862Z</time></trkpt><trkpt lat="42.0666067" lon="13.5983833"><ele>828.2</ele><time>2026-05-02T13:45:48.861Z</time></trkpt><trkpt lat="42.0666733" lon="13.5982967"><ele>829.0</ele><time>2026-05-02T13:45:49.862Z</time></trkpt><trkpt lat="42.06673" lon="13.5982067"><ele>828.9999999999999</ele><time>2026-05-02T13:45:50.861Z</time></trkpt><trkpt lat="42.0667733" lon="13.5981117"><ele>829.0</ele><time>2026-05-02T13:45:51.862Z</time></trkpt><trkpt lat="42.0668033" lon="13.598025"><ele>829.0</ele><time>2026-05-02T13:45:52.862Z</time></trkpt><trkpt lat="42.06686" lon="13.5979233"><ele>829.0</ele><time>2026-05-02T13:45:54.862Z</time></trkpt><trkpt lat="42.0669583" lon="13.5978917"><ele>828.9999999999999</ele><time>2026-05-02T13:45:56.861Z</time></trkpt><trkpt lat="42.06704" lon="13.5979033"><ele>829.0</ele><time>2026-05-02T13:45:57.862Z</time></trkpt><trkpt lat="42.06714" lon="13.5979183"><ele>829.0</ele><time>2026-05-02T13:45:58.862Z</time></trkpt><trkpt lat="42.0672567" lon="13.5979267"><ele>829.0</ele><time>2026-05-02T13:45:59.861Z</time></trkpt><trkpt lat="42.0673683" lon="13.5979467"><ele>829.0</ele><time>2026-05-02T13:46:00.861Z</time></trkpt><trkpt lat="42.0674817" lon="13.5979767"><ele>829.0</ele><time>2026-05-02T13:46:01.861Z</time></trkpt><trkpt lat="42.067595" lon="13.5980217"><ele>831.75</ele><time>2026-05-02T13:46:02.861Z</time></trkpt><trkpt lat="42.0677083" lon="13.59806"><ele>834.5</ele><time>2026-05-02T13:46:03.862Z</time></trkpt><trkpt lat="42.0678283" lon="13.5981033"><ele>837.25</ele><time>2026-05-02T13:46:04.862Z</time></trkpt><trkpt lat="42.0679583" lon="13.598135"><ele>840.0</ele><time>2026-05-02T13:46:05.862Z</time></trkpt><trkpt lat="42.0680867" lon="13.59817"><ele>840.0</ele><time>2026-05-02T13:46:06.862Z</time></trkpt><trkpt lat="42.0682167" lon="13.59821"><ele>840.0</ele><time>2026-05-02T13:46:07.861Z</time></trkpt><trkpt lat="42.0683467" lon="13.5982467"><ele>840.0</ele><time>2026-05-02T13:46:08.861Z</time></trkpt><trkpt lat="42.0684783" lon="13.5982833"><ele>840.0</ele><time>2026-05-02T13:46:09.861Z</time></trkpt><trkpt lat="42.0686117" lon="13.5983183"><ele>842.0</ele><time>2026-05-02T13:46:10.861Z</time></trkpt><trkpt lat="42.06873" lon="13.5983467"><ele>844.0</ele><time>2026-05-02T13:46:11.861Z</time></trkpt><trkpt lat="42.0688433" lon="13.5983733"><ele>846.0</ele><time>2026-05-02T13:46:12.861Z</time></trkpt><trkpt lat="42.0689617" lon="13.598405"><ele>848.0</ele><time>2026-05-02T13:46:13.862Z</time></trkpt><trkpt lat="42.069065" lon="13.598435"><ele>850.0</ele><time>2026-05-02T13:46:14.861Z</time></trkpt><trkpt lat="42.0691517" lon="13.5984533"><ele>852.0</ele><time>2026-05-02T13:46:15.861Z</time></trkpt><trkpt lat="42.0692183" lon="13.59847"><ele>854.0</ele><time>2026-05-02T13:46:16.861Z</time></trkpt><trkpt lat="42.0693117" lon="13.5985283"><ele>856.0</ele><time>2026-05-02T13:46:18.861Z</time></trkpt><trkpt lat="42.069345" lon="13.598645"><ele>858.0</ele><time>2026-05-02T13:46:20.862Z</time></trkpt><trkpt lat="42.06932" lon="13.59881"><ele>858.5999999999999</ele><time>2026-05-02T13:46:22.862Z</time></trkpt><trkpt lat="42.0693" lon="13.59893"><ele>859.1999999999999</ele><time>2026-05-02T13:46:23.861Z</time></trkpt><trkpt lat="42.0692833" lon="13.59907"><ele>859.8</ele><time>2026-05-02T13:46:24.862Z</time></trkpt><trkpt lat="42.0692767" lon="13.599215"><ele>860.4</ele><time>2026-05-02T13:46:25.861Z</time></trkpt><trkpt lat="42.0692833" lon="13.5993467"><ele>861.0</ele><time>2026-05-02T13:46:26.861Z</time></trkpt><trkpt lat="42.0692867" lon="13.5994633"><ele>861.3333333333334</ele><time>2026-05-02T13:46:27.861Z</time></trkpt><trkpt lat="42.0693" lon="13.59956"><ele>861.6666666666667</ele><time>2026-05-02T13:46:28.861Z</time></trkpt><trkpt lat="42.0693167" lon="13.5996517"><ele>862.0</ele><time>2026-05-02T13:46:29.861Z</time></trkpt><trkpt lat="42.06934" lon="13.599735"><ele>862.3333333333334</ele><time>2026-05-02T13:46:30.862Z</time></trkpt><trkpt lat="42.0693817" lon="13.5998533"><ele>862.6666666666667</ele><time>2026-05-02T13:46:32.861Z</time></trkpt><trkpt lat="42.0694483" lon="13.5998967"><ele>863.0</ele><time>2026-05-02T13:46:34.861Z</time></trkpt><trkpt lat="42.0695767" lon="13.59988"><ele>863.0</ele><time>2026-05-02T13:46:36.861Z</time></trkpt><trkpt lat="42.069655" lon="13.5998383"><ele>863.0</ele><time>2026-05-02T13:46:37.862Z</time></trkpt><trkpt lat="42.0697533" lon="13.5997867"><ele>863.0</ele><time>2026-05-02T13:46:38.861Z</time></trkpt><trkpt lat="42.06987" lon="13.5997567"><ele>863.0</ele><time>2026-05-02T13:46:39.861Z</time></trkpt><trkpt lat="42.0699933" lon="13.5997517"><ele>863.0</ele><time>2026-05-02T13:46:40.862Z</time></trkpt><trkpt lat="42.07012" lon="13.5997433"><ele>864.75</ele><time>2026-05-02T13:46:41.862Z</time></trkpt><trkpt lat="42.0702517" lon="13.5997267"><ele>866.5</ele><time>2026-05-02T13:46:42.862Z</time></trkpt><trkpt lat="42.0703867" lon="13.5997067"><ele>868.25</ele><time>2026-05-02T13:46:43.861Z</time></trkpt><trkpt lat="42.0705333" lon="13.5996783"><ele>870.0</ele><time>2026-05-02T13:46:44.861Z</time></trkpt><trkpt lat="42.0706767" lon="13.5996317"><ele>870.0</ele><time>2026-05-02T13:46:45.861Z</time></trkpt><trkpt lat="42.0708233" lon="13.5995717"><ele>870.0</ele><time>2026-05-02T13:46:46.861Z</time></trkpt><trkpt lat="42.0709617" lon="13.5995083"><ele>870.0</ele><time>2026-05-02T13:46:47.862Z</time></trkpt><trkpt lat="42.0711033" lon="13.5994517"><ele>870.0</ele><time>2026-05-02T13:46:48.862Z</time></trkpt><trkpt lat="42.071245" lon="13.59939"><ele>872.0</ele><time>2026-05-02T13:46:49.862Z</time></trkpt><trkpt lat="42.0713833" lon="13.5993283"><ele>874.0</ele><time>2026-05-02T13:46:50.861Z</time></trkpt><trkpt lat="42.07153" lon="13.5992717"><ele>876.0</ele><time>2026-05-02T13:46:51.861Z</time></trkpt><trkpt lat="42.0716767" lon="13.59921"><ele>877.75</ele><time>2026-05-02T13:46:52.861Z</time></trkpt><trkpt lat="42.0718183" lon="13.5991433"><ele>879.5</ele><time>2026-05-02T13:46:53.861Z</time></trkpt><trkpt lat="42.0719583" lon="13.5990767"><ele>881.25</ele><time>2026-05-02T13:46:54.861Z</time></trkpt><trkpt lat="42.0720983" lon="13.5990133"><ele>883.0</ele><time>2026-05-02T13:46:55.861Z</time></trkpt><trkpt lat="42.072245" lon="13.5989483"><ele>883.0</ele><time>2026-05-02T13:46:56.862Z</time></trkpt><trkpt lat="42.0723883" lon="13.59888"><ele>883.0</ele><time>2026-05-02T13:46:57.861Z</time></trkpt><trkpt lat="42.0725283" lon="13.598815"><ele>883.0</ele><time>2026-05-02T13:46:58.861Z</time></trkpt><trkpt lat="42.0726717" lon="13.5987517"><ele>885.3333333333333</ele><time>2026-05-02T13:46:59.862Z</time></trkpt><trkpt lat="42.0728233" lon="13.5986867"><ele>887.6666666666667</ele><time>2026-05-02T13:47:00.862Z</time></trkpt><trkpt lat="42.0729783" lon="13.5986167"><ele>890.0</ele><time>2026-05-02T13:47:01.861Z</time></trkpt><trkpt lat="42.073135" lon="13.5985433"><ele>894.6666666666667</ele><time>2026-05-02T13:47:02.862Z</time></trkpt><trkpt lat="42.0732967" lon="13.5984733"><ele>899.3333333333333</ele><time>2026-05-02T13:47:03.862Z</time></trkpt><trkpt lat="42.07346" lon="13.5983967"><ele>904.0</ele><time>2026-05-02T13:47:04.861Z</time></trkpt><trkpt lat="42.0736217" lon="13.5983167"><ele>904.0</ele><time>2026-05-02T13:47:05.862Z</time></trkpt><trkpt lat="42.0737833" lon="13.59825"><ele>904.0</ele><time>2026-05-02T13:47:06.861Z</time></trkpt><trkpt lat="42.073955" lon="13.5982"><ele>904.0</ele><time>2026-05-02T13:47:07.862Z</time></trkpt><trkpt lat="42.0741283" lon="13.5981617"><ele>907.0</ele><time>2026-05-02T13:47:08.861Z</time></trkpt><trkpt lat="42.0743033" lon="13.5981483"><ele>910.0</ele><time>2026-05-02T13:47:09.862Z</time></trkpt><trkpt lat="42.074485" lon="13.5981533"><ele>913.0</ele><time>2026-05-02T13:47:10.862Z</time></trkpt><trkpt lat="42.0746583" lon="13.59816"><ele>913.0</ele><time>2026-05-02T13:47:11.861Z</time></trkpt><trkpt lat="42.0748333" lon="13.5981683"><ele>913.0</ele><time>2026-05-02T13:47:12.862Z</time></trkpt><trkpt lat="42.0750067" lon="13.598185"><ele>913.0</ele><time>2026-05-02T13:47:13.861Z</time></trkpt><trkpt lat="42.0751767" lon="13.598195"><ele>916.6666666666666</ele><time>2026-05-02T13:47:14.861Z</time></trkpt><trkpt lat="42.0753483" lon="13.5981983"><ele>920.3333333333333</ele><time>2026-05-02T13:47:15.862Z</time></trkpt><trkpt lat="42.0755183" lon="13.59821"><ele>924.0</ele><time>2026-05-02T13:47:16.862Z</time></trkpt><trkpt lat="42.075695" lon="13.5982117"><ele>927.3333333333333</ele><time>2026-05-02T13:47:17.862Z</time></trkpt><trkpt lat="42.075865" lon="13.5982083"><ele>930.6666666666666</ele><time>2026-05-02T13:47:18.861Z</time></trkpt><trkpt lat="42.0760383" lon="13.5981917"><ele>934.0</ele><time>2026-05-02T13:47:19.861Z</time></trkpt><trkpt lat="42.0761967" lon="13.598155"><ele>934.0</ele><time>2026-05-02T13:47:20.861Z</time></trkpt><trkpt lat="42.0763317" lon="13.5980883"><ele>934.0</ele><time>2026-05-02T13:47:21.861Z</time></trkpt><trkpt lat="42.0764483" lon="13.5979833"><ele>934.0</ele><time>2026-05-02T13:47:22.861Z</time></trkpt><trkpt lat="42.07654" lon="13.5978317"><ele>934.0</ele><time>2026-05-02T13:47:23.861Z</time></trkpt><trkpt lat="42.07663" lon="13.5976667"><ele>937.5</ele><time>2026-05-02T13:47:24.862Z</time></trkpt><trkpt lat="42.076715" lon="13.5975233"><ele>941.0</ele><time>2026-05-02T13:47:25.861Z</time></trkpt><trkpt lat="42.07681" lon="13.5974117"><ele>944.5</ele><time>2026-05-02T13:47:26.862Z</time></trkpt><trkpt lat="42.0769133" lon="13.5973367"><ele>948.0</ele><time>2026-05-02T13:47:27.861Z</time></trkpt><trkpt lat="42.0770117" lon="13.59729"><ele>948.0</ele><time>2026-05-02T13:47:28.861Z</time></trkpt><trkpt lat="42.077105" lon="13.5972933"><ele>948.0</ele><time>2026-05-02T13:47:29.861Z</time></trkpt><trkpt lat="42.077195" lon="13.5973433"><ele>948.0</ele><time>2026-05-02T13:47:30.861Z</time></trkpt><trkpt lat="42.0772733" lon="13.5974383"><ele>948.0</ele><time>2026-05-02T13:47:31.862Z</time></trkpt><trkpt lat="42.077325" lon="13.5976"><ele>948.0</ele><time>2026-05-02T13:47:32.861Z</time></trkpt><trkpt lat="42.07736" lon="13.5977733"><ele>949.1666666666666</ele><time>2026-05-02T13:47:33.861Z</time></trkpt><trkpt lat="42.0774" lon="13.5979133"><ele>950.3333333333333</ele><time>2026-05-02T13:47:34.862Z</time></trkpt><trkpt lat="42.0774533" lon="13.5980067"><ele>951.5</ele><time>2026-05-02T13:47:35.862Z</time></trkpt><trkpt lat="42.077515" lon="13.5980533"><ele>952.6666666666666</ele><time>2026-05-02T13:47:36.861Z</time></trkpt><trkpt lat="42.0775783" lon="13.5980217"><ele>953.8333333333333</ele><time>2026-05-02T13:47:37.861Z</time></trkpt><trkpt lat="42.07763" lon="13.5979567"><ele>955.0</ele><time>2026-05-02T13:47:38.861Z</time></trkpt><trkpt lat="42.077665" lon="13.5978633"><ele>953.25</ele><time>2026-05-02T13:47:39.861Z</time></trkpt><trkpt lat="42.0776617" lon="13.5977433"><ele>951.5</ele><time>2026-05-02T13:47:40.862Z</time></trkpt><trkpt lat="42.0776233" lon="13.5976017"><ele>949.75</ele><time>2026-05-02T13:47:41.861Z</time></trkpt><trkpt lat="42.0775267" lon="13.5973967"><ele>948.0</ele><time>2026-05-02T13:47:42.861Z</time></trkpt><trkpt lat="42.0774183" lon="13.5971733"><ele>950.6666666666667</ele><time>2026-05-02T13:47:43.861Z</time></trkpt><trkpt lat="42.077325" lon="13.5969567"><ele>953.3333333333334</ele><time>2026-05-02T13:47:44.862Z</time></trkpt><trkpt lat="42.0772367" lon="13.596755"><ele>956.0</ele><time>2026-05-02T13:47:45.862Z</time></trkpt><trkpt lat="42.077165" lon="13.596575"><ele>956.0</ele><time>2026-05-02T13:47:46.862Z</time></trkpt><trkpt lat="42.0771033" lon="13.5964083"><ele>956.0</ele><time>2026-05-02T13:47:47.862Z</time></trkpt><trkpt lat="42.0770667" lon="13.59624"><ele>956.0</ele><time>2026-05-02T13:47:48.861Z</time></trkpt><trkpt lat="42.0770683" lon="13.5960683"><ele>956.0</ele><time>2026-05-02T13:47:49.861Z</time></trkpt><trkpt lat="42.0771133" lon="13.5959"><ele>955.75</ele><time>2026-05-02T13:47:50.862Z</time></trkpt><trkpt lat="42.0771933" lon="13.5957417"><ele>955.5</ele><time>2026-05-02T13:47:51.861Z</time></trkpt><trkpt lat="42.07729" lon="13.5955883"><ele>955.25</ele><time>2026-05-02T13:47:52.861Z</time></trkpt><trkpt lat="42.0774" lon="13.5954417"><ele>955.0</ele><time>2026-05-02T13:47:53.862Z</time></trkpt><trkpt lat="42.0775317" lon="13.5953033"><ele>959.6666666666666</ele><time>2026-05-02T13:47:54.861Z</time></trkpt><trkpt lat="42.07767" lon="13.5951567"><ele>964.3333333333333</ele><time>2026-05-02T13:47:55.862Z</time></trkpt><trkpt lat="42.0777967" lon="13.5950167"><ele>969.0</ele><time>2026-05-02T13:47:56.861Z</time></trkpt><trkpt lat="42.077925" lon="13.59488"><ele>969.0</ele><time>2026-05-02T13:47:57.862Z</time></trkpt><trkpt lat="42.0780467" lon="13.594765"><ele>969.0</ele><time>2026-05-02T13:47:58.861Z</time></trkpt><trkpt lat="42.0781667" lon="13.5946667"><ele>969.0</ele><time>2026-05-02T13:47:59.862Z</time></trkpt><trkpt lat="42.078265" lon="13.5945817"><ele>969.0</ele><time>2026-05-02T13:48:00.861Z</time></trkpt><trkpt lat="42.0783233" lon="13.59447"><ele>973.25</ele><time>2026-05-02T13:48:01.862Z</time></trkpt><trkpt lat="42.078355" lon="13.5943333"><ele>977.5</ele><time>2026-05-02T13:48:02.861Z</time></trkpt><trkpt lat="42.0783383" lon="13.59418"><ele>981.75</ele><time>2026-05-02T13:48:03.862Z</time></trkpt><trkpt lat="42.0783117" lon="13.5940183"><ele>986.0</ele><time>2026-05-02T13:48:04.861Z</time></trkpt><trkpt lat="42.0783117" lon="13.59386"><ele>986.0</ele><time>2026-05-02T13:48:05.861Z</time></trkpt><trkpt lat="42.0783617" lon="13.5937167"><ele>986.0</ele><time>2026-05-02T13:48:06.862Z</time></trkpt><trkpt lat="42.0784483" lon="13.5935933"><ele>986.0</ele><time>2026-05-02T13:48:07.861Z</time></trkpt><trkpt lat="42.078565" lon="13.5934817"><ele>986.0</ele><time>2026-05-02T13:48:08.862Z</time></trkpt><trkpt lat="42.0786967" lon="13.5933633"><ele>982.6666666666667</ele><time>2026-05-02T13:48:09.862Z</time></trkpt><trkpt lat="42.0788267" lon="13.5932433"><ele>979.3333333333333</ele><time>2026-05-02T13:48:10.862Z</time></trkpt><trkpt lat="42.0789517" lon="13.593115"><ele>976.0</ele><time>2026-05-02T13:48:11.861Z</time></trkpt><trkpt lat="42.0790717" lon="13.5929783"><ele>979.5</ele><time>2026-05-02T13:48:12.861Z</time></trkpt><trkpt lat="42.079205" lon="13.5928683"><ele>983.0</ele><time>2026-05-02T13:48:13.861Z</time></trkpt><trkpt lat="42.0793267" lon="13.5927633"><ele>986.5</ele><time>2026-05-02T13:48:14.861Z</time></trkpt><trkpt lat="42.0794467" lon="13.5926583"><ele>990.0</ele><time>2026-05-02T13:48:15.862Z</time></trkpt><trkpt lat="42.0795667" lon="13.5925533"><ele>990.0</ele><time>2026-05-02T13:48:16.861Z</time></trkpt><trkpt lat="42.0796767" lon="13.592455"><ele>990.0</ele><time>2026-05-02T13:48:17.862Z</time></trkpt><trkpt lat="42.079785" lon="13.5923467"><ele>990.0</ele><time>2026-05-02T13:48:18.861Z</time></trkpt><trkpt lat="42.0799033" lon="13.5922383"><ele>990.0</ele><time>2026-05-02T13:48:19.862Z</time></trkpt><trkpt lat="42.0800267" lon="13.59213"><ele>993.5</ele><time>2026-05-02T13:48:20.861Z</time></trkpt><trkpt lat="42.0801517" lon="13.5920283"><ele>997.0</ele><time>2026-05-02T13:48:21.862Z</time></trkpt><trkpt lat="42.080265" lon="13.5919317"><ele>1000.5</ele><time>2026-05-02T13:48:22.861Z</time></trkpt><trkpt lat="42.080375" lon="13.591855"><ele>1004.0</ele><time>2026-05-02T13:48:23.862Z</time></trkpt><trkpt lat="42.0804717" lon="13.5917683"><ele>1004.0000000000001</ele><time>2026-05-02T13:48:24.862Z</time></trkpt><trkpt lat="42.0805583" lon="13.591695"><ele>1004.0</ele><time>2026-05-02T13:48:25.861Z</time></trkpt><trkpt lat="42.0806317" lon="13.5916267"><ele>1004.0</ele><time>2026-05-02T13:48:26.861Z</time></trkpt><trkpt lat="42.0806817" lon="13.5915567"><ele>1004.0</ele><time>2026-05-02T13:48:27.862Z</time></trkpt><trkpt lat="42.0807333" lon="13.591445"><ele>1004.0000000000001</ele><time>2026-05-02T13:48:29.861Z</time></trkpt><trkpt lat="42.08073" lon="13.5913483"><ele>1004.0</ele><time>2026-05-02T13:48:32.861Z</time></trkpt><trkpt lat="42.0807533" lon="13.591225"><ele>1005.0</ele><time>2026-05-02T13:48:40.862Z</time></trkpt><trkpt lat="42.080765" lon="13.59111"><ele>1006.0000000000001</ele><time>2026-05-02T13:48:42.862Z</time></trkpt><trkpt lat="42.0807433" lon="13.59098"><ele>1007.0000000000001</ele><time>2026-05-02T13:48:44.862Z</time></trkpt><trkpt lat="42.080635" lon="13.590865"><ele>1008.0</ele><time>2026-05-02T13:48:46.861Z</time></trkpt><trkpt lat="42.0805567" lon="13.5908067"><ele>1009.0</ele><time>2026-05-02T13:48:47.861Z</time></trkpt><trkpt lat="42.0804783" lon="13.5907467"><ele>1009.0</ele><time>2026-05-02T13:48:48.861Z</time></trkpt><trkpt lat="42.080405" lon="13.5906767"><ele>1009.0000000000001</ele><time>2026-05-02T13:48:49.862Z</time></trkpt><trkpt lat="42.08033" lon="13.5906183"><ele>1009.0000000000001</ele><time>2026-05-02T13:48:50.861Z</time></trkpt><trkpt lat="42.0802583" lon="13.5905467"><ele>1009.0</ele><time>2026-05-02T13:48:51.862Z</time></trkpt><trkpt lat="42.0801917" lon="13.5904983"><ele>1009.0</ele><time>2026-05-02T13:48:52.861Z</time></trkpt><trkpt lat="42.08011" lon="13.5904"><ele>1008.9999999999999</ele><time>2026-05-02T13:48:54.862Z</time></trkpt><trkpt lat="42.08011" lon="13.590305"><ele>1009.0</ele><time>2026-05-02T13:48:56.862Z</time></trkpt><trkpt lat="42.0801733" lon="13.5902783"><ele>1009.0</ele><time>2026-05-02T13:48:59.862Z</time></trkpt><trkpt lat="42.0802417" lon="13.5903217"><ele>1009.0</ele><time>2026-05-02T13:49:01.861Z</time></trkpt><trkpt lat="42.0803417" lon="13.5903817"><ele>1008.9999999999999</ele><time>2026-05-02T13:49:03.861Z</time></trkpt><trkpt lat="42.0804383" lon="13.59041"><ele>1009.0</ele><time>2026-05-02T13:49:05.861Z</time></trkpt><trkpt lat="42.0805217" lon="13.5904317"><ele>1008.9999999999999</ele><time>2026-05-02T13:49:07.862Z</time></trkpt><trkpt lat="42.080595" lon="13.5904633"><ele>1009.0</ele><time>2026-05-02T13:49:09.862Z</time></trkpt><trkpt lat="42.08067" lon="13.5905017"><ele>1009.0</ele><time>2026-05-02T13:49:11.862Z</time></trkpt><trkpt lat="42.0807467" lon="13.5905367"><ele>1009.0</ele><time>2026-05-02T13:49:13.862Z</time></trkpt><trkpt lat="42.0808167" lon="13.5905733"><ele>1008.9999999999999</ele><time>2026-05-02T13:49:15.861Z</time></trkpt><trkpt lat="42.080905" lon="13.5905917"><ele>1009.0</ele><time>2026-05-02T13:49:17.862Z</time></trkpt><trkpt lat="42.0810367" lon="13.59063"><ele>1010.8333333333333</ele><time>2026-05-02T13:49:19.861Z</time></trkpt><trkpt lat="42.0811067" lon="13.5906533"><ele>1012.6666666666666</ele><time>2026-05-02T13:49:20.861Z</time></trkpt><trkpt lat="42.0811733" lon="13.5906667"><ele>1014.5</ele><time>2026-05-02T13:49:21.862Z</time></trkpt><trkpt lat="42.0812583" lon="13.5906467"><ele>1016.3333333333333</ele><time>2026-05-02T13:49:23.861Z</time></trkpt><trkpt lat="42.0813117" lon="13.5905383"><ele>1018.1666666666666</ele><time>2026-05-02T13:49:36.862Z</time></trkpt><trkpt lat="42.081335" lon="13.5904417"><ele>1020.0</ele><time>2026-05-02T13:49:39.861Z</time></trkpt><trkpt lat="42.0813367" lon="13.5903167"><ele>1020.6</ele><time>2026-05-02T13:49:45.862Z</time></trkpt><trkpt lat="42.0813383" lon="13.5902117"><ele>1021.2</ele><time>2026-05-02T13:49:47.861Z</time></trkpt><trkpt lat="42.081375" lon="13.59014"><ele>1021.8</ele><time>2026-05-02T13:49:50.861Z</time></trkpt><trkpt lat="42.081455" lon="13.5901183"><ele>1022.4</ele><time>2026-05-02T13:49:52.862Z</time></trkpt><trkpt lat="42.08152" lon="13.5901033"><ele>1023.0</ele><time>2026-05-02T13:49:53.862Z</time></trkpt><trkpt lat="42.0816983" lon="13.5899967"><ele>1023.3333333333334</ele><time>2026-05-02T13:49:56.861Z</time></trkpt><trkpt lat="42.0817633" lon="13.5899283"><ele>1023.6666666666667</ele><time>2026-05-02T13:49:57.861Z</time></trkpt><trkpt lat="42.0818283" lon="13.58987"><ele>1024.0</ele><time>2026-05-02T13:49:58.861Z</time></trkpt><trkpt lat="42.0818983" lon="13.58982"><ele>1024.3333333333335</ele><time>2026-05-02T13:49:59.862Z</time></trkpt><trkpt lat="42.0819633" lon="13.5897783"><ele>1024.6666666666667</ele><time>2026-05-02T13:50:00.861Z</time></trkpt><trkpt lat="42.0820267" lon="13.58975"><ele>1025.0</ele><time>2026-05-02T13:50:01.861Z</time></trkpt><trkpt lat="42.082125" lon="13.5896933"><ele>1025.0</ele><time>2026-05-02T13:50:03.861Z</time></trkpt><trkpt lat="42.08225" lon="13.58965"><ele>1025.0</ele><time>2026-05-02T13:50:05.861Z</time></trkpt><trkpt lat="42.0823283" lon="13.58964"><ele>1025.0</ele><time>2026-05-02T13:50:06.862Z</time></trkpt><trkpt lat="42.08241" lon="13.5896267"><ele>1025.0</ele><time>2026-05-02T13:50:07.862Z</time></trkpt><trkpt lat="42.0824917" lon="13.5896133"><ele>1025.0</ele><time>2026-05-02T13:50:08.861Z</time></trkpt><trkpt lat="42.0825683" lon="13.5896067"><ele>1025.0</ele><time>2026-05-02T13:50:09.861Z</time></trkpt><trkpt lat="42.0826317" lon="13.5896217"><ele>1025.6</ele><time>2026-05-02T13:50:10.862Z</time></trkpt><trkpt lat="42.0826917" lon="13.5896583"><ele>1026.2</ele><time>2026-05-02T13:50:11.861Z</time></trkpt><trkpt lat="42.0827583" lon="13.5897333"><ele>1026.8</ele><time>2026-05-02T13:50:13.861Z</time></trkpt><trkpt lat="42.0826983" lon="13.58961"><ele>1027.4</ele><time>2026-05-02T13:50:30.862Z</time></trkpt><trkpt lat="42.0826817" lon="13.5894583"><ele>1028.0</ele><time>2026-05-02T13:50:32.861Z</time></trkpt><trkpt lat="42.08267" lon="13.5893017"><ele>1024.0</ele><time>2026-05-02T13:50:34.861Z</time></trkpt><trkpt lat="42.0826467" lon="13.589165"><ele>1020.0</ele><time>2026-05-02T13:50:36.861Z</time></trkpt><trkpt lat="42.082625" lon="13.5890267"><ele>1016.0</ele><time>2026-05-02T13:50:38.862Z</time></trkpt><trkpt lat="42.08259" lon="13.5889067"><ele>1012.0</ele><time>2026-05-02T13:50:40.862Z</time></trkpt><trkpt lat="42.08256" lon="13.5887967"><ele>1008.0</ele><time>2026-05-02T13:50:42.861Z</time></trkpt><trkpt lat="42.0825717" lon="13.588705"><ele>1008.0</ele><time>2026-05-02T13:50:45.862Z</time></trkpt><trkpt lat="42.0826517" lon="13.5886917"><ele>1008.0</ele><time>2026-05-02T13:50:47.861Z</time></trkpt><trkpt lat="42.0827683" lon="13.588715"><ele>1008.0</ele><time>2026-05-02T13:50:49.861Z</time></trkpt><trkpt lat="42.082835" lon="13.5887417"><ele>1008.0</ele><time>2026-05-02T13:50:50.862Z</time></trkpt><trkpt lat="42.08291" lon="13.5887667"><ele>1008.0</ele><time>2026-05-02T13:50:51.861Z</time></trkpt><trkpt lat="42.0830017" lon="13.5887833"><ele>1008.0</ele><time>2026-05-02T13:50:52.861Z</time></trkpt><trkpt lat="42.0831017" lon="13.5887967"><ele>1008.0</ele><time>2026-05-02T13:50:53.862Z</time></trkpt><trkpt lat="42.0832033" lon="13.5888067"><ele>1008.0</ele><time>2026-05-02T13:50:54.861Z</time></trkpt><trkpt lat="42.0833117" lon="13.5888167"><ele>1008.0</ele><time>2026-05-02T13:50:55.861Z</time></trkpt><trkpt lat="42.0834167" lon="13.5888233"><ele>1008.0</ele><time>2026-05-02T13:50:56.861Z</time></trkpt><trkpt lat="42.0835267" lon="13.5888233"><ele>1008.0</ele><time>2026-05-02T13:50:57.861Z</time></trkpt><trkpt lat="42.0836333" lon="13.5888217"><ele>1006.5</ele><time>2026-05-02T13:50:58.862Z</time></trkpt><trkpt lat="42.0837283" lon="13.5888333"><ele>1005.0</ele><time>2026-05-02T13:50:59.862Z</time></trkpt><trkpt lat="42.083815" lon="13.5888433"><ele>1003.5</ele><time>2026-05-02T13:51:00.861Z</time></trkpt><trkpt lat="42.0839017" lon="13.5888583"><ele>1002.0</ele><time>2026-05-02T13:51:01.861Z</time></trkpt><trkpt lat="42.083985" lon="13.588865"><ele>1000.5</ele><time>2026-05-02T13:51:02.861Z</time></trkpt><trkpt lat="42.0840667" lon="13.5888617"><ele>999.0</ele><time>2026-05-02T13:51:03.862Z</time></trkpt><trkpt lat="42.08415" lon="13.588845"><ele>997.3333333333334</ele><time>2026-05-02T13:51:04.862Z</time></trkpt><trkpt lat="42.08423" lon="13.5888333"><ele>995.6666666666667</ele><time>2026-05-02T13:51:05.862Z</time></trkpt><trkpt lat="42.0843183" lon="13.5888333"><ele>994.0</ele><time>2026-05-02T13:51:06.862Z</time></trkpt><trkpt lat="42.0844133" lon="13.5888233"><ele>992.3333333333334</ele><time>2026-05-02T13:51:07.862Z</time></trkpt><trkpt lat="42.0845017" lon="13.5888083"><ele>990.6666666666667</ele><time>2026-05-02T13:51:08.862Z</time></trkpt><trkpt lat="42.0845867" lon="13.5887967"><ele>989.0</ele><time>2026-05-02T13:51:09.861Z</time></trkpt><trkpt lat="42.0846583" lon="13.5887933"><ele>989.0</ele><time>2026-05-02T13:51:10.861Z</time></trkpt><trkpt lat="42.0847583" lon="13.58877"><ele>989.0000000000001</ele><time>2026-05-02T13:51:12.862Z</time></trkpt><trkpt lat="42.0847983" lon="13.58867"><ele>989.0000000000001</ele><time>2026-05-02T13:51:15.861Z</time></trkpt><trkpt lat="42.0847267" lon="13.5886167"><ele>989.0</ele><time>2026-05-02T13:51:17.861Z</time></trkpt><trkpt lat="42.084625" lon="13.5886283"><ele>989.0</ele><time>2026-05-02T13:51:19.861Z</time></trkpt><trkpt lat="42.084505" lon="13.5886133"><ele>985.5000000000001</ele><time>2026-05-02T13:51:21.861Z</time></trkpt><trkpt lat="42.0844383" lon="13.5885633"><ele>982.0</ele><time>2026-05-02T13:51:22.862Z</time></trkpt><trkpt lat="42.0843717" lon="13.588495"><ele>978.5</ele><time>2026-05-02T13:51:23.861Z</time></trkpt><trkpt lat="42.084305" lon="13.5884267"><ele>975.0</ele><time>2026-05-02T13:51:24.861Z</time></trkpt><trkpt lat="42.0842367" lon="13.58835"><ele>971.5000000000001</ele><time>2026-05-02T13:51:25.861Z</time></trkpt><trkpt lat="42.0841783" lon="13.5882683"><ele>968.0</ele><time>2026-05-02T13:51:26.861Z</time></trkpt><trkpt lat="42.08414" lon="13.58814"><ele>968.0</ele><time>2026-05-02T13:51:28.861Z</time></trkpt><trkpt lat="42.0841696" lon="13.5880367"><ele>968.0</ele><time>2026-05-02T13:51:31.861Z</time></trkpt><trkpt lat="42.0842484" lon="13.5879658"><ele>968.0</ele><time>2026-05-02T13:51:33.862Z</time></trkpt><trkpt lat="42.0843506" lon="13.5879001"><ele>968.0</ele><time>2026-05-02T13:51:35.861Z</time></trkpt><trkpt lat="42.0844361" lon="13.5878111"><ele>968.0</ele><time>2026-05-02T13:51:37.861Z</time></trkpt><trkpt lat="42.0844831" lon="13.5877525"><ele>965.8333333333334</ele><time>2026-05-02T13:51:38.861Z</time></trkpt><trkpt lat="42.0845237" lon="13.5876856"><ele>963.6666666666667</ele><time>2026-05-02T13:51:39.862Z</time></trkpt><trkpt lat="42.0845646" lon="13.5876111"><ele>961.5</ele><time>2026-05-02T13:51:40.862Z</time></trkpt><trkpt lat="42.0846106" lon="13.5875288"><ele>959.3333333333333</ele><time>2026-05-02T13:51:41.862Z</time></trkpt><trkpt lat="42.0846585" lon="13.5874443"><ele>957.1666666666666</ele><time>2026-05-02T13:51:42.861Z</time></trkpt><trkpt lat="42.0847176" lon="13.5873629"><ele>955.0</ele><time>2026-05-02T13:51:43.862Z</time></trkpt><trkpt lat="42.0847868" lon="13.5872854"><ele>955.0</ele><time>2026-05-02T13:51:44.861Z</time></trkpt><trkpt lat="42.0848646" lon="13.5872163"><ele>955.0</ele><time>2026-05-02T13:51:45.861Z</time></trkpt><trkpt lat="42.0849494" lon="13.587157"><ele>955.0</ele><time>2026-05-02T13:51:46.861Z</time></trkpt><trkpt lat="42.0850408" lon="13.5871189"><ele>955.0</ele><time>2026-05-02T13:51:47.861Z</time></trkpt><trkpt lat="42.0851305" lon="13.5870915"><ele>955.0</ele><time>2026-05-02T13:51:48.862Z</time></trkpt><trkpt lat="42.0852128" lon="13.5870558"><ele>954.2</ele><time>2026-05-02T13:51:49.861Z</time></trkpt><trkpt lat="42.085295" lon="13.5870257"><ele>953.4</ele><time>2026-05-02T13:51:50.861Z</time></trkpt><trkpt lat="42.0853657" lon="13.5869927"><ele>952.5999999999999</ele><time>2026-05-02T13:51:51.861Z</time></trkpt><trkpt lat="42.0854232" lon="13.5869498"><ele>951.8</ele><time>2026-05-02T13:51:52.861Z</time></trkpt><trkpt lat="42.0854949" lon="13.5868246"><ele>951.0</ele><time>2026-05-02T13:51:54.862Z</time></trkpt><trkpt lat="42.0855207" lon="13.5866595"><ele>950.0</ele><time>2026-05-02T13:51:56.861Z</time></trkpt><trkpt lat="42.085508" lon="13.5865633"><ele>949.0</ele><time>2026-05-02T13:51:57.861Z</time></trkpt><trkpt lat="42.0854717" lon="13.5864654"><ele>948.0</ele><time>2026-05-02T13:51:58.861Z</time></trkpt><trkpt lat="42.0854244" lon="13.5863572"><ele>947.0</ele><time>2026-05-02T13:51:59.862Z</time></trkpt><trkpt lat="42.0853777" lon="13.5862407"><ele>946.0</ele><time>2026-05-02T13:52:00.862Z</time></trkpt><trkpt lat="42.0853457" lon="13.5861163"><ele>945.0</ele><time>2026-05-02T13:52:01.861Z</time></trkpt><trkpt lat="42.0853287" lon="13.5859948"><ele>944.8333333333334</ele><time>2026-05-02T13:52:02.862Z</time></trkpt><trkpt lat="42.0853225" lon="13.5858775"><ele>944.6666666666667</ele><time>2026-05-02T13:52:03.861Z</time></trkpt><trkpt lat="42.0853381" lon="13.5857659"><ele>944.5</ele><time>2026-05-02T13:52:04.862Z</time></trkpt><trkpt lat="42.0853724" lon="13.5856539"><ele>944.3333333333334</ele><time>2026-05-02T13:52:05.861Z</time></trkpt><trkpt lat="42.0854111" lon="13.5855463"><ele>944.1666666666667</ele><time>2026-05-02T13:52:06.862Z</time></trkpt><trkpt lat="42.0854513" lon="13.5854432"><ele>944.0</ele><time>2026-05-02T13:52:07.862Z</time></trkpt><trkpt lat="42.0854942" lon="13.5853373"><ele>943.6</ele><time>2026-05-02T13:52:08.862Z</time></trkpt><trkpt lat="42.0855433" lon="13.5852293"><ele>943.2</ele><time>2026-05-02T13:52:09.861Z</time></trkpt><trkpt lat="42.0855896" lon="13.5851185"><ele>942.8000000000001</ele><time>2026-05-02T13:52:10.861Z</time></trkpt><trkpt lat="42.0856337" lon="13.5850078"><ele>942.4000000000001</ele><time>2026-05-02T13:52:11.861Z</time></trkpt><trkpt lat="42.0856733" lon="13.5848984"><ele>942.0</ele><time>2026-05-02T13:52:12.861Z</time></trkpt><trkpt lat="42.0857129" lon="13.5847843"><ele>942.0</ele><time>2026-05-02T13:52:13.862Z</time></trkpt><trkpt lat="42.0857589" lon="13.5846802"><ele>942.0</ele><time>2026-05-02T13:52:14.861Z</time></trkpt><trkpt lat="42.0858031" lon="13.584593"><ele>942.0</ele><time>2026-05-02T13:52:15.862Z</time></trkpt><trkpt lat="42.0858494" lon="13.5845196"><ele>942.0</ele><time>2026-05-02T13:52:16.861Z</time></trkpt><trkpt lat="42.0858989" lon="13.5844575"><ele>942.0</ele><time>2026-05-02T13:52:17.862Z</time></trkpt><trkpt lat="42.08599" lon="13.5843543"><ele>942.0</ele><time>2026-05-02T13:52:19.861Z</time></trkpt><trkpt lat="42.086067" lon="13.5843054"><ele>945.6666666666666</ele><time>2026-05-02T13:52:21.861Z</time></trkpt><trkpt lat="42.0861233" lon="13.5842422"><ele>949.3333333333333</ele><time>2026-05-02T13:52:24.862Z</time></trkpt><trkpt lat="42.0861083" lon="13.5841372"><ele>953.0</ele><time>2026-05-02T13:52:26.862Z</time></trkpt><trkpt lat="42.0860867" lon="13.5840493"><ele>956.6666666666666</ele><time>2026-05-02T13:52:27.861Z</time></trkpt><trkpt lat="42.0860539" lon="13.583938"><ele>960.3333333333333</ele><time>2026-05-02T13:52:28.861Z</time></trkpt><trkpt lat="42.0860249" lon="13.583814"><ele>964.0</ele><time>2026-05-02T13:52:29.862Z</time></trkpt><trkpt lat="42.0859968" lon="13.583691"><ele>964.6</ele><time>2026-05-02T13:52:30.862Z</time></trkpt><trkpt lat="42.0859665" lon="13.5835697"><ele>965.2</ele><time>2026-05-02T13:52:31.861Z</time></trkpt><trkpt lat="42.0859289" lon="13.5834546"><ele>965.8000000000001</ele><time>2026-05-02T13:52:32.861Z</time></trkpt><trkpt lat="42.0858793" lon="13.5833313"><ele>966.4000000000001</ele><time>2026-05-02T13:52:33.861Z</time></trkpt><trkpt lat="42.0858215" lon="13.5832136"><ele>967.0</ele><time>2026-05-02T13:52:34.862Z</time></trkpt><trkpt lat="42.0857565" lon="13.5830964"><ele>965.6</ele><time>2026-05-02T13:52:35.862Z</time></trkpt><trkpt lat="42.0856828" lon="13.5829812"><ele>964.2</ele><time>2026-05-02T13:52:36.861Z</time></trkpt><trkpt lat="42.0856133" lon="13.5828721"><ele>962.8</ele><time>2026-05-02T13:52:37.862Z</time></trkpt><trkpt lat="42.0855469" lon="13.582749"><ele>961.4</ele><time>2026-05-02T13:52:38.861Z</time></trkpt><trkpt lat="42.0854898" lon="13.5826139"><ele>960.0</ele><time>2026-05-02T13:52:39.861Z</time></trkpt><trkpt lat="42.0854404" lon="13.5824657"><ele>960.0</ele><time>2026-05-02T13:52:40.861Z</time></trkpt><trkpt lat="42.0853942" lon="13.5823127"><ele>960.0</ele><time>2026-05-02T13:52:41.862Z</time></trkpt><trkpt lat="42.0853468" lon="13.582157"><ele>960.0</ele><time>2026-05-02T13:52:42.861Z</time></trkpt><trkpt lat="42.0852976" lon="13.5819913"><ele>960.0</ele><time>2026-05-02T13:52:43.861Z</time></trkpt><trkpt lat="42.0852442" lon="13.5818326"><ele>962.25</ele><time>2026-05-02T13:52:44.862Z</time></trkpt><trkpt lat="42.085192" lon="13.5816736"><ele>964.5</ele><time>2026-05-02T13:52:45.862Z</time></trkpt><trkpt lat="42.0851398" lon="13.5815175"><ele>966.75</ele><time>2026-05-02T13:52:46.862Z</time></trkpt><trkpt lat="42.08509" lon="13.5813749"><ele>969.0</ele><time>2026-05-02T13:52:47.861Z</time></trkpt><trkpt lat="42.0850441" lon="13.5812311"><ele>970.2</ele><time>2026-05-02T13:52:48.861Z</time></trkpt><trkpt lat="42.0850059" lon="13.5810856"><ele>971.4000000000001</ele><time>2026-05-02T13:52:49.861Z</time></trkpt><trkpt lat="42.0849639" lon="13.5809411"><ele>972.6</ele><time>2026-05-02T13:52:50.862Z</time></trkpt><trkpt lat="42.084926" lon="13.5808087"><ele>973.8</ele><time>2026-05-02T13:52:51.861Z</time></trkpt><trkpt lat="42.0848955" lon="13.5806814"><ele>975.0</ele><time>2026-05-02T13:52:52.862Z</time></trkpt><trkpt lat="42.084874" lon="13.5805746"><ele>975.0</ele><time>2026-05-02T13:52:53.862Z</time></trkpt><trkpt lat="42.0848549" lon="13.5804741"><ele>974.9999999999999</ele><time>2026-05-02T13:52:54.862Z</time></trkpt><trkpt lat="42.0848415" lon="13.5803766"><ele>975.0</ele><time>2026-05-02T13:52:55.861Z</time></trkpt><trkpt lat="42.084837" lon="13.5802814"><ele>975.0</ele><time>2026-05-02T13:52:56.861Z</time></trkpt><trkpt lat="42.0848318" lon="13.5801839"><ele>974.9999999999999</ele><time>2026-05-02T13:52:57.861Z</time></trkpt><trkpt lat="42.0848285" lon="13.5800782"><ele>975.0</ele><time>2026-05-02T13:52:58.861Z</time></trkpt><trkpt lat="42.0848241" lon="13.579986"><ele>975.0</ele><time>2026-05-02T13:52:59.861Z</time></trkpt><trkpt lat="42.0848333" lon="13.5798798"><ele>975.5</ele><time>2026-05-02T13:53:00.861Z</time></trkpt><trkpt lat="42.0848513" lon="13.5797837"><ele>976.0</ele><time>2026-05-02T13:53:01.862Z</time></trkpt><trkpt lat="42.0848753" lon="13.5796935"><ele>976.5</ele><time>2026-05-02T13:53:02.861Z</time></trkpt><trkpt lat="42.0849052" lon="13.579614"><ele>977.0</ele><time>2026-05-02T13:53:03.862Z</time></trkpt><trkpt lat="42.0849389" lon="13.5795423"><ele>977.5</ele><time>2026-05-02T13:53:04.861Z</time></trkpt><trkpt lat="42.0849755" lon="13.5794732"><ele>978.0</ele><time>2026-05-02T13:53:05.862Z</time></trkpt><trkpt lat="42.0850566" lon="13.5793425"><ele>976.0</ele><time>2026-05-02T13:53:07.861Z</time></trkpt><trkpt lat="42.0851065" lon="13.5792806"><ele>974.0000000000001</ele><time>2026-05-02T13:53:08.861Z</time></trkpt><trkpt lat="42.0851582" lon="13.5792189"><ele>972.0</ele><time>2026-05-02T13:53:09.862Z</time></trkpt><trkpt lat="42.0852141" lon="13.5791506"><ele>970.0</ele><time>2026-05-02T13:53:10.861Z</time></trkpt><trkpt lat="42.0852683" lon="13.5790833"><ele>968.0000000000001</ele><time>2026-05-02T13:53:11.861Z</time></trkpt><trkpt lat="42.0853233" lon="13.57902"><ele>966.0</ele><time>2026-05-02T13:53:12.862Z</time></trkpt><trkpt lat="42.08538" lon="13.57895"><ele>964.0</ele><time>2026-05-02T13:53:13.861Z</time></trkpt><trkpt lat="42.0854333" lon="13.5788667"><ele>963.9999999999999</ele><time>2026-05-02T13:53:14.862Z</time></trkpt><trkpt lat="42.0854883" lon="13.578785"><ele>964.0</ele><time>2026-05-02T13:53:15.862Z</time></trkpt><trkpt lat="42.0855367" lon="13.5787083"><ele>964.0</ele><time>2026-05-02T13:53:16.862Z</time></trkpt><trkpt lat="42.0855867" lon="13.5786283"><ele>964.0</ele><time>2026-05-02T13:53:17.861Z</time></trkpt><trkpt lat="42.0856383" lon="13.5785533"><ele>963.9999999999999</ele><time>2026-05-02T13:53:18.862Z</time></trkpt><trkpt lat="42.085685" lon="13.57848"><ele>964.0</ele><time>2026-05-02T13:53:19.861Z</time></trkpt><trkpt lat="42.0857317" lon="13.578395"><ele>963.6666666666666</ele><time>2026-05-02T13:53:20.862Z</time></trkpt><trkpt lat="42.08577" lon="13.5782967"><ele>963.3333333333333</ele><time>2026-05-02T13:53:21.862Z</time></trkpt><trkpt lat="42.085815" lon="13.5782033"><ele>963.0</ele><time>2026-05-02T13:53:22.862Z</time></trkpt><trkpt lat="42.085865" lon="13.5781017"><ele>962.6666666666667</ele><time>2026-05-02T13:53:23.861Z</time></trkpt><trkpt lat="42.08591" lon="13.57801"><ele>962.3333333333334</ele><time>2026-05-02T13:53:24.861Z</time></trkpt><trkpt lat="42.0859383" lon="13.5779233"><ele>962.0</ele><time>2026-05-02T13:53:25.862Z</time></trkpt><trkpt lat="42.0859433" lon="13.5777683"><ele>959.5000000000001</ele><time>2026-05-02T13:53:27.861Z</time></trkpt><trkpt lat="42.085965" lon="13.577625"><ele>957.0</ele><time>2026-05-02T13:53:29.861Z</time></trkpt><trkpt lat="42.0860067" lon="13.5775383"><ele>954.5</ele><time>2026-05-02T13:53:31.861Z</time></trkpt><trkpt lat="42.0860283" lon="13.57745"><ele>952.0</ele><time>2026-05-02T13:53:34.862Z</time></trkpt><trkpt lat="42.0859733" lon="13.5773983"><ele>949.5000000000001</ele><time>2026-05-02T13:53:36.862Z</time></trkpt><trkpt lat="42.0858533" lon="13.5773667"><ele>947.0</ele><time>2026-05-02T13:53:38.861Z</time></trkpt><trkpt lat="42.08579" lon="13.5773683"><ele>944.2</ele><time>2026-05-02T13:53:39.861Z</time></trkpt><trkpt lat="42.085725" lon="13.5773683"><ele>941.4000000000001</ele><time>2026-05-02T13:53:40.861Z</time></trkpt><trkpt lat="42.08566" lon="13.5773633"><ele>938.5999999999999</ele><time>2026-05-02T13:53:41.862Z</time></trkpt><trkpt lat="42.0855467" lon="13.5773617"><ele>935.8</ele><time>2026-05-02T13:53:43.862Z</time></trkpt><trkpt lat="42.085425" lon="13.57736"><ele>933.0</ele><time>2026-05-02T13:53:45.861Z</time></trkpt><trkpt lat="42.085305" lon="13.5773583"><ele>933.0</ele><time>2026-05-02T13:53:47.861Z</time></trkpt><trkpt lat="42.0852317" lon="13.57735"><ele>933.0</ele><time>2026-05-02T13:53:48.861Z</time></trkpt><trkpt lat="42.0851583" lon="13.5773467"><ele>933.0</ele><time>2026-05-02T13:53:49.861Z</time></trkpt><trkpt lat="42.085045" lon="13.5773333"><ele>933.0</ele><time>2026-05-02T13:53:51.861Z</time></trkpt><trkpt lat="42.0849633" lon="13.577245"><ele>933.0</ele><time>2026-05-02T13:53:53.861Z</time></trkpt><trkpt lat="42.0849533" lon="13.5771133"><ele>930.0</ele><time>2026-05-02T13:53:55.861Z</time></trkpt><trkpt lat="42.0850333" lon="13.5769817"><ele>927.0</ele><time>2026-05-02T13:53:57.861Z</time></trkpt><trkpt lat="42.0850933" lon="13.576925"><ele>924.0</ele><time>2026-05-02T13:53:58.862Z</time></trkpt><trkpt lat="42.0851567" lon="13.5768733"><ele>921.0</ele><time>2026-05-02T13:53:59.861Z</time></trkpt><trkpt lat="42.08526" lon="13.5768033"><ele>918.0</ele><time>2026-05-02T13:54:01.861Z</time></trkpt><trkpt lat="42.0853683" lon="13.5767483"><ele>918.0</ele><time>2026-05-02T13:54:03.861Z</time></trkpt><trkpt lat="42.0854367" lon="13.57666"><ele>918.0</ele><time>2026-05-02T13:54:05.862Z</time></trkpt><trkpt lat="42.0854417" lon="13.5765717"><ele>918.0</ele><time>2026-05-02T13:54:07.861Z</time></trkpt><trkpt lat="42.0854" lon="13.5764883"><ele>918.0</ele><time>2026-05-02T13:54:09.862Z</time></trkpt><trkpt lat="42.0853083" lon="13.5764567"><ele>918.0</ele><time>2026-05-02T13:54:11.862Z</time></trkpt><trkpt lat="42.08521" lon="13.57647"><ele>918.0</ele><time>2026-05-02T13:54:13.861Z</time></trkpt><trkpt lat="42.0851217" lon="13.576465"><ele>918.0</ele><time>2026-05-02T13:54:15.861Z</time></trkpt><trkpt lat="42.0850217" lon="13.576425"><ele>918.0</ele><time>2026-05-02T13:54:17.861Z</time></trkpt><trkpt lat="42.084935" lon="13.5763867"><ele>918.0</ele><time>2026-05-02T13:54:19.862Z</time></trkpt><trkpt lat="42.084855" lon="13.5763617"><ele>918.0</ele><time>2026-05-02T13:54:21.862Z</time></trkpt><trkpt lat="42.08476" lon="13.5763183"><ele>918.0</ele><time>2026-05-02T13:54:23.861Z</time></trkpt><trkpt lat="42.0846633" lon="13.5762817"><ele>916.5999999999999</ele><time>2026-05-02T13:54:25.861Z</time></trkpt><trkpt lat="42.0845533" lon="13.5762517"><ele>915.1999999999999</ele><time>2026-05-02T13:54:27.861Z</time></trkpt><trkpt lat="42.0844583" lon="13.5762433"><ele>913.8</ele><time>2026-05-02T13:54:29.862Z</time></trkpt><trkpt lat="42.08435" lon="13.5762483"><ele>912.4</ele><time>2026-05-02T13:54:31.862Z</time></trkpt><trkpt lat="42.0842583" lon="13.5762267"><ele>911.0</ele><time>2026-05-02T13:54:33.861Z</time></trkpt><trkpt lat="42.08419" lon="13.5762"><ele>908.5000000000001</ele><time>2026-05-02T13:54:35.862Z</time></trkpt><trkpt lat="42.0841167" lon="13.5761833"><ele>906.0</ele><time>2026-05-02T13:54:37.862Z</time></trkpt><trkpt lat="42.0840467" lon="13.57617"><ele>903.5</ele><time>2026-05-02T13:54:39.862Z</time></trkpt><trkpt lat="42.08395" lon="13.5761533"><ele>901.0</ele><time>2026-05-02T13:54:41.862Z</time></trkpt><trkpt lat="42.0838567" lon="13.5761517"><ele>898.5000000000001</ele><time>2026-05-02T13:54:43.862Z</time></trkpt><trkpt lat="42.0837583" lon="13.5761533"><ele>896.0</ele><time>2026-05-02T13:54:45.861Z</time></trkpt><trkpt lat="42.083665" lon="13.576115"><ele>895.4</ele><time>2026-05-02T13:54:47.861Z</time></trkpt><trkpt lat="42.0835817" lon="13.5760267"><ele>894.8</ele><time>2026-05-02T13:54:49.862Z</time></trkpt><trkpt lat="42.0835033" lon="13.5759033"><ele>894.1999999999999</ele><time>2026-05-02T13:54:51.862Z</time></trkpt><trkpt lat="42.0834267" lon="13.575805"><ele>893.5999999999999</ele><time>2026-05-02T13:54:53.861Z</time></trkpt><trkpt lat="42.0833633" lon="13.575705"><ele>893.0</ele><time>2026-05-02T13:54:55.861Z</time></trkpt><trkpt lat="42.08329" lon="13.5755883"><ele>894.1666666666667</ele><time>2026-05-02T13:54:57.862Z</time></trkpt><trkpt lat="42.0832483" lon="13.57552"><ele>895.3333333333334</ele><time>2026-05-02T13:54:58.862Z</time></trkpt><trkpt lat="42.0832033" lon="13.57544"><ele>896.5</ele><time>2026-05-02T13:54:59.861Z</time></trkpt><trkpt lat="42.0831617" lon="13.57535"><ele>897.6666666666667</ele><time>2026-05-02T13:55:00.862Z</time></trkpt><trkpt lat="42.0831233" lon="13.5752567"><ele>898.8333333333334</ele><time>2026-05-02T13:55:01.862Z</time></trkpt><trkpt lat="42.0830867" lon="13.5751617"><ele>900.0</ele><time>2026-05-02T13:55:02.861Z</time></trkpt><trkpt lat="42.0830567" lon="13.5750583"><ele>897.5</ele><time>2026-05-02T13:55:03.862Z</time></trkpt><trkpt lat="42.0830217" lon="13.5749583"><ele>895.0</ele><time>2026-05-02T13:55:04.862Z</time></trkpt><trkpt lat="42.083" lon="13.5748667"><ele>892.5</ele><time>2026-05-02T13:55:05.861Z</time></trkpt><trkpt lat="42.08296" lon="13.5747517"><ele>890.0</ele><time>2026-05-02T13:55:06.861Z</time></trkpt><trkpt lat="42.08291" lon="13.5746467"><ele>887.5</ele><time>2026-05-02T13:55:07.861Z</time></trkpt><trkpt lat="42.082865" lon="13.5745233"><ele>885.0</ele><time>2026-05-02T13:55:08.861Z</time></trkpt><trkpt lat="42.0828067" lon="13.5744217"><ele>884.0</ele><time>2026-05-02T13:55:09.861Z</time></trkpt><trkpt lat="42.0827583" lon="13.5743167"><ele>883.0</ele><time>2026-05-02T13:55:10.861Z</time></trkpt><trkpt lat="42.0827233" lon="13.5742183"><ele>882.0</ele><time>2026-05-02T13:55:11.861Z</time></trkpt><trkpt lat="42.0826767" lon="13.57412"><ele>881.0</ele><time>2026-05-02T13:55:12.861Z</time></trkpt><trkpt lat="42.082635" lon="13.5740383"><ele>880.0</ele><time>2026-05-02T13:55:13.862Z</time></trkpt><trkpt lat="42.08258" lon="13.5739333"><ele>879.0</ele><time>2026-05-02T13:55:14.861Z</time></trkpt><trkpt lat="42.0825217" lon="13.57383"><ele>879.0</ele><time>2026-05-02T13:55:15.861Z</time></trkpt><trkpt lat="42.0824617" lon="13.573735"><ele>879.0</ele><time>2026-05-02T13:55:16.861Z</time></trkpt><trkpt lat="42.0824" lon="13.57365"><ele>879.0</ele><time>2026-05-02T13:55:17.862Z</time></trkpt><trkpt lat="42.082345" lon="13.5735633"><ele>879.0</ele><time>2026-05-02T13:55:18.862Z</time></trkpt><trkpt lat="42.0822967" lon="13.5734817"><ele>879.0</ele><time>2026-05-02T13:55:19.862Z</time></trkpt><trkpt lat="42.0822483" lon="13.5734117"><ele>879.0</ele><time>2026-05-02T13:55:20.861Z</time></trkpt><trkpt lat="42.082175" lon="13.5732883"><ele>878.0</ele><time>2026-05-02T13:55:22.862Z</time></trkpt><trkpt lat="42.08209" lon="13.573175"><ele>877.0</ele><time>2026-05-02T13:55:24.861Z</time></trkpt><trkpt lat="42.0819983" lon="13.5730733"><ele>876.0</ele><time>2026-05-02T13:55:26.861Z</time></trkpt><trkpt lat="42.0818933" lon="13.57298"><ele>875.0</ele><time>2026-05-02T13:55:28.861Z</time></trkpt><trkpt lat="42.081795" lon="13.5728817"><ele>874.6666666666667</ele><time>2026-05-02T13:55:30.861Z</time></trkpt><trkpt lat="42.0817433" lon="13.572815"><ele>874.3333333333334</ele><time>2026-05-02T13:55:31.861Z</time></trkpt><trkpt lat="42.081695" lon="13.5727383"><ele>874.0</ele><time>2026-05-02T13:55:32.862Z</time></trkpt><trkpt lat="42.0816533" lon="13.5726683"><ele>873.6666666666667</ele><time>2026-05-02T13:55:33.861Z</time></trkpt><trkpt lat="42.0816117" lon="13.5725967"><ele>873.3333333333334</ele><time>2026-05-02T13:55:34.861Z</time></trkpt><trkpt lat="42.0815233" lon="13.572475"><ele>873.0</ele><time>2026-05-02T13:55:36.862Z</time></trkpt><trkpt lat="42.0814767" lon="13.572415"><ele>873.0</ele><time>2026-05-02T13:55:37.862Z</time></trkpt><trkpt lat="42.0814367" lon="13.572345"><ele>873.0</ele><time>2026-05-02T13:55:38.861Z</time></trkpt><trkpt lat="42.081405" lon="13.5722233"><ele>873.0</ele><time>2026-05-02T13:55:40.862Z</time></trkpt><trkpt lat="42.08143" lon="13.572105"><ele>873.0</ele><time>2026-05-02T13:55:42.861Z</time></trkpt><trkpt lat="42.0814767" lon="13.572"><ele>873.0</ele><time>2026-05-02T13:55:44.861Z</time></trkpt><trkpt lat="42.08149" lon="13.5719067"><ele>873.0</ele><time>2026-05-02T13:55:46.862Z</time></trkpt><trkpt lat="42.0814633" lon="13.5717933"><ele>871.4</ele><time>2026-05-02T13:55:48.861Z</time></trkpt><trkpt lat="42.0814" lon="13.571685"><ele>869.8</ele><time>2026-05-02T13:55:50.862Z</time></trkpt><trkpt lat="42.0813083" lon="13.57158"><ele>868.2</ele><time>2026-05-02T13:55:52.861Z</time></trkpt><trkpt lat="42.0812117" lon="13.5714883"><ele>866.6</ele><time>2026-05-02T13:55:54.861Z</time></trkpt><trkpt lat="42.0811267" lon="13.5714083"><ele>865.0</ele><time>2026-05-02T13:55:56.861Z</time></trkpt><trkpt lat="42.0810517" lon="13.571365"><ele>865.0</ele><time>2026-05-02T13:55:58.861Z</time></trkpt><trkpt lat="42.0809783" lon="13.5712933"><ele>865.0</ele><time>2026-05-02T13:56:00.862Z</time></trkpt><trkpt lat="42.0809017" lon="13.5711867"><ele>865.0</ele><time>2026-05-02T13:56:02.861Z</time></trkpt><trkpt lat="42.08082" lon="13.5710433"><ele>865.0</ele><time>2026-05-02T13:56:04.862Z</time></trkpt><trkpt lat="42.080775" lon="13.5709383"><ele>865.0</ele><time>2026-05-02T13:56:05.862Z</time></trkpt><trkpt lat="42.0807233" lon="13.5708217"><ele>865.6</ele><time>2026-05-02T13:56:06.861Z</time></trkpt><trkpt lat="42.0806683" lon="13.5707033"><ele>866.2</ele><time>2026-05-02T13:56:07.862Z</time></trkpt><trkpt lat="42.080625" lon="13.5705967"><ele>866.8</ele><time>2026-05-02T13:56:08.862Z</time></trkpt><trkpt lat="42.08058" lon="13.5704867"><ele>867.4</ele><time>2026-05-02T13:56:09.861Z</time></trkpt><trkpt lat="42.0805233" lon="13.5703767"><ele>868.0</ele><time>2026-05-02T13:56:10.861Z</time></trkpt><trkpt lat="42.0804733" lon="13.57026"><ele>867.9999999999999</ele><time>2026-05-02T13:56:11.861Z</time></trkpt><trkpt lat="42.0804333" lon="13.5701467"><ele>868.0</ele><time>2026-05-02T13:56:12.861Z</time></trkpt><trkpt lat="42.0803967" lon="13.5700333"><ele>868.0</ele><time>2026-05-02T13:56:13.861Z</time></trkpt><trkpt lat="42.0803667" lon="13.56993"><ele>868.0</ele><time>2026-05-02T13:56:14.861Z</time></trkpt><trkpt lat="42.0803367" lon="13.5698167"><ele>867.9999999999999</ele><time>2026-05-02T13:56:15.861Z</time></trkpt><trkpt lat="42.080315" lon="13.5697033"><ele>868.0</ele><time>2026-05-02T13:56:16.861Z</time></trkpt><trkpt lat="42.0803033" lon="13.5695917"><ele>866.1666666666666</ele><time>2026-05-02T13:56:17.861Z</time></trkpt><trkpt lat="42.08029" lon="13.5694783"><ele>864.3333333333333</ele><time>2026-05-02T13:56:18.862Z</time></trkpt><trkpt lat="42.0802833" lon="13.5693683"><ele>862.5</ele><time>2026-05-02T13:56:19.862Z</time></trkpt><trkpt lat="42.0802783" lon="13.569275"><ele>860.6666666666667</ele><time>2026-05-02T13:56:20.861Z</time></trkpt><trkpt lat="42.0802617" lon="13.5691733"><ele>858.8333333333334</ele><time>2026-05-02T13:56:21.862Z</time></trkpt><trkpt lat="42.0802317" lon="13.569075"><ele>857.0</ele><time>2026-05-02T13:56:22.862Z</time></trkpt><trkpt lat="42.0802" lon="13.56897"><ele>857.0</ele><time>2026-05-02T13:56:23.861Z</time></trkpt><trkpt lat="42.0801567" lon="13.5688633"><ele>857.0</ele><time>2026-05-02T13:56:24.861Z</time></trkpt><trkpt lat="42.0801067" lon="13.5687383"><ele>857.0</ele><time>2026-05-02T13:56:25.861Z</time></trkpt><trkpt lat="42.0800583" lon="13.5686167"><ele>857.0</ele><time>2026-05-02T13:56:26.861Z</time></trkpt><trkpt lat="42.0800283" lon="13.5684917"><ele>857.0</ele><time>2026-05-02T13:56:27.862Z</time></trkpt><trkpt lat="42.0800033" lon="13.5683583"><ele>854.8333333333334</ele><time>2026-05-02T13:56:28.862Z</time></trkpt><trkpt lat="42.07999" lon="13.5682333"><ele>852.6666666666667</ele><time>2026-05-02T13:56:29.861Z</time></trkpt><trkpt lat="42.07998" lon="13.568115"><ele>850.5</ele><time>2026-05-02T13:56:30.861Z</time></trkpt><trkpt lat="42.07997" lon="13.568"><ele>848.3333333333333</ele><time>2026-05-02T13:56:31.862Z</time></trkpt><trkpt lat="42.0799633" lon="13.56788"><ele>846.1666666666666</ele><time>2026-05-02T13:56:32.861Z</time></trkpt><trkpt lat="42.0799633" lon="13.5677633"><ele>844.0</ele><time>2026-05-02T13:56:33.862Z</time></trkpt><trkpt lat="42.079975" lon="13.5676467"><ele>842.4000000000001</ele><time>2026-05-02T13:56:34.862Z</time></trkpt><trkpt lat="42.0800017" lon="13.56753"><ele>840.8</ele><time>2026-05-02T13:56:35.862Z</time></trkpt><trkpt lat="42.08004" lon="13.56741"><ele>839.2</ele><time>2026-05-02T13:56:36.862Z</time></trkpt><trkpt lat="42.080095" lon="13.5672917"><ele>837.5999999999999</ele><time>2026-05-02T13:56:37.862Z</time></trkpt><trkpt lat="42.080155" lon="13.5671817"><ele>836.0</ele><time>2026-05-02T13:56:38.862Z</time></trkpt><trkpt lat="42.080215" lon="13.56709"><ele>836.3333333333334</ele><time>2026-05-02T13:56:39.861Z</time></trkpt><trkpt lat="42.0802867" lon="13.5670033"><ele>836.6666666666667</ele><time>2026-05-02T13:56:40.862Z</time></trkpt><trkpt lat="42.0803517" lon="13.5669333"><ele>837.0</ele><time>2026-05-02T13:56:41.862Z</time></trkpt><trkpt lat="42.080415" lon="13.5668717"><ele>837.3333333333333</ele><time>2026-05-02T13:56:42.861Z</time></trkpt><trkpt lat="42.08047" lon="13.566815"><ele>837.6666666666666</ele><time>2026-05-02T13:56:43.862Z</time></trkpt><trkpt lat="42.0805233" lon="13.5666933"><ele>838.0</ele><time>2026-05-02T13:56:45.862Z</time></trkpt><trkpt lat="42.0805167" lon="13.5665367"><ele>837.9999999999999</ele><time>2026-05-02T13:56:47.862Z</time></trkpt><trkpt lat="42.0804967" lon="13.5664517"><ele>838.0</ele><time>2026-05-02T13:56:48.862Z</time></trkpt><trkpt lat="42.0804683" lon="13.5663517"><ele>838.0</ele><time>2026-05-02T13:56:49.862Z</time></trkpt><trkpt lat="42.08044" lon="13.5662317"><ele>838.0</ele><time>2026-05-02T13:56:50.862Z</time></trkpt><trkpt lat="42.0804117" lon="13.5661067"><ele>837.9999999999999</ele><time>2026-05-02T13:56:51.861Z</time></trkpt><trkpt lat="42.080395" lon="13.5659817"><ele>838.0</ele><time>2026-05-02T13:56:52.862Z</time></trkpt><trkpt lat="42.0803845" lon="13.5658723"><ele>837.9999999999999</ele><time>2026-05-02T13:56:53.862Z</time></trkpt><trkpt lat="42.0803731" lon="13.5657661"><ele>838.0</ele><time>2026-05-02T13:56:54.861Z</time></trkpt><trkpt lat="42.0803522" lon="13.5656614"><ele>838.0</ele><time>2026-05-02T13:56:55.861Z</time></trkpt><trkpt lat="42.0803183" lon="13.5655571"><ele>838.0</ele><time>2026-05-02T13:56:56.862Z</time></trkpt><trkpt lat="42.08028" lon="13.5654435"><ele>837.9999999999999</ele><time>2026-05-02T13:56:57.861Z</time></trkpt><trkpt lat="42.0802407" lon="13.5653261"><ele>838.0</ele><time>2026-05-02T13:56:58.862Z</time></trkpt><trkpt lat="42.0801949" lon="13.5652014"><ele>835.0</ele><time>2026-05-02T13:56:59.862Z</time></trkpt><trkpt lat="42.0801526" lon="13.565064"><ele>832.0</ele><time>2026-05-02T13:57:00.861Z</time></trkpt><trkpt lat="42.0801077" lon="13.564917"><ele>829.0</ele><time>2026-05-02T13:57:01.862Z</time></trkpt><trkpt lat="42.0800677" lon="13.5647658"><ele>826.0</ele><time>2026-05-02T13:57:02.861Z</time></trkpt><trkpt lat="42.0800375" lon="13.5646117"><ele>824.0</ele><time>2026-05-02T13:57:03.862Z</time></trkpt><trkpt lat="42.0800219" lon="13.5644593"><ele>822.0</ele><time>2026-05-02T13:57:04.861Z</time></trkpt><trkpt lat="42.0800145" lon="13.5643012"><ele>820.0</ele><time>2026-05-02T13:57:05.862Z</time></trkpt><trkpt lat="42.0800117" lon="13.5641357"><ele>818.0</ele><time>2026-05-02T13:57:06.861Z</time></trkpt><trkpt lat="42.0800121" lon="13.5639576"><ele>818.0</ele><time>2026-05-02T13:57:07.861Z</time></trkpt><trkpt lat="42.080005" lon="13.5637814"><ele>818.0</ele><time>2026-05-02T13:57:08.862Z</time></trkpt><trkpt lat="42.0800002" lon="13.5636161"><ele>818.0</ele><time>2026-05-02T13:57:09.861Z</time></trkpt><trkpt lat="42.0799905" lon="13.5634614"><ele>818.0</ele><time>2026-05-02T13:57:10.862Z</time></trkpt><trkpt lat="42.0799837" lon="13.5633113"><ele>817.8333333333334</ele><time>2026-05-02T13:57:11.862Z</time></trkpt><trkpt lat="42.079976" lon="13.5631803"><ele>817.6666666666667</ele><time>2026-05-02T13:57:12.862Z</time></trkpt><trkpt lat="42.0799772" lon="13.5630485"><ele>817.5</ele><time>2026-05-02T13:57:13.862Z</time></trkpt><trkpt lat="42.0799845" lon="13.5629281"><ele>817.3333333333333</ele><time>2026-05-02T13:57:14.861Z</time></trkpt><trkpt lat="42.0799982" lon="13.5628223"><ele>817.1666666666666</ele><time>2026-05-02T13:57:15.862Z</time></trkpt><trkpt lat="42.080016" lon="13.5627227"><ele>817.0</ele><time>2026-05-02T13:57:16.862Z</time></trkpt><trkpt lat="42.080031" lon="13.5626189"><ele>815.4999999999999</ele><time>2026-05-02T13:57:17.862Z</time></trkpt><trkpt lat="42.0800353" lon="13.5625164"><ele>814.0</ele><time>2026-05-02T13:57:18.861Z</time></trkpt><trkpt lat="42.0800209" lon="13.562416"><ele>812.5</ele><time>2026-05-02T13:57:19.861Z</time></trkpt><trkpt lat="42.0799905" lon="13.5623189"><ele>811.0</ele><time>2026-05-02T13:57:20.861Z</time></trkpt><trkpt lat="42.0799524" lon="13.5622297"><ele>809.4999999999999</ele><time>2026-05-02T13:57:21.861Z</time></trkpt><trkpt lat="42.0799127" lon="13.5621324"><ele>808.0</ele><time>2026-05-02T13:57:22.861Z</time></trkpt><trkpt lat="42.0798828" lon="13.5620329"><ele>811.1666666666666</ele><time>2026-05-02T13:57:23.861Z</time></trkpt><trkpt lat="42.079859" lon="13.561922"><ele>814.3333333333333</ele><time>2026-05-02T13:57:24.861Z</time></trkpt><trkpt lat="42.0798423" lon="13.561801"><ele>817.5</ele><time>2026-05-02T13:57:25.861Z</time></trkpt><trkpt lat="42.079835" lon="13.5616704"><ele>820.6666666666667</ele><time>2026-05-02T13:57:26.861Z</time></trkpt><trkpt lat="42.0798359" lon="13.5615461"><ele>823.8333333333334</ele><time>2026-05-02T13:57:27.861Z</time></trkpt><trkpt lat="42.0798547" lon="13.561442"><ele>827.0</ele><time>2026-05-02T13:57:28.862Z</time></trkpt><trkpt lat="42.0798741" lon="13.5613456"><ele>827.0</ele><time>2026-05-02T13:57:29.861Z</time></trkpt><trkpt lat="42.0799163" lon="13.561264"><ele>827.0</ele><time>2026-05-02T13:57:30.861Z</time></trkpt><trkpt lat="42.0799616" lon="13.5611868"><ele>827.0</ele><time>2026-05-02T13:57:31.861Z</time></trkpt><trkpt lat="42.0800149" lon="13.561106"><ele>827.0</ele><time>2026-05-02T13:57:32.862Z</time></trkpt><trkpt lat="42.0800683" lon="13.5610233"><ele>827.0</ele><time>2026-05-02T13:57:33.861Z</time></trkpt><trkpt lat="42.0800983" lon="13.5609417"><ele>827.0</ele><time>2026-05-02T13:57:34.862Z</time></trkpt><trkpt lat="42.0801167" lon="13.5608567"><ele>827.0</ele><time>2026-05-02T13:57:35.862Z</time></trkpt><trkpt lat="42.08012" lon="13.5607583"><ele>821.5000000000001</ele><time>2026-05-02T13:57:36.861Z</time></trkpt><trkpt lat="42.0801083" lon="13.5606633"><ele>816.0</ele><time>2026-05-02T13:57:37.861Z</time></trkpt><trkpt lat="42.08008" lon="13.5605517"><ele>810.5</ele><time>2026-05-02T13:57:38.861Z</time></trkpt><trkpt lat="42.08005" lon="13.5604533"><ele>805.0</ele><time>2026-05-02T13:57:39.861Z</time></trkpt><trkpt lat="42.0800117" lon="13.5603633"><ele>799.5000000000001</ele><time>2026-05-02T13:57:40.862Z</time></trkpt><trkpt lat="42.0799783" lon="13.5602667"><ele>794.0</ele><time>2026-05-02T13:57:41.861Z</time></trkpt><trkpt lat="42.07994" lon="13.5601817"><ele>796.0000000000001</ele><time>2026-05-02T13:57:42.862Z</time></trkpt><trkpt lat="42.079905" lon="13.5600967"><ele>798.0</ele><time>2026-05-02T13:57:43.862Z</time></trkpt><trkpt lat="42.0798667" lon="13.5600267"><ele>800.0</ele><time>2026-05-02T13:57:44.861Z</time></trkpt><trkpt lat="42.079815" lon="13.55995"><ele>802.0</ele><time>2026-05-02T13:57:45.862Z</time></trkpt><trkpt lat="42.0797567" lon="13.55987"><ele>804.0000000000001</ele><time>2026-05-02T13:57:46.862Z</time></trkpt><trkpt lat="42.0797017" lon="13.559775"><ele>806.0</ele><time>2026-05-02T13:57:47.862Z</time></trkpt><trkpt lat="42.079635" lon="13.5596617"><ele>806.0</ele><time>2026-05-02T13:57:48.861Z</time></trkpt><trkpt lat="42.0795733" lon="13.5595483"><ele>806.0</ele><time>2026-05-02T13:57:49.861Z</time></trkpt><trkpt lat="42.0795183" lon="13.5594283"><ele>806.0</ele><time>2026-05-02T13:57:50.861Z</time></trkpt><trkpt lat="42.0794717" lon="13.559315"><ele>806.0</ele><time>2026-05-02T13:57:51.861Z</time></trkpt><trkpt lat="42.079415" lon="13.5591983"><ele>806.0</ele><time>2026-05-02T13:57:52.861Z</time></trkpt><trkpt lat="42.079365" lon="13.55908"><ele>801.5999999999999</ele><time>2026-05-02T13:57:53.861Z</time></trkpt><trkpt lat="42.0793083" lon="13.5589567"><ele>797.2</ele><time>2026-05-02T13:57:54.861Z</time></trkpt><trkpt lat="42.0792517" lon="13.55885"><ele>792.8</ele><time>2026-05-02T13:57:55.862Z</time></trkpt><trkpt lat="42.07919" lon="13.5587383"><ele>788.4000000000001</ele><time>2026-05-02T13:57:56.862Z</time></trkpt><trkpt lat="42.07912" lon="13.5586367"><ele>784.0</ele><time>2026-05-02T13:57:57.862Z</time></trkpt><trkpt lat="42.0790533" lon="13.5585283"><ele>784.0</ele><time>2026-05-02T13:57:58.861Z</time></trkpt><trkpt lat="42.078985" lon="13.55841"><ele>784.0</ele><time>2026-05-02T13:57:59.862Z</time></trkpt><trkpt lat="42.0789233" lon="13.5583117"><ele>784.0</ele><time>2026-05-02T13:58:00.862Z</time></trkpt><trkpt lat="42.078865" lon="13.5582133"><ele>784.0</ele><time>2026-05-02T13:58:01.861Z</time></trkpt><trkpt lat="42.0788117" lon="13.5581167"><ele>784.0</ele><time>2026-05-02T13:58:02.861Z</time></trkpt><trkpt lat="42.0787617" lon="13.5580083"><ele>784.0</ele><time>2026-05-02T13:58:03.861Z</time></trkpt><trkpt lat="42.07871" lon="13.5579033"><ele>784.0</ele><time>2026-05-02T13:58:04.862Z</time></trkpt><trkpt lat="42.07866" lon="13.5577933"><ele>784.0</ele><time>2026-05-02T13:58:05.862Z</time></trkpt><trkpt lat="42.0786133" lon="13.5576683"><ele>784.0</ele><time>2026-05-02T13:58:06.861Z</time></trkpt><trkpt lat="42.07856" lon="13.5575533"><ele>784.0</ele><time>2026-05-02T13:58:07.861Z</time></trkpt><trkpt lat="42.07851" lon="13.55743"><ele>783.8333333333333</ele><time>2026-05-02T13:58:08.862Z</time></trkpt><trkpt lat="42.0784733" lon="13.5573067"><ele>783.6666666666666</ele><time>2026-05-02T13:58:09.862Z</time></trkpt><trkpt lat="42.0784283" lon="13.5571917"><ele>783.5</ele><time>2026-05-02T13:58:10.861Z</time></trkpt><trkpt lat="42.0783783" lon="13.5570917"><ele>783.3333333333333</ele><time>2026-05-02T13:58:11.861Z</time></trkpt><trkpt lat="42.0783317" lon="13.5569983"><ele>783.1666666666666</ele><time>2026-05-02T13:58:12.862Z</time></trkpt><trkpt lat="42.0782917" lon="13.5569183"><ele>783.0</ele><time>2026-05-02T13:58:13.862Z</time></trkpt><trkpt lat="42.078255" lon="13.5568383"><ele>783.0</ele><time>2026-05-02T13:58:14.861Z</time></trkpt><trkpt lat="42.0782233" lon="13.5567533"><ele>783.0</ele><time>2026-05-02T13:58:15.861Z</time></trkpt><trkpt lat="42.0782033" lon="13.5566583"><ele>783.0</ele><time>2026-05-02T13:58:16.862Z</time></trkpt><trkpt lat="42.0781767" lon="13.5565417"><ele>783.0</ele><time>2026-05-02T13:58:17.861Z</time></trkpt><trkpt lat="42.0781583" lon="13.5564183"><ele>783.0</ele><time>2026-05-02T13:58:18.861Z</time></trkpt><trkpt lat="42.0781433" lon="13.5562933"><ele>783.0</ele><time>2026-05-02T13:58:19.861Z</time></trkpt><trkpt lat="42.0781283" lon="13.5561683"><ele>781.0</ele><time>2026-05-02T13:58:20.862Z</time></trkpt><trkpt lat="42.0781033" lon="13.5560517"><ele>779.0</ele><time>2026-05-02T13:58:21.861Z</time></trkpt><trkpt lat="42.078065" lon="13.5559383"><ele>777.0</ele><time>2026-05-02T13:58:22.861Z</time></trkpt><trkpt lat="42.078018" lon="13.5558344"><ele>775.0</ele><time>2026-05-02T13:58:23.862Z</time></trkpt><trkpt lat="42.0779669" lon="13.5557249"><ele>773.0</ele><time>2026-05-02T13:58:24.862Z</time></trkpt><trkpt lat="42.0779108" lon="13.5556166"><ele>773.0000000000001</ele><time>2026-05-02T13:58:25.861Z</time></trkpt><trkpt lat="42.0778609" lon="13.5555096"><ele>773.0</ele><time>2026-05-02T13:58:26.862Z</time></trkpt><trkpt lat="42.0778154" lon="13.5554012"><ele>773.0</ele><time>2026-05-02T13:58:27.862Z</time></trkpt><trkpt lat="42.0777847" lon="13.5552956"><ele>773.0</ele><time>2026-05-02T13:58:28.861Z</time></trkpt><trkpt lat="42.077764" lon="13.5551873"><ele>773.0000000000001</ele><time>2026-05-02T13:58:29.861Z</time></trkpt><trkpt lat="42.0777626" lon="13.5550802"><ele>773.0</ele><time>2026-05-02T13:58:30.861Z</time></trkpt><trkpt lat="42.0777603" lon="13.5549763"><ele>770.5000000000001</ele><time>2026-05-02T13:58:31.861Z</time></trkpt><trkpt lat="42.0777543" lon="13.554881"><ele>768.0</ele><time>2026-05-02T13:58:32.861Z</time></trkpt><trkpt lat="42.077741" lon="13.5547871"><ele>765.5</ele><time>2026-05-02T13:58:33.861Z</time></trkpt><trkpt lat="42.0777117" lon="13.5546978"><ele>763.0</ele><time>2026-05-02T13:58:34.861Z</time></trkpt><trkpt lat="42.0776709" lon="13.5546084"><ele>760.5</ele><time>2026-05-02T13:58:35.862Z</time></trkpt><trkpt lat="42.0776181" lon="13.5545192"><ele>758.0</ele><time>2026-05-02T13:58:36.862Z</time></trkpt><trkpt lat="42.0775482" lon="13.5544314"><ele>758.8</ele><time>2026-05-02T13:58:37.861Z</time></trkpt><trkpt lat="42.0774672" lon="13.5543506"><ele>759.5999999999999</ele><time>2026-05-02T13:58:38.861Z</time></trkpt><trkpt lat="42.0773835" lon="13.5542787"><ele>760.4000000000001</ele><time>2026-05-02T13:58:39.861Z</time></trkpt><trkpt lat="42.0773074" lon="13.5542105"><ele>761.2</ele><time>2026-05-02T13:58:40.862Z</time></trkpt><trkpt lat="42.0772418" lon="13.5541356"><ele>762.0</ele><time>2026-05-02T13:58:41.861Z</time></trkpt><trkpt lat="42.0771818" lon="13.5540539"><ele>762.0</ele><time>2026-05-02T13:58:42.861Z</time></trkpt><trkpt lat="42.0771287" lon="13.5539618"><ele>762.0</ele><time>2026-05-02T13:58:43.861Z</time></trkpt><trkpt lat="42.0770889" lon="13.553865"><ele>762.0</ele><time>2026-05-02T13:58:44.861Z</time></trkpt><trkpt lat="42.0770625" lon="13.5537627"><ele>762.0</ele><time>2026-05-02T13:58:45.861Z</time></trkpt><trkpt lat="42.077043" lon="13.5536591"><ele>762.0</ele><time>2026-05-02T13:58:46.862Z</time></trkpt><trkpt lat="42.077026" lon="13.553575"><ele>762.0</ele><time>2026-05-02T13:58:47.862Z</time></trkpt><trkpt lat="42.0770107" lon="13.5534823"><ele>759.0</ele><time>2026-05-02T13:58:49.861Z</time></trkpt><trkpt lat="42.0770239" lon="13.5533972"><ele>756.0</ele><time>2026-05-02T13:58:52.861Z</time></trkpt><trkpt lat="42.0771141" lon="13.5533377"><ele>753.0</ele><time>2026-05-02T13:58:54.861Z</time></trkpt><trkpt lat="42.0772634" lon="13.5532841"><ele>750.0</ele><time>2026-05-02T13:58:56.861Z</time></trkpt><trkpt lat="42.0773619" lon="13.5532463"><ele>747.0</ele><time>2026-05-02T13:58:57.861Z</time></trkpt><trkpt lat="42.0774506" lon="13.5531964"><ele>747.0</ele><time>2026-05-02T13:58:58.861Z</time></trkpt><trkpt lat="42.0775218" lon="13.5531022"><ele>747.0</ele><time>2026-05-02T13:58:59.861Z</time></trkpt><trkpt lat="42.0775614" lon="13.5529565"><ele>747.0</ele><time>2026-05-02T13:59:00.862Z</time></trkpt><trkpt lat="42.0775644" lon="13.5527916"><ele>747.0</ele><time>2026-05-02T13:59:01.861Z</time></trkpt><trkpt lat="42.0775373" lon="13.5526152"><ele>747.0</ele><time>2026-05-02T13:59:02.861Z</time></trkpt><trkpt lat="42.0774927" lon="13.5524192"><ele>747.0</ele><time>2026-05-02T13:59:03.862Z</time></trkpt><trkpt lat="42.077442" lon="13.5522178"><ele>747.0</ele><time>2026-05-02T13:59:04.862Z</time></trkpt><trkpt lat="42.0773868" lon="13.5520098"><ele>747.0</ele><time>2026-05-02T13:59:05.861Z</time></trkpt><trkpt lat="42.07733" lon="13.5518017"><ele>747.0</ele><time>2026-05-02T13:59:06.862Z</time></trkpt><trkpt lat="42.077255" lon="13.5516117"><ele>747.0</ele><time>2026-05-02T13:59:07.861Z</time></trkpt><trkpt lat="42.077165" lon="13.5514333"><ele>747.0</ele><time>2026-05-02T13:59:08.861Z</time></trkpt><trkpt lat="42.077075" lon="13.5513033"><ele>747.0</ele><time>2026-05-02T13:59:09.862Z</time></trkpt><trkpt lat="42.0769817" lon="13.5511967"><ele>747.0</ele><time>2026-05-02T13:59:10.862Z</time></trkpt><trkpt lat="42.0768817" lon="13.5511117"><ele>747.0</ele><time>2026-05-02T13:59:11.862Z</time></trkpt><trkpt lat="42.076795" lon="13.5510467"><ele>746.1428571428571</ele><time>2026-05-02T13:59:12.861Z</time></trkpt><trkpt lat="42.0767167" lon="13.5509983"><ele>745.2857142857142</ele><time>2026-05-02T13:59:13.862Z</time></trkpt><trkpt lat="42.0766467" lon="13.5509467"><ele>744.4285714285713</ele><time>2026-05-02T13:59:14.861Z</time></trkpt><trkpt lat="42.076585" lon="13.5508983"><ele>743.5714285714286</ele><time>2026-05-02T13:59:15.861Z</time></trkpt><trkpt lat="42.07655" lon="13.5508217"><ele>742.7142857142858</ele><time>2026-05-02T13:59:16.862Z</time></trkpt><trkpt lat="42.0765283" lon="13.5507367"><ele>741.8571428571428</ele><time>2026-05-02T13:59:17.861Z</time></trkpt><trkpt lat="42.0765233" lon="13.5506433"><ele>741.0</ele><time>2026-05-02T13:59:18.861Z</time></trkpt><trkpt lat="42.0765333" lon="13.5505533"><ele>741.0</ele><time>2026-05-02T13:59:19.861Z</time></trkpt><trkpt lat="42.0765717" lon="13.5504733"><ele>741.0</ele><time>2026-05-02T13:59:20.861Z</time></trkpt><trkpt lat="42.0766683" lon="13.5503867"><ele>741.0</ele><time>2026-05-02T13:59:22.861Z</time></trkpt><trkpt lat="42.0767583" lon="13.5503433"><ele>741.0</ele><time>2026-05-02T13:59:24.862Z</time></trkpt><trkpt lat="42.07686" lon="13.550305"><ele>741.0</ele><time>2026-05-02T13:59:26.861Z</time></trkpt><trkpt lat="42.0769683" lon="13.550265"><ele>742.8</ele><time>2026-05-02T13:59:28.861Z</time></trkpt><trkpt lat="42.07703" lon="13.5502383"><ele>744.5999999999999</ele><time>2026-05-02T13:59:29.862Z</time></trkpt><trkpt lat="42.0771467" lon="13.5501933"><ele>746.4</ele><time>2026-05-02T13:59:31.861Z</time></trkpt><trkpt lat="42.0772167" lon="13.5501783"><ele>748.2</ele><time>2026-05-02T13:59:33.862Z</time></trkpt><trkpt lat="42.0770883" lon="13.5501967"><ele>750.0</ele><time>2026-05-02T13:59:38.862Z</time></trkpt><trkpt lat="42.07701" lon="13.5502217"><ele>750.0</ele><time>2026-05-02T13:59:39.861Z</time></trkpt><trkpt lat="42.0769267" lon="13.5502633"><ele>750.0</ele><time>2026-05-02T13:59:40.862Z</time></trkpt><trkpt lat="42.07684" lon="13.5502983"><ele>750.0</ele><time>2026-05-02T13:59:41.861Z</time></trkpt><trkpt lat="42.07675" lon="13.5503317"><ele>750.0</ele><time>2026-05-02T13:59:42.862Z</time></trkpt><trkpt lat="42.0766667" lon="13.550385"><ele>750.0</ele><time>2026-05-02T13:59:43.861Z</time></trkpt><trkpt lat="42.07661" lon="13.5504417"><ele>750.0</ele><time>2026-05-02T13:59:44.861Z</time></trkpt><trkpt lat="42.07655" lon="13.55056"><ele>750.8333333333334</ele><time>2026-05-02T13:59:46.862Z</time></trkpt><trkpt lat="42.0765683" lon="13.5506517"><ele>751.6666666666666</ele><time>2026-05-02T13:59:48.862Z</time></trkpt><trkpt lat="42.076645" lon="13.550695"><ele>752.5</ele><time>2026-05-02T13:59:50.861Z</time></trkpt><trkpt lat="42.076735" lon="13.5506883"><ele>753.3333333333333</ele><time>2026-05-02T13:59:52.861Z</time></trkpt><trkpt lat="42.07681" lon="13.5506433"><ele>754.1666666666666</ele><time>2026-05-02T13:59:53.861Z</time></trkpt><trkpt lat="42.0768833" lon="13.5506"><ele>755.0</ele><time>2026-05-02T13:59:54.861Z</time></trkpt><trkpt lat="42.0769817" lon="13.5505583"><ele>755.0</ele><time>2026-05-02T13:59:56.861Z</time></trkpt><trkpt lat="42.0770783" lon="13.5505267"><ele>755.0</ele><time>2026-05-02T14:00:49.861Z</time></trkpt><trkpt lat="42.0771633" lon="13.5504917"><ele>755.0</ele><time>2026-05-02T14:01:28.861Z</time></trkpt><trkpt lat="42.0772533" lon="13.550465"><ele>755.0</ele><time>2026-05-02T14:01:30.861Z</time></trkpt><trkpt lat="42.0773183" lon="13.5504417"><ele>755.0</ele><time>2026-05-02T14:01:31.862Z</time></trkpt><trkpt lat="42.0773933" lon="13.55041"><ele>755.0</ele><time>2026-05-02T14:01:32.862Z</time></trkpt><trkpt lat="42.0774883" lon="13.550375"><ele>757.0</ele><time>2026-05-02T14:01:33.861Z</time></trkpt><trkpt lat="42.0776017" lon="13.550325"><ele>759.0</ele><time>2026-05-02T14:01:34.862Z</time></trkpt><trkpt lat="42.0777217" lon="13.550265"><ele>761.0</ele><time>2026-05-02T14:01:35.861Z</time></trkpt><trkpt lat="42.077855" lon="13.5501883"><ele>763.0</ele><time>2026-05-02T14:01:36.861Z</time></trkpt><trkpt lat="42.07798" lon="13.550145"><ele>763.0</ele><time>2026-05-02T14:01:37.861Z</time></trkpt><trkpt lat="42.0780967" lon="13.550085"><ele>763.0</ele><time>2026-05-02T14:01:38.862Z</time></trkpt><trkpt lat="42.07823" lon="13.5500433"><ele>763.0</ele><time>2026-05-02T14:01:39.861Z</time></trkpt><trkpt lat="42.0783567" lon="13.5499867"><ele>763.0</ele><time>2026-05-02T14:01:40.862Z</time></trkpt><trkpt lat="42.078485" lon="13.54994"><ele>766.5</ele><time>2026-05-02T14:01:41.861Z</time></trkpt><trkpt lat="42.0786167" lon="13.5498883"><ele>770.0</ele><time>2026-05-02T14:01:42.861Z</time></trkpt><trkpt lat="42.07874" lon="13.54983"><ele>773.5</ele><time>2026-05-02T14:01:43.862Z</time></trkpt><trkpt lat="42.0788633" lon="13.54979"><ele>777.0</ele><time>2026-05-02T14:01:44.862Z</time></trkpt><trkpt lat="42.0789917" lon="13.549735"><ele>777.6</ele><time>2026-05-02T14:01:45.861Z</time></trkpt><trkpt lat="42.0791133" lon="13.5496833"><ele>778.2</ele><time>2026-05-02T14:01:46.861Z</time></trkpt><trkpt lat="42.0792183" lon="13.54963"><ele>778.8</ele><time>2026-05-02T14:01:47.862Z</time></trkpt><trkpt lat="42.07931" lon="13.5495867"><ele>779.4</ele><time>2026-05-02T14:01:48.862Z</time></trkpt><trkpt lat="42.0793817" lon="13.5495517"><ele>780.0</ele><time>2026-05-02T14:01:49.861Z</time></trkpt><trkpt lat="42.07949" lon="13.5494967"><ele>780.0</ele><time>2026-05-02T14:01:51.862Z</time></trkpt><trkpt lat="42.0795567" lon="13.5494767"><ele>780.0</ele><time>2026-05-02T14:01:53.861Z</time></trkpt><trkpt lat="42.0796183" lon="13.5494567"><ele>780.0</ele><time>2026-05-02T14:01:55.862Z</time></trkpt><trkpt lat="42.0797317" lon="13.5493983"><ele>780.0</ele><time>2026-05-02T14:01:57.861Z</time></trkpt><trkpt lat="42.079815" lon="13.549315"><ele>780.0</ele><time>2026-05-02T14:01:58.862Z</time></trkpt><trkpt lat="42.0799" lon="13.5492283"><ele>781.8</ele><time>2026-05-02T14:01:59.862Z</time></trkpt><trkpt lat="42.07998" lon="13.5491433"><ele>783.6</ele><time>2026-05-02T14:02:00.862Z</time></trkpt><trkpt lat="42.0800583" lon="13.5490583"><ele>785.4000000000001</ele><time>2026-05-02T14:02:01.861Z</time></trkpt><trkpt lat="42.0801333" lon="13.5489733"><ele>787.2</ele><time>2026-05-02T14:02:02.861Z</time></trkpt><trkpt lat="42.0802033" lon="13.5488833"><ele>789.0</ele><time>2026-05-02T14:02:03.861Z</time></trkpt><trkpt lat="42.0802817" lon="13.5488117"><ele>789.0</ele><time>2026-05-02T14:02:04.862Z</time></trkpt><trkpt lat="42.0803617" lon="13.5487317"><ele>789.0</ele><time>2026-05-02T14:02:05.861Z</time></trkpt><trkpt lat="42.0804467" lon="13.5486533"><ele>789.0</ele><time>2026-05-02T14:02:06.862Z</time></trkpt><trkpt lat="42.0805217" lon="13.5485683"><ele>789.0</ele><time>2026-05-02T14:02:07.861Z</time></trkpt><trkpt lat="42.0806" lon="13.54848"><ele>789.0</ele><time>2026-05-02T14:02:08.861Z</time></trkpt><trkpt lat="42.0806783" lon="13.5483867"><ele>788.2</ele><time>2026-05-02T14:02:09.862Z</time></trkpt><trkpt lat="42.0807567" lon="13.548295"><ele>787.4000000000001</ele><time>2026-05-02T14:02:10.862Z</time></trkpt><trkpt lat="42.08084" lon="13.54821"><ele>786.6</ele><time>2026-05-02T14:02:11.861Z</time></trkpt><trkpt lat="42.0809183" lon="13.5481217"><ele>785.8</ele><time>2026-05-02T14:02:12.862Z</time></trkpt><trkpt lat="42.0809967" lon="13.5480433"><ele>785.0</ele><time>2026-05-02T14:02:13.861Z</time></trkpt><trkpt lat="42.0810767" lon="13.5479667"><ele>785.0</ele><time>2026-05-02T14:02:14.861Z</time></trkpt><trkpt lat="42.08116" lon="13.54788"><ele>785.0</ele><time>2026-05-02T14:02:15.862Z</time></trkpt><trkpt lat="42.0812433" lon="13.5478017"><ele>785.0</ele><time>2026-05-02T14:02:16.861Z</time></trkpt><trkpt lat="42.08133" lon="13.547725"><ele>785.0</ele><time>2026-05-02T14:02:17.862Z</time></trkpt><trkpt lat="42.0813967" lon="13.5476317"><ele>785.0</ele><time>2026-05-02T14:02:18.861Z</time></trkpt><trkpt lat="42.0814683" lon="13.5475567"><ele>782.6</ele><time>2026-05-02T14:02:19.861Z</time></trkpt><trkpt lat="42.0815417" lon="13.5474933"><ele>780.2</ele><time>2026-05-02T14:02:20.861Z</time></trkpt><trkpt lat="42.0816133" lon="13.547425"><ele>777.8</ele><time>2026-05-02T14:02:21.861Z</time></trkpt><trkpt lat="42.0816967" lon="13.5473767"><ele>775.4</ele><time>2026-05-02T14:02:22.861Z</time></trkpt><trkpt lat="42.0817867" lon="13.5473367"><ele>773.0</ele><time>2026-05-02T14:02:23.861Z</time></trkpt><trkpt lat="42.0818783" lon="13.5472983"><ele>773.0</ele><time>2026-05-02T14:02:24.861Z</time></trkpt><trkpt lat="42.081975" lon="13.5472583"><ele>773.0</ele><time>2026-05-02T14:02:25.861Z</time></trkpt><trkpt lat="42.0820783" lon="13.54721"><ele>773.0</ele><time>2026-05-02T14:02:26.861Z</time></trkpt><trkpt lat="42.0821783" lon="13.5471567"><ele>773.0</ele><time>2026-05-02T14:02:27.861Z</time></trkpt><trkpt lat="42.0822617" lon="13.5470717"><ele>773.0</ele><time>2026-05-02T14:02:28.861Z</time></trkpt><trkpt lat="42.0823333" lon="13.546975"><ele>773.5999999999999</ele><time>2026-05-02T14:02:29.862Z</time></trkpt><trkpt lat="42.082385" lon="13.5468567"><ele>774.1999999999999</ele><time>2026-05-02T14:02:30.861Z</time></trkpt><trkpt lat="42.0824233" lon="13.5467283"><ele>774.8</ele><time>2026-05-02T14:02:31.861Z</time></trkpt><trkpt lat="42.0824483" lon="13.546615"><ele>775.4</ele><time>2026-05-02T14:02:32.862Z</time></trkpt><trkpt lat="42.0824783" lon="13.5465033"><ele>776.0</ele><time>2026-05-02T14:02:33.861Z</time></trkpt><trkpt lat="42.0825017" lon="13.5463833"><ele>776.0</ele><time>2026-05-02T14:02:34.862Z</time></trkpt><trkpt lat="42.0825267" lon="13.54626"><ele>776.0</ele><time>2026-05-02T14:02:35.862Z</time></trkpt><trkpt lat="42.0825483" lon="13.5461383"><ele>776.0</ele><time>2026-05-02T14:02:36.861Z</time></trkpt><trkpt lat="42.0825667" lon="13.5460167"><ele>776.0</ele><time>2026-05-02T14:02:37.862Z</time></trkpt><trkpt lat="42.08258" lon="13.545895"><ele>776.0</ele><time>2026-05-02T14:02:38.861Z</time></trkpt><trkpt lat="42.0825933" lon="13.545775"><ele>774.8</ele><time>2026-05-02T14:02:39.861Z</time></trkpt><trkpt lat="42.0825917" lon="13.5456533"><ele>773.5999999999999</ele><time>2026-05-02T14:02:40.862Z</time></trkpt><trkpt lat="42.0825917" lon="13.54552"><ele>772.4</ele><time>2026-05-02T14:02:41.862Z</time></trkpt><trkpt lat="42.0825833" lon="13.54539"><ele>771.2</ele><time>2026-05-02T14:02:42.862Z</time></trkpt><trkpt lat="42.0825633" lon="13.5452683"><ele>770.0</ele><time>2026-05-02T14:02:43.861Z</time></trkpt><trkpt lat="42.0825433" lon="13.5451367"><ele>769.6</ele><time>2026-05-02T14:02:44.862Z</time></trkpt><trkpt lat="42.0825117" lon="13.5450067"><ele>769.2</ele><time>2026-05-02T14:02:45.862Z</time></trkpt><trkpt lat="42.082485" lon="13.5448733"><ele>768.8</ele><time>2026-05-02T14:02:46.861Z</time></trkpt><trkpt lat="42.08246" lon="13.54474"><ele>768.4</ele><time>2026-05-02T14:02:47.861Z</time></trkpt><trkpt lat="42.08243" lon="13.5446133"><ele>768.0</ele><time>2026-05-02T14:02:48.861Z</time></trkpt><trkpt lat="42.082415" lon="13.5444933"><ele>765.6666666666666</ele><time>2026-05-02T14:02:49.861Z</time></trkpt><trkpt lat="42.0823933" lon="13.5443717"><ele>763.3333333333334</ele><time>2026-05-02T14:02:50.861Z</time></trkpt><trkpt lat="42.0823817" lon="13.54424"><ele>761.0</ele><time>2026-05-02T14:02:51.862Z</time></trkpt><trkpt lat="42.082375" lon="13.5441267"><ele>758.6666666666667</ele><time>2026-05-02T14:02:52.861Z</time></trkpt><trkpt lat="42.0823683" lon="13.54401"><ele>756.3333333333334</ele><time>2026-05-02T14:02:53.861Z</time></trkpt><trkpt lat="42.0823717" lon="13.543895"><ele>754.0</ele><time>2026-05-02T14:02:54.862Z</time></trkpt><trkpt lat="42.0823767" lon="13.5438017"><ele>753.4000000000001</ele><time>2026-05-02T14:02:55.862Z</time></trkpt><trkpt lat="42.0823667" lon="13.5436433"><ele>752.8</ele><time>2026-05-02T14:02:57.862Z</time></trkpt><trkpt lat="42.0823217" lon="13.5435333"><ele>752.2</ele><time>2026-05-02T14:02:59.862Z</time></trkpt><trkpt lat="42.0822467" lon="13.5434667"><ele>751.5999999999999</ele><time>2026-05-02T14:03:01.862Z</time></trkpt><trkpt lat="42.0821067" lon="13.5434683"><ele>751.0</ele><time>2026-05-02T14:03:03.862Z</time></trkpt><trkpt lat="42.082015" lon="13.5434667"><ele>751.0</ele><time>2026-05-02T14:03:04.862Z</time></trkpt><trkpt lat="42.0819233" lon="13.5434817"><ele>751.0</ele><time>2026-05-02T14:03:05.861Z</time></trkpt><trkpt lat="42.081835" lon="13.5434867"><ele>751.0</ele><time>2026-05-02T14:03:06.861Z</time></trkpt><trkpt lat="42.0817433" lon="13.5435033"><ele>751.0</ele><time>2026-05-02T14:03:07.862Z</time></trkpt><trkpt lat="42.0816567" lon="13.543505"><ele>751.0</ele><time>2026-05-02T14:03:08.862Z</time></trkpt><trkpt lat="42.08157" lon="13.5435133"><ele>751.0</ele><time>2026-05-02T14:03:09.862Z</time></trkpt><trkpt lat="42.0814833" lon="13.5435117"><ele>750.3333333333334</ele><time>2026-05-02T14:03:10.862Z</time></trkpt><trkpt lat="42.0814067" lon="13.5435"><ele>749.6666666666667</ele><time>2026-05-02T14:03:11.861Z</time></trkpt><trkpt lat="42.0813333" lon="13.5434783"><ele>749.0</ele><time>2026-05-02T14:03:12.861Z</time></trkpt><trkpt lat="42.0812633" lon="13.5434683"><ele>748.3333333333334</ele><time>2026-05-02T14:03:13.861Z</time></trkpt><trkpt lat="42.0811983" lon="13.5434567"><ele>747.6666666666666</ele><time>2026-05-02T14:03:14.862Z</time></trkpt><trkpt lat="42.0811167" lon="13.5434583"><ele>747.0</ele><time>2026-05-02T14:03:15.861Z</time></trkpt><trkpt lat="42.08103" lon="13.543465"><ele>747.0</ele><time>2026-05-02T14:03:16.862Z</time></trkpt><trkpt lat="42.0809417" lon="13.5434733"><ele>747.0</ele><time>2026-05-02T14:03:17.861Z</time></trkpt><trkpt lat="42.0808483" lon="13.543475"><ele>747.0</ele><time>2026-05-02T14:03:18.861Z</time></trkpt><trkpt lat="42.08076" lon="13.54348"><ele>747.0</ele><time>2026-05-02T14:03:19.861Z</time></trkpt><trkpt lat="42.0806767" lon="13.54348"><ele>747.0</ele><time>2026-05-02T14:03:20.861Z</time></trkpt><trkpt lat="42.0805983" lon="13.5434833"><ele>747.0</ele><time>2026-05-02T14:03:21.862Z</time></trkpt><trkpt lat="42.0805117" lon="13.5434683"><ele>746.5714285714286</ele><time>2026-05-02T14:03:22.862Z</time></trkpt><trkpt lat="42.08043" lon="13.5434717"><ele>746.1428571428571</ele><time>2026-05-02T14:03:23.862Z</time></trkpt><trkpt lat="42.0803567" lon="13.54348"><ele>745.7142857142858</ele><time>2026-05-02T14:03:24.862Z</time></trkpt><trkpt lat="42.0802867" lon="13.5434867"><ele>745.2857142857142</ele><time>2026-05-02T14:03:25.861Z</time></trkpt><trkpt lat="42.0802217" lon="13.5434783"><ele>744.8571428571429</ele><time>2026-05-02T14:03:26.862Z</time></trkpt><trkpt lat="42.0801483" lon="13.5434717"><ele>744.4285714285714</ele><time>2026-05-02T14:03:27.861Z</time></trkpt><trkpt lat="42.0800817" lon="13.543465"><ele>744.0</ele><time>2026-05-02T14:03:28.861Z</time></trkpt><trkpt lat="42.0799733" lon="13.5434433"><ele>743.4285714285714</ele><time>2026-05-02T14:03:30.861Z</time></trkpt><trkpt lat="42.079895" lon="13.5434467"><ele>742.8571428571429</ele><time>2026-05-02T14:03:32.861Z</time></trkpt><trkpt lat="42.079825" lon="13.5434217"><ele>742.2857142857142</ele><time>2026-05-02T14:03:34.861Z</time></trkpt><trkpt lat="42.079775" lon="13.5433117"><ele>741.7142857142858</ele><time>2026-05-02T14:03:36.861Z</time></trkpt><trkpt lat="42.0797417" lon="13.5432383"><ele>741.1428571428571</ele><time>2026-05-02T14:03:37.862Z</time></trkpt><trkpt lat="42.0797117" lon="13.5431467"><ele>740.5714285714286</ele><time>2026-05-02T14:03:38.861Z</time></trkpt><trkpt lat="42.07969" lon="13.5430667"><ele>740.0</ele><time>2026-05-02T14:03:39.862Z</time></trkpt><trkpt lat="42.079625" lon="13.5429467"><ele>740.1666666666666</ele><time>2026-05-02T14:03:41.862Z</time></trkpt><trkpt lat="42.07953" lon="13.5428717"><ele>740.3333333333333</ele><time>2026-05-02T14:03:43.861Z</time></trkpt><trkpt lat="42.0794633" lon="13.5428533"><ele>740.5</ele><time>2026-05-02T14:03:44.861Z</time></trkpt><trkpt lat="42.07939" lon="13.54284"><ele>740.6666666666666</ele><time>2026-05-02T14:03:45.862Z</time></trkpt><trkpt lat="42.0793067" lon="13.54282"><ele>740.8333333333334</ele><time>2026-05-02T14:03:46.861Z</time></trkpt><trkpt lat="42.0792317" lon="13.542795"><ele>741.0</ele><time>2026-05-02T14:03:47.862Z</time></trkpt><trkpt lat="42.079155" lon="13.54278"><ele>740.5714285714286</ele><time>2026-05-02T14:03:48.861Z</time></trkpt><trkpt lat="42.0790783" lon="13.5427467"><ele>740.1428571428572</ele><time>2026-05-02T14:03:49.861Z</time></trkpt><trkpt lat="42.0790133" lon="13.542705"><ele>739.7142857142858</ele><time>2026-05-02T14:03:50.861Z</time></trkpt><trkpt lat="42.078955" lon="13.5426517"><ele>739.2857142857142</ele><time>2026-05-02T14:03:51.862Z</time></trkpt><trkpt lat="42.0789067" lon="13.542595"><ele>738.8571428571429</ele><time>2026-05-02T14:03:52.861Z</time></trkpt><trkpt lat="42.078855" lon="13.54254"><ele>738.4285714285714</ele><time>2026-05-02T14:03:53.862Z</time></trkpt><trkpt lat="42.0788133" lon="13.5424667"><ele>738.0</ele><time>2026-05-02T14:03:54.862Z</time></trkpt><trkpt lat="42.0787733" lon="13.5423817"><ele>738.0</ele><time>2026-05-02T14:03:55.862Z</time></trkpt><trkpt lat="42.0787233" lon="13.54231"><ele>738.0</ele><time>2026-05-02T14:03:56.861Z</time></trkpt><trkpt lat="42.078665" lon="13.5422433"><ele>738.0</ele><time>2026-05-02T14:03:57.861Z</time></trkpt><trkpt lat="42.0786083" lon="13.54218"><ele>738.0</ele><time>2026-05-02T14:03:58.861Z</time></trkpt><trkpt lat="42.07855" lon="13.5421233"><ele>738.0</ele><time>2026-05-02T14:03:59.861Z</time></trkpt><trkpt lat="42.078495" lon="13.542065"><ele>738.0</ele><time>2026-05-02T14:04:00.861Z</time></trkpt><trkpt lat="42.078415" lon="13.54198"><ele>738.4</ele><time>2026-05-02T14:04:02.861Z</time></trkpt><trkpt lat="42.0783483" lon="13.54187"><ele>738.8</ele><time>2026-05-02T14:04:04.861Z</time></trkpt><trkpt lat="42.07832" lon="13.5417733"><ele>739.2</ele><time>2026-05-02T14:04:06.862Z</time></trkpt><trkpt lat="42.0783733" lon="13.5416433"><ele>739.6</ele><time>2026-05-02T14:04:08.861Z</time></trkpt><trkpt lat="42.078415" lon="13.5415733"><ele>740.0</ele><time>2026-05-02T14:04:09.861Z</time></trkpt><trkpt lat="42.0784183" lon="13.541435"><ele>740.0</ele><time>2026-05-02T14:04:11.862Z</time></trkpt><trkpt lat="42.0783833" lon="13.5413417"><ele>740.0</ele><time>2026-05-02T14:04:13.861Z</time></trkpt><trkpt lat="42.078345" lon="13.5412483"><ele>740.0</ele><time>2026-05-02T14:04:15.861Z</time></trkpt><trkpt lat="42.07838" lon="13.5411217"><ele>740.0</ele><time>2026-05-02T14:04:18.861Z</time></trkpt><trkpt lat="42.0783967" lon="13.541015"><ele>740.0</ele><time>2026-05-02T14:04:20.862Z</time></trkpt><trkpt lat="42.07836" lon="13.5409367"><ele>740.0</ele><time>2026-05-02T14:04:21.861Z</time></trkpt><trkpt lat="42.07831" lon="13.5408517"><ele>738.6</ele><time>2026-05-02T14:04:22.861Z</time></trkpt><trkpt lat="42.0782617" lon="13.5407683"><ele>737.2</ele><time>2026-05-02T14:04:23.862Z</time></trkpt><trkpt lat="42.0782117" lon="13.5406667"><ele>735.8</ele><time>2026-05-02T14:04:24.861Z</time></trkpt><trkpt lat="42.0781517" lon="13.5405567"><ele>734.4</ele><time>2026-05-02T14:04:25.862Z</time></trkpt><trkpt lat="42.0780967" lon="13.540455"><ele>733.0</ele><time>2026-05-02T14:04:26.861Z</time></trkpt><trkpt lat="42.0780483" lon="13.5403583"><ele>733.0</ele><time>2026-05-02T14:04:27.862Z</time></trkpt><trkpt lat="42.0780133" lon="13.5402733"><ele>733.0</ele><time>2026-05-02T14:04:28.861Z</time></trkpt><trkpt lat="42.0779967" lon="13.540165"><ele>733.0</ele><time>2026-05-02T14:04:30.862Z</time></trkpt><trkpt lat="42.0780617" lon="13.5400467"><ele>733.0</ele><time>2026-05-02T14:04:32.862Z</time></trkpt><trkpt lat="42.07817" lon="13.5399667"><ele>733.0</ele><time>2026-05-02T14:04:34.862Z</time></trkpt><trkpt lat="42.07826" lon="13.5398983"><ele>735.0</ele><time>2026-05-02T14:04:36.861Z</time></trkpt><trkpt lat="42.0783417" lon="13.5399467"><ele>737.0</ele><time>2026-05-02T14:04:39.862Z</time></trkpt><trkpt lat="42.0784233" lon="13.5399783"><ele>739.0</ele><time>2026-05-02T14:04:41.862Z</time></trkpt><trkpt lat="42.078545" lon="13.540005"><ele>741.0</ele><time>2026-05-02T14:04:43.861Z</time></trkpt><trkpt lat="42.0786267" lon="13.5400033"><ele>743.0</ele><time>2026-05-02T14:04:44.862Z</time></trkpt><trkpt lat="42.0787033" lon="13.5400067"><ele>743.0</ele><time>2026-05-02T14:04:45.861Z</time></trkpt><trkpt lat="42.0787833" lon="13.5399983"><ele>743.0</ele><time>2026-05-02T14:04:46.862Z</time></trkpt><trkpt lat="42.07886" lon="13.539985"><ele>743.0</ele><time>2026-05-02T14:04:47.862Z</time></trkpt><trkpt lat="42.0789267" lon="13.539975"><ele>743.0</ele><time>2026-05-02T14:04:48.861Z</time></trkpt><trkpt lat="42.0790267" lon="13.539965"><ele>743.0</ele><time>2026-05-02T14:04:50.862Z</time></trkpt><trkpt lat="42.079105" lon="13.5400317"><ele>743.0</ele><time>2026-05-02T14:04:53.861Z</time></trkpt><trkpt lat="42.0791433" lon="13.540195"><ele>743.0</ele><time>2026-05-02T14:04:55.862Z</time></trkpt><trkpt lat="42.0792083" lon="13.54034"><ele>743.0</ele><time>2026-05-02T14:04:57.862Z</time></trkpt><trkpt lat="42.079275" lon="13.5403933"><ele>743.0</ele><time>2026-05-02T14:04:59.861Z</time></trkpt><trkpt lat="42.079385" lon="13.540365"><ele>743.0</ele><time>2026-05-02T14:05:01.861Z</time></trkpt><trkpt lat="42.0794817" lon="13.5403133"><ele>743.0</ele><time>2026-05-02T14:05:03.862Z</time></trkpt><trkpt lat="42.07957" lon="13.5403283"><ele>743.0</ele><time>2026-05-02T14:05:06.861Z</time></trkpt><trkpt lat="42.0796167" lon="13.540495"><ele>743.0</ele><time>2026-05-02T14:05:08.862Z</time></trkpt><trkpt lat="42.0796467" lon="13.5406267"><ele>743.0</ele><time>2026-05-02T14:05:09.861Z</time></trkpt><trkpt lat="42.0796933" lon="13.5407533"><ele>743.0</ele><time>2026-05-02T14:05:10.861Z</time></trkpt><trkpt lat="42.0797667" lon="13.5408617"><ele>743.0</ele><time>2026-05-02T14:05:11.862Z</time></trkpt><trkpt lat="42.0798533" lon="13.54095"><ele>743.2</ele><time>2026-05-02T14:05:12.861Z</time></trkpt><trkpt lat="42.079955" lon="13.541015"><ele>743.4</ele><time>2026-05-02T14:05:13.862Z</time></trkpt><trkpt lat="42.080065" lon="13.5410433"><ele>743.6</ele><time>2026-05-02T14:05:14.862Z</time></trkpt><trkpt lat="42.0801683" lon="13.5410517"><ele>743.8000000000001</ele><time>2026-05-02T14:05:15.862Z</time></trkpt><trkpt lat="42.080275" lon="13.5410533"><ele>744.0</ele><time>2026-05-02T14:05:16.861Z</time></trkpt><trkpt lat="42.08039" lon="13.54105"><ele>744.0</ele><time>2026-05-02T14:05:17.861Z</time></trkpt><trkpt lat="42.0805167" lon="13.5410367"><ele>744.0</ele><time>2026-05-02T14:05:18.861Z</time></trkpt><trkpt lat="42.08065" lon="13.54103"><ele>744.0</ele><time>2026-05-02T14:05:19.862Z</time></trkpt><trkpt lat="42.0807883" lon="13.5410317"><ele>744.0</ele><time>2026-05-02T14:05:20.861Z</time></trkpt><trkpt lat="42.0809317" lon="13.5410333"><ele>744.25</ele><time>2026-05-02T14:05:21.862Z</time></trkpt><trkpt lat="42.0810783" lon="13.541035"><ele>744.5</ele><time>2026-05-02T14:05:22.861Z</time></trkpt><trkpt lat="42.0812183" lon="13.5410367"><ele>744.75</ele><time>2026-05-02T14:05:23.862Z</time></trkpt><trkpt lat="42.0813433" lon="13.5410483"><ele>745.0</ele><time>2026-05-02T14:05:24.862Z</time></trkpt><trkpt lat="42.0814467" lon="13.54107"><ele>745.0</ele><time>2026-05-02T14:05:25.861Z</time></trkpt><trkpt lat="42.08153" lon="13.5410883"><ele>745.0</ele><time>2026-05-02T14:05:26.861Z</time></trkpt><trkpt lat="42.0816117" lon="13.5411067"><ele>745.0</ele><time>2026-05-02T14:05:27.862Z</time></trkpt><trkpt lat="42.0816983" lon="13.541135"><ele>745.0</ele><time>2026-05-02T14:05:28.861Z</time></trkpt><trkpt lat="42.0817867" lon="13.5411783"><ele>745.0</ele><time>2026-05-02T14:05:29.862Z</time></trkpt><trkpt lat="42.0818533" lon="13.5412233"><ele>745.0</ele><time>2026-05-02T14:05:30.862Z</time></trkpt><trkpt lat="42.0819033" lon="13.5412783"><ele>745.2</ele><time>2026-05-02T14:05:31.861Z</time></trkpt><trkpt lat="42.0819733" lon="13.5413883"><ele>745.4</ele><time>2026-05-02T14:05:33.861Z</time></trkpt><trkpt lat="42.0820367" lon="13.5414933"><ele>745.5999999999999</ele><time>2026-05-02T14:05:36.861Z</time></trkpt><trkpt lat="42.0820933" lon="13.5415933"><ele>745.8</ele><time>2026-05-02T14:05:38.862Z</time></trkpt><trkpt lat="42.0821517" lon="13.5416733"><ele>746.0</ele><time>2026-05-02T14:05:40.862Z</time></trkpt><trkpt lat="42.0822233" lon="13.5416067"><ele>746.0</ele><time>2026-05-02T14:05:43.861Z</time></trkpt><trkpt lat="42.0822483" lon="13.5415267"><ele>746.0</ele><time>2026-05-02T14:05:46.862Z</time></trkpt><trkpt lat="42.0822833" lon="13.5413833"><ele>746.0</ele><time>2026-05-02T14:10:08.861Z</time></trkpt><trkpt lat="42.0822417" lon="13.5415267"><ele>746.0</ele><time>2026-05-02T14:23:07.86Z</time></trkpt><trkpt lat="42.0822083" lon="13.54163"><ele>746.0</ele><time>2026-05-02T14:23:10.86Z</time></trkpt><trkpt lat="42.08222" lon="13.5417317"><ele>746.0</ele><time>2026-05-02T14:23:12.86Z</time></trkpt><trkpt lat="42.0822683" lon="13.54189"><ele>746.0</ele><time>2026-05-02T14:23:14.861Z</time></trkpt><trkpt lat="42.0823067" lon="13.5419717"><ele>746.0</ele><time>2026-05-02T14:23:15.86Z</time></trkpt><trkpt lat="42.082345" lon="13.5420667"><ele>746.0</ele><time>2026-05-02T14:23:16.86Z</time></trkpt><trkpt lat="42.08238" lon="13.54217"><ele>746.0</ele><time>2026-05-02T14:23:17.86Z</time></trkpt><trkpt lat="42.0824233" lon="13.54227"><ele>746.0</ele><time>2026-05-02T14:23:18.861Z</time></trkpt><trkpt lat="42.082455" lon="13.542365"><ele>746.1666666666666</ele><time>2026-05-02T14:23:19.861Z</time></trkpt><trkpt lat="42.08249" lon="13.5424467"><ele>746.3333333333333</ele><time>2026-05-02T14:23:20.86Z</time></trkpt><trkpt lat="42.0825433" lon="13.5425467"><ele>746.5</ele><time>2026-05-02T14:23:22.861Z</time></trkpt><trkpt lat="42.08249" lon="13.5426567"><ele>746.6666666666666</ele><time>2026-05-02T14:23:25.86Z</time></trkpt><trkpt lat="42.08244" lon="13.5427133"><ele>746.8333333333334</ele><time>2026-05-02T14:23:26.861Z</time></trkpt><trkpt lat="42.082385" lon="13.5427917"><ele>747.0</ele><time>2026-05-02T14:23:27.86Z</time></trkpt><trkpt lat="42.0823383" lon="13.54288"><ele>747.6666666666666</ele><time>2026-05-02T14:23:28.86Z</time></trkpt><trkpt lat="42.0823083" lon="13.5429667"><ele>748.3333333333334</ele><time>2026-05-02T14:23:29.861Z</time></trkpt><trkpt lat="42.0822917" lon="13.543055"><ele>749.0</ele><time>2026-05-02T14:23:30.861Z</time></trkpt><trkpt lat="42.0822767" lon="13.5431917"><ele>749.6666666666667</ele><time>2026-05-02T14:23:32.861Z</time></trkpt><trkpt lat="42.0822983" lon="13.543305"><ele>750.3333333333334</ele><time>2026-05-02T14:23:35.86Z</time></trkpt><trkpt lat="42.082375" lon="13.5433117"><ele>751.0</ele><time>2026-05-02T14:23:38.861Z</time></trkpt><trkpt lat="42.0824433" lon="13.5432317"><ele>753.0</ele><time>2026-05-02T14:23:40.861Z</time></trkpt><trkpt lat="42.0825267" lon="13.5430833"><ele>755.0</ele><time>2026-05-02T14:23:42.861Z</time></trkpt><trkpt lat="42.0825783" lon="13.5430033"><ele>757.0</ele><time>2026-05-02T14:23:43.861Z</time></trkpt><trkpt lat="42.0826417" lon="13.5429467"><ele>759.0</ele><time>2026-05-02T14:23:44.861Z</time></trkpt><trkpt lat="42.0827767" lon="13.54292"><ele>761.0</ele><time>2026-05-02T14:23:46.86Z</time></trkpt><trkpt lat="42.0828683" lon="13.542945"><ele>761.0</ele><time>2026-05-02T14:23:47.861Z</time></trkpt><trkpt lat="42.082975" lon="13.542975"><ele>761.0</ele><time>2026-05-02T14:23:48.861Z</time></trkpt><trkpt lat="42.0830767" lon="13.5429933"><ele>761.0</ele><time>2026-05-02T14:23:49.86Z</time></trkpt><trkpt lat="42.0831833" lon="13.5430117"><ele>761.0</ele><time>2026-05-02T14:23:50.86Z</time></trkpt><trkpt lat="42.0832883" lon="13.5430317"><ele>761.0</ele><time>2026-05-02T14:23:51.86Z</time></trkpt><trkpt lat="42.0833983" lon="13.5430383"><ele>764.1999999999999</ele><time>2026-05-02T14:23:52.86Z</time></trkpt><trkpt lat="42.08351" lon="13.5430483"><ele>767.4</ele><time>2026-05-02T14:23:53.86Z</time></trkpt><trkpt lat="42.0836133" lon="13.5430433"><ele>770.6</ele><time>2026-05-02T14:23:54.86Z</time></trkpt><trkpt lat="42.08372" lon="13.5430517"><ele>773.8</ele><time>2026-05-02T14:23:55.861Z</time></trkpt><trkpt lat="42.0838267" lon="13.543035"><ele>777.0</ele><time>2026-05-02T14:23:56.86Z</time></trkpt><trkpt lat="42.08392" lon="13.542995"><ele>777.0</ele><time>2026-05-02T14:23:57.86Z</time></trkpt><trkpt lat="42.0839983" lon="13.5429617"><ele>777.0</ele><time>2026-05-02T14:23:58.861Z</time></trkpt><trkpt lat="42.0840833" lon="13.5429367"><ele>777.0</ele><time>2026-05-02T14:23:59.861Z</time></trkpt><trkpt lat="42.0841767" lon="13.5429217"><ele>777.0</ele><time>2026-05-02T14:24:00.86Z</time></trkpt><trkpt lat="42.0842767" lon="13.5429167"><ele>777.0</ele><time>2026-05-02T14:24:01.86Z</time></trkpt><trkpt lat="42.08438" lon="13.5429167"><ele>778.8</ele><time>2026-05-02T14:24:02.861Z</time></trkpt><trkpt lat="42.0844867" lon="13.542925"><ele>780.6</ele><time>2026-05-02T14:24:03.86Z</time></trkpt><trkpt lat="42.0845933" lon="13.5429383"><ele>782.4</ele><time>2026-05-02T14:24:04.861Z</time></trkpt><trkpt lat="42.0846983" lon="13.5429383"><ele>784.1999999999999</ele><time>2026-05-02T14:24:05.86Z</time></trkpt><trkpt lat="42.0848033" lon="13.5429367"><ele>786.0</ele><time>2026-05-02T14:24:06.86Z</time></trkpt><trkpt lat="42.0849117" lon="13.5429383"><ele>787.8</ele><time>2026-05-02T14:24:07.861Z</time></trkpt><trkpt lat="42.085015" lon="13.5429383"><ele>789.5999999999999</ele><time>2026-05-02T14:24:08.86Z</time></trkpt><trkpt lat="42.0851133" lon="13.5429533"><ele>791.4</ele><time>2026-05-02T14:24:09.861Z</time></trkpt><trkpt lat="42.08522" lon="13.5429917"><ele>793.2</ele><time>2026-05-02T14:24:10.861Z</time></trkpt><trkpt lat="42.0853317" lon="13.543035"><ele>795.0</ele><time>2026-05-02T14:24:11.861Z</time></trkpt><trkpt lat="42.085435" lon="13.5430833"><ele>795.0</ele><time>2026-05-02T14:24:12.86Z</time></trkpt><trkpt lat="42.08555" lon="13.543155"><ele>795.0</ele><time>2026-05-02T14:24:13.86Z</time></trkpt><trkpt lat="42.085655" lon="13.543215"><ele>795.0</ele><time>2026-05-02T14:24:14.861Z</time></trkpt><trkpt lat="42.0857617" lon="13.54327"><ele>795.0</ele><time>2026-05-02T14:24:15.861Z</time></trkpt><trkpt lat="42.08586" lon="13.5433283"><ele>794.75</ele><time>2026-05-02T14:24:16.86Z</time></trkpt><trkpt lat="42.0859583" lon="13.5433883"><ele>794.5</ele><time>2026-05-02T14:24:17.861Z</time></trkpt><trkpt lat="42.0860783" lon="13.5434267"><ele>794.25</ele><time>2026-05-02T14:24:18.861Z</time></trkpt><trkpt lat="42.0861967" lon="13.5434433"><ele>794.0</ele><time>2026-05-02T14:24:19.861Z</time></trkpt><trkpt lat="42.0863117" lon="13.5434733"><ele>794.0</ele><time>2026-05-02T14:24:20.861Z</time></trkpt><trkpt lat="42.08643" lon="13.54351"><ele>794.0</ele><time>2026-05-02T14:24:21.861Z</time></trkpt><trkpt lat="42.0865467" lon="13.543535"><ele>794.0</ele><time>2026-05-02T14:24:22.86Z</time></trkpt><trkpt lat="42.0866567" lon="13.543545"><ele>794.0</ele><time>2026-05-02T14:24:23.86Z</time></trkpt><trkpt lat="42.0867583" lon="13.5435417"><ele>793.6</ele><time>2026-05-02T14:24:24.861Z</time></trkpt><trkpt lat="42.086855" lon="13.5435217"><ele>793.2</ele><time>2026-05-02T14:24:25.86Z</time></trkpt><trkpt lat="42.0869533" lon="13.5434917"><ele>792.8000000000001</ele><time>2026-05-02T14:24:26.86Z</time></trkpt><trkpt lat="42.0870433" lon="13.5434617"><ele>792.4000000000001</ele><time>2026-05-02T14:24:27.861Z</time></trkpt><trkpt lat="42.0871233" lon="13.5433967"><ele>792.0</ele><time>2026-05-02T14:24:28.861Z</time></trkpt><trkpt lat="42.087205" lon="13.54331"><ele>792.0</ele><time>2026-05-02T14:24:29.86Z</time></trkpt><trkpt lat="42.0872717" lon="13.54324"><ele>792.0</ele><time>2026-05-02T14:24:30.861Z</time></trkpt><trkpt lat="42.087325" lon="13.5431767"><ele>792.0</ele><time>2026-05-02T14:24:31.86Z</time></trkpt><trkpt lat="42.0873817" lon="13.5430633"><ele>792.0</ele><time>2026-05-02T14:24:33.861Z</time></trkpt><trkpt lat="42.0874383" lon="13.5429817"><ele>792.0</ele><time>2026-05-02T14:24:35.86Z</time></trkpt><trkpt lat="42.0874833" lon="13.5428967"><ele>792.0</ele><time>2026-05-02T14:24:37.86Z</time></trkpt><trkpt lat="42.0875283" lon="13.5428217"><ele>792.0</ele><time>2026-05-02T14:24:39.86Z</time></trkpt><trkpt lat="42.0875933" lon="13.5427217"><ele>792.0</ele><time>2026-05-02T14:24:41.86Z</time></trkpt><trkpt lat="42.0876517" lon="13.5426567"><ele>792.0</ele><time>2026-05-02T14:24:43.861Z</time></trkpt><trkpt lat="42.087725" lon="13.54257"><ele>792.0</ele><time>2026-05-02T14:24:46.86Z</time></trkpt><trkpt lat="42.0877817" lon="13.5424283"><ele>792.0</ele><time>2026-05-02T14:24:48.86Z</time></trkpt><trkpt lat="42.087825" lon="13.5423333"><ele>792.0</ele><time>2026-05-02T14:24:49.861Z</time></trkpt><trkpt lat="42.0878983" lon="13.5422383"><ele>792.0</ele><time>2026-05-02T14:24:50.86Z</time></trkpt><trkpt lat="42.08799" lon="13.5421533"><ele>792.0</ele><time>2026-05-02T14:24:51.86Z</time></trkpt><trkpt lat="42.0880933" lon="13.5420767"><ele>792.0</ele><time>2026-05-02T14:24:52.86Z</time></trkpt><trkpt lat="42.0882017" lon="13.5420017"><ele>792.8</ele><time>2026-05-02T14:24:53.86Z</time></trkpt><trkpt lat="42.0883133" lon="13.541945"><ele>793.6</ele><time>2026-05-02T14:24:54.861Z</time></trkpt><trkpt lat="42.0884217" lon="13.5418833"><ele>794.4</ele><time>2026-05-02T14:24:55.86Z</time></trkpt><trkpt lat="42.0885117" lon="13.5418283"><ele>795.1999999999999</ele><time>2026-05-02T14:24:56.861Z</time></trkpt><trkpt lat="42.0886017" lon="13.5417617"><ele>796.0</ele><time>2026-05-02T14:24:57.861Z</time></trkpt><trkpt lat="42.08867" lon="13.5416817"><ele>796.0</ele><time>2026-05-02T14:24:58.861Z</time></trkpt><trkpt lat="42.088705" lon="13.5415733"><ele>796.0</ele><time>2026-05-02T14:24:59.861Z</time></trkpt><trkpt lat="42.0887033" lon="13.5414333"><ele>796.0</ele><time>2026-05-02T14:25:00.861Z</time></trkpt><trkpt lat="42.0886733" lon="13.5412733"><ele>796.0</ele><time>2026-05-02T14:25:01.86Z</time></trkpt><trkpt lat="42.08863" lon="13.541125"><ele>796.0</ele><time>2026-05-02T14:25:02.86Z</time></trkpt><trkpt lat="42.0885733" lon="13.5409983"><ele>795.8</ele><time>2026-05-02T14:25:03.86Z</time></trkpt><trkpt lat="42.088505" lon="13.5408783"><ele>795.5999999999999</ele><time>2026-05-02T14:25:04.86Z</time></trkpt><trkpt lat="42.0884333" lon="13.54076"><ele>795.4</ele><time>2026-05-02T14:25:05.861Z</time></trkpt><trkpt lat="42.0883783" lon="13.540635"><ele>795.2</ele><time>2026-05-02T14:25:06.861Z</time></trkpt><trkpt lat="42.0883317" lon="13.5405167"><ele>795.0</ele><time>2026-05-02T14:25:07.861Z</time></trkpt><trkpt lat="42.0883067" lon="13.5403817"><ele>794.8</ele><time>2026-05-02T14:25:08.86Z</time></trkpt><trkpt lat="42.0882933" lon="13.5402317"><ele>794.6</ele><time>2026-05-02T14:25:09.86Z</time></trkpt><trkpt lat="42.088285" lon="13.5400817"><ele>794.4000000000001</ele><time>2026-05-02T14:25:10.861Z</time></trkpt><trkpt lat="42.0882817" lon="13.5399333"><ele>794.2</ele><time>2026-05-02T14:25:11.861Z</time></trkpt><trkpt lat="42.0882867" lon="13.5397883"><ele>794.0</ele><time>2026-05-02T14:25:12.86Z</time></trkpt><trkpt lat="42.088295" lon="13.539655"><ele>794.0000000000001</ele><time>2026-05-02T14:25:13.861Z</time></trkpt><trkpt lat="42.0883183" lon="13.539515"><ele>794.0</ele><time>2026-05-02T14:25:14.861Z</time></trkpt><trkpt lat="42.088335" lon="13.5393933"><ele>794.0</ele><time>2026-05-02T14:25:15.86Z</time></trkpt><trkpt lat="42.08834" lon="13.5392933"><ele>794.0</ele><time>2026-05-02T14:25:16.861Z</time></trkpt><trkpt lat="42.0883483" lon="13.539185"><ele>794.0000000000001</ele><time>2026-05-02T14:25:18.861Z</time></trkpt><trkpt lat="42.0883483" lon="13.5390667"><ele>794.0</ele><time>2026-05-02T14:25:22.861Z</time></trkpt><trkpt lat="42.0883467" lon="13.5389233"><ele>794.0</ele><time>2026-05-02T14:25:24.861Z</time></trkpt><trkpt lat="42.0883467" lon="13.53877"><ele>794.0</ele><time>2026-05-02T14:25:26.86Z</time></trkpt><trkpt lat="42.0883367" lon="13.5386767"><ele>794.0</ele><time>2026-05-02T14:25:28.86Z</time></trkpt><trkpt lat="42.0884033" lon="13.5386133"><ele>794.0</ele><time>2026-05-02T14:25:31.861Z</time></trkpt><trkpt lat="42.0884933" lon="13.538565"><ele>794.0</ele><time>2026-05-02T14:25:33.86Z</time></trkpt><trkpt lat="42.0885833" lon="13.5384833"><ele>794.0000000000001</ele><time>2026-05-02T14:25:35.86Z</time></trkpt><trkpt lat="42.0886433" lon="13.5384483"><ele>794.0</ele><time>2026-05-02T14:25:36.861Z</time></trkpt><trkpt lat="42.0887167" lon="13.538415"><ele>794.0</ele><time>2026-05-02T14:25:37.861Z</time></trkpt><trkpt lat="42.0887867" lon="13.5383667"><ele>794.0</ele><time>2026-05-02T14:25:38.861Z</time></trkpt><trkpt lat="42.0888617" lon="13.5382967"><ele>794.0000000000001</ele><time>2026-05-02T14:25:39.86Z</time></trkpt><trkpt lat="42.0889333" lon="13.5382133"><ele>794.0</ele><time>2026-05-02T14:25:40.86Z</time></trkpt><trkpt lat="42.0889933" lon="13.53815"><ele>794.0</ele><time>2026-05-02T14:25:41.86Z</time></trkpt><trkpt lat="42.089035" lon="13.538085"><ele>794.0</ele><time>2026-05-02T14:25:42.861Z</time></trkpt><trkpt lat="42.0891033" lon="13.5379317"><ele>794.0</ele><time>2026-05-02T14:25:44.86Z</time></trkpt><trkpt lat="42.0891483" lon="13.5378433"><ele>794.0</ele><time>2026-05-02T14:25:45.861Z</time></trkpt><trkpt lat="42.0892" lon="13.53774"><ele>794.0</ele><time>2026-05-02T14:25:46.86Z</time></trkpt><trkpt lat="42.0892683" lon="13.5376233"><ele>796.25</ele><time>2026-05-02T14:25:47.861Z</time></trkpt><trkpt lat="42.08935" lon="13.5375233"><ele>798.5</ele><time>2026-05-02T14:25:48.861Z</time></trkpt><trkpt lat="42.089435" lon="13.5374067"><ele>800.75</ele><time>2026-05-02T14:25:49.861Z</time></trkpt><trkpt lat="42.0895267" lon="13.5372933"><ele>803.0</ele><time>2026-05-02T14:25:50.86Z</time></trkpt><trkpt lat="42.0896217" lon="13.5371983"><ele>803.0</ele><time>2026-05-02T14:25:51.86Z</time></trkpt><trkpt lat="42.0897067" lon="13.5371033"><ele>803.0</ele><time>2026-05-02T14:25:52.861Z</time></trkpt><trkpt lat="42.0897933" lon="13.5370133"><ele>803.0</ele><time>2026-05-02T14:25:53.86Z</time></trkpt><trkpt lat="42.0898717" lon="13.536925"><ele>803.0</ele><time>2026-05-02T14:25:54.86Z</time></trkpt><trkpt lat="42.08995" lon="13.53684"><ele>803.0</ele><time>2026-05-02T14:25:55.861Z</time></trkpt><trkpt lat="42.0900283" lon="13.5367533"><ele>804.5000000000001</ele><time>2026-05-02T14:25:56.86Z</time></trkpt><trkpt lat="42.0900917" lon="13.5366633"><ele>806.0</ele><time>2026-05-02T14:25:57.861Z</time></trkpt><trkpt lat="42.090155" lon="13.5365917"><ele>807.5</ele><time>2026-05-02T14:25:58.86Z</time></trkpt><trkpt lat="42.090205" lon="13.5365183"><ele>809.0</ele><time>2026-05-02T14:25:59.861Z</time></trkpt><trkpt lat="42.0902433" lon="13.536445"><ele>810.5000000000001</ele><time>2026-05-02T14:26:00.861Z</time></trkpt><trkpt lat="42.0903067" lon="13.5363517"><ele>812.0</ele><time>2026-05-02T14:26:02.86Z</time></trkpt><trkpt lat="42.09032" lon="13.536235"><ele>811.2</ele><time>2026-05-02T14:26:04.861Z</time></trkpt><trkpt lat="42.0903" lon="13.53614"><ele>810.4000000000001</ele><time>2026-05-02T14:26:05.861Z</time></trkpt><trkpt lat="42.0902717" lon="13.53602"><ele>809.5999999999999</ele><time>2026-05-02T14:26:06.86Z</time></trkpt><trkpt lat="42.0902433" lon="13.535885"><ele>808.8</ele><time>2026-05-02T14:26:07.861Z</time></trkpt><trkpt lat="42.0902117" lon="13.5357567"><ele>808.0</ele><time>2026-05-02T14:26:08.86Z</time></trkpt><trkpt lat="42.0901933" lon="13.535635"><ele>807.9999999999999</ele><time>2026-05-02T14:26:09.86Z</time></trkpt><trkpt lat="42.0901883" lon="13.5355183"><ele>808.0</ele><time>2026-05-02T14:26:10.861Z</time></trkpt><trkpt lat="42.0901933" lon="13.5353967"><ele>808.0</ele><time>2026-05-02T14:26:11.86Z</time></trkpt><trkpt lat="42.0902083" lon="13.5352883"><ele>808.0</ele><time>2026-05-02T14:26:12.861Z</time></trkpt><trkpt lat="42.09022" lon="13.535195"><ele>807.9999999999999</ele><time>2026-05-02T14:26:13.86Z</time></trkpt><trkpt lat="42.090235" lon="13.5351117"><ele>808.0</ele><time>2026-05-02T14:26:14.86Z</time></trkpt><trkpt lat="42.0902517" lon="13.534965"><ele>807.9999999999999</ele><time>2026-05-02T14:26:16.861Z</time></trkpt><trkpt lat="42.090245" lon="13.5348783"><ele>808.0</ele><time>2026-05-02T14:26:17.86Z</time></trkpt><trkpt lat="42.0902417" lon="13.5347933"><ele>808.0</ele><time>2026-05-02T14:26:18.86Z</time></trkpt><trkpt lat="42.090255" lon="13.53469"><ele>808.0</ele><time>2026-05-02T14:26:19.861Z</time></trkpt><trkpt lat="42.090285" lon="13.5345883"><ele>807.9999999999999</ele><time>2026-05-02T14:26:20.86Z</time></trkpt><trkpt lat="42.0903133" lon="13.534475"><ele>808.0</ele><time>2026-05-02T14:26:21.861Z</time></trkpt><trkpt lat="42.0903767" lon="13.5343633"><ele>808.0</ele><time>2026-05-02T14:26:22.861Z</time></trkpt><trkpt lat="42.0904483" lon="13.53424"><ele>808.0</ele><time>2026-05-02T14:26:23.86Z</time></trkpt><trkpt lat="42.0905367" lon="13.5341183"><ele>808.0</ele><time>2026-05-02T14:26:24.86Z</time></trkpt><trkpt lat="42.0906183" lon="13.533995"><ele>808.0</ele><time>2026-05-02T14:26:25.86Z</time></trkpt><trkpt lat="42.0906933" lon="13.5338683"><ele>809.5</ele><time>2026-05-02T14:26:26.861Z</time></trkpt><trkpt lat="42.0907683" lon="13.5337333"><ele>811.0</ele><time>2026-05-02T14:26:27.861Z</time></trkpt><trkpt lat="42.0908433" lon="13.533595"><ele>812.5</ele><time>2026-05-02T14:26:28.86Z</time></trkpt><trkpt lat="42.0909083" lon="13.53346"><ele>814.0</ele><time>2026-05-02T14:26:29.86Z</time></trkpt><trkpt lat="42.0909883" lon="13.5333333"><ele>814.0</ele><time>2026-05-02T14:26:30.86Z</time></trkpt><trkpt lat="42.09105" lon="13.5331983"><ele>814.0</ele><time>2026-05-02T14:26:31.86Z</time></trkpt><trkpt lat="42.0911067" lon="13.53306"><ele>814.0</ele><time>2026-05-02T14:26:32.861Z</time></trkpt><trkpt lat="42.091165" lon="13.5329233"><ele>814.0</ele><time>2026-05-02T14:26:33.86Z</time></trkpt><trkpt lat="42.09124" lon="13.5327933"><ele>814.25</ele><time>2026-05-02T14:26:34.86Z</time></trkpt><trkpt lat="42.0913217" lon="13.5326833"><ele>814.5</ele><time>2026-05-02T14:26:35.861Z</time></trkpt><trkpt lat="42.091425" lon="13.53258"><ele>814.75</ele><time>2026-05-02T14:26:36.86Z</time></trkpt><trkpt lat="42.0915283" lon="13.5324633"><ele>815.0</ele><time>2026-05-02T14:26:37.86Z</time></trkpt><trkpt lat="42.0916317" lon="13.532335"><ele>816.25</ele><time>2026-05-02T14:26:38.86Z</time></trkpt><trkpt lat="42.091725" lon="13.5321833"><ele>817.5</ele><time>2026-05-02T14:26:39.86Z</time></trkpt><trkpt lat="42.09181" lon="13.5320267"><ele>818.75</ele><time>2026-05-02T14:26:40.86Z</time></trkpt><trkpt lat="42.0918767" lon="13.53186"><ele>820.0</ele><time>2026-05-02T14:26:41.86Z</time></trkpt><trkpt lat="42.0919317" lon="13.531705"><ele>820.0</ele><time>2026-05-02T14:26:42.86Z</time></trkpt><trkpt lat="42.09198" lon="13.5315467"><ele>820.0</ele><time>2026-05-02T14:26:43.86Z</time></trkpt><trkpt lat="42.09202" lon="13.5313767"><ele>820.0</ele><time>2026-05-02T14:26:44.86Z</time></trkpt><trkpt lat="42.0920517" lon="13.5312"><ele>820.0</ele><time>2026-05-02T14:26:45.861Z</time></trkpt><trkpt lat="42.092085" lon="13.5310167"><ele>819.5</ele><time>2026-05-02T14:26:46.86Z</time></trkpt><trkpt lat="42.0921233" lon="13.5308433"><ele>819.0</ele><time>2026-05-02T14:26:47.861Z</time></trkpt><trkpt lat="42.0921633" lon="13.5306717"><ele>818.5</ele><time>2026-05-02T14:26:48.861Z</time></trkpt><trkpt lat="42.0922117" lon="13.530505"><ele>818.0</ele><time>2026-05-02T14:26:49.86Z</time></trkpt><trkpt lat="42.09227" lon="13.53034"><ele>817.75</ele><time>2026-05-02T14:26:50.861Z</time></trkpt><trkpt lat="42.09233" lon="13.5301733"><ele>817.5</ele><time>2026-05-02T14:26:51.861Z</time></trkpt><trkpt lat="42.0924067" lon="13.5300283"><ele>817.25</ele><time>2026-05-02T14:26:52.861Z</time></trkpt><trkpt lat="42.0924817" lon="13.5298733"><ele>817.0</ele><time>2026-05-02T14:26:53.86Z</time></trkpt><trkpt lat="42.092535" lon="13.529705"><ele>819.0</ele><time>2026-05-02T14:26:54.86Z</time></trkpt><trkpt lat="42.092605" lon="13.52955"><ele>821.0</ele><time>2026-05-02T14:26:55.861Z</time></trkpt><trkpt lat="42.092665" lon="13.5294"><ele>823.0</ele><time>2026-05-02T14:26:56.861Z</time></trkpt><trkpt lat="42.0927217" lon="13.5292483"><ele>825.0</ele><time>2026-05-02T14:26:57.861Z</time></trkpt><trkpt lat="42.0927783" lon="13.529085"><ele>825.0</ele><time>2026-05-02T14:26:58.861Z</time></trkpt><trkpt lat="42.09283" lon="13.5289233"><ele>825.0</ele><time>2026-05-02T14:26:59.861Z</time></trkpt><trkpt lat="42.0928767" lon="13.52876"><ele>825.0</ele><time>2026-05-02T14:27:00.86Z</time></trkpt><trkpt lat="42.0929267" lon="13.5286117"><ele>825.0</ele><time>2026-05-02T14:27:01.861Z</time></trkpt><trkpt lat="42.0929683" lon="13.5284717"><ele>824.2</ele><time>2026-05-02T14:27:02.86Z</time></trkpt><trkpt lat="42.0930267" lon="13.5283533"><ele>823.4</ele><time>2026-05-02T14:27:03.86Z</time></trkpt><trkpt lat="42.093085" lon="13.528235"><ele>822.5999999999999</ele><time>2026-05-02T14:27:04.86Z</time></trkpt><trkpt lat="42.093155" lon="13.5281317"><ele>821.8</ele><time>2026-05-02T14:27:05.861Z</time></trkpt><trkpt lat="42.0932317" lon="13.5280333"><ele>821.0</ele><time>2026-05-02T14:27:06.861Z</time></trkpt><trkpt lat="42.0933183" lon="13.52793"><ele>822.4</ele><time>2026-05-02T14:27:07.86Z</time></trkpt><trkpt lat="42.093405" lon="13.5278317"><ele>823.8</ele><time>2026-05-02T14:27:08.86Z</time></trkpt><trkpt lat="42.0934867" lon="13.5277433"><ele>825.1999999999999</ele><time>2026-05-02T14:27:09.86Z</time></trkpt><trkpt lat="42.0935617" lon="13.5276783"><ele>826.5999999999999</ele><time>2026-05-02T14:27:10.86Z</time></trkpt><trkpt lat="42.09363" lon="13.5276183"><ele>828.0</ele><time>2026-05-02T14:27:11.861Z</time></trkpt><trkpt lat="42.0937017" lon="13.5275783"><ele>828.0</ele><time>2026-05-02T14:27:12.86Z</time></trkpt><trkpt lat="42.0937967" lon="13.52752"><ele>828.0</ele><time>2026-05-02T14:27:14.86Z</time></trkpt><trkpt lat="42.0938733" lon="13.5275033"><ele>828.0</ele><time>2026-05-02T14:27:17.861Z</time></trkpt><trkpt lat="42.0939517" lon="13.5275533"><ele>828.0</ele><time>2026-05-02T14:27:19.861Z</time></trkpt><trkpt lat="42.09401" lon="13.5275917"><ele>828.0</ele><time>2026-05-02T14:27:20.86Z</time></trkpt><trkpt lat="42.094085" lon="13.5276267"><ele>828.0</ele><time>2026-05-02T14:27:21.861Z</time></trkpt><trkpt lat="42.094165" lon="13.5276633"><ele>828.0</ele><time>2026-05-02T14:27:22.861Z</time></trkpt><trkpt lat="42.0942433" lon="13.5276933"><ele>828.0</ele><time>2026-05-02T14:27:23.861Z</time></trkpt><trkpt lat="42.0943383" lon="13.52772"><ele>828.0</ele><time>2026-05-02T14:27:25.861Z</time></trkpt><trkpt lat="42.0942717" lon="13.52769"><ele>828.0</ele><time>2026-05-02T14:27:34.861Z</time></trkpt><trkpt lat="42.09415" lon="13.52766"><ele>828.0</ele><time>2026-05-02T14:27:36.861Z</time></trkpt><trkpt lat="42.0940733" lon="13.5276283"><ele>828.0</ele><time>2026-05-02T14:27:37.86Z</time></trkpt><trkpt lat="42.0939983" lon="13.527585"><ele>828.0</ele><time>2026-05-02T14:27:38.86Z</time></trkpt><trkpt lat="42.0938983" lon="13.5275217"><ele>828.0</ele><time>2026-05-02T14:27:40.861Z</time></trkpt><trkpt lat="42.0938433" lon="13.52743"><ele>828.0</ele><time>2026-05-02T14:27:43.861Z</time></trkpt><trkpt lat="42.09385" lon="13.5273017"><ele>828.0</ele><time>2026-05-02T14:27:45.86Z</time></trkpt><trkpt lat="42.09385" lon="13.5272"><ele>828.0</ele><time>2026-05-02T14:27:46.861Z</time></trkpt><trkpt lat="42.0938567" lon="13.5270767"><ele>828.0</ele><time>2026-05-02T14:27:47.861Z</time></trkpt><trkpt lat="42.0938683" lon="13.5269617"><ele>828.0</ele><time>2026-05-02T14:27:48.86Z</time></trkpt><trkpt lat="42.0938917" lon="13.52684"><ele>828.0</ele><time>2026-05-02T14:27:49.86Z</time></trkpt><trkpt lat="42.09392" lon="13.5267167"><ele>828.0</ele><time>2026-05-02T14:27:50.861Z</time></trkpt><trkpt lat="42.0939467" lon="13.5265883"><ele>827.5999999999999</ele><time>2026-05-02T14:27:51.86Z</time></trkpt><trkpt lat="42.0939783" lon="13.5264617"><ele>827.1999999999999</ele><time>2026-05-02T14:27:52.861Z</time></trkpt><trkpt lat="42.0940033" lon="13.5263217"><ele>826.8</ele><time>2026-05-02T14:27:53.86Z</time></trkpt><trkpt lat="42.094025" lon="13.5261983"><ele>826.4</ele><time>2026-05-02T14:27:54.861Z</time></trkpt><trkpt lat="42.0940467" lon="13.5260783"><ele>826.0</ele><time>2026-05-02T14:27:55.861Z</time></trkpt><trkpt lat="42.094075" lon="13.5259583"><ele>826.8333333333333</ele><time>2026-05-02T14:27:56.861Z</time></trkpt><trkpt lat="42.0941067" lon="13.5258467"><ele>827.6666666666666</ele><time>2026-05-02T14:27:57.86Z</time></trkpt><trkpt lat="42.0941367" lon="13.5257467"><ele>828.5</ele><time>2026-05-02T14:27:58.861Z</time></trkpt><trkpt lat="42.0941633" lon="13.5256667"><ele>829.3333333333333</ele><time>2026-05-02T14:27:59.861Z</time></trkpt><trkpt lat="42.094205" lon="13.5254983"><ele>830.1666666666666</ele><time>2026-05-02T14:28:01.86Z</time></trkpt><trkpt lat="42.094225" lon="13.525395"><ele>831.0</ele><time>2026-05-02T14:28:02.86Z</time></trkpt><trkpt lat="42.094265" lon="13.5252833"><ele>828.6666666666666</ele><time>2026-05-02T14:28:03.86Z</time></trkpt><trkpt lat="42.0943183" lon="13.5251783"><ele>826.3333333333333</ele><time>2026-05-02T14:28:04.86Z</time></trkpt><trkpt lat="42.094385" lon="13.5250867"><ele>824.0</ele><time>2026-05-02T14:28:05.86Z</time></trkpt><trkpt lat="42.09445" lon="13.5250083"><ele>821.6666666666666</ele><time>2026-05-02T14:28:06.861Z</time></trkpt><trkpt lat="42.0945083" lon="13.5249333"><ele>819.3333333333333</ele><time>2026-05-02T14:28:07.86Z</time></trkpt><trkpt lat="42.0945633" lon="13.5248667"><ele>817.0</ele><time>2026-05-02T14:28:08.86Z</time></trkpt><trkpt lat="42.0946183" lon="13.52481"><ele>816.9999999999999</ele><time>2026-05-02T14:28:09.86Z</time></trkpt><trkpt lat="42.0946783" lon="13.5247533"><ele>817.0</ele><time>2026-05-02T14:28:10.86Z</time></trkpt><trkpt lat="42.0947367" lon="13.524695"><ele>817.0</ele><time>2026-05-02T14:28:11.861Z</time></trkpt><trkpt lat="42.0947917" lon="13.52463"><ele>817.0</ele><time>2026-05-02T14:28:12.86Z</time></trkpt><trkpt lat="42.09485" lon="13.5245733"><ele>817.0</ele><time>2026-05-02T14:28:13.861Z</time></trkpt><trkpt lat="42.0949083" lon="13.5245133"><ele>816.9999999999999</ele><time>2026-05-02T14:28:14.86Z</time></trkpt><trkpt lat="42.0949683" lon="13.5244633"><ele>817.0</ele><time>2026-05-02T14:28:15.86Z</time></trkpt><trkpt lat="42.0950417" lon="13.5244067"><ele>817.6666666666666</ele><time>2026-05-02T14:28:16.861Z</time></trkpt><trkpt lat="42.09512" lon="13.5243567"><ele>818.3333333333333</ele><time>2026-05-02T14:28:17.86Z</time></trkpt><trkpt lat="42.0951933" lon="13.5242883"><ele>819.0</ele><time>2026-05-02T14:28:18.861Z</time></trkpt><trkpt lat="42.0952617" lon="13.5242233"><ele>819.6666666666667</ele><time>2026-05-02T14:28:19.86Z</time></trkpt><trkpt lat="42.0953317" lon="13.5241533"><ele>820.3333333333334</ele><time>2026-05-02T14:28:20.86Z</time></trkpt><trkpt lat="42.0953983" lon="13.5240933"><ele>821.0</ele><time>2026-05-02T14:28:21.861Z</time></trkpt><trkpt lat="42.095475" lon="13.5240217"><ele>821.0000000000001</ele><time>2026-05-02T14:28:22.86Z</time></trkpt><trkpt lat="42.0955583" lon="13.5239433"><ele>821.0</ele><time>2026-05-02T14:28:23.86Z</time></trkpt><trkpt lat="42.09561" lon="13.523885"><ele>821.0</ele><time>2026-05-02T14:28:24.86Z</time></trkpt><trkpt lat="42.0956667" lon="13.5238233"><ele>821.0</ele><time>2026-05-02T14:28:25.86Z</time></trkpt><trkpt lat="42.0957217" lon="13.5237467"><ele>821.0000000000001</ele><time>2026-05-02T14:28:26.86Z</time></trkpt><trkpt lat="42.0957633" lon="13.5236583"><ele>821.0</ele><time>2026-05-02T14:28:27.861Z</time></trkpt><trkpt lat="42.0957917" lon="13.5235767"><ele>822.3333333333334</ele><time>2026-05-02T14:28:28.861Z</time></trkpt><trkpt lat="42.0958083" lon="13.5234833"><ele>823.6666666666667</ele><time>2026-05-02T14:28:29.86Z</time></trkpt><trkpt lat="42.0958317" lon="13.5233917"><ele>825.0</ele><time>2026-05-02T14:28:30.86Z</time></trkpt><trkpt lat="42.095865" lon="13.5233083"><ele>826.3333333333333</ele><time>2026-05-02T14:28:31.861Z</time></trkpt><trkpt lat="42.0959" lon="13.5232367"><ele>827.6666666666666</ele><time>2026-05-02T14:28:32.86Z</time></trkpt><trkpt lat="42.095965" lon="13.52309"><ele>829.0</ele><time>2026-05-02T14:28:34.86Z</time></trkpt><trkpt lat="42.0959933" lon="13.5229933"><ele>829.6666666666666</ele><time>2026-05-02T14:28:35.86Z</time></trkpt><trkpt lat="42.0960233" lon="13.5228967"><ele>830.3333333333333</ele><time>2026-05-02T14:28:36.86Z</time></trkpt><trkpt lat="42.0960483" lon="13.52281"><ele>831.0</ele><time>2026-05-02T14:28:37.86Z</time></trkpt><trkpt lat="42.09608" lon="13.5227283"><ele>831.6666666666667</ele><time>2026-05-02T14:28:38.861Z</time></trkpt><trkpt lat="42.09611" lon="13.5226483"><ele>832.3333333333334</ele><time>2026-05-02T14:28:39.86Z</time></trkpt><trkpt lat="42.0961333" lon="13.5225667"><ele>833.0</ele><time>2026-05-02T14:28:40.86Z</time></trkpt><trkpt lat="42.09618" lon="13.522415"><ele>833.0000000000001</ele><time>2026-05-02T14:28:42.861Z</time></trkpt><trkpt lat="42.0962067" lon="13.5223317"><ele>833.0</ele><time>2026-05-02T14:28:43.86Z</time></trkpt><trkpt lat="42.0962433" lon="13.5222467"><ele>833.0</ele><time>2026-05-02T14:28:44.86Z</time></trkpt><trkpt lat="42.0962817" lon="13.5221733"><ele>833.0</ele><time>2026-05-02T14:28:45.86Z</time></trkpt><trkpt lat="42.0963167" lon="13.5221"><ele>833.0000000000001</ele><time>2026-05-02T14:28:46.86Z</time></trkpt><trkpt lat="42.096345" lon="13.522015"><ele>833.0</ele><time>2026-05-02T14:28:47.861Z</time></trkpt><trkpt lat="42.096415" lon="13.5218883"><ele>833.3333333333334</ele><time>2026-05-02T14:28:49.86Z</time></trkpt><trkpt lat="42.0964817" lon="13.5218317"><ele>833.6666666666667</ele><time>2026-05-02T14:28:51.861Z</time></trkpt><trkpt lat="42.096565" lon="13.5218067"><ele>834.0</ele><time>2026-05-02T14:28:53.86Z</time></trkpt><trkpt lat="42.096655" lon="13.5217967"><ele>834.3333333333333</ele><time>2026-05-02T14:28:55.861Z</time></trkpt><trkpt lat="42.0967567" lon="13.5217967"><ele>834.6666666666666</ele><time>2026-05-02T14:28:57.86Z</time></trkpt><trkpt lat="42.096825" lon="13.5217967"><ele>835.0</ele><time>2026-05-02T14:28:59.86Z</time></trkpt><trkpt lat="42.0968917" lon="13.5217867"><ele>834.9999999999999</ele><time>2026-05-02T14:29:22.86Z</time></trkpt><trkpt lat="42.0969667" lon="13.5217517"><ele>835.0</ele><time>2026-05-02T14:29:39.86Z</time></trkpt><trkpt lat="42.0968667" lon="13.5218017"><ele>835.0</ele><time>2026-05-02T14:30:10.86Z</time></trkpt><trkpt lat="42.0968067" lon="13.5218317"><ele>835.0</ele><time>2026-05-02T14:30:12.861Z</time></trkpt><trkpt lat="42.0967283" lon="13.5218517"><ele>834.9999999999999</ele><time>2026-05-02T14:30:15.861Z</time></trkpt><trkpt lat="42.0966267" lon="13.5218383"><ele>835.0</ele><time>2026-05-02T14:30:29.86Z</time></trkpt><trkpt lat="42.0965567" lon="13.5218483"><ele>834.9999999999999</ele><time>2026-05-02T14:30:32.861Z</time></trkpt><trkpt lat="42.0964867" lon="13.5218633"><ele>835.0</ele><time>2026-05-02T14:30:34.86Z</time></trkpt><trkpt lat="42.0963367" lon="13.5218633"><ele>835.0</ele><time>2026-05-02T14:31:23.86Z</time></trkpt><trkpt lat="42.096265" lon="13.52183"><ele>835.0</ele><time>2026-05-02T14:32:06.861Z</time></trkpt><trkpt lat="42.0962433" lon="13.5217467"><ele>834.9999999999999</ele><time>2026-05-02T14:32:09.861Z</time></trkpt><trkpt lat="42.09626" lon="13.5216367"><ele>835.0</ele><time>2026-05-02T14:32:11.86Z</time></trkpt><trkpt lat="42.0962883" lon="13.5215217"><ele>835.0</ele><time>2026-05-02T14:32:13.861Z</time></trkpt><trkpt lat="42.0963283" lon="13.5213833"><ele>835.0</ele><time>2026-05-02T14:32:15.86Z</time></trkpt><trkpt lat="42.0963567" lon="13.5212817"><ele>835.0</ele><time>2026-05-02T14:32:17.86Z</time></trkpt><trkpt lat="42.0963917" lon="13.5211683"><ele>835.0</ele><time>2026-05-02T14:32:20.86Z</time></trkpt><trkpt lat="42.0964283" lon="13.5210867"><ele>835.0</ele><time>2026-05-02T14:32:22.861Z</time></trkpt><trkpt lat="42.0964817" lon="13.520975"><ele>834.8333333333333</ele><time>2026-05-02T14:32:24.86Z</time></trkpt><trkpt lat="42.096555" lon="13.520855"><ele>834.6666666666666</ele><time>2026-05-02T14:32:26.86Z</time></trkpt><trkpt lat="42.0965983" lon="13.5207917"><ele>834.5</ele><time>2026-05-02T14:32:27.86Z</time></trkpt><trkpt lat="42.09665" lon="13.5207233"><ele>834.3333333333333</ele><time>2026-05-02T14:32:28.86Z</time></trkpt><trkpt lat="42.0967" lon="13.5206517"><ele>834.1666666666666</ele><time>2026-05-02T14:32:29.861Z</time></trkpt><trkpt lat="42.0967533" lon="13.5205783"><ele>834.0</ele><time>2026-05-02T14:32:30.86Z</time></trkpt><trkpt lat="42.0968067" lon="13.5205117"><ele>835.3333333333334</ele><time>2026-05-02T14:32:31.861Z</time></trkpt><trkpt lat="42.0968567" lon="13.5204517"><ele>836.6666666666667</ele><time>2026-05-02T14:32:32.86Z</time></trkpt><trkpt lat="42.0969583" lon="13.52035"><ele>838.0</ele><time>2026-05-02T14:32:34.861Z</time></trkpt><trkpt lat="42.097015" lon="13.520295"><ele>839.3333333333334</ele><time>2026-05-02T14:32:35.861Z</time></trkpt><trkpt lat="42.09708" lon="13.5202433"><ele>840.6666666666667</ele><time>2026-05-02T14:32:36.86Z</time></trkpt><trkpt lat="42.097145" lon="13.5202033"><ele>842.0</ele><time>2026-05-02T14:32:37.86Z</time></trkpt><trkpt lat="42.0972183" lon="13.5201533"><ele>842.0000000000001</ele><time>2026-05-02T14:32:38.861Z</time></trkpt><trkpt lat="42.097285" lon="13.520115"><ele>842.0</ele><time>2026-05-02T14:32:39.861Z</time></trkpt><trkpt lat="42.0973883" lon="13.5200633"><ele>842.0</ele><time>2026-05-02T14:32:41.86Z</time></trkpt><trkpt lat="42.0974233" lon="13.5199583"><ele>842.0</ele><time>2026-05-02T14:32:45.861Z</time></trkpt><trkpt lat="42.0974017" lon="13.51986"><ele>842.0000000000001</ele><time>2026-05-02T14:32:47.861Z</time></trkpt><trkpt lat="42.0973617" lon="13.5197667"><ele>842.0</ele><time>2026-05-02T14:32:49.861Z</time></trkpt><trkpt lat="42.09733" lon="13.5196767"><ele>844.6</ele><time>2026-05-02T14:32:51.861Z</time></trkpt><trkpt lat="42.097325" lon="13.5195167"><ele>847.2</ele><time>2026-05-02T14:38:51.86Z</time></trkpt><trkpt lat="42.0972967" lon="13.51939"><ele>849.8</ele><time>2026-05-02T14:38:58.859Z</time></trkpt><trkpt lat="42.0972483" lon="13.51929"><ele>852.4</ele><time>2026-05-02T14:39:00.859Z</time></trkpt><trkpt lat="42.0971917" lon="13.5191867"><ele>855.0</ele><time>2026-05-02T14:39:02.859Z</time></trkpt><trkpt lat="42.0971583" lon="13.519085"><ele>855.0</ele><time>2026-05-02T14:39:05.86Z</time></trkpt><trkpt lat="42.0972" lon="13.51885"><ele>855.0</ele><time>2026-05-02T14:43:13.859Z</time></trkpt><trkpt lat="42.097225" lon="13.5187483"><ele>855.0</ele><time>2026-05-02T14:43:14.859Z</time></trkpt><trkpt lat="42.0972567" lon="13.5186567"><ele>855.0</ele><time>2026-05-02T14:43:15.859Z</time></trkpt><trkpt lat="42.0972833" lon="13.51857"><ele>855.0</ele><time>2026-05-02T14:43:16.859Z</time></trkpt><trkpt lat="42.0973183" lon="13.51848"><ele>857.8</ele><time>2026-05-02T14:43:17.859Z</time></trkpt><trkpt lat="42.0973533" lon="13.5183683"><ele>860.6</ele><time>2026-05-02T14:43:18.86Z</time></trkpt><trkpt lat="42.0974067" lon="13.5182417"><ele>863.4000000000001</ele><time>2026-05-02T14:43:19.86Z</time></trkpt><trkpt lat="42.0974717" lon="13.5181133"><ele>866.2</ele><time>2026-05-02T14:43:20.859Z</time></trkpt><trkpt lat="42.0975317" lon="13.5179867"><ele>869.0</ele><time>2026-05-02T14:43:21.86Z</time></trkpt><trkpt lat="42.0976" lon="13.5178467"><ele>870.75</ele><time>2026-05-02T14:43:22.86Z</time></trkpt><trkpt lat="42.09768" lon="13.5176967"><ele>872.5</ele><time>2026-05-02T14:43:23.86Z</time></trkpt><trkpt lat="42.0977633" lon="13.5175467"><ele>874.25</ele><time>2026-05-02T14:43:24.86Z</time></trkpt><trkpt lat="42.09784" lon="13.5173867"><ele>876.0</ele><time>2026-05-02T14:43:25.859Z</time></trkpt><trkpt lat="42.09789" lon="13.517245"><ele>876.0</ele><time>2026-05-02T14:43:26.86Z</time></trkpt><trkpt lat="42.0979317" lon="13.517125"><ele>876.0</ele><time>2026-05-02T14:43:27.86Z</time></trkpt><trkpt lat="42.0979583" lon="13.51703"><ele>876.0</ele><time>2026-05-02T14:43:28.86Z</time></trkpt><trkpt lat="42.0979767" lon="13.516935"><ele>876.0</ele><time>2026-05-02T14:43:29.859Z</time></trkpt><trkpt lat="42.09799" lon="13.5168267"><ele>876.0</ele><time>2026-05-02T14:43:30.86Z</time></trkpt><trkpt lat="42.098005" lon="13.5167083"><ele>876.0</ele><time>2026-05-02T14:43:31.86Z</time></trkpt><trkpt lat="42.0980233" lon="13.51658"><ele>876.0</ele><time>2026-05-02T14:43:32.86Z</time></trkpt><trkpt lat="42.0980467" lon="13.5164633"><ele>875.9999999999999</ele><time>2026-05-02T14:43:33.859Z</time></trkpt><trkpt lat="42.0980717" lon="13.5163367"><ele>875.9999999999999</ele><time>2026-05-02T14:43:34.86Z</time></trkpt><trkpt lat="42.0981017" lon="13.5162033"><ele>876.0</ele><time>2026-05-02T14:43:35.86Z</time></trkpt><trkpt lat="42.09814" lon="13.5160617"><ele>876.0</ele><time>2026-05-02T14:43:36.859Z</time></trkpt><trkpt lat="42.0981783" lon="13.5159417"><ele>877.5999999999999</ele><time>2026-05-02T14:43:37.86Z</time></trkpt><trkpt lat="42.0982283" lon="13.5158433"><ele>879.1999999999999</ele><time>2026-05-02T14:43:38.859Z</time></trkpt><trkpt lat="42.098285" lon="13.51575"><ele>880.8000000000001</ele><time>2026-05-02T14:43:39.86Z</time></trkpt><trkpt lat="42.0983483" lon="13.5156433"><ele>882.4000000000001</ele><time>2026-05-02T14:43:40.86Z</time></trkpt><trkpt lat="42.0984083" lon="13.5155283"><ele>884.0</ele><time>2026-05-02T14:43:41.859Z</time></trkpt><trkpt lat="42.0984667" lon="13.5154233"><ele>887.5000000000001</ele><time>2026-05-02T14:43:42.859Z</time></trkpt><trkpt lat="42.0985117" lon="13.5153433"><ele>891.0</ele><time>2026-05-02T14:43:43.859Z</time></trkpt><trkpt lat="42.098555" lon="13.5152717"><ele>894.5</ele><time>2026-05-02T14:43:44.859Z</time></trkpt><trkpt lat="42.0985983" lon="13.51518"><ele>898.0</ele><time>2026-05-02T14:43:46.86Z</time></trkpt><trkpt lat="42.0986583" lon="13.5150833"><ele>901.5000000000001</ele><time>2026-05-02T14:43:49.86Z</time></trkpt><trkpt lat="42.098735" lon="13.5149483"><ele>905.0</ele><time>2026-05-02T14:43:51.86Z</time></trkpt><trkpt lat="42.0987883" lon="13.5148467"><ele>905.0</ele><time>2026-05-02T14:43:52.86Z</time></trkpt><trkpt lat="42.0988467" lon="13.5147267"><ele>905.0</ele><time>2026-05-02T14:43:53.86Z</time></trkpt><trkpt lat="42.0989" lon="13.5145883"><ele>905.0</ele><time>2026-05-02T14:43:54.86Z</time></trkpt><trkpt lat="42.0989417" lon="13.5144667"><ele>905.0</ele><time>2026-05-02T14:43:55.859Z</time></trkpt><trkpt lat="42.0989683" lon="13.5143817"><ele>905.0</ele><time>2026-05-02T14:43:56.859Z</time></trkpt><trkpt lat="42.0989717" lon="13.51429"><ele>906.0</ele><time>2026-05-02T14:43:58.859Z</time></trkpt><trkpt lat="42.0989033" lon="13.5142633"><ele>907.0</ele><time>2026-05-02T14:44:26.859Z</time></trkpt><trkpt lat="42.09885" lon="13.5141633"><ele>908.0</ele><time>2026-05-02T14:44:29.859Z</time></trkpt><trkpt lat="42.0987833" lon="13.5140283"><ele>909.0</ele><time>2026-05-02T14:44:31.859Z</time></trkpt><trkpt lat="42.0987283" lon="13.5138867"><ele>910.0</ele><time>2026-05-02T14:44:33.859Z</time></trkpt><trkpt lat="42.0986767" lon="13.5137483"><ele>912.2</ele><time>2026-05-02T14:44:35.859Z</time></trkpt><trkpt lat="42.0986167" lon="13.51359"><ele>914.4</ele><time>2026-05-02T14:44:37.86Z</time></trkpt><trkpt lat="42.0985833" lon="13.51349"><ele>916.5999999999999</ele><time>2026-05-02T14:44:38.859Z</time></trkpt><trkpt lat="42.0985567" lon="13.5133817"><ele>918.8</ele><time>2026-05-02T14:44:39.859Z</time></trkpt><trkpt lat="42.098535" lon="13.5132683"><ele>921.0</ele><time>2026-05-02T14:44:40.859Z</time></trkpt><trkpt lat="42.0985233" lon="13.5131333"><ele>921.0</ele><time>2026-05-02T14:44:41.86Z</time></trkpt><trkpt lat="42.0985133" lon="13.5130083"><ele>920.9999999999999</ele><time>2026-05-02T14:44:42.859Z</time></trkpt><trkpt lat="42.09849" lon="13.51289"><ele>920.9999999999999</ele><time>2026-05-02T14:44:43.86Z</time></trkpt><trkpt lat="42.0984567" lon="13.51278"><ele>921.0</ele><time>2026-05-02T14:44:44.859Z</time></trkpt><trkpt lat="42.0984333" lon="13.5126617"><ele>921.0</ele><time>2026-05-02T14:44:45.859Z</time></trkpt><trkpt lat="42.0984117" lon="13.512535"><ele>922.0</ele><time>2026-05-02T14:44:46.86Z</time></trkpt><trkpt lat="42.0983967" lon="13.5123983"><ele>923.0</ele><time>2026-05-02T14:44:47.86Z</time></trkpt><trkpt lat="42.0983817" lon="13.5122367"><ele>924.0</ele><time>2026-05-02T14:44:48.859Z</time></trkpt><trkpt lat="42.09838" lon="13.5120617"><ele>925.0</ele><time>2026-05-02T14:44:49.86Z</time></trkpt><trkpt lat="42.0983933" lon="13.5118717"><ele>926.0</ele><time>2026-05-02T14:44:50.86Z</time></trkpt><trkpt lat="42.0984183" lon="13.5116933"><ele>927.0</ele><time>2026-05-02T14:44:51.86Z</time></trkpt><trkpt lat="42.0984283" lon="13.511535"><ele>928.0</ele><time>2026-05-02T14:44:52.86Z</time></trkpt><trkpt lat="42.0984117" lon="13.5113883"><ele>929.0</ele><time>2026-05-02T14:44:53.859Z</time></trkpt><trkpt lat="42.0983767" lon="13.5112567"><ele>930.4000000000001</ele><time>2026-05-02T14:44:54.859Z</time></trkpt><trkpt lat="42.0983217" lon="13.51114"><ele>931.8000000000001</ele><time>2026-05-02T14:44:55.859Z</time></trkpt><trkpt lat="42.098255" lon="13.51103"><ele>933.1999999999999</ele><time>2026-05-02T14:44:56.859Z</time></trkpt><trkpt lat="42.0982" lon="13.51094"><ele>934.5999999999999</ele><time>2026-05-02T14:44:57.86Z</time></trkpt><trkpt lat="42.0981317" lon="13.51084"><ele>936.0</ele><time>2026-05-02T14:44:58.859Z</time></trkpt><trkpt lat="42.09807" lon="13.5106983"><ele>930.0</ele><time>2026-05-02T14:44:59.859Z</time></trkpt><trkpt lat="42.0980183" lon="13.510545"><ele>924.0</ele><time>2026-05-02T14:45:00.86Z</time></trkpt><trkpt lat="42.09796" lon="13.51039"><ele>918.0</ele><time>2026-05-02T14:45:01.859Z</time></trkpt><trkpt lat="42.0978883" lon="13.5102333"><ele>912.0</ele><time>2026-05-02T14:45:02.859Z</time></trkpt><trkpt lat="42.09782" lon="13.510085"><ele>912.0</ele><time>2026-05-02T14:45:03.859Z</time></trkpt><trkpt lat="42.0977583" lon="13.5099433"><ele>912.0</ele><time>2026-05-02T14:45:04.859Z</time></trkpt><trkpt lat="42.0977033" lon="13.5098233"><ele>912.0</ele><time>2026-05-02T14:45:05.859Z</time></trkpt><trkpt lat="42.0976633" lon="13.5097"><ele>912.0</ele><time>2026-05-02T14:45:06.859Z</time></trkpt><trkpt lat="42.0976433" lon="13.5095767"><ele>912.0</ele><time>2026-05-02T14:45:07.859Z</time></trkpt><trkpt lat="42.0976233" lon="13.5094717"><ele>912.0</ele><time>2026-05-02T14:45:08.859Z</time></trkpt><trkpt lat="42.097615" lon="13.5093817"><ele>912.0</ele><time>2026-05-02T14:45:09.859Z</time></trkpt><trkpt lat="42.0976317" lon="13.5092967"><ele>912.0</ele><time>2026-05-02T14:45:10.859Z</time></trkpt><trkpt lat="42.0976567" lon="13.50919"><ele>912.0</ele><time>2026-05-02T14:45:11.86Z</time></trkpt><trkpt lat="42.0976933" lon="13.5090617"><ele>912.0</ele><time>2026-05-02T14:45:12.859Z</time></trkpt><trkpt lat="42.0977317" lon="13.508925"><ele>912.0</ele><time>2026-05-02T14:45:13.859Z</time></trkpt><trkpt lat="42.0977633" lon="13.50877"><ele>912.0</ele><time>2026-05-02T14:45:14.86Z</time></trkpt><trkpt lat="42.097785" lon="13.5086033"><ele>912.0</ele><time>2026-05-02T14:45:15.859Z</time></trkpt><trkpt lat="42.0978017" lon="13.508415"><ele>912.0</ele><time>2026-05-02T14:45:16.859Z</time></trkpt><trkpt lat="42.0978117" lon="13.5082383"><ele>912.0</ele><time>2026-05-02T14:45:17.859Z</time></trkpt><trkpt lat="42.0978317" lon="13.5080517"><ele>912.25</ele><time>2026-05-02T14:45:18.86Z</time></trkpt><trkpt lat="42.0978533" lon="13.507865"><ele>912.5</ele><time>2026-05-02T14:45:19.859Z</time></trkpt><trkpt lat="42.0978733" lon="13.5077"><ele>912.75</ele><time>2026-05-02T14:45:20.86Z</time></trkpt><trkpt lat="42.0979067" lon="13.50756"><ele>913.0</ele><time>2026-05-02T14:45:21.86Z</time></trkpt><trkpt lat="42.0979517" lon="13.5074283"><ele>913.0</ele><time>2026-05-02T14:45:22.859Z</time></trkpt><trkpt lat="42.098" lon="13.5073183"><ele>913.0</ele><time>2026-05-02T14:45:23.86Z</time></trkpt><trkpt lat="42.098055" lon="13.50723"><ele>913.0</ele><time>2026-05-02T14:45:24.86Z</time></trkpt><trkpt lat="42.0981267" lon="13.5071467"><ele>913.0</ele><time>2026-05-02T14:45:25.86Z</time></trkpt><trkpt lat="42.0982083" lon="13.5070483"><ele>913.0</ele><time>2026-05-02T14:45:26.859Z</time></trkpt><trkpt lat="42.0983033" lon="13.5069517"><ele>913.4</ele><time>2026-05-02T14:45:27.859Z</time></trkpt><trkpt lat="42.09838" lon="13.5068567"><ele>913.8</ele><time>2026-05-02T14:45:28.859Z</time></trkpt><trkpt lat="42.0984467" lon="13.506765"><ele>914.2</ele><time>2026-05-02T14:45:29.859Z</time></trkpt><trkpt lat="42.0985017" lon="13.5066583"><ele>914.6</ele><time>2026-05-02T14:45:30.859Z</time></trkpt><trkpt lat="42.0985467" lon="13.5065533"><ele>915.0</ele><time>2026-05-02T14:45:31.859Z</time></trkpt><trkpt lat="42.09858" lon="13.5064317"><ele>915.0</ele><time>2026-05-02T14:45:32.859Z</time></trkpt><trkpt lat="42.0986183" lon="13.5062833"><ele>915.0</ele><time>2026-05-02T14:45:33.859Z</time></trkpt><trkpt lat="42.0986583" lon="13.5061283"><ele>915.0</ele><time>2026-05-02T14:45:34.859Z</time></trkpt><trkpt lat="42.098715" lon="13.5059683"><ele>915.0</ele><time>2026-05-02T14:45:35.86Z</time></trkpt><trkpt lat="42.0987617" lon="13.5058033"><ele>915.0</ele><time>2026-05-02T14:45:36.859Z</time></trkpt><trkpt lat="42.0988067" lon="13.505655"><ele>915.0</ele><time>2026-05-02T14:45:37.859Z</time></trkpt><trkpt lat="42.0988483" lon="13.505525"><ele>915.0</ele><time>2026-05-02T14:45:38.86Z</time></trkpt><trkpt lat="42.0988883" lon="13.5054167"><ele>915.0</ele><time>2026-05-02T14:45:39.86Z</time></trkpt><trkpt lat="42.098935" lon="13.5053183"><ele>915.0</ele><time>2026-05-02T14:45:40.86Z</time></trkpt><trkpt lat="42.0990033" lon="13.5052167"><ele>917.75</ele><time>2026-05-02T14:45:41.86Z</time></trkpt><trkpt lat="42.09909" lon="13.5051"><ele>920.5</ele><time>2026-05-02T14:45:42.86Z</time></trkpt><trkpt lat="42.099185" lon="13.504995"><ele>923.25</ele><time>2026-05-02T14:45:43.859Z</time></trkpt><trkpt lat="42.0992683" lon="13.5049"><ele>926.0</ele><time>2026-05-02T14:45:44.86Z</time></trkpt><trkpt lat="42.0993517" lon="13.5047817"><ele>926.0</ele><time>2026-05-02T14:45:45.859Z</time></trkpt><trkpt lat="42.0994283" lon="13.5046617"><ele>926.0</ele><time>2026-05-02T14:45:46.86Z</time></trkpt><trkpt lat="42.0994967" lon="13.5045267"><ele>926.0</ele><time>2026-05-02T14:45:47.86Z</time></trkpt><trkpt lat="42.09957" lon="13.504385"><ele>926.0</ele><time>2026-05-02T14:45:48.859Z</time></trkpt><trkpt lat="42.09964" lon="13.5042367"><ele>927.25</ele><time>2026-05-02T14:45:49.859Z</time></trkpt><trkpt lat="42.0997167" lon="13.504075"><ele>928.5</ele><time>2026-05-02T14:45:50.859Z</time></trkpt><trkpt lat="42.0997867" lon="13.5039217"><ele>929.75</ele><time>2026-05-02T14:45:51.86Z</time></trkpt><trkpt lat="42.0998567" lon="13.5037583"><ele>931.0</ele><time>2026-05-02T14:45:52.859Z</time></trkpt><trkpt lat="42.0999267" lon="13.5035733"><ele>931.6666666666666</ele><time>2026-05-02T14:45:53.859Z</time></trkpt><trkpt lat="42.100005" lon="13.5033917"><ele>932.3333333333333</ele><time>2026-05-02T14:45:54.859Z</time></trkpt><trkpt lat="42.1000817" lon="13.5032083"><ele>933.0</ele><time>2026-05-02T14:45:55.859Z</time></trkpt><trkpt lat="42.1001783" lon="13.503015"><ele>936.3333333333333</ele><time>2026-05-02T14:45:56.86Z</time></trkpt><trkpt lat="42.1002867" lon="13.502815"><ele>939.6666666666666</ele><time>2026-05-02T14:45:57.859Z</time></trkpt><trkpt lat="42.1003933" lon="13.5026183"><ele>943.0</ele><time>2026-05-02T14:45:58.859Z</time></trkpt><trkpt lat="42.1005033" lon="13.5024333"><ele>943.0</ele><time>2026-05-02T14:45:59.859Z</time></trkpt><trkpt lat="42.100615" lon="13.502255"><ele>943.0</ele><time>2026-05-02T14:46:00.859Z</time></trkpt><trkpt lat="42.1007283" lon="13.5020917"><ele>943.0</ele><time>2026-05-02T14:46:01.86Z</time></trkpt><trkpt lat="42.1008433" lon="13.50195"><ele>944.25</ele><time>2026-05-02T14:46:02.859Z</time></trkpt><trkpt lat="42.1009467" lon="13.5018333"><ele>945.5</ele><time>2026-05-02T14:46:03.86Z</time></trkpt><trkpt lat="42.1010417" lon="13.50174"><ele>946.75</ele><time>2026-05-02T14:46:04.86Z</time></trkpt><trkpt lat="42.10112" lon="13.5016517"><ele>948.0</ele><time>2026-05-02T14:46:05.86Z</time></trkpt><trkpt lat="42.1011873" lon="13.501556"><ele>948.0</ele><time>2026-05-02T14:46:06.86Z</time></trkpt><trkpt lat="42.1012457" lon="13.5014549"><ele>948.0</ele><time>2026-05-02T14:46:07.86Z</time></trkpt><trkpt lat="42.1013035" lon="13.5013538"><ele>948.0</ele><time>2026-05-02T14:46:08.86Z</time></trkpt><trkpt lat="42.1013664" lon="13.5012761"><ele>948.0</ele><time>2026-05-02T14:46:09.859Z</time></trkpt><trkpt lat="42.1014232" lon="13.5012115"><ele>948.0</ele><time>2026-05-02T14:46:10.859Z</time></trkpt><trkpt lat="42.1014928" lon="13.5011172"><ele>948.0</ele><time>2026-05-02T14:46:12.859Z</time></trkpt><trkpt lat="42.1015489" lon="13.5012008"><ele>949.25</ele><time>2026-05-02T14:46:31.859Z</time></trkpt><trkpt lat="42.1015962" lon="13.5013661"><ele>950.5</ele><time>2026-05-02T14:46:33.859Z</time></trkpt><trkpt lat="42.1016224" lon="13.5014918"><ele>951.75</ele><time>2026-05-02T14:46:34.859Z</time></trkpt><trkpt lat="42.1016454" lon="13.5016324"><ele>953.0</ele><time>2026-05-02T14:46:35.86Z</time></trkpt><trkpt lat="42.1016877" lon="13.5017997"><ele>953.0</ele><time>2026-05-02T14:46:36.86Z</time></trkpt><trkpt lat="42.1017345" lon="13.5019754"><ele>953.0</ele><time>2026-05-02T14:46:37.86Z</time></trkpt><trkpt lat="42.1017811" lon="13.5021401"><ele>953.0</ele><time>2026-05-02T14:46:38.859Z</time></trkpt><trkpt lat="42.1018259" lon="13.5022917"><ele>953.0</ele><time>2026-05-02T14:46:39.859Z</time></trkpt><trkpt lat="42.1018674" lon="13.5024261"><ele>951.4</ele><time>2026-05-02T14:46:40.859Z</time></trkpt><trkpt lat="42.1019063" lon="13.5025605"><ele>949.8</ele><time>2026-05-02T14:46:41.86Z</time></trkpt><trkpt lat="42.1019613" lon="13.502696"><ele>948.2</ele><time>2026-05-02T14:46:42.859Z</time></trkpt><trkpt lat="42.1020243" lon="13.5028184"><ele>946.6</ele><time>2026-05-02T14:46:43.859Z</time></trkpt><trkpt lat="42.1020869" lon="13.5029253"><ele>945.0</ele><time>2026-05-02T14:46:44.859Z</time></trkpt><trkpt lat="42.1021382" lon="13.5030157"><ele>944.1666666666666</ele><time>2026-05-02T14:46:45.859Z</time></trkpt><trkpt lat="42.102176" lon="13.5030971"><ele>943.3333333333333</ele><time>2026-05-02T14:46:46.86Z</time></trkpt><trkpt lat="42.1021924" lon="13.5031807"><ele>942.5</ele><time>2026-05-02T14:46:47.859Z</time></trkpt><trkpt lat="42.1021617" lon="13.5033556"><ele>941.6666666666666</ele><time>2026-05-02T14:46:49.859Z</time></trkpt><trkpt lat="42.1021256" lon="13.5034436"><ele>940.8333333333333</ele><time>2026-05-02T14:46:50.859Z</time></trkpt><trkpt lat="42.1020783" lon="13.5035267"><ele>940.0</ele><time>2026-05-02T14:46:51.859Z</time></trkpt><trkpt lat="42.1020467" lon="13.5036067"><ele>939.9999999999999</ele><time>2026-05-02T14:46:52.859Z</time></trkpt><trkpt lat="42.1020233" lon="13.5036883"><ele>940.0</ele><time>2026-05-02T14:46:53.859Z</time></trkpt><trkpt lat="42.10197" lon="13.503835"><ele>940.0</ele><time>2026-05-02T14:46:55.859Z</time></trkpt><trkpt lat="42.1019317" lon="13.5039183"><ele>940.0</ele><time>2026-05-02T14:46:56.86Z</time></trkpt><trkpt lat="42.1018883" lon="13.5040183"><ele>939.9999999999999</ele><time>2026-05-02T14:46:57.86Z</time></trkpt><trkpt lat="42.1018383" lon="13.5041333"><ele>940.0</ele><time>2026-05-02T14:46:58.86Z</time></trkpt><trkpt lat="42.1017817" lon="13.5042617"><ele>938.75</ele><time>2026-05-02T14:46:59.859Z</time></trkpt><trkpt lat="42.10172" lon="13.5044"><ele>937.5</ele><time>2026-05-02T14:47:00.859Z</time></trkpt><trkpt lat="42.10165" lon="13.504565"><ele>936.25</ele><time>2026-05-02T14:47:01.86Z</time></trkpt><trkpt lat="42.10158" lon="13.504725"><ele>935.0</ele><time>2026-05-02T14:47:02.86Z</time></trkpt><trkpt lat="42.1015067" lon="13.504885"><ele>933.6666666666667</ele><time>2026-05-02T14:47:03.859Z</time></trkpt><trkpt lat="42.101435" lon="13.5050583"><ele>932.3333333333333</ele><time>2026-05-02T14:47:04.86Z</time></trkpt><trkpt lat="42.10138" lon="13.505255"><ele>931.0</ele><time>2026-05-02T14:47:05.859Z</time></trkpt><trkpt lat="42.1013467" lon="13.50546"><ele>930.3333333333333</ele><time>2026-05-02T14:47:06.86Z</time></trkpt><trkpt lat="42.1013183" lon="13.5056617"><ele>929.6666666666667</ele><time>2026-05-02T14:47:07.86Z</time></trkpt><trkpt lat="42.1012767" lon="13.5058633"><ele>929.0</ele><time>2026-05-02T14:47:08.86Z</time></trkpt><trkpt lat="42.1012417" lon="13.5060583"><ele>929.6666666666667</ele><time>2026-05-02T14:47:09.86Z</time></trkpt><trkpt lat="42.1012033" lon="13.506265"><ele>930.3333333333333</ele><time>2026-05-02T14:47:10.859Z</time></trkpt><trkpt lat="42.1011783" lon="13.506475"><ele>931.0</ele><time>2026-05-02T14:47:11.859Z</time></trkpt><trkpt lat="42.1011633" lon="13.5066933"><ele>931.0</ele><time>2026-05-02T14:47:12.859Z</time></trkpt><trkpt lat="42.1011483" lon="13.5068867"><ele>931.0</ele><time>2026-05-02T14:47:13.859Z</time></trkpt><trkpt lat="42.1011383" lon="13.507075"><ele>931.0</ele><time>2026-05-02T14:47:14.859Z</time></trkpt><trkpt lat="42.1011483" lon="13.5072467"><ele>931.0</ele><time>2026-05-02T14:47:15.859Z</time></trkpt><trkpt lat="42.101175" lon="13.507425"><ele>933.0</ele><time>2026-05-02T14:47:16.86Z</time></trkpt><trkpt lat="42.1011867" lon="13.50759"><ele>935.0</ele><time>2026-05-02T14:47:17.86Z</time></trkpt><trkpt lat="42.10118" lon="13.50775"><ele>937.0</ele><time>2026-05-02T14:47:18.859Z</time></trkpt><trkpt lat="42.101155" lon="13.5079183"><ele>939.0</ele><time>2026-05-02T14:47:19.859Z</time></trkpt><trkpt lat="42.1011217" lon="13.5080883"><ele>940.75</ele><time>2026-05-02T14:47:20.859Z</time></trkpt><trkpt lat="42.101095" lon="13.5082683"><ele>942.5</ele><time>2026-05-02T14:47:21.859Z</time></trkpt><trkpt lat="42.10107" lon="13.508445"><ele>944.25</ele><time>2026-05-02T14:47:22.859Z</time></trkpt><trkpt lat="42.1010483" lon="13.50861"><ele>946.0</ele><time>2026-05-02T14:47:23.859Z</time></trkpt><trkpt lat="42.1010317" lon="13.508765"><ele>948.0</ele><time>2026-05-02T14:47:24.859Z</time></trkpt><trkpt lat="42.1010067" lon="13.50891"><ele>949.9999999999999</ele><time>2026-05-02T14:47:25.859Z</time></trkpt><trkpt lat="42.10097" lon="13.5090633"><ele>951.9999999999999</ele><time>2026-05-02T14:47:26.86Z</time></trkpt><trkpt lat="42.1009283" lon="13.5092"><ele>954.0</ele><time>2026-05-02T14:47:27.859Z</time></trkpt><trkpt lat="42.10088" lon="13.5093317"><ele>956.0</ele><time>2026-05-02T14:47:28.859Z</time></trkpt><trkpt lat="42.1008333" lon="13.509435"><ele>956.0000000000001</ele><time>2026-05-02T14:47:29.859Z</time></trkpt><trkpt lat="42.1007967" lon="13.5095083"><ele>956.0</ele><time>2026-05-02T14:47:30.859Z</time></trkpt><trkpt lat="42.10076" lon="13.5096117"><ele>956.0</ele><time>2026-05-02T14:47:32.859Z</time></trkpt><trkpt lat="42.100835" lon="13.509565"><ele>956.0</ele><time>2026-05-02T14:47:36.86Z</time></trkpt><trkpt lat="42.1008817" lon="13.5094633"><ele>956.0000000000001</ele><time>2026-05-02T14:47:37.86Z</time></trkpt><trkpt lat="42.1009333" lon="13.5093333"><ele>956.0</ele><time>2026-05-02T14:47:38.859Z</time></trkpt><trkpt lat="42.10101" lon="13.50919"><ele>956.0</ele><time>2026-05-02T14:47:39.859Z</time></trkpt><trkpt lat="42.1011033" lon="13.5090433"><ele>956.0</ele><time>2026-05-02T14:47:40.86Z</time></trkpt><trkpt lat="42.1012167" lon="13.50891"><ele>956.0</ele><time>2026-05-02T14:47:41.859Z</time></trkpt><trkpt lat="42.1013283" lon="13.5087633"><ele>955.0</ele><time>2026-05-02T14:47:42.859Z</time></trkpt><trkpt lat="42.1014483" lon="13.5086117"><ele>954.0</ele><time>2026-05-02T14:47:43.859Z</time></trkpt><trkpt lat="42.101575" lon="13.5084533"><ele>953.0</ele><time>2026-05-02T14:47:44.859Z</time></trkpt><trkpt lat="42.1017017" lon="13.5082883"><ele>953.0</ele><time>2026-05-02T14:47:45.86Z</time></trkpt><trkpt lat="42.1018383" lon="13.508125"><ele>953.0</ele><time>2026-05-02T14:47:46.859Z</time></trkpt><trkpt lat="42.10197" lon="13.507955"><ele>953.0</ele><time>2026-05-02T14:47:47.86Z</time></trkpt><trkpt lat="42.102095" lon="13.50779"><ele>951.0</ele><time>2026-05-02T14:47:48.859Z</time></trkpt><trkpt lat="42.10221" lon="13.50762"><ele>949.0</ele><time>2026-05-02T14:47:49.86Z</time></trkpt><trkpt lat="42.10231" lon="13.5074367"><ele>947.0</ele><time>2026-05-02T14:47:50.86Z</time></trkpt><trkpt lat="42.1023983" lon="13.507235"><ele>951.0</ele><time>2026-05-02T14:47:51.859Z</time></trkpt><trkpt lat="42.1024867" lon="13.5070383"><ele>955.0</ele><time>2026-05-02T14:47:52.86Z</time></trkpt><trkpt lat="42.1025667" lon="13.5068317"><ele>959.0</ele><time>2026-05-02T14:47:53.86Z</time></trkpt><trkpt lat="42.10264" lon="13.5066233"><ele>959.0</ele><time>2026-05-02T14:47:54.859Z</time></trkpt><trkpt lat="42.1027067" lon="13.5064117"><ele>959.0</ele><time>2026-05-02T14:47:55.86Z</time></trkpt><trkpt lat="42.1027667" lon="13.5061967"><ele>959.0</ele><time>2026-05-02T14:47:56.86Z</time></trkpt><trkpt lat="42.1028267" lon="13.50598"><ele>956.3333333333334</ele><time>2026-05-02T14:47:57.86Z</time></trkpt><trkpt lat="42.1028867" lon="13.5057717"><ele>953.6666666666667</ele><time>2026-05-02T14:47:58.86Z</time></trkpt><trkpt lat="42.10294" lon="13.5055717"><ele>951.0</ele><time>2026-05-02T14:47:59.86Z</time></trkpt><trkpt lat="42.103" lon="13.5053733"><ele>949.3333333333333</ele><time>2026-05-02T14:48:00.86Z</time></trkpt><trkpt lat="42.1030733" lon="13.5051967"><ele>947.6666666666666</ele><time>2026-05-02T14:48:01.859Z</time></trkpt><trkpt lat="42.1031683" lon="13.5050433"><ele>946.0</ele><time>2026-05-02T14:48:02.86Z</time></trkpt><trkpt lat="42.103295" lon="13.5049167"><ele>953.0</ele><time>2026-05-02T14:48:03.859Z</time></trkpt><trkpt lat="42.1034383" lon="13.5048083"><ele>960.0</ele><time>2026-05-02T14:48:04.859Z</time></trkpt><trkpt lat="42.10359" lon="13.50471"><ele>967.0</ele><time>2026-05-02T14:48:05.859Z</time></trkpt><trkpt lat="42.103745" lon="13.50461"><ele>968.3333333333333</ele><time>2026-05-02T14:48:06.86Z</time></trkpt><trkpt lat="42.1038967" lon="13.504505"><ele>969.6666666666667</ele><time>2026-05-02T14:48:07.86Z</time></trkpt><trkpt lat="42.1040417" lon="13.5043767"><ele>971.0</ele><time>2026-05-02T14:48:08.859Z</time></trkpt><trkpt lat="42.1041667" lon="13.504225"><ele>971.0</ele><time>2026-05-02T14:48:09.859Z</time></trkpt><trkpt lat="42.1042833" lon="13.5040633"><ele>971.0</ele><time>2026-05-02T14:48:10.86Z</time></trkpt><trkpt lat="42.1043867" lon="13.5038917"><ele>971.0</ele><time>2026-05-02T14:48:11.86Z</time></trkpt><trkpt lat="42.1044883" lon="13.5037083"><ele>970.0</ele><time>2026-05-02T14:48:12.86Z</time></trkpt><trkpt lat="42.1045833" lon="13.50351"><ele>969.0</ele><time>2026-05-02T14:48:13.859Z</time></trkpt><trkpt lat="42.1046667" lon="13.5033117"><ele>968.0</ele><time>2026-05-02T14:48:14.86Z</time></trkpt><trkpt lat="42.1047467" lon="13.5031133"><ele>968.3333333333334</ele><time>2026-05-02T14:48:15.859Z</time></trkpt><trkpt lat="42.10482" lon="13.5029117"><ele>968.6666666666667</ele><time>2026-05-02T14:48:16.86Z</time></trkpt><trkpt lat="42.10489" lon="13.5027117"><ele>969.0</ele><time>2026-05-02T14:48:17.86Z</time></trkpt><trkpt lat="42.10496" lon="13.5024967"><ele>974.3333333333333</ele><time>2026-05-02T14:48:18.859Z</time></trkpt><trkpt lat="42.1050217" lon="13.5022717"><ele>979.6666666666666</ele><time>2026-05-02T14:48:19.86Z</time></trkpt><trkpt lat="42.1050833" lon="13.50203"><ele>985.0</ele><time>2026-05-02T14:48:20.859Z</time></trkpt><trkpt lat="42.105145" lon="13.5017883"><ele>985.0</ele><time>2026-05-02T14:48:21.859Z</time></trkpt><trkpt lat="42.105205" lon="13.5015533"><ele>985.0</ele><time>2026-05-02T14:48:22.86Z</time></trkpt><trkpt lat="42.105265" lon="13.501305"><ele>985.0</ele><time>2026-05-02T14:48:23.86Z</time></trkpt><trkpt lat="42.1053167" lon="13.5010583"><ele>984.6666666666666</ele><time>2026-05-02T14:48:24.859Z</time></trkpt><trkpt lat="42.105355" lon="13.5008167"><ele>984.3333333333333</ele><time>2026-05-02T14:48:25.86Z</time></trkpt><trkpt lat="42.1053783" lon="13.5005867"><ele>984.0</ele><time>2026-05-02T14:48:26.859Z</time></trkpt><trkpt lat="42.1053967" lon="13.5003733"><ele>986.6666666666667</ele><time>2026-05-02T14:48:27.859Z</time></trkpt><trkpt lat="42.1054083" lon="13.500155"><ele>989.3333333333334</ele><time>2026-05-02T14:48:28.859Z</time></trkpt><trkpt lat="42.105385" lon="13.4999583"><ele>992.0</ele><time>2026-05-02T14:48:29.86Z</time></trkpt><trkpt lat="42.105325" lon="13.49977"><ele>992.0</ele><time>2026-05-02T14:48:30.86Z</time></trkpt><trkpt lat="42.1052283" lon="13.4995967"><ele>992.0</ele><time>2026-05-02T14:48:31.859Z</time></trkpt><trkpt lat="42.1051167" lon="13.49945"><ele>992.0</ele><time>2026-05-02T14:48:32.859Z</time></trkpt><trkpt lat="42.1049933" lon="13.4993083"><ele>992.0</ele><time>2026-05-02T14:48:33.859Z</time></trkpt><trkpt lat="42.10487" lon="13.4991633"><ele>992.0</ele><time>2026-05-02T14:48:34.86Z</time></trkpt><trkpt lat="42.1047533" lon="13.4990217"><ele>992.0</ele><time>2026-05-02T14:48:35.86Z</time></trkpt><trkpt lat="42.10465" lon="13.4988583"><ele>993.5</ele><time>2026-05-02T14:48:36.86Z</time></trkpt><trkpt lat="42.1045733" lon="13.498665"><ele>995.0</ele><time>2026-05-02T14:48:37.86Z</time></trkpt><trkpt lat="42.1045333" lon="13.4984767"><ele>996.5</ele><time>2026-05-02T14:48:38.859Z</time></trkpt><trkpt lat="42.1045167" lon="13.4982883"><ele>998.0</ele><time>2026-05-02T14:48:39.86Z</time></trkpt><trkpt lat="42.1045383" lon="13.4981067"><ele>998.0</ele><time>2026-05-02T14:48:40.86Z</time></trkpt><trkpt lat="42.1045867" lon="13.4979267"><ele>998.0</ele><time>2026-05-02T14:48:41.859Z</time></trkpt><trkpt lat="42.1046767" lon="13.497775"><ele>998.0</ele><time>2026-05-02T14:48:42.859Z</time></trkpt><trkpt lat="42.1047967" lon="13.497635"><ele>998.0</ele><time>2026-05-02T14:48:43.859Z</time></trkpt><trkpt lat="42.1049333" lon="13.49751"><ele>1001.0</ele><time>2026-05-02T14:48:44.859Z</time></trkpt><trkpt lat="42.1050783" lon="13.497395"><ele>1004.0</ele><time>2026-05-02T14:48:45.859Z</time></trkpt><trkpt lat="42.1052283" lon="13.4972733"><ele>1007.0</ele><time>2026-05-02T14:48:46.859Z</time></trkpt><trkpt lat="42.1053783" lon="13.4971533"><ele>1008.0</ele><time>2026-05-02T14:48:47.86Z</time></trkpt><trkpt lat="42.105525" lon="13.4970333"><ele>1009.0</ele><time>2026-05-02T14:48:48.859Z</time></trkpt><trkpt lat="42.1056783" lon="13.4969017"><ele>1010.0</ele><time>2026-05-02T14:48:49.859Z</time></trkpt><trkpt lat="42.1058333" lon="13.4967783"><ele>1010.0</ele><time>2026-05-02T14:48:50.86Z</time></trkpt><trkpt lat="42.105985" lon="13.49666"><ele>1010.0</ele><time>2026-05-02T14:48:51.859Z</time></trkpt><trkpt lat="42.106135" lon="13.49653"><ele>1010.0</ele><time>2026-05-02T14:48:52.859Z</time></trkpt><trkpt lat="42.1062733" lon="13.4963817"><ele>1009.0</ele><time>2026-05-02T14:48:53.859Z</time></trkpt><trkpt lat="42.106405" lon="13.4962067"><ele>1008.0</ele><time>2026-05-02T14:48:54.859Z</time></trkpt><trkpt lat="42.1065167" lon="13.4960267"><ele>1007.0</ele><time>2026-05-02T14:48:55.859Z</time></trkpt><trkpt lat="42.1066017" lon="13.4958217"><ele>1010.6666666666667</ele><time>2026-05-02T14:48:56.86Z</time></trkpt><trkpt lat="42.106655" lon="13.4955933"><ele>1014.3333333333333</ele><time>2026-05-02T14:48:57.859Z</time></trkpt><trkpt lat="42.1066983" lon="13.49536"><ele>1018.0</ele><time>2026-05-02T14:48:58.86Z</time></trkpt><trkpt lat="42.1067367" lon="13.49512"><ele>1018.0</ele><time>2026-05-02T14:48:59.859Z</time></trkpt><trkpt lat="42.1067817" lon="13.4948783"><ele>1018.0</ele><time>2026-05-02T14:49:00.86Z</time></trkpt><trkpt lat="42.1068333" lon="13.494645"><ele>1018.0</ele><time>2026-05-02T14:49:01.86Z</time></trkpt><trkpt lat="42.1069017" lon="13.49442"><ele>1017.3333333333333</ele><time>2026-05-02T14:49:02.86Z</time></trkpt><trkpt lat="42.1069967" lon="13.4942067"><ele>1016.6666666666667</ele><time>2026-05-02T14:49:03.86Z</time></trkpt><trkpt lat="42.107125" lon="13.494025"><ele>1016.0</ele><time>2026-05-02T14:49:04.859Z</time></trkpt><trkpt lat="42.1072517" lon="13.4938433"><ele>1015.0</ele><time>2026-05-02T14:49:05.86Z</time></trkpt><trkpt lat="42.1073733" lon="13.4936733"><ele>1014.0</ele><time>2026-05-02T14:49:06.859Z</time></trkpt><trkpt lat="42.1074833" lon="13.4935183"><ele>1013.0</ele><time>2026-05-02T14:49:07.859Z</time></trkpt><trkpt lat="42.107585" lon="13.4933683"><ele>1018.6666666666667</ele><time>2026-05-02T14:49:08.859Z</time></trkpt><trkpt lat="42.1076633" lon="13.4931983"><ele>1024.3333333333333</ele><time>2026-05-02T14:49:09.859Z</time></trkpt><trkpt lat="42.107685" lon="13.49301"><ele>1030.0</ele><time>2026-05-02T14:49:10.859Z</time></trkpt><trkpt lat="42.107665" lon="13.4927933"><ele>1032.0</ele><time>2026-05-02T14:49:11.859Z</time></trkpt><trkpt lat="42.10762" lon="13.4925683"><ele>1034.0</ele><time>2026-05-02T14:49:12.86Z</time></trkpt><trkpt lat="42.1075667" lon="13.4923417"><ele>1036.0</ele><time>2026-05-02T14:49:13.86Z</time></trkpt><trkpt lat="42.1075117" lon="13.4921067"><ele>1039.3333333333333</ele><time>2026-05-02T14:49:14.859Z</time></trkpt><trkpt lat="42.1074467" lon="13.49188"><ele>1042.6666666666667</ele><time>2026-05-02T14:49:15.859Z</time></trkpt><trkpt lat="42.10736" lon="13.49168"><ele>1046.0</ele><time>2026-05-02T14:49:16.859Z</time></trkpt><trkpt lat="42.1072567" lon="13.4914983"><ele>1040.3333333333335</ele><time>2026-05-02T14:49:17.859Z</time></trkpt><trkpt lat="42.1071533" lon="13.4913267"><ele>1034.6666666666667</ele><time>2026-05-02T14:49:18.859Z</time></trkpt><trkpt lat="42.1070833" lon="13.4911517"><ele>1029.0</ele><time>2026-05-02T14:49:19.859Z</time></trkpt><trkpt lat="42.1070567" lon="13.490965"><ele>1029.0</ele><time>2026-05-02T14:49:20.859Z</time></trkpt><trkpt lat="42.107065" lon="13.490765"><ele>1029.0</ele><time>2026-05-02T14:49:21.859Z</time></trkpt><trkpt lat="42.1071" lon="13.49054"><ele>1029.0</ele><time>2026-05-02T14:49:22.859Z</time></trkpt><trkpt lat="42.1071433" lon="13.490325"><ele>1030.3333333333333</ele><time>2026-05-02T14:49:23.859Z</time></trkpt><trkpt lat="42.1071983" lon="13.4901083"><ele>1031.6666666666665</ele><time>2026-05-02T14:49:24.859Z</time></trkpt><trkpt lat="42.107235" lon="13.489885"><ele>1033.0</ele><time>2026-05-02T14:49:25.859Z</time></trkpt><trkpt lat="42.10728" lon="13.48966"><ele>1035.0</ele><time>2026-05-02T14:49:26.859Z</time></trkpt><trkpt lat="42.1073167" lon="13.4894533"><ele>1037.0</ele><time>2026-05-02T14:49:27.859Z</time></trkpt><trkpt lat="42.10736" lon="13.4892617"><ele>1039.0</ele><time>2026-05-02T14:49:28.859Z</time></trkpt><trkpt lat="42.107415" lon="13.4890783"><ele>1041.6666666666665</ele><time>2026-05-02T14:49:29.859Z</time></trkpt><trkpt lat="42.1074883" lon="13.4888867"><ele>1044.3333333333333</ele><time>2026-05-02T14:49:30.859Z</time></trkpt><trkpt lat="42.107585" lon="13.4887383"><ele>1047.0</ele><time>2026-05-02T14:49:31.86Z</time></trkpt><trkpt lat="42.1076983" lon="13.488615"><ele>1047.0</ele><time>2026-05-02T14:49:32.859Z</time></trkpt><trkpt lat="42.1078317" lon="13.488515"><ele>1047.0</ele><time>2026-05-02T14:49:33.859Z</time></trkpt><trkpt lat="42.10798" lon="13.4884467"><ele>1047.0</ele><time>2026-05-02T14:49:34.86Z</time></trkpt><trkpt lat="42.1081383" lon="13.48839"><ele>1052.6666666666667</ele><time>2026-05-02T14:49:35.859Z</time></trkpt><trkpt lat="42.1082983" lon="13.48833"><ele>1058.3333333333335</ele><time>2026-05-02T14:49:36.86Z</time></trkpt><trkpt lat="42.1084533" lon="13.488255"><ele>1064.0</ele><time>2026-05-02T14:49:37.86Z</time></trkpt><trkpt lat="42.108595" lon="13.488145"><ele>1064.0</ele><time>2026-05-02T14:49:38.86Z</time></trkpt><trkpt lat="42.10872" lon="13.4880067"><ele>1064.0</ele><time>2026-05-02T14:49:39.859Z</time></trkpt><trkpt lat="42.1088333" lon="13.487855"><ele>1064.0</ele><time>2026-05-02T14:49:40.86Z</time></trkpt><trkpt lat="42.1089333" lon="13.4876933"><ele>1061.6666666666667</ele><time>2026-05-02T14:49:41.86Z</time></trkpt><trkpt lat="42.1090283" lon="13.4875233"><ele>1059.3333333333333</ele><time>2026-05-02T14:49:42.86Z</time></trkpt><trkpt lat="42.1091167" lon="13.4873483"><ele>1057.0</ele><time>2026-05-02T14:49:43.859Z</time></trkpt><trkpt lat="42.1092" lon="13.4871733"><ele>1061.0</ele><time>2026-05-02T14:49:44.86Z</time></trkpt><trkpt lat="42.1092833" lon="13.4869983"><ele>1065.0</ele><time>2026-05-02T14:49:45.859Z</time></trkpt><trkpt lat="42.1093717" lon="13.486815"><ele>1069.0</ele><time>2026-05-02T14:49:46.86Z</time></trkpt><trkpt lat="42.1094617" lon="13.486635"><ele>1069.0</ele><time>2026-05-02T14:49:47.86Z</time></trkpt><trkpt lat="42.10955" lon="13.4864567"><ele>1069.0</ele><time>2026-05-02T14:49:48.859Z</time></trkpt><trkpt lat="42.1096367" lon="13.4862883"><ele>1069.0</ele><time>2026-05-02T14:49:49.86Z</time></trkpt><trkpt lat="42.10972" lon="13.4861083"><ele>1067.3333333333333</ele><time>2026-05-02T14:49:50.859Z</time></trkpt><trkpt lat="42.1098" lon="13.48593"><ele>1065.6666666666667</ele><time>2026-05-02T14:49:51.86Z</time></trkpt><trkpt lat="42.1098783" lon="13.4857567"><ele>1064.0</ele><time>2026-05-02T14:49:52.86Z</time></trkpt><trkpt lat="42.109955" lon="13.4855717"><ele>1070.3333333333335</ele><time>2026-05-02T14:49:53.859Z</time></trkpt><trkpt lat="42.1099983" lon="13.4853717"><ele>1076.6666666666667</ele><time>2026-05-02T14:49:54.86Z</time></trkpt><trkpt lat="42.110005" lon="13.4851417"><ele>1083.0</ele><time>2026-05-02T14:49:55.859Z</time></trkpt><trkpt lat="42.109995" lon="13.4849183"><ele>1083.0</ele><time>2026-05-02T14:49:56.86Z</time></trkpt><trkpt lat="42.1099717" lon="13.4847"><ele>1083.0</ele><time>2026-05-02T14:49:57.859Z</time></trkpt><trkpt lat="42.1099433" lon="13.484485"><ele>1083.0</ele><time>2026-05-02T14:49:58.859Z</time></trkpt><trkpt lat="42.109925" lon="13.48427"><ele>1084.6666666666667</ele><time>2026-05-02T14:49:59.859Z</time></trkpt><trkpt lat="42.1099233" lon="13.484055"><ele>1086.3333333333335</ele><time>2026-05-02T14:50:00.859Z</time></trkpt><trkpt lat="42.1099467" lon="13.4838417"><ele>1088.0</ele><time>2026-05-02T14:50:01.86Z</time></trkpt><trkpt lat="42.1099833" lon="13.4836283"><ele>1088.0</ele><time>2026-05-02T14:50:02.86Z</time></trkpt><trkpt lat="42.11004" lon="13.483415"><ele>1088.0</ele><time>2026-05-02T14:50:03.859Z</time></trkpt><trkpt lat="42.110115" lon="13.483225"><ele>1088.0</ele><time>2026-05-02T14:50:04.859Z</time></trkpt><trkpt lat="42.11021" lon="13.4830383"><ele>1085.6666666666667</ele><time>2026-05-02T14:50:05.859Z</time></trkpt><trkpt lat="42.1103283" lon="13.48287"><ele>1083.3333333333333</ele><time>2026-05-02T14:50:06.86Z</time></trkpt><trkpt lat="42.1104517" lon="13.4827133"><ele>1081.0</ele><time>2026-05-02T14:50:07.859Z</time></trkpt><trkpt lat="42.11059" lon="13.4825633"><ele>1081.0</ele><time>2026-05-02T14:50:08.86Z</time></trkpt><trkpt lat="42.1107217" lon="13.48241"><ele>1081.0</ele><time>2026-05-02T14:50:09.86Z</time></trkpt><trkpt lat="42.1108467" lon="13.4822467"><ele>1081.0</ele><time>2026-05-02T14:50:10.86Z</time></trkpt><trkpt lat="42.11095" lon="13.48206"><ele>1086.0</ele><time>2026-05-02T14:50:11.86Z</time></trkpt><trkpt lat="42.1110317" lon="13.4818533"><ele>1091.0</ele><time>2026-05-02T14:50:12.859Z</time></trkpt><trkpt lat="42.1110917" lon="13.4816417"><ele>1096.0</ele><time>2026-05-02T14:50:13.859Z</time></trkpt><trkpt lat="42.11114" lon="13.4814317"><ele>1096.3333333333333</ele><time>2026-05-02T14:50:14.859Z</time></trkpt><trkpt lat="42.111185" lon="13.4812083"><ele>1096.6666666666667</ele><time>2026-05-02T14:50:15.859Z</time></trkpt><trkpt lat="42.1112167" lon="13.4809783"><ele>1097.0</ele><time>2026-05-02T14:50:16.859Z</time></trkpt><trkpt lat="42.1112467" lon="13.480755"><ele>1097.0</ele><time>2026-05-02T14:50:17.86Z</time></trkpt><trkpt lat="42.1112817" lon="13.4805483"><ele>1097.0</ele><time>2026-05-02T14:50:18.859Z</time></trkpt><trkpt lat="42.1113083" lon="13.4803367"><ele>1097.0</ele><time>2026-05-02T14:50:19.86Z</time></trkpt><trkpt lat="42.1113183" lon="13.480115"><ele>1097.6666666666667</ele><time>2026-05-02T14:50:20.859Z</time></trkpt><trkpt lat="42.1113114" lon="13.4798853"><ele>1098.3333333333333</ele><time>2026-05-02T14:50:21.86Z</time></trkpt><trkpt lat="42.111283" lon="13.479655"><ele>1099.0</ele><time>2026-05-02T14:50:22.858Z</time></trkpt><trkpt lat="42.1112354" lon="13.4794284"><ele>1102.0</ele><time>2026-05-02T14:50:23.858Z</time></trkpt><trkpt lat="42.1111756" lon="13.4792047"><ele>1105.0</ele><time>2026-05-02T14:50:24.858Z</time></trkpt><trkpt lat="42.1111085" lon="13.4789836"><ele>1108.0</ele><time>2026-05-02T14:50:25.858Z</time></trkpt><trkpt lat="42.111045" lon="13.4787569"><ele>1109.0</ele><time>2026-05-02T14:50:26.859Z</time></trkpt><trkpt lat="42.1109951" lon="13.4785269"><ele>1110.0</ele><time>2026-05-02T14:50:27.858Z</time></trkpt><trkpt lat="42.1109608" lon="13.4782973"><ele>1111.0</ele><time>2026-05-02T14:50:28.858Z</time></trkpt><trkpt lat="42.1109425" lon="13.4780568"><ele>1110.6666666666665</ele><time>2026-05-02T14:50:29.858Z</time></trkpt><trkpt lat="42.1109327" lon="13.4778113"><ele>1110.3333333333333</ele><time>2026-05-02T14:50:30.859Z</time></trkpt><trkpt lat="42.1109138" lon="13.4775749"><ele>1110.0</ele><time>2026-05-02T14:50:31.859Z</time></trkpt><trkpt lat="42.1108663" lon="13.4773502"><ele>1110.0</ele><time>2026-05-02T14:50:32.858Z</time></trkpt><trkpt lat="42.1107958" lon="13.4771268"><ele>1110.0</ele><time>2026-05-02T14:50:33.858Z</time></trkpt><trkpt lat="42.1106995" lon="13.4769236"><ele>1110.0</ele><time>2026-05-02T14:50:34.859Z</time></trkpt><trkpt lat="42.1105911" lon="13.4767324"><ele>1107.3333333333333</ele><time>2026-05-02T14:50:35.859Z</time></trkpt><trkpt lat="42.1104808" lon="13.4765449"><ele>1104.6666666666665</ele><time>2026-05-02T14:50:36.859Z</time></trkpt><trkpt lat="42.110371" lon="13.4763474"><ele>1102.0</ele><time>2026-05-02T14:50:37.858Z</time></trkpt><trkpt lat="42.1102774" lon="13.4761239"><ele>1102.0</ele><time>2026-05-02T14:50:38.858Z</time></trkpt><trkpt lat="42.1102126" lon="13.4758828"><ele>1102.0</ele><time>2026-05-02T14:50:39.858Z</time></trkpt><trkpt lat="42.1101627" lon="13.4756378"><ele>1102.0</ele><time>2026-05-02T14:50:40.858Z</time></trkpt><trkpt lat="42.1101279" lon="13.4753946"><ele>1101.6666666666665</ele><time>2026-05-02T14:50:41.858Z</time></trkpt><trkpt lat="42.110094" lon="13.4751494"><ele>1101.3333333333333</ele><time>2026-05-02T14:50:42.859Z</time></trkpt><trkpt lat="42.1100444" lon="13.4749041"><ele>1101.0</ele><time>2026-05-02T14:50:43.858Z</time></trkpt><trkpt lat="42.1099765" lon="13.4746745"><ele>1097.0</ele><time>2026-05-02T14:50:44.858Z</time></trkpt><trkpt lat="42.1098803" lon="13.4744465"><ele>1093.0</ele><time>2026-05-02T14:50:45.858Z</time></trkpt><trkpt lat="42.1097779" lon="13.4742143"><ele>1089.0</ele><time>2026-05-02T14:50:46.858Z</time></trkpt><trkpt lat="42.1096752" lon="13.4739825"><ele>1090.6666666666667</ele><time>2026-05-02T14:50:47.858Z</time></trkpt><trkpt lat="42.1095735" lon="13.4737537"><ele>1092.3333333333335</ele><time>2026-05-02T14:50:48.858Z</time></trkpt><trkpt lat="42.1094721" lon="13.4735317"><ele>1094.0</ele><time>2026-05-02T14:50:49.859Z</time></trkpt><trkpt lat="42.1093705" lon="13.4733074"><ele>1094.0</ele><time>2026-05-02T14:50:50.858Z</time></trkpt><trkpt lat="42.1092731" lon="13.4730748"><ele>1094.0</ele><time>2026-05-02T14:50:51.858Z</time></trkpt><trkpt lat="42.1091915" lon="13.472829"><ele>1094.0</ele><time>2026-05-02T14:50:52.858Z</time></trkpt><trkpt lat="42.1091203" lon="13.4725815"><ele>1092.6666666666667</ele><time>2026-05-02T14:50:53.858Z</time></trkpt><trkpt lat="42.1090534" lon="13.4723372"><ele>1091.3333333333333</ele><time>2026-05-02T14:50:54.858Z</time></trkpt><trkpt lat="42.1089945" lon="13.4720887"><ele>1090.0</ele><time>2026-05-02T14:50:55.859Z</time></trkpt><trkpt lat="42.1089349" lon="13.4718419"><ele>1090.0</ele><time>2026-05-02T14:50:56.858Z</time></trkpt><trkpt lat="42.1088756" lon="13.4716018"><ele>1090.0</ele><time>2026-05-02T14:50:57.858Z</time></trkpt><trkpt lat="42.1088296" lon="13.4713681"><ele>1090.0</ele><time>2026-05-02T14:50:58.859Z</time></trkpt><trkpt lat="42.1088008" lon="13.4711264"><ele>1090.3333333333333</ele><time>2026-05-02T14:50:59.858Z</time></trkpt><trkpt lat="42.1087975" lon="13.4708747"><ele>1090.6666666666667</ele><time>2026-05-02T14:51:00.858Z</time></trkpt><trkpt lat="42.1088128" lon="13.4706328"><ele>1091.0</ele><time>2026-05-02T14:51:01.858Z</time></trkpt><trkpt lat="42.1088203" lon="13.4703951"><ele>1089.6666666666667</ele><time>2026-05-02T14:51:02.858Z</time></trkpt><trkpt lat="42.1088206" lon="13.4701575"><ele>1088.3333333333333</ele><time>2026-05-02T14:51:03.859Z</time></trkpt><trkpt lat="42.1087959" lon="13.4699333"><ele>1087.0</ele><time>2026-05-02T14:51:04.858Z</time></trkpt><trkpt lat="42.1087476" lon="13.4697111"><ele>1086.6666666666665</ele><time>2026-05-02T14:51:05.858Z</time></trkpt><trkpt lat="42.1086904" lon="13.4694826"><ele>1086.3333333333333</ele><time>2026-05-02T14:51:06.858Z</time></trkpt><trkpt lat="42.1086231" lon="13.4692658"><ele>1086.0</ele><time>2026-05-02T14:51:07.859Z</time></trkpt><trkpt lat="42.1085445" lon="13.4690581"><ele>1086.0</ele><time>2026-05-02T14:51:08.859Z</time></trkpt><trkpt lat="42.1084619" lon="13.4688546"><ele>1086.0</ele><time>2026-05-02T14:51:09.859Z</time></trkpt><trkpt lat="42.1083787" lon="13.4686564"><ele>1086.0</ele><time>2026-05-02T14:51:10.859Z</time></trkpt><trkpt lat="42.1083019" lon="13.4684569"><ele>1086.6666666666667</ele><time>2026-05-02T14:51:11.858Z</time></trkpt><trkpt lat="42.1082283" lon="13.4682574"><ele>1087.3333333333335</ele><time>2026-05-02T14:51:12.858Z</time></trkpt><trkpt lat="42.1081575" lon="13.4680558"><ele>1088.0</ele><time>2026-05-02T14:51:13.859Z</time></trkpt><trkpt lat="42.1080845" lon="13.467853"><ele>1088.0</ele><time>2026-05-02T14:51:14.859Z</time></trkpt><trkpt lat="42.1080128" lon="13.4676507"><ele>1088.0</ele><time>2026-05-02T14:51:15.858Z</time></trkpt><trkpt lat="42.1079411" lon="13.4674488"><ele>1088.0</ele><time>2026-05-02T14:51:16.858Z</time></trkpt><trkpt lat="42.1078704" lon="13.4672461"><ele>1089.6666666666667</ele><time>2026-05-02T14:51:17.858Z</time></trkpt><trkpt lat="42.1077994" lon="13.4670444"><ele>1091.3333333333333</ele><time>2026-05-02T14:51:18.858Z</time></trkpt><trkpt lat="42.1077269" lon="13.4668439"><ele>1093.0</ele><time>2026-05-02T14:51:19.859Z</time></trkpt><trkpt lat="42.1076561" lon="13.4666435"><ele>1093.0</ele><time>2026-05-02T14:51:20.858Z</time></trkpt><trkpt lat="42.1075869" lon="13.4664474"><ele>1093.0</ele><time>2026-05-02T14:51:21.859Z</time></trkpt><trkpt lat="42.1075159" lon="13.4662501"><ele>1093.0</ele><time>2026-05-02T14:51:22.858Z</time></trkpt><trkpt lat="42.1074465" lon="13.4660504"><ele>1094.0</ele><time>2026-05-02T14:51:23.859Z</time></trkpt><trkpt lat="42.1073921" lon="13.4658441"><ele>1095.0</ele><time>2026-05-02T14:51:24.858Z</time></trkpt><trkpt lat="42.1073648" lon="13.4656353"><ele>1096.0</ele><time>2026-05-02T14:51:25.858Z</time></trkpt><trkpt lat="42.1073587" lon="13.4654238"><ele>1096.0</ele><time>2026-05-02T14:51:26.858Z</time></trkpt><trkpt lat="42.1073763" lon="13.4652105"><ele>1096.0</ele><time>2026-05-02T14:51:27.858Z</time></trkpt><trkpt lat="42.1074199" lon="13.4649934"><ele>1096.0</ele><time>2026-05-02T14:51:28.858Z</time></trkpt><trkpt lat="42.1074903" lon="13.4647787"><ele>1097.0</ele><time>2026-05-02T14:51:29.859Z</time></trkpt><trkpt lat="42.1075786" lon="13.464583"><ele>1098.0</ele><time>2026-05-02T14:51:30.859Z</time></trkpt><trkpt lat="42.1076767" lon="13.4644054"><ele>1099.0</ele><time>2026-05-02T14:51:31.859Z</time></trkpt><trkpt lat="42.107773" lon="13.4642322"><ele>1099.0</ele><time>2026-05-02T14:51:32.858Z</time></trkpt><trkpt lat="42.1078693" lon="13.4640623"><ele>1099.0</ele><time>2026-05-02T14:51:33.858Z</time></trkpt><trkpt lat="42.1079637" lon="13.4638875"><ele>1099.0</ele><time>2026-05-02T14:51:34.859Z</time></trkpt><trkpt lat="42.1080628" lon="13.4637145"><ele>1099.0</ele><time>2026-05-02T14:51:35.859Z</time></trkpt><trkpt lat="42.1081623" lon="13.4635374"><ele>1099.0</ele><time>2026-05-02T14:51:36.858Z</time></trkpt><trkpt lat="42.1082614" lon="13.4633582"><ele>1099.0</ele><time>2026-05-02T14:51:37.859Z</time></trkpt><trkpt lat="42.1083525" lon="13.4631781"><ele>1101.0</ele><time>2026-05-02T14:51:38.858Z</time></trkpt><trkpt lat="42.1084331" lon="13.4629954"><ele>1103.0</ele><time>2026-05-02T14:51:39.859Z</time></trkpt><trkpt lat="42.1084979" lon="13.4628164"><ele>1105.0</ele><time>2026-05-02T14:51:40.858Z</time></trkpt><trkpt lat="42.1085468" lon="13.4626445"><ele>1107.0</ele><time>2026-05-02T14:51:41.858Z</time></trkpt><trkpt lat="42.1085848" lon="13.4624865"><ele>1107.8</ele><time>2026-05-02T14:51:42.859Z</time></trkpt><trkpt lat="42.1086198" lon="13.4623475"><ele>1108.6</ele><time>2026-05-02T14:51:43.859Z</time></trkpt><trkpt lat="42.1086524" lon="13.4622175"><ele>1109.3999999999999</ele><time>2026-05-02T14:51:44.859Z</time></trkpt><trkpt lat="42.1086859" lon="13.4621024"><ele>1110.2</ele><time>2026-05-02T14:51:45.859Z</time></trkpt><trkpt lat="42.1087187" lon="13.4619889"><ele>1111.0</ele><time>2026-05-02T14:51:46.859Z</time></trkpt><trkpt lat="42.1087481" lon="13.4618821"><ele>1111.1666666666665</ele><time>2026-05-02T14:51:47.859Z</time></trkpt><trkpt lat="42.1087738" lon="13.4617806"><ele>1111.3333333333333</ele><time>2026-05-02T14:51:48.858Z</time></trkpt><trkpt lat="42.1088007" lon="13.4616783"><ele>1111.5</ele><time>2026-05-02T14:51:49.858Z</time></trkpt><trkpt lat="42.1088274" lon="13.4615764"><ele>1111.6666666666667</ele><time>2026-05-02T14:51:50.859Z</time></trkpt><trkpt lat="42.1088543" lon="13.4614764"><ele>1111.8333333333335</ele><time>2026-05-02T14:51:51.859Z</time></trkpt><trkpt lat="42.1088833" lon="13.4613758"><ele>1112.0</ele><time>2026-05-02T14:51:52.858Z</time></trkpt><trkpt lat="42.1089092" lon="13.4612869"><ele>1112.0</ele><time>2026-05-02T14:51:53.859Z</time></trkpt><trkpt lat="42.108952" lon="13.4611671"><ele>1112.0</ele><time>2026-05-02T14:51:55.858Z</time></trkpt><trkpt lat="42.1088903" lon="13.4611902"><ele>1112.0</ele><time>2026-05-02T14:52:01.859Z</time></trkpt><trkpt lat="42.108865" lon="13.4613145"><ele>1112.0</ele><time>2026-05-02T14:52:03.859Z</time></trkpt><trkpt lat="42.1088389" lon="13.4614178"><ele>1112.0</ele><time>2026-05-02T14:52:05.858Z</time></trkpt><trkpt lat="42.1087942" lon="13.4615316"><ele>1112.0</ele><time>2026-05-02T14:52:08.858Z</time></trkpt><trkpt lat="42.1087651" lon="13.461615"><ele>1112.0</ele><time>2026-05-02T14:52:11.859Z</time></trkpt><trkpt lat="42.1087067" lon="13.46155"><ele>1112.0</ele><time>2026-05-02T14:52:18.859Z</time></trkpt><trkpt lat="42.1086983" lon="13.4614433"><ele>1112.0</ele><time>2026-05-02T14:52:20.859Z</time></trkpt><trkpt lat="42.1086783" lon="13.4613367"><ele>1112.0</ele><time>2026-05-02T14:52:22.859Z</time></trkpt><trkpt lat="42.1086483" lon="13.4612017"><ele>1112.0</ele><time>2026-05-02T14:52:24.859Z</time></trkpt><trkpt lat="42.1086217" lon="13.4611167"><ele>1112.0</ele><time>2026-05-02T14:52:25.859Z</time></trkpt><trkpt lat="42.1085967" lon="13.4610167"><ele>1110.8333333333335</ele><time>2026-05-02T14:52:26.858Z</time></trkpt><trkpt lat="42.1085767" lon="13.46091"><ele>1109.6666666666667</ele><time>2026-05-02T14:52:27.858Z</time></trkpt><trkpt lat="42.108565" lon="13.4607967"><ele>1108.5</ele><time>2026-05-02T14:52:28.859Z</time></trkpt><trkpt lat="42.10855" lon="13.4606833"><ele>1107.3333333333333</ele><time>2026-05-02T14:52:29.859Z</time></trkpt><trkpt lat="42.108535" lon="13.46057"><ele>1106.1666666666665</ele><time>2026-05-02T14:52:30.858Z</time></trkpt><trkpt lat="42.108515" lon="13.4604633"><ele>1105.0</ele><time>2026-05-02T14:52:31.858Z</time></trkpt><trkpt lat="42.10849" lon="13.4603733"><ele>1102.6</ele><time>2026-05-02T14:52:32.858Z</time></trkpt><trkpt lat="42.1084633" lon="13.4602917"><ele>1100.2</ele><time>2026-05-02T14:52:33.858Z</time></trkpt><trkpt lat="42.1084267" lon="13.460155"><ele>1097.8</ele><time>2026-05-02T14:52:35.858Z</time></trkpt><trkpt lat="42.1084583" lon="13.460025"><ele>1095.4</ele><time>2026-05-02T14:52:37.858Z</time></trkpt><trkpt lat="42.1084983" lon="13.4599517"><ele>1093.0</ele><time>2026-05-02T14:52:38.858Z</time></trkpt><trkpt lat="42.1085667" lon="13.4598217"><ele>1093.0</ele><time>2026-05-02T14:52:40.859Z</time></trkpt><trkpt lat="42.1085633" lon="13.4596467"><ele>1093.0</ele><time>2026-05-02T14:52:42.858Z</time></trkpt><trkpt lat="42.1085433" lon="13.4595433"><ele>1093.0</ele><time>2026-05-02T14:52:43.858Z</time></trkpt><trkpt lat="42.108525" lon="13.4594333"><ele>1093.0</ele><time>2026-05-02T14:52:44.858Z</time></trkpt><trkpt lat="42.1085133" lon="13.45931"><ele>1093.0</ele><time>2026-05-02T14:52:45.858Z</time></trkpt><trkpt lat="42.108505" lon="13.459185"><ele>1090.8</ele><time>2026-05-02T14:52:46.859Z</time></trkpt><trkpt lat="42.1085017" lon="13.4590717"><ele>1088.6</ele><time>2026-05-02T14:52:47.858Z</time></trkpt><trkpt lat="42.1084917" lon="13.45897"><ele>1086.4</ele><time>2026-05-02T14:52:48.859Z</time></trkpt><trkpt lat="42.108495" lon="13.4588817"><ele>1084.2</ele><time>2026-05-02T14:52:49.858Z</time></trkpt><trkpt lat="42.108505" lon="13.4587417"><ele>1082.0</ele><time>2026-05-02T14:52:51.858Z</time></trkpt><trkpt lat="42.108525" lon="13.4585817"><ele>1080.5</ele><time>2026-05-02T14:52:53.859Z</time></trkpt><trkpt lat="42.1085367" lon="13.45849"><ele>1079.0</ele><time>2026-05-02T14:52:54.859Z</time></trkpt><trkpt lat="42.108545" lon="13.4583833"><ele>1077.5</ele><time>2026-05-02T14:52:55.859Z</time></trkpt><trkpt lat="42.1085533" lon="13.4582917"><ele>1076.0</ele><time>2026-05-02T14:52:56.858Z</time></trkpt><trkpt lat="42.1085583" lon="13.4581867"><ele>1074.5</ele><time>2026-05-02T14:52:57.859Z</time></trkpt><trkpt lat="42.1085567" lon="13.4580767"><ele>1073.0</ele><time>2026-05-02T14:52:58.858Z</time></trkpt><trkpt lat="42.1085633" lon="13.4579617"><ele>1071.5</ele><time>2026-05-02T14:52:59.858Z</time></trkpt><trkpt lat="42.108585" lon="13.45784"><ele>1070.0</ele><time>2026-05-02T14:53:00.858Z</time></trkpt><trkpt lat="42.1086117" lon="13.45772"><ele>1068.5</ele><time>2026-05-02T14:53:01.858Z</time></trkpt><trkpt lat="42.1086333" lon="13.4576133"><ele>1067.0</ele><time>2026-05-02T14:53:02.858Z</time></trkpt><trkpt lat="42.1086467" lon="13.4575083"><ele>1065.5</ele><time>2026-05-02T14:53:03.858Z</time></trkpt><trkpt lat="42.108645" lon="13.4573933"><ele>1064.0</ele><time>2026-05-02T14:53:04.859Z</time></trkpt><trkpt lat="42.1086367" lon="13.457275"><ele>1064.0</ele><time>2026-05-02T14:53:05.859Z</time></trkpt><trkpt lat="42.10864" lon="13.4571533"><ele>1064.0</ele><time>2026-05-02T14:53:06.859Z</time></trkpt><trkpt lat="42.10864" lon="13.45703"><ele>1064.0</ele><time>2026-05-02T14:53:07.859Z</time></trkpt><trkpt lat="42.1086383" lon="13.456925"><ele>1064.0</ele><time>2026-05-02T14:53:08.858Z</time></trkpt><trkpt lat="42.10864" lon="13.45681"><ele>1064.0</ele><time>2026-05-02T14:53:09.859Z</time></trkpt><trkpt lat="42.108645" lon="13.4566867"><ele>1064.0</ele><time>2026-05-02T14:53:10.858Z</time></trkpt><trkpt lat="42.1086467" lon="13.4565517"><ele>1062.3333333333335</ele><time>2026-05-02T14:53:11.858Z</time></trkpt><trkpt lat="42.1086483" lon="13.4564317"><ele>1060.6666666666667</ele><time>2026-05-02T14:53:12.858Z</time></trkpt><trkpt lat="42.1086417" lon="13.4563283"><ele>1059.0</ele><time>2026-05-02T14:53:13.859Z</time></trkpt><trkpt lat="42.10863" lon="13.4562317"><ele>1057.3333333333333</ele><time>2026-05-02T14:53:14.859Z</time></trkpt><trkpt lat="42.1086117" lon="13.45614"><ele>1055.6666666666665</ele><time>2026-05-02T14:53:15.858Z</time></trkpt><trkpt lat="42.108585" lon="13.4560433"><ele>1054.0</ele><time>2026-05-02T14:53:16.858Z</time></trkpt><trkpt lat="42.1085533" lon="13.455945"><ele>1052.8333333333333</ele><time>2026-05-02T14:53:17.858Z</time></trkpt><trkpt lat="42.108515" lon="13.4558433"><ele>1051.6666666666665</ele><time>2026-05-02T14:53:18.858Z</time></trkpt><trkpt lat="42.1084783" lon="13.4557467"><ele>1050.5</ele><time>2026-05-02T14:53:19.858Z</time></trkpt><trkpt lat="42.1084667" lon="13.45564"><ele>1049.3333333333333</ele><time>2026-05-02T14:53:20.858Z</time></trkpt><trkpt lat="42.10846" lon="13.4555283"><ele>1048.1666666666667</ele><time>2026-05-02T14:53:21.858Z</time></trkpt><trkpt lat="42.1084483" lon="13.455425"><ele>1047.0</ele><time>2026-05-02T14:53:22.859Z</time></trkpt><trkpt lat="42.1084233" lon="13.4553117"><ele>1045.8</ele><time>2026-05-02T14:53:23.859Z</time></trkpt><trkpt lat="42.1084" lon="13.4552017"><ele>1044.6</ele><time>2026-05-02T14:53:24.858Z</time></trkpt><trkpt lat="42.10838" lon="13.4550817"><ele>1043.3999999999999</ele><time>2026-05-02T14:53:25.859Z</time></trkpt><trkpt lat="42.1083583" lon="13.4549583"><ele>1042.2</ele><time>2026-05-02T14:53:26.858Z</time></trkpt><trkpt lat="42.1083333" lon="13.4548417"><ele>1041.0</ele><time>2026-05-02T14:53:27.858Z</time></trkpt><trkpt lat="42.1083133" lon="13.4547167"><ele>1040.0</ele><time>2026-05-02T14:53:28.858Z</time></trkpt><trkpt lat="42.1082967" lon="13.4545917"><ele>1039.0</ele><time>2026-05-02T14:53:29.859Z</time></trkpt><trkpt lat="42.1082883" lon="13.45446"><ele>1038.0</ele><time>2026-05-02T14:53:30.859Z</time></trkpt><trkpt lat="42.1082767" lon="13.454325"><ele>1037.0</ele><time>2026-05-02T14:53:31.858Z</time></trkpt><trkpt lat="42.108265" lon="13.454175"><ele>1036.0</ele><time>2026-05-02T14:53:32.858Z</time></trkpt><trkpt lat="42.1082567" lon="13.45403"><ele>1036.0</ele><time>2026-05-02T14:53:33.858Z</time></trkpt><trkpt lat="42.10825" lon="13.45389"><ele>1036.0</ele><time>2026-05-02T14:53:34.859Z</time></trkpt><trkpt lat="42.1082417" lon="13.4537583"><ele>1036.0</ele><time>2026-05-02T14:53:35.858Z</time></trkpt><trkpt lat="42.10823" lon="13.453625"><ele>1036.0</ele><time>2026-05-02T14:53:36.859Z</time></trkpt><trkpt lat="42.1082083" lon="13.4534983"><ele>1036.0</ele><time>2026-05-02T14:53:37.858Z</time></trkpt><trkpt lat="42.108175" lon="13.4533767"><ele>1032.8</ele><time>2026-05-02T14:53:38.858Z</time></trkpt><trkpt lat="42.108135" lon="13.453245"><ele>1029.6</ele><time>2026-05-02T14:53:39.858Z</time></trkpt><trkpt lat="42.1080883" lon="13.45312"><ele>1026.4</ele><time>2026-05-02T14:53:40.859Z</time></trkpt><trkpt lat="42.1080533" lon="13.4530017"><ele>1023.2</ele><time>2026-05-02T14:53:41.858Z</time></trkpt><trkpt lat="42.108035" lon="13.4528817"><ele>1020.0</ele><time>2026-05-02T14:53:42.859Z</time></trkpt><trkpt lat="42.108025" lon="13.4527567"><ele>1018.8</ele><time>2026-05-02T14:53:43.858Z</time></trkpt><trkpt lat="42.108025" lon="13.4526117"><ele>1017.6</ele><time>2026-05-02T14:53:44.858Z</time></trkpt><trkpt lat="42.1080267" lon="13.452455"><ele>1016.4000000000001</ele><time>2026-05-02T14:53:45.858Z</time></trkpt><trkpt lat="42.1080267" lon="13.4523"><ele>1015.2</ele><time>2026-05-02T14:53:46.859Z</time></trkpt><trkpt lat="42.1080233" lon="13.4521667"><ele>1014.0</ele><time>2026-05-02T14:53:47.859Z</time></trkpt><trkpt lat="42.1080233" lon="13.4520383"><ele>1014.0</ele><time>2026-05-02T14:53:48.858Z</time></trkpt><trkpt lat="42.10801" lon="13.4519283"><ele>1014.0</ele><time>2026-05-02T14:53:49.858Z</time></trkpt><trkpt lat="42.107985" lon="13.4518033"><ele>1014.0</ele><time>2026-05-02T14:53:50.859Z</time></trkpt><trkpt lat="42.1079667" lon="13.4516933"><ele>1014.0</ele><time>2026-05-02T14:53:51.858Z</time></trkpt><trkpt lat="42.1079467" lon="13.4515483"><ele>1014.0</ele><time>2026-05-02T14:53:53.858Z</time></trkpt><trkpt lat="42.1079317" lon="13.451455"><ele>1014.0</ele><time>2026-05-02T14:53:55.859Z</time></trkpt><trkpt lat="42.1078967" lon="13.45136"><ele>1013.8000000000001</ele><time>2026-05-02T14:53:57.859Z</time></trkpt><trkpt lat="42.1078567" lon="13.4512217"><ele>1013.6000000000001</ele><time>2026-05-02T14:53:59.859Z</time></trkpt><trkpt lat="42.1078283" lon="13.4511283"><ele>1013.4</ele><time>2026-05-02T14:54:00.858Z</time></trkpt><trkpt lat="42.1078" lon="13.45101"><ele>1013.2</ele><time>2026-05-02T14:54:01.859Z</time></trkpt><trkpt lat="42.107745" lon="13.45087"><ele>1013.0</ele><time>2026-05-02T14:54:02.858Z</time></trkpt><trkpt lat="42.1076883" lon="13.4507367"><ele>1013.0</ele><time>2026-05-02T14:54:03.859Z</time></trkpt><trkpt lat="42.1076283" lon="13.4506"><ele>1013.0</ele><time>2026-05-02T14:54:04.859Z</time></trkpt><trkpt lat="42.107555" lon="13.45046"><ele>1013.0</ele><time>2026-05-02T14:54:05.859Z</time></trkpt><trkpt lat="42.1074817" lon="13.45032"><ele>1013.0</ele><time>2026-05-02T14:54:06.858Z</time></trkpt><trkpt lat="42.1074167" lon="13.4501917"><ele>1011.4</ele><time>2026-05-02T14:54:07.858Z</time></trkpt><trkpt lat="42.1073567" lon="13.4500783"><ele>1009.8</ele><time>2026-05-02T14:54:08.859Z</time></trkpt><trkpt lat="42.1072983" lon="13.449955"><ele>1008.2</ele><time>2026-05-02T14:54:09.859Z</time></trkpt><trkpt lat="42.1072433" lon="13.4498267"><ele>1006.6</ele><time>2026-05-02T14:54:10.858Z</time></trkpt><trkpt lat="42.1071933" lon="13.4497083"><ele>1005.0</ele><time>2026-05-02T14:54:11.858Z</time></trkpt><trkpt lat="42.1071333" lon="13.449595"><ele>1004.4</ele><time>2026-05-02T14:54:12.858Z</time></trkpt><trkpt lat="42.1070717" lon="13.4494917"><ele>1003.8</ele><time>2026-05-02T14:54:13.859Z</time></trkpt><trkpt lat="42.1070133" lon="13.4493883"><ele>1003.2</ele><time>2026-05-02T14:54:14.858Z</time></trkpt><trkpt lat="42.10697" lon="13.449275"><ele>1002.6</ele><time>2026-05-02T14:54:15.859Z</time></trkpt><trkpt lat="42.1069217" lon="13.44915"><ele>1002.0</ele><time>2026-05-02T14:54:16.858Z</time></trkpt><trkpt lat="42.1068733" lon="13.4490383"><ele>1002.0</ele><time>2026-05-02T14:54:17.858Z</time></trkpt><trkpt lat="42.1068217" lon="13.4489033"><ele>1002.0</ele><time>2026-05-02T14:54:18.859Z</time></trkpt><trkpt lat="42.10677" lon="13.44877"><ele>1002.0</ele><time>2026-05-02T14:54:19.859Z</time></trkpt><trkpt lat="42.10672" lon="13.448635"><ele>1002.0</ele><time>2026-05-02T14:54:20.858Z</time></trkpt><trkpt lat="42.1066717" lon="13.4485083"><ele>1002.0</ele><time>2026-05-02T14:54:21.859Z</time></trkpt><trkpt lat="42.1066233" lon="13.4483983"><ele>1001.6666666666666</ele><time>2026-05-02T14:54:22.858Z</time></trkpt><trkpt lat="42.1065783" lon="13.4482917"><ele>1001.3333333333333</ele><time>2026-05-02T14:54:23.858Z</time></trkpt><trkpt lat="42.1065383" lon="13.4482083"><ele>1001.0</ele><time>2026-05-02T14:54:24.859Z</time></trkpt><trkpt lat="42.1064983" lon="13.4481317"><ele>1000.6666666666666</ele><time>2026-05-02T14:54:25.858Z</time></trkpt><trkpt lat="42.1064383" lon="13.44808"><ele>1000.3333333333333</ele><time>2026-05-02T14:54:26.858Z</time></trkpt><trkpt lat="42.1063717" lon="13.4480617"><ele>1000.0</ele><time>2026-05-02T14:54:27.858Z</time></trkpt><trkpt lat="42.106295" lon="13.4480567"><ele>998.9999999999999</ele><time>2026-05-02T14:54:28.859Z</time></trkpt><trkpt lat="42.1062317" lon="13.4480517"><ele>998.0</ele><time>2026-05-02T14:54:29.859Z</time></trkpt><trkpt lat="42.10617" lon="13.44803"><ele>997.0</ele><time>2026-05-02T14:54:30.858Z</time></trkpt><trkpt lat="42.1060683" lon="13.447985"><ele>996.0</ele><time>2026-05-02T14:54:32.858Z</time></trkpt><trkpt lat="42.1059917" lon="13.447935"><ele>994.9999999999999</ele><time>2026-05-02T14:54:34.859Z</time></trkpt><trkpt lat="42.10592" lon="13.4478433"><ele>994.0</ele><time>2026-05-02T14:54:36.858Z</time></trkpt><trkpt lat="42.10586" lon="13.447695"><ele>993.6666666666666</ele><time>2026-05-02T14:54:38.858Z</time></trkpt><trkpt lat="42.1058383" lon="13.447615"><ele>993.3333333333333</ele><time>2026-05-02T14:54:39.859Z</time></trkpt><trkpt lat="42.1057833" lon="13.4474517"><ele>993.0</ele><time>2026-05-02T14:54:41.859Z</time></trkpt><trkpt lat="42.10576" lon="13.4473633"><ele>992.6666666666667</ele><time>2026-05-02T14:54:42.859Z</time></trkpt><trkpt lat="42.105745" lon="13.4472667"><ele>992.3333333333334</ele><time>2026-05-02T14:54:43.858Z</time></trkpt><trkpt lat="42.10573" lon="13.4471667"><ele>992.0</ele><time>2026-05-02T14:54:44.859Z</time></trkpt><trkpt lat="42.105715" lon="13.4470683"><ele>991.0000000000001</ele><time>2026-05-02T14:54:45.858Z</time></trkpt><trkpt lat="42.1056983" lon="13.446965"><ele>990.0</ele><time>2026-05-02T14:54:46.858Z</time></trkpt><trkpt lat="42.10571" lon="13.4468583"><ele>989.0</ele><time>2026-05-02T14:54:47.858Z</time></trkpt><trkpt lat="42.10573" lon="13.4467567"><ele>988.0</ele><time>2026-05-02T14:54:48.858Z</time></trkpt><trkpt lat="42.1057683" lon="13.4466767"><ele>987.0000000000001</ele><time>2026-05-02T14:54:49.858Z</time></trkpt><trkpt lat="42.1058317" lon="13.44653"><ele>986.0</ele><time>2026-05-02T14:54:51.859Z</time></trkpt><trkpt lat="42.1058383" lon="13.4464417"><ele>986.0</ele><time>2026-05-02T14:54:52.859Z</time></trkpt><trkpt lat="42.105825" lon="13.4463483"><ele>986.0</ele><time>2026-05-02T14:54:53.859Z</time></trkpt><trkpt lat="42.1057983" lon="13.4462633"><ele>986.0</ele><time>2026-05-02T14:54:54.859Z</time></trkpt><trkpt lat="42.1057583" lon="13.446185"><ele>986.0</ele><time>2026-05-02T14:54:55.859Z</time></trkpt><trkpt lat="42.105715" lon="13.4461117"><ele>986.0</ele><time>2026-05-02T14:54:56.858Z</time></trkpt><trkpt lat="42.1056683" lon="13.4460283"><ele>986.0</ele><time>2026-05-02T14:54:57.858Z</time></trkpt><trkpt lat="42.105635" lon="13.4459467"><ele>986.0</ele><time>2026-05-02T14:54:58.858Z</time></trkpt><trkpt lat="42.1055983" lon="13.4458533"><ele>984.1999999999999</ele><time>2026-05-02T14:54:59.859Z</time></trkpt><trkpt lat="42.10556" lon="13.4457533"><ele>982.3999999999999</ele><time>2026-05-02T14:55:00.859Z</time></trkpt><trkpt lat="42.1055117" lon="13.4456467"><ele>980.6</ele><time>2026-05-02T14:55:01.859Z</time></trkpt><trkpt lat="42.1054567" lon="13.4455233"><ele>978.8</ele><time>2026-05-02T14:55:02.858Z</time></trkpt><trkpt lat="42.1054133" lon="13.4453967"><ele>977.0</ele><time>2026-05-02T14:55:03.858Z</time></trkpt><trkpt lat="42.1053733" lon="13.445265"><ele>977.0</ele><time>2026-05-02T14:55:04.859Z</time></trkpt><trkpt lat="42.1053283" lon="13.4451383"><ele>977.0</ele><time>2026-05-02T14:55:05.858Z</time></trkpt><trkpt lat="42.1052783" lon="13.4450067"><ele>977.0</ele><time>2026-05-02T14:55:06.858Z</time></trkpt><trkpt lat="42.1052283" lon="13.4448717"><ele>977.0</ele><time>2026-05-02T14:55:07.858Z</time></trkpt><trkpt lat="42.1051783" lon="13.44474"><ele>977.0</ele><time>2026-05-02T14:55:08.859Z</time></trkpt><trkpt lat="42.1051217" lon="13.4446067"><ele>976.5</ele><time>2026-05-02T14:55:09.859Z</time></trkpt><trkpt lat="42.1050633" lon="13.4444517"><ele>976.0</ele><time>2026-05-02T14:55:10.859Z</time></trkpt><trkpt lat="42.105005" lon="13.44429"><ele>975.5</ele><time>2026-05-02T14:55:11.858Z</time></trkpt><trkpt lat="42.1049467" lon="13.4441467"><ele>975.0</ele><time>2026-05-02T14:55:12.858Z</time></trkpt><trkpt lat="42.10489" lon="13.4440067"><ele>974.6</ele><time>2026-05-02T14:55:13.859Z</time></trkpt><trkpt lat="42.1048233" lon="13.4438867"><ele>974.2</ele><time>2026-05-02T14:55:14.858Z</time></trkpt><trkpt lat="42.10475" lon="13.4437683"><ele>973.8</ele><time>2026-05-02T14:55:15.858Z</time></trkpt><trkpt lat="42.1046833" lon="13.4436567"><ele>973.4</ele><time>2026-05-02T14:55:16.858Z</time></trkpt><trkpt lat="42.1046233" lon="13.4435233"><ele>973.0</ele><time>2026-05-02T14:55:17.859Z</time></trkpt><trkpt lat="42.1045683" lon="13.4433667"><ele>973.0</ele><time>2026-05-02T14:55:18.858Z</time></trkpt><trkpt lat="42.1045117" lon="13.4432067"><ele>973.0</ele><time>2026-05-02T14:55:19.858Z</time></trkpt><trkpt lat="42.1044367" lon="13.4430683"><ele>973.0</ele><time>2026-05-02T14:55:20.858Z</time></trkpt><trkpt lat="42.104355" lon="13.44293"><ele>973.0</ele><time>2026-05-02T14:55:21.859Z</time></trkpt><trkpt lat="42.1042717" lon="13.442795"><ele>973.0</ele><time>2026-05-02T14:55:22.858Z</time></trkpt><trkpt lat="42.1042" lon="13.4426617"><ele>973.0</ele><time>2026-05-02T14:55:23.858Z</time></trkpt><trkpt lat="42.1041317" lon="13.442515"><ele>973.0</ele><time>2026-05-02T14:55:24.858Z</time></trkpt><trkpt lat="42.104065" lon="13.442365"><ele>973.0</ele><time>2026-05-02T14:55:25.858Z</time></trkpt><trkpt lat="42.1040033" lon="13.4422"><ele>972.25</ele><time>2026-05-02T14:55:26.859Z</time></trkpt><trkpt lat="42.103935" lon="13.44203"><ele>971.5</ele><time>2026-05-02T14:55:27.859Z</time></trkpt><trkpt lat="42.1038717" lon="13.44185"><ele>970.75</ele><time>2026-05-02T14:55:28.858Z</time></trkpt><trkpt lat="42.1038033" lon="13.44167"><ele>970.0</ele><time>2026-05-02T14:55:29.858Z</time></trkpt><trkpt lat="42.1037217" lon="13.4415083"><ele>970.0</ele><time>2026-05-02T14:55:30.859Z</time></trkpt><trkpt lat="42.1036267" lon="13.441365"><ele>970.0</ele><time>2026-05-02T14:55:31.858Z</time></trkpt><trkpt lat="42.1035367" lon="13.441235"><ele>970.0</ele><time>2026-05-02T14:55:32.859Z</time></trkpt><trkpt lat="42.103455" lon="13.441115"><ele>970.0</ele><time>2026-05-02T14:55:33.858Z</time></trkpt><trkpt lat="42.103385" lon="13.4410033"><ele>970.4</ele><time>2026-05-02T14:55:34.858Z</time></trkpt><trkpt lat="42.1033233" lon="13.44089"><ele>970.8</ele><time>2026-05-02T14:55:35.858Z</time></trkpt><trkpt lat="42.1032783" lon="13.4407833"><ele>971.2</ele><time>2026-05-02T14:55:36.858Z</time></trkpt><trkpt lat="42.10323" lon="13.4406783"><ele>971.6</ele><time>2026-05-02T14:55:37.859Z</time></trkpt><trkpt lat="42.103175" lon="13.4405667"><ele>972.0</ele><time>2026-05-02T14:55:38.859Z</time></trkpt><trkpt lat="42.10311" lon="13.4404617"><ele>972.0</ele><time>2026-05-02T14:55:39.858Z</time></trkpt><trkpt lat="42.1030267" lon="13.4403533"><ele>972.0</ele><time>2026-05-02T14:55:40.858Z</time></trkpt><trkpt lat="42.10293" lon="13.4402383"><ele>972.0</ele><time>2026-05-02T14:55:41.859Z</time></trkpt><trkpt lat="42.1028267" lon="13.4401417"><ele>972.0</ele><time>2026-05-02T14:55:42.859Z</time></trkpt><trkpt lat="42.1027217" lon="13.4400783"><ele>972.0</ele><time>2026-05-02T14:55:43.858Z</time></trkpt><trkpt lat="42.1026133" lon="13.440025"><ele>972.0</ele><time>2026-05-02T14:55:44.859Z</time></trkpt><trkpt lat="42.1025083" lon="13.439985"><ele>972.0</ele><time>2026-05-02T14:55:45.858Z</time></trkpt><trkpt lat="42.10242" lon="13.439925"><ele>972.0</ele><time>2026-05-02T14:55:46.858Z</time></trkpt><trkpt lat="42.1023333" lon="13.4398483"><ele>972.0</ele><time>2026-05-02T14:55:47.858Z</time></trkpt><trkpt lat="42.1022467" lon="13.4397417"><ele>973.0</ele><time>2026-05-02T14:55:48.858Z</time></trkpt><trkpt lat="42.102155" lon="13.43962"><ele>974.0</ele><time>2026-05-02T14:55:49.858Z</time></trkpt><trkpt lat="42.1020683" lon="13.4394717"><ele>975.0</ele><time>2026-05-02T14:55:50.859Z</time></trkpt><trkpt lat="42.1019883" lon="13.43933"><ele>976.0</ele><time>2026-05-02T14:55:51.859Z</time></trkpt><trkpt lat="42.1019067" lon="13.43919"><ele>976.0</ele><time>2026-05-02T14:55:52.859Z</time></trkpt><trkpt lat="42.1018117" lon="13.43907"><ele>976.0</ele><time>2026-05-02T14:55:53.858Z</time></trkpt><trkpt lat="42.10171" lon="13.438945"><ele>976.0</ele><time>2026-05-02T14:55:54.859Z</time></trkpt><trkpt lat="42.1016167" lon="13.43882"><ele>976.0</ele><time>2026-05-02T14:55:55.859Z</time></trkpt><trkpt lat="42.101525" lon="13.4386867"><ele>975.75</ele><time>2026-05-02T14:55:56.859Z</time></trkpt><trkpt lat="42.1014333" lon="13.4385417"><ele>975.5</ele><time>2026-05-02T14:55:57.859Z</time></trkpt><trkpt lat="42.1013517" lon="13.4383817"><ele>975.25</ele><time>2026-05-02T14:55:58.858Z</time></trkpt><trkpt lat="42.1012617" lon="13.4382267"><ele>975.0</ele><time>2026-05-02T14:55:59.859Z</time></trkpt><trkpt lat="42.1011733" lon="13.4380683"><ele>975.0</ele><time>2026-05-02T14:56:00.859Z</time></trkpt><trkpt lat="42.101075" lon="13.4379133"><ele>975.0</ele><time>2026-05-02T14:56:01.859Z</time></trkpt><trkpt lat="42.1009817" lon="13.43776"><ele>975.0</ele><time>2026-05-02T14:56:02.859Z</time></trkpt><trkpt lat="42.1009" lon="13.43762"><ele>975.0</ele><time>2026-05-02T14:56:03.858Z</time></trkpt><trkpt lat="42.10083" lon="13.4375067"><ele>975.0</ele><time>2026-05-02T14:56:04.859Z</time></trkpt><trkpt lat="42.1007733" lon="13.4374167"><ele>975.0</ele><time>2026-05-02T14:56:05.858Z</time></trkpt><trkpt lat="42.100735" lon="13.4373433"><ele>975.0</ele><time>2026-05-02T14:56:06.859Z</time></trkpt><trkpt lat="42.10069" lon="13.4372567"><ele>975.0</ele><time>2026-05-02T14:56:08.858Z</time></trkpt><trkpt lat="42.1006433" lon="13.4371683"><ele>975.0</ele><time>2026-05-02T14:56:10.859Z</time></trkpt><trkpt lat="42.1006033" lon="13.4370917"><ele>975.0</ele><time>2026-05-02T14:56:11.859Z</time></trkpt><trkpt lat="42.1005483" lon="13.4369917"><ele>974.25</ele><time>2026-05-02T14:56:12.859Z</time></trkpt><trkpt lat="42.1004833" lon="13.4368633"><ele>973.5</ele><time>2026-05-02T14:56:13.858Z</time></trkpt><trkpt lat="42.10042" lon="13.436725"><ele>972.75</ele><time>2026-05-02T14:56:14.859Z</time></trkpt><trkpt lat="42.1003367" lon="13.4365633"><ele>972.0</ele><time>2026-05-02T14:56:15.858Z</time></trkpt><trkpt lat="42.1002583" lon="13.436415"><ele>972.75</ele><time>2026-05-02T14:56:16.858Z</time></trkpt><trkpt lat="42.100185" lon="13.4362617"><ele>973.5</ele><time>2026-05-02T14:56:17.858Z</time></trkpt><trkpt lat="42.1001217" lon="13.4361017"><ele>974.25</ele><time>2026-05-02T14:56:18.858Z</time></trkpt><trkpt lat="42.10006" lon="13.4359533"><ele>975.0</ele><time>2026-05-02T14:56:19.858Z</time></trkpt><trkpt lat="42.1" lon="13.4358"><ele>975.0</ele><time>2026-05-02T14:56:20.859Z</time></trkpt><trkpt lat="42.0999433" lon="13.4356467"><ele>975.0</ele><time>2026-05-02T14:56:21.859Z</time></trkpt><trkpt lat="42.099895" lon="13.4355017"><ele>975.0</ele><time>2026-05-02T14:56:22.858Z</time></trkpt><trkpt lat="42.09985" lon="13.4353667"><ele>975.0</ele><time>2026-05-02T14:56:23.858Z</time></trkpt><trkpt lat="42.0997983" lon="13.435225"><ele>975.0</ele><time>2026-05-02T14:56:24.859Z</time></trkpt><trkpt lat="42.0997417" lon="13.43507"><ele>975.0</ele><time>2026-05-02T14:56:25.858Z</time></trkpt><trkpt lat="42.099685" lon="13.434915"><ele>975.0</ele><time>2026-05-02T14:56:26.858Z</time></trkpt><trkpt lat="42.0996317" lon="13.43476"><ele>975.0</ele><time>2026-05-02T14:56:27.859Z</time></trkpt><trkpt lat="42.099575" lon="13.43462"><ele>975.0</ele><time>2026-05-02T14:56:28.859Z</time></trkpt><trkpt lat="42.0995133" lon="13.4344733"><ele>975.0</ele><time>2026-05-02T14:56:29.858Z</time></trkpt><trkpt lat="42.0994567" lon="13.43434"><ele>975.0</ele><time>2026-05-02T14:56:30.858Z</time></trkpt><trkpt lat="42.099415" lon="13.434225"><ele>975.0</ele><time>2026-05-02T14:56:31.859Z</time></trkpt><trkpt lat="42.0993867" lon="13.43413"><ele>975.0</ele><time>2026-05-02T14:56:32.859Z</time></trkpt><trkpt lat="42.0993617" lon="13.434"><ele>975.0</ele><time>2026-05-02T14:56:34.858Z</time></trkpt><trkpt lat="42.0993267" lon="13.433895"><ele>975.0</ele><time>2026-05-02T14:56:42.859Z</time></trkpt><trkpt lat="42.09928" lon="13.4338117"><ele>975.0</ele><time>2026-05-02T14:56:44.859Z</time></trkpt><trkpt lat="42.0992033" lon="13.4337183"><ele>975.0</ele><time>2026-05-02T14:56:46.858Z</time></trkpt><trkpt lat="42.0991083" lon="13.4336267"><ele>975.0</ele><time>2026-05-02T14:56:48.859Z</time></trkpt><trkpt lat="42.0990567" lon="13.433575"><ele>975.0</ele><time>2026-05-02T14:56:49.858Z</time></trkpt><trkpt lat="42.0989967" lon="13.4335167"><ele>974.4</ele><time>2026-05-02T14:56:50.858Z</time></trkpt><trkpt lat="42.0989333" lon="13.433445"><ele>973.8</ele><time>2026-05-02T14:56:51.858Z</time></trkpt><trkpt lat="42.0988617" lon="13.4333683"><ele>973.2</ele><time>2026-05-02T14:56:52.858Z</time></trkpt><trkpt lat="42.0987867" lon="13.4332933"><ele>972.6</ele><time>2026-05-02T14:56:53.859Z</time></trkpt><trkpt lat="42.0987067" lon="13.4332217"><ele>972.0</ele><time>2026-05-02T14:56:54.858Z</time></trkpt><trkpt lat="42.0986333" lon="13.43315"><ele>972.0</ele><time>2026-05-02T14:56:55.858Z</time></trkpt><trkpt lat="42.0985717" lon="13.4330867"><ele>972.0</ele><time>2026-05-02T14:56:56.858Z</time></trkpt><trkpt lat="42.0985133" lon="13.4330233"><ele>972.0</ele><time>2026-05-02T14:56:57.859Z</time></trkpt><trkpt lat="42.09846" lon="13.43296"><ele>972.0</ele><time>2026-05-02T14:56:58.858Z</time></trkpt><trkpt lat="42.0983567" lon="13.4328583"><ele>972.0</ele><time>2026-05-02T14:57:00.859Z</time></trkpt><trkpt lat="42.0983033" lon="13.432805"><ele>972.0</ele><time>2026-05-02T14:57:01.859Z</time></trkpt><trkpt lat="42.09824" lon="13.4327483"><ele>971.5714285714286</ele><time>2026-05-02T14:57:02.858Z</time></trkpt><trkpt lat="42.098175" lon="13.4326783"><ele>971.1428571428571</ele><time>2026-05-02T14:57:03.858Z</time></trkpt><trkpt lat="42.09811" lon="13.4326167"><ele>970.7142857142857</ele><time>2026-05-02T14:57:04.858Z</time></trkpt><trkpt lat="42.09805" lon="13.432555"><ele>970.2857142857142</ele><time>2026-05-02T14:57:05.858Z</time></trkpt><trkpt lat="42.097995" lon="13.4324983"><ele>969.8571428571429</ele><time>2026-05-02T14:57:06.859Z</time></trkpt><trkpt lat="42.0979417" lon="13.4324417"><ele>969.4285714285713</ele><time>2026-05-02T14:57:07.859Z</time></trkpt><trkpt lat="42.0978917" lon="13.4323817"><ele>968.9999999999999</ele><time>2026-05-02T14:57:08.859Z</time></trkpt><trkpt lat="42.0978117" lon="13.4322733"><ele>969.0</ele><time>2026-05-02T14:57:10.858Z</time></trkpt><trkpt lat="42.09776" lon="13.43221"><ele>969.0</ele><time>2026-05-02T14:57:12.859Z</time></trkpt><trkpt lat="42.0978367" lon="13.4322317"><ele>969.0</ele><time>2026-05-02T14:57:17.858Z</time></trkpt><trkpt lat="42.097895" lon="13.4323"><ele>969.0</ele><time>2026-05-02T14:57:19.859Z</time></trkpt><trkpt lat="42.0979917" lon="13.432295"><ele>969.0</ele><time>2026-05-02T14:57:22.858Z</time></trkpt><trkpt lat="42.0981083" lon="13.43231"><ele>969.0</ele><time>2026-05-02T14:57:24.858Z</time></trkpt><trkpt lat="42.09819" lon="13.4323417"><ele>967.5</ele><time>2026-05-02T14:57:25.859Z</time></trkpt><trkpt lat="42.0982867" lon="13.4324017"><ele>966.0</ele><time>2026-05-02T14:57:26.859Z</time></trkpt><trkpt lat="42.0983867" lon="13.43248"><ele>964.5</ele><time>2026-05-02T14:57:27.858Z</time></trkpt><trkpt lat="42.0984883" lon="13.4325683"><ele>963.0</ele><time>2026-05-02T14:57:28.859Z</time></trkpt><trkpt lat="42.0985867" lon="13.4326683"><ele>963.0</ele><time>2026-05-02T14:57:29.859Z</time></trkpt><trkpt lat="42.09868" lon="13.432765"><ele>963.0</ele><time>2026-05-02T14:57:30.859Z</time></trkpt><trkpt lat="42.0987883" lon="13.4328417"><ele>963.0</ele><time>2026-05-02T14:57:31.858Z</time></trkpt><trkpt lat="42.0989067" lon="13.4329"><ele>963.0</ele><time>2026-05-02T14:57:32.859Z</time></trkpt><trkpt lat="42.0990267" lon="13.4329417"><ele>964.0</ele><time>2026-05-02T14:57:33.859Z</time></trkpt><trkpt lat="42.0991333" lon="13.4329667"><ele>965.0</ele><time>2026-05-02T14:57:34.859Z</time></trkpt><trkpt lat="42.0992117" lon="13.4329883"><ele>966.0</ele><time>2026-05-02T14:57:35.858Z</time></trkpt><trkpt lat="42.0992767" lon="13.4330267"><ele>967.0</ele><time>2026-05-02T14:57:36.858Z</time></trkpt><trkpt lat="42.0993333" lon="13.4330683"><ele>968.0</ele><time>2026-05-02T14:57:37.859Z</time></trkpt><trkpt lat="42.0994467" lon="13.4331017"><ele>969.0</ele><time>2026-05-02T14:57:39.858Z</time></trkpt><trkpt lat="42.0995583" lon="13.4330333"><ele>969.0</ele><time>2026-05-02T14:57:41.858Z</time></trkpt><trkpt lat="42.0996217" lon="13.4329833"><ele>969.0</ele><time>2026-05-02T14:57:42.858Z</time></trkpt><trkpt lat="42.09969" lon="13.4329467"><ele>969.0</ele><time>2026-05-02T14:57:43.858Z</time></trkpt><trkpt lat="42.0997533" lon="13.4329167"><ele>969.0</ele><time>2026-05-02T14:57:44.859Z</time></trkpt><trkpt lat="42.0998117" lon="13.4328817"><ele>969.0</ele><time>2026-05-02T14:57:45.859Z</time></trkpt><trkpt lat="42.0999133" lon="13.4328083"><ele>969.0</ele><time>2026-05-02T14:57:47.858Z</time></trkpt><trkpt lat="42.0999983" lon="13.4327117"><ele>966.2857142857142</ele><time>2026-05-02T14:57:49.859Z</time></trkpt><trkpt lat="42.1000483" lon="13.43264"><ele>963.5714285714286</ele><time>2026-05-02T14:57:50.858Z</time></trkpt><trkpt lat="42.1000967" lon="13.4325667"><ele>960.8571428571429</ele><time>2026-05-02T14:57:51.858Z</time></trkpt><trkpt lat="42.100135" lon="13.43249"><ele>958.1428571428571</ele><time>2026-05-02T14:57:52.858Z</time></trkpt><trkpt lat="42.1001767" lon="13.4324"><ele>955.4285714285716</ele><time>2026-05-02T14:57:53.858Z</time></trkpt><trkpt lat="42.1002033" lon="13.4323117"><ele>952.7142857142858</ele><time>2026-05-02T14:57:54.859Z</time></trkpt><trkpt lat="42.1002417" lon="13.4322433"><ele>950.0</ele><time>2026-05-02T14:57:55.859Z</time></trkpt><trkpt lat="42.1003217" lon="13.43212"><ele>949.2</ele><time>2026-05-02T14:57:57.859Z</time></trkpt><trkpt lat="42.100415" lon="13.4320183"><ele>948.4</ele><time>2026-05-02T14:57:59.858Z</time></trkpt><trkpt lat="42.1005083" lon="13.431915"><ele>947.5999999999999</ele><time>2026-05-02T14:58:01.858Z</time></trkpt><trkpt lat="42.1005767" lon="13.4318483"><ele>946.8</ele><time>2026-05-02T14:58:02.858Z</time></trkpt><trkpt lat="42.1006533" lon="13.43179"><ele>946.0</ele><time>2026-05-02T14:58:03.858Z</time></trkpt><trkpt lat="42.1007333" lon="13.4317333"><ele>947.0</ele><time>2026-05-02T14:58:04.859Z</time></trkpt><trkpt lat="42.100815" lon="13.4316867"><ele>947.9999999999999</ele><time>2026-05-02T14:58:05.858Z</time></trkpt><trkpt lat="42.100895" lon="13.4316517"><ele>948.9999999999999</ele><time>2026-05-02T14:58:06.858Z</time></trkpt><trkpt lat="42.1009817" lon="13.4316233"><ele>950.0</ele><time>2026-05-02T14:58:07.859Z</time></trkpt><trkpt lat="42.10107" lon="13.43158"><ele>951.0</ele><time>2026-05-02T14:58:08.859Z</time></trkpt><trkpt lat="42.1011633" lon="13.4315317"><ele>951.0</ele><time>2026-05-02T14:58:09.858Z</time></trkpt><trkpt lat="42.1012417" lon="13.4314817"><ele>951.0</ele><time>2026-05-02T14:58:10.859Z</time></trkpt><trkpt lat="42.1013167" lon="13.4314283"><ele>951.0</ele><time>2026-05-02T14:58:11.858Z</time></trkpt><trkpt lat="42.101385" lon="13.4313917"><ele>951.0</ele><time>2026-05-02T14:58:12.858Z</time></trkpt><trkpt lat="42.1014567" lon="13.4313283"><ele>951.0</ele><time>2026-05-02T14:58:14.858Z</time></trkpt><trkpt lat="42.10151" lon="13.43127"><ele>951.0</ele><time>2026-05-02T14:58:16.859Z</time></trkpt><trkpt lat="42.1015533" lon="13.4312017"><ele>951.0</ele><time>2026-05-02T14:58:19.859Z</time></trkpt><trkpt lat="42.1015017" lon="13.4312767"><ele>951.0</ele><time>2026-05-02T14:58:37.858Z</time></trkpt><trkpt lat="42.1014467" lon="13.43132"><ele>951.0</ele><time>2026-05-02T14:58:38.858Z</time></trkpt><trkpt lat="42.10138" lon="13.431385"><ele>951.0</ele><time>2026-05-02T14:58:39.858Z</time></trkpt><trkpt lat="42.1013033" lon="13.4314533"><ele>951.0</ele><time>2026-05-02T14:58:40.859Z</time></trkpt><trkpt lat="42.1012133" lon="13.4315183"><ele>951.0</ele><time>2026-05-02T14:58:41.858Z</time></trkpt><trkpt lat="42.10112" lon="13.4315717"><ele>951.0</ele><time>2026-05-02T14:58:42.858Z</time></trkpt><trkpt lat="42.10103" lon="13.4316167"><ele>951.0</ele><time>2026-05-02T14:58:43.858Z</time></trkpt><trkpt lat="42.10095" lon="13.4316483"><ele>951.0</ele><time>2026-05-02T14:58:44.859Z</time></trkpt><trkpt lat="42.1008783" lon="13.4316767"><ele>951.0</ele><time>2026-05-02T14:58:45.859Z</time></trkpt><trkpt lat="42.1007617" lon="13.4317217"><ele>951.0</ele><time>2026-05-02T14:58:47.859Z</time></trkpt><trkpt lat="42.1006933" lon="13.4317583"><ele>951.0</ele><time>2026-05-02T14:58:48.859Z</time></trkpt><trkpt lat="42.1006233" lon="13.4318117"><ele>950.1666666666666</ele><time>2026-05-02T14:58:49.859Z</time></trkpt><trkpt lat="42.1005467" lon="13.43188"><ele>949.3333333333333</ele><time>2026-05-02T14:58:50.858Z</time></trkpt><trkpt lat="42.100475" lon="13.4319583"><ele>948.5</ele><time>2026-05-02T14:58:51.858Z</time></trkpt><trkpt lat="42.1004167" lon="13.4320317"><ele>947.6666666666666</ele><time>2026-05-02T14:58:52.858Z</time></trkpt><trkpt lat="42.10034" lon="13.4321183"><ele>946.8333333333333</ele><time>2026-05-02T14:58:54.858Z</time></trkpt><trkpt lat="42.10026" lon="13.4321033"><ele>946.0</ele><time>2026-05-02T14:59:30.858Z</time></trkpt><trkpt lat="42.100195" lon="13.4320583"><ele>945.9999999999999</ele><time>2026-05-02T14:59:34.858Z</time></trkpt><trkpt lat="42.10012" lon="13.432055"><ele>946.0</ele><time>2026-05-02T14:59:46.859Z</time></trkpt><trkpt lat="42.1000517" lon="13.4320733"><ele>946.0</ele><time>2026-05-02T14:59:50.859Z</time></trkpt><trkpt lat="42.0999983" lon="13.4320233"><ele>946.0</ele><time>2026-05-02T14:59:54.859Z</time></trkpt><trkpt lat="42.0999283" lon="13.43201"><ele>945.9999999999999</ele><time>2026-05-02T14:59:58.858Z</time></trkpt><trkpt lat="42.0998283" lon="13.43202"><ele>946.0</ele><time>2026-05-02T15:00:01.858Z</time></trkpt><trkpt lat="42.099725" lon="13.4320683"><ele>944.8333333333333</ele><time>2026-05-02T15:00:03.859Z</time></trkpt><trkpt lat="42.0996417" lon="13.4321167"><ele>943.6666666666666</ele><time>2026-05-02T15:00:05.859Z</time></trkpt><trkpt lat="42.09957" lon="13.4321183"><ele>942.5</ele><time>2026-05-02T15:02:35.858Z</time></trkpt><trkpt lat="42.0995017" lon="13.4321033"><ele>941.3333333333333</ele><time>2026-05-02T15:02:36.858Z</time></trkpt><trkpt lat="42.0994333" lon="13.4320767"><ele>940.1666666666666</ele><time>2026-05-02T15:02:37.858Z</time></trkpt><trkpt lat="42.099365" lon="13.4320383"><ele>939.0</ele><time>2026-05-02T15:02:38.858Z</time></trkpt><trkpt lat="42.09929" lon="13.4319933"><ele>939.0</ele><time>2026-05-02T15:02:39.858Z</time></trkpt><trkpt lat="42.0992017" lon="13.4319533"><ele>939.0000000000001</ele><time>2026-05-02T15:02:40.858Z</time></trkpt><trkpt lat="42.0991133" lon="13.4319033"><ele>939.0000000000001</ele><time>2026-05-02T15:02:41.858Z</time></trkpt><trkpt lat="42.0990317" lon="13.43183"><ele>939.0</ele><time>2026-05-02T15:02:42.858Z</time></trkpt><trkpt lat="42.0989517" lon="13.43173"><ele>939.0</ele><time>2026-05-02T15:02:43.858Z</time></trkpt><trkpt lat="42.098865" lon="13.4316167"><ele>938.5</ele><time>2026-05-02T15:02:44.858Z</time></trkpt><trkpt lat="42.0987767" lon="13.4314933"><ele>938.0</ele><time>2026-05-02T15:02:45.858Z</time></trkpt><trkpt lat="42.0986883" lon="13.4313683"><ele>937.5</ele><time>2026-05-02T15:02:46.858Z</time></trkpt><trkpt lat="42.098605" lon="13.4312567"><ele>937.0</ele><time>2026-05-02T15:02:47.858Z</time></trkpt><trkpt lat="42.0985183" lon="13.4311533"><ele>937.0</ele><time>2026-05-02T15:02:48.858Z</time></trkpt><trkpt lat="42.0984283" lon="13.4310617"><ele>937.0</ele><time>2026-05-02T15:02:49.858Z</time></trkpt><trkpt lat="42.0983483" lon="13.4309783"><ele>937.0</ele><time>2026-05-02T15:02:50.859Z</time></trkpt><trkpt lat="42.0982717" lon="13.4308817"><ele>937.0</ele><time>2026-05-02T15:02:51.859Z</time></trkpt><trkpt lat="42.0982067" lon="13.430775"><ele>937.0</ele><time>2026-05-02T15:02:52.858Z</time></trkpt><trkpt lat="42.09815" lon="13.430675"><ele>937.6</ele><time>2026-05-02T15:02:53.858Z</time></trkpt><trkpt lat="42.0980867" lon="13.4305867"><ele>938.2</ele><time>2026-05-02T15:02:54.859Z</time></trkpt><trkpt lat="42.0980233" lon="13.4305017"><ele>938.8</ele><time>2026-05-02T15:02:55.858Z</time></trkpt><trkpt lat="42.0979717" lon="13.43041"><ele>939.4</ele><time>2026-05-02T15:02:56.858Z</time></trkpt><trkpt lat="42.0979233" lon="13.4303017"><ele>940.0</ele><time>2026-05-02T15:02:57.858Z</time></trkpt><trkpt lat="42.097865" lon="13.4301817"><ele>940.0</ele><time>2026-05-02T15:02:58.858Z</time></trkpt><trkpt lat="42.097805" lon="13.4300583"><ele>940.0</ele><time>2026-05-02T15:02:59.858Z</time></trkpt><trkpt lat="42.0977567" lon="13.4299333"><ele>940.0</ele><time>2026-05-02T15:03:00.858Z</time></trkpt><trkpt lat="42.097705" lon="13.4297933"><ele>940.0</ele><time>2026-05-02T15:03:01.858Z</time></trkpt><trkpt lat="42.097655" lon="13.4296483"><ele>940.0</ele><time>2026-05-02T15:03:02.858Z</time></trkpt><trkpt lat="42.0976133" lon="13.4295017"><ele>938.25</ele><time>2026-05-02T15:03:03.859Z</time></trkpt><trkpt lat="42.0975767" lon="13.4293467"><ele>936.5</ele><time>2026-05-02T15:03:04.858Z</time></trkpt><trkpt lat="42.0975467" lon="13.4292033"><ele>934.75</ele><time>2026-05-02T15:03:05.859Z</time></trkpt><trkpt lat="42.0975117" lon="13.42905"><ele>933.0</ele><time>2026-05-02T15:03:06.859Z</time></trkpt><trkpt lat="42.09748" lon="13.4289"><ele>933.0</ele><time>2026-05-02T15:03:07.858Z</time></trkpt><trkpt lat="42.0974483" lon="13.428745"><ele>933.0</ele><time>2026-05-02T15:03:08.858Z</time></trkpt><trkpt lat="42.0974167" lon="13.4285967"><ele>933.0</ele><time>2026-05-02T15:03:09.859Z</time></trkpt><trkpt lat="42.0973683" lon="13.428465"><ele>933.0</ele><time>2026-05-02T15:03:10.858Z</time></trkpt><trkpt lat="42.0973317" lon="13.4283367"><ele>933.0</ele><time>2026-05-02T15:03:11.859Z</time></trkpt><trkpt lat="42.0972967" lon="13.4282117"><ele>933.1666666666666</ele><time>2026-05-02T15:03:12.859Z</time></trkpt><trkpt lat="42.09726" lon="13.4280967"><ele>933.3333333333333</ele><time>2026-05-02T15:03:13.858Z</time></trkpt><trkpt lat="42.09723" lon="13.4279933"><ele>933.5</ele><time>2026-05-02T15:03:14.859Z</time></trkpt><trkpt lat="42.097205" lon="13.42788"><ele>933.6666666666666</ele><time>2026-05-02T15:03:15.859Z</time></trkpt><trkpt lat="42.0971767" lon="13.427775"><ele>933.8333333333333</ele><time>2026-05-02T15:03:16.858Z</time></trkpt><trkpt lat="42.0971567" lon="13.4276733"><ele>934.0</ele><time>2026-05-02T15:03:17.858Z</time></trkpt><trkpt lat="42.097145" lon="13.4275567"><ele>934.0</ele><time>2026-05-02T15:03:18.858Z</time></trkpt><trkpt lat="42.09712" lon="13.42744"><ele>934.0000000000001</ele><time>2026-05-02T15:03:19.859Z</time></trkpt><trkpt lat="42.0970867" lon="13.42731"><ele>934.0000000000001</ele><time>2026-05-02T15:03:20.859Z</time></trkpt><trkpt lat="42.0970617" lon="13.42717"><ele>934.0</ele><time>2026-05-02T15:03:21.858Z</time></trkpt><trkpt lat="42.0970383" lon="13.42703"><ele>934.0</ele><time>2026-05-02T15:03:22.859Z</time></trkpt><trkpt lat="42.0970133" lon="13.426885"><ele>932.6</ele><time>2026-05-02T15:03:23.859Z</time></trkpt><trkpt lat="42.0969867" lon="13.4267383"><ele>931.2</ele><time>2026-05-02T15:03:24.858Z</time></trkpt><trkpt lat="42.0969717" lon="13.4265933"><ele>929.8000000000001</ele><time>2026-05-02T15:03:25.858Z</time></trkpt><trkpt lat="42.0969517" lon="13.42646"><ele>928.4000000000001</ele><time>2026-05-02T15:03:26.858Z</time></trkpt><trkpt lat="42.0969317" lon="13.4263233"><ele>927.0</ele><time>2026-05-02T15:03:27.859Z</time></trkpt><trkpt lat="42.09691" lon="13.4261917"><ele>926.2</ele><time>2026-05-02T15:03:28.858Z</time></trkpt><trkpt lat="42.09688" lon="13.426055"><ele>925.4000000000001</ele><time>2026-05-02T15:03:29.858Z</time></trkpt><trkpt lat="42.0968533" lon="13.4259167"><ele>924.5999999999999</ele><time>2026-05-02T15:03:30.858Z</time></trkpt><trkpt lat="42.0968283" lon="13.4257767"><ele>923.8</ele><time>2026-05-02T15:03:31.858Z</time></trkpt><trkpt lat="42.096805" lon="13.4256317"><ele>923.0</ele><time>2026-05-02T15:03:32.858Z</time></trkpt><trkpt lat="42.09677" lon="13.4254933"><ele>922.0</ele><time>2026-05-02T15:03:33.859Z</time></trkpt><trkpt lat="42.0967317" lon="13.4253583"><ele>921.0</ele><time>2026-05-02T15:03:34.858Z</time></trkpt><trkpt lat="42.096695" lon="13.4252117"><ele>920.0</ele><time>2026-05-02T15:03:35.859Z</time></trkpt><trkpt lat="42.0966583" lon="13.42506"><ele>919.0</ele><time>2026-05-02T15:03:36.858Z</time></trkpt><trkpt lat="42.096615" lon="13.4249083"><ele>919.5</ele><time>2026-05-02T15:03:37.858Z</time></trkpt><trkpt lat="42.09657" lon="13.4247617"><ele>920.0</ele><time>2026-05-02T15:03:38.859Z</time></trkpt><trkpt lat="42.096515" lon="13.4246183"><ele>920.5</ele><time>2026-05-02T15:03:39.858Z</time></trkpt><trkpt lat="42.09646" lon="13.4244867"><ele>921.0</ele><time>2026-05-02T15:03:40.858Z</time></trkpt><trkpt lat="42.0963967" lon="13.4243583"><ele>921.0</ele><time>2026-05-02T15:03:41.859Z</time></trkpt><trkpt lat="42.0963317" lon="13.4242383"><ele>920.9999999999999</ele><time>2026-05-02T15:03:42.858Z</time></trkpt><trkpt lat="42.0962683" lon="13.4241233"><ele>920.9999999999999</ele><time>2026-05-02T15:03:43.858Z</time></trkpt><trkpt lat="42.0962" lon="13.4240117"><ele>921.0</ele><time>2026-05-02T15:03:44.858Z</time></trkpt><trkpt lat="42.096135" lon="13.4239067"><ele>921.0</ele><time>2026-05-02T15:03:45.859Z</time></trkpt><trkpt lat="42.0960733" lon="13.4238017"><ele>919.4</ele><time>2026-05-02T15:03:46.859Z</time></trkpt><trkpt lat="42.096015" lon="13.4236883"><ele>917.8</ele><time>2026-05-02T15:03:47.858Z</time></trkpt><trkpt lat="42.095955" lon="13.423565"><ele>916.1999999999999</ele><time>2026-05-02T15:03:48.858Z</time></trkpt><trkpt lat="42.0958983" lon="13.4234283"><ele>914.5999999999999</ele><time>2026-05-02T15:03:49.858Z</time></trkpt><trkpt lat="42.0958441" lon="13.4233084"><ele>913.0</ele><time>2026-05-02T15:03:50.858Z</time></trkpt><trkpt lat="42.0957935" lon="13.4231802"><ele>915.8</ele><time>2026-05-02T15:03:51.858Z</time></trkpt><trkpt lat="42.0957499" lon="13.4230449"><ele>918.5999999999999</ele><time>2026-05-02T15:03:52.859Z</time></trkpt><trkpt lat="42.0957058" lon="13.4229154"><ele>921.4000000000001</ele><time>2026-05-02T15:03:53.859Z</time></trkpt><trkpt lat="42.0956678" lon="13.4227963"><ele>924.2</ele><time>2026-05-02T15:03:54.859Z</time></trkpt><trkpt lat="42.0956398" lon="13.4226711"><ele>927.0</ele><time>2026-05-02T15:03:55.858Z</time></trkpt><trkpt lat="42.0956238" lon="13.4225376"><ele>927.0</ele><time>2026-05-02T15:03:56.858Z</time></trkpt><trkpt lat="42.0956095" lon="13.4223947"><ele>927.0</ele><time>2026-05-02T15:03:57.859Z</time></trkpt><trkpt lat="42.0955951" lon="13.4222392"><ele>927.0</ele><time>2026-05-02T15:03:58.859Z</time></trkpt><trkpt lat="42.0955841" lon="13.4220763"><ele>927.0</ele><time>2026-05-02T15:03:59.859Z</time></trkpt><trkpt lat="42.0955704" lon="13.4219105"><ele>925.75</ele><time>2026-05-02T15:04:00.858Z</time></trkpt><trkpt lat="42.0955615" lon="13.4217464"><ele>924.5</ele><time>2026-05-02T15:04:01.859Z</time></trkpt><trkpt lat="42.0955578" lon="13.421586"><ele>923.25</ele><time>2026-05-02T15:04:02.858Z</time></trkpt><trkpt lat="42.0955527" lon="13.4214218"><ele>922.0</ele><time>2026-05-02T15:04:03.859Z</time></trkpt><trkpt lat="42.0955453" lon="13.4212581"><ele>920.0</ele><time>2026-05-02T15:04:04.859Z</time></trkpt><trkpt lat="42.0955385" lon="13.4211008"><ele>918.0</ele><time>2026-05-02T15:04:05.859Z</time></trkpt><trkpt lat="42.0955341" lon="13.4209419"><ele>916.0</ele><time>2026-05-02T15:04:06.858Z</time></trkpt><trkpt lat="42.0955342" lon="13.4207824"><ele>914.0</ele><time>2026-05-02T15:04:07.859Z</time></trkpt><trkpt lat="42.095538" lon="13.42063"><ele>913.8000000000001</ele><time>2026-05-02T15:04:08.859Z</time></trkpt><trkpt lat="42.095541" lon="13.4204829"><ele>913.6000000000001</ele><time>2026-05-02T15:04:09.858Z</time></trkpt><trkpt lat="42.0955361" lon="13.4203327"><ele>913.4</ele><time>2026-05-02T15:04:10.858Z</time></trkpt><trkpt lat="42.0955203" lon="13.420189"><ele>913.2</ele><time>2026-05-02T15:04:11.858Z</time></trkpt><trkpt lat="42.0954987" lon="13.4200467"><ele>913.0</ele><time>2026-05-02T15:04:12.858Z</time></trkpt><trkpt lat="42.0954777" lon="13.4199059"><ele>913.0</ele><time>2026-05-02T15:04:13.859Z</time></trkpt><trkpt lat="42.0954653" lon="13.4197712"><ele>913.0</ele><time>2026-05-02T15:04:14.858Z</time></trkpt><trkpt lat="42.0954643" lon="13.4196335"><ele>913.0</ele><time>2026-05-02T15:04:15.858Z</time></trkpt><trkpt lat="42.0954634" lon="13.4194937"><ele>913.0</ele><time>2026-05-02T15:04:16.859Z</time></trkpt><trkpt lat="42.0954663" lon="13.4193533"><ele>913.0</ele><time>2026-05-02T15:04:17.858Z</time></trkpt><trkpt lat="42.0954692" lon="13.4192101"><ele>912.2</ele><time>2026-05-02T15:04:18.858Z</time></trkpt><trkpt lat="42.0954676" lon="13.4190723"><ele>911.4</ele><time>2026-05-02T15:04:19.859Z</time></trkpt><trkpt lat="42.0954696" lon="13.4189317"><ele>910.6000000000001</ele><time>2026-05-02T15:04:20.859Z</time></trkpt><trkpt lat="42.0954648" lon="13.4187986"><ele>909.8000000000001</ele><time>2026-05-02T15:04:21.858Z</time></trkpt><trkpt lat="42.0954621" lon="13.4186644"><ele>909.0</ele><time>2026-05-02T15:04:22.859Z</time></trkpt><trkpt lat="42.0954568" lon="13.4185284"><ele>908.0</ele><time>2026-05-02T15:04:23.859Z</time></trkpt><trkpt lat="42.0954501" lon="13.4183893"><ele>907.0000000000001</ele><time>2026-05-02T15:04:24.858Z</time></trkpt><trkpt lat="42.0954489" lon="13.4182445"><ele>906.0000000000001</ele><time>2026-05-02T15:04:25.858Z</time></trkpt><trkpt lat="42.0954534" lon="13.4181059"><ele>905.0</ele><time>2026-05-02T15:04:26.858Z</time></trkpt><trkpt lat="42.095456" lon="13.4179696"><ele>904.0</ele><time>2026-05-02T15:04:27.858Z</time></trkpt><trkpt lat="42.0954479" lon="13.4178431"><ele>903.0</ele><time>2026-05-02T15:04:28.858Z</time></trkpt><trkpt lat="42.0954277" lon="13.4177088"><ele>902.0000000000001</ele><time>2026-05-02T15:04:29.859Z</time></trkpt><trkpt lat="42.0953949" lon="13.4175726"><ele>901.0000000000001</ele><time>2026-05-02T15:04:30.859Z</time></trkpt><trkpt lat="42.0953622" lon="13.4174354"><ele>900.0</ele><time>2026-05-02T15:04:31.858Z</time></trkpt><trkpt lat="42.0953326" lon="13.4172998"><ele>899.0</ele><time>2026-05-02T15:04:32.858Z</time></trkpt><trkpt lat="42.0953126" lon="13.4171571"><ele>898.0000000000001</ele><time>2026-05-02T15:04:33.859Z</time></trkpt><trkpt lat="42.0952927" lon="13.4170227"><ele>897.0</ele><time>2026-05-02T15:04:34.858Z</time></trkpt><trkpt lat="42.0952722" lon="13.4168936"><ele>896.0</ele><time>2026-05-02T15:04:35.858Z</time></trkpt><trkpt lat="42.0952579" lon="13.4167808"><ele>895.0</ele><time>2026-05-02T15:04:36.858Z</time></trkpt><trkpt lat="42.0952466" lon="13.4166949"><ele>894.0000000000001</ele><time>2026-05-02T15:04:37.858Z</time></trkpt><trkpt lat="42.095225" lon="13.4165917"><ele>893.0</ele><time>2026-05-02T15:04:39.859Z</time></trkpt><trkpt lat="42.0952117" lon="13.416505"><ele>893.0</ele><time>2026-05-02T15:04:42.858Z</time></trkpt><trkpt lat="42.0953183" lon="13.4164517"><ele>893.0</ele><time>2026-05-02T15:04:45.859Z</time></trkpt><trkpt lat="42.0954283" lon="13.4163783"><ele>893.0</ele><time>2026-05-02T15:04:47.858Z</time></trkpt><trkpt lat="42.0954867" lon="13.41631"><ele>893.0</ele><time>2026-05-02T15:04:48.859Z</time></trkpt><trkpt lat="42.0955433" lon="13.4162183"><ele>893.0</ele><time>2026-05-02T15:04:49.858Z</time></trkpt><trkpt lat="42.0955933" lon="13.4161217"><ele>892.1666666666667</ele><time>2026-05-02T15:04:50.859Z</time></trkpt><trkpt lat="42.095635" lon="13.4160117"><ele>891.3333333333334</ele><time>2026-05-02T15:04:51.859Z</time></trkpt><trkpt lat="42.095665" lon="13.41589"><ele>890.5</ele><time>2026-05-02T15:04:52.859Z</time></trkpt><trkpt lat="42.0956667" lon="13.4157767"><ele>889.6666666666667</ele><time>2026-05-02T15:04:53.858Z</time></trkpt><trkpt lat="42.0956633" lon="13.415675"><ele>888.8333333333334</ele><time>2026-05-02T15:04:54.859Z</time></trkpt><trkpt lat="42.0956717" lon="13.41558"><ele>888.0</ele><time>2026-05-02T15:04:55.859Z</time></trkpt><trkpt lat="42.095725" lon="13.4154333"><ele>889.4</ele><time>2026-05-02T15:04:57.859Z</time></trkpt><trkpt lat="42.09578" lon="13.41535"><ele>890.8</ele><time>2026-05-02T15:04:58.859Z</time></trkpt><trkpt lat="42.095845" lon="13.4152567"><ele>892.2</ele><time>2026-05-02T15:04:59.859Z</time></trkpt><trkpt lat="42.0959117" lon="13.4151567"><ele>893.6</ele><time>2026-05-02T15:05:00.858Z</time></trkpt><trkpt lat="42.0959867" lon="13.41506"><ele>895.0</ele><time>2026-05-02T15:05:01.859Z</time></trkpt><trkpt lat="42.0960583" lon="13.4149783"><ele>895.0</ele><time>2026-05-02T15:05:02.858Z</time></trkpt><trkpt lat="42.0961267" lon="13.4149117"><ele>895.0</ele><time>2026-05-02T15:05:03.858Z</time></trkpt><trkpt lat="42.0961983" lon="13.4148533"><ele>895.0</ele><time>2026-05-02T15:05:04.858Z</time></trkpt><trkpt lat="42.09628" lon="13.4147983"><ele>895.0</ele><time>2026-05-02T15:05:05.858Z</time></trkpt><trkpt lat="42.09637" lon="13.4147383"><ele>895.0</ele><time>2026-05-02T15:05:06.858Z</time></trkpt><trkpt lat="42.0964717" lon="13.4146767"><ele>895.8</ele><time>2026-05-02T15:05:07.858Z</time></trkpt><trkpt lat="42.0965733" lon="13.41461"><ele>896.6</ele><time>2026-05-02T15:05:08.858Z</time></trkpt><trkpt lat="42.0966617" lon="13.4145467"><ele>897.4000000000001</ele><time>2026-05-02T15:05:09.859Z</time></trkpt><trkpt lat="42.09675" lon="13.4144917"><ele>898.2</ele><time>2026-05-02T15:05:10.858Z</time></trkpt><trkpt lat="42.0968367" lon="13.41444"><ele>899.0</ele><time>2026-05-02T15:05:11.859Z</time></trkpt><trkpt lat="42.0969217" lon="13.4143933"><ele>899.0</ele><time>2026-05-02T15:05:12.858Z</time></trkpt><trkpt lat="42.0970083" lon="13.4143533"><ele>899.0000000000001</ele><time>2026-05-02T15:05:13.858Z</time></trkpt><trkpt lat="42.097095" lon="13.414315"><ele>899.0000000000001</ele><time>2026-05-02T15:05:14.858Z</time></trkpt><trkpt lat="42.097175" lon="13.41427"><ele>899.0</ele><time>2026-05-02T15:05:15.859Z</time></trkpt><trkpt lat="42.0972533" lon="13.4141983"><ele>899.0</ele><time>2026-05-02T15:05:16.859Z</time></trkpt><trkpt lat="42.0973167" lon="13.4141117"><ele>899.0000000000001</ele><time>2026-05-02T15:05:17.858Z</time></trkpt><trkpt lat="42.0973867" lon="13.4140217"><ele>899.0</ele><time>2026-05-02T15:05:18.858Z</time></trkpt><trkpt lat="42.09746" lon="13.4139467"><ele>899.0</ele><time>2026-05-02T15:05:19.858Z</time></trkpt><trkpt lat="42.0975367" lon="13.413885"><ele>899.0</ele><time>2026-05-02T15:05:20.859Z</time></trkpt><trkpt lat="42.097615" lon="13.4138333"><ele>899.0000000000001</ele><time>2026-05-02T15:05:21.859Z</time></trkpt><trkpt lat="42.097695" lon="13.4138"><ele>899.0</ele><time>2026-05-02T15:05:22.859Z</time></trkpt><trkpt lat="42.097785" lon="13.4137733"><ele>898.8333333333334</ele><time>2026-05-02T15:05:23.858Z</time></trkpt><trkpt lat="42.0978633" lon="13.4137483"><ele>898.6666666666667</ele><time>2026-05-02T15:05:24.859Z</time></trkpt><trkpt lat="42.0979417" lon="13.4137317"><ele>898.5</ele><time>2026-05-02T15:05:25.859Z</time></trkpt><trkpt lat="42.09802" lon="13.41372"><ele>898.3333333333333</ele><time>2026-05-02T15:05:26.858Z</time></trkpt><trkpt lat="42.0980933" lon="13.4137117"><ele>898.1666666666666</ele><time>2026-05-02T15:05:27.859Z</time></trkpt><trkpt lat="42.0981733" lon="13.4137167"><ele>898.0</ele><time>2026-05-02T15:05:28.858Z</time></trkpt><trkpt lat="42.0982633" lon="13.4137417"><ele>898.0</ele><time>2026-05-02T15:05:29.858Z</time></trkpt><trkpt lat="42.0983583" lon="13.413785"><ele>898.0</ele><time>2026-05-02T15:05:30.859Z</time></trkpt><trkpt lat="42.0984517" lon="13.4138417"><ele>898.0</ele><time>2026-05-02T15:05:31.858Z</time></trkpt><trkpt lat="42.0985417" lon="13.413895"><ele>898.0</ele><time>2026-05-02T15:05:32.858Z</time></trkpt><trkpt lat="42.0986233" lon="13.413945"><ele>898.0</ele><time>2026-05-02T15:05:33.859Z</time></trkpt><trkpt lat="42.0987017" lon="13.4139917"><ele>898.8</ele><time>2026-05-02T15:05:34.858Z</time></trkpt><trkpt lat="42.0987783" lon="13.41404"><ele>899.5999999999999</ele><time>2026-05-02T15:05:35.858Z</time></trkpt><trkpt lat="42.0988467" lon="13.4140883"><ele>900.4000000000001</ele><time>2026-05-02T15:05:36.859Z</time></trkpt><trkpt lat="42.0989433" lon="13.4141583"><ele>901.2</ele><time>2026-05-02T15:05:38.858Z</time></trkpt><trkpt lat="42.0990383" lon="13.4142467"><ele>902.0</ele><time>2026-05-02T15:05:40.859Z</time></trkpt><trkpt lat="42.0990817" lon="13.4143133"><ele>902.0</ele><time>2026-05-02T15:05:41.859Z</time></trkpt><trkpt lat="42.0991217" lon="13.4143917"><ele>902.0</ele><time>2026-05-02T15:05:42.858Z</time></trkpt><trkpt lat="42.099165" lon="13.41447"><ele>902.0</ele><time>2026-05-02T15:05:43.858Z</time></trkpt><trkpt lat="42.0992233" lon="13.4145683"><ele>902.0</ele><time>2026-05-02T15:05:45.858Z</time></trkpt><trkpt lat="42.0992933" lon="13.4146017"><ele>902.0</ele><time>2026-05-02T15:05:48.859Z</time></trkpt><trkpt lat="42.0992783" lon="13.4145183"><ele>902.0</ele><time>2026-05-02T15:05:51.859Z</time></trkpt><trkpt lat="42.0992217" lon="13.4144767"><ele>902.0</ele><time>2026-05-02T15:05:53.858Z</time></trkpt><trkpt lat="42.099165" lon="13.4144317"><ele>902.0000000000001</ele><time>2026-05-02T15:05:55.859Z</time></trkpt><trkpt lat="42.0991067" lon="13.4143717"><ele>902.0</ele><time>2026-05-02T15:05:57.858Z</time></trkpt><trkpt lat="42.0990433" lon="13.4142767"><ele>902.0</ele><time>2026-05-02T15:06:00.858Z</time></trkpt><trkpt lat="42.0989717" lon="13.4142"><ele>902.0</ele><time>2026-05-02T15:06:03.858Z</time></trkpt><trkpt lat="42.0989167" lon="13.41415"><ele>902.0000000000001</ele><time>2026-05-02T15:06:05.859Z</time></trkpt><trkpt lat="42.098825" lon="13.414085"><ele>902.0</ele><time>2026-05-02T15:06:07.859Z</time></trkpt><trkpt lat="42.09876" lon="13.4140417"><ele>902.0000000000001</ele><time>2026-05-02T15:06:08.858Z</time></trkpt><trkpt lat="42.0986817" lon="13.41399"><ele>902.0</ele><time>2026-05-02T15:06:09.858Z</time></trkpt><trkpt lat="42.0985933" lon="13.4139417"><ele>902.0</ele><time>2026-05-02T15:06:10.858Z</time></trkpt><trkpt lat="42.0985033" lon="13.4138883"><ele>902.0</ele><time>2026-05-02T15:06:11.858Z</time></trkpt><trkpt lat="42.0984217" lon="13.41384"><ele>902.0000000000001</ele><time>2026-05-02T15:06:12.858Z</time></trkpt><trkpt lat="42.098355" lon="13.4138017"><ele>902.0</ele><time>2026-05-02T15:06:13.859Z</time></trkpt><trkpt lat="42.0982983" lon="13.4137583"><ele>901.2</ele><time>2026-05-02T15:06:14.858Z</time></trkpt><trkpt lat="42.0982383" lon="13.413665"><ele>900.4000000000001</ele><time>2026-05-02T15:06:16.859Z</time></trkpt><trkpt lat="42.0982683" lon="13.4135633"><ele>899.5999999999999</ele><time>2026-05-02T15:06:18.858Z</time></trkpt><trkpt lat="42.0983467" lon="13.4134667"><ele>898.8</ele><time>2026-05-02T15:06:20.858Z</time></trkpt><trkpt lat="42.098405" lon="13.4134217"><ele>898.0</ele><time>2026-05-02T15:06:21.858Z</time></trkpt><trkpt lat="42.098515" lon="13.4133367"><ele>897.9999999999999</ele><time>2026-05-02T15:06:23.859Z</time></trkpt><trkpt lat="42.0985733" lon="13.4132883"><ele>898.0</ele><time>2026-05-02T15:06:24.859Z</time></trkpt><trkpt lat="42.0986283" lon="13.4132317"><ele>898.0</ele><time>2026-05-02T15:06:25.859Z</time></trkpt><trkpt lat="42.0986817" lon="13.4131767"><ele>898.0</ele><time>2026-05-02T15:06:26.859Z</time></trkpt><trkpt lat="42.0987617" lon="13.41309"><ele>897.9999999999999</ele><time>2026-05-02T15:06:28.858Z</time></trkpt><trkpt lat="42.0988217" lon="13.4130017"><ele>898.0</ele><time>2026-05-02T15:06:30.858Z</time></trkpt><trkpt lat="42.09891" lon="13.4128783"><ele>897.4</ele><time>2026-05-02T15:06:32.859Z</time></trkpt><trkpt lat="42.09897" lon="13.4128033"><ele>896.8</ele><time>2026-05-02T15:06:33.858Z</time></trkpt><trkpt lat="42.099035" lon="13.41272"><ele>896.2</ele><time>2026-05-02T15:06:34.858Z</time></trkpt><trkpt lat="42.0990983" lon="13.41261"><ele>895.6</ele><time>2026-05-02T15:06:35.858Z</time></trkpt><trkpt lat="42.09916" lon="13.4125017"><ele>895.0</ele><time>2026-05-02T15:06:36.859Z</time></trkpt><trkpt lat="42.0992183" lon="13.41238"><ele>894.8</ele><time>2026-05-02T15:06:37.858Z</time></trkpt><trkpt lat="42.0992683" lon="13.412255"><ele>894.6</ele><time>2026-05-02T15:06:38.859Z</time></trkpt><trkpt lat="42.099315" lon="13.4121267"><ele>894.4000000000001</ele><time>2026-05-02T15:06:39.858Z</time></trkpt><trkpt lat="42.099365" lon="13.4120033"><ele>894.2</ele><time>2026-05-02T15:06:40.858Z</time></trkpt><trkpt lat="42.0994267" lon="13.4118817"><ele>894.0</ele><time>2026-05-02T15:06:41.859Z</time></trkpt><trkpt lat="42.09949" lon="13.41177"><ele>893.1666666666666</ele><time>2026-05-02T15:06:42.859Z</time></trkpt><trkpt lat="42.0995617" lon="13.411665"><ele>892.3333333333333</ele><time>2026-05-02T15:06:43.858Z</time></trkpt><trkpt lat="42.0996217" lon="13.4115683"><ele>891.5</ele><time>2026-05-02T15:06:44.859Z</time></trkpt><trkpt lat="42.0996767" lon="13.4114883"><ele>890.6666666666666</ele><time>2026-05-02T15:06:45.858Z</time></trkpt><trkpt lat="42.0997333" lon="13.411435"><ele>889.8333333333333</ele><time>2026-05-02T15:06:46.859Z</time></trkpt><trkpt lat="42.0998033" lon="13.4114033"><ele>889.0</ele><time>2026-05-02T15:06:47.858Z</time></trkpt><trkpt lat="42.099875" lon="13.4113733"><ele>888.8571428571429</ele><time>2026-05-02T15:06:48.858Z</time></trkpt><trkpt lat="42.09994" lon="13.41134"><ele>888.7142857142858</ele><time>2026-05-02T15:06:49.858Z</time></trkpt><trkpt lat="42.0999983" lon="13.4112817"><ele>888.5714285714286</ele><time>2026-05-02T15:06:50.858Z</time></trkpt><trkpt lat="42.1000517" lon="13.41121"><ele>888.4285714285714</ele><time>2026-05-02T15:06:51.858Z</time></trkpt><trkpt lat="42.1000933" lon="13.4111367"><ele>888.2857142857143</ele><time>2026-05-02T15:06:52.859Z</time></trkpt><trkpt lat="42.10014" lon="13.4110667"><ele>888.1428571428571</ele><time>2026-05-02T15:06:53.858Z</time></trkpt><trkpt lat="42.10019" lon="13.410985"><ele>888.0</ele><time>2026-05-02T15:06:54.858Z</time></trkpt><trkpt lat="42.1002383" lon="13.4108983"><ele>887.4</ele><time>2026-05-02T15:06:55.858Z</time></trkpt><trkpt lat="42.10029" lon="13.4108033"><ele>886.8</ele><time>2026-05-02T15:06:56.859Z</time></trkpt><trkpt lat="42.1003517" lon="13.4107067"><ele>886.2</ele><time>2026-05-02T15:06:57.859Z</time></trkpt><trkpt lat="42.1004183" lon="13.410605"><ele>885.6</ele><time>2026-05-02T15:06:58.858Z</time></trkpt><trkpt lat="42.100475" lon="13.4105033"><ele>885.0</ele><time>2026-05-02T15:06:59.858Z</time></trkpt><trkpt lat="42.1005333" lon="13.4104017"><ele>884.2</ele><time>2026-05-02T15:07:00.859Z</time></trkpt><trkpt lat="42.100585" lon="13.4102967"><ele>883.4</ele><time>2026-05-02T15:07:01.858Z</time></trkpt><trkpt lat="42.1006367" lon="13.4101833"><ele>882.5999999999999</ele><time>2026-05-02T15:07:02.859Z</time></trkpt><trkpt lat="42.1006833" lon="13.4100533"><ele>881.8</ele><time>2026-05-02T15:07:03.859Z</time></trkpt><trkpt lat="42.10073" lon="13.409925"><ele>881.0</ele><time>2026-05-02T15:07:04.858Z</time></trkpt><trkpt lat="42.1007733" lon="13.4098"><ele>880.8</ele><time>2026-05-02T15:07:05.858Z</time></trkpt><trkpt lat="42.1008217" lon="13.4096767"><ele>880.5999999999999</ele><time>2026-05-02T15:07:06.859Z</time></trkpt><trkpt lat="42.1008667" lon="13.4095483"><ele>880.4</ele><time>2026-05-02T15:07:07.858Z</time></trkpt><trkpt lat="42.100905" lon="13.4094217"><ele>880.2</ele><time>2026-05-02T15:07:08.858Z</time></trkpt><trkpt lat="42.1009467" lon="13.4092917"><ele>880.0</ele><time>2026-05-02T15:07:09.858Z</time></trkpt><trkpt lat="42.1009967" lon="13.4091633"><ele>879.0</ele><time>2026-05-02T15:07:10.859Z</time></trkpt><trkpt lat="42.1010467" lon="13.4090417"><ele>878.0</ele><time>2026-05-02T15:07:11.859Z</time></trkpt><trkpt lat="42.1010967" lon="13.4089117"><ele>877.0</ele><time>2026-05-02T15:07:12.858Z</time></trkpt><trkpt lat="42.10115" lon="13.4087883"><ele>876.0</ele><time>2026-05-02T15:07:13.858Z</time></trkpt><trkpt lat="42.1012083" lon="13.4086567"><ele>875.0</ele><time>2026-05-02T15:07:14.858Z</time></trkpt><trkpt lat="42.1012517" lon="13.4085217"><ele>874.0</ele><time>2026-05-02T15:07:15.859Z</time></trkpt><trkpt lat="42.101285" lon="13.4083933"><ele>873.0</ele><time>2026-05-02T15:07:16.858Z</time></trkpt><trkpt lat="42.101325" lon="13.40826"><ele>872.0</ele><time>2026-05-02T15:07:17.858Z</time></trkpt><trkpt lat="42.1013683" lon="13.4081217"><ele>871.0</ele><time>2026-05-02T15:07:18.858Z</time></trkpt><trkpt lat="42.1013917" lon="13.4079817"><ele>870.0</ele><time>2026-05-02T15:07:19.858Z</time></trkpt><trkpt lat="42.1014183" lon="13.407855"><ele>869.6</ele><time>2026-05-02T15:07:20.858Z</time></trkpt><trkpt lat="42.101455" lon="13.4077133"><ele>869.2</ele><time>2026-05-02T15:07:21.858Z</time></trkpt><trkpt lat="42.1015067" lon="13.4075767"><ele>868.8</ele><time>2026-05-02T15:07:22.858Z</time></trkpt><trkpt lat="42.1015633" lon="13.4074433"><ele>868.4</ele><time>2026-05-02T15:07:23.858Z</time></trkpt><trkpt lat="42.1016167" lon="13.4073217"><ele>868.0</ele><time>2026-05-02T15:07:24.858Z</time></trkpt><trkpt lat="42.1016667" lon="13.4072"><ele>866.4</ele><time>2026-05-02T15:07:25.859Z</time></trkpt><trkpt lat="42.1017167" lon="13.4070833"><ele>864.8</ele><time>2026-05-02T15:07:26.858Z</time></trkpt><trkpt lat="42.1017667" lon="13.4069767"><ele>863.2</ele><time>2026-05-02T15:07:27.858Z</time></trkpt><trkpt lat="42.1018067" lon="13.4068667"><ele>861.6</ele><time>2026-05-02T15:07:28.859Z</time></trkpt><trkpt lat="42.101855" lon="13.4067733"><ele>860.0</ele><time>2026-05-02T15:07:29.859Z</time></trkpt><trkpt lat="42.1019067" lon="13.4066817"><ele>860.0</ele><time>2026-05-02T15:07:30.858Z</time></trkpt><trkpt lat="42.1019683" lon="13.406605"><ele>860.0</ele><time>2026-05-02T15:07:31.858Z</time></trkpt><trkpt lat="42.1020467" lon="13.4065283"><ele>860.0</ele><time>2026-05-02T15:07:32.859Z</time></trkpt><trkpt lat="42.102135" lon="13.4064517"><ele>860.0</ele><time>2026-05-02T15:07:33.858Z</time></trkpt><trkpt lat="42.1022217" lon="13.4063717"><ele>860.0</ele><time>2026-05-02T15:07:34.859Z</time></trkpt><trkpt lat="42.1022967" lon="13.40629"><ele>859.0</ele><time>2026-05-02T15:07:35.858Z</time></trkpt><trkpt lat="42.102365" lon="13.4062"><ele>858.0</ele><time>2026-05-02T15:07:36.858Z</time></trkpt><trkpt lat="42.1024233" lon="13.4061"><ele>857.0</ele><time>2026-05-02T15:07:37.858Z</time></trkpt><trkpt lat="42.1024817" lon="13.4059983"><ele>856.0</ele><time>2026-05-02T15:07:38.859Z</time></trkpt><trkpt lat="42.1025317" lon="13.405905"><ele>855.0</ele><time>2026-05-02T15:07:39.859Z</time></trkpt><trkpt lat="42.1025767" lon="13.40581"><ele>854.8333333333334</ele><time>2026-05-02T15:07:40.858Z</time></trkpt><trkpt lat="42.1026067" lon="13.4057117"><ele>854.6666666666667</ele><time>2026-05-02T15:07:41.858Z</time></trkpt><trkpt lat="42.102625" lon="13.4056233"><ele>854.5</ele><time>2026-05-02T15:07:42.859Z</time></trkpt><trkpt lat="42.102645" lon="13.4055417"><ele>854.3333333333334</ele><time>2026-05-02T15:07:44.859Z</time></trkpt><trkpt lat="42.1026683" lon="13.4054333"><ele>854.1666666666667</ele><time>2026-05-02T15:08:10.858Z</time></trkpt><trkpt lat="42.1027217" lon="13.405275"><ele>854.0</ele><time>2026-05-02T15:08:12.859Z</time></trkpt><trkpt lat="42.1027583" lon="13.40518"><ele>853.4000000000001</ele><time>2026-05-02T15:08:13.859Z</time></trkpt><trkpt lat="42.1028" lon="13.4050733"><ele>852.8000000000001</ele><time>2026-05-02T15:08:14.859Z</time></trkpt><trkpt lat="42.1028417" lon="13.4049533"><ele>852.2</ele><time>2026-05-02T15:08:15.859Z</time></trkpt><trkpt lat="42.102885" lon="13.404825"><ele>851.5999999999999</ele><time>2026-05-02T15:08:16.858Z</time></trkpt><trkpt lat="42.102925" lon="13.4046967"><ele>851.0</ele><time>2026-05-02T15:08:17.858Z</time></trkpt><trkpt lat="42.1029617" lon="13.404575"><ele>850.25</ele><time>2026-05-02T15:08:18.859Z</time></trkpt><trkpt lat="42.103" lon="13.4044367"><ele>849.5</ele><time>2026-05-02T15:08:19.858Z</time></trkpt><trkpt lat="42.1030433" lon="13.4042933"><ele>848.75</ele><time>2026-05-02T15:08:20.859Z</time></trkpt><trkpt lat="42.103094" lon="13.4041558"><ele>848.0</ele><time>2026-05-02T15:08:21.858Z</time></trkpt><trkpt lat="42.1031483" lon="13.4040222"><ele>848.0</ele><time>2026-05-02T15:08:22.859Z</time></trkpt><trkpt lat="42.1032025" lon="13.4038842"><ele>848.0</ele><time>2026-05-02T15:08:23.859Z</time></trkpt><trkpt lat="42.1032629" lon="13.4037555"><ele>848.0</ele><time>2026-05-02T15:08:24.859Z</time></trkpt><trkpt lat="42.1033264" lon="13.4036325"><ele>848.0</ele><time>2026-05-02T15:08:25.858Z</time></trkpt><trkpt lat="42.1033892" lon="13.4035146"><ele>848.0</ele><time>2026-05-02T15:08:26.859Z</time></trkpt><trkpt lat="42.1034496" lon="13.4033825"><ele>847.0</ele><time>2026-05-02T15:08:27.859Z</time></trkpt><trkpt lat="42.1035091" lon="13.4032535"><ele>846.0</ele><time>2026-05-02T15:08:28.858Z</time></trkpt><trkpt lat="42.1035708" lon="13.4031197"><ele>845.0</ele><time>2026-05-02T15:08:29.858Z</time></trkpt><trkpt lat="42.1036273" lon="13.4029843"><ele>844.0</ele><time>2026-05-02T15:08:30.859Z</time></trkpt><trkpt lat="42.1036909" lon="13.402849"><ele>843.0</ele><time>2026-05-02T15:08:31.859Z</time></trkpt><trkpt lat="42.103763" lon="13.4027129"><ele>842.0</ele><time>2026-05-02T15:08:32.858Z</time></trkpt><trkpt lat="42.1038401" lon="13.4025783"><ele>841.0</ele><time>2026-05-02T15:08:33.858Z</time></trkpt><trkpt lat="42.1039158" lon="13.4024543"><ele>840.0</ele><time>2026-05-02T15:08:34.858Z</time></trkpt><trkpt lat="42.1040022" lon="13.4023464"><ele>839.75</ele><time>2026-05-02T15:08:35.858Z</time></trkpt><trkpt lat="42.1040947" lon="13.4022339"><ele>839.5</ele><time>2026-05-02T15:08:36.859Z</time></trkpt><trkpt lat="42.1041809" lon="13.4021147"><ele>839.25</ele><time>2026-05-02T15:08:37.858Z</time></trkpt><trkpt lat="42.1042601" lon="13.4019954"><ele>839.0</ele><time>2026-05-02T15:08:38.858Z</time></trkpt><trkpt lat="42.104331" lon="13.4018649"><ele>839.0</ele><time>2026-05-02T15:08:39.859Z</time></trkpt><trkpt lat="42.1044017" lon="13.401734"><ele>839.0</ele><time>2026-05-02T15:08:40.859Z</time></trkpt><trkpt lat="42.1044708" lon="13.4015969"><ele>839.0</ele><time>2026-05-02T15:08:41.858Z</time></trkpt><trkpt lat="42.104547" lon="13.4014514"><ele>839.0</ele><time>2026-05-02T15:08:42.858Z</time></trkpt><trkpt lat="42.1046297" lon="13.401303"><ele>838.75</ele><time>2026-05-02T15:08:43.858Z</time></trkpt><trkpt lat="42.1047138" lon="13.4011634"><ele>838.5</ele><time>2026-05-02T15:08:44.858Z</time></trkpt><trkpt lat="42.1047969" lon="13.4010271"><ele>838.25</ele><time>2026-05-02T15:08:45.859Z</time></trkpt><trkpt lat="42.1048736" lon="13.4008886"><ele>838.0</ele><time>2026-05-02T15:08:46.858Z</time></trkpt><trkpt lat="42.104953" lon="13.4007527"><ele>838.0</ele><time>2026-05-02T15:08:47.858Z</time></trkpt><trkpt lat="42.1050191" lon="13.4006172"><ele>838.0</ele><time>2026-05-02T15:08:48.859Z</time></trkpt><trkpt lat="42.1050858" lon="13.4004767"><ele>838.0</ele><time>2026-05-02T15:08:49.858Z</time></trkpt><trkpt lat="42.1051578" lon="13.4003437"><ele>838.0</ele><time>2026-05-02T15:08:50.858Z</time></trkpt><trkpt lat="42.105233" lon="13.4002162"><ele>837.0</ele><time>2026-05-02T15:08:51.858Z</time></trkpt><trkpt lat="42.1053128" lon="13.4000817"><ele>836.0</ele><time>2026-05-02T15:08:52.858Z</time></trkpt><trkpt lat="42.1053838" lon="13.399943"><ele>835.0</ele><time>2026-05-02T15:08:53.859Z</time></trkpt><trkpt lat="42.1054445" lon="13.3998154"><ele>834.0</ele><time>2026-05-02T15:08:54.858Z</time></trkpt><trkpt lat="42.1055002" lon="13.3996877"><ele>833.8333333333334</ele><time>2026-05-02T15:08:55.858Z</time></trkpt><trkpt lat="42.105543" lon="13.399574"><ele>833.6666666666667</ele><time>2026-05-02T15:08:56.859Z</time></trkpt><trkpt lat="42.1055789" lon="13.3994748"><ele>833.5</ele><time>2026-05-02T15:08:57.858Z</time></trkpt><trkpt lat="42.1056074" lon="13.3993836"><ele>833.3333333333334</ele><time>2026-05-02T15:08:58.858Z</time></trkpt><trkpt lat="42.1056283" lon="13.3992803"><ele>833.1666666666667</ele><time>2026-05-02T15:08:59.859Z</time></trkpt><trkpt lat="42.105639" lon="13.399166"><ele>833.0</ele><time>2026-05-02T15:09:00.859Z</time></trkpt><trkpt lat="42.1056419" lon="13.3990483"><ele>833.0000000000001</ele><time>2026-05-02T15:09:01.859Z</time></trkpt><trkpt lat="42.1056406" lon="13.3989495"><ele>833.0</ele><time>2026-05-02T15:09:02.858Z</time></trkpt><trkpt lat="42.1056455" lon="13.3988633"><ele>833.0</ele><time>2026-05-02T15:09:03.858Z</time></trkpt><trkpt lat="42.1056828" lon="13.3987132"><ele>833.0</ele><time>2026-05-02T15:09:05.859Z</time></trkpt><trkpt lat="42.1057255" lon="13.3986225"><ele>833.0000000000001</ele><time>2026-05-02T15:09:06.858Z</time></trkpt><trkpt lat="42.1057862" lon="13.3985258"><ele>833.0</ele><time>2026-05-02T15:09:07.859Z</time></trkpt><trkpt lat="42.1058619" lon="13.3984445"><ele>833.0</ele><time>2026-05-02T15:09:08.858Z</time></trkpt><trkpt lat="42.1059468" lon="13.3983764"><ele>833.0</ele><time>2026-05-02T15:09:09.859Z</time></trkpt><trkpt lat="42.1060348" lon="13.398315"><ele>833.0</ele><time>2026-05-02T15:09:10.858Z</time></trkpt><trkpt lat="42.1061277" lon="13.3982605"><ele>833.0</ele><time>2026-05-02T15:09:11.858Z</time></trkpt><trkpt lat="42.1062179" lon="13.3981998"><ele>833.0</ele><time>2026-05-02T15:09:12.858Z</time></trkpt><trkpt lat="42.1063072" lon="13.3981386"><ele>833.0</ele><time>2026-05-02T15:09:13.859Z</time></trkpt><trkpt lat="42.1064038" lon="13.3980781"><ele>833.0</ele><time>2026-05-02T15:09:14.858Z</time></trkpt><trkpt lat="42.1065014" lon="13.3980144"><ele>833.0</ele><time>2026-05-02T15:09:15.859Z</time></trkpt><trkpt lat="42.1065986" lon="13.3979364"><ele>833.0</ele><time>2026-05-02T15:09:16.858Z</time></trkpt><trkpt lat="42.1066882" lon="13.3978351"><ele>833.0</ele><time>2026-05-02T15:09:17.858Z</time></trkpt><trkpt lat="42.1067688" lon="13.397721"><ele>834.0</ele><time>2026-05-02T15:09:18.858Z</time></trkpt><trkpt lat="42.1068436" lon="13.3976012"><ele>835.0</ele><time>2026-05-02T15:09:19.858Z</time></trkpt><trkpt lat="42.1069156" lon="13.3974752"><ele>836.0</ele><time>2026-05-02T15:09:20.859Z</time></trkpt><trkpt lat="42.1069881" lon="13.3973478"><ele>837.0</ele><time>2026-05-02T15:09:21.858Z</time></trkpt><trkpt lat="42.1070546" lon="13.3972247"><ele>837.4000000000001</ele><time>2026-05-02T15:09:22.858Z</time></trkpt><trkpt lat="42.1071091" lon="13.3971097"><ele>837.8000000000001</ele><time>2026-05-02T15:09:23.858Z</time></trkpt><trkpt lat="42.107152" lon="13.3970106"><ele>838.2</ele><time>2026-05-02T15:09:24.858Z</time></trkpt><trkpt lat="42.1071856" lon="13.3969359"><ele>838.6</ele><time>2026-05-02T15:09:25.859Z</time></trkpt><trkpt lat="42.1072125" lon="13.3968128"><ele>839.0</ele><time>2026-05-02T15:09:27.858Z</time></trkpt><trkpt lat="42.1071683" lon="13.3966704"><ele>839.0</ele><time>2026-05-02T15:09:29.858Z</time></trkpt><trkpt lat="42.1071156" lon="13.3965765"><ele>839.0</ele><time>2026-05-02T15:09:30.858Z</time></trkpt><trkpt lat="42.1070557" lon="13.3964513"><ele>839.0</ele><time>2026-05-02T15:09:31.859Z</time></trkpt><trkpt lat="42.1069982" lon="13.396317"><ele>839.0</ele><time>2026-05-02T15:09:32.858Z</time></trkpt><trkpt lat="42.1069399" lon="13.3961906"><ele>839.0</ele><time>2026-05-02T15:09:33.858Z</time></trkpt><trkpt lat="42.106883" lon="13.3960712"><ele>839.8000000000001</ele><time>2026-05-02T15:09:34.859Z</time></trkpt><trkpt lat="42.106827" lon="13.3959554"><ele>840.6</ele><time>2026-05-02T15:09:35.858Z</time></trkpt><trkpt lat="42.1067705" lon="13.3958348"><ele>841.4</ele><time>2026-05-02T15:09:36.858Z</time></trkpt><trkpt lat="42.1067124" lon="13.3957129"><ele>842.2</ele><time>2026-05-02T15:09:37.858Z</time></trkpt><trkpt lat="42.10665" lon="13.395576"><ele>843.0</ele><time>2026-05-02T15:09:38.858Z</time></trkpt><trkpt lat="42.1065952" lon="13.3954432"><ele>842.75</ele><time>2026-05-02T15:09:39.858Z</time></trkpt><trkpt lat="42.1065314" lon="13.3953098"><ele>842.5</ele><time>2026-05-02T15:09:40.858Z</time></trkpt><trkpt lat="42.1064761" lon="13.3951654"><ele>842.25</ele><time>2026-05-02T15:09:41.858Z</time></trkpt><trkpt lat="42.1064201" lon="13.3950191"><ele>842.0</ele><time>2026-05-02T15:09:42.859Z</time></trkpt><trkpt lat="42.1063515" lon="13.3948945"><ele>842.0</ele><time>2026-05-02T15:09:43.858Z</time></trkpt><trkpt lat="42.106288" lon="13.3947656"><ele>842.0</ele><time>2026-05-02T15:09:44.858Z</time></trkpt><trkpt lat="42.1062298" lon="13.3946343"><ele>842.0</ele><time>2026-05-02T15:09:45.858Z</time></trkpt><trkpt lat="42.1061786" lon="13.3945146"><ele>842.0</ele><time>2026-05-02T15:09:46.859Z</time></trkpt><trkpt lat="42.1061383" lon="13.3944285"><ele>842.0</ele><time>2026-05-02T15:09:47.858Z</time></trkpt><trkpt lat="42.1060876" lon="13.3943115"><ele>842.2</ele><time>2026-05-02T15:09:49.858Z</time></trkpt><trkpt lat="42.1060389" lon="13.3942142"><ele>842.4000000000001</ele><time>2026-05-02T15:09:52.858Z</time></trkpt><trkpt lat="42.1059516" lon="13.3941638"><ele>842.5999999999999</ele><time>2026-05-02T15:09:54.858Z</time></trkpt><trkpt lat="42.1058261" lon="13.3941261"><ele>842.8</ele><time>2026-05-02T15:09:56.858Z</time></trkpt><trkpt lat="42.1057648" lon="13.3941026"><ele>843.0</ele><time>2026-05-02T15:09:57.858Z</time></trkpt><trkpt lat="42.1056634" lon="13.3940477"><ele>841.2</ele><time>2026-05-02T15:09:59.859Z</time></trkpt><trkpt lat="42.1056076" lon="13.3940039"><ele>839.4</ele><time>2026-05-02T15:10:01.858Z</time></trkpt><trkpt lat="42.1055357" lon="13.3939606"><ele>837.6</ele><time>2026-05-02T15:10:03.859Z</time></trkpt><trkpt lat="42.1054493" lon="13.3938945"><ele>835.8000000000001</ele><time>2026-05-02T15:10:05.859Z</time></trkpt><trkpt lat="42.1054437" lon="13.3937903"><ele>834.0</ele><time>2026-05-02T15:10:07.858Z</time></trkpt><trkpt lat="42.1055354" lon="13.3936462"><ele>833.3333333333334</ele><time>2026-05-02T15:10:09.858Z</time></trkpt><trkpt lat="42.1055945" lon="13.3935636"><ele>832.6666666666667</ele><time>2026-05-02T15:10:10.858Z</time></trkpt><trkpt lat="42.1056477" lon="13.3934928"><ele>832.0</ele><time>2026-05-02T15:10:11.859Z</time></trkpt><trkpt lat="42.1057246" lon="13.3934114"><ele>831.3333333333334</ele><time>2026-05-02T15:10:13.859Z</time></trkpt><trkpt lat="42.10577" lon="13.3933517"><ele>830.6666666666667</ele><time>2026-05-02T15:10:19.858Z</time></trkpt><trkpt lat="42.10571" lon="13.3933967"><ele>830.0</ele><time>2026-05-02T15:10:23.858Z</time></trkpt><trkpt lat="42.1056417" lon="13.3934717"><ele>830.0000000000001</ele><time>2026-05-02T15:10:25.859Z</time></trkpt><trkpt lat="42.1055933" lon="13.39353"><ele>830.0</ele><time>2026-05-02T15:10:26.858Z</time></trkpt><trkpt lat="42.1055467" lon="13.3935967"><ele>830.0</ele><time>2026-05-02T15:10:27.858Z</time></trkpt><trkpt lat="42.1054967" lon="13.3936567"><ele>830.0</ele><time>2026-05-02T15:10:28.858Z</time></trkpt><trkpt lat="42.10543" lon="13.3937517"><ele>830.0000000000001</ele><time>2026-05-02T15:10:30.858Z</time></trkpt><trkpt lat="42.1053633" lon="13.39385"><ele>830.0</ele><time>2026-05-02T15:10:32.858Z</time></trkpt><trkpt lat="42.10528" lon="13.39396"><ele>830.8</ele><time>2026-05-02T15:10:34.859Z</time></trkpt><trkpt lat="42.1051983" lon="13.394075"><ele>831.6</ele><time>2026-05-02T15:10:36.859Z</time></trkpt><trkpt lat="42.1051117" lon="13.3941867"><ele>832.4000000000001</ele><time>2026-05-02T15:10:38.858Z</time></trkpt><trkpt lat="42.1050333" lon="13.394275"><ele>833.2</ele><time>2026-05-02T15:10:40.858Z</time></trkpt><trkpt lat="42.10495" lon="13.39423"><ele>834.0</ele><time>2026-05-02T15:10:43.858Z</time></trkpt><trkpt lat="42.104935" lon="13.3941067"><ele>834.0</ele><time>2026-05-02T15:10:45.858Z</time></trkpt><trkpt lat="42.10495" lon="13.39396"><ele>834.0</ele><time>2026-05-02T15:10:47.858Z</time></trkpt><trkpt lat="42.1049783" lon="13.3938033"><ele>834.0</ele><time>2026-05-02T15:10:49.859Z</time></trkpt><trkpt lat="42.1050083" lon="13.3936217"><ele>834.0</ele><time>2026-05-02T15:10:51.859Z</time></trkpt><trkpt lat="42.105035" lon="13.3935283"><ele>834.0</ele><time>2026-05-02T15:10:52.858Z</time></trkpt><trkpt lat="42.105065" lon="13.39345"><ele>833.3333333333334</ele><time>2026-05-02T15:10:53.858Z</time></trkpt><trkpt lat="42.105115" lon="13.393295"><ele>832.6666666666667</ele><time>2026-05-02T15:10:55.858Z</time></trkpt><trkpt lat="42.1051417" lon="13.3932167"><ele>832.0</ele><time>2026-05-02T15:10:56.858Z</time></trkpt><trkpt lat="42.1051683" lon="13.3931333"><ele>831.3333333333334</ele><time>2026-05-02T15:10:57.858Z</time></trkpt><trkpt lat="42.10519" lon="13.39305"><ele>830.6666666666667</ele><time>2026-05-02T15:10:58.858Z</time></trkpt><trkpt lat="42.1052067" lon="13.3929633"><ele>830.0</ele><time>2026-05-02T15:10:59.858Z</time></trkpt><trkpt lat="42.1052283" lon="13.392785"><ele>829.4285714285714</ele><time>2026-05-02T15:11:01.858Z</time></trkpt><trkpt lat="42.1052217" lon="13.3926867"><ele>828.8571428571429</ele><time>2026-05-02T15:11:02.858Z</time></trkpt><trkpt lat="42.1052067" lon="13.392595"><ele>828.2857142857142</ele><time>2026-05-02T15:11:03.859Z</time></trkpt><trkpt lat="42.1051833" lon="13.3925033"><ele>827.7142857142858</ele><time>2026-05-02T15:11:04.859Z</time></trkpt><trkpt lat="42.1051583" lon="13.3924217"><ele>827.1428571428571</ele><time>2026-05-02T15:11:05.859Z</time></trkpt><trkpt lat="42.1051267" lon="13.392335"><ele>826.5714285714286</ele><time>2026-05-02T15:11:06.858Z</time></trkpt><trkpt lat="42.105095" lon="13.392245"><ele>826.0</ele><time>2026-05-02T15:11:07.859Z</time></trkpt><trkpt lat="42.1050667" lon="13.3921633"><ele>825.9999999999999</ele><time>2026-05-02T15:11:08.858Z</time></trkpt><trkpt lat="42.1050367" lon="13.392085"><ele>826.0</ele><time>2026-05-02T15:11:09.858Z</time></trkpt><trkpt lat="42.1049867" lon="13.391945"><ele>826.0</ele><time>2026-05-02T15:11:11.859Z</time></trkpt><trkpt lat="42.1049367" lon="13.39184"><ele>826.0</ele><time>2026-05-02T15:11:13.859Z</time></trkpt><trkpt lat="42.1048917" lon="13.3917033"><ele>825.9999999999999</ele><time>2026-05-02T15:11:15.859Z</time></trkpt><trkpt lat="42.10487" lon="13.3916233"><ele>826.0</ele><time>2026-05-02T15:11:16.859Z</time></trkpt><trkpt lat="42.104845" lon="13.3915417"><ele>826.2857142857143</ele><time>2026-05-02T15:11:17.858Z</time></trkpt><trkpt lat="42.1048117" lon="13.3914567"><ele>826.5714285714286</ele><time>2026-05-02T15:11:18.858Z</time></trkpt><trkpt lat="42.1047883" lon="13.39137"><ele>826.8571428571429</ele><time>2026-05-02T15:11:19.858Z</time></trkpt><trkpt lat="42.104765" lon="13.3912733"><ele>827.1428571428571</ele><time>2026-05-02T15:11:20.858Z</time></trkpt><trkpt lat="42.1047417" lon="13.3911817"><ele>827.4285714285714</ele><time>2026-05-02T15:11:21.858Z</time></trkpt><trkpt lat="42.1047167" lon="13.3911033"><ele>827.7142857142858</ele><time>2026-05-02T15:11:22.858Z</time></trkpt><trkpt lat="42.104695" lon="13.39101"><ele>828.0</ele><time>2026-05-02T15:11:23.858Z</time></trkpt><trkpt lat="42.1046733" lon="13.3909133"><ele>828.0</ele><time>2026-05-02T15:11:24.859Z</time></trkpt><trkpt lat="42.1046533" lon="13.3908133"><ele>828.0</ele><time>2026-05-02T15:11:25.858Z</time></trkpt><trkpt lat="42.10463" lon="13.3907167"><ele>828.0</ele><time>2026-05-02T15:11:26.858Z</time></trkpt><trkpt lat="42.1046033" lon="13.3906133"><ele>828.0</ele><time>2026-05-02T15:11:27.858Z</time></trkpt><trkpt lat="42.1045767" lon="13.3905133"><ele>828.0</ele><time>2026-05-02T15:11:28.859Z</time></trkpt><trkpt lat="42.1045483" lon="13.3904183"><ele>828.0</ele><time>2026-05-02T15:11:29.858Z</time></trkpt><trkpt lat="42.1045267" lon="13.3903167"><ele>828.5</ele><time>2026-05-02T15:11:30.858Z</time></trkpt><trkpt lat="42.1045" lon="13.3902233"><ele>829.0</ele><time>2026-05-02T15:11:31.858Z</time></trkpt><trkpt lat="42.10448" lon="13.3901267"><ele>829.5</ele><time>2026-05-02T15:11:32.859Z</time></trkpt><trkpt lat="42.1044633" lon="13.3900383"><ele>830.0</ele><time>2026-05-02T15:11:33.859Z</time></trkpt><trkpt lat="42.1044433" lon="13.38989"><ele>830.5</ele><time>2026-05-02T15:11:35.859Z</time></trkpt><trkpt lat="42.10444" lon="13.389775"><ele>831.0</ele><time>2026-05-02T15:11:37.858Z</time></trkpt><trkpt lat="42.104435" lon="13.3896817"><ele>831.1666666666666</ele><time>2026-05-02T15:11:40.859Z</time></trkpt><trkpt lat="42.1043467" lon="13.3896133"><ele>831.3333333333333</ele><time>2026-05-02T15:11:48.859Z</time></trkpt><trkpt lat="42.1042233" lon="13.38956"><ele>831.5</ele><time>2026-05-02T15:11:50.859Z</time></trkpt><trkpt lat="42.1041533" lon="13.3895417"><ele>831.6666666666666</ele><time>2026-05-02T15:11:51.858Z</time></trkpt><trkpt lat="42.1040833" lon="13.38953"><ele>831.8333333333333</ele><time>2026-05-02T15:11:52.858Z</time></trkpt><trkpt lat="42.1040167" lon="13.389515"><ele>832.0</ele><time>2026-05-02T15:11:53.858Z</time></trkpt><trkpt lat="42.1039483" lon="13.3894967"><ele>831.4999999999999</ele><time>2026-05-02T15:11:54.858Z</time></trkpt><trkpt lat="42.103875" lon="13.3894883"><ele>831.0</ele><time>2026-05-02T15:11:55.859Z</time></trkpt><trkpt lat="42.1038083" lon="13.3894817"><ele>830.5</ele><time>2026-05-02T15:11:56.859Z</time></trkpt><trkpt lat="42.10374" lon="13.38947"><ele>830.0</ele><time>2026-05-02T15:11:57.859Z</time></trkpt><trkpt lat="42.1036433" lon="13.389405"><ele>829.4999999999999</ele><time>2026-05-02T15:11:59.859Z</time></trkpt><trkpt lat="42.1035967" lon="13.3893467"><ele>829.0</ele><time>2026-05-02T15:12:00.858Z</time></trkpt><trkpt lat="42.1035533" lon="13.3892617"><ele>829.0</ele><time>2026-05-02T15:12:01.859Z</time></trkpt><trkpt lat="42.10351" lon="13.3891483"><ele>829.0</ele><time>2026-05-02T15:12:02.858Z</time></trkpt><trkpt lat="42.1034683" lon="13.389025"><ele>829.0</ele><time>2026-05-02T15:12:03.859Z</time></trkpt><trkpt lat="42.1034233" lon="13.3888983"><ele>829.0</ele><time>2026-05-02T15:12:04.858Z</time></trkpt><trkpt lat="42.1033783" lon="13.388775"><ele>829.0</ele><time>2026-05-02T15:12:05.859Z</time></trkpt><trkpt lat="42.1033367" lon="13.3886583"><ele>828.8333333333333</ele><time>2026-05-02T15:12:06.859Z</time></trkpt><trkpt lat="42.103295" lon="13.388565"><ele>828.6666666666666</ele><time>2026-05-02T15:12:07.858Z</time></trkpt><trkpt lat="42.103255" lon="13.3884817"><ele>828.5</ele><time>2026-05-02T15:12:08.859Z</time></trkpt><trkpt lat="42.103215" lon="13.3883983"><ele>828.3333333333333</ele><time>2026-05-02T15:12:09.858Z</time></trkpt><trkpt lat="42.1031783" lon="13.3883217"><ele>828.1666666666666</ele><time>2026-05-02T15:12:10.859Z</time></trkpt><trkpt lat="42.1031483" lon="13.3882433"><ele>828.0</ele><time>2026-05-02T15:12:11.858Z</time></trkpt><trkpt lat="42.1031567" lon="13.3881117"><ele>827.5</ele><time>2026-05-02T15:12:13.858Z</time></trkpt><trkpt lat="42.10321" lon="13.3879767"><ele>827.0</ele><time>2026-05-02T15:12:15.858Z</time></trkpt><trkpt lat="42.103215" lon="13.3878333"><ele>826.5</ele><time>2026-05-02T15:12:17.859Z</time></trkpt><trkpt lat="42.1031967" lon="13.3877517"><ele>826.0</ele><time>2026-05-02T15:12:18.858Z</time></trkpt><trkpt lat="42.1031667" lon="13.3876617"><ele>825.5</ele><time>2026-05-02T15:12:19.858Z</time></trkpt><trkpt lat="42.103135" lon="13.3875783"><ele>825.0</ele><time>2026-05-02T15:12:20.859Z</time></trkpt><trkpt lat="42.1031" lon="13.3874883"><ele>825.0</ele><time>2026-05-02T15:12:21.858Z</time></trkpt><trkpt lat="42.1030717" lon="13.3874117"><ele>825.0</ele><time>2026-05-02T15:12:22.858Z</time></trkpt><trkpt lat="42.1030067" lon="13.38727"><ele>825.0</ele><time>2026-05-02T15:12:24.859Z</time></trkpt><trkpt lat="42.1029583" lon="13.38713"><ele>825.0</ele><time>2026-05-02T15:12:26.859Z</time></trkpt><trkpt lat="42.10296" lon="13.3870233"><ele>825.0</ele><time>2026-05-02T15:12:28.858Z</time></trkpt><trkpt lat="42.1029983" lon="13.3869017"><ele>825.0</ele><time>2026-05-02T15:12:30.858Z</time></trkpt><trkpt lat="42.103005" lon="13.3867417"><ele>825.0</ele><time>2026-05-02T15:12:32.858Z</time></trkpt><trkpt lat="42.1029383" lon="13.3865833"><ele>825.0</ele><time>2026-05-02T15:12:34.859Z</time></trkpt><trkpt lat="42.10289" lon="13.3864883"><ele>825.0</ele><time>2026-05-02T15:12:35.859Z</time></trkpt><trkpt lat="42.1028467" lon="13.38639"><ele>825.0</ele><time>2026-05-02T15:12:36.858Z</time></trkpt><trkpt lat="42.1027917" lon="13.3862817"><ele>825.2</ele><time>2026-05-02T15:12:37.858Z</time></trkpt><trkpt lat="42.1027417" lon="13.3861783"><ele>825.4</ele><time>2026-05-02T15:12:38.859Z</time></trkpt><trkpt lat="42.10268" lon="13.3860633"><ele>825.5999999999999</ele><time>2026-05-02T15:12:39.859Z</time></trkpt><trkpt lat="42.1026167" lon="13.3859583"><ele>825.8</ele><time>2026-05-02T15:12:40.859Z</time></trkpt><trkpt lat="42.10256" lon="13.3858567"><ele>826.0</ele><time>2026-05-02T15:12:41.858Z</time></trkpt><trkpt lat="42.102505" lon="13.3857517"><ele>826.0</ele><time>2026-05-02T15:12:42.858Z</time></trkpt><trkpt lat="42.1024483" lon="13.3856583"><ele>826.0</ele><time>2026-05-02T15:12:43.859Z</time></trkpt><trkpt lat="42.1023967" lon="13.3855783"><ele>826.0</ele><time>2026-05-02T15:12:44.858Z</time></trkpt><trkpt lat="42.1023283" lon="13.385475"><ele>826.0</ele><time>2026-05-02T15:12:46.858Z</time></trkpt><trkpt lat="42.1023017" lon="13.38534"><ele>826.0</ele><time>2026-05-02T15:12:52.858Z</time></trkpt><trkpt lat="42.1023483" lon="13.38521"><ele>826.3333333333333</ele><time>2026-05-02T15:12:55.858Z</time></trkpt><trkpt lat="42.102425" lon="13.3850933"><ele>826.6666666666666</ele><time>2026-05-02T15:12:57.858Z</time></trkpt><trkpt lat="42.1024667" lon="13.3850267"><ele>827.0</ele><time>2026-05-02T15:12:58.859Z</time></trkpt><trkpt lat="42.1025217" lon="13.3849567"><ele>827.3333333333333</ele><time>2026-05-02T15:12:59.859Z</time></trkpt><trkpt lat="42.1025783" lon="13.3848833"><ele>827.6666666666666</ele><time>2026-05-02T15:13:00.858Z</time></trkpt><trkpt lat="42.1026333" lon="13.3848167"><ele>828.0</ele><time>2026-05-02T15:13:01.858Z</time></trkpt><trkpt lat="42.1026917" lon="13.3847617"><ele>828.0</ele><time>2026-05-02T15:13:02.859Z</time></trkpt><trkpt lat="42.10275" lon="13.384715"><ele>828.0</ele><time>2026-05-02T15:13:03.859Z</time></trkpt><trkpt lat="42.1028183" lon="13.3846733"><ele>828.0</ele><time>2026-05-02T15:13:04.859Z</time></trkpt><trkpt lat="42.102885" lon="13.384625"><ele>828.0</ele><time>2026-05-02T15:13:05.859Z</time></trkpt><trkpt lat="42.1029433" lon="13.384555"><ele>828.0</ele><time>2026-05-02T15:13:06.858Z</time></trkpt><trkpt lat="42.1030083" lon="13.3844767"><ele>828.0</ele><time>2026-05-02T15:13:07.859Z</time></trkpt><trkpt lat="42.1030717" lon="13.3843967"><ele>828.2</ele><time>2026-05-02T15:13:08.858Z</time></trkpt><trkpt lat="42.1031367" lon="13.38431"><ele>828.4</ele><time>2026-05-02T15:13:09.858Z</time></trkpt><trkpt lat="42.1031917" lon="13.3842233"><ele>828.6</ele><time>2026-05-02T15:13:10.859Z</time></trkpt><trkpt lat="42.1032483" lon="13.38413"><ele>828.8000000000001</ele><time>2026-05-02T15:13:11.858Z</time></trkpt><trkpt lat="42.10331" lon="13.3840233"><ele>829.0</ele><time>2026-05-02T15:13:12.858Z</time></trkpt><trkpt lat="42.103365" lon="13.3839183"><ele>829.9999999999999</ele><time>2026-05-02T15:13:13.859Z</time></trkpt><trkpt lat="42.103415" lon="13.383825"><ele>831.0</ele><time>2026-05-02T15:13:14.859Z</time></trkpt><trkpt lat="42.1034617" lon="13.3837417"><ele>832.0</ele><time>2026-05-02T15:13:15.859Z</time></trkpt><trkpt lat="42.103525" lon="13.38366"><ele>833.0</ele><time>2026-05-02T15:13:16.858Z</time></trkpt><trkpt lat="42.103595" lon="13.3835883"><ele>833.9999999999999</ele><time>2026-05-02T15:13:17.859Z</time></trkpt><trkpt lat="42.1036717" lon="13.38352"><ele>835.0</ele><time>2026-05-02T15:13:18.858Z</time></trkpt><trkpt lat="42.103745" lon="13.3834483"><ele>834.9999999999999</ele><time>2026-05-02T15:13:19.859Z</time></trkpt><trkpt lat="42.1038233" lon="13.3833767"><ele>835.0</ele><time>2026-05-02T15:13:20.859Z</time></trkpt><trkpt lat="42.1038967" lon="13.383305"><ele>835.0</ele><time>2026-05-02T15:13:21.858Z</time></trkpt><trkpt lat="42.10397" lon="13.3832367"><ele>835.0</ele><time>2026-05-02T15:13:22.858Z</time></trkpt><trkpt lat="42.10404" lon="13.3831867"><ele>834.9999999999999</ele><time>2026-05-02T15:13:23.859Z</time></trkpt><trkpt lat="42.104115" lon="13.383145"><ele>835.0</ele><time>2026-05-02T15:13:24.858Z</time></trkpt><trkpt lat="42.1042033" lon="13.3831067"><ele>836.8</ele><time>2026-05-02T15:13:25.859Z</time></trkpt><trkpt lat="42.1043" lon="13.3830583"><ele>838.6</ele><time>2026-05-02T15:13:26.859Z</time></trkpt><trkpt lat="42.1044017" lon="13.3829933"><ele>840.4000000000001</ele><time>2026-05-02T15:13:27.858Z</time></trkpt><trkpt lat="42.1045117" lon="13.38294"><ele>842.2</ele><time>2026-05-02T15:13:28.858Z</time></trkpt><trkpt lat="42.1046183" lon="13.38289"><ele>844.0</ele><time>2026-05-02T15:13:29.858Z</time></trkpt><trkpt lat="42.1047217" lon="13.38285"><ele>844.0</ele><time>2026-05-02T15:13:30.859Z</time></trkpt><trkpt lat="42.1048167" lon="13.3827983"><ele>844.0</ele><time>2026-05-02T15:13:31.858Z</time></trkpt><trkpt lat="42.1049017" lon="13.3827667"><ele>844.0</ele><time>2026-05-02T15:13:32.858Z</time></trkpt><trkpt lat="42.1049767" lon="13.3827417"><ele>844.0</ele><time>2026-05-02T15:13:33.858Z</time></trkpt><trkpt lat="42.1050633" lon="13.3827317"><ele>844.0</ele><time>2026-05-02T15:13:34.858Z</time></trkpt><trkpt lat="42.10517" lon="13.3827417"><ele>845.2</ele><time>2026-05-02T15:13:35.858Z</time></trkpt><trkpt lat="42.105285" lon="13.3827683"><ele>846.4000000000001</ele><time>2026-05-02T15:13:36.859Z</time></trkpt><trkpt lat="42.1053883" lon="13.3827817"><ele>847.6</ele><time>2026-05-02T15:13:37.858Z</time></trkpt><trkpt lat="42.1054783" lon="13.382785"><ele>848.8</ele><time>2026-05-02T15:13:38.859Z</time></trkpt><trkpt lat="42.1055683" lon="13.3827833"><ele>850.0</ele><time>2026-05-02T15:13:39.858Z</time></trkpt><trkpt lat="42.105665" lon="13.3828017"><ele>851.4</ele><time>2026-05-02T15:13:40.859Z</time></trkpt><trkpt lat="42.1057667" lon="13.38283"><ele>852.8</ele><time>2026-05-02T15:13:41.858Z</time></trkpt><trkpt lat="42.105865" lon="13.3828433"><ele>854.2</ele><time>2026-05-02T15:13:42.858Z</time></trkpt><trkpt lat="42.1059633" lon="13.3828333"><ele>855.6</ele><time>2026-05-02T15:13:43.859Z</time></trkpt><trkpt lat="42.1060683" lon="13.3828283"><ele>857.0</ele><time>2026-05-02T15:13:44.858Z</time></trkpt><trkpt lat="42.106175" lon="13.3828183"><ele>857.0</ele><time>2026-05-02T15:13:45.858Z</time></trkpt><trkpt lat="42.106285" lon="13.382815"><ele>857.0</ele><time>2026-05-02T15:13:46.858Z</time></trkpt><trkpt lat="42.106375" lon="13.3828167"><ele>857.0</ele><time>2026-05-02T15:13:47.858Z</time></trkpt><trkpt lat="42.1064517" lon="13.382825"><ele>857.0</ele><time>2026-05-02T15:13:48.859Z</time></trkpt><trkpt lat="42.10652" lon="13.382855"><ele>857.0</ele><time>2026-05-02T15:13:49.858Z</time></trkpt><trkpt lat="42.1066183" lon="13.3829483"><ele>858.3333333333334</ele><time>2026-05-02T15:13:51.859Z</time></trkpt><trkpt lat="42.106655" lon="13.3830183"><ele>859.6666666666667</ele><time>2026-05-02T15:13:52.858Z</time></trkpt><trkpt lat="42.1066983" lon="13.3830867"><ele>861.0</ele><time>2026-05-02T15:13:53.858Z</time></trkpt><trkpt lat="42.1067887" lon="13.3831552"><ele>862.3333333333333</ele><time>2026-05-02T15:13:55.858Z</time></trkpt><trkpt lat="42.1068654" lon="13.3831827"><ele>863.6666666666666</ele><time>2026-05-02T15:13:57.858Z</time></trkpt><trkpt lat="42.1069255" lon="13.3832845"><ele>865.0</ele><time>2026-05-02T15:13:59.859Z</time></trkpt><trkpt lat="42.1069447" lon="13.3833665"><ele>864.9999999999999</ele><time>2026-05-02T15:14:00.859Z</time></trkpt><trkpt lat="42.106997" lon="13.3834757"><ele>865.0</ele><time>2026-05-02T15:14:02.858Z</time></trkpt><trkpt lat="42.1070697" lon="13.3834442"><ele>865.0</ele><time>2026-05-02T15:14:05.859Z</time></trkpt><trkpt lat="42.1071142" lon="13.3833534"><ele>865.0</ele><time>2026-05-02T15:14:07.859Z</time></trkpt><trkpt lat="42.1071951" lon="13.3832678"><ele>864.9999999999999</ele><time>2026-05-02T15:14:09.859Z</time></trkpt><trkpt lat="42.1072458" lon="13.3832145"><ele>865.0</ele><time>2026-05-02T15:14:10.858Z</time></trkpt><trkpt lat="42.1072981" lon="13.3831599"><ele>865.0</ele><time>2026-05-02T15:14:11.859Z</time></trkpt><trkpt lat="42.1074037" lon="13.383077"><ele>865.0</ele><time>2026-05-02T15:14:13.859Z</time></trkpt><trkpt lat="42.1075137" lon="13.3829962"><ele>865.0</ele><time>2026-05-02T15:14:15.858Z</time></trkpt><trkpt lat="42.1076187" lon="13.3829065"><ele>865.0</ele><time>2026-05-02T15:14:17.858Z</time></trkpt><trkpt lat="42.1076867" lon="13.3828837"><ele>865.0</ele><time>2026-05-02T15:14:18.858Z</time></trkpt><trkpt lat="42.1077692" lon="13.3828733"><ele>867.0</ele><time>2026-05-02T15:14:19.859Z</time></trkpt><trkpt lat="42.1078611" lon="13.3828604"><ele>869.0</ele><time>2026-05-02T15:14:20.859Z</time></trkpt><trkpt lat="42.1079543" lon="13.3828361"><ele>871.0</ele><time>2026-05-02T15:14:21.858Z</time></trkpt><trkpt lat="42.1080505" lon="13.3828023"><ele>873.0</ele><time>2026-05-02T15:14:22.858Z</time></trkpt><trkpt lat="42.108148" lon="13.3827818"><ele>875.0</ele><time>2026-05-02T15:14:23.859Z</time></trkpt><trkpt lat="42.1082444" lon="13.3827712"><ele>875.6666666666667</ele><time>2026-05-02T15:14:24.859Z</time></trkpt><trkpt lat="42.108339" lon="13.3827517"><ele>876.3333333333334</ele><time>2026-05-02T15:14:25.858Z</time></trkpt><trkpt lat="42.1084318" lon="13.3827356"><ele>877.0</ele><time>2026-05-02T15:14:26.858Z</time></trkpt><trkpt lat="42.1085179" lon="13.3827257"><ele>877.6666666666667</ele><time>2026-05-02T15:14:27.859Z</time></trkpt><trkpt lat="42.1085995" lon="13.3827079"><ele>878.3333333333334</ele><time>2026-05-02T15:14:28.858Z</time></trkpt><trkpt lat="42.108679" lon="13.3826711"><ele>879.0</ele><time>2026-05-02T15:14:29.858Z</time></trkpt><trkpt lat="42.1087596" lon="13.3826286"><ele>879.0</ele><time>2026-05-02T15:14:30.858Z</time></trkpt><trkpt lat="42.1088428" lon="13.3825888"><ele>879.0000000000001</ele><time>2026-05-02T15:14:31.858Z</time></trkpt><trkpt lat="42.108928" lon="13.382544"><ele>879.0000000000001</ele><time>2026-05-02T15:14:32.858Z</time></trkpt><trkpt lat="42.1090173" lon="13.3824856"><ele>879.0</ele><time>2026-05-02T15:14:33.858Z</time></trkpt><trkpt lat="42.1091111" lon="13.3824326"><ele>879.0</ele><time>2026-05-02T15:14:34.858Z</time></trkpt><trkpt lat="42.1092083" lon="13.3823864"><ele>880.2</ele><time>2026-05-02T15:14:35.858Z</time></trkpt><trkpt lat="42.1093063" lon="13.3823431"><ele>881.4000000000001</ele><time>2026-05-02T15:14:36.858Z</time></trkpt><trkpt lat="42.109404" lon="13.3822957"><ele>882.6</ele><time>2026-05-02T15:14:37.859Z</time></trkpt><trkpt lat="42.1094968" lon="13.3822453"><ele>883.8</ele><time>2026-05-02T15:14:38.859Z</time></trkpt><trkpt lat="42.1095816" lon="13.3822012"><ele>885.0</ele><time>2026-05-02T15:14:39.858Z</time></trkpt><trkpt lat="42.1096559" lon="13.3821442"><ele>885.2</ele><time>2026-05-02T15:14:40.859Z</time></trkpt><trkpt lat="42.1097143" lon="13.3820793"><ele>885.4</ele><time>2026-05-02T15:14:41.858Z</time></trkpt><trkpt lat="42.1097912" lon="13.3820127"><ele>885.5999999999999</ele><time>2026-05-02T15:14:43.859Z</time></trkpt><trkpt lat="42.1097741" lon="13.3819019"><ele>885.8</ele><time>2026-05-02T15:14:47.859Z</time></trkpt><trkpt lat="42.1097206" lon="13.381805"><ele>886.0</ele><time>2026-05-02T15:14:49.859Z</time></trkpt><trkpt lat="42.1096465" lon="13.3816854"><ele>886.0</ele><time>2026-05-02T15:14:51.858Z</time></trkpt><trkpt lat="42.1096004" lon="13.3815765"><ele>885.9999999999999</ele><time>2026-05-02T15:14:53.859Z</time></trkpt><trkpt lat="42.1095723" lon="13.3816552"><ele>885.9999999999999</ele><time>2026-05-02T15:14:59.858Z</time></trkpt><trkpt lat="42.1096386" lon="13.3817228"><ele>886.0</ele><time>2026-05-02T15:15:01.859Z</time></trkpt><trkpt lat="42.1097223" lon="13.3818324"><ele>886.0</ele><time>2026-05-02T15:15:03.859Z</time></trkpt><trkpt lat="42.1097981" lon="13.3819417"><ele>886.0</ele><time>2026-05-02T15:15:05.858Z</time></trkpt><trkpt lat="42.1098792" lon="13.3820349"><ele>885.9999999999999</ele><time>2026-05-02T15:15:07.859Z</time></trkpt><trkpt lat="42.1099869" lon="13.3821004"><ele>885.9999999999999</ele><time>2026-05-02T15:15:09.858Z</time></trkpt><trkpt lat="42.1101075" lon="13.3821184"><ele>886.0</ele><time>2026-05-02T15:15:11.859Z</time></trkpt><trkpt lat="42.1101719" lon="13.3821116"><ele>886.0</ele><time>2026-05-02T15:15:12.859Z</time></trkpt><trkpt lat="42.1102344" lon="13.3820935"><ele>887.1999999999999</ele><time>2026-05-02T15:15:13.859Z</time></trkpt><trkpt lat="42.1103455" lon="13.3820486"><ele>888.3999999999999</ele><time>2026-05-02T15:15:15.859Z</time></trkpt><trkpt lat="42.1104366" lon="13.3820115"><ele>889.6</ele><time>2026-05-02T15:15:17.859Z</time></trkpt><trkpt lat="42.1105038" lon="13.3819848"><ele>890.8</ele><time>2026-05-02T15:15:19.859Z</time></trkpt><trkpt lat="42.1105532" lon="13.3818827"><ele>892.0</ele><time>2026-05-02T15:15:22.858Z</time></trkpt><trkpt lat="42.1105254" lon="13.3817535"><ele>892.0</ele><time>2026-05-02T15:15:24.858Z</time></trkpt><trkpt lat="42.110508" lon="13.3816563"><ele>892.0</ele><time>2026-05-02T15:15:25.859Z</time></trkpt><trkpt lat="42.1104961" lon="13.3815419"><ele>892.0</ele><time>2026-05-02T15:15:26.858Z</time></trkpt><trkpt lat="42.1104951" lon="13.3814136"><ele>892.0</ele><time>2026-05-02T15:15:27.859Z</time></trkpt><trkpt lat="42.110497" lon="13.381276"><ele>892.0</ele><time>2026-05-02T15:15:28.859Z</time></trkpt><trkpt lat="42.1104993" lon="13.3811439"><ele>892.4000000000001</ele><time>2026-05-02T15:15:29.858Z</time></trkpt><trkpt lat="42.1105036" lon="13.3810139"><ele>892.8000000000001</ele><time>2026-05-02T15:15:30.858Z</time></trkpt><trkpt lat="42.1105033" lon="13.3808742"><ele>893.2</ele><time>2026-05-02T15:15:31.858Z</time></trkpt><trkpt lat="42.1104995" lon="13.3807296"><ele>893.6</ele><time>2026-05-02T15:15:32.859Z</time></trkpt><trkpt lat="42.110496" lon="13.3805873"><ele>894.0</ele><time>2026-05-02T15:15:33.858Z</time></trkpt><trkpt lat="42.1104927" lon="13.3804535"><ele>894.1666666666666</ele><time>2026-05-02T15:15:34.859Z</time></trkpt><trkpt lat="42.1104882" lon="13.3803443"><ele>894.3333333333333</ele><time>2026-05-02T15:15:35.859Z</time></trkpt><trkpt lat="42.11049" lon="13.3802283"><ele>894.5</ele><time>2026-05-02T15:15:37.859Z</time></trkpt><trkpt lat="42.11052" lon="13.3801083"><ele>894.6666666666666</ele><time>2026-05-02T15:15:43.858Z</time></trkpt><trkpt lat="42.1105667" lon="13.38004"><ele>894.8333333333333</ele><time>2026-05-02T15:15:45.859Z</time></trkpt><trkpt lat="42.1105917" lon="13.3799283"><ele>895.0</ele><time>2026-05-02T15:15:47.859Z</time></trkpt><trkpt lat="42.1105633" lon="13.3797933"><ele>896.3333333333333</ele><time>2026-05-02T15:15:49.859Z</time></trkpt><trkpt lat="42.1104867" lon="13.3796483"><ele>897.6666666666666</ele><time>2026-05-02T15:15:51.858Z</time></trkpt><trkpt lat="42.11044" lon="13.3795733"><ele>899.0</ele><time>2026-05-02T15:15:52.858Z</time></trkpt><trkpt lat="42.1103883" lon="13.3794983"><ele>900.3333333333333</ele><time>2026-05-02T15:15:53.859Z</time></trkpt><trkpt lat="42.1103367" lon="13.37943"><ele>901.6666666666666</ele><time>2026-05-02T15:15:54.858Z</time></trkpt><trkpt lat="42.110285" lon="13.379365"><ele>903.0</ele><time>2026-05-02T15:15:55.858Z</time></trkpt><trkpt lat="42.1102267" lon="13.3793117"><ele>903.0</ele><time>2026-05-02T15:15:56.859Z</time></trkpt><trkpt lat="42.1101667" lon="13.379275"><ele>903.0</ele><time>2026-05-02T15:15:57.859Z</time></trkpt><trkpt lat="42.1100883" lon="13.379255"><ele>903.0</ele><time>2026-05-02T15:15:58.858Z</time></trkpt><trkpt lat="42.1100033" lon="13.379255"><ele>903.0</ele><time>2026-05-02T15:15:59.858Z</time></trkpt><trkpt lat="42.1099167" lon="13.3792633"><ele>903.0</ele><time>2026-05-02T15:16:00.858Z</time></trkpt><trkpt lat="42.1098283" lon="13.3792633"><ele>903.0</ele><time>2026-05-02T15:16:01.859Z</time></trkpt><trkpt lat="42.1097483" lon="13.3792617"><ele>901.8333333333334</ele><time>2026-05-02T15:16:02.858Z</time></trkpt><trkpt lat="42.10966" lon="13.37924"><ele>900.6666666666667</ele><time>2026-05-02T15:16:03.858Z</time></trkpt><trkpt lat="42.10957" lon="13.3792167"><ele>899.5</ele><time>2026-05-02T15:16:04.858Z</time></trkpt><trkpt lat="42.1094867" lon="13.3791917"><ele>898.3333333333334</ele><time>2026-05-02T15:16:05.859Z</time></trkpt><trkpt lat="42.10941" lon="13.37916"><ele>897.1666666666667</ele><time>2026-05-02T15:16:06.858Z</time></trkpt><trkpt lat="42.10935" lon="13.3791267"><ele>896.0</ele><time>2026-05-02T15:16:07.859Z</time></trkpt><trkpt lat="42.1092783" lon="13.3790883"><ele>896.0000000000001</ele><time>2026-05-02T15:16:09.858Z</time></trkpt><trkpt lat="42.1092333" lon="13.3789667"><ele>896.0</ele><time>2026-05-02T15:16:12.859Z</time></trkpt><trkpt lat="42.109225" lon="13.37888"><ele>896.0</ele><time>2026-05-02T15:16:13.858Z</time></trkpt><trkpt lat="42.109215" lon="13.3787767"><ele>896.0</ele><time>2026-05-02T15:16:14.858Z</time></trkpt><trkpt lat="42.1091817" lon="13.3786583"><ele>896.0000000000001</ele><time>2026-05-02T15:16:15.858Z</time></trkpt><trkpt lat="42.1091317" lon="13.378535"><ele>896.0</ele><time>2026-05-02T15:16:16.859Z</time></trkpt><trkpt lat="42.1090667" lon="13.3783967"><ele>896.5999999999999</ele><time>2026-05-02T15:16:17.858Z</time></trkpt><trkpt lat="42.108995" lon="13.3782617"><ele>897.1999999999999</ele><time>2026-05-02T15:16:18.859Z</time></trkpt><trkpt lat="42.10893" lon="13.37814"><ele>897.8000000000001</ele><time>2026-05-02T15:16:19.858Z</time></trkpt><trkpt lat="42.10886" lon="13.3780317"><ele>898.4000000000001</ele><time>2026-05-02T15:16:20.858Z</time></trkpt><trkpt lat="42.10878" lon="13.3779333"><ele>899.0</ele><time>2026-05-02T15:16:21.858Z</time></trkpt><trkpt lat="42.1086917" lon="13.377845"><ele>901.4000000000001</ele><time>2026-05-02T15:16:22.858Z</time></trkpt><trkpt lat="42.1085983" lon="13.3777733"><ele>903.8000000000001</ele><time>2026-05-02T15:16:23.859Z</time></trkpt><trkpt lat="42.1085033" lon="13.3777183"><ele>906.1999999999999</ele><time>2026-05-02T15:16:24.858Z</time></trkpt><trkpt lat="42.1084" lon="13.3776683"><ele>908.5999999999999</ele><time>2026-05-02T15:16:25.859Z</time></trkpt><trkpt lat="42.1083" lon="13.3776333"><ele>911.0</ele><time>2026-05-02T15:16:26.859Z</time></trkpt><trkpt lat="42.1082033" lon="13.3776183"><ele>911.0000000000001</ele><time>2026-05-02T15:16:27.858Z</time></trkpt><trkpt lat="42.1081083" lon="13.3776067"><ele>911.0</ele><time>2026-05-02T15:16:28.858Z</time></trkpt><trkpt lat="42.1080283" lon="13.3776"><ele>911.0</ele><time>2026-05-02T15:16:29.859Z</time></trkpt><trkpt lat="42.1078933" lon="13.37757"><ele>911.0</ele><time>2026-05-02T15:16:31.859Z</time></trkpt><trkpt lat="42.1078383" lon="13.37752"><ele>911.0000000000001</ele><time>2026-05-02T15:16:32.859Z</time></trkpt><trkpt lat="42.1077833" lon="13.3774683"><ele>911.0</ele><time>2026-05-02T15:16:33.858Z</time></trkpt><trkpt lat="42.1077283" lon="13.3773983"><ele>911.0000000000001</ele><time>2026-05-02T15:16:34.858Z</time></trkpt><trkpt lat="42.1076817" lon="13.3773283"><ele>911.0</ele><time>2026-05-02T15:16:35.859Z</time></trkpt><trkpt lat="42.10763" lon="13.377235"><ele>911.0</ele><time>2026-05-02T15:16:37.859Z</time></trkpt><trkpt lat="42.1075283" lon="13.3771583"><ele>911.0</ele><time>2026-05-02T15:16:46.859Z</time></trkpt><trkpt lat="42.1074567" lon="13.3771267"><ele>911.0000000000001</ele><time>2026-05-02T15:16:48.859Z</time></trkpt><trkpt lat="42.1073983" lon="13.3770867"><ele>911.0</ele><time>2026-05-02T15:16:51.858Z</time></trkpt><trkpt lat="42.1073033" lon="13.37701"><ele>910.1999999999999</ele><time>2026-05-02T15:17:26.859Z</time></trkpt><trkpt lat="42.1072617" lon="13.3770783"><ele>909.3999999999999</ele><time>2026-05-02T15:17:33.859Z</time></trkpt><trkpt lat="42.10719" lon="13.3771033"><ele>908.6</ele><time>2026-05-02T15:17:35.858Z</time></trkpt><trkpt lat="42.1071067" lon="13.3770933"><ele>907.8</ele><time>2026-05-02T15:17:37.858Z</time></trkpt><trkpt lat="42.1069967" lon="13.37703"><ele>907.0</ele><time>2026-05-02T15:17:39.859Z</time></trkpt><trkpt lat="42.106905" lon="13.3769467"><ele>906.9999999999999</ele><time>2026-05-02T15:17:41.859Z</time></trkpt><trkpt lat="42.106815" lon="13.3768483"><ele>907.0</ele><time>2026-05-02T15:17:43.859Z</time></trkpt><trkpt lat="42.10672" lon="13.3767617"><ele>907.0</ele><time>2026-05-02T15:17:45.858Z</time></trkpt><trkpt lat="42.1066533" lon="13.3767233"><ele>907.0</ele><time>2026-05-02T15:17:46.858Z</time></trkpt><trkpt lat="42.1065867" lon="13.376695"><ele>906.9999999999999</ele><time>2026-05-02T15:17:47.859Z</time></trkpt><trkpt lat="42.1065133" lon="13.37667"><ele>907.0</ele><time>2026-05-02T15:17:48.858Z</time></trkpt><trkpt lat="42.1064283" lon="13.3766417"><ele>905.0</ele><time>2026-05-02T15:17:49.858Z</time></trkpt><trkpt lat="42.106335" lon="13.376615"><ele>903.0</ele><time>2026-05-02T15:17:50.858Z</time></trkpt><trkpt lat="42.1062483" lon="13.3765917"><ele>901.0</ele><time>2026-05-02T15:17:51.858Z</time></trkpt><trkpt lat="42.1061633" lon="13.3765783"><ele>899.0</ele><time>2026-05-02T15:17:52.858Z</time></trkpt><trkpt lat="42.1061033" lon="13.3765433"><ele>897.0</ele><time>2026-05-02T15:17:53.858Z</time></trkpt><trkpt lat="42.1060117" lon="13.37644"><ele>896.0</ele><time>2026-05-02T15:17:55.858Z</time></trkpt><trkpt lat="42.1059483" lon="13.3763367"><ele>895.0</ele><time>2026-05-02T15:17:57.859Z</time></trkpt><trkpt lat="42.1058583" lon="13.376225"><ele>894.0</ele><time>2026-05-02T15:17:59.858Z</time></trkpt><trkpt lat="42.1058017" lon="13.3761517"><ele>893.0</ele><time>2026-05-02T15:18:00.859Z</time></trkpt><trkpt lat="42.1057517" lon="13.3760783"><ele>892.0</ele><time>2026-05-02T15:18:01.858Z</time></trkpt><trkpt lat="42.105715" lon="13.3760083"><ele>891.0</ele><time>2026-05-02T15:18:02.858Z</time></trkpt><trkpt lat="42.1056683" lon="13.3759483"><ele>889.6666666666666</ele><time>2026-05-02T15:18:03.859Z</time></trkpt><trkpt lat="42.1056067" lon="13.3758833"><ele>888.3333333333333</ele><time>2026-05-02T15:18:04.859Z</time></trkpt><trkpt lat="42.10554" lon="13.3758117"><ele>887.0</ele><time>2026-05-02T15:18:05.858Z</time></trkpt><trkpt lat="42.1054767" lon="13.37573"><ele>885.6666666666666</ele><time>2026-05-02T15:18:06.859Z</time></trkpt><trkpt lat="42.1054083" lon="13.3756467"><ele>884.3333333333333</ele><time>2026-05-02T15:18:07.859Z</time></trkpt><trkpt lat="42.1053617" lon="13.37557"><ele>883.0</ele><time>2026-05-02T15:18:08.858Z</time></trkpt><trkpt lat="42.1053167" lon="13.3754967"><ele>883.0</ele><time>2026-05-02T15:18:09.859Z</time></trkpt><trkpt lat="42.10527" lon="13.3754283"><ele>883.0</ele><time>2026-05-02T15:18:10.858Z</time></trkpt><trkpt lat="42.1051883" lon="13.375315"><ele>883.0</ele><time>2026-05-02T15:18:12.859Z</time></trkpt><trkpt lat="42.105095" lon="13.375215"><ele>883.0</ele><time>2026-05-02T15:18:14.859Z</time></trkpt><trkpt lat="42.1050567" lon="13.37512"><ele>883.0</ele><time>2026-05-02T15:18:16.858Z</time></trkpt><trkpt lat="42.1050483" lon="13.3750233"><ele>882.9999999999999</ele><time>2026-05-02T15:18:18.859Z</time></trkpt><trkpt lat="42.10501" lon="13.3749367"><ele>883.0</ele><time>2026-05-02T15:18:20.858Z</time></trkpt><trkpt lat="42.1049233" lon="13.3748433"><ele>883.0</ele><time>2026-05-02T15:18:22.859Z</time></trkpt><trkpt lat="42.1048783" lon="13.3747667"><ele>883.0</ele><time>2026-05-02T15:18:23.858Z</time></trkpt><trkpt lat="42.10484" lon="13.3746783"><ele>882.9999999999999</ele><time>2026-05-02T15:18:24.859Z</time></trkpt><trkpt lat="42.104805" lon="13.3745733"><ele>883.0</ele><time>2026-05-02T15:18:25.858Z</time></trkpt><trkpt lat="42.104775" lon="13.374475"><ele>880.8</ele><time>2026-05-02T15:18:26.858Z</time></trkpt><trkpt lat="42.1047133" lon="13.3743517"><ele>878.5999999999999</ele><time>2026-05-02T15:18:28.859Z</time></trkpt><trkpt lat="42.1046533" lon="13.3743167"><ele>876.4000000000001</ele><time>2026-05-02T15:18:30.858Z</time></trkpt><trkpt lat="42.1045483" lon="13.374285"><ele>874.2</ele><time>2026-05-02T15:18:33.859Z</time></trkpt><trkpt lat="42.1044717" lon="13.374175"><ele>872.0</ele><time>2026-05-02T15:18:35.858Z</time></trkpt><trkpt lat="42.1044317" lon="13.3740833"><ele>872.0</ele><time>2026-05-02T15:18:36.859Z</time></trkpt><trkpt lat="42.1043867" lon="13.37398"><ele>872.0</ele><time>2026-05-02T15:18:37.858Z</time></trkpt><trkpt lat="42.1043233" lon="13.37387"><ele>872.0</ele><time>2026-05-02T15:18:38.859Z</time></trkpt><trkpt lat="42.1042517" lon="13.3737667"><ele>872.0</ele><time>2026-05-02T15:18:39.859Z</time></trkpt><trkpt lat="42.10418" lon="13.3736717"><ele>872.0</ele><time>2026-05-02T15:18:40.858Z</time></trkpt><trkpt lat="42.1041133" lon="13.3735933"><ele>871.1666666666667</ele><time>2026-05-02T15:18:41.859Z</time></trkpt><trkpt lat="42.10405" lon="13.3735167"><ele>870.3333333333334</ele><time>2026-05-02T15:18:42.859Z</time></trkpt><trkpt lat="42.1039917" lon="13.37343"><ele>869.5</ele><time>2026-05-02T15:18:43.858Z</time></trkpt><trkpt lat="42.1039567" lon="13.3733583"><ele>868.6666666666667</ele><time>2026-05-02T15:18:44.859Z</time></trkpt><trkpt lat="42.1039117" lon="13.3732867"><ele>867.8333333333334</ele><time>2026-05-02T15:18:45.859Z</time></trkpt><trkpt lat="42.1038517" lon="13.3732117"><ele>867.0</ele><time>2026-05-02T15:18:46.858Z</time></trkpt><trkpt lat="42.103785" lon="13.373135"><ele>867.0</ele><time>2026-05-02T15:18:47.858Z</time></trkpt><trkpt lat="42.1037167" lon="13.3730683"><ele>867.0</ele><time>2026-05-02T15:18:48.858Z</time></trkpt><trkpt lat="42.1036483" lon="13.37298"><ele>867.0</ele><time>2026-05-02T15:18:49.858Z</time></trkpt><trkpt lat="42.1035883" lon="13.37289"><ele>867.0</ele><time>2026-05-02T15:18:50.858Z</time></trkpt><trkpt lat="42.1035383" lon="13.3728"><ele>867.0</ele><time>2026-05-02T15:18:51.859Z</time></trkpt><trkpt lat="42.1034917" lon="13.3727217"><ele>867.0</ele><time>2026-05-02T15:18:52.858Z</time></trkpt><trkpt lat="42.1034133" lon="13.3726133"><ele>866.8</ele><time>2026-05-02T15:18:54.859Z</time></trkpt><trkpt lat="42.1033467" lon="13.372505"><ele>866.6</ele><time>2026-05-02T15:18:56.858Z</time></trkpt><trkpt lat="42.1033267" lon="13.3723817"><ele>866.3999999999999</ele><time>2026-05-02T15:18:58.858Z</time></trkpt><trkpt lat="42.103295" lon="13.3722733"><ele>866.1999999999999</ele><time>2026-05-02T15:19:00.858Z</time></trkpt><trkpt lat="42.1032333" lon="13.3721883"><ele>866.0</ele><time>2026-05-02T15:19:02.858Z</time></trkpt><trkpt lat="42.1031517" lon="13.37209"><ele>866.0000000000001</ele><time>2026-05-02T15:19:04.859Z</time></trkpt><trkpt lat="42.1030617" lon="13.371995"><ele>866.0</ele><time>2026-05-02T15:19:06.858Z</time></trkpt><trkpt lat="42.1029967" lon="13.3719417"><ele>866.0</ele><time>2026-05-02T15:19:07.858Z</time></trkpt><trkpt lat="42.1029317" lon="13.3718833"><ele>866.0</ele><time>2026-05-02T15:19:08.859Z</time></trkpt><trkpt lat="42.1028683" lon="13.3718183"><ele>866.0000000000001</ele><time>2026-05-02T15:19:09.858Z</time></trkpt><trkpt lat="42.10281" lon="13.3717533"><ele>866.0</ele><time>2026-05-02T15:19:10.859Z</time></trkpt><trkpt lat="42.102765" lon="13.37169"><ele>866.0000000000001</ele><time>2026-05-02T15:19:11.859Z</time></trkpt><trkpt lat="42.1027183" lon="13.3716083"><ele>866.0</ele><time>2026-05-02T15:19:12.858Z</time></trkpt><trkpt lat="42.102675" lon="13.3715167"><ele>866.0</ele><time>2026-05-02T15:19:13.859Z</time></trkpt><trkpt lat="42.10263" lon="13.3714267"><ele>866.0</ele><time>2026-05-02T15:19:14.859Z</time></trkpt><trkpt lat="42.1025833" lon="13.371355"><ele>866.0000000000001</ele><time>2026-05-02T15:19:15.859Z</time></trkpt><trkpt lat="42.1025283" lon="13.3713017"><ele>866.0</ele><time>2026-05-02T15:19:16.858Z</time></trkpt><trkpt lat="42.102425" lon="13.3712417"><ele>862.8</ele><time>2026-05-02T15:19:18.858Z</time></trkpt><trkpt lat="42.1023283" lon="13.3711233"><ele>859.5999999999999</ele><time>2026-05-02T15:19:20.859Z</time></trkpt><trkpt lat="42.10224" lon="13.3710567"><ele>856.4</ele><time>2026-05-02T15:19:22.858Z</time></trkpt><trkpt lat="42.1021683" lon="13.3709933"><ele>853.2</ele><time>2026-05-02T15:19:24.858Z</time></trkpt><trkpt lat="42.10209" lon="13.3709183"><ele>850.0</ele><time>2026-05-02T15:19:26.858Z</time></trkpt><trkpt lat="42.1020217" lon="13.3708717"><ele>849.9999999999999</ele><time>2026-05-02T15:19:28.859Z</time></trkpt><trkpt lat="42.1019683" lon="13.370825"><ele>850.0</ele><time>2026-05-02T15:19:30.858Z</time></trkpt><trkpt lat="42.1019167" lon="13.37077"><ele>850.0</ele><time>2026-05-02T15:19:32.858Z</time></trkpt><trkpt lat="42.10186" lon="13.37071"><ele>850.0</ele><time>2026-05-02T15:19:34.859Z</time></trkpt><trkpt lat="42.1017917" lon="13.370685"><ele>849.9999999999999</ele><time>2026-05-02T15:19:37.858Z</time></trkpt><trkpt lat="42.1017067" lon="13.3706167"><ele>850.0</ele><time>2026-05-02T15:19:40.859Z</time></trkpt><trkpt lat="42.101635" lon="13.3705467"><ele>846.8571428571429</ele><time>2026-05-02T15:19:43.859Z</time></trkpt><trkpt lat="42.1015733" lon="13.3705133"><ele>843.7142857142857</ele><time>2026-05-02T15:19:45.858Z</time></trkpt><trkpt lat="42.1014967" lon="13.3705533"><ele>840.5714285714287</ele><time>2026-05-02T15:19:48.858Z</time></trkpt><trkpt lat="42.1014333" lon="13.37055"><ele>837.4285714285714</ele><time>2026-05-02T15:19:50.858Z</time></trkpt><trkpt lat="42.1013683" lon="13.3705367"><ele>834.2857142857143</ele><time>2026-05-02T15:19:52.859Z</time></trkpt><trkpt lat="42.1012883" lon="13.3705483"><ele>831.1428571428572</ele><time>2026-05-02T15:19:55.858Z</time></trkpt><trkpt lat="42.101225" lon="13.3705483"><ele>828.0</ele><time>2026-05-02T15:19:58.859Z</time></trkpt><trkpt lat="42.1011483" lon="13.3705833"><ele>828.0</ele><time>2026-05-02T15:20:01.859Z</time></trkpt><trkpt lat="42.101085" lon="13.37061"><ele>828.0</ele><time>2026-05-02T15:20:03.858Z</time></trkpt><trkpt lat="42.101" lon="13.3706583"><ele>828.0</ele><time>2026-05-02T15:20:06.858Z</time></trkpt><trkpt lat="42.10093" lon="13.3706783"><ele>828.0</ele><time>2026-05-02T15:20:08.859Z</time></trkpt><trkpt lat="42.10086" lon="13.37064"><ele>828.0</ele><time>2026-05-02T15:20:10.858Z</time></trkpt><trkpt lat="42.1007883" lon="13.3705967"><ele>828.0</ele><time>2026-05-02T15:20:12.858Z</time></trkpt><trkpt lat="42.10071" lon="13.37054"><ele>826.4285714285714</ele><time>2026-05-02T15:20:14.859Z</time></trkpt><trkpt lat="42.1006433" lon="13.370485"><ele>824.8571428571429</ele><time>2026-05-02T15:20:16.858Z</time></trkpt><trkpt lat="42.1005783" lon="13.3704533"><ele>823.2857142857142</ele><time>2026-05-02T15:20:18.858Z</time></trkpt><trkpt lat="42.1005083" lon="13.370455"><ele>821.7142857142858</ele><time>2026-05-02T15:20:20.858Z</time></trkpt><trkpt lat="42.1004397" lon="13.3704782"><ele>820.1428571428571</ele><time>2026-05-02T15:20:22.858Z</time></trkpt><trkpt lat="42.1003675" lon="13.3705229"><ele>818.5714285714286</ele><time>2026-05-02T15:20:24.932Z</time></trkpt><trkpt lat="42.1002932" lon="13.3705405"><ele>817.0</ele><time>2026-05-02T15:20:27.886Z</time></trkpt><trkpt lat="42.10021" lon="13.370496"><ele>817.0</ele><time>2026-05-02T15:20:29.859Z</time></trkpt><trkpt lat="42.1000958" lon="13.3704443"><ele>817.0</ele><time>2026-05-02T15:20:31.859Z</time></trkpt><trkpt lat="42.1000227" lon="13.3704036"><ele>817.0</ele><time>2026-05-02T15:20:32.858Z</time></trkpt><trkpt lat="42.0999432" lon="13.3703481"><ele>817.0</ele><time>2026-05-02T15:20:33.858Z</time></trkpt><trkpt lat="42.0998716" lon="13.3702807"><ele>817.0</ele><time>2026-05-02T15:20:34.858Z</time></trkpt><trkpt lat="42.0998015" lon="13.3702129"><ele>813.6</ele><time>2026-05-02T15:20:35.859Z</time></trkpt><trkpt lat="42.0997326" lon="13.3701422"><ele>810.2</ele><time>2026-05-02T15:20:36.858Z</time></trkpt><trkpt lat="42.0996639" lon="13.370064"><ele>806.8</ele><time>2026-05-02T15:20:37.859Z</time></trkpt><trkpt lat="42.0995951" lon="13.3699812"><ele>803.4</ele><time>2026-05-02T15:20:38.858Z</time></trkpt><trkpt lat="42.0995244" lon="13.3699004"><ele>800.0</ele><time>2026-05-02T15:20:39.859Z</time></trkpt><trkpt lat="42.0994551" lon="13.3698168"><ele>800.0</ele><time>2026-05-02T15:20:40.859Z</time></trkpt><trkpt lat="42.09939" lon="13.369725"><ele>800.0</ele><time>2026-05-02T15:20:41.858Z</time></trkpt><trkpt lat="42.09933" lon="13.3696383"><ele>800.0</ele><time>2026-05-02T15:20:42.858Z</time></trkpt><trkpt lat="42.09927" lon="13.3695583"><ele>800.0</ele><time>2026-05-02T15:20:43.859Z</time></trkpt><trkpt lat="42.0992017" lon="13.369475"><ele>800.0</ele><time>2026-05-02T15:20:44.858Z</time></trkpt><trkpt lat="42.0991283" lon="13.369395"><ele>798.0</ele><time>2026-05-02T15:20:45.858Z</time></trkpt><trkpt lat="42.0990517" lon="13.3693167"><ele>796.0</ele><time>2026-05-02T15:20:46.858Z</time></trkpt><trkpt lat="42.0989783" lon="13.36924"><ele>794.0</ele><time>2026-05-02T15:20:47.858Z</time></trkpt><trkpt lat="42.0989017" lon="13.36917"><ele>792.0</ele><time>2026-05-02T15:20:48.859Z</time></trkpt><trkpt lat="42.0988317" lon="13.369095"><ele>790.0</ele><time>2026-05-02T15:20:49.858Z</time></trkpt><trkpt lat="42.0987617" lon="13.3690267"><ele>789.9999999999999</ele><time>2026-05-02T15:20:50.858Z</time></trkpt><trkpt lat="42.0986967" lon="13.3689633"><ele>790.0</ele><time>2026-05-02T15:20:51.858Z</time></trkpt><trkpt lat="42.0986217" lon="13.3689117"><ele>790.0</ele><time>2026-05-02T15:20:52.859Z</time></trkpt><trkpt lat="42.0985433" lon="13.3688617"><ele>790.0</ele><time>2026-05-02T15:20:53.858Z</time></trkpt><trkpt lat="42.0984617" lon="13.3688033"><ele>789.9999999999999</ele><time>2026-05-02T15:20:54.859Z</time></trkpt><trkpt lat="42.0983817" lon="13.3687583"><ele>790.0</ele><time>2026-05-02T15:20:55.858Z</time></trkpt><trkpt lat="42.098305" lon="13.368715"><ele>789.3333333333333</ele><time>2026-05-02T15:20:56.859Z</time></trkpt><trkpt lat="42.0982283" lon="13.3686683"><ele>788.6666666666666</ele><time>2026-05-02T15:20:57.858Z</time></trkpt><trkpt lat="42.0981583" lon="13.3686267"><ele>788.0</ele><time>2026-05-02T15:20:58.858Z</time></trkpt><trkpt lat="42.0980783" lon="13.36859"><ele>787.3333333333333</ele><time>2026-05-02T15:20:59.859Z</time></trkpt><trkpt lat="42.0979917" lon="13.3685533"><ele>786.6666666666666</ele><time>2026-05-02T15:21:00.859Z</time></trkpt><trkpt lat="42.097915" lon="13.3685183"><ele>786.0</ele><time>2026-05-02T15:21:01.858Z</time></trkpt><trkpt lat="42.0978367" lon="13.368475"><ele>786.0</ele><time>2026-05-02T15:21:02.859Z</time></trkpt><trkpt lat="42.0977533" lon="13.3684417"><ele>786.0</ele><time>2026-05-02T15:21:03.859Z</time></trkpt><trkpt lat="42.097685" lon="13.3684117"><ele>786.0</ele><time>2026-05-02T15:21:04.858Z</time></trkpt><trkpt lat="42.097615" lon="13.3683783"><ele>786.0</ele><time>2026-05-02T15:21:05.859Z</time></trkpt><trkpt lat="42.0975417" lon="13.36835"><ele>786.0</ele><time>2026-05-02T15:21:06.859Z</time></trkpt><trkpt lat="42.0974733" lon="13.368325"><ele>786.0</ele><time>2026-05-02T15:21:07.858Z</time></trkpt><trkpt lat="42.097405" lon="13.368305"><ele>783.7142857142858</ele><time>2026-05-02T15:21:08.858Z</time></trkpt><trkpt lat="42.0973367" lon="13.36829"><ele>781.4285714285714</ele><time>2026-05-02T15:21:09.859Z</time></trkpt><trkpt lat="42.097265" lon="13.368275"><ele>779.1428571428571</ele><time>2026-05-02T15:21:10.859Z</time></trkpt><trkpt lat="42.097195" lon="13.3682567"><ele>776.8571428571429</ele><time>2026-05-02T15:21:11.858Z</time></trkpt><trkpt lat="42.0971267" lon="13.3682283"><ele>774.5714285714286</ele><time>2026-05-02T15:21:12.858Z</time></trkpt><trkpt lat="42.0970533" lon="13.3681933"><ele>772.2857142857143</ele><time>2026-05-02T15:21:13.858Z</time></trkpt><trkpt lat="42.0969783" lon="13.3681567"><ele>770.0</ele><time>2026-05-02T15:21:14.859Z</time></trkpt><trkpt lat="42.0969067" lon="13.368115"><ele>770.0000000000001</ele><time>2026-05-02T15:21:15.859Z</time></trkpt><trkpt lat="42.09684" lon="13.368065"><ele>770.0</ele><time>2026-05-02T15:21:16.858Z</time></trkpt><trkpt lat="42.0967783" lon="13.3680183"><ele>770.0</ele><time>2026-05-02T15:21:17.859Z</time></trkpt><trkpt lat="42.096685" lon="13.3679267"><ele>770.0</ele><time>2026-05-02T15:21:19.858Z</time></trkpt><trkpt lat="42.0966017" lon="13.3678183"><ele>770.0000000000001</ele><time>2026-05-02T15:21:21.858Z</time></trkpt><trkpt lat="42.09655" lon="13.367765"><ele>770.0</ele><time>2026-05-02T15:21:22.858Z</time></trkpt><trkpt lat="42.0964917" lon="13.3677117"><ele>767.1666666666667</ele><time>2026-05-02T15:21:23.858Z</time></trkpt><trkpt lat="42.09644" lon="13.367655"><ele>764.3333333333334</ele><time>2026-05-02T15:21:24.858Z</time></trkpt><trkpt lat="42.0963917" lon="13.3675917"><ele>761.5</ele><time>2026-05-02T15:21:25.859Z</time></trkpt><trkpt lat="42.0963" lon="13.3674783"><ele>758.6666666666667</ele><time>2026-05-02T15:21:27.858Z</time></trkpt><trkpt lat="42.0962533" lon="13.367415"><ele>755.8333333333334</ele><time>2026-05-02T15:21:28.858Z</time></trkpt><trkpt lat="42.096195" lon="13.3673533"><ele>753.0</ele><time>2026-05-02T15:21:29.858Z</time></trkpt><trkpt lat="42.0960892" lon="13.3672752"><ele>753.0</ele><time>2026-05-02T15:21:31.859Z</time></trkpt><trkpt lat="42.0959837" lon="13.3671944"><ele>753.0</ele><time>2026-05-02T15:21:33.859Z</time></trkpt><trkpt lat="42.0958761" lon="13.3671506"><ele>753.0</ele><time>2026-05-02T15:21:35.859Z</time></trkpt><trkpt lat="42.0957471" lon="13.3671219"><ele>753.0</ele><time>2026-05-02T15:21:37.859Z</time></trkpt><trkpt lat="42.0956611" lon="13.3671004"><ele>748.5</ele><time>2026-05-02T15:21:38.858Z</time></trkpt><trkpt lat="42.0955683" lon="13.367056"><ele>744.0</ele><time>2026-05-02T15:21:39.859Z</time></trkpt><trkpt lat="42.0954658" lon="13.3670061"><ele>739.5</ele><time>2026-05-02T15:21:40.858Z</time></trkpt><trkpt lat="42.0953498" lon="13.3669511"><ele>735.0</ele><time>2026-05-02T15:21:41.859Z</time></trkpt><trkpt lat="42.0952295" lon="13.366883"><ele>735.0</ele><time>2026-05-02T15:21:42.859Z</time></trkpt><trkpt lat="42.0951113" lon="13.3668142"><ele>735.0</ele><time>2026-05-02T15:21:43.858Z</time></trkpt><trkpt lat="42.0950037" lon="13.366754"><ele>735.0</ele><time>2026-05-02T15:21:44.858Z</time></trkpt><trkpt lat="42.0949098" lon="13.3667038"><ele>735.0</ele><time>2026-05-02T15:21:45.858Z</time></trkpt><trkpt lat="42.0948263" lon="13.3666778"><ele>735.0</ele><time>2026-05-02T15:21:46.858Z</time></trkpt><trkpt lat="42.0947502" lon="13.3666692"><ele>734.8333333333334</ele><time>2026-05-02T15:21:47.859Z</time></trkpt><trkpt lat="42.0946873" lon="13.366664"><ele>734.6666666666666</ele><time>2026-05-02T15:21:48.858Z</time></trkpt><trkpt lat="42.0946089" lon="13.3666359"><ele>734.5</ele><time>2026-05-02T15:21:50.858Z</time></trkpt><trkpt lat="42.0945499" lon="13.3665445"><ele>734.3333333333333</ele><time>2026-05-02T15:23:30.859Z</time></trkpt><trkpt lat="42.0944833" lon="13.3664926"><ele>734.1666666666666</ele><time>2026-05-02T15:23:31.859Z</time></trkpt><trkpt lat="42.0944025" lon="13.3664137"><ele>734.0</ele><time>2026-05-02T15:23:32.858Z</time></trkpt><trkpt lat="42.0943446" lon="13.3663398"><ele>733.5</ele><time>2026-05-02T15:23:33.859Z</time></trkpt><trkpt lat="42.0943073" lon="13.3662457"><ele>733.0</ele><time>2026-05-02T15:23:35.858Z</time></trkpt><trkpt lat="42.0943434" lon="13.3661486"><ele>732.5</ele><time>2026-05-02T15:23:37.859Z</time></trkpt><trkpt lat="42.0943772" lon="13.3660752"><ele>732.0</ele><time>2026-05-02T15:23:38.858Z</time></trkpt><trkpt lat="42.0944272" lon="13.3659834"><ele>731.5</ele><time>2026-05-02T15:23:39.858Z</time></trkpt><trkpt lat="42.0944946" lon="13.3658838"><ele>731.0</ele><time>2026-05-02T15:23:40.859Z</time></trkpt><trkpt lat="42.0945721" lon="13.3657823"><ele>731.0</ele><time>2026-05-02T15:23:41.859Z</time></trkpt><trkpt lat="42.0946504" lon="13.3656749"><ele>731.0</ele><time>2026-05-02T15:23:42.858Z</time></trkpt><trkpt lat="42.0947283" lon="13.3655639"><ele>731.0</ele><time>2026-05-02T15:23:43.858Z</time></trkpt><trkpt lat="42.09481" lon="13.3654457"><ele>731.0</ele><time>2026-05-02T15:23:44.859Z</time></trkpt><trkpt lat="42.0948928" lon="13.365318"><ele>730.5</ele><time>2026-05-02T15:23:45.858Z</time></trkpt><trkpt lat="42.0949796" lon="13.3651841"><ele>730.0</ele><time>2026-05-02T15:23:46.858Z</time></trkpt><trkpt lat="42.0950641" lon="13.3650583"><ele>729.5</ele><time>2026-05-02T15:23:47.859Z</time></trkpt><trkpt lat="42.0951514" lon="13.364938"><ele>729.0</ele><time>2026-05-02T15:23:48.858Z</time></trkpt><trkpt lat="42.0952371" lon="13.3648126"><ele>728.75</ele><time>2026-05-02T15:23:49.859Z</time></trkpt><trkpt lat="42.0953168" lon="13.3646825"><ele>728.5</ele><time>2026-05-02T15:23:50.858Z</time></trkpt><trkpt lat="42.0954014" lon="13.3645636"><ele>728.25</ele><time>2026-05-02T15:23:51.859Z</time></trkpt><trkpt lat="42.0954922" lon="13.3644496"><ele>728.0</ele><time>2026-05-02T15:23:52.858Z</time></trkpt><trkpt lat="42.0955925" lon="13.3643451"><ele>728.0</ele><time>2026-05-02T15:23:53.858Z</time></trkpt><trkpt lat="42.0956983" lon="13.3642303"><ele>728.0</ele><time>2026-05-02T15:23:54.859Z</time></trkpt><trkpt lat="42.0958001" lon="13.3640986"><ele>728.0</ele><time>2026-05-02T15:23:55.858Z</time></trkpt><trkpt lat="42.0959008" lon="13.3639501"><ele>728.0</ele><time>2026-05-02T15:23:56.859Z</time></trkpt><trkpt lat="42.096003" lon="13.3637903"><ele>726.0</ele><time>2026-05-02T15:23:57.859Z</time></trkpt><trkpt lat="42.0961122" lon="13.3636269"><ele>724.0</ele><time>2026-05-02T15:23:58.859Z</time></trkpt><trkpt lat="42.0962294" lon="13.3634586"><ele>722.0</ele><time>2026-05-02T15:23:59.859Z</time></trkpt><trkpt lat="42.0963454" lon="13.3632885"><ele>722.0</ele><time>2026-05-02T15:24:00.859Z</time></trkpt><trkpt lat="42.0964587" lon="13.3631209"><ele>722.0</ele><time>2026-05-02T15:24:01.858Z</time></trkpt><trkpt lat="42.0965617" lon="13.3629598"><ele>722.0</ele><time>2026-05-02T15:24:02.858Z</time></trkpt><trkpt lat="42.0966637" lon="13.3628034"><ele>720.5</ele><time>2026-05-02T15:24:03.858Z</time></trkpt><trkpt lat="42.0967605" lon="13.3626527"><ele>719.0</ele><time>2026-05-02T15:24:04.858Z</time></trkpt><trkpt lat="42.0968526" lon="13.3625051"><ele>717.5</ele><time>2026-05-02T15:24:05.858Z</time></trkpt><trkpt lat="42.096945" lon="13.3623577"><ele>716.0</ele><time>2026-05-02T15:24:06.859Z</time></trkpt><trkpt lat="42.0970437" lon="13.3622076"><ele>715.6666666666666</ele><time>2026-05-02T15:24:07.858Z</time></trkpt><trkpt lat="42.0971493" lon="13.3620494"><ele>715.3333333333334</ele><time>2026-05-02T15:24:08.858Z</time></trkpt><trkpt lat="42.0972606" lon="13.3618857"><ele>715.0</ele><time>2026-05-02T15:24:09.859Z</time></trkpt><trkpt lat="42.0973722" lon="13.3617192"><ele>714.6666666666667</ele><time>2026-05-02T15:24:10.858Z</time></trkpt><trkpt lat="42.0974817" lon="13.3615496"><ele>714.3333333333334</ele><time>2026-05-02T15:24:11.858Z</time></trkpt><trkpt lat="42.0975887" lon="13.3613797"><ele>714.0</ele><time>2026-05-02T15:24:12.859Z</time></trkpt><trkpt lat="42.0976956" lon="13.3612138"><ele>714.0</ele><time>2026-05-02T15:24:13.858Z</time></trkpt><trkpt lat="42.097803" lon="13.3610482"><ele>714.0</ele><time>2026-05-02T15:24:14.859Z</time></trkpt><trkpt lat="42.0979079" lon="13.3608876"><ele>714.0</ele><time>2026-05-02T15:24:15.858Z</time></trkpt><trkpt lat="42.0980128" lon="13.3607209"><ele>714.0</ele><time>2026-05-02T15:24:16.858Z</time></trkpt><trkpt lat="42.0981289" lon="13.3605601"><ele>714.0</ele><time>2026-05-02T15:24:17.858Z</time></trkpt><trkpt lat="42.0982514" lon="13.3603983"><ele>714.0</ele><time>2026-05-02T15:24:18.858Z</time></trkpt><trkpt lat="42.0983786" lon="13.3602386"><ele>712.3333333333334</ele><time>2026-05-02T15:24:19.858Z</time></trkpt><trkpt lat="42.0985086" lon="13.3600827"><ele>710.6666666666667</ele><time>2026-05-02T15:24:20.858Z</time></trkpt><trkpt lat="42.0986418" lon="13.3599369"><ele>709.0</ele><time>2026-05-02T15:24:21.858Z</time></trkpt><trkpt lat="42.0987752" lon="13.3597884"><ele>708.6666666666667</ele><time>2026-05-02T15:24:22.858Z</time></trkpt><trkpt lat="42.0989109" lon="13.3596442"><ele>708.3333333333334</ele><time>2026-05-02T15:24:23.859Z</time></trkpt><trkpt lat="42.099041" lon="13.3594991"><ele>708.0</ele><time>2026-05-02T15:24:24.859Z</time></trkpt><trkpt lat="42.0991627" lon="13.3593566"><ele>708.0</ele><time>2026-05-02T15:24:25.858Z</time></trkpt><trkpt lat="42.0992781" lon="13.3592099"><ele>708.0</ele><time>2026-05-02T15:24:26.858Z</time></trkpt><trkpt lat="42.0993946" lon="13.3590688"><ele>708.0</ele><time>2026-05-02T15:24:27.858Z</time></trkpt><trkpt lat="42.0995082" lon="13.3589263"><ele>708.0</ele><time>2026-05-02T15:24:28.859Z</time></trkpt><trkpt lat="42.0996134" lon="13.3587942"><ele>708.0</ele><time>2026-05-02T15:24:29.858Z</time></trkpt><trkpt lat="42.0997016" lon="13.3586723"><ele>708.0</ele><time>2026-05-02T15:24:30.858Z</time></trkpt><trkpt lat="42.0997756" lon="13.3585596"><ele>708.0</ele><time>2026-05-02T15:24:31.858Z</time></trkpt><trkpt lat="42.099851" lon="13.3584408"><ele>708.25</ele><time>2026-05-02T15:24:32.858Z</time></trkpt><trkpt lat="42.0999477" lon="13.3583239"><ele>708.5</ele><time>2026-05-02T15:24:33.859Z</time></trkpt><trkpt lat="42.1000581" lon="13.3582023"><ele>708.75</ele><time>2026-05-02T15:24:34.859Z</time></trkpt><trkpt lat="42.1001726" lon="13.35808"><ele>709.0</ele><time>2026-05-02T15:24:35.859Z</time></trkpt><trkpt lat="42.1002906" lon="13.3579685"><ele>709.0</ele><time>2026-05-02T15:24:36.858Z</time></trkpt><trkpt lat="42.1004066" lon="13.3578546"><ele>709.0</ele><time>2026-05-02T15:24:37.859Z</time></trkpt><trkpt lat="42.1005221" lon="13.3577388"><ele>709.0</ele><time>2026-05-02T15:24:38.859Z</time></trkpt><trkpt lat="42.1006383" lon="13.3576255"><ele>709.0</ele><time>2026-05-02T15:24:39.858Z</time></trkpt><trkpt lat="42.100743" lon="13.3575059"><ele>709.25</ele><time>2026-05-02T15:24:40.859Z</time></trkpt><trkpt lat="42.1008363" lon="13.3573876"><ele>709.5</ele><time>2026-05-02T15:24:41.858Z</time></trkpt><trkpt lat="42.1009305" lon="13.3572705"><ele>709.75</ele><time>2026-05-02T15:24:42.858Z</time></trkpt><trkpt lat="42.1010416" lon="13.3571648"><ele>710.0</ele><time>2026-05-02T15:24:43.858Z</time></trkpt><trkpt lat="42.1011676" lon="13.3570588"><ele>710.0</ele><time>2026-05-02T15:24:44.858Z</time></trkpt><trkpt lat="42.1013013" lon="13.3569567"><ele>710.0</ele><time>2026-05-02T15:24:45.859Z</time></trkpt><trkpt lat="42.1014383" lon="13.3568513"><ele>710.0</ele><time>2026-05-02T15:24:46.858Z</time></trkpt><trkpt lat="42.1015664" lon="13.3567243"><ele>711.0</ele><time>2026-05-02T15:24:47.858Z</time></trkpt><trkpt lat="42.1016889" lon="13.3565851"><ele>712.0</ele><time>2026-05-02T15:24:48.858Z</time></trkpt><trkpt lat="42.1018104" lon="13.3564373"><ele>713.0</ele><time>2026-05-02T15:24:49.858Z</time></trkpt><trkpt lat="42.1019344" lon="13.3562855"><ele>713.0</ele><time>2026-05-02T15:24:50.859Z</time></trkpt><trkpt lat="42.1020607" lon="13.3561331"><ele>713.0</ele><time>2026-05-02T15:24:51.858Z</time></trkpt><trkpt lat="42.1021862" lon="13.3559715"><ele>713.0</ele><time>2026-05-02T15:24:52.859Z</time></trkpt><trkpt lat="42.1023135" lon="13.3558056"><ele>713.0</ele><time>2026-05-02T15:24:53.859Z</time></trkpt><trkpt lat="42.1024425" lon="13.3556427"><ele>713.0</ele><time>2026-05-02T15:24:54.858Z</time></trkpt><trkpt lat="42.1025675" lon="13.3554792"><ele>713.0</ele><time>2026-05-02T15:24:55.859Z</time></trkpt><trkpt lat="42.1026916" lon="13.3553131"><ele>713.0</ele><time>2026-05-02T15:24:56.858Z</time></trkpt><trkpt lat="42.1028138" lon="13.3551515"><ele>713.0</ele><time>2026-05-02T15:24:57.858Z</time></trkpt><trkpt lat="42.1029381" lon="13.3549864"><ele>713.0</ele><time>2026-05-02T15:24:58.859Z</time></trkpt><trkpt lat="42.1030682" lon="13.3548255"><ele>713.6666666666666</ele><time>2026-05-02T15:24:59.859Z</time></trkpt><trkpt lat="42.1031969" lon="13.3546631"><ele>714.3333333333334</ele><time>2026-05-02T15:25:00.858Z</time></trkpt><trkpt lat="42.1033228" lon="13.3545051"><ele>715.0</ele><time>2026-05-02T15:25:01.858Z</time></trkpt><trkpt lat="42.1034432" lon="13.3543491"><ele>717.6666666666667</ele><time>2026-05-02T15:25:02.859Z</time></trkpt><trkpt lat="42.1035601" lon="13.3541848"><ele>720.3333333333334</ele><time>2026-05-02T15:25:03.858Z</time></trkpt><trkpt lat="42.1036744" lon="13.3540197"><ele>723.0</ele><time>2026-05-02T15:25:04.858Z</time></trkpt><trkpt lat="42.1037916" lon="13.3538604"><ele>724.6666666666666</ele><time>2026-05-02T15:25:05.858Z</time></trkpt><trkpt lat="42.1039073" lon="13.353705"><ele>726.3333333333333</ele><time>2026-05-02T15:25:06.859Z</time></trkpt><trkpt lat="42.1040262" lon="13.3535522"><ele>728.0</ele><time>2026-05-02T15:25:07.859Z</time></trkpt><trkpt lat="42.1041434" lon="13.3534057"><ele>728.6666666666666</ele><time>2026-05-02T15:25:08.858Z</time></trkpt><trkpt lat="42.1042687" lon="13.3532686"><ele>729.3333333333334</ele><time>2026-05-02T15:25:09.858Z</time></trkpt><trkpt lat="42.1043993" lon="13.3531433"><ele>730.0</ele><time>2026-05-02T15:25:10.859Z</time></trkpt><trkpt lat="42.1045385" lon="13.3530322"><ele>731.0</ele><time>2026-05-02T15:25:11.858Z</time></trkpt><trkpt lat="42.1046811" lon="13.3529311"><ele>732.0</ele><time>2026-05-02T15:25:12.858Z</time></trkpt><trkpt lat="42.1048212" lon="13.3528229"><ele>733.0</ele><time>2026-05-02T15:25:13.858Z</time></trkpt><trkpt lat="42.1049625" lon="13.3527132"><ele>734.75</ele><time>2026-05-02T15:25:14.858Z</time></trkpt><trkpt lat="42.105093" lon="13.3526062"><ele>736.5</ele><time>2026-05-02T15:25:15.858Z</time></trkpt><trkpt lat="42.1052048" lon="13.3525136"><ele>738.25</ele><time>2026-05-02T15:25:16.858Z</time></trkpt><trkpt lat="42.1052962" lon="13.3524393"><ele>740.0</ele><time>2026-05-02T15:25:17.859Z</time></trkpt><trkpt lat="42.105361" lon="13.3523785"><ele>740.0</ele><time>2026-05-02T15:25:18.858Z</time></trkpt><trkpt lat="42.1054231" lon="13.3523221"><ele>740.0</ele><time>2026-05-02T15:25:19.858Z</time></trkpt><trkpt lat="42.1054882" lon="13.3522621"><ele>740.0</ele><time>2026-05-02T15:25:20.859Z</time></trkpt><trkpt lat="42.1055614" lon="13.3522055"><ele>740.0</ele><time>2026-05-02T15:25:21.859Z</time></trkpt><trkpt lat="42.1056401" lon="13.3521426"><ele>740.0</ele><time>2026-05-02T15:25:22.858Z</time></trkpt><trkpt lat="42.1057206" lon="13.3520803"><ele>740.0</ele><time>2026-05-02T15:25:23.858Z</time></trkpt><trkpt lat="42.1057981" lon="13.3520215"><ele>740.8</ele><time>2026-05-02T15:25:24.859Z</time></trkpt><trkpt lat="42.1058748" lon="13.3519598"><ele>741.6</ele><time>2026-05-02T15:25:25.858Z</time></trkpt><trkpt lat="42.1059535" lon="13.3518938"><ele>742.4000000000001</ele><time>2026-05-02T15:25:26.858Z</time></trkpt><trkpt lat="42.1060411" lon="13.3518213"><ele>743.2</ele><time>2026-05-02T15:25:27.858Z</time></trkpt><trkpt lat="42.1061385" lon="13.3517427"><ele>744.0</ele><time>2026-05-02T15:25:28.859Z</time></trkpt><trkpt lat="42.1062353" lon="13.3516645"><ele>744.0</ele><time>2026-05-02T15:25:29.858Z</time></trkpt><trkpt lat="42.1063224" lon="13.3515937"><ele>744.0</ele><time>2026-05-02T15:25:30.858Z</time></trkpt><trkpt lat="42.1063919" lon="13.3515377"><ele>744.0</ele><time>2026-05-02T15:25:31.858Z</time></trkpt><trkpt lat="42.1064709" lon="13.3514819"><ele>744.0</ele><time>2026-05-02T15:25:33.859Z</time></trkpt><trkpt lat="42.1065627" lon="13.3514267"><ele>744.0</ele><time>2026-05-02T15:25:36.859Z</time></trkpt><trkpt lat="42.1066295" lon="13.3513909"><ele>744.0</ele><time>2026-05-02T15:25:37.858Z</time></trkpt><trkpt lat="42.1067015" lon="13.3513537"><ele>744.5</ele><time>2026-05-02T15:25:38.858Z</time></trkpt><trkpt lat="42.1067729" lon="13.3513222"><ele>745.0</ele><time>2026-05-02T15:25:39.859Z</time></trkpt><trkpt lat="42.1068401" lon="13.3512955"><ele>745.5</ele><time>2026-05-02T15:25:40.858Z</time></trkpt><trkpt lat="42.1069348" lon="13.3511979"><ele>746.0</ele><time>2026-05-02T15:25:42.858Z</time></trkpt><trkpt lat="42.1069656" lon="13.351116"><ele>746.5</ele><time>2026-05-02T15:25:43.858Z</time></trkpt><trkpt lat="42.1069929" lon="13.3510105"><ele>747.0</ele><time>2026-05-02T15:25:44.859Z</time></trkpt><trkpt lat="42.1070142" lon="13.3508862"><ele>747.0</ele><time>2026-05-02T15:25:45.858Z</time></trkpt><trkpt lat="42.1070338" lon="13.3507581"><ele>747.0</ele><time>2026-05-02T15:25:46.859Z</time></trkpt><trkpt lat="42.1070567" lon="13.3506317"><ele>747.0</ele><time>2026-05-02T15:25:47.859Z</time></trkpt><trkpt lat="42.1070817" lon="13.3505183"><ele>747.0</ele><time>2026-05-02T15:25:48.858Z</time></trkpt><trkpt lat="42.1071" lon="13.3504183"><ele>747.0</ele><time>2026-05-02T15:25:49.859Z</time></trkpt><trkpt lat="42.1071083" lon="13.3503267"><ele>747.0</ele><time>2026-05-02T15:25:50.859Z</time></trkpt><trkpt lat="42.1071183" lon="13.3502267"><ele>747.4000000000001</ele><time>2026-05-02T15:25:51.859Z</time></trkpt><trkpt lat="42.1071433" lon="13.35013"><ele>747.8000000000001</ele><time>2026-05-02T15:25:52.859Z</time></trkpt><trkpt lat="42.1071883" lon="13.3500333"><ele>748.2</ele><time>2026-05-02T15:25:53.858Z</time></trkpt><trkpt lat="42.10726" lon="13.34994"><ele>748.6</ele><time>2026-05-02T15:25:54.859Z</time></trkpt><trkpt lat="42.1073383" lon="13.3498117"><ele>749.0</ele><time>2026-05-02T15:25:55.859Z</time></trkpt><trkpt lat="42.1074217" lon="13.3496817"><ele>749.4000000000001</ele><time>2026-05-02T15:25:56.858Z</time></trkpt><trkpt lat="42.1075017" lon="13.34957"><ele>749.8</ele><time>2026-05-02T15:25:57.859Z</time></trkpt><trkpt lat="42.1075783" lon="13.3494667"><ele>750.2</ele><time>2026-05-02T15:25:58.859Z</time></trkpt><trkpt lat="42.107645" lon="13.3493783"><ele>750.5999999999999</ele><time>2026-05-02T15:25:59.859Z</time></trkpt><trkpt lat="42.1077033" lon="13.3492783"><ele>751.0</ele><time>2026-05-02T15:26:00.859Z</time></trkpt><trkpt lat="42.1077433" lon="13.3491517"><ele>751.0</ele><time>2026-05-02T15:26:01.858Z</time></trkpt><trkpt lat="42.10777" lon="13.349025"><ele>751.0</ele><time>2026-05-02T15:26:02.859Z</time></trkpt><trkpt lat="42.1078" lon="13.3488833"><ele>751.0</ele><time>2026-05-02T15:26:03.858Z</time></trkpt><trkpt lat="42.1078283" lon="13.3487283"><ele>751.0</ele><time>2026-05-02T15:26:04.858Z</time></trkpt><trkpt lat="42.10785" lon="13.3485667"><ele>751.0</ele><time>2026-05-02T15:26:05.858Z</time></trkpt><trkpt lat="42.10787" lon="13.3484033"><ele>751.0</ele><time>2026-05-02T15:26:06.859Z</time></trkpt><trkpt lat="42.1078917" lon="13.3482583"><ele>751.0</ele><time>2026-05-02T15:26:07.859Z</time></trkpt><trkpt lat="42.10791" lon="13.34813"><ele>751.0</ele><time>2026-05-02T15:26:08.858Z</time></trkpt><trkpt lat="42.1079267" lon="13.3480217"><ele>751.0</ele><time>2026-05-02T15:26:09.859Z</time></trkpt><trkpt lat="42.107945" lon="13.347885"><ele>751.0</ele><time>2026-05-02T15:26:11.859Z</time></trkpt><trkpt lat="42.1079383" lon="13.3477333"><ele>751.3333333333334</ele><time>2026-05-02T15:26:39.858Z</time></trkpt><trkpt lat="42.1080367" lon="13.3477"><ele>751.6666666666667</ele><time>2026-05-02T15:27:18.858Z</time></trkpt><trkpt lat="42.108105" lon="13.3476583"><ele>752.0</ele><time>2026-05-02T15:27:19.858Z</time></trkpt><trkpt lat="42.1081867" lon="13.3476167"><ele>752.3333333333334</ele><time>2026-05-02T15:27:20.859Z</time></trkpt><trkpt lat="42.1082717" lon="13.3475783"><ele>752.6666666666666</ele><time>2026-05-02T15:27:21.858Z</time></trkpt><trkpt lat="42.1083617" lon="13.3475333"><ele>753.0</ele><time>2026-05-02T15:27:22.858Z</time></trkpt><trkpt lat="42.10846" lon="13.3474883"><ele>754.25</ele><time>2026-05-02T15:27:23.858Z</time></trkpt><trkpt lat="42.1085633" lon="13.3474417"><ele>755.5</ele><time>2026-05-02T15:27:24.858Z</time></trkpt><trkpt lat="42.108675" lon="13.347395"><ele>756.75</ele><time>2026-05-02T15:27:25.859Z</time></trkpt><trkpt lat="42.108795" lon="13.3473533"><ele>758.0</ele><time>2026-05-02T15:27:26.858Z</time></trkpt><trkpt lat="42.1089167" lon="13.347315"><ele>758.0</ele><time>2026-05-02T15:27:27.859Z</time></trkpt><trkpt lat="42.1090367" lon="13.34728"><ele>758.0</ele><time>2026-05-02T15:27:28.858Z</time></trkpt><trkpt lat="42.1091617" lon="13.34725"><ele>758.0</ele><time>2026-05-02T15:27:29.858Z</time></trkpt><trkpt lat="42.1092817" lon="13.3472183"><ele>758.0</ele><time>2026-05-02T15:27:30.858Z</time></trkpt><trkpt lat="42.109385" lon="13.3471933"><ele>759.1666666666666</ele><time>2026-05-02T15:27:31.859Z</time></trkpt><trkpt lat="42.1094633" lon="13.34717"><ele>760.3333333333333</ele><time>2026-05-02T15:27:32.858Z</time></trkpt><trkpt lat="42.10954" lon="13.3471533"><ele>761.5</ele><time>2026-05-02T15:27:33.858Z</time></trkpt><trkpt lat="42.1096133" lon="13.3471383"><ele>762.6666666666666</ele><time>2026-05-02T15:27:34.858Z</time></trkpt><trkpt lat="42.1096983" lon="13.3471183"><ele>763.8333333333334</ele><time>2026-05-02T15:27:35.859Z</time></trkpt><trkpt lat="42.1097967" lon="13.3470917"><ele>765.0</ele><time>2026-05-02T15:27:36.858Z</time></trkpt><trkpt lat="42.1099" lon="13.3470667"><ele>767.0</ele><time>2026-05-02T15:27:37.859Z</time></trkpt><trkpt lat="42.110005" lon="13.3470367"><ele>769.0</ele><time>2026-05-02T15:27:38.859Z</time></trkpt><trkpt lat="42.1101133" lon="13.3470017"><ele>771.0</ele><time>2026-05-02T15:27:39.858Z</time></trkpt><trkpt lat="42.1102317" lon="13.3469717"><ele>773.0</ele><time>2026-05-02T15:27:40.859Z</time></trkpt><trkpt lat="42.1103533" lon="13.3469333"><ele>773.0</ele><time>2026-05-02T15:27:41.858Z</time></trkpt><trkpt lat="42.1104733" lon="13.3468933"><ele>773.0</ele><time>2026-05-02T15:27:42.858Z</time></trkpt><trkpt lat="42.1105967" lon="13.34684"><ele>773.0</ele><time>2026-05-02T15:27:43.859Z</time></trkpt><trkpt lat="42.110725" lon="13.346785"><ele>773.0</ele><time>2026-05-02T15:27:44.858Z</time></trkpt><trkpt lat="42.11086" lon="13.3467233"><ele>774.25</ele><time>2026-05-02T15:27:45.859Z</time></trkpt><trkpt lat="42.111" lon="13.3466633"><ele>775.5</ele><time>2026-05-02T15:27:46.858Z</time></trkpt><trkpt lat="42.1111433" lon="13.3466017"><ele>776.75</ele><time>2026-05-02T15:27:47.859Z</time></trkpt><trkpt lat="42.1112867" lon="13.3465367"><ele>778.0</ele><time>2026-05-02T15:27:48.859Z</time></trkpt><trkpt lat="42.1114267" lon="13.3464667"><ele>778.0</ele><time>2026-05-02T15:27:49.859Z</time></trkpt><trkpt lat="42.1115717" lon="13.3463983"><ele>778.0</ele><time>2026-05-02T15:27:50.859Z</time></trkpt><trkpt lat="42.111715" lon="13.346335"><ele>778.0</ele><time>2026-05-02T15:27:51.859Z</time></trkpt><trkpt lat="42.11186" lon="13.3462667"><ele>780.3333333333333</ele><time>2026-05-02T15:27:52.858Z</time></trkpt><trkpt lat="42.1120067" lon="13.3461917"><ele>782.6666666666667</ele><time>2026-05-02T15:27:53.858Z</time></trkpt><trkpt lat="42.112155" lon="13.3461217"><ele>785.0</ele><time>2026-05-02T15:27:54.859Z</time></trkpt><trkpt lat="42.1122983" lon="13.3460367"><ele>787.6666666666667</ele><time>2026-05-02T15:27:55.858Z</time></trkpt><trkpt lat="42.1124433" lon="13.3459417"><ele>790.3333333333333</ele><time>2026-05-02T15:27:56.859Z</time></trkpt><trkpt lat="42.112585" lon="13.3458483"><ele>793.0</ele><time>2026-05-02T15:27:57.858Z</time></trkpt><trkpt lat="42.11273" lon="13.3457483"><ele>793.0</ele><time>2026-05-02T15:27:58.859Z</time></trkpt><trkpt lat="42.112865" lon="13.345645"><ele>793.0</ele><time>2026-05-02T15:27:59.858Z</time></trkpt><trkpt lat="42.1130133" lon="13.345555"><ele>793.0</ele><time>2026-05-02T15:28:00.858Z</time></trkpt><trkpt lat="42.1131483" lon="13.3454517"><ele>794.6666666666666</ele><time>2026-05-02T15:28:01.858Z</time></trkpt><trkpt lat="42.1132917" lon="13.34535"><ele>796.3333333333333</ele><time>2026-05-02T15:28:02.859Z</time></trkpt><trkpt lat="42.1134283" lon="13.345235"><ele>798.0</ele><time>2026-05-02T15:28:03.858Z</time></trkpt><trkpt lat="42.1135667" lon="13.3451317"><ele>798.0</ele><time>2026-05-02T15:28:04.859Z</time></trkpt><trkpt lat="42.11371" lon="13.3450383"><ele>798.0</ele><time>2026-05-02T15:28:05.858Z</time></trkpt><trkpt lat="42.113855" lon="13.344945"><ele>798.0</ele><time>2026-05-02T15:28:06.858Z</time></trkpt><trkpt lat="42.1139967" lon="13.34485"><ele>800.0</ele><time>2026-05-02T15:28:07.858Z</time></trkpt><trkpt lat="42.1141383" lon="13.344755"><ele>802.0</ele><time>2026-05-02T15:28:08.858Z</time></trkpt><trkpt lat="42.1142883" lon="13.3446767"><ele>804.0</ele><time>2026-05-02T15:28:09.858Z</time></trkpt><trkpt lat="42.1144433" lon="13.3446133"><ele>804.0</ele><time>2026-05-02T15:28:10.859Z</time></trkpt><trkpt lat="42.1145983" lon="13.344565"><ele>804.0</ele><time>2026-05-02T15:28:11.858Z</time></trkpt><trkpt lat="42.1147567" lon="13.34454"><ele>804.0</ele><time>2026-05-02T15:28:12.858Z</time></trkpt><trkpt lat="42.1149183" lon="13.3445283"><ele>805.3333333333333</ele><time>2026-05-02T15:28:13.858Z</time></trkpt><trkpt lat="42.1150833" lon="13.34452"><ele>806.6666666666666</ele><time>2026-05-02T15:28:14.859Z</time></trkpt><trkpt lat="42.1152467" lon="13.344505"><ele>808.0</ele><time>2026-05-02T15:28:15.859Z</time></trkpt><trkpt lat="42.1154167" lon="13.34449"><ele>808.0</ele><time>2026-05-02T15:28:16.858Z</time></trkpt><trkpt lat="42.115585" lon="13.3444733"><ele>808.0</ele><time>2026-05-02T15:28:17.858Z</time></trkpt><trkpt lat="42.115755" lon="13.3444483"><ele>808.0</ele><time>2026-05-02T15:28:18.858Z</time></trkpt><trkpt lat="42.1159228" lon="13.3444224"><ele>808.6666666666666</ele><time>2026-05-02T15:28:19.858Z</time></trkpt><trkpt lat="42.1160979" lon="13.3443902"><ele>809.3333333333333</ele><time>2026-05-02T15:28:20.858Z</time></trkpt><trkpt lat="42.1162706" lon="13.3443605"><ele>810.0</ele><time>2026-05-02T15:28:21.859Z</time></trkpt><trkpt lat="42.1164376" lon="13.3443376"><ele>813.0</ele><time>2026-05-02T15:28:22.859Z</time></trkpt><trkpt lat="42.1166017" lon="13.3443099"><ele>816.0</ele><time>2026-05-02T15:28:23.859Z</time></trkpt><trkpt lat="42.1167695" lon="13.3442819"><ele>819.0</ele><time>2026-05-02T15:28:24.859Z</time></trkpt><trkpt lat="42.1169328" lon="13.3442618"><ele>819.0</ele><time>2026-05-02T15:28:25.859Z</time></trkpt><trkpt lat="42.1170998" lon="13.3442451"><ele>819.0</ele><time>2026-05-02T15:28:26.859Z</time></trkpt><trkpt lat="42.1172702" lon="13.3442297"><ele>819.0</ele><time>2026-05-02T15:28:27.858Z</time></trkpt><trkpt lat="42.1174418" lon="13.3442121"><ele>821.3333333333333</ele><time>2026-05-02T15:28:28.858Z</time></trkpt><trkpt lat="42.1176086" lon="13.3441918"><ele>823.6666666666666</ele><time>2026-05-02T15:28:29.858Z</time></trkpt><trkpt lat="42.1177665" lon="13.3441742"><ele>826.0</ele><time>2026-05-02T15:28:30.858Z</time></trkpt><trkpt lat="42.1179138" lon="13.3441646"><ele>826.0</ele><time>2026-05-02T15:28:31.859Z</time></trkpt><trkpt lat="42.1180627" lon="13.3441593"><ele>826.0</ele><time>2026-05-02T15:28:32.859Z</time></trkpt><trkpt lat="42.1182179" lon="13.3441643"><ele>826.0</ele><time>2026-05-02T15:28:33.858Z</time></trkpt><trkpt lat="42.118374" lon="13.3441785"><ele>827.3333333333333</ele><time>2026-05-02T15:28:34.859Z</time></trkpt><trkpt lat="42.1185343" lon="13.3442013"><ele>828.6666666666667</ele><time>2026-05-02T15:28:35.858Z</time></trkpt><trkpt lat="42.1186919" lon="13.3442246"><ele>830.0</ele><time>2026-05-02T15:28:36.858Z</time></trkpt><trkpt lat="42.1188441" lon="13.3442443"><ele>830.0</ele><time>2026-05-02T15:28:37.858Z</time></trkpt><trkpt lat="42.1189964" lon="13.3442652"><ele>830.0</ele><time>2026-05-02T15:28:38.858Z</time></trkpt><trkpt lat="42.1191477" lon="13.3442798"><ele>830.0</ele><time>2026-05-02T15:28:39.858Z</time></trkpt><trkpt lat="42.1193011" lon="13.3442903"><ele>833.0</ele><time>2026-05-02T15:28:40.859Z</time></trkpt><trkpt lat="42.1194547" lon="13.3442946"><ele>836.0</ele><time>2026-05-02T15:28:41.859Z</time></trkpt><trkpt lat="42.1196148" lon="13.344288"><ele>839.0</ele><time>2026-05-02T15:28:42.858Z</time></trkpt><trkpt lat="42.1197815" lon="13.3442708"><ele>841.3333333333334</ele><time>2026-05-02T15:28:43.858Z</time></trkpt><trkpt lat="42.1199451" lon="13.3442355"><ele>843.6666666666667</ele><time>2026-05-02T15:28:44.859Z</time></trkpt><trkpt lat="42.120108" lon="13.3441898"><ele>846.0</ele><time>2026-05-02T15:28:45.859Z</time></trkpt><trkpt lat="42.120268" lon="13.3441333"><ele>846.0</ele><time>2026-05-02T15:28:46.858Z</time></trkpt><trkpt lat="42.1204265" lon="13.3440742"><ele>846.0</ele><time>2026-05-02T15:28:47.858Z</time></trkpt><trkpt lat="42.1205839" lon="13.3440161"><ele>846.0</ele><time>2026-05-02T15:28:48.859Z</time></trkpt><trkpt lat="42.1207388" lon="13.3439565"><ele>848.3333333333333</ele><time>2026-05-02T15:28:49.859Z</time></trkpt><trkpt lat="42.1208971" lon="13.3439058"><ele>850.6666666666666</ele><time>2026-05-02T15:28:50.858Z</time></trkpt><trkpt lat="42.1210505" lon="13.3438489"><ele>853.0</ele><time>2026-05-02T15:28:51.858Z</time></trkpt><trkpt lat="42.1212033" lon="13.3437862"><ele>853.5</ele><time>2026-05-02T15:28:52.858Z</time></trkpt><trkpt lat="42.1213423" lon="13.3437151"><ele>854.0</ele><time>2026-05-02T15:28:53.858Z</time></trkpt><trkpt lat="42.1214588" lon="13.3436285"><ele>854.5</ele><time>2026-05-02T15:28:54.858Z</time></trkpt><trkpt lat="42.1215545" lon="13.3435324"><ele>855.0</ele><time>2026-05-02T15:28:55.859Z</time></trkpt><trkpt lat="42.1216253" lon="13.3434203"><ele>857.5</ele><time>2026-05-02T15:28:56.858Z</time></trkpt><trkpt lat="42.121671" lon="13.3432944"><ele>860.0</ele><time>2026-05-02T15:28:57.859Z</time></trkpt><trkpt lat="42.1216844" lon="13.3431419"><ele>862.5</ele><time>2026-05-02T15:28:58.858Z</time></trkpt><trkpt lat="42.1216784" lon="13.3429729"><ele>865.0</ele><time>2026-05-02T15:28:59.858Z</time></trkpt><trkpt lat="42.1216651" lon="13.3427963"><ele>866.5</ele><time>2026-05-02T15:29:00.858Z</time></trkpt><trkpt lat="42.1216524" lon="13.3426186"><ele>868.0</ele><time>2026-05-02T15:29:01.858Z</time></trkpt><trkpt lat="42.1216377" lon="13.3424388"><ele>869.5</ele><time>2026-05-02T15:29:02.858Z</time></trkpt><trkpt lat="42.1216157" lon="13.3422576"><ele>871.0</ele><time>2026-05-02T15:29:03.858Z</time></trkpt><trkpt lat="42.1215844" lon="13.3420797"><ele>869.5</ele><time>2026-05-02T15:29:04.859Z</time></trkpt><trkpt lat="42.121546" lon="13.3419077"><ele>868.0</ele><time>2026-05-02T15:29:05.859Z</time></trkpt><trkpt lat="42.1215103" lon="13.3417346"><ele>866.5</ele><time>2026-05-02T15:29:06.858Z</time></trkpt><trkpt lat="42.1214816" lon="13.3415574"><ele>865.0</ele><time>2026-05-02T15:29:07.858Z</time></trkpt><trkpt lat="42.1214697" lon="13.3413718"><ele>865.0</ele><time>2026-05-02T15:29:08.859Z</time></trkpt><trkpt lat="42.1214708" lon="13.3411799"><ele>865.0</ele><time>2026-05-02T15:29:09.858Z</time></trkpt><trkpt lat="42.1214716" lon="13.340986"><ele>865.0</ele><time>2026-05-02T15:29:10.858Z</time></trkpt><trkpt lat="42.1214677" lon="13.3407945"><ele>865.0</ele><time>2026-05-02T15:29:11.858Z</time></trkpt><trkpt lat="42.1214658" lon="13.3405993"><ele>867.5</ele><time>2026-05-02T15:29:12.858Z</time></trkpt><trkpt lat="42.1214578" lon="13.3404133"><ele>870.0</ele><time>2026-05-02T15:29:13.858Z</time></trkpt><trkpt lat="42.1214489" lon="13.3402316"><ele>872.5</ele><time>2026-05-02T15:29:14.858Z</time></trkpt><trkpt lat="42.1214368" lon="13.3400548"><ele>875.0</ele><time>2026-05-02T15:29:15.859Z</time></trkpt><trkpt lat="42.1214192" lon="13.3398768"><ele>878.75</ele><time>2026-05-02T15:29:16.858Z</time></trkpt><trkpt lat="42.1213782" lon="13.3397021"><ele>882.5</ele><time>2026-05-02T15:29:17.858Z</time></trkpt><trkpt lat="42.1213218" lon="13.3395383"><ele>886.25</ele><time>2026-05-02T15:29:18.859Z</time></trkpt><trkpt lat="42.1212584" lon="13.339385"><ele>890.0</ele><time>2026-05-02T15:29:19.858Z</time></trkpt><trkpt lat="42.1212" lon="13.3392428"><ele>890.0</ele><time>2026-05-02T15:29:20.858Z</time></trkpt><trkpt lat="42.1211439" lon="13.3391187"><ele>890.0</ele><time>2026-05-02T15:29:21.859Z</time></trkpt><trkpt lat="42.1210839" lon="13.3389942"><ele>890.0</ele><time>2026-05-02T15:29:22.858Z</time></trkpt><trkpt lat="42.1210279" lon="13.3388759"><ele>890.0</ele><time>2026-05-02T15:29:23.859Z</time></trkpt><trkpt lat="42.1209785" lon="13.3387698"><ele>890.0</ele><time>2026-05-02T15:29:24.859Z</time></trkpt><trkpt lat="42.1209327" lon="13.3386792"><ele>892.8</ele><time>2026-05-02T15:29:25.858Z</time></trkpt><trkpt lat="42.1208867" lon="13.3386107"><ele>895.6</ele><time>2026-05-02T15:29:26.858Z</time></trkpt><trkpt lat="42.1207825" lon="13.3385392"><ele>898.4000000000001</ele><time>2026-05-02T15:29:28.858Z</time></trkpt><trkpt lat="42.1206704" lon="13.3386349"><ele>901.2</ele><time>2026-05-02T15:29:30.859Z</time></trkpt><trkpt lat="42.1206107" lon="13.3387339"><ele>904.0</ele><time>2026-05-02T15:29:31.859Z</time></trkpt><trkpt lat="42.1205439" lon="13.3388391"><ele>903.0</ele><time>2026-05-02T15:29:32.858Z</time></trkpt><trkpt lat="42.1204744" lon="13.3389475"><ele>902.0000000000001</ele><time>2026-05-02T15:29:33.859Z</time></trkpt><trkpt lat="42.1203972" lon="13.3390423"><ele>901.0000000000001</ele><time>2026-05-02T15:29:34.859Z</time></trkpt><trkpt lat="42.1203138" lon="13.3391311"><ele>900.0</ele><time>2026-05-02T15:29:35.858Z</time></trkpt><trkpt lat="42.1202335" lon="13.3392127"><ele>899.0</ele><time>2026-05-02T15:29:36.859Z</time></trkpt><trkpt lat="42.1201514" lon="13.339273"><ele>899.0000000000001</ele><time>2026-05-02T15:29:37.859Z</time></trkpt><trkpt lat="42.1200607" lon="13.3393064"><ele>899.0</ele><time>2026-05-02T15:29:38.858Z</time></trkpt><trkpt lat="42.1199683" lon="13.339295"><ele>899.0</ele><time>2026-05-02T15:29:39.858Z</time></trkpt><trkpt lat="42.1199033" lon="13.3392833"><ele>899.0</ele><time>2026-05-02T15:29:40.858Z</time></trkpt><trkpt lat="42.1197983" lon="13.3392467"><ele>899.0000000000001</ele><time>2026-05-02T15:29:42.858Z</time></trkpt><trkpt lat="42.1197267" lon="13.3392283"><ele>899.0</ele><time>2026-05-02T15:29:43.858Z</time></trkpt><trkpt lat="42.1196483" lon="13.33921"><ele>899.8000000000001</ele><time>2026-05-02T15:29:44.858Z</time></trkpt><trkpt lat="42.1195583" lon="13.339185"><ele>900.6000000000001</ele><time>2026-05-02T15:29:45.859Z</time></trkpt><trkpt lat="42.1194567" lon="13.3391783"><ele>901.4</ele><time>2026-05-02T15:29:46.859Z</time></trkpt><trkpt lat="42.119345" lon="13.3391733"><ele>902.2</ele><time>2026-05-02T15:29:47.858Z</time></trkpt><trkpt lat="42.11923" lon="13.3391567"><ele>903.0</ele><time>2026-05-02T15:29:48.858Z</time></trkpt><trkpt lat="42.1191383" lon="13.3391483"><ele>903.5</ele><time>2026-05-02T15:29:49.859Z</time></trkpt><trkpt lat="42.1190433" lon="13.3391483"><ele>904.0</ele><time>2026-05-02T15:29:50.858Z</time></trkpt><trkpt lat="42.1189533" lon="13.33914"><ele>904.5</ele><time>2026-05-02T15:29:51.858Z</time></trkpt><trkpt lat="42.1188683" lon="13.3391367"><ele>905.0</ele><time>2026-05-02T15:29:52.859Z</time></trkpt><trkpt lat="42.1187833" lon="13.3391383"><ele>905.5</ele><time>2026-05-02T15:29:53.858Z</time></trkpt><trkpt lat="42.1187183" lon="13.33914"><ele>906.0</ele><time>2026-05-02T15:29:54.858Z</time></trkpt><trkpt lat="42.118655" lon="13.3391467"><ele>906.0</ele><time>2026-05-02T15:29:55.858Z</time></trkpt><trkpt lat="42.1185583" lon="13.3391633"><ele>906.0</ele><time>2026-05-02T15:29:57.858Z</time></trkpt><trkpt lat="42.1184833" lon="13.33918"><ele>906.0</ele><time>2026-05-02T15:29:59.859Z</time></trkpt><trkpt lat="42.1184033" lon="13.339205"><ele>906.0</ele><time>2026-05-02T15:30:01.858Z</time></trkpt><trkpt lat="42.1183067" lon="13.3392017"><ele>906.0</ele><time>2026-05-02T15:30:03.858Z</time></trkpt><trkpt lat="42.11822" lon="13.3391617"><ele>906.0</ele><time>2026-05-02T15:30:05.858Z</time></trkpt><trkpt lat="42.1181517" lon="13.3391117"><ele>905.5999999999999</ele><time>2026-05-02T15:30:07.858Z</time></trkpt><trkpt lat="42.1180883" lon="13.3390583"><ele>905.1999999999999</ele><time>2026-05-02T15:30:10.858Z</time></trkpt><trkpt lat="42.1180883" lon="13.33885"><ele>904.8000000000001</ele><time>2026-05-02T15:30:21.858Z</time></trkpt><trkpt lat="42.1180933" lon="13.33873"><ele>904.4000000000001</ele><time>2026-05-02T15:30:23.859Z</time></trkpt><trkpt lat="42.1181067" lon="13.3386"><ele>904.0</ele><time>2026-05-02T15:30:25.859Z</time></trkpt><trkpt lat="42.1181117" lon="13.3384767"><ele>905.1666666666666</ele><time>2026-05-02T15:30:27.858Z</time></trkpt><trkpt lat="42.1181117" lon="13.3383583"><ele>906.3333333333333</ele><time>2026-05-02T15:30:29.859Z</time></trkpt><trkpt lat="42.1180967" lon="13.338225"><ele>907.5</ele><time>2026-05-02T15:30:31.858Z</time></trkpt><trkpt lat="42.1181217" lon="13.3381033"><ele>908.6666666666667</ele><time>2026-05-02T15:30:33.858Z</time></trkpt><trkpt lat="42.1181617" lon="13.3380367"><ele>909.8333333333334</ele><time>2026-05-02T15:30:34.858Z</time></trkpt><trkpt lat="42.1181983" lon="13.3379517"><ele>911.0</ele><time>2026-05-02T15:30:35.858Z</time></trkpt><trkpt lat="42.1182367" lon="13.3378617"><ele>911.0000000000001</ele><time>2026-05-02T15:30:36.858Z</time></trkpt><trkpt lat="42.1182733" lon="13.3377867"><ele>911.0</ele><time>2026-05-02T15:30:37.859Z</time></trkpt><trkpt lat="42.1183233" lon="13.3377183"><ele>911.0</ele><time>2026-05-02T15:30:38.859Z</time></trkpt><trkpt lat="42.11837" lon="13.3376433"><ele>911.0</ele><time>2026-05-02T15:30:39.858Z</time></trkpt><trkpt lat="42.1184317" lon="13.337565"><ele>911.0000000000001</ele><time>2026-05-02T15:30:40.858Z</time></trkpt><trkpt lat="42.1185" lon="13.3374817"><ele>911.0</ele><time>2026-05-02T15:30:41.859Z</time></trkpt><trkpt lat="42.118565" lon="13.3373933"><ele>911.0</ele><time>2026-05-02T15:30:42.859Z</time></trkpt><trkpt lat="42.1186367" lon="13.3373017"><ele>910.9999999999999</ele><time>2026-05-02T15:30:43.858Z</time></trkpt><trkpt lat="42.1187167" lon="13.3372167"><ele>910.9999999999999</ele><time>2026-05-02T15:30:44.859Z</time></trkpt><trkpt lat="42.1188017" lon="13.33713"><ele>911.0</ele><time>2026-05-02T15:30:45.858Z</time></trkpt><trkpt lat="42.1188867" lon="13.337045"><ele>911.0</ele><time>2026-05-02T15:30:46.858Z</time></trkpt><trkpt lat="42.1189767" lon="13.336955"><ele>913.1999999999999</ele><time>2026-05-02T15:30:47.859Z</time></trkpt><trkpt lat="42.1190633" lon="13.3368633"><ele>915.3999999999999</ele><time>2026-05-02T15:30:48.859Z</time></trkpt><trkpt lat="42.119145" lon="13.3367617"><ele>917.6</ele><time>2026-05-02T15:30:49.858Z</time></trkpt><trkpt lat="42.11922" lon="13.336665"><ele>919.8</ele><time>2026-05-02T15:30:50.859Z</time></trkpt><trkpt lat="42.1192933" lon="13.33657"><ele>922.0</ele><time>2026-05-02T15:30:51.858Z</time></trkpt><trkpt lat="42.1193667" lon="13.336475"><ele>917.75</ele><time>2026-05-02T15:30:52.858Z</time></trkpt><trkpt lat="42.11945" lon="13.3363783"><ele>913.5</ele><time>2026-05-02T15:30:53.859Z</time></trkpt><trkpt lat="42.11954" lon="13.33629"><ele>909.25</ele><time>2026-05-02T15:30:54.859Z</time></trkpt><trkpt lat="42.119635" lon="13.33621"><ele>905.0</ele><time>2026-05-02T15:30:55.858Z</time></trkpt><trkpt lat="42.1197417" lon="13.3361333"><ele>905.0</ele><time>2026-05-02T15:30:56.859Z</time></trkpt><trkpt lat="42.11985" lon="13.3360633"><ele>905.0</ele><time>2026-05-02T15:30:57.858Z</time></trkpt><trkpt lat="42.119945" lon="13.3359983"><ele>905.0</ele><time>2026-05-02T15:30:58.858Z</time></trkpt><trkpt lat="42.12003" lon="13.3359133"><ele>905.0</ele><time>2026-05-02T15:30:59.858Z</time></trkpt><trkpt lat="42.1201133" lon="13.33583"><ele>905.0</ele><time>2026-05-02T15:31:00.858Z</time></trkpt><trkpt lat="42.1201883" lon="13.3357333"><ele>908.4</ele><time>2026-05-02T15:31:01.858Z</time></trkpt><trkpt lat="42.12026" lon="13.3356467"><ele>911.8</ele><time>2026-05-02T15:31:02.858Z</time></trkpt><trkpt lat="42.1203367" lon="13.3355717"><ele>915.2</ele><time>2026-05-02T15:31:03.858Z</time></trkpt><trkpt lat="42.1204117" lon="13.3355117"><ele>918.6</ele><time>2026-05-02T15:31:04.858Z</time></trkpt><trkpt lat="42.12048" lon="13.3354717"><ele>922.0</ele><time>2026-05-02T15:31:05.859Z</time></trkpt><trkpt lat="42.120595" lon="13.3354"><ele>921.9999999999999</ele><time>2026-05-02T15:31:07.858Z</time></trkpt><trkpt lat="42.1206767" lon="13.33529"><ele>922.0</ele><time>2026-05-02T15:31:09.858Z</time></trkpt><trkpt lat="42.1207167" lon="13.3352117"><ele>922.0</ele><time>2026-05-02T15:31:10.858Z</time></trkpt><trkpt lat="42.120755" lon="13.33512"><ele>922.0</ele><time>2026-05-02T15:31:11.858Z</time></trkpt><trkpt lat="42.120795" lon="13.3350217"><ele>921.9999999999999</ele><time>2026-05-02T15:31:12.858Z</time></trkpt><trkpt lat="42.1208433" lon="13.3349183"><ele>922.0</ele><time>2026-05-02T15:31:13.858Z</time></trkpt><trkpt lat="42.12089" lon="13.3348067"><ele>926.6666666666666</ele><time>2026-05-02T15:31:14.859Z</time></trkpt><trkpt lat="42.1209383" lon="13.334705"><ele>931.3333333333333</ele><time>2026-05-02T15:31:15.858Z</time></trkpt><trkpt lat="42.1209933" lon="13.3346017"><ele>936.0</ele><time>2026-05-02T15:31:16.858Z</time></trkpt><trkpt lat="42.12104" lon="13.3345083"><ele>940.6666666666667</ele><time>2026-05-02T15:31:17.859Z</time></trkpt><trkpt lat="42.1210783" lon="13.33442"><ele>945.3333333333334</ele><time>2026-05-02T15:31:18.859Z</time></trkpt><trkpt lat="42.1211117" lon="13.3343433"><ele>950.0</ele><time>2026-05-02T15:31:19.858Z</time></trkpt><trkpt lat="42.1211533" lon="13.334195"><ele>950.0</ele><time>2026-05-02T15:31:21.859Z</time></trkpt><trkpt lat="42.1211733" lon="13.334045"><ele>950.0</ele><time>2026-05-02T15:31:23.858Z</time></trkpt><trkpt lat="42.1211567" lon="13.3338983"><ele>950.0</ele><time>2026-05-02T15:31:25.858Z</time></trkpt><trkpt lat="42.121105" lon="13.3337483"><ele>950.0</ele><time>2026-05-02T15:31:27.858Z</time></trkpt><trkpt lat="42.1210567" lon="13.3336817"><ele>950.0</ele><time>2026-05-02T15:31:28.858Z</time></trkpt><trkpt lat="42.1210017" lon="13.333615"><ele>949.8333333333334</ele><time>2026-05-02T15:31:29.859Z</time></trkpt><trkpt lat="42.1209433" lon="13.333565"><ele>949.6666666666667</ele><time>2026-05-02T15:31:30.858Z</time></trkpt><trkpt lat="42.1208733" lon="13.3335417"><ele>949.5</ele><time>2026-05-02T15:31:31.858Z</time></trkpt><trkpt lat="42.12079" lon="13.33353"><ele>949.3333333333333</ele><time>2026-05-02T15:31:32.858Z</time></trkpt><trkpt lat="42.1207067" lon="13.3335367"><ele>949.1666666666666</ele><time>2026-05-02T15:31:33.858Z</time></trkpt><trkpt lat="42.12063" lon="13.33356"><ele>949.0</ele><time>2026-05-02T15:31:34.858Z</time></trkpt><trkpt lat="42.120555" lon="13.3335983"><ele>949.0</ele><time>2026-05-02T15:31:35.859Z</time></trkpt><trkpt lat="42.1204817" lon="13.3336283"><ele>949.0000000000001</ele><time>2026-05-02T15:31:36.858Z</time></trkpt><trkpt lat="42.120405" lon="13.333635"><ele>949.0000000000001</ele><time>2026-05-02T15:31:37.859Z</time></trkpt><trkpt lat="42.1203" lon="13.3335783"><ele>949.0</ele><time>2026-05-02T15:31:39.858Z</time></trkpt><trkpt lat="42.1202783" lon="13.3334133"><ele>949.0</ele><time>2026-05-02T15:31:41.858Z</time></trkpt><trkpt lat="42.12029" lon="13.3333017"><ele>949.0</ele><time>2026-05-02T15:31:42.859Z</time></trkpt><trkpt lat="42.120305" lon="13.333175"><ele>949.0000000000001</ele><time>2026-05-02T15:31:43.858Z</time></trkpt><trkpt lat="42.120315" lon="13.3330383"><ele>949.0000000000001</ele><time>2026-05-02T15:31:44.859Z</time></trkpt><trkpt lat="42.12032" lon="13.3329067"><ele>949.0</ele><time>2026-05-02T15:31:45.858Z</time></trkpt><trkpt lat="42.1203217" lon="13.332765"><ele>949.0</ele><time>2026-05-02T15:31:46.859Z</time></trkpt><trkpt lat="42.120325" lon="13.33262"><ele>952.2</ele><time>2026-05-02T15:31:47.858Z</time></trkpt><trkpt lat="42.12032" lon="13.332475"><ele>955.4000000000001</ele><time>2026-05-02T15:31:48.858Z</time></trkpt><trkpt lat="42.1203067" lon="13.3323267"><ele>958.6</ele><time>2026-05-02T15:31:49.859Z</time></trkpt><trkpt lat="42.1202817" lon="13.3321833"><ele>961.8</ele><time>2026-05-02T15:31:50.859Z</time></trkpt><trkpt lat="42.1202383" lon="13.3320617"><ele>965.0</ele><time>2026-05-02T15:31:51.858Z</time></trkpt><trkpt lat="42.1201917" lon="13.33194"><ele>966.8</ele><time>2026-05-02T15:31:52.859Z</time></trkpt><trkpt lat="42.1201567" lon="13.33183"><ele>968.6</ele><time>2026-05-02T15:31:53.859Z</time></trkpt><trkpt lat="42.1201333" lon="13.331725"><ele>970.4000000000001</ele><time>2026-05-02T15:31:54.859Z</time></trkpt><trkpt lat="42.12013" lon="13.3316383"><ele>972.2</ele><time>2026-05-02T15:31:55.859Z</time></trkpt><trkpt lat="42.1201717" lon="13.33151"><ele>974.0</ele><time>2026-05-02T15:31:57.858Z</time></trkpt><trkpt lat="42.12028" lon="13.3314283"><ele>974.0</ele><time>2026-05-02T15:31:59.858Z</time></trkpt><trkpt lat="42.1203933" lon="13.3313967"><ele>974.0000000000001</ele><time>2026-05-02T15:32:01.858Z</time></trkpt><trkpt lat="42.1205167" lon="13.3313383"><ele>974.0000000000001</ele><time>2026-05-02T15:32:03.858Z</time></trkpt><trkpt lat="42.1205917" lon="13.331315"><ele>974.0</ele><time>2026-05-02T15:32:04.858Z</time></trkpt><trkpt lat="42.1206717" lon="13.33128"><ele>974.0</ele><time>2026-05-02T15:32:05.859Z</time></trkpt><trkpt lat="42.1207617" lon="13.3312383"><ele>975.6</ele><time>2026-05-02T15:32:06.859Z</time></trkpt><trkpt lat="42.120855" lon="13.331195"><ele>977.2</ele><time>2026-05-02T15:32:07.859Z</time></trkpt><trkpt lat="42.12095" lon="13.3311433"><ele>978.8000000000001</ele><time>2026-05-02T15:32:08.858Z</time></trkpt><trkpt lat="42.1210583" lon="13.3310917"><ele>980.4000000000001</ele><time>2026-05-02T15:32:09.859Z</time></trkpt><trkpt lat="42.121175" lon="13.33104"><ele>982.0</ele><time>2026-05-02T15:32:10.858Z</time></trkpt><trkpt lat="42.121295" lon="13.3310017"><ele>982.0</ele><time>2026-05-02T15:32:11.859Z</time></trkpt><trkpt lat="42.1214083" lon="13.330955"><ele>982.0</ele><time>2026-05-02T15:32:12.858Z</time></trkpt><trkpt lat="42.121515" lon="13.3309017"><ele>982.0</ele><time>2026-05-02T15:32:13.858Z</time></trkpt><trkpt lat="42.1216133" lon="13.3308533"><ele>982.0</ele><time>2026-05-02T15:32:14.858Z</time></trkpt><trkpt lat="42.1217217" lon="13.3308233"><ele>982.0</ele><time>2026-05-02T15:32:15.859Z</time></trkpt><trkpt lat="42.1218283" lon="13.3308133"><ele>983.6</ele><time>2026-05-02T15:32:16.859Z</time></trkpt><trkpt lat="42.1219383" lon="13.3308067"><ele>985.2</ele><time>2026-05-02T15:32:17.858Z</time></trkpt><trkpt lat="42.12205" lon="13.3307983"><ele>986.8</ele><time>2026-05-02T15:32:18.859Z</time></trkpt><trkpt lat="42.1221617" lon="13.3307917"><ele>988.4</ele><time>2026-05-02T15:32:19.858Z</time></trkpt><trkpt lat="42.1222733" lon="13.33077"><ele>990.0</ele><time>2026-05-02T15:32:20.858Z</time></trkpt><trkpt lat="42.1223733" lon="13.330735"><ele>992.0</ele><time>2026-05-02T15:32:21.858Z</time></trkpt><trkpt lat="42.1224683" lon="13.3306833"><ele>994.0</ele><time>2026-05-02T15:32:22.858Z</time></trkpt><trkpt lat="42.1225467" lon="13.3306233"><ele>996.0</ele><time>2026-05-02T15:32:23.859Z</time></trkpt><trkpt lat="42.1226233" lon="13.33055"><ele>998.0</ele><time>2026-05-02T15:32:24.858Z</time></trkpt><trkpt lat="42.1227" lon="13.3304667"><ele>1000.0</ele><time>2026-05-02T15:32:25.858Z</time></trkpt><trkpt lat="42.1227683" lon="13.330385"><ele>1000.0</ele><time>2026-05-02T15:32:26.859Z</time></trkpt><trkpt lat="42.1228483" lon="13.33031"><ele>1000.0</ele><time>2026-05-02T15:32:27.859Z</time></trkpt><trkpt lat="42.12294" lon="13.33024"><ele>1000.0</ele><time>2026-05-02T15:32:28.859Z</time></trkpt><trkpt lat="42.1230333" lon="13.3301683"><ele>1000.0</ele><time>2026-05-02T15:32:29.858Z</time></trkpt><trkpt lat="42.1231233" lon="13.3300967"><ele>1000.0</ele><time>2026-05-02T15:32:30.858Z</time></trkpt><trkpt lat="42.1232117" lon="13.330035"><ele>1001.6</ele><time>2026-05-02T15:32:31.859Z</time></trkpt><trkpt lat="42.1233117" lon="13.3299917"><ele>1003.2</ele><time>2026-05-02T15:32:32.858Z</time></trkpt><trkpt lat="42.1234233" lon="13.32996"><ele>1004.8</ele><time>2026-05-02T15:32:33.858Z</time></trkpt><trkpt lat="42.1235367" lon="13.3299217"><ele>1006.4</ele><time>2026-05-02T15:32:34.859Z</time></trkpt><trkpt lat="42.1236433" lon="13.32989"><ele>1008.0</ele><time>2026-05-02T15:32:35.858Z</time></trkpt><trkpt lat="42.12375" lon="13.3298483"><ele>1008.0</ele><time>2026-05-02T15:32:36.859Z</time></trkpt><trkpt lat="42.1238483" lon="13.3298"><ele>1008.0</ele><time>2026-05-02T15:32:37.859Z</time></trkpt><trkpt lat="42.1239417" lon="13.3297333"><ele>1008.0</ele><time>2026-05-02T15:32:38.859Z</time></trkpt><trkpt lat="42.12404" lon="13.3296633"><ele>1008.0</ele><time>2026-05-02T15:32:39.858Z</time></trkpt><trkpt lat="42.1241383" lon="13.3295783"><ele>1008.0</ele><time>2026-05-02T15:32:40.859Z</time></trkpt><trkpt lat="42.1242267" lon="13.3294883"><ele>1009.8</ele><time>2026-05-02T15:32:41.858Z</time></trkpt><trkpt lat="42.1243033" lon="13.3293833"><ele>1011.5999999999999</ele><time>2026-05-02T15:32:42.858Z</time></trkpt><trkpt lat="42.124375" lon="13.3292817"><ele>1013.4000000000001</ele><time>2026-05-02T15:32:43.858Z</time></trkpt><trkpt lat="42.1244417" lon="13.329195"><ele>1015.2</ele><time>2026-05-02T15:32:44.858Z</time></trkpt><trkpt lat="42.12451" lon="13.32913"><ele>1017.0</ele><time>2026-05-02T15:32:45.859Z</time></trkpt><trkpt lat="42.1245883" lon="13.329075"><ele>1017.0</ele><time>2026-05-02T15:32:46.858Z</time></trkpt><trkpt lat="42.1246633" lon="13.3290383"><ele>1017.0</ele><time>2026-05-02T15:32:47.859Z</time></trkpt><trkpt lat="42.1247417" lon="13.329015"><ele>1017.0</ele><time>2026-05-02T15:32:48.859Z</time></trkpt><trkpt lat="42.1248217" lon="13.3290183"><ele>1017.0</ele><time>2026-05-02T15:32:49.859Z</time></trkpt><trkpt lat="42.124895" lon="13.32903"><ele>1017.0</ele><time>2026-05-02T15:32:50.858Z</time></trkpt><trkpt lat="42.1249667" lon="13.32905"><ele>1017.0</ele><time>2026-05-02T15:32:51.858Z</time></trkpt><trkpt lat="42.125035" lon="13.329065"><ele>1019.0</ele><time>2026-05-02T15:32:52.859Z</time></trkpt><trkpt lat="42.1251033" lon="13.329075"><ele>1020.9999999999999</ele><time>2026-05-02T15:32:53.858Z</time></trkpt><trkpt lat="42.1251717" lon="13.3291"><ele>1023.0</ele><time>2026-05-02T15:32:54.858Z</time></trkpt><trkpt lat="42.12524" lon="13.329135"><ele>1025.0</ele><time>2026-05-02T15:32:55.858Z</time></trkpt><trkpt lat="42.1253" lon="13.3291733"><ele>1027.0</ele><time>2026-05-02T15:32:56.859Z</time></trkpt><trkpt lat="42.125365" lon="13.329215"><ele>1029.0</ele><time>2026-05-02T15:32:57.858Z</time></trkpt><trkpt lat="42.125435" lon="13.3292633"><ele>1031.0</ele><time>2026-05-02T15:32:58.858Z</time></trkpt><trkpt lat="42.1254983" lon="13.3293"><ele>1031.0</ele><time>2026-05-02T15:32:59.859Z</time></trkpt><trkpt lat="42.1255617" lon="13.329335"><ele>1031.0</ele><time>2026-05-02T15:33:00.858Z</time></trkpt><trkpt lat="42.125625" lon="13.3293833"><ele>1031.0</ele><time>2026-05-02T15:33:01.858Z</time></trkpt><trkpt lat="42.1256967" lon="13.329435"><ele>1031.0</ele><time>2026-05-02T15:33:02.858Z</time></trkpt><trkpt lat="42.125775" lon="13.3294783"><ele>1031.0</ele><time>2026-05-02T15:33:03.859Z</time></trkpt><trkpt lat="42.1258483" lon="13.3295283"><ele>1031.0</ele><time>2026-05-02T15:33:04.858Z</time></trkpt><trkpt lat="42.1259117" lon="13.3295767"><ele>1033.5</ele><time>2026-05-02T15:33:05.859Z</time></trkpt><trkpt lat="42.126025" lon="13.3296633"><ele>1036.0</ele><time>2026-05-02T15:33:07.859Z</time></trkpt><trkpt lat="42.126085" lon="13.3296983"><ele>1038.5</ele><time>2026-05-02T15:33:08.858Z</time></trkpt><trkpt lat="42.1261567" lon="13.32973"><ele>1041.0</ele><time>2026-05-02T15:33:09.858Z</time></trkpt><trkpt lat="42.1262267" lon="13.329735"><ele>1043.5</ele><time>2026-05-02T15:33:10.859Z</time></trkpt><trkpt lat="42.1262986" lon="13.3297386"><ele>1046.0</ele><time>2026-05-02T15:33:11.858Z</time></trkpt><trkpt lat="42.1263715" lon="13.3297337"><ele>1046.0</ele><time>2026-05-02T15:33:12.859Z</time></trkpt><trkpt lat="42.1264544" lon="13.3297285"><ele>1046.0</ele><time>2026-05-02T15:33:13.859Z</time></trkpt><trkpt lat="42.1265345" lon="13.3297178"><ele>1046.0</ele><time>2026-05-02T15:33:14.859Z</time></trkpt><trkpt lat="42.1266108" lon="13.3297175"><ele>1046.0</ele><time>2026-05-02T15:33:15.859Z</time></trkpt><trkpt lat="42.1266888" lon="13.3297387"><ele>1046.0</ele><time>2026-05-02T15:33:16.858Z</time></trkpt><trkpt lat="42.126768" lon="13.3297711"><ele>1046.0</ele><time>2026-05-02T15:33:17.858Z</time></trkpt><trkpt lat="42.1268436" lon="13.3297911"><ele>1049.0</ele><time>2026-05-02T15:33:18.859Z</time></trkpt><trkpt lat="42.1269192" lon="13.3298177"><ele>1052.0</ele><time>2026-05-02T15:33:19.858Z</time></trkpt><trkpt lat="42.1269984" lon="13.3298494"><ele>1055.0</ele><time>2026-05-02T15:33:20.859Z</time></trkpt><trkpt lat="42.1270826" lon="13.3298851"><ele>1058.0</ele><time>2026-05-02T15:33:21.858Z</time></trkpt><trkpt lat="42.1271692" lon="13.3299247"><ele>1061.0</ele><time>2026-05-02T15:33:22.858Z</time></trkpt><trkpt lat="42.1272553" lon="13.3299626"><ele>1064.0</ele><time>2026-05-02T15:33:23.858Z</time></trkpt><trkpt lat="42.1273407" lon="13.3300061"><ele>1065.3333333333335</ele><time>2026-05-02T15:33:24.858Z</time></trkpt><trkpt lat="42.1274185" lon="13.3300501"><ele>1066.6666666666667</ele><time>2026-05-02T15:33:25.858Z</time></trkpt><trkpt lat="42.1274856" lon="13.3300888"><ele>1068.0</ele><time>2026-05-02T15:33:26.858Z</time></trkpt><trkpt lat="42.1275464" lon="13.3301261"><ele>1069.3333333333333</ele><time>2026-05-02T15:33:27.859Z</time></trkpt><trkpt lat="42.1276395" lon="13.3301718"><ele>1070.6666666666665</ele><time>2026-05-02T15:33:29.858Z</time></trkpt><trkpt lat="42.1277053" lon="13.3302032"><ele>1072.0</ele><time>2026-05-02T15:33:31.859Z</time></trkpt><trkpt lat="42.1277745" lon="13.3302284"><ele>1072.0</ele><time>2026-05-02T15:33:33.858Z</time></trkpt><trkpt lat="42.1278522" lon="13.3302399"><ele>1072.0</ele><time>2026-05-02T15:33:35.859Z</time></trkpt><trkpt lat="42.1279587" lon="13.3302304"><ele>1072.0</ele><time>2026-05-02T15:35:39.859Z</time></trkpt><trkpt lat="42.1280789" lon="13.3301931"><ele>1072.0</ele><time>2026-05-02T15:35:41.858Z</time></trkpt><trkpt lat="42.128147" lon="13.3301629"><ele>1072.0</ele><time>2026-05-02T15:35:42.858Z</time></trkpt><trkpt lat="42.1282174" lon="13.3301226"><ele>1071.3333333333333</ele><time>2026-05-02T15:35:43.858Z</time></trkpt><trkpt lat="42.128294" lon="13.3300862"><ele>1070.6666666666665</ele><time>2026-05-02T15:35:44.859Z</time></trkpt><trkpt lat="42.1283674" lon="13.3300523"><ele>1070.0</ele><time>2026-05-02T15:35:45.858Z</time></trkpt><trkpt lat="42.1284396" lon="13.3300163"><ele>1069.3333333333333</ele><time>2026-05-02T15:35:46.859Z</time></trkpt><trkpt lat="42.1285115" lon="13.329981"><ele>1068.6666666666667</ele><time>2026-05-02T15:35:47.858Z</time></trkpt><trkpt lat="42.1285785" lon="13.3299409"><ele>1068.0</ele><time>2026-05-02T15:35:48.858Z</time></trkpt><trkpt lat="42.1286799" lon="13.3298789"><ele>1068.0</ele><time>2026-05-02T15:35:50.859Z</time></trkpt><trkpt lat="42.1287637" lon="13.3298222"><ele>1068.0</ele><time>2026-05-02T15:35:52.858Z</time></trkpt><trkpt lat="42.1288335" lon="13.3297765"><ele>1068.0</ele><time>2026-05-02T15:35:54.858Z</time></trkpt><trkpt lat="42.1288978" lon="13.3297248"><ele>1068.0</ele><time>2026-05-02T15:35:56.858Z</time></trkpt><trkpt lat="42.1289653" lon="13.3296745"><ele>1068.0</ele><time>2026-05-02T15:35:59.859Z</time></trkpt><trkpt lat="42.1290498" lon="13.3296041"><ele>1068.0</ele><time>2026-05-02T15:36:17.858Z</time></trkpt><trkpt lat="42.1291135" lon="13.329557"><ele>1067.3333333333333</ele><time>2026-05-02T15:36:18.858Z</time></trkpt><trkpt lat="42.1291843" lon="13.3295076"><ele>1066.6666666666667</ele><time>2026-05-02T15:36:19.859Z</time></trkpt><trkpt lat="42.1292604" lon="13.3294495"><ele>1066.0</ele><time>2026-05-02T15:36:20.858Z</time></trkpt><trkpt lat="42.1293341" lon="13.3293849"><ele>1065.3333333333335</ele><time>2026-05-02T15:36:21.859Z</time></trkpt><trkpt lat="42.1294105" lon="13.3293104"><ele>1064.6666666666667</ele><time>2026-05-02T15:36:22.858Z</time></trkpt><trkpt lat="42.1294841" lon="13.329229"><ele>1064.0</ele><time>2026-05-02T15:36:23.859Z</time></trkpt><trkpt lat="42.1295582" lon="13.3291422"><ele>1064.0</ele><time>2026-05-02T15:36:24.859Z</time></trkpt><trkpt lat="42.1296326" lon="13.3290525"><ele>1064.0</ele><time>2026-05-02T15:36:25.858Z</time></trkpt><trkpt lat="42.1297044" lon="13.3289632"><ele>1064.0</ele><time>2026-05-02T15:36:26.858Z</time></trkpt><trkpt lat="42.1297701" lon="13.3288741"><ele>1064.0</ele><time>2026-05-02T15:36:27.858Z</time></trkpt><trkpt lat="42.1298302" lon="13.328786"><ele>1064.0</ele><time>2026-05-02T15:36:28.859Z</time></trkpt><trkpt lat="42.129883" lon="13.3287044"><ele>1063.6666666666667</ele><time>2026-05-02T15:36:29.858Z</time></trkpt><trkpt lat="42.129935" lon="13.3286204"><ele>1063.3333333333335</ele><time>2026-05-02T15:36:30.858Z</time></trkpt><trkpt lat="42.1299855" lon="13.3285348"><ele>1063.0</ele><time>2026-05-02T15:36:31.859Z</time></trkpt><trkpt lat="42.130033" lon="13.3284507"><ele>1062.6666666666667</ele><time>2026-05-02T15:36:32.859Z</time></trkpt><trkpt lat="42.1300806" lon="13.3283729"><ele>1062.3333333333333</ele><time>2026-05-02T15:36:33.859Z</time></trkpt><trkpt lat="42.1301309" lon="13.328298"><ele>1062.0</ele><time>2026-05-02T15:36:34.858Z</time></trkpt><trkpt lat="42.130178" lon="13.3282228"><ele>1062.0</ele><time>2026-05-02T15:36:35.858Z</time></trkpt><trkpt lat="42.1302192" lon="13.3281375"><ele>1062.0</ele><time>2026-05-02T15:36:36.859Z</time></trkpt><trkpt lat="42.130255" lon="13.3280498"><ele>1062.0</ele><time>2026-05-02T15:36:37.858Z</time></trkpt><trkpt lat="42.1302855" lon="13.3279605"><ele>1062.0</ele><time>2026-05-02T15:36:38.858Z</time></trkpt><trkpt lat="42.1303221" lon="13.3278778"><ele>1062.0</ele><time>2026-05-02T15:36:39.858Z</time></trkpt><trkpt lat="42.1303613" lon="13.3277865"><ele>1062.0</ele><time>2026-05-02T15:36:40.859Z</time></trkpt><trkpt lat="42.13039" lon="13.3276887"><ele>1062.4</ele><time>2026-05-02T15:36:41.859Z</time></trkpt><trkpt lat="42.1304062" lon="13.3275825"><ele>1062.8000000000002</ele><time>2026-05-02T15:36:42.858Z</time></trkpt><trkpt lat="42.1304109" lon="13.3274652"><ele>1063.2</ele><time>2026-05-02T15:36:43.858Z</time></trkpt><trkpt lat="42.1304093" lon="13.3273429"><ele>1063.6000000000001</ele><time>2026-05-02T15:36:44.858Z</time></trkpt><trkpt lat="42.1304064" lon="13.3272135"><ele>1064.0</ele><time>2026-05-02T15:36:45.858Z</time></trkpt><trkpt lat="42.1304133" lon="13.327081"><ele>1065.2</ele><time>2026-05-02T15:36:46.858Z</time></trkpt><trkpt lat="42.1304332" lon="13.3269514"><ele>1066.4</ele><time>2026-05-02T15:36:47.859Z</time></trkpt><trkpt lat="42.1304623" lon="13.3268241"><ele>1067.6</ele><time>2026-05-02T15:36:48.859Z</time></trkpt><trkpt lat="42.1304897" lon="13.326692"><ele>1068.8</ele><time>2026-05-02T15:36:49.858Z</time></trkpt><trkpt lat="42.1305071" lon="13.326559"><ele>1070.0</ele><time>2026-05-02T15:36:50.858Z</time></trkpt><trkpt lat="42.1305211" lon="13.3264124"><ele>1071.8</ele><time>2026-05-02T15:36:51.858Z</time></trkpt><trkpt lat="42.1305296" lon="13.3262612"><ele>1073.6</ele><time>2026-05-02T15:36:52.859Z</time></trkpt><trkpt lat="42.130539" lon="13.3261167"><ele>1075.4</ele><time>2026-05-02T15:36:53.859Z</time></trkpt><trkpt lat="42.1305483" lon="13.3259747"><ele>1077.2</ele><time>2026-05-02T15:36:54.859Z</time></trkpt><trkpt lat="42.1305533" lon="13.325838"><ele>1079.0</ele><time>2026-05-02T15:36:55.859Z</time></trkpt><trkpt lat="42.1305506" lon="13.3256993"><ele>1079.0</ele><time>2026-05-02T15:36:56.858Z</time></trkpt><trkpt lat="42.1305555" lon="13.325569"><ele>1079.0</ele><time>2026-05-02T15:36:57.859Z</time></trkpt><trkpt lat="42.1305679" lon="13.3254558"><ele>1079.0</ele><time>2026-05-02T15:36:58.859Z</time></trkpt><trkpt lat="42.1305825" lon="13.3253537"><ele>1079.0</ele><time>2026-05-02T15:36:59.859Z</time></trkpt><trkpt lat="42.1305855" lon="13.3252529"><ele>1079.0</ele><time>2026-05-02T15:37:00.858Z</time></trkpt><trkpt lat="42.130579" lon="13.3251594"><ele>1079.0</ele><time>2026-05-02T15:37:01.859Z</time></trkpt><trkpt lat="42.1305645" lon="13.3250645"><ele>1079.7142857142858</ele><time>2026-05-02T15:37:02.859Z</time></trkpt><trkpt lat="42.130544" lon="13.3249699"><ele>1080.4285714285713</ele><time>2026-05-02T15:37:03.859Z</time></trkpt><trkpt lat="42.1305275" lon="13.3248779"><ele>1081.142857142857</ele><time>2026-05-02T15:37:04.859Z</time></trkpt><trkpt lat="42.1305167" lon="13.324786"><ele>1081.857142857143</ele><time>2026-05-02T15:37:05.858Z</time></trkpt><trkpt lat="42.1305227" lon="13.3246965"><ele>1082.5714285714287</ele><time>2026-05-02T15:37:06.859Z</time></trkpt><trkpt lat="42.130541" lon="13.3246045"><ele>1083.2857142857142</ele><time>2026-05-02T15:37:07.859Z</time></trkpt><trkpt lat="42.1305677" lon="13.3245272"><ele>1084.0</ele><time>2026-05-02T15:37:08.859Z</time></trkpt><trkpt lat="42.1306561" lon="13.324417"><ele>1084.0</ele><time>2026-05-02T15:37:10.859Z</time></trkpt><trkpt lat="42.1307208" lon="13.3243168"><ele>1084.0</ele><time>2026-05-02T15:37:12.859Z</time></trkpt><trkpt lat="42.1307365" lon="13.3241706"><ele>1084.0</ele><time>2026-05-02T15:37:14.858Z</time></trkpt><trkpt lat="42.1307295" lon="13.3240733"><ele>1084.0</ele><time>2026-05-02T15:37:15.858Z</time></trkpt><trkpt lat="42.130714" lon="13.3239684"><ele>1084.0</ele><time>2026-05-02T15:37:16.859Z</time></trkpt><trkpt lat="42.1307001" lon="13.3238581"><ele>1084.0</ele><time>2026-05-02T15:37:17.858Z</time></trkpt><trkpt lat="42.1306969" lon="13.3237518"><ele>1084.6666666666665</ele><time>2026-05-02T15:37:18.858Z</time></trkpt><trkpt lat="42.1307058" lon="13.3236369"><ele>1085.3333333333333</ele><time>2026-05-02T15:37:19.858Z</time></trkpt><trkpt lat="42.1307212" lon="13.3235212"><ele>1086.0</ele><time>2026-05-02T15:37:20.859Z</time></trkpt><trkpt lat="42.1307427" lon="13.3234111"><ele>1086.6666666666667</ele><time>2026-05-02T15:37:21.859Z</time></trkpt><trkpt lat="42.1307654" lon="13.3233069"><ele>1087.3333333333335</ele><time>2026-05-02T15:37:22.859Z</time></trkpt><trkpt lat="42.1307878" lon="13.323204"><ele>1088.0</ele><time>2026-05-02T15:37:23.859Z</time></trkpt><trkpt lat="42.1308134" lon="13.3231001"><ele>1086.4285714285713</ele><time>2026-05-02T15:37:24.859Z</time></trkpt><trkpt lat="42.1308393" lon="13.323006"><ele>1084.857142857143</ele><time>2026-05-02T15:37:25.858Z</time></trkpt><trkpt lat="42.1308675" lon="13.3229078"><ele>1083.2857142857142</ele><time>2026-05-02T15:37:26.859Z</time></trkpt><trkpt lat="42.130893" lon="13.3228115"><ele>1081.7142857142858</ele><time>2026-05-02T15:37:27.858Z</time></trkpt><trkpt lat="42.1309183" lon="13.3227145"><ele>1080.142857142857</ele><time>2026-05-02T15:37:28.858Z</time></trkpt><trkpt lat="42.1309379" lon="13.322624"><ele>1078.5714285714284</ele><time>2026-05-02T15:37:29.859Z</time></trkpt><trkpt lat="42.1309536" lon="13.3225343"><ele>1077.0</ele><time>2026-05-02T15:37:30.858Z</time></trkpt><trkpt lat="42.1309649" lon="13.322437"><ele>1077.0</ele><time>2026-05-02T15:37:31.858Z</time></trkpt><trkpt lat="42.130969" lon="13.3223343"><ele>1077.0</ele><time>2026-05-02T15:37:32.858Z</time></trkpt><trkpt lat="42.1309686" lon="13.3222277"><ele>1077.0</ele><time>2026-05-02T15:37:33.858Z</time></trkpt><trkpt lat="42.1309645" lon="13.322121"><ele>1077.0</ele><time>2026-05-02T15:37:34.858Z</time></trkpt><trkpt lat="42.1309547" lon="13.3220207"><ele>1077.0</ele><time>2026-05-02T15:37:35.858Z</time></trkpt><trkpt lat="42.1309401" lon="13.3219315"><ele>1077.0</ele><time>2026-05-02T15:37:36.859Z</time></trkpt><trkpt lat="42.1309284" lon="13.3218376"><ele>1077.0</ele><time>2026-05-02T15:37:37.859Z</time></trkpt><trkpt lat="42.1309167" lon="13.3217291"><ele>1077.0</ele><time>2026-05-02T15:37:38.858Z</time></trkpt><trkpt lat="42.1309051" lon="13.3216132"><ele>1077.0</ele><time>2026-05-02T15:37:39.859Z</time></trkpt><trkpt lat="42.1309014" lon="13.3214972"><ele>1077.0</ele><time>2026-05-02T15:37:40.858Z</time></trkpt><trkpt lat="42.1309023" lon="13.321379"><ele>1077.0</ele><time>2026-05-02T15:37:41.858Z</time></trkpt><trkpt lat="42.1309003" lon="13.3212637"><ele>1077.0</ele><time>2026-05-02T15:37:42.858Z</time></trkpt><trkpt lat="42.1308974" lon="13.321151"><ele>1077.0</ele><time>2026-05-02T15:37:43.859Z</time></trkpt><trkpt lat="42.1308888" lon="13.3210385"><ele>1076.6666666666667</ele><time>2026-05-02T15:37:44.858Z</time></trkpt><trkpt lat="42.1308802" lon="13.320928"><ele>1076.3333333333333</ele><time>2026-05-02T15:37:45.858Z</time></trkpt><trkpt lat="42.1308731" lon="13.3208133"><ele>1076.0</ele><time>2026-05-02T15:37:46.859Z</time></trkpt><trkpt lat="42.130865" lon="13.3207055"><ele>1075.6666666666665</ele><time>2026-05-02T15:37:47.859Z</time></trkpt><trkpt lat="42.130858" lon="13.3206045"><ele>1075.3333333333333</ele><time>2026-05-02T15:37:48.858Z</time></trkpt><trkpt lat="42.1308532" lon="13.3205132"><ele>1075.0</ele><time>2026-05-02T15:37:49.858Z</time></trkpt><trkpt lat="42.1308631" lon="13.3203569"><ele>1075.0</ele><time>2026-05-02T15:37:51.859Z</time></trkpt><trkpt lat="42.1309062" lon="13.320233"><ele>1075.0</ele><time>2026-05-02T15:37:53.858Z</time></trkpt><trkpt lat="42.1309562" lon="13.320141"><ele>1075.0</ele><time>2026-05-02T15:37:55.858Z</time></trkpt><trkpt lat="42.1309706" lon="13.3200582"><ele>1075.0</ele><time>2026-05-02T15:37:57.859Z</time></trkpt><trkpt lat="42.1309339" lon="13.3199642"><ele>1075.0</ele><time>2026-05-02T15:38:00.858Z</time></trkpt><trkpt lat="42.1309357" lon="13.3198435"><ele>1075.0</ele><time>2026-05-02T15:38:03.859Z</time></trkpt><trkpt lat="42.1309733" lon="13.319745"><ele>1075.4</ele><time>2026-05-02T15:38:05.858Z</time></trkpt><trkpt lat="42.1310033" lon="13.3196433"><ele>1075.8</ele><time>2026-05-02T15:38:07.858Z</time></trkpt><trkpt lat="42.1310283" lon="13.3195483"><ele>1076.2</ele><time>2026-05-02T15:38:09.859Z</time></trkpt><trkpt lat="42.1310667" lon="13.31945"><ele>1076.6</ele><time>2026-05-02T15:38:11.858Z</time></trkpt><trkpt lat="42.131125" lon="13.3193367"><ele>1077.0</ele><time>2026-05-02T15:38:13.858Z</time></trkpt><trkpt lat="42.1312" lon="13.3192017"><ele>1077.0</ele><time>2026-05-02T15:38:15.859Z</time></trkpt><trkpt lat="42.1312317" lon="13.3191233"><ele>1077.0</ele><time>2026-05-02T15:38:16.858Z</time></trkpt><trkpt lat="42.1312667" lon="13.3190433"><ele>1077.0</ele><time>2026-05-02T15:38:17.859Z</time></trkpt><trkpt lat="42.1312983" lon="13.3189667"><ele>1077.0</ele><time>2026-05-02T15:38:18.858Z</time></trkpt><trkpt lat="42.13136" lon="13.31881"><ele>1077.0</ele><time>2026-05-02T15:38:20.859Z</time></trkpt><trkpt lat="42.13139" lon="13.3187217"><ele>1077.0</ele><time>2026-05-02T15:38:21.859Z</time></trkpt><trkpt lat="42.1314333" lon="13.3185767"><ele>1076.0</ele><time>2026-05-02T15:38:23.859Z</time></trkpt><trkpt lat="42.1314667" lon="13.3184983"><ele>1075.0</ele><time>2026-05-02T15:38:24.858Z</time></trkpt><trkpt lat="42.1315067" lon="13.3184167"><ele>1074.0</ele><time>2026-05-02T15:38:25.859Z</time></trkpt><trkpt lat="42.1315817" lon="13.3183067"><ele>1073.0</ele><time>2026-05-02T15:38:27.858Z</time></trkpt><trkpt lat="42.1316383" lon="13.3182517"><ele>1072.0</ele><time>2026-05-02T15:38:28.858Z</time></trkpt><trkpt lat="42.131695" lon="13.3181817"><ele>1071.0</ele><time>2026-05-02T15:38:29.858Z</time></trkpt><trkpt lat="42.13175" lon="13.31812"><ele>1068.5</ele><time>2026-05-02T15:38:30.859Z</time></trkpt><trkpt lat="42.1317967" lon="13.31806"><ele>1066.0</ele><time>2026-05-02T15:38:31.859Z</time></trkpt><trkpt lat="42.1318667" lon="13.317935"><ele>1063.5</ele><time>2026-05-02T15:38:33.859Z</time></trkpt><trkpt lat="42.1318883" lon="13.3178517"><ele>1061.0</ele><time>2026-05-02T15:38:34.859Z</time></trkpt><trkpt lat="42.1319067" lon="13.3177567"><ele>1058.5</ele><time>2026-05-02T15:38:35.858Z</time></trkpt><trkpt lat="42.1319233" lon="13.3176717"><ele>1056.0</ele><time>2026-05-02T15:38:36.858Z</time></trkpt><trkpt lat="42.1319833" lon="13.3175233"><ele>1056.0</ele><time>2026-05-02T15:38:38.858Z</time></trkpt><trkpt lat="42.1320267" lon="13.3174317"><ele>1056.0</ele><time>2026-05-02T15:38:39.859Z</time></trkpt><trkpt lat="42.13208" lon="13.3173333"><ele>1056.0</ele><time>2026-05-02T15:38:40.858Z</time></trkpt><trkpt lat="42.1321417" lon="13.3172433"><ele>1056.0</ele><time>2026-05-02T15:38:41.858Z</time></trkpt><trkpt lat="42.1322067" lon="13.3171583"><ele>1056.0</ele><time>2026-05-02T15:38:42.858Z</time></trkpt><trkpt lat="42.1322667" lon="13.3170667"><ele>1056.0</ele><time>2026-05-02T15:38:43.858Z</time></trkpt><trkpt lat="42.132325" lon="13.3169933"><ele>1055.6666666666667</ele><time>2026-05-02T15:38:44.858Z</time></trkpt><trkpt lat="42.132385" lon="13.316915"><ele>1055.3333333333333</ele><time>2026-05-02T15:38:45.859Z</time></trkpt><trkpt lat="42.1324433" lon="13.3168467"><ele>1055.0</ele><time>2026-05-02T15:38:46.858Z</time></trkpt><trkpt lat="42.1325033" lon="13.31678"><ele>1054.6666666666665</ele><time>2026-05-02T15:38:47.858Z</time></trkpt><trkpt lat="42.13256" lon="13.3167083"><ele>1054.3333333333333</ele><time>2026-05-02T15:38:48.858Z</time></trkpt><trkpt lat="42.1326217" lon="13.3166167"><ele>1054.0</ele><time>2026-05-02T15:38:49.858Z</time></trkpt><trkpt lat="42.1326767" lon="13.31653"><ele>1054.0</ele><time>2026-05-02T15:38:50.858Z</time></trkpt><trkpt lat="42.13273" lon="13.316435"><ele>1054.0</ele><time>2026-05-02T15:38:51.858Z</time></trkpt><trkpt lat="42.13279" lon="13.3163483"><ele>1054.0</ele><time>2026-05-02T15:38:52.858Z</time></trkpt><trkpt lat="42.1328383" lon="13.3162733"><ele>1054.0</ele><time>2026-05-02T15:38:53.859Z</time></trkpt><trkpt lat="42.13289" lon="13.3162033"><ele>1054.0</ele><time>2026-05-02T15:38:54.858Z</time></trkpt><trkpt lat="42.1329333" lon="13.3161317"><ele>1054.0</ele><time>2026-05-02T15:38:55.859Z</time></trkpt><trkpt lat="42.1329733" lon="13.316065"><ele>1053.2</ele><time>2026-05-02T15:38:56.858Z</time></trkpt><trkpt lat="42.1330383" lon="13.3159367"><ele>1052.4</ele><time>2026-05-02T15:38:58.858Z</time></trkpt><trkpt lat="42.1330633" lon="13.3157917"><ele>1051.6</ele><time>2026-05-02T15:39:00.858Z</time></trkpt><trkpt lat="42.133075" lon="13.3156767"><ele>1050.8</ele><time>2026-05-02T15:39:02.859Z</time></trkpt><trkpt lat="42.1330667" lon="13.3155867"><ele>1050.0</ele><time>2026-05-02T15:39:05.859Z</time></trkpt><trkpt lat="42.1329617" lon="13.315535"><ele>1049.6666666666667</ele><time>2026-05-02T15:39:08.859Z</time></trkpt><trkpt lat="42.1328333" lon="13.3155"><ele>1049.3333333333333</ele><time>2026-05-02T15:39:10.859Z</time></trkpt><trkpt lat="42.13277" lon="13.3154617"><ele>1049.0</ele><time>2026-05-02T15:39:11.858Z</time></trkpt><trkpt lat="42.1327083" lon="13.315395"><ele>1048.6666666666665</ele><time>2026-05-02T15:39:12.858Z</time></trkpt><trkpt lat="42.1326517" lon="13.3153167"><ele>1048.3333333333333</ele><time>2026-05-02T15:39:13.858Z</time></trkpt><trkpt lat="42.1326033" lon="13.3152333"><ele>1048.0</ele><time>2026-05-02T15:39:14.858Z</time></trkpt><trkpt lat="42.1325617" lon="13.31514"><ele>1048.0</ele><time>2026-05-02T15:39:15.858Z</time></trkpt><trkpt lat="42.1325283" lon="13.315035"><ele>1048.0</ele><time>2026-05-02T15:39:16.858Z</time></trkpt><trkpt lat="42.132495" lon="13.3149283"><ele>1048.0</ele><time>2026-05-02T15:39:17.858Z</time></trkpt><trkpt lat="42.1324633" lon="13.3148233"><ele>1048.0</ele><time>2026-05-02T15:39:18.859Z</time></trkpt><trkpt lat="42.1324317" lon="13.31472"><ele>1048.0</ele><time>2026-05-02T15:39:19.858Z</time></trkpt><trkpt lat="42.1323917" lon="13.31463"><ele>1048.0</ele><time>2026-05-02T15:39:20.858Z</time></trkpt><trkpt lat="42.1323433" lon="13.31454"><ele>1048.2</ele><time>2026-05-02T15:39:21.859Z</time></trkpt><trkpt lat="42.1322817" lon="13.3144567"><ele>1048.4</ele><time>2026-05-02T15:39:22.859Z</time></trkpt><trkpt lat="42.13221" lon="13.3143633"><ele>1048.6000000000001</ele><time>2026-05-02T15:39:23.858Z</time></trkpt><trkpt lat="42.1321333" lon="13.3142767"><ele>1048.8</ele><time>2026-05-02T15:39:24.859Z</time></trkpt><trkpt lat="42.1320633" lon="13.31419"><ele>1049.0</ele><time>2026-05-02T15:39:25.858Z</time></trkpt><trkpt lat="42.1320017" lon="13.314105"><ele>1049.0</ele><time>2026-05-02T15:39:26.858Z</time></trkpt><trkpt lat="42.1319383" lon="13.31402"><ele>1049.0</ele><time>2026-05-02T15:39:27.858Z</time></trkpt><trkpt lat="42.13189" lon="13.31394"><ele>1049.0</ele><time>2026-05-02T15:39:28.858Z</time></trkpt><trkpt lat="42.1318517" lon="13.31387"><ele>1049.0</ele><time>2026-05-02T15:39:29.858Z</time></trkpt><trkpt lat="42.1318133" lon="13.3137"><ele>1049.0</ele><time>2026-05-02T15:39:31.858Z</time></trkpt><trkpt lat="42.13181" lon="13.3135867"><ele>1049.0</ele><time>2026-05-02T15:39:32.858Z</time></trkpt><trkpt lat="42.13181" lon="13.3134683"><ele>1049.5</ele><time>2026-05-02T15:39:33.858Z</time></trkpt><trkpt lat="42.1318133" lon="13.3133517"><ele>1050.0</ele><time>2026-05-02T15:39:34.859Z</time></trkpt><trkpt lat="42.1318133" lon="13.3132433"><ele>1050.5</ele><time>2026-05-02T15:39:35.858Z</time></trkpt><trkpt lat="42.1318167" lon="13.3131317"><ele>1051.0</ele><time>2026-05-02T15:39:36.859Z</time></trkpt><trkpt lat="42.1318167" lon="13.31302"><ele>1051.5</ele><time>2026-05-02T15:39:37.858Z</time></trkpt><trkpt lat="42.1318267" lon="13.3129117"><ele>1052.0</ele><time>2026-05-02T15:39:38.858Z</time></trkpt><trkpt lat="42.1318467" lon="13.312805"><ele>1052.5</ele><time>2026-05-02T15:39:39.859Z</time></trkpt><trkpt lat="42.1318733" lon="13.3127017"><ele>1053.0</ele><time>2026-05-02T15:39:40.858Z</time></trkpt><trkpt lat="42.1319167" lon="13.3125983"><ele>1053.5</ele><time>2026-05-02T15:39:41.858Z</time></trkpt><trkpt lat="42.1319567" lon="13.3125117"><ele>1054.0</ele><time>2026-05-02T15:39:42.858Z</time></trkpt><trkpt lat="42.13201" lon="13.312435"><ele>1054.5</ele><time>2026-05-02T15:39:43.859Z</time></trkpt><trkpt lat="42.1320683" lon="13.3123783"><ele>1055.0</ele><time>2026-05-02T15:39:44.858Z</time></trkpt><trkpt lat="42.132145" lon="13.3122833"><ele>1056.6666666666667</ele><time>2026-05-02T15:39:46.859Z</time></trkpt><trkpt lat="42.1321817" lon="13.31218"><ele>1058.3333333333335</ele><time>2026-05-02T15:39:48.859Z</time></trkpt><trkpt lat="42.13222" lon="13.31209"><ele>1060.0</ele><time>2026-05-02T15:39:50.859Z</time></trkpt><trkpt lat="42.1323033" lon="13.312025"><ele>1061.6666666666667</ele><time>2026-05-02T15:39:52.858Z</time></trkpt><trkpt lat="42.1323533" lon="13.3119433"><ele>1063.3333333333333</ele><time>2026-05-02T15:39:54.858Z</time></trkpt><trkpt lat="42.1324117" lon="13.3118367"><ele>1065.0</ele><time>2026-05-02T15:39:56.858Z</time></trkpt><trkpt lat="42.1325133" lon="13.31174"><ele>1061.8</ele><time>2026-05-02T15:39:58.858Z</time></trkpt><trkpt lat="42.1325683" lon="13.3116933"><ele>1058.6</ele><time>2026-05-02T15:39:59.858Z</time></trkpt><trkpt lat="42.1326633" lon="13.3116317"><ele>1055.4</ele><time>2026-05-02T15:40:01.858Z</time></trkpt><trkpt lat="42.1327417" lon="13.3115317"><ele>1052.2</ele><time>2026-05-02T15:40:03.859Z</time></trkpt><trkpt lat="42.1327967" lon="13.3114167"><ele>1049.0</ele><time>2026-05-02T15:40:05.858Z</time></trkpt><trkpt lat="42.13287" lon="13.3113117"><ele>1049.0</ele><time>2026-05-02T15:40:07.859Z</time></trkpt><trkpt lat="42.1329683" lon="13.3112333"><ele>1049.0</ele><time>2026-05-02T15:40:09.858Z</time></trkpt><trkpt lat="42.13309" lon="13.3111833"><ele>1049.0</ele><time>2026-05-02T15:40:11.858Z</time></trkpt><trkpt lat="42.13319" lon="13.31113"><ele>1049.0</ele><time>2026-05-02T15:40:13.859Z</time></trkpt><trkpt lat="42.1332433" lon="13.3110383"><ele>1049.0</ele><time>2026-05-02T15:40:15.858Z</time></trkpt><trkpt lat="42.1332617" lon="13.3108983"><ele>1047.3333333333335</ele><time>2026-05-02T15:40:17.859Z</time></trkpt><trkpt lat="42.1333" lon="13.3107867"><ele>1045.6666666666667</ele><time>2026-05-02T15:40:19.858Z</time></trkpt><trkpt lat="42.1333433" lon="13.31071"><ele>1044.0</ele><time>2026-05-02T15:40:21.858Z</time></trkpt><trkpt lat="42.1334017" lon="13.3106467"><ele>1042.3333333333333</ele><time>2026-05-02T15:40:23.859Z</time></trkpt><trkpt lat="42.1334683" lon="13.3105633"><ele>1040.6666666666665</ele><time>2026-05-02T15:40:25.859Z</time></trkpt><trkpt lat="42.1335433" lon="13.310475"><ele>1039.0</ele><time>2026-05-02T15:40:27.859Z</time></trkpt><trkpt lat="42.1336017" lon="13.31039"><ele>1039.0</ele><time>2026-05-02T15:40:29.858Z</time></trkpt><trkpt lat="42.1336483" lon="13.3103033"><ele>1039.0</ele><time>2026-05-02T15:40:31.859Z</time></trkpt><trkpt lat="42.1336917" lon="13.3102117"><ele>1039.0</ele><time>2026-05-02T15:40:33.858Z</time></trkpt><trkpt lat="42.1337317" lon="13.3101233"><ele>1039.0</ele><time>2026-05-02T15:40:35.858Z</time></trkpt><trkpt lat="42.1337817" lon="13.31007"><ele>1039.0</ele><time>2026-05-02T15:40:37.859Z</time></trkpt><trkpt lat="42.13387" lon="13.3100233"><ele>1039.0</ele><time>2026-05-02T15:40:39.859Z</time></trkpt><trkpt lat="42.1339667" lon="13.3099967"><ele>1039.0</ele><time>2026-05-02T15:40:41.858Z</time></trkpt><trkpt lat="42.1340383" lon="13.3099433"><ele>1039.0</ele><time>2026-05-02T15:40:43.858Z</time></trkpt><trkpt lat="42.1340917" lon="13.309855"><ele>1039.0</ele><time>2026-05-02T15:40:45.858Z</time></trkpt><trkpt lat="42.134125" lon="13.3097633"><ele>1039.0</ele><time>2026-05-02T15:40:47.858Z</time></trkpt><trkpt lat="42.13413" lon="13.3096783"><ele>1039.0</ele><time>2026-05-02T15:40:49.859Z</time></trkpt><trkpt lat="42.134155" lon="13.30955"><ele>1039.0</ele><time>2026-05-02T15:40:52.859Z</time></trkpt><trkpt lat="42.1341967" lon="13.3094283"><ele>1034.6000000000001</ele><time>2026-05-02T15:40:54.859Z</time></trkpt><trkpt lat="42.1342567" lon="13.3092983"><ele>1030.2</ele><time>2026-05-02T15:40:56.858Z</time></trkpt><trkpt lat="42.13431" lon="13.3091783"><ele>1025.8000000000002</ele><time>2026-05-02T15:40:58.859Z</time></trkpt><trkpt lat="42.13435" lon="13.3090983"><ele>1021.4000000000001</ele><time>2026-05-02T15:41:00.859Z</time></trkpt><trkpt lat="42.13442" lon="13.3090167"><ele>1017.0</ele><time>2026-05-02T15:41:02.858Z</time></trkpt><trkpt lat="42.1344983" lon="13.3089217"><ele>1017.0</ele><time>2026-05-02T15:41:04.858Z</time></trkpt><trkpt lat="42.1345517" lon="13.3088617"><ele>1017.0</ele><time>2026-05-02T15:41:05.858Z</time></trkpt><trkpt lat="42.13464" lon="13.3087733"><ele>1017.0</ele><time>2026-05-02T15:41:07.859Z</time></trkpt><trkpt lat="42.1346817" lon="13.30866"><ele>1017.0</ele><time>2026-05-02T15:41:09.859Z</time></trkpt><trkpt lat="42.1346815" lon="13.3084843"><ele>1017.0</ele><time>2026-05-02T15:41:12.941Z</time></trkpt><trkpt lat="42.1346952" lon="13.3083769"><ele>1017.0</ele><time>2026-05-02T15:41:13.858Z</time></trkpt><trkpt lat="42.1346991" lon="13.3082698"><ele>1017.0</ele><time>2026-05-02T15:41:14.858Z</time></trkpt><trkpt lat="42.1347036" lon="13.3081733"><ele>1017.0</ele><time>2026-05-02T15:41:15.859Z</time></trkpt><trkpt lat="42.1347103" lon="13.3080851"><ele>1017.0</ele><time>2026-05-02T15:41:16.858Z</time></trkpt><trkpt lat="42.1347158" lon="13.308"><ele>1017.0</ele><time>2026-05-02T15:41:17.859Z</time></trkpt><trkpt lat="42.1347425" lon="13.3078458"><ele>1017.0</ele><time>2026-05-02T15:41:19.858Z</time></trkpt><trkpt lat="42.1348073" lon="13.3077221"><ele>1015.3333333333334</ele><time>2026-05-02T15:41:21.859Z</time></trkpt><trkpt lat="42.1348638" lon="13.3075788"><ele>1013.6666666666667</ele><time>2026-05-02T15:41:23.859Z</time></trkpt><trkpt lat="42.1348619" lon="13.3074923"><ele>1012.0</ele><time>2026-05-02T15:41:24.858Z</time></trkpt><trkpt lat="42.1348284" lon="13.3074101"><ele>1010.3333333333334</ele><time>2026-05-02T15:41:25.858Z</time></trkpt><trkpt lat="42.1347761" lon="13.3073257"><ele>1008.6666666666667</ele><time>2026-05-02T15:41:26.858Z</time></trkpt><trkpt lat="42.1347223" lon="13.3072396"><ele>1007.0</ele><time>2026-05-02T15:41:27.859Z</time></trkpt><trkpt lat="42.1346783" lon="13.3071583"><ele>1004.0</ele><time>2026-05-02T15:41:28.858Z</time></trkpt><trkpt lat="42.1346384" lon="13.3070859"><ele>1001.0</ele><time>2026-05-02T15:41:29.858Z</time></trkpt><trkpt lat="42.1345719" lon="13.3069512"><ele>998.0</ele><time>2026-05-02T15:41:31.859Z</time></trkpt><trkpt lat="42.1345299" lon="13.3067947"><ele>995.0</ele><time>2026-05-02T15:41:33.858Z</time></trkpt><trkpt lat="42.134514" lon="13.3067053"><ele>992.0</ele><time>2026-05-02T15:41:34.858Z</time></trkpt><trkpt lat="42.1345031" lon="13.3066098"><ele>992.0000000000001</ele><time>2026-05-02T15:41:35.859Z</time></trkpt><trkpt lat="42.1344985" lon="13.3065181"><ele>992.0</ele><time>2026-05-02T15:41:36.859Z</time></trkpt><trkpt lat="42.1344959" lon="13.3064245"><ele>992.0</ele><time>2026-05-02T15:41:37.858Z</time></trkpt><trkpt lat="42.1345045" lon="13.3063341"><ele>992.0</ele><time>2026-05-02T15:41:38.859Z</time></trkpt><trkpt lat="42.1345068" lon="13.3061798"><ele>992.0000000000001</ele><time>2026-05-02T15:41:40.859Z</time></trkpt><trkpt lat="42.1344725" lon="13.3060788"><ele>992.0</ele><time>2026-05-02T15:41:42.858Z</time></trkpt><trkpt lat="42.1344191" lon="13.3059808"><ele>989.4000000000001</ele><time>2026-05-02T15:41:44.858Z</time></trkpt><trkpt lat="42.1343865" lon="13.3058121"><ele>986.8000000000001</ele><time>2026-05-02T15:41:46.858Z</time></trkpt><trkpt lat="42.1343776" lon="13.3056989"><ele>984.2</ele><time>2026-05-02T15:41:47.858Z</time></trkpt><trkpt lat="42.1343682" lon="13.3055848"><ele>981.6</ele><time>2026-05-02T15:41:48.859Z</time></trkpt><trkpt lat="42.1343626" lon="13.3054739"><ele>979.0</ele><time>2026-05-02T15:41:49.858Z</time></trkpt><trkpt lat="42.1343532" lon="13.3053617"><ele>977.7142857142857</ele><time>2026-05-02T15:41:50.858Z</time></trkpt><trkpt lat="42.1343408" lon="13.3052583"><ele>976.4285714285716</ele><time>2026-05-02T15:41:51.859Z</time></trkpt><trkpt lat="42.1343228" lon="13.3051548"><ele>975.1428571428572</ele><time>2026-05-02T15:41:52.859Z</time></trkpt><trkpt lat="42.1343058" lon="13.3050508"><ele>973.8571428571429</ele><time>2026-05-02T15:41:53.859Z</time></trkpt><trkpt lat="42.134286" lon="13.304949"><ele>972.5714285714287</ele><time>2026-05-02T15:41:54.858Z</time></trkpt><trkpt lat="42.1342663" lon="13.3048586"><ele>971.2857142857144</ele><time>2026-05-02T15:41:55.858Z</time></trkpt><trkpt lat="42.1342498" lon="13.3047737"><ele>970.0000000000001</ele><time>2026-05-02T15:41:56.859Z</time></trkpt><trkpt lat="42.1342371" lon="13.3046865"><ele>968.6666666666666</ele><time>2026-05-02T15:41:57.858Z</time></trkpt><trkpt lat="42.1342325" lon="13.3045877"><ele>967.3333333333333</ele><time>2026-05-02T15:41:58.858Z</time></trkpt><trkpt lat="42.1342322" lon="13.3044852"><ele>966.0</ele><time>2026-05-02T15:41:59.859Z</time></trkpt><trkpt lat="42.1342242" lon="13.3043755"><ele>964.6666666666667</ele><time>2026-05-02T15:42:00.859Z</time></trkpt><trkpt lat="42.1342109" lon="13.3042562"><ele>963.3333333333334</ele><time>2026-05-02T15:42:01.859Z</time></trkpt><trkpt lat="42.1341953" lon="13.3041252"><ele>962.0</ele><time>2026-05-02T15:42:02.858Z</time></trkpt><trkpt lat="42.1341796" lon="13.3039921"><ele>961.6666666666667</ele><time>2026-05-02T15:42:03.858Z</time></trkpt><trkpt lat="42.1341627" lon="13.3038719"><ele>961.3333333333334</ele><time>2026-05-02T15:42:04.858Z</time></trkpt><trkpt lat="42.1341494" lon="13.3037486"><ele>961.0</ele><time>2026-05-02T15:42:05.859Z</time></trkpt><trkpt lat="42.1341319" lon="13.3036338"><ele>960.6666666666667</ele><time>2026-05-02T15:42:06.858Z</time></trkpt><trkpt lat="42.134128" lon="13.3035242"><ele>960.3333333333334</ele><time>2026-05-02T15:42:07.858Z</time></trkpt><trkpt lat="42.1341412" lon="13.3034242"><ele>960.0</ele><time>2026-05-02T15:42:08.858Z</time></trkpt><trkpt lat="42.1341776" lon="13.303327"><ele>960.0</ele><time>2026-05-02T15:42:09.858Z</time></trkpt><trkpt lat="42.1342273" lon="13.3032185"><ele>960.0</ele><time>2026-05-02T15:42:10.858Z</time></trkpt><trkpt lat="42.1342752" lon="13.3030966"><ele>960.0</ele><time>2026-05-02T15:42:11.858Z</time></trkpt><trkpt lat="42.1343269" lon="13.302973"><ele>960.0</ele><time>2026-05-02T15:42:12.859Z</time></trkpt><trkpt lat="42.1343868" lon="13.3028554"><ele>960.0</ele><time>2026-05-02T15:42:13.859Z</time></trkpt><trkpt lat="42.1344425" lon="13.302733"><ele>961.0</ele><time>2026-05-02T15:42:14.858Z</time></trkpt><trkpt lat="42.134495" lon="13.3026094"><ele>962.0</ele><time>2026-05-02T15:42:15.859Z</time></trkpt><trkpt lat="42.1345371" lon="13.3024916"><ele>963.0</ele><time>2026-05-02T15:42:16.858Z</time></trkpt><trkpt lat="42.134569" lon="13.3023932"><ele>964.0</ele><time>2026-05-02T15:42:17.858Z</time></trkpt><trkpt lat="42.1345798" lon="13.3022566"><ele>965.0</ele><time>2026-05-02T15:42:19.858Z</time></trkpt><trkpt lat="42.1345515" lon="13.3021675"><ele>966.2</ele><time>2026-05-02T15:42:22.859Z</time></trkpt><trkpt lat="42.1346227" lon="13.3020653"><ele>967.4</ele><time>2026-05-02T15:42:26.858Z</time></trkpt><trkpt lat="42.134695" lon="13.3019536"><ele>968.5999999999999</ele><time>2026-05-02T15:42:28.859Z</time></trkpt><trkpt lat="42.1347427" lon="13.3018104"><ele>969.8</ele><time>2026-05-02T15:42:30.858Z</time></trkpt><trkpt lat="42.1347672" lon="13.3017226"><ele>971.0</ele><time>2026-05-02T15:42:31.858Z</time></trkpt><trkpt lat="42.1347999" lon="13.3016419"><ele>971.0000000000001</ele><time>2026-05-02T15:42:32.859Z</time></trkpt><trkpt lat="42.1348474" lon="13.3015638"><ele>971.0</ele><time>2026-05-02T15:42:33.858Z</time></trkpt><trkpt lat="42.1349041" lon="13.3014921"><ele>971.0</ele><time>2026-05-02T15:42:34.859Z</time></trkpt><trkpt lat="42.134968" lon="13.3014236"><ele>971.0</ele><time>2026-05-02T15:42:35.859Z</time></trkpt><trkpt lat="42.1350354" lon="13.3013527"><ele>971.0000000000001</ele><time>2026-05-02T15:42:36.859Z</time></trkpt><trkpt lat="42.1351025" lon="13.3012711"><ele>971.0</ele><time>2026-05-02T15:42:37.858Z</time></trkpt><trkpt lat="42.135165" lon="13.3011767"><ele>966.6666666666667</ele><time>2026-05-02T15:42:38.858Z</time></trkpt><trkpt lat="42.135225" lon="13.3010967"><ele>962.3333333333334</ele><time>2026-05-02T15:42:39.859Z</time></trkpt><trkpt lat="42.135285" lon="13.3010267"><ele>958.0</ele><time>2026-05-02T15:42:40.858Z</time></trkpt><trkpt lat="42.135335" lon="13.3009617"><ele>953.6666666666667</ele><time>2026-05-02T15:42:41.859Z</time></trkpt><trkpt lat="42.1353933" lon="13.3009117"><ele>949.3333333333334</ele><time>2026-05-02T15:42:42.858Z</time></trkpt><trkpt lat="42.1354517" lon="13.30087"><ele>945.0</ele><time>2026-05-02T15:42:43.859Z</time></trkpt><trkpt lat="42.13556" lon="13.3008367"><ele>945.0</ele><time>2026-05-02T15:42:45.859Z</time></trkpt><trkpt lat="42.1356483" lon="13.300745"><ele>945.0</ele><time>2026-05-02T15:42:47.858Z</time></trkpt><trkpt lat="42.1357333" lon="13.30066"><ele>945.0</ele><time>2026-05-02T15:42:49.859Z</time></trkpt><trkpt lat="42.1358483" lon="13.3006483"><ele>945.0</ele><time>2026-05-02T15:42:51.859Z</time></trkpt><trkpt lat="42.13592" lon="13.3006533"><ele>945.0</ele><time>2026-05-02T15:42:52.859Z</time></trkpt><trkpt lat="42.1359967" lon="13.3006467"><ele>944.8333333333334</ele><time>2026-05-02T15:42:53.858Z</time></trkpt><trkpt lat="42.1360717" lon="13.3006183"><ele>944.6666666666667</ele><time>2026-05-02T15:42:54.859Z</time></trkpt><trkpt lat="42.1361483" lon="13.3005817"><ele>944.5</ele><time>2026-05-02T15:42:55.858Z</time></trkpt><trkpt lat="42.136215" lon="13.300535"><ele>944.3333333333334</ele><time>2026-05-02T15:42:56.858Z</time></trkpt><trkpt lat="42.1363067" lon="13.3004417"><ele>944.1666666666667</ele><time>2026-05-02T15:42:58.859Z</time></trkpt><trkpt lat="42.136365" lon="13.3003367"><ele>944.0</ele><time>2026-05-02T15:43:00.859Z</time></trkpt><trkpt lat="42.1364483" lon="13.3002017"><ele>943.5000000000001</ele><time>2026-05-02T15:43:02.858Z</time></trkpt><trkpt lat="42.1365" lon="13.300115"><ele>943.0</ele><time>2026-05-02T15:43:03.858Z</time></trkpt><trkpt lat="42.136555" lon="13.3000217"><ele>942.5</ele><time>2026-05-02T15:43:04.858Z</time></trkpt><trkpt lat="42.13661" lon="13.2999267"><ele>942.0</ele><time>2026-05-02T15:43:05.858Z</time></trkpt><trkpt lat="42.1366667" lon="13.2998267"><ele>941.5000000000001</ele><time>2026-05-02T15:43:06.858Z</time></trkpt><trkpt lat="42.13671" lon="13.2997167"><ele>941.0</ele><time>2026-05-02T15:43:07.859Z</time></trkpt><trkpt lat="42.1367483" lon="13.2996083"><ele>939.5000000000001</ele><time>2026-05-02T15:43:08.859Z</time></trkpt><trkpt lat="42.136775" lon="13.299495"><ele>938.0</ele><time>2026-05-02T15:43:09.859Z</time></trkpt><trkpt lat="42.136785" lon="13.299385"><ele>936.5</ele><time>2026-05-02T15:43:10.858Z</time></trkpt><trkpt lat="42.1367983" lon="13.2992633"><ele>935.0</ele><time>2026-05-02T15:43:11.858Z</time></trkpt><trkpt lat="42.13681" lon="13.2991467"><ele>933.5000000000001</ele><time>2026-05-02T15:43:12.858Z</time></trkpt><trkpt lat="42.13683" lon="13.2990283"><ele>932.0</ele><time>2026-05-02T15:43:13.859Z</time></trkpt><trkpt lat="42.1368583" lon="13.2989083"><ele>931.3333333333334</ele><time>2026-05-02T15:43:14.859Z</time></trkpt><trkpt lat="42.1368767" lon="13.298785"><ele>930.6666666666667</ele><time>2026-05-02T15:43:15.858Z</time></trkpt><trkpt lat="42.1368967" lon="13.29866"><ele>930.0</ele><time>2026-05-02T15:43:16.859Z</time></trkpt><trkpt lat="42.1369283" lon="13.29855"><ele>929.3333333333333</ele><time>2026-05-02T15:43:17.858Z</time></trkpt><trkpt lat="42.136955" lon="13.2984383"><ele>928.6666666666666</ele><time>2026-05-02T15:43:18.859Z</time></trkpt><trkpt lat="42.1369767" lon="13.2983433"><ele>928.0</ele><time>2026-05-02T15:43:19.858Z</time></trkpt><trkpt lat="42.13698" lon="13.2982067"><ele>928.0</ele><time>2026-05-02T15:43:21.859Z</time></trkpt><trkpt lat="42.136935" lon="13.2981333"><ele>928.0</ele><time>2026-05-02T15:43:23.859Z</time></trkpt><trkpt lat="42.13683" lon="13.2981233"><ele>928.0</ele><time>2026-05-02T15:43:25.858Z</time></trkpt><trkpt lat="42.136765" lon="13.2981233"><ele>928.0</ele><time>2026-05-02T15:43:26.858Z</time></trkpt><trkpt lat="42.1366517" lon="13.298085"><ele>928.0</ele><time>2026-05-02T15:43:28.859Z</time></trkpt><trkpt lat="42.1365733" lon="13.298005"><ele>928.6666666666666</ele><time>2026-05-02T15:43:30.859Z</time></trkpt><trkpt lat="42.1365383" lon="13.2979033"><ele>929.3333333333333</ele><time>2026-05-02T15:43:32.858Z</time></trkpt><trkpt lat="42.1365617" lon="13.2977567"><ele>930.0</ele><time>2026-05-02T15:43:34.859Z</time></trkpt><trkpt lat="42.1365967" lon="13.2976783"><ele>930.6666666666667</ele><time>2026-05-02T15:43:35.858Z</time></trkpt><trkpt lat="42.13664" lon="13.2976067"><ele>931.3333333333334</ele><time>2026-05-02T15:43:36.859Z</time></trkpt><trkpt lat="42.136675" lon="13.297535"><ele>932.0</ele><time>2026-05-02T15:43:37.858Z</time></trkpt><trkpt lat="42.1367033" lon="13.2973733"><ele>932.0000000000001</ele><time>2026-05-02T15:43:39.859Z</time></trkpt><trkpt lat="42.1367" lon="13.2972733"><ele>932.0</ele><time>2026-05-02T15:43:40.858Z</time></trkpt><trkpt lat="42.1366933" lon="13.2971733"><ele>932.0</ele><time>2026-05-02T15:43:41.859Z</time></trkpt><trkpt lat="42.1366917" lon="13.2970767"><ele>932.0</ele><time>2026-05-02T15:43:42.859Z</time></trkpt><trkpt lat="42.1366917" lon="13.296965"><ele>932.0000000000001</ele><time>2026-05-02T15:43:43.859Z</time></trkpt><trkpt lat="42.1366917" lon="13.2968567"><ele>932.0</ele><time>2026-05-02T15:43:44.858Z</time></trkpt><trkpt lat="42.1367067" lon="13.2967417"><ele>931.2</ele><time>2026-05-02T15:43:45.858Z</time></trkpt><trkpt lat="42.136725" lon="13.2966217"><ele>930.4000000000001</ele><time>2026-05-02T15:43:46.859Z</time></trkpt><trkpt lat="42.1367217" lon="13.2965033"><ele>929.5999999999999</ele><time>2026-05-02T15:43:47.859Z</time></trkpt><trkpt lat="42.1367133" lon="13.2963817"><ele>928.8</ele><time>2026-05-02T15:43:48.858Z</time></trkpt><trkpt lat="42.1366983" lon="13.29626"><ele>928.0</ele><time>2026-05-02T15:43:49.858Z</time></trkpt><trkpt lat="42.136685" lon="13.2961383"><ele>927.0</ele><time>2026-05-02T15:43:50.858Z</time></trkpt><trkpt lat="42.1366717" lon="13.2960083"><ele>926.0</ele><time>2026-05-02T15:43:51.859Z</time></trkpt><trkpt lat="42.1366633" lon="13.2958967"><ele>925.0</ele><time>2026-05-02T15:43:52.859Z</time></trkpt><trkpt lat="42.136655" lon="13.2957733"><ele>924.0</ele><time>2026-05-02T15:43:53.858Z</time></trkpt><trkpt lat="42.1366567" lon="13.2956483"><ele>923.0</ele><time>2026-05-02T15:43:54.859Z</time></trkpt><trkpt lat="42.1366667" lon="13.295525"><ele>922.0</ele><time>2026-05-02T15:43:55.858Z</time></trkpt><trkpt lat="42.136675" lon="13.2954"><ele>921.0</ele><time>2026-05-02T15:43:56.858Z</time></trkpt><trkpt lat="42.1366717" lon="13.2952767"><ele>920.0</ele><time>2026-05-02T15:43:57.858Z</time></trkpt><trkpt lat="42.1366567" lon="13.29514"><ele>919.0</ele><time>2026-05-02T15:43:58.858Z</time></trkpt><trkpt lat="42.1366333" lon="13.2950033"><ele>918.0</ele><time>2026-05-02T15:43:59.858Z</time></trkpt><trkpt lat="42.1366083" lon="13.2948667"><ele>917.5999999999999</ele><time>2026-05-02T15:44:00.859Z</time></trkpt><trkpt lat="42.136585" lon="13.2947417"><ele>917.1999999999999</ele><time>2026-05-02T15:44:01.859Z</time></trkpt><trkpt lat="42.1365633" lon="13.2946167"><ele>916.8</ele><time>2026-05-02T15:44:02.858Z</time></trkpt><trkpt lat="42.13654" lon="13.2944833"><ele>916.4</ele><time>2026-05-02T15:44:03.858Z</time></trkpt><trkpt lat="42.1365183" lon="13.29435"><ele>916.0</ele><time>2026-05-02T15:44:04.858Z</time></trkpt><trkpt lat="42.1364967" lon="13.2942267"><ele>914.8333333333333</ele><time>2026-05-02T15:44:05.858Z</time></trkpt><trkpt lat="42.1364917" lon="13.2941117"><ele>913.6666666666666</ele><time>2026-05-02T15:44:06.858Z</time></trkpt><trkpt lat="42.1365033" lon="13.294"><ele>912.5</ele><time>2026-05-02T15:44:07.859Z</time></trkpt><trkpt lat="42.1365117" lon="13.293915"><ele>911.3333333333333</ele><time>2026-05-02T15:44:08.858Z</time></trkpt><trkpt lat="42.1364783" lon="13.293795"><ele>910.1666666666666</ele><time>2026-05-02T15:44:10.858Z</time></trkpt><trkpt lat="42.1364017" lon="13.293695"><ele>909.0</ele><time>2026-05-02T15:44:12.858Z</time></trkpt><trkpt lat="42.13634" lon="13.2935533"><ele>909.0</ele><time>2026-05-02T15:44:14.858Z</time></trkpt><trkpt lat="42.1363367" lon="13.2933883"><ele>909.0000000000001</ele><time>2026-05-02T15:44:16.858Z</time></trkpt><trkpt lat="42.1363183" lon="13.2932267"><ele>909.0000000000001</ele><time>2026-05-02T15:44:18.858Z</time></trkpt><trkpt lat="42.136295" lon="13.2931383"><ele>909.0</ele><time>2026-05-02T15:44:19.859Z</time></trkpt><trkpt lat="42.13626" lon="13.293045"><ele>909.0</ele><time>2026-05-02T15:44:20.859Z</time></trkpt><trkpt lat="42.1362317" lon="13.2929567"><ele>908.6666666666666</ele><time>2026-05-02T15:44:21.859Z</time></trkpt><trkpt lat="42.1362133" lon="13.2928633"><ele>908.3333333333333</ele><time>2026-05-02T15:44:22.859Z</time></trkpt><trkpt lat="42.1362033" lon="13.2927617"><ele>908.0</ele><time>2026-05-02T15:44:23.858Z</time></trkpt><trkpt lat="42.1362067" lon="13.2926583"><ele>907.6666666666666</ele><time>2026-05-02T15:44:24.858Z</time></trkpt><trkpt lat="42.1362167" lon="13.2925433"><ele>907.3333333333333</ele><time>2026-05-02T15:44:25.858Z</time></trkpt><trkpt lat="42.1362333" lon="13.29243"><ele>907.0</ele><time>2026-05-02T15:44:26.858Z</time></trkpt><trkpt lat="42.1362433" lon="13.2923217"><ele>905.4999999999999</ele><time>2026-05-02T15:44:27.858Z</time></trkpt><trkpt lat="42.1362617" lon="13.2922083"><ele>904.0</ele><time>2026-05-02T15:44:28.859Z</time></trkpt><trkpt lat="42.1362733" lon="13.2921033"><ele>902.5</ele><time>2026-05-02T15:44:29.858Z</time></trkpt><trkpt lat="42.1362833" lon="13.2919983"><ele>901.0</ele><time>2026-05-02T15:44:30.859Z</time></trkpt><trkpt lat="42.136295" lon="13.2918967"><ele>899.4999999999999</ele><time>2026-05-02T15:44:31.858Z</time></trkpt><trkpt lat="42.136295" lon="13.291795"><ele>898.0</ele><time>2026-05-02T15:44:32.858Z</time></trkpt><trkpt lat="42.136295" lon="13.291695"><ele>898.0</ele><time>2026-05-02T15:44:33.859Z</time></trkpt><trkpt lat="42.1362917" lon="13.2916067"><ele>898.0</ele><time>2026-05-02T15:44:34.858Z</time></trkpt><trkpt lat="42.1362983" lon="13.2915183"><ele>898.0</ele><time>2026-05-02T15:44:36.858Z</time></trkpt><trkpt lat="42.1363483" lon="13.2914383"><ele>898.0</ele><time>2026-05-02T15:44:38.859Z</time></trkpt><trkpt lat="42.1364267" lon="13.2913233"><ele>898.0</ele><time>2026-05-02T15:44:40.858Z</time></trkpt><trkpt lat="42.136475" lon="13.2911683"><ele>896.8</ele><time>2026-05-02T15:44:42.859Z</time></trkpt><trkpt lat="42.1364883" lon="13.2910783"><ele>895.5999999999999</ele><time>2026-05-02T15:44:43.859Z</time></trkpt><trkpt lat="42.1365067" lon="13.29099"><ele>894.4000000000001</ele><time>2026-05-02T15:44:44.859Z</time></trkpt><trkpt lat="42.1365567" lon="13.2908467"><ele>893.2</ele><time>2026-05-02T15:44:46.859Z</time></trkpt><trkpt lat="42.1366317" lon="13.2907717"><ele>892.0</ele><time>2026-05-02T15:44:48.859Z</time></trkpt><trkpt lat="42.136755" lon="13.290745"><ele>891.9999999999999</ele><time>2026-05-02T15:44:50.858Z</time></trkpt><trkpt lat="42.13684" lon="13.2907417"><ele>892.0</ele><time>2026-05-02T15:44:51.858Z</time></trkpt><trkpt lat="42.1369267" lon="13.2907433"><ele>892.0</ele><time>2026-05-02T15:44:52.858Z</time></trkpt><trkpt lat="42.1370167" lon="13.29074"><ele>892.0</ele><time>2026-05-02T15:44:53.858Z</time></trkpt><trkpt lat="42.1370933" lon="13.290735"><ele>891.9999999999999</ele><time>2026-05-02T15:44:54.858Z</time></trkpt><trkpt lat="42.1371867" lon="13.29071"><ele>892.0</ele><time>2026-05-02T15:44:56.858Z</time></trkpt><trkpt lat="42.1372317" lon="13.2906383"><ele>889.4999999999999</ele><time>2026-05-02T15:44:58.858Z</time></trkpt><trkpt lat="42.1372083" lon="13.2905433"><ele>887.0</ele><time>2026-05-02T15:45:01.859Z</time></trkpt><trkpt lat="42.1371383" lon="13.2904983"><ele>884.5</ele><time>2026-05-02T15:45:04.858Z</time></trkpt><trkpt lat="42.1370633" lon="13.2904733"><ele>882.0</ele><time>2026-05-02T15:45:06.859Z</time></trkpt><trkpt lat="42.1369783" lon="13.2904417"><ele>879.4999999999999</ele><time>2026-05-02T15:45:08.859Z</time></trkpt><trkpt lat="42.13687" lon="13.2904017"><ele>877.0</ele><time>2026-05-02T15:45:10.859Z</time></trkpt><trkpt lat="42.136815" lon="13.2903467"><ele>876.9999999999999</ele><time>2026-05-02T15:45:12.859Z</time></trkpt><trkpt lat="42.13683" lon="13.2902567"><ele>877.0</ele><time>2026-05-02T15:45:14.858Z</time></trkpt><trkpt lat="42.1369033" lon="13.290145"><ele>877.0</ele><time>2026-05-02T15:45:16.858Z</time></trkpt><trkpt lat="42.1369533" lon="13.2900817"><ele>877.0</ele><time>2026-05-02T15:45:17.858Z</time></trkpt><trkpt lat="42.1370017" lon="13.2900133"><ele>876.9999999999999</ele><time>2026-05-02T15:45:18.858Z</time></trkpt><trkpt lat="42.13705" lon="13.2899467"><ele>877.0</ele><time>2026-05-02T15:45:19.859Z</time></trkpt><trkpt lat="42.1370967" lon="13.2898683"><ele>877.0</ele><time>2026-05-02T15:45:20.858Z</time></trkpt><trkpt lat="42.1371267" lon="13.28979"><ele>877.0</ele><time>2026-05-02T15:45:21.858Z</time></trkpt><trkpt lat="42.1371633" lon="13.28963"><ele>877.0</ele><time>2026-05-02T15:45:23.859Z</time></trkpt><trkpt lat="42.1371717" lon="13.28948"><ele>877.0</ele><time>2026-05-02T15:45:25.858Z</time></trkpt><trkpt lat="42.1371217" lon="13.2893467"><ele>877.0</ele><time>2026-05-02T15:45:27.859Z</time></trkpt><trkpt lat="42.137075" lon="13.2892083"><ele>874.6666666666666</ele><time>2026-05-02T15:45:29.858Z</time></trkpt><trkpt lat="42.1370783" lon="13.2891133"><ele>872.3333333333333</ele><time>2026-05-02T15:45:31.858Z</time></trkpt><trkpt lat="42.1371533" lon="13.2890367"><ele>870.0</ele><time>2026-05-02T15:45:33.858Z</time></trkpt><trkpt lat="42.1372167" lon="13.288965"><ele>867.6666666666667</ele><time>2026-05-02T15:45:35.858Z</time></trkpt><trkpt lat="42.1371933" lon="13.2888367"><ele>865.3333333333334</ele><time>2026-05-02T15:45:37.858Z</time></trkpt><trkpt lat="42.137165" lon="13.288755"><ele>863.0</ele><time>2026-05-02T15:45:38.859Z</time></trkpt><trkpt lat="42.1371233" lon="13.2886483"><ele>861.4</ele><time>2026-05-02T15:45:39.859Z</time></trkpt><trkpt lat="42.137085" lon="13.2885383"><ele>859.8</ele><time>2026-05-02T15:45:40.859Z</time></trkpt><trkpt lat="42.1370617" lon="13.2884417"><ele>858.2</ele><time>2026-05-02T15:45:41.859Z</time></trkpt><trkpt lat="42.13703" lon="13.28828"><ele>856.6</ele><time>2026-05-02T15:45:43.858Z</time></trkpt><trkpt lat="42.1370433" lon="13.2881233"><ele>855.0</ele><time>2026-05-02T15:45:45.859Z</time></trkpt><trkpt lat="42.1370833" lon="13.2880367"><ele>855.0</ele><time>2026-05-02T15:45:47.858Z</time></trkpt><trkpt lat="42.1371567" lon="13.2881033"><ele>855.0</ele><time>2026-05-02T15:45:50.858Z</time></trkpt><trkpt lat="42.13723" lon="13.2881967"><ele>855.0</ele><time>2026-05-02T15:45:52.859Z</time></trkpt><trkpt lat="42.137285" lon="13.2882533"><ele>855.0</ele><time>2026-05-02T15:45:53.859Z</time></trkpt><trkpt lat="42.1373533" lon="13.2883117"><ele>855.0</ele><time>2026-05-02T15:45:54.859Z</time></trkpt><trkpt lat="42.13743" lon="13.2883617"><ele>855.0</ele><time>2026-05-02T15:45:55.858Z</time></trkpt><trkpt lat="42.1375067" lon="13.2884067"><ele>855.3333333333334</ele><time>2026-05-02T15:45:56.859Z</time></trkpt><trkpt lat="42.1375733" lon="13.28845"><ele>855.6666666666667</ele><time>2026-05-02T15:45:57.858Z</time></trkpt><trkpt lat="42.1376317" lon="13.2884967"><ele>856.0</ele><time>2026-05-02T15:45:58.858Z</time></trkpt><trkpt lat="42.13769" lon="13.2885433"><ele>856.3333333333334</ele><time>2026-05-02T15:45:59.859Z</time></trkpt><trkpt lat="42.137755" lon="13.2885633"><ele>856.6666666666667</ele><time>2026-05-02T15:46:00.858Z</time></trkpt><trkpt lat="42.1378583" lon="13.2885283"><ele>857.0</ele><time>2026-05-02T15:46:02.858Z</time></trkpt><trkpt lat="42.1378967" lon="13.2883867"><ele>857.0000000000001</ele><time>2026-05-02T15:46:04.859Z</time></trkpt><trkpt lat="42.1378983" lon="13.288295"><ele>857.0</ele><time>2026-05-02T15:46:05.859Z</time></trkpt><trkpt lat="42.1378983" lon="13.2881983"><ele>857.0</ele><time>2026-05-02T15:46:06.859Z</time></trkpt><trkpt lat="42.1378817" lon="13.2880917"><ele>857.0</ele><time>2026-05-02T15:46:07.858Z</time></trkpt><trkpt lat="42.1378617" lon="13.287975"><ele>857.0000000000001</ele><time>2026-05-02T15:46:08.859Z</time></trkpt><trkpt lat="42.13783" lon="13.2878417"><ele>857.0</ele><time>2026-05-02T15:46:09.859Z</time></trkpt><trkpt lat="42.1377983" lon="13.287715"><ele>855.4000000000001</ele><time>2026-05-02T15:46:10.858Z</time></trkpt><trkpt lat="42.137765" lon="13.2875867"><ele>853.8000000000001</ele><time>2026-05-02T15:46:11.859Z</time></trkpt><trkpt lat="42.1377367" lon="13.2874517"><ele>852.2</ele><time>2026-05-02T15:46:12.858Z</time></trkpt><trkpt lat="42.1377167" lon="13.28732"><ele>850.6</ele><time>2026-05-02T15:46:13.859Z</time></trkpt><trkpt lat="42.1377033" lon="13.2871867"><ele>849.0</ele><time>2026-05-02T15:46:14.859Z</time></trkpt><trkpt lat="42.1376983" lon="13.28706"><ele>847.6666666666666</ele><time>2026-05-02T15:46:15.858Z</time></trkpt><trkpt lat="42.1376917" lon="13.286945"><ele>846.3333333333333</ele><time>2026-05-02T15:46:16.858Z</time></trkpt><trkpt lat="42.13769" lon="13.2868433"><ele>845.0</ele><time>2026-05-02T15:46:17.858Z</time></trkpt><trkpt lat="42.1376767" lon="13.2867417"><ele>843.6666666666666</ele><time>2026-05-02T15:46:18.858Z</time></trkpt><trkpt lat="42.137665" lon="13.2866317"><ele>842.3333333333333</ele><time>2026-05-02T15:46:19.859Z</time></trkpt><trkpt lat="42.13766" lon="13.2865217"><ele>841.0</ele><time>2026-05-02T15:46:20.859Z</time></trkpt><trkpt lat="42.1376567" lon="13.28642"><ele>840.6666666666666</ele><time>2026-05-02T15:46:21.859Z</time></trkpt><trkpt lat="42.137655" lon="13.2863233"><ele>840.3333333333333</ele><time>2026-05-02T15:46:22.858Z</time></trkpt><trkpt lat="42.1376467" lon="13.2861733"><ele>840.0</ele><time>2026-05-02T15:46:24.858Z</time></trkpt><trkpt lat="42.1376067" lon="13.2860333"><ele>839.6666666666667</ele><time>2026-05-02T15:46:26.858Z</time></trkpt><trkpt lat="42.1375733" lon="13.28592"><ele>839.3333333333334</ele><time>2026-05-02T15:46:28.858Z</time></trkpt><trkpt lat="42.13763" lon="13.2858783"><ele>839.0</ele><time>2026-05-02T15:46:33.859Z</time></trkpt><trkpt lat="42.1376817" lon="13.2859733"><ele>839.0</ele><time>2026-05-02T15:46:36.858Z</time></trkpt><trkpt lat="42.1377683" lon="13.2860483"><ele>839.0</ele><time>2026-05-02T15:46:39.858Z</time></trkpt><trkpt lat="42.13787" lon="13.28605"><ele>839.0</ele><time>2026-05-02T15:46:41.858Z</time></trkpt><trkpt lat="42.13798" lon="13.2860217"><ele>839.0</ele><time>2026-05-02T15:46:43.859Z</time></trkpt><trkpt lat="42.1380683" lon="13.2860017"><ele>839.0</ele><time>2026-05-02T15:46:45.858Z</time></trkpt><trkpt lat="42.1381517" lon="13.2859883"><ele>839.2</ele><time>2026-05-02T15:46:47.859Z</time></trkpt><trkpt lat="42.138235" lon="13.2859767"><ele>839.4000000000001</ele><time>2026-05-02T15:46:49.858Z</time></trkpt><trkpt lat="42.13831" lon="13.2859467"><ele>839.6</ele><time>2026-05-02T15:46:51.859Z</time></trkpt><trkpt lat="42.138455" lon="13.2858867"><ele>839.8</ele><time>2026-05-02T15:47:03.858Z</time></trkpt><trkpt lat="42.1385667" lon="13.2858683"><ele>840.0</ele><time>2026-05-02T15:47:05.859Z</time></trkpt><trkpt lat="42.1386883" lon="13.2858617"><ele>840.0</ele><time>2026-05-02T15:47:07.858Z</time></trkpt><trkpt lat="42.138795" lon="13.2858533"><ele>840.0</ele><time>2026-05-02T15:47:09.859Z</time></trkpt><trkpt lat="42.1388967" lon="13.2858883"><ele>840.0</ele><time>2026-05-02T15:47:11.858Z</time></trkpt><trkpt lat="42.139025" lon="13.2859033"><ele>840.0</ele><time>2026-05-02T15:47:13.858Z</time></trkpt><trkpt lat="42.1391067" lon="13.285905"><ele>840.0</ele><time>2026-05-02T15:47:14.858Z</time></trkpt><trkpt lat="42.1391783" lon="13.2859"><ele>839.4</ele><time>2026-05-02T15:47:15.858Z</time></trkpt><trkpt lat="42.1392617" lon="13.2859"><ele>838.8</ele><time>2026-05-02T15:47:16.858Z</time></trkpt><trkpt lat="42.13935" lon="13.2858983"><ele>838.2</ele><time>2026-05-02T15:47:17.859Z</time></trkpt><trkpt lat="42.1394433" lon="13.2859017"><ele>837.6</ele><time>2026-05-02T15:47:18.859Z</time></trkpt><trkpt lat="42.1395467" lon="13.28591"><ele>837.0</ele><time>2026-05-02T15:47:19.859Z</time></trkpt><trkpt lat="42.1396467" lon="13.28591"><ele>837.0</ele><time>2026-05-02T15:47:20.859Z</time></trkpt><trkpt lat="42.13975" lon="13.2859083"><ele>837.0</ele><time>2026-05-02T15:47:21.858Z</time></trkpt><trkpt lat="42.1398567" lon="13.28591"><ele>837.0</ele><time>2026-05-02T15:47:22.858Z</time></trkpt><trkpt lat="42.1399633" lon="13.2859133"><ele>837.0</ele><time>2026-05-02T15:47:23.858Z</time></trkpt><trkpt lat="42.1400667" lon="13.2859183"><ele>837.0</ele><time>2026-05-02T15:47:24.859Z</time></trkpt><trkpt lat="42.1401667" lon="13.285935"><ele>835.0</ele><time>2026-05-02T15:47:25.858Z</time></trkpt><trkpt lat="42.1402717" lon="13.2859483"><ele>833.0</ele><time>2026-05-02T15:47:26.859Z</time></trkpt><trkpt lat="42.1403783" lon="13.2859583"><ele>831.0</ele><time>2026-05-02T15:47:27.858Z</time></trkpt><trkpt lat="42.140465" lon="13.2859783"><ele>829.0</ele><time>2026-05-02T15:47:28.859Z</time></trkpt><trkpt lat="42.1405467" lon="13.2860017"><ele>827.0</ele><time>2026-05-02T15:47:29.858Z</time></trkpt><trkpt lat="42.14063" lon="13.2860117"><ele>827.0000000000001</ele><time>2026-05-02T15:47:30.859Z</time></trkpt><trkpt lat="42.14071" lon="13.2860167"><ele>827.0</ele><time>2026-05-02T15:47:31.858Z</time></trkpt><trkpt lat="42.140785" lon="13.2860067"><ele>827.0</ele><time>2026-05-02T15:47:32.859Z</time></trkpt><trkpt lat="42.1408483" lon="13.2859883"><ele>827.0</ele><time>2026-05-02T15:47:33.859Z</time></trkpt><trkpt lat="42.140955" lon="13.2859983"><ele>827.0000000000001</ele><time>2026-05-02T15:47:35.858Z</time></trkpt><trkpt lat="42.141055" lon="13.286075"><ele>827.0</ele><time>2026-05-02T15:47:37.858Z</time></trkpt><trkpt lat="42.141115" lon="13.2861083"><ele>825.6666666666667</ele><time>2026-05-02T15:47:38.858Z</time></trkpt><trkpt lat="42.141185" lon="13.28612"><ele>824.3333333333334</ele><time>2026-05-02T15:47:39.858Z</time></trkpt><trkpt lat="42.1412533" lon="13.2861117"><ele>823.0</ele><time>2026-05-02T15:47:40.858Z</time></trkpt><trkpt lat="42.1413317" lon="13.2860933"><ele>821.6666666666667</ele><time>2026-05-02T15:47:41.858Z</time></trkpt><trkpt lat="42.141415" lon="13.2860483"><ele>820.3333333333334</ele><time>2026-05-02T15:47:42.858Z</time></trkpt><trkpt lat="42.1414917" lon="13.2860083"><ele>819.0</ele><time>2026-05-02T15:47:43.858Z</time></trkpt><trkpt lat="42.1415817" lon="13.2859833"><ele>815.0</ele><time>2026-05-02T15:47:44.858Z</time></trkpt><trkpt lat="42.1416717" lon="13.2859733"><ele>811.0</ele><time>2026-05-02T15:47:45.858Z</time></trkpt><trkpt lat="42.14176" lon="13.285965"><ele>807.0</ele><time>2026-05-02T15:47:46.858Z</time></trkpt><trkpt lat="42.1418567" lon="13.2859767"><ele>803.0</ele><time>2026-05-02T15:47:47.859Z</time></trkpt><trkpt lat="42.141945" lon="13.2859783"><ele>799.0</ele><time>2026-05-02T15:47:48.859Z</time></trkpt><trkpt lat="42.1420367" lon="13.28599"><ele>798.9999999999999</ele><time>2026-05-02T15:47:49.858Z</time></trkpt><trkpt lat="42.14212" lon="13.2859933"><ele>799.0</ele><time>2026-05-02T15:47:50.858Z</time></trkpt><trkpt lat="42.14219" lon="13.2859967"><ele>799.0</ele><time>2026-05-02T15:47:51.859Z</time></trkpt><trkpt lat="42.1422533" lon="13.2859817"><ele>799.0</ele><time>2026-05-02T15:47:52.858Z</time></trkpt><trkpt lat="42.1423583" lon="13.2859367"><ele>798.9999999999999</ele><time>2026-05-02T15:47:54.859Z</time></trkpt><trkpt lat="42.14244" lon="13.2859267"><ele>799.0</ele><time>2026-05-02T15:47:56.858Z</time></trkpt><trkpt lat="42.142505" lon="13.2859967"><ele>795.0</ele><time>2026-05-02T15:47:58.858Z</time></trkpt><trkpt lat="42.1425483" lon="13.2861117"><ele>791.0</ele><time>2026-05-02T15:48:00.858Z</time></trkpt><trkpt lat="42.1426133" lon="13.2862233"><ele>787.0</ele><time>2026-05-02T15:48:02.858Z</time></trkpt><trkpt lat="42.1427183" lon="13.28632"><ele>783.0</ele><time>2026-05-02T15:48:04.859Z</time></trkpt><trkpt lat="42.1427817" lon="13.2863583"><ele>779.0</ele><time>2026-05-02T15:48:05.858Z</time></trkpt><trkpt lat="42.1428417" lon="13.2863883"><ele>782.6</ele><time>2026-05-02T15:48:06.859Z</time></trkpt><trkpt lat="42.1429067" lon="13.286435"><ele>786.2</ele><time>2026-05-02T15:48:07.858Z</time></trkpt><trkpt lat="42.1429767" lon="13.2865083"><ele>789.8000000000001</ele><time>2026-05-02T15:48:08.858Z</time></trkpt><trkpt lat="42.1430433" lon="13.2865933"><ele>793.4000000000001</ele><time>2026-05-02T15:48:09.858Z</time></trkpt><trkpt lat="42.1431017" lon="13.2866967"><ele>797.0</ele><time>2026-05-02T15:48:10.858Z</time></trkpt><trkpt lat="42.1431533" lon="13.2868117"><ele>797.0000000000001</ele><time>2026-05-02T15:48:11.858Z</time></trkpt><trkpt lat="42.1431933" lon="13.2869267"><ele>797.0</ele><time>2026-05-02T15:48:12.858Z</time></trkpt><trkpt lat="42.143225" lon="13.2870467"><ele>797.0</ele><time>2026-05-02T15:48:13.858Z</time></trkpt><trkpt lat="42.1432433" lon="13.2871617"><ele>797.0</ele><time>2026-05-02T15:48:14.859Z</time></trkpt><trkpt lat="42.1432467" lon="13.287275"><ele>797.0000000000001</ele><time>2026-05-02T15:48:15.858Z</time></trkpt><trkpt lat="42.1432383" lon="13.28739"><ele>797.0</ele><time>2026-05-02T15:48:16.859Z</time></trkpt><trkpt lat="42.143235" lon="13.2874983"><ele>794.0</ele><time>2026-05-02T15:48:17.858Z</time></trkpt><trkpt lat="42.143245" lon="13.2875883"><ele>791.0</ele><time>2026-05-02T15:48:18.859Z</time></trkpt><trkpt lat="42.1432983" lon="13.28771"><ele>788.0</ele><time>2026-05-02T15:48:20.858Z</time></trkpt><trkpt lat="42.1433817" lon="13.2877667"><ele>785.0</ele><time>2026-05-02T15:48:22.858Z</time></trkpt><trkpt lat="42.1434733" lon="13.2878017"><ele>782.0</ele><time>2026-05-02T15:48:24.859Z</time></trkpt><trkpt lat="42.14358" lon="13.28783"><ele>782.0000000000001</ele><time>2026-05-02T15:48:26.858Z</time></trkpt><trkpt lat="42.1436983" lon="13.287805"><ele>782.0</ele><time>2026-05-02T15:48:28.859Z</time></trkpt><trkpt lat="42.143755" lon="13.2877367"><ele>782.0</ele><time>2026-05-02T15:48:29.858Z</time></trkpt><trkpt lat="42.1438117" lon="13.2876567"><ele>782.0</ele><time>2026-05-02T15:48:30.859Z</time></trkpt><trkpt lat="42.1438633" lon="13.28757"><ele>782.0000000000001</ele><time>2026-05-02T15:48:31.859Z</time></trkpt><trkpt lat="42.1439217" lon="13.2874917"><ele>782.0</ele><time>2026-05-02T15:48:32.858Z</time></trkpt><trkpt lat="42.14398" lon="13.28744"><ele>783.0000000000001</ele><time>2026-05-02T15:48:33.859Z</time></trkpt><trkpt lat="42.14405" lon="13.2873933"><ele>784.0</ele><time>2026-05-02T15:48:34.858Z</time></trkpt><trkpt lat="42.1441283" lon="13.2873683"><ele>785.0</ele><time>2026-05-02T15:48:35.858Z</time></trkpt><trkpt lat="42.144215" lon="13.2873617"><ele>786.0</ele><time>2026-05-02T15:48:36.859Z</time></trkpt><trkpt lat="42.1443067" lon="13.2873617"><ele>787.0000000000001</ele><time>2026-05-02T15:48:37.858Z</time></trkpt><trkpt lat="42.144395" lon="13.2873667"><ele>788.0</ele><time>2026-05-02T15:48:38.859Z</time></trkpt><trkpt lat="42.14449" lon="13.28736"><ele>788.0</ele><time>2026-05-02T15:48:39.859Z</time></trkpt><trkpt lat="42.144585" lon="13.2873483"><ele>788.0</ele><time>2026-05-02T15:48:40.859Z</time></trkpt><trkpt lat="42.144675" lon="13.2873433"><ele>788.0</ele><time>2026-05-02T15:48:41.858Z</time></trkpt><trkpt lat="42.1447617" lon="13.28735"><ele>788.0</ele><time>2026-05-02T15:48:42.859Z</time></trkpt><trkpt lat="42.1448383" lon="13.2873667"><ele>788.0</ele><time>2026-05-02T15:48:43.858Z</time></trkpt><trkpt lat="42.1449433" lon="13.2874367"><ele>789.5999999999999</ele><time>2026-05-02T15:48:45.858Z</time></trkpt><trkpt lat="42.1450117" lon="13.28753"><ele>791.1999999999999</ele><time>2026-05-02T15:48:47.858Z</time></trkpt><trkpt lat="42.14506" lon="13.2876467"><ele>792.8</ele><time>2026-05-02T15:48:49.858Z</time></trkpt><trkpt lat="42.1450633" lon="13.2878033"><ele>794.4</ele><time>2026-05-02T15:48:51.859Z</time></trkpt><trkpt lat="42.1450533" lon="13.28792"><ele>796.0</ele><time>2026-05-02T15:48:52.859Z</time></trkpt><trkpt lat="42.1450333" lon="13.2880417"><ele>796.1999999999999</ele><time>2026-05-02T15:48:53.859Z</time></trkpt><trkpt lat="42.1450117" lon="13.2881767"><ele>796.4</ele><time>2026-05-02T15:48:54.858Z</time></trkpt><trkpt lat="42.14499" lon="13.288325"><ele>796.6</ele><time>2026-05-02T15:48:55.858Z</time></trkpt><trkpt lat="42.144975" lon="13.2884717"><ele>796.8</ele><time>2026-05-02T15:48:56.858Z</time></trkpt><trkpt lat="42.144965" lon="13.2886133"><ele>797.0</ele><time>2026-05-02T15:48:57.86Z</time></trkpt><trkpt lat="42.1449567" lon="13.2887367"><ele>797.0</ele><time>2026-05-02T15:48:58.86Z</time></trkpt><trkpt lat="42.14495" lon="13.2888517"><ele>797.0</ele><time>2026-05-02T15:48:59.859Z</time></trkpt><trkpt lat="42.14495" lon="13.28898"><ele>797.0</ele><time>2026-05-02T15:49:00.86Z</time></trkpt><trkpt lat="42.1449617" lon="13.2891033"><ele>797.0</ele><time>2026-05-02T15:49:01.859Z</time></trkpt><trkpt lat="42.1449667" lon="13.2892283"><ele>797.0</ele><time>2026-05-02T15:49:02.86Z</time></trkpt><trkpt lat="42.1449683" lon="13.28936"><ele>797.1666666666667</ele><time>2026-05-02T15:49:03.86Z</time></trkpt><trkpt lat="42.1449767" lon="13.289475"><ele>797.3333333333334</ele><time>2026-05-02T15:49:04.86Z</time></trkpt><trkpt lat="42.1449867" lon="13.2895817"><ele>797.5</ele><time>2026-05-02T15:49:05.859Z</time></trkpt><trkpt lat="42.14501" lon="13.2897017"><ele>797.6666666666667</ele><time>2026-05-02T15:49:06.86Z</time></trkpt><trkpt lat="42.1450467" lon="13.28982"><ele>797.8333333333334</ele><time>2026-05-02T15:49:07.86Z</time></trkpt><trkpt lat="42.1450917" lon="13.289925"><ele>798.0</ele><time>2026-05-02T15:49:08.86Z</time></trkpt><trkpt lat="42.1451467" lon="13.2900367"><ele>798.0</ele><time>2026-05-02T15:49:09.859Z</time></trkpt><trkpt lat="42.145205" lon="13.2901617"><ele>798.0</ele><time>2026-05-02T15:49:10.86Z</time></trkpt><trkpt lat="42.145265" lon="13.2902717"><ele>798.0</ele><time>2026-05-02T15:49:11.859Z</time></trkpt><trkpt lat="42.14534" lon="13.2903817"><ele>798.0</ele><time>2026-05-02T15:49:12.859Z</time></trkpt><trkpt lat="42.1454133" lon="13.290485"><ele>798.0</ele><time>2026-05-02T15:49:13.86Z</time></trkpt><trkpt lat="42.14549" lon="13.2905883"><ele>799.0</ele><time>2026-05-02T15:49:14.859Z</time></trkpt><trkpt lat="42.1455583" lon="13.2906667"><ele>800.0</ele><time>2026-05-02T15:49:15.859Z</time></trkpt><trkpt lat="42.1456117" lon="13.290725"><ele>801.0</ele><time>2026-05-02T15:49:16.86Z</time></trkpt><trkpt lat="42.1457367" lon="13.29082"><ele>802.0</ele><time>2026-05-02T15:49:18.859Z</time></trkpt><trkpt lat="42.1458083" lon="13.2908883"><ele>803.0</ele><time>2026-05-02T15:49:19.859Z</time></trkpt><trkpt lat="42.1458817" lon="13.29096"><ele>800.0</ele><time>2026-05-02T15:49:20.859Z</time></trkpt><trkpt lat="42.14595" lon="13.2910183"><ele>797.0</ele><time>2026-05-02T15:49:21.86Z</time></trkpt><trkpt lat="42.1460383" lon="13.2911017"><ele>794.0</ele><time>2026-05-02T15:49:23.859Z</time></trkpt><trkpt lat="42.1460983" lon="13.2911817"><ele>791.0</ele><time>2026-05-02T15:49:26.859Z</time></trkpt><trkpt lat="42.1461583" lon="13.291265"><ele>788.0</ele><time>2026-05-02T15:49:29.86Z</time></trkpt><trkpt lat="42.146225" lon="13.2913733"><ele>789.0000000000001</ele><time>2026-05-02T15:49:32.859Z</time></trkpt><trkpt lat="42.14629" lon="13.2914417"><ele>790.0</ele><time>2026-05-02T15:49:35.86Z</time></trkpt><trkpt lat="42.14635" lon="13.2915167"><ele>791.0</ele><time>2026-05-02T15:49:38.859Z</time></trkpt><trkpt lat="42.1464083" lon="13.291585"><ele>792.0</ele><time>2026-05-02T15:49:41.859Z</time></trkpt><trkpt lat="42.1464617" lon="13.2916633"><ele>793.0000000000001</ele><time>2026-05-02T15:49:43.859Z</time></trkpt><trkpt lat="42.14653" lon="13.2917383"><ele>794.0</ele><time>2026-05-02T15:49:45.859Z</time></trkpt><trkpt lat="42.1465867" lon="13.2918233"><ele>791.6666666666667</ele><time>2026-05-02T15:49:47.859Z</time></trkpt><trkpt lat="42.14665" lon="13.2918667"><ele>789.3333333333334</ele><time>2026-05-02T15:49:49.859Z</time></trkpt><trkpt lat="42.14674" lon="13.291845"><ele>787.0</ele><time>2026-05-02T15:49:51.859Z</time></trkpt><trkpt lat="42.1468533" lon="13.2917467"><ele>784.6666666666667</ele><time>2026-05-02T15:49:53.859Z</time></trkpt><trkpt lat="42.146915" lon="13.2916917"><ele>782.3333333333334</ele><time>2026-05-02T15:49:54.859Z</time></trkpt><trkpt lat="42.1469717" lon="13.2916467"><ele>780.0</ele><time>2026-05-02T15:49:55.859Z</time></trkpt><trkpt lat="42.1470283" lon="13.291605"><ele>780.0</ele><time>2026-05-02T15:49:56.859Z</time></trkpt><trkpt lat="42.147085" lon="13.2915533"><ele>780.0</ele><time>2026-05-02T15:49:57.859Z</time></trkpt><trkpt lat="42.1471517" lon="13.29153"><ele>780.0</ele><time>2026-05-02T15:49:58.859Z</time></trkpt><trkpt lat="42.1472167" lon="13.2915133"><ele>780.0</ele><time>2026-05-02T15:49:59.86Z</time></trkpt><trkpt lat="42.1472867" lon="13.2915167"><ele>780.0</ele><time>2026-05-02T15:50:00.86Z</time></trkpt><trkpt lat="42.1473967" lon="13.2915467"><ele>780.0</ele><time>2026-05-02T15:50:02.859Z</time></trkpt><trkpt lat="42.147485" lon="13.29159"><ele>776.6</ele><time>2026-05-02T15:50:04.86Z</time></trkpt><trkpt lat="42.14756" lon="13.29159"><ele>773.2</ele><time>2026-05-02T15:50:07.86Z</time></trkpt><trkpt lat="42.1475333" lon="13.29145"><ele>769.8</ele><time>2026-05-02T15:50:10.859Z</time></trkpt><trkpt lat="42.1474767" lon="13.2912983"><ele>766.4</ele><time>2026-05-02T15:50:12.86Z</time></trkpt><trkpt lat="42.14742" lon="13.2911533"><ele>763.0</ele><time>2026-05-02T15:50:14.859Z</time></trkpt><trkpt lat="42.1474183" lon="13.2910433"><ele>761.0</ele><time>2026-05-02T15:50:16.859Z</time></trkpt><trkpt lat="42.1474767" lon="13.2908933"><ele>759.0</ele><time>2026-05-02T15:50:18.86Z</time></trkpt><trkpt lat="42.1475283" lon="13.2907983"><ele>757.0</ele><time>2026-05-02T15:50:19.859Z</time></trkpt><trkpt lat="42.1475833" lon="13.290695"><ele>755.0</ele><time>2026-05-02T15:50:20.859Z</time></trkpt><trkpt lat="42.14764" lon="13.2905967"><ele>753.0</ele><time>2026-05-02T15:50:21.859Z</time></trkpt><trkpt lat="42.1477067" lon="13.2904967"><ele>753.0</ele><time>2026-05-02T15:50:22.859Z</time></trkpt><trkpt lat="42.1477683" lon="13.2904133"><ele>753.0</ele><time>2026-05-02T15:50:23.86Z</time></trkpt><trkpt lat="42.1478483" lon="13.290335"><ele>753.0</ele><time>2026-05-02T15:50:24.86Z</time></trkpt><trkpt lat="42.1479617" lon="13.2902667"><ele>753.0</ele><time>2026-05-02T15:50:25.86Z</time></trkpt><trkpt lat="42.14808" lon="13.29019"><ele>753.0</ele><time>2026-05-02T15:50:26.86Z</time></trkpt><trkpt lat="42.148205" lon="13.2901117"><ele>749.5</ele><time>2026-05-02T15:50:27.859Z</time></trkpt><trkpt lat="42.14833" lon="13.2900333"><ele>746.0</ele><time>2026-05-02T15:50:28.859Z</time></trkpt><trkpt lat="42.14845" lon="13.2899417"><ele>742.5</ele><time>2026-05-02T15:50:29.86Z</time></trkpt><trkpt lat="42.1485683" lon="13.289855"><ele>739.0</ele><time>2026-05-02T15:50:30.859Z</time></trkpt><trkpt lat="42.14868" lon="13.2897617"><ele>739.25</ele><time>2026-05-02T15:50:31.859Z</time></trkpt><trkpt lat="42.1487817" lon="13.2896767"><ele>739.5</ele><time>2026-05-02T15:50:32.86Z</time></trkpt><trkpt lat="42.1488817" lon="13.2895917"><ele>739.75</ele><time>2026-05-02T15:50:33.859Z</time></trkpt><trkpt lat="42.1489783" lon="13.2894917"><ele>740.0</ele><time>2026-05-02T15:50:34.859Z</time></trkpt><trkpt lat="42.1490667" lon="13.2893767"><ele>740.0</ele><time>2026-05-02T15:50:35.86Z</time></trkpt><trkpt lat="42.1491333" lon="13.28927"><ele>740.0</ele><time>2026-05-02T15:50:36.86Z</time></trkpt><trkpt lat="42.149205" lon="13.289145"><ele>740.0</ele><time>2026-05-02T15:50:37.86Z</time></trkpt><trkpt lat="42.1492833" lon="13.2890367"><ele>740.0</ele><time>2026-05-02T15:50:38.859Z</time></trkpt><trkpt lat="42.1493667" lon="13.2889467"><ele>740.0</ele><time>2026-05-02T15:50:39.859Z</time></trkpt><trkpt lat="42.149455" lon="13.2888667"><ele>740.75</ele><time>2026-05-02T15:50:40.86Z</time></trkpt><trkpt lat="42.149545" lon="13.2887783"><ele>741.5</ele><time>2026-05-02T15:50:41.86Z</time></trkpt><trkpt lat="42.1496417" lon="13.2886583"><ele>742.25</ele><time>2026-05-02T15:50:42.859Z</time></trkpt><trkpt lat="42.1497367" lon="13.2885433"><ele>743.0</ele><time>2026-05-02T15:50:43.86Z</time></trkpt><trkpt lat="42.14984" lon="13.2884067"><ele>741.0</ele><time>2026-05-02T15:50:44.86Z</time></trkpt><trkpt lat="42.1499317" lon="13.28827"><ele>739.0</ele><time>2026-05-02T15:50:45.859Z</time></trkpt><trkpt lat="42.150015" lon="13.2881317"><ele>737.0</ele><time>2026-05-02T15:50:46.86Z</time></trkpt><trkpt lat="42.150095" lon="13.2879767"><ele>735.0</ele><time>2026-05-02T15:50:47.86Z</time></trkpt><trkpt lat="42.1501733" lon="13.287835"><ele>734.6</ele><time>2026-05-02T15:50:48.86Z</time></trkpt><trkpt lat="42.150235" lon="13.2877133"><ele>734.2</ele><time>2026-05-02T15:50:49.86Z</time></trkpt><trkpt lat="42.1502967" lon="13.2876017"><ele>733.8</ele><time>2026-05-02T15:50:50.86Z</time></trkpt><trkpt lat="42.1503517" lon="13.287495"><ele>733.4</ele><time>2026-05-02T15:50:51.859Z</time></trkpt><trkpt lat="42.1503967" lon="13.2873867"><ele>733.0</ele><time>2026-05-02T15:50:52.859Z</time></trkpt><trkpt lat="42.1504483" lon="13.287285"><ele>732.8333333333334</ele><time>2026-05-02T15:50:53.859Z</time></trkpt><trkpt lat="42.1505033" lon="13.287195"><ele>732.6666666666667</ele><time>2026-05-02T15:50:54.859Z</time></trkpt><trkpt lat="42.1505633" lon="13.2870983"><ele>732.5</ele><time>2026-05-02T15:50:55.859Z</time></trkpt><trkpt lat="42.1506217" lon="13.2870167"><ele>732.3333333333334</ele><time>2026-05-02T15:50:56.86Z</time></trkpt><trkpt lat="42.1506717" lon="13.2869567"><ele>732.1666666666666</ele><time>2026-05-02T15:50:57.859Z</time></trkpt><trkpt lat="42.1507417" lon="13.286885"><ele>732.0</ele><time>2026-05-02T15:50:59.859Z</time></trkpt><trkpt lat="42.15083" lon="13.2868533"><ele>731.6666666666666</ele><time>2026-05-02T15:51:01.86Z</time></trkpt><trkpt lat="42.15092" lon="13.28681"><ele>731.3333333333334</ele><time>2026-05-02T15:51:03.859Z</time></trkpt><trkpt lat="42.150975" lon="13.2867383"><ele>731.0</ele><time>2026-05-02T15:51:05.86Z</time></trkpt><trkpt lat="42.1510267" lon="13.28667"><ele>730.6666666666667</ele><time>2026-05-02T15:51:20.86Z</time></trkpt><trkpt lat="42.1510967" lon="13.286565"><ele>730.3333333333334</ele><time>2026-05-02T15:51:22.859Z</time></trkpt><trkpt lat="42.1511433" lon="13.2864983"><ele>730.0</ele><time>2026-05-02T15:51:23.859Z</time></trkpt><trkpt lat="42.151195" lon="13.28642"><ele>729.6</ele><time>2026-05-02T15:51:24.859Z</time></trkpt><trkpt lat="42.1512483" lon="13.2863317"><ele>729.2</ele><time>2026-05-02T15:51:25.86Z</time></trkpt><trkpt lat="42.1513017" lon="13.2862367"><ele>728.8</ele><time>2026-05-02T15:51:26.86Z</time></trkpt><trkpt lat="42.1513617" lon="13.28613"><ele>728.4</ele><time>2026-05-02T15:51:27.86Z</time></trkpt><trkpt lat="42.15143" lon="13.2860217"><ele>728.0</ele><time>2026-05-02T15:51:28.859Z</time></trkpt><trkpt lat="42.1515033" lon="13.2859217"><ele>727.5</ele><time>2026-05-02T15:51:29.859Z</time></trkpt><trkpt lat="42.15159" lon="13.2858233"><ele>727.0</ele><time>2026-05-02T15:51:30.86Z</time></trkpt><trkpt lat="42.151685" lon="13.2857267"><ele>726.5</ele><time>2026-05-02T15:51:31.86Z</time></trkpt><trkpt lat="42.1517767" lon="13.28563"><ele>726.0</ele><time>2026-05-02T15:51:32.859Z</time></trkpt><trkpt lat="42.1518767" lon="13.28552"><ele>726.0</ele><time>2026-05-02T15:51:33.86Z</time></trkpt><trkpt lat="42.1519717" lon="13.2854167"><ele>726.0</ele><time>2026-05-02T15:51:34.859Z</time></trkpt><trkpt lat="42.152065" lon="13.2852967"><ele>726.0</ele><time>2026-05-02T15:51:35.859Z</time></trkpt><trkpt lat="42.1521667" lon="13.2851867"><ele>726.0</ele><time>2026-05-02T15:51:36.86Z</time></trkpt><trkpt lat="42.1522683" lon="13.2850767"><ele>726.0</ele><time>2026-05-02T15:51:37.859Z</time></trkpt><trkpt lat="42.1523733" lon="13.28497"><ele>726.0</ele><time>2026-05-02T15:51:38.859Z</time></trkpt><trkpt lat="42.1524917" lon="13.2848633"><ele>726.0</ele><time>2026-05-02T15:51:39.86Z</time></trkpt><trkpt lat="42.1525933" lon="13.2847517"><ele>726.0</ele><time>2026-05-02T15:51:40.859Z</time></trkpt><trkpt lat="42.152705" lon="13.2846367"><ele>725.5</ele><time>2026-05-02T15:51:41.86Z</time></trkpt><trkpt lat="42.1528033" lon="13.28452"><ele>725.0</ele><time>2026-05-02T15:51:42.859Z</time></trkpt><trkpt lat="42.1529017" lon="13.2843867"><ele>724.5</ele><time>2026-05-02T15:51:43.859Z</time></trkpt><trkpt lat="42.1529967" lon="13.2842633"><ele>724.0</ele><time>2026-05-02T15:51:44.859Z</time></trkpt><trkpt lat="42.1530833" lon="13.28412"><ele>724.0</ele><time>2026-05-02T15:51:45.86Z</time></trkpt><trkpt lat="42.153175" lon="13.283965"><ele>724.0</ele><time>2026-05-02T15:51:46.86Z</time></trkpt><trkpt lat="42.15327" lon="13.2838117"><ele>724.0</ele><time>2026-05-02T15:51:47.86Z</time></trkpt><trkpt lat="42.153365" lon="13.2836583"><ele>724.0</ele><time>2026-05-02T15:51:48.859Z</time></trkpt><trkpt lat="42.1534567" lon="13.283495"><ele>725.0</ele><time>2026-05-02T15:51:49.859Z</time></trkpt><trkpt lat="42.153555" lon="13.2833383"><ele>726.0</ele><time>2026-05-02T15:51:50.859Z</time></trkpt><trkpt lat="42.1536483" lon="13.28318"><ele>727.0</ele><time>2026-05-02T15:51:51.859Z</time></trkpt><trkpt lat="42.153755" lon="13.28303"><ele>727.0</ele><time>2026-05-02T15:51:52.86Z</time></trkpt><trkpt lat="42.15386" lon="13.2828767"><ele>727.0</ele><time>2026-05-02T15:51:53.859Z</time></trkpt><trkpt lat="42.15397" lon="13.282735"><ele>727.0</ele><time>2026-05-02T15:51:54.86Z</time></trkpt><trkpt lat="42.15407" lon="13.2826"><ele>727.0</ele><time>2026-05-02T15:51:55.86Z</time></trkpt><trkpt lat="42.15417" lon="13.2824667"><ele>727.25</ele><time>2026-05-02T15:51:56.86Z</time></trkpt><trkpt lat="42.1542767" lon="13.2823283"><ele>727.5</ele><time>2026-05-02T15:51:57.86Z</time></trkpt><trkpt lat="42.1543833" lon="13.2821917"><ele>727.75</ele><time>2026-05-02T15:51:58.859Z</time></trkpt><trkpt lat="42.1544933" lon="13.2820683"><ele>728.0</ele><time>2026-05-02T15:51:59.859Z</time></trkpt><trkpt lat="42.15463" lon="13.2819583"><ele>728.3333333333333</ele><time>2026-05-02T15:52:00.86Z</time></trkpt><trkpt lat="42.1547683" lon="13.2818633"><ele>728.6666666666666</ele><time>2026-05-02T15:52:01.859Z</time></trkpt><trkpt lat="42.1549033" lon="13.2817717"><ele>729.0</ele><time>2026-05-02T15:52:02.86Z</time></trkpt><trkpt lat="42.15504" lon="13.2816767"><ele>729.3333333333334</ele><time>2026-05-02T15:52:03.859Z</time></trkpt><trkpt lat="42.1551733" lon="13.2815683"><ele>729.6666666666667</ele><time>2026-05-02T15:52:04.859Z</time></trkpt><trkpt lat="42.1553067" lon="13.2814583"><ele>730.0</ele><time>2026-05-02T15:52:05.859Z</time></trkpt><trkpt lat="42.15544" lon="13.2813433"><ele>730.0</ele><time>2026-05-02T15:52:06.859Z</time></trkpt><trkpt lat="42.15557" lon="13.28122"><ele>730.0</ele><time>2026-05-02T15:52:07.859Z</time></trkpt><trkpt lat="42.1557" lon="13.2811"><ele>730.0</ele><time>2026-05-02T15:52:08.859Z</time></trkpt><trkpt lat="42.1558317" lon="13.280985"><ele>731.3333333333334</ele><time>2026-05-02T15:52:09.859Z</time></trkpt><trkpt lat="42.1559617" lon="13.280875"><ele>732.6666666666666</ele><time>2026-05-02T15:52:10.86Z</time></trkpt><trkpt lat="42.1560983" lon="13.280765"><ele>734.0</ele><time>2026-05-02T15:52:11.86Z</time></trkpt><trkpt lat="42.1562417" lon="13.2806483"><ele>734.3333333333333</ele><time>2026-05-02T15:52:12.859Z</time></trkpt><trkpt lat="42.15638" lon="13.28054"><ele>734.6666666666666</ele><time>2026-05-02T15:52:13.859Z</time></trkpt><trkpt lat="42.1565167" lon="13.2804233"><ele>735.0</ele><time>2026-05-02T15:52:14.859Z</time></trkpt><trkpt lat="42.1566433" lon="13.2803017"><ele>736.0</ele><time>2026-05-02T15:52:15.86Z</time></trkpt><trkpt lat="42.15677" lon="13.2801883"><ele>737.0</ele><time>2026-05-02T15:52:16.859Z</time></trkpt><trkpt lat="42.1569067" lon="13.2800833"><ele>738.0</ele><time>2026-05-02T15:52:17.859Z</time></trkpt><trkpt lat="42.15705" lon="13.27999"><ele>738.0</ele><time>2026-05-02T15:52:18.859Z</time></trkpt><trkpt lat="42.157195" lon="13.27991"><ele>738.0</ele><time>2026-05-02T15:52:19.859Z</time></trkpt><trkpt lat="42.1573433" lon="13.27984"><ele>738.0</ele><time>2026-05-02T15:52:20.86Z</time></trkpt><trkpt lat="42.1574933" lon="13.2797733"><ele>738.3333333333334</ele><time>2026-05-02T15:52:21.859Z</time></trkpt><trkpt lat="42.1576417" lon="13.2797083"><ele>738.6666666666667</ele><time>2026-05-02T15:52:22.86Z</time></trkpt><trkpt lat="42.15779" lon="13.27965"><ele>739.0</ele><time>2026-05-02T15:52:23.86Z</time></trkpt><trkpt lat="42.1579417" lon="13.2796083"><ele>739.0</ele><time>2026-05-02T15:52:24.859Z</time></trkpt><trkpt lat="42.158095" lon="13.2795683"><ele>739.0</ele><time>2026-05-02T15:52:25.859Z</time></trkpt><trkpt lat="42.1582467" lon="13.2795333"><ele>739.0</ele><time>2026-05-02T15:52:26.859Z</time></trkpt><trkpt lat="42.158395" lon="13.279505"><ele>740.3333333333334</ele><time>2026-05-02T15:52:27.859Z</time></trkpt><trkpt lat="42.1585467" lon="13.27948"><ele>741.6666666666666</ele><time>2026-05-02T15:52:28.859Z</time></trkpt><trkpt lat="42.1587033" lon="13.279465"><ele>743.0</ele><time>2026-05-02T15:52:29.859Z</time></trkpt><trkpt lat="42.1588633" lon="13.279445"><ele>743.0</ele><time>2026-05-02T15:52:30.86Z</time></trkpt><trkpt lat="42.159015" lon="13.2794133"><ele>743.0</ele><time>2026-05-02T15:52:31.859Z</time></trkpt><trkpt lat="42.15917" lon="13.2793783"><ele>743.0</ele><time>2026-05-02T15:52:32.86Z</time></trkpt><trkpt lat="42.1593233" lon="13.2793367"><ele>744.6666666666666</ele><time>2026-05-02T15:52:33.859Z</time></trkpt><trkpt lat="42.1594783" lon="13.2792967"><ele>746.3333333333334</ele><time>2026-05-02T15:52:34.86Z</time></trkpt><trkpt lat="42.15963" lon="13.2792583"><ele>748.0</ele><time>2026-05-02T15:52:35.859Z</time></trkpt><trkpt lat="42.159785" lon="13.2792233"><ele>749.0</ele><time>2026-05-02T15:52:36.859Z</time></trkpt><trkpt lat="42.1599433" lon="13.27919"><ele>750.0</ele><time>2026-05-02T15:52:37.859Z</time></trkpt><trkpt lat="42.160095" lon="13.27915"><ele>751.0</ele><time>2026-05-02T15:52:38.859Z</time></trkpt><trkpt lat="42.160245" lon="13.2791083"><ele>751.0</ele><time>2026-05-02T15:52:39.859Z</time></trkpt><trkpt lat="42.1604" lon="13.279065"><ele>751.0</ele><time>2026-05-02T15:52:40.86Z</time></trkpt><trkpt lat="42.160555" lon="13.2790217"><ele>751.0</ele><time>2026-05-02T15:52:41.86Z</time></trkpt><trkpt lat="42.1607067" lon="13.278965"><ele>752.0</ele><time>2026-05-02T15:52:42.86Z</time></trkpt><trkpt lat="42.160855" lon="13.2789083"><ele>753.0</ele><time>2026-05-02T15:52:43.859Z</time></trkpt><trkpt lat="42.1610033" lon="13.27885"><ele>754.0</ele><time>2026-05-02T15:52:44.859Z</time></trkpt><trkpt lat="42.161155" lon="13.2788033"><ele>754.0</ele><time>2026-05-02T15:52:45.859Z</time></trkpt><trkpt lat="42.1613033" lon="13.2787517"><ele>754.0</ele><time>2026-05-02T15:52:46.86Z</time></trkpt><trkpt lat="42.1614517" lon="13.2787033"><ele>754.0</ele><time>2026-05-02T15:52:47.86Z</time></trkpt><trkpt lat="42.161605" lon="13.2786567"><ele>755.0</ele><time>2026-05-02T15:52:48.859Z</time></trkpt><trkpt lat="42.1617617" lon="13.27861"><ele>756.0</ele><time>2026-05-02T15:52:49.859Z</time></trkpt><trkpt lat="42.161915" lon="13.278565"><ele>757.0</ele><time>2026-05-02T15:52:50.859Z</time></trkpt><trkpt lat="42.16207" lon="13.2785167"><ele>757.0</ele><time>2026-05-02T15:52:51.859Z</time></trkpt><trkpt lat="42.1622233" lon="13.27846"><ele>757.0</ele><time>2026-05-02T15:52:52.86Z</time></trkpt><trkpt lat="42.1623783" lon="13.2784067"><ele>757.0</ele><time>2026-05-02T15:52:53.86Z</time></trkpt><trkpt lat="42.1625267" lon="13.278355"><ele>758.3333333333334</ele><time>2026-05-02T15:52:54.86Z</time></trkpt><trkpt lat="42.1626783" lon="13.2783067"><ele>759.6666666666666</ele><time>2026-05-02T15:52:55.859Z</time></trkpt><trkpt lat="42.16282" lon="13.2782583"><ele>761.0</ele><time>2026-05-02T15:52:56.86Z</time></trkpt><trkpt lat="42.1629667" lon="13.27821"><ele>761.0</ele><time>2026-05-02T15:52:57.859Z</time></trkpt><trkpt lat="42.1631133" lon="13.2781633"><ele>761.0</ele><time>2026-05-02T15:52:58.86Z</time></trkpt><trkpt lat="42.1632567" lon="13.2781183"><ele>761.0</ele><time>2026-05-02T15:52:59.859Z</time></trkpt><trkpt lat="42.1634047" lon="13.2780694"><ele>762.0</ele><time>2026-05-02T15:53:00.859Z</time></trkpt><trkpt lat="42.163541" lon="13.2780073"><ele>763.0</ele><time>2026-05-02T15:53:01.86Z</time></trkpt><trkpt lat="42.1636765" lon="13.2779266"><ele>764.0</ele><time>2026-05-02T15:53:02.86Z</time></trkpt><trkpt lat="42.1637956" lon="13.2778315"><ele>765.0</ele><time>2026-05-02T15:53:03.86Z</time></trkpt><trkpt lat="42.1639016" lon="13.2777371"><ele>765.0</ele><time>2026-05-02T15:53:04.859Z</time></trkpt><trkpt lat="42.1640016" lon="13.2776512"><ele>765.0</ele><time>2026-05-02T15:53:05.859Z</time></trkpt><trkpt lat="42.1640922" lon="13.2775805"><ele>765.0</ele><time>2026-05-02T15:53:06.859Z</time></trkpt><trkpt lat="42.1641897" lon="13.2775258"><ele>765.0</ele><time>2026-05-02T15:53:07.859Z</time></trkpt><trkpt lat="42.1642985" lon="13.2774949"><ele>765.0</ele><time>2026-05-02T15:53:08.86Z</time></trkpt><trkpt lat="42.1644129" lon="13.277471"><ele>765.0</ele><time>2026-05-02T15:53:09.859Z</time></trkpt><trkpt lat="42.1645347" lon="13.2774608"><ele>765.0</ele><time>2026-05-02T15:53:10.859Z</time></trkpt><trkpt lat="42.1646625" lon="13.277466"><ele>765.0</ele><time>2026-05-02T15:53:11.86Z</time></trkpt><trkpt lat="42.1647977" lon="13.2774777"><ele>765.0</ele><time>2026-05-02T15:53:12.859Z</time></trkpt><trkpt lat="42.1649281" lon="13.2774848"><ele>764.5</ele><time>2026-05-02T15:53:13.86Z</time></trkpt><trkpt lat="42.1650529" lon="13.2774794"><ele>764.0</ele><time>2026-05-02T15:53:14.86Z</time></trkpt><trkpt lat="42.1651753" lon="13.2774714"><ele>763.5</ele><time>2026-05-02T15:53:15.86Z</time></trkpt><trkpt lat="42.1652995" lon="13.2774578"><ele>763.0</ele><time>2026-05-02T15:53:16.859Z</time></trkpt><trkpt lat="42.1654188" lon="13.277451"><ele>763.0</ele><time>2026-05-02T15:53:17.86Z</time></trkpt><trkpt lat="42.1655345" lon="13.2774528"><ele>763.0</ele><time>2026-05-02T15:53:18.859Z</time></trkpt><trkpt lat="42.1656494" lon="13.2774607"><ele>763.0</ele><time>2026-05-02T15:53:19.86Z</time></trkpt><trkpt lat="42.1657653" lon="13.2774562"><ele>763.0</ele><time>2026-05-02T15:53:20.859Z</time></trkpt><trkpt lat="42.1658831" lon="13.2774368"><ele>762.5</ele><time>2026-05-02T15:53:21.859Z</time></trkpt><trkpt lat="42.1660049" lon="13.2774023"><ele>762.0</ele><time>2026-05-02T15:53:22.86Z</time></trkpt><trkpt lat="42.1661324" lon="13.2773516"><ele>761.5</ele><time>2026-05-02T15:53:23.86Z</time></trkpt><trkpt lat="42.1662635" lon="13.2772912"><ele>761.0</ele><time>2026-05-02T15:53:24.86Z</time></trkpt><trkpt lat="42.1663912" lon="13.2772346"><ele>760.8</ele><time>2026-05-02T15:53:25.86Z</time></trkpt><trkpt lat="42.1665069" lon="13.27718"><ele>760.5999999999999</ele><time>2026-05-02T15:53:26.86Z</time></trkpt><trkpt lat="42.1666105" lon="13.2771247"><ele>760.4</ele><time>2026-05-02T15:53:27.859Z</time></trkpt><trkpt lat="42.1667091" lon="13.2770662"><ele>760.2</ele><time>2026-05-02T15:53:28.859Z</time></trkpt><trkpt lat="42.1668043" lon="13.2770104"><ele>760.0</ele><time>2026-05-02T15:53:29.86Z</time></trkpt><trkpt lat="42.1669025" lon="13.2769652"><ele>761.0</ele><time>2026-05-02T15:53:30.859Z</time></trkpt><trkpt lat="42.16701" lon="13.2769261"><ele>762.0</ele><time>2026-05-02T15:53:31.859Z</time></trkpt><trkpt lat="42.1671041" lon="13.2768997"><ele>763.0</ele><time>2026-05-02T15:53:32.86Z</time></trkpt><trkpt lat="42.1671866" lon="13.2768935"><ele>764.0</ele><time>2026-05-02T15:53:33.86Z</time></trkpt><trkpt lat="42.1672552" lon="13.2768973"><ele>765.0</ele><time>2026-05-02T15:53:34.859Z</time></trkpt><trkpt lat="42.1673269" lon="13.276903"><ele>766.0</ele><time>2026-05-02T15:53:35.86Z</time></trkpt><trkpt lat="42.1674213" lon="13.2769024"><ele>768.1999999999999</ele><time>2026-05-02T15:53:37.859Z</time></trkpt><trkpt lat="42.1674851" lon="13.2768482"><ele>770.4</ele><time>2026-05-02T15:53:40.859Z</time></trkpt><trkpt lat="42.1675254" lon="13.276753"><ele>772.6</ele><time>2026-05-02T15:53:43.86Z</time></trkpt><trkpt lat="42.1675569" lon="13.2766568"><ele>774.8</ele><time>2026-05-02T15:53:45.859Z</time></trkpt><trkpt lat="42.1675633" lon="13.27648"><ele>777.0</ele><time>2026-05-02T15:53:47.859Z</time></trkpt><trkpt lat="42.1675933" lon="13.2763717"><ele>777.8333333333334</ele><time>2026-05-02T15:53:48.859Z</time></trkpt><trkpt lat="42.167645" lon="13.276305"><ele>778.6666666666667</ele><time>2026-05-02T15:53:49.859Z</time></trkpt><trkpt lat="42.1677017" lon="13.27625"><ele>779.5</ele><time>2026-05-02T15:53:50.859Z</time></trkpt><trkpt lat="42.167765" lon="13.2762167"><ele>780.3333333333334</ele><time>2026-05-02T15:53:51.859Z</time></trkpt><trkpt lat="42.16789" lon="13.2762083"><ele>781.1666666666667</ele><time>2026-05-02T15:53:53.86Z</time></trkpt><trkpt lat="42.1679633" lon="13.27623"><ele>782.0</ele><time>2026-05-02T15:53:54.859Z</time></trkpt><trkpt lat="42.1680433" lon="13.27626"><ele>782.0</ele><time>2026-05-02T15:53:55.859Z</time></trkpt><trkpt lat="42.1681217" lon="13.2762833"><ele>782.0</ele><time>2026-05-02T15:53:56.86Z</time></trkpt><trkpt lat="42.1682083" lon="13.2762967"><ele>782.0</ele><time>2026-05-02T15:53:57.859Z</time></trkpt><trkpt lat="42.1682983" lon="13.2762983"><ele>782.0</ele><time>2026-05-02T15:53:58.86Z</time></trkpt><trkpt lat="42.1684" lon="13.276285"><ele>782.0</ele><time>2026-05-02T15:53:59.859Z</time></trkpt><trkpt lat="42.1685083" lon="13.2762633"><ele>782.0</ele><time>2026-05-02T15:54:00.859Z</time></trkpt><trkpt lat="42.1686317" lon="13.2762333"><ele>782.0</ele><time>2026-05-02T15:54:01.86Z</time></trkpt><trkpt lat="42.168755" lon="13.2762"><ele>782.0</ele><time>2026-05-02T15:54:02.859Z</time></trkpt><trkpt lat="42.1688883" lon="13.2761617"><ele>782.0</ele><time>2026-05-02T15:54:03.86Z</time></trkpt><trkpt lat="42.169028" lon="13.2761185"><ele>783.75</ele><time>2026-05-02T15:54:04.859Z</time></trkpt><trkpt lat="42.1691707" lon="13.276073"><ele>785.5</ele><time>2026-05-02T15:54:05.86Z</time></trkpt><trkpt lat="42.1693064" lon="13.2760327"><ele>787.25</ele><time>2026-05-02T15:54:06.86Z</time></trkpt><trkpt lat="42.1694413" lon="13.2759925"><ele>789.0</ele><time>2026-05-02T15:54:07.86Z</time></trkpt><trkpt lat="42.1695714" lon="13.2759515"><ele>789.0</ele><time>2026-05-02T15:54:08.86Z</time></trkpt><trkpt lat="42.1696973" lon="13.2759114"><ele>789.0</ele><time>2026-05-02T15:54:09.859Z</time></trkpt><trkpt lat="42.1698256" lon="13.2758693"><ele>789.0</ele><time>2026-05-02T15:54:10.86Z</time></trkpt><trkpt lat="42.1699514" lon="13.275828"><ele>789.0</ele><time>2026-05-02T15:54:11.859Z</time></trkpt><trkpt lat="42.170078" lon="13.2757879"><ele>790.0</ele><time>2026-05-02T15:54:12.86Z</time></trkpt><trkpt lat="42.1702007" lon="13.2757513"><ele>791.0</ele><time>2026-05-02T15:54:13.859Z</time></trkpt><trkpt lat="42.1703149" lon="13.2757278"><ele>792.0</ele><time>2026-05-02T15:54:14.86Z</time></trkpt><trkpt lat="42.1704221" lon="13.2757135"><ele>793.0</ele><time>2026-05-02T15:54:15.859Z</time></trkpt><trkpt lat="42.1705177" lon="13.2757019"><ele>794.0</ele><time>2026-05-02T15:54:16.859Z</time></trkpt><trkpt lat="42.1706027" lon="13.2756937"><ele>794.0</ele><time>2026-05-02T15:54:17.859Z</time></trkpt><trkpt lat="42.1706718" lon="13.2756854"><ele>794.0</ele><time>2026-05-02T15:54:18.86Z</time></trkpt><trkpt lat="42.1707563" lon="13.2756629"><ele>794.0</ele><time>2026-05-02T15:54:20.859Z</time></trkpt><trkpt lat="42.1708505" lon="13.2756251"><ele>794.0</ele><time>2026-05-02T15:54:23.86Z</time></trkpt><trkpt lat="42.1709854" lon="13.2756143"><ele>794.0</ele><time>2026-05-02T15:54:25.859Z</time></trkpt><trkpt lat="42.1710661" lon="13.2756199"><ele>795.2</ele><time>2026-05-02T15:54:26.86Z</time></trkpt><trkpt lat="42.1711507" lon="13.2756305"><ele>796.4000000000001</ele><time>2026-05-02T15:54:27.86Z</time></trkpt><trkpt lat="42.171237" lon="13.2756488"><ele>797.6</ele><time>2026-05-02T15:54:28.859Z</time></trkpt><trkpt lat="42.1713216" lon="13.2756638"><ele>798.8</ele><time>2026-05-02T15:54:29.86Z</time></trkpt><trkpt lat="42.1714142" lon="13.2756819"><ele>800.0</ele><time>2026-05-02T15:54:30.859Z</time></trkpt><trkpt lat="42.1715172" lon="13.2757103"><ele>800.25</ele><time>2026-05-02T15:54:31.859Z</time></trkpt><trkpt lat="42.1716235" lon="13.2757626"><ele>800.5</ele><time>2026-05-02T15:54:32.859Z</time></trkpt><trkpt lat="42.1717338" lon="13.275839"><ele>800.75</ele><time>2026-05-02T15:54:33.859Z</time></trkpt><trkpt lat="42.1718559" lon="13.2759238"><ele>801.0</ele><time>2026-05-02T15:54:34.86Z</time></trkpt><trkpt lat="42.1719884" lon="13.275988"><ele>801.0</ele><time>2026-05-02T15:54:35.86Z</time></trkpt><trkpt lat="42.1721339" lon="13.2760434"><ele>801.0</ele><time>2026-05-02T15:54:36.859Z</time></trkpt><trkpt lat="42.1722779" lon="13.2761031"><ele>801.0</ele><time>2026-05-02T15:54:37.86Z</time></trkpt><trkpt lat="42.1724212" lon="13.2761638"><ele>801.25</ele><time>2026-05-02T15:54:38.859Z</time></trkpt><trkpt lat="42.1725591" lon="13.2762216"><ele>801.5</ele><time>2026-05-02T15:54:39.86Z</time></trkpt><trkpt lat="42.1726878" lon="13.2762741"><ele>801.75</ele><time>2026-05-02T15:54:40.859Z</time></trkpt><trkpt lat="42.1728078" lon="13.2763272"><ele>802.0</ele><time>2026-05-02T15:54:41.86Z</time></trkpt><trkpt lat="42.1729257" lon="13.2763684"><ele>802.0</ele><time>2026-05-02T15:54:42.859Z</time></trkpt><trkpt lat="42.1730338" lon="13.276387"><ele>802.0</ele><time>2026-05-02T15:54:43.859Z</time></trkpt><trkpt lat="42.1731303" lon="13.2763967"><ele>802.0</ele><time>2026-05-02T15:54:44.86Z</time></trkpt><trkpt lat="42.1732183" lon="13.2763891"><ele>802.0</ele><time>2026-05-02T15:54:45.859Z</time></trkpt><trkpt lat="42.1733007" lon="13.2763615"><ele>802.0</ele><time>2026-05-02T15:54:46.859Z</time></trkpt><trkpt lat="42.1733809" lon="13.276311"><ele>804.0</ele><time>2026-05-02T15:54:47.859Z</time></trkpt><trkpt lat="42.1734674" lon="13.2762593"><ele>806.0</ele><time>2026-05-02T15:54:48.86Z</time></trkpt><trkpt lat="42.173571" lon="13.2762163"><ele>808.0</ele><time>2026-05-02T15:54:49.859Z</time></trkpt><trkpt lat="42.1736902" lon="13.2761817"><ele>810.0</ele><time>2026-05-02T15:54:50.859Z</time></trkpt><trkpt lat="42.1738108" lon="13.276142"><ele>812.0</ele><time>2026-05-02T15:54:51.859Z</time></trkpt><trkpt lat="42.1739131" lon="13.2761111"><ele>812.0000000000001</ele><time>2026-05-02T15:54:52.86Z</time></trkpt><trkpt lat="42.1739973" lon="13.2760981"><ele>812.0</ele><time>2026-05-02T15:54:53.859Z</time></trkpt><trkpt lat="42.1740661" lon="13.2760954"><ele>812.0</ele><time>2026-05-02T15:54:54.86Z</time></trkpt><trkpt lat="42.1741417" lon="13.2761222"><ele>812.0</ele><time>2026-05-02T15:54:56.859Z</time></trkpt><trkpt lat="42.1741956" lon="13.2762162"><ele>812.0000000000001</ele><time>2026-05-02T15:54:59.859Z</time></trkpt><trkpt lat="42.1742528" lon="13.276283"><ele>812.0</ele><time>2026-05-02T15:55:01.86Z</time></trkpt><trkpt lat="42.1743401" lon="13.2763435"><ele>813.8333333333334</ele><time>2026-05-02T15:55:03.859Z</time></trkpt><trkpt lat="42.1744406" lon="13.2764255"><ele>815.6666666666667</ele><time>2026-05-02T15:55:05.86Z</time></trkpt><trkpt lat="42.1745057" lon="13.2764775"><ele>817.5</ele><time>2026-05-02T15:55:06.859Z</time></trkpt><trkpt lat="42.174579" lon="13.2765338"><ele>819.3333333333333</ele><time>2026-05-02T15:55:07.86Z</time></trkpt><trkpt lat="42.1746575" lon="13.2765834"><ele>821.1666666666666</ele><time>2026-05-02T15:55:08.86Z</time></trkpt><trkpt lat="42.1747393" lon="13.2766158"><ele>823.0</ele><time>2026-05-02T15:55:09.859Z</time></trkpt><trkpt lat="42.174815" lon="13.2766341"><ele>823.9999999999999</ele><time>2026-05-02T15:55:10.86Z</time></trkpt><trkpt lat="42.1748911" lon="13.2766352"><ele>825.0</ele><time>2026-05-02T15:55:11.859Z</time></trkpt><trkpt lat="42.1749679" lon="13.2766113"><ele>826.0</ele><time>2026-05-02T15:55:12.86Z</time></trkpt><trkpt lat="42.1750445" lon="13.2765726"><ele>827.0</ele><time>2026-05-02T15:55:13.859Z</time></trkpt><trkpt lat="42.1751103" lon="13.2765113"><ele>827.9999999999999</ele><time>2026-05-02T15:55:14.859Z</time></trkpt><trkpt lat="42.1751705" lon="13.276443"><ele>829.0</ele><time>2026-05-02T15:55:15.86Z</time></trkpt><trkpt lat="42.1752259" lon="13.2763655"><ele>829.1666666666666</ele><time>2026-05-02T15:55:16.86Z</time></trkpt><trkpt lat="42.1752731" lon="13.2762876"><ele>829.3333333333333</ele><time>2026-05-02T15:55:17.859Z</time></trkpt><trkpt lat="42.175315" lon="13.2762071"><ele>829.5</ele><time>2026-05-02T15:55:18.859Z</time></trkpt><trkpt lat="42.1753523" lon="13.2761151"><ele>829.6666666666667</ele><time>2026-05-02T15:55:19.86Z</time></trkpt><trkpt lat="42.1753884" lon="13.2760236"><ele>829.8333333333334</ele><time>2026-05-02T15:55:20.859Z</time></trkpt><trkpt lat="42.1754268" lon="13.2759414"><ele>830.0</ele><time>2026-05-02T15:55:21.859Z</time></trkpt><trkpt lat="42.1754727" lon="13.2758257"><ele>830.0</ele><time>2026-05-02T15:55:23.859Z</time></trkpt><trkpt lat="42.1755168" lon="13.2757248"><ele>830.0</ele><time>2026-05-02T15:55:25.86Z</time></trkpt><trkpt lat="42.175593" lon="13.2755791"><ele>830.0</ele><time>2026-05-02T15:55:27.86Z</time></trkpt><trkpt lat="42.1756413" lon="13.2755057"><ele>830.0</ele><time>2026-05-02T15:55:28.86Z</time></trkpt><trkpt lat="42.1757063" lon="13.2754399"><ele>830.0</ele><time>2026-05-02T15:55:29.86Z</time></trkpt><trkpt lat="42.1757867" lon="13.2753922"><ele>830.0</ele><time>2026-05-02T15:55:30.86Z</time></trkpt><trkpt lat="42.1758852" lon="13.2753626"><ele>830.0</ele><time>2026-05-02T15:55:31.859Z</time></trkpt><trkpt lat="42.1759886" lon="13.2753346"><ele>830.0</ele><time>2026-05-02T15:55:32.859Z</time></trkpt><trkpt lat="42.1760982" lon="13.2753065"><ele>830.0</ele><time>2026-05-02T15:55:33.86Z</time></trkpt><trkpt lat="42.176207" lon="13.2752785"><ele>830.0</ele><time>2026-05-02T15:55:34.859Z</time></trkpt><trkpt lat="42.1763108" lon="13.2752522"><ele>830.0</ele><time>2026-05-02T15:55:35.859Z</time></trkpt><trkpt lat="42.1764081" lon="13.2752263"><ele>830.0</ele><time>2026-05-02T15:55:36.86Z</time></trkpt><trkpt lat="42.1765059" lon="13.2751986"><ele>830.0</ele><time>2026-05-02T15:55:37.86Z</time></trkpt><trkpt lat="42.1766011" lon="13.2751677"><ele>830.0</ele><time>2026-05-02T15:55:38.859Z</time></trkpt><trkpt lat="42.1766982" lon="13.2751375"><ele>830.0</ele><time>2026-05-02T15:55:39.86Z</time></trkpt><trkpt lat="42.1767961" lon="13.2751081"><ele>828.4</ele><time>2026-05-02T15:55:40.86Z</time></trkpt><trkpt lat="42.1768926" lon="13.2750813"><ele>826.8</ele><time>2026-05-02T15:55:41.859Z</time></trkpt><trkpt lat="42.1769768" lon="13.2750509"><ele>825.2</ele><time>2026-05-02T15:55:42.859Z</time></trkpt><trkpt lat="42.1770511" lon="13.2750236"><ele>823.6</ele><time>2026-05-02T15:55:43.859Z</time></trkpt><trkpt lat="42.1771607" lon="13.2749916"><ele>822.0</ele><time>2026-05-02T15:55:45.86Z</time></trkpt><trkpt lat="42.1772424" lon="13.2750059"><ele>822.0</ele><time>2026-05-02T15:55:47.86Z</time></trkpt><trkpt lat="42.1773291" lon="13.2750424"><ele>822.0</ele><time>2026-05-02T15:55:49.859Z</time></trkpt><trkpt lat="42.1774199" lon="13.2750579"><ele>822.0</ele><time>2026-05-02T15:55:51.86Z</time></trkpt><trkpt lat="42.1775025" lon="13.2750666"><ele>822.0</ele><time>2026-05-02T15:55:53.86Z</time></trkpt><trkpt lat="42.1775398" lon="13.2751628"><ele>822.0</ele><time>2026-05-02T15:55:55.859Z</time></trkpt><trkpt lat="42.1775319" lon="13.2753418"><ele>821.6666666666666</ele><time>2026-05-02T15:55:57.859Z</time></trkpt><trkpt lat="42.1775235" lon="13.275446"><ele>821.3333333333333</ele><time>2026-05-02T15:55:58.859Z</time></trkpt><trkpt lat="42.1775228" lon="13.2755614"><ele>821.0</ele><time>2026-05-02T15:55:59.859Z</time></trkpt><trkpt lat="42.1775315" lon="13.2756709"><ele>820.6666666666666</ele><time>2026-05-02T15:56:00.86Z</time></trkpt><trkpt lat="42.1775501" lon="13.2757613"><ele>820.3333333333333</ele><time>2026-05-02T15:56:01.859Z</time></trkpt><trkpt lat="42.1775981" lon="13.2758877"><ele>820.0</ele><time>2026-05-02T15:56:03.859Z</time></trkpt><trkpt lat="42.1776467" lon="13.2760317"><ele>819.9999999999999</ele><time>2026-05-02T15:56:05.86Z</time></trkpt><trkpt lat="42.1776633" lon="13.2761267"><ele>820.0</ele><time>2026-05-02T15:56:06.859Z</time></trkpt><trkpt lat="42.1776717" lon="13.2762333"><ele>820.0</ele><time>2026-05-02T15:56:07.86Z</time></trkpt><trkpt lat="42.1776717" lon="13.2763367"><ele>820.0</ele><time>2026-05-02T15:56:08.86Z</time></trkpt><trkpt lat="42.1776667" lon="13.2764517"><ele>819.9999999999999</ele><time>2026-05-02T15:56:09.859Z</time></trkpt><trkpt lat="42.1776483" lon="13.2765717"><ele>820.0</ele><time>2026-05-02T15:56:10.859Z</time></trkpt><trkpt lat="42.17762" lon="13.2766983"><ele>820.4</ele><time>2026-05-02T15:56:11.859Z</time></trkpt><trkpt lat="42.1776033" lon="13.2768333"><ele>820.8</ele><time>2026-05-02T15:56:12.86Z</time></trkpt><trkpt lat="42.1775833" lon="13.27698"><ele>821.2</ele><time>2026-05-02T15:56:13.859Z</time></trkpt><trkpt lat="42.1775717" lon="13.2771333"><ele>821.6</ele><time>2026-05-02T15:56:14.859Z</time></trkpt><trkpt lat="42.177565" lon="13.2772917"><ele>822.0</ele><time>2026-05-02T15:56:15.859Z</time></trkpt><trkpt lat="42.1775617" lon="13.27745"><ele>822.4000000000001</ele><time>2026-05-02T15:56:16.86Z</time></trkpt><trkpt lat="42.1775617" lon="13.2776017"><ele>822.8000000000001</ele><time>2026-05-02T15:56:17.86Z</time></trkpt><trkpt lat="42.17755" lon="13.2777533"><ele>823.2</ele><time>2026-05-02T15:56:18.86Z</time></trkpt><trkpt lat="42.1775333" lon="13.2778883"><ele>823.6</ele><time>2026-05-02T15:56:19.859Z</time></trkpt><trkpt lat="42.1775017" lon="13.2780267"><ele>824.0</ele><time>2026-05-02T15:56:20.859Z</time></trkpt><trkpt lat="42.1774617" lon="13.2781433"><ele>824.4000000000001</ele><time>2026-05-02T15:56:21.86Z</time></trkpt><trkpt lat="42.177405" lon="13.27825"><ele>824.8</ele><time>2026-05-02T15:56:22.859Z</time></trkpt><trkpt lat="42.1773367" lon="13.278345"><ele>825.2</ele><time>2026-05-02T15:56:23.86Z</time></trkpt><trkpt lat="42.1772683" lon="13.2784267"><ele>825.5999999999999</ele><time>2026-05-02T15:56:24.859Z</time></trkpt><trkpt lat="42.1772067" lon="13.2785183"><ele>826.0</ele><time>2026-05-02T15:56:25.86Z</time></trkpt><trkpt lat="42.17716" lon="13.2786233"><ele>827.0</ele><time>2026-05-02T15:56:26.859Z</time></trkpt><trkpt lat="42.1771183" lon="13.2787167"><ele>828.0</ele><time>2026-05-02T15:56:27.86Z</time></trkpt><trkpt lat="42.1770733" lon="13.2788017"><ele>829.0</ele><time>2026-05-02T15:56:28.86Z</time></trkpt><trkpt lat="42.1770233" lon="13.2788683"><ele>830.0</ele><time>2026-05-02T15:56:29.859Z</time></trkpt><trkpt lat="42.1769767" lon="13.27893"><ele>831.0</ele><time>2026-05-02T15:56:30.859Z</time></trkpt><trkpt lat="42.1769233" lon="13.279015"><ele>832.0</ele><time>2026-05-02T15:56:32.859Z</time></trkpt><trkpt lat="42.1769433" lon="13.2791083"><ele>833.0</ele><time>2026-05-02T15:56:34.859Z</time></trkpt><trkpt lat="42.1770067" lon="13.2792333"><ele>833.2857142857143</ele><time>2026-05-02T15:56:36.859Z</time></trkpt><trkpt lat="42.1770433" lon="13.2793117"><ele>833.5714285714286</ele><time>2026-05-02T15:56:37.859Z</time></trkpt><trkpt lat="42.17707" lon="13.27939"><ele>833.8571428571429</ele><time>2026-05-02T15:56:38.859Z</time></trkpt><trkpt lat="42.1770967" lon="13.27948"><ele>834.1428571428571</ele><time>2026-05-02T15:56:39.859Z</time></trkpt><trkpt lat="42.177125" lon="13.2795783"><ele>834.4285714285714</ele><time>2026-05-02T15:56:40.859Z</time></trkpt><trkpt lat="42.1771633" lon="13.2796767"><ele>834.7142857142858</ele><time>2026-05-02T15:56:41.86Z</time></trkpt><trkpt lat="42.1772133" lon="13.2797683"><ele>835.0</ele><time>2026-05-02T15:56:42.859Z</time></trkpt><trkpt lat="42.1772633" lon="13.2798517"><ele>835.2</ele><time>2026-05-02T15:56:43.859Z</time></trkpt><trkpt lat="42.1773233" lon="13.2799567"><ele>835.4</ele><time>2026-05-02T15:56:44.859Z</time></trkpt><trkpt lat="42.1773917" lon="13.2800583"><ele>835.5999999999999</ele><time>2026-05-02T15:56:45.859Z</time></trkpt><trkpt lat="42.1774567" lon="13.2801817"><ele>835.8</ele><time>2026-05-02T15:56:46.859Z</time></trkpt><trkpt lat="42.1775183" lon="13.2803067"><ele>836.0</ele><time>2026-05-02T15:56:47.859Z</time></trkpt><trkpt lat="42.1775867" lon="13.2804317"><ele>836.0</ele><time>2026-05-02T15:56:48.859Z</time></trkpt><trkpt lat="42.1776583" lon="13.2805567"><ele>836.0</ele><time>2026-05-02T15:56:49.86Z</time></trkpt><trkpt lat="42.1777283" lon="13.2806733"><ele>836.0</ele><time>2026-05-02T15:56:50.86Z</time></trkpt><trkpt lat="42.177795" lon="13.2808033"><ele>836.0</ele><time>2026-05-02T15:56:51.859Z</time></trkpt><trkpt lat="42.177855" lon="13.2809283"><ele>836.5999999999999</ele><time>2026-05-02T15:56:52.859Z</time></trkpt><trkpt lat="42.1779167" lon="13.2810533"><ele>837.2</ele><time>2026-05-02T15:56:53.86Z</time></trkpt><trkpt lat="42.177975" lon="13.2811717"><ele>837.8</ele><time>2026-05-02T15:56:54.859Z</time></trkpt><trkpt lat="42.1780217" lon="13.2813"><ele>838.4000000000001</ele><time>2026-05-02T15:56:55.859Z</time></trkpt><trkpt lat="42.1780717" lon="13.281415"><ele>839.0</ele><time>2026-05-02T15:56:56.86Z</time></trkpt><trkpt lat="42.178135" lon="13.2815033"><ele>839.4000000000001</ele><time>2026-05-02T15:56:57.859Z</time></trkpt><trkpt lat="42.1782167" lon="13.2815917"><ele>839.8</ele><time>2026-05-02T15:56:58.86Z</time></trkpt><trkpt lat="42.1783083" lon="13.2816717"><ele>840.2</ele><time>2026-05-02T15:56:59.86Z</time></trkpt><trkpt lat="42.178395" lon="13.2817367"><ele>840.5999999999999</ele><time>2026-05-02T15:57:00.86Z</time></trkpt><trkpt lat="42.178475" lon="13.2817883"><ele>841.0</ele><time>2026-05-02T15:57:01.859Z</time></trkpt><trkpt lat="42.1785517" lon="13.2818117"><ele>841.0</ele><time>2026-05-02T15:57:02.86Z</time></trkpt><trkpt lat="42.1786233" lon="13.2818117"><ele>841.0</ele><time>2026-05-02T15:57:03.859Z</time></trkpt><trkpt lat="42.17869" lon="13.2817967"><ele>841.0</ele><time>2026-05-02T15:57:04.859Z</time></trkpt><trkpt lat="42.1787567" lon="13.2817667"><ele>841.0</ele><time>2026-05-02T15:57:05.86Z</time></trkpt><trkpt lat="42.178815" lon="13.281725"><ele>841.0</ele><time>2026-05-02T15:57:06.859Z</time></trkpt><trkpt lat="42.1788683" lon="13.2816733"><ele>841.0</ele><time>2026-05-02T15:57:07.859Z</time></trkpt><trkpt lat="42.17892" lon="13.28162"><ele>841.0</ele><time>2026-05-02T15:57:08.859Z</time></trkpt><trkpt lat="42.1790217" lon="13.2815483"><ele>839.8333333333333</ele><time>2026-05-02T15:57:10.859Z</time></trkpt><trkpt lat="42.1790867" lon="13.28154"><ele>838.6666666666666</ele><time>2026-05-02T15:57:12.86Z</time></trkpt><trkpt lat="42.1791567" lon="13.2815783"><ele>837.5</ele><time>2026-05-02T15:57:14.859Z</time></trkpt><trkpt lat="42.1792217" lon="13.2816933"><ele>836.3333333333333</ele><time>2026-05-02T15:57:16.86Z</time></trkpt><trkpt lat="42.1792783" lon="13.2817883"><ele>835.1666666666666</ele><time>2026-05-02T15:57:18.859Z</time></trkpt><trkpt lat="42.179365" lon="13.281785"><ele>834.0</ele><time>2026-05-02T15:57:21.86Z</time></trkpt><trkpt lat="42.1794217" lon="13.2816683"><ele>834.0</ele><time>2026-05-02T15:57:23.859Z</time></trkpt><trkpt lat="42.17946" lon="13.2815783"><ele>834.0</ele><time>2026-05-02T15:57:24.859Z</time></trkpt><trkpt lat="42.17951" lon="13.28148"><ele>834.0</ele><time>2026-05-02T15:57:25.86Z</time></trkpt><trkpt lat="42.179565" lon="13.28139"><ele>834.0</ele><time>2026-05-02T15:57:26.859Z</time></trkpt><trkpt lat="42.1796217" lon="13.2813"><ele>834.0</ele><time>2026-05-02T15:57:27.86Z</time></trkpt><trkpt lat="42.179675" lon="13.2811883"><ele>834.0</ele><time>2026-05-02T15:57:28.86Z</time></trkpt><trkpt lat="42.1797233" lon="13.281055"><ele>833.0</ele><time>2026-05-02T15:57:29.859Z</time></trkpt><trkpt lat="42.17978" lon="13.2809167"><ele>832.0</ele><time>2026-05-02T15:57:30.86Z</time></trkpt><trkpt lat="42.1798466" lon="13.2807705"><ele>831.0</ele><time>2026-05-02T15:57:31.86Z</time></trkpt><trkpt lat="42.1799223" lon="13.280617"><ele>830.0</ele><time>2026-05-02T15:57:32.859Z</time></trkpt><trkpt lat="42.1800022" lon="13.2804664"><ele>828.75</ele><time>2026-05-02T15:57:33.859Z</time></trkpt><trkpt lat="42.1800842" lon="13.2803201"><ele>827.5</ele><time>2026-05-02T15:57:34.859Z</time></trkpt><trkpt lat="42.1801665" lon="13.2801902"><ele>826.25</ele><time>2026-05-02T15:57:35.86Z</time></trkpt><trkpt lat="42.1802583" lon="13.2800665"><ele>825.0</ele><time>2026-05-02T15:57:36.859Z</time></trkpt><trkpt lat="42.180361" lon="13.2799562"><ele>825.0</ele><time>2026-05-02T15:57:37.859Z</time></trkpt><trkpt lat="42.1804687" lon="13.2798527"><ele>825.0</ele><time>2026-05-02T15:57:38.859Z</time></trkpt><trkpt lat="42.1805756" lon="13.2797437"><ele>825.0</ele><time>2026-05-02T15:57:39.86Z</time></trkpt><trkpt lat="42.1806555" lon="13.2796287"><ele>825.0</ele><time>2026-05-02T15:57:40.859Z</time></trkpt><trkpt lat="42.1806964" lon="13.2795147"><ele>824.2</ele><time>2026-05-02T15:57:41.86Z</time></trkpt><trkpt lat="42.180701" lon="13.2793873"><ele>823.4</ele><time>2026-05-02T15:57:42.859Z</time></trkpt><trkpt lat="42.1806731" lon="13.2792527"><ele>822.5999999999999</ele><time>2026-05-02T15:57:43.86Z</time></trkpt><trkpt lat="42.1806319" lon="13.2791152"><ele>821.8</ele><time>2026-05-02T15:57:44.86Z</time></trkpt><trkpt lat="42.180593" lon="13.2789645"><ele>821.0</ele><time>2026-05-02T15:57:45.86Z</time></trkpt><trkpt lat="42.1805736" lon="13.2788022"><ele>820.5</ele><time>2026-05-02T15:57:46.86Z</time></trkpt><trkpt lat="42.1805793" lon="13.2786287"><ele>820.0</ele><time>2026-05-02T15:57:47.859Z</time></trkpt><trkpt lat="42.1806029" lon="13.2784481"><ele>819.5</ele><time>2026-05-02T15:57:48.86Z</time></trkpt><trkpt lat="42.18063" lon="13.2782628"><ele>819.0</ele><time>2026-05-02T15:57:49.859Z</time></trkpt><trkpt lat="42.1806581" lon="13.2780776"><ele>818.0</ele><time>2026-05-02T15:57:50.859Z</time></trkpt><trkpt lat="42.1806852" lon="13.2778925"><ele>817.0</ele><time>2026-05-02T15:57:51.86Z</time></trkpt><trkpt lat="42.180712" lon="13.2777085"><ele>816.0</ele><time>2026-05-02T15:57:52.86Z</time></trkpt><trkpt lat="42.1807365" lon="13.2775244"><ele>815.0</ele><time>2026-05-02T15:57:53.859Z</time></trkpt><trkpt lat="42.1807589" lon="13.2773373"><ele>814.5</ele><time>2026-05-02T15:57:54.859Z</time></trkpt><trkpt lat="42.1807826" lon="13.2771459"><ele>814.0</ele><time>2026-05-02T15:57:55.86Z</time></trkpt><trkpt lat="42.1808126" lon="13.2769556"><ele>813.5</ele><time>2026-05-02T15:57:56.859Z</time></trkpt><trkpt lat="42.1808453" lon="13.2767667"><ele>813.0</ele><time>2026-05-02T15:57:57.859Z</time></trkpt><trkpt lat="42.1808793" lon="13.2765801"><ele>812.3333333333333</ele><time>2026-05-02T15:57:58.859Z</time></trkpt><trkpt lat="42.1809099" lon="13.2763891"><ele>811.6666666666666</ele><time>2026-05-02T15:57:59.86Z</time></trkpt><trkpt lat="42.1809385" lon="13.2761848"><ele>811.0</ele><time>2026-05-02T15:58:00.859Z</time></trkpt><trkpt lat="42.1809682" lon="13.2759768"><ele>811.0</ele><time>2026-05-02T15:58:01.859Z</time></trkpt><trkpt lat="42.1810051" lon="13.2757655"><ele>811.0</ele><time>2026-05-02T15:58:02.86Z</time></trkpt><trkpt lat="42.1810467" lon="13.2755609"><ele>811.0</ele><time>2026-05-02T15:58:03.86Z</time></trkpt><trkpt lat="42.1810909" lon="13.2753715"><ele>810.5999999999999</ele><time>2026-05-02T15:58:04.86Z</time></trkpt><trkpt lat="42.1811304" lon="13.2751949"><ele>810.2</ele><time>2026-05-02T15:58:05.859Z</time></trkpt><trkpt lat="42.1811621" lon="13.2750399"><ele>809.8</ele><time>2026-05-02T15:58:06.86Z</time></trkpt><trkpt lat="42.1811862" lon="13.2749044"><ele>809.4000000000001</ele><time>2026-05-02T15:58:07.859Z</time></trkpt><trkpt lat="42.1812075" lon="13.2747877"><ele>809.0</ele><time>2026-05-02T15:58:08.859Z</time></trkpt><trkpt lat="42.1812296" lon="13.2746821"><ele>808.3333333333334</ele><time>2026-05-02T15:58:09.859Z</time></trkpt><trkpt lat="42.1812516" lon="13.2745775"><ele>807.6666666666667</ele><time>2026-05-02T15:58:10.86Z</time></trkpt><trkpt lat="42.181279" lon="13.2744732"><ele>807.0</ele><time>2026-05-02T15:58:11.859Z</time></trkpt><trkpt lat="42.1813103" lon="13.2743696"><ele>806.3333333333333</ele><time>2026-05-02T15:58:12.86Z</time></trkpt><trkpt lat="42.1813403" lon="13.2742698"><ele>805.6666666666666</ele><time>2026-05-02T15:58:13.86Z</time></trkpt><trkpt lat="42.1813688" lon="13.2741747"><ele>805.0</ele><time>2026-05-02T15:58:14.859Z</time></trkpt><trkpt lat="42.1813931" lon="13.2740856"><ele>805.0</ele><time>2026-05-02T15:58:15.86Z</time></trkpt><trkpt lat="42.1814217" lon="13.2739561"><ele>805.0</ele><time>2026-05-02T15:58:17.859Z</time></trkpt><trkpt lat="42.18143" lon="13.2738417"><ele>805.0</ele><time>2026-05-02T15:58:31.859Z</time></trkpt><trkpt lat="42.18147" lon="13.2737317"><ele>805.0</ele><time>2026-05-02T15:58:33.859Z</time></trkpt><trkpt lat="42.181575" lon="13.2736367"><ele>805.0</ele><time>2026-05-02T15:58:35.86Z</time></trkpt><trkpt lat="42.1816417" lon="13.2735783"><ele>804.6</ele><time>2026-05-02T15:58:36.859Z</time></trkpt><trkpt lat="42.1817167" lon="13.2734933"><ele>804.2</ele><time>2026-05-02T15:58:37.859Z</time></trkpt><trkpt lat="42.1817867" lon="13.2733967"><ele>803.8</ele><time>2026-05-02T15:58:38.86Z</time></trkpt><trkpt lat="42.1818583" lon="13.2732933"><ele>803.4</ele><time>2026-05-02T15:58:39.859Z</time></trkpt><trkpt lat="42.1819283" lon="13.273185"><ele>803.0</ele><time>2026-05-02T15:58:40.859Z</time></trkpt><trkpt lat="42.182" lon="13.2730833"><ele>802.8</ele><time>2026-05-02T15:58:41.859Z</time></trkpt><trkpt lat="42.1820533" lon="13.2729767"><ele>802.5999999999999</ele><time>2026-05-02T15:58:42.86Z</time></trkpt><trkpt lat="42.18212" lon="13.272865"><ele>802.4000000000001</ele><time>2026-05-02T15:58:43.859Z</time></trkpt><trkpt lat="42.1822" lon="13.2727767"><ele>802.2</ele><time>2026-05-02T15:58:44.86Z</time></trkpt><trkpt lat="42.1822967" lon="13.2726867"><ele>802.0</ele><time>2026-05-02T15:58:45.859Z</time></trkpt><trkpt lat="42.1823933" lon="13.2726067"><ele>802.0</ele><time>2026-05-02T15:58:46.859Z</time></trkpt><trkpt lat="42.1824883" lon="13.272515"><ele>802.0</ele><time>2026-05-02T15:58:47.859Z</time></trkpt><trkpt lat="42.182575" lon="13.272405"><ele>802.0</ele><time>2026-05-02T15:58:48.859Z</time></trkpt><trkpt lat="42.1826533" lon="13.2722667"><ele>802.0</ele><time>2026-05-02T15:58:49.859Z</time></trkpt><trkpt lat="42.1827367" lon="13.27214"><ele>802.0</ele><time>2026-05-02T15:58:50.86Z</time></trkpt><trkpt lat="42.1828233" lon="13.2720167"><ele>802.0</ele><time>2026-05-02T15:58:51.86Z</time></trkpt><trkpt lat="42.1829" lon="13.2718917"><ele>802.0</ele><time>2026-05-02T15:58:52.86Z</time></trkpt><trkpt lat="42.182975" lon="13.27178"><ele>802.0</ele><time>2026-05-02T15:58:53.859Z</time></trkpt><trkpt lat="42.1830467" lon="13.2716467"><ele>802.0</ele><time>2026-05-02T15:58:54.859Z</time></trkpt><trkpt lat="42.1831017" lon="13.2715083"><ele>802.0</ele><time>2026-05-02T15:58:55.859Z</time></trkpt><trkpt lat="42.183145" lon="13.271375"><ele>802.0</ele><time>2026-05-02T15:58:56.859Z</time></trkpt><trkpt lat="42.1832017" lon="13.2712467"><ele>802.0</ele><time>2026-05-02T15:58:57.86Z</time></trkpt><trkpt lat="42.1832667" lon="13.271125"><ele>802.0</ele><time>2026-05-02T15:58:58.859Z</time></trkpt><trkpt lat="42.1833367" lon="13.2710317"><ele>801.6666666666666</ele><time>2026-05-02T15:58:59.86Z</time></trkpt><trkpt lat="42.1834017" lon="13.2709717"><ele>801.3333333333333</ele><time>2026-05-02T15:59:00.859Z</time></trkpt><trkpt lat="42.1834667" lon="13.27094"><ele>801.0</ele><time>2026-05-02T15:59:01.859Z</time></trkpt><trkpt lat="42.1835367" lon="13.2709233"><ele>800.6666666666667</ele><time>2026-05-02T15:59:02.859Z</time></trkpt><trkpt lat="42.1836167" lon="13.270925"><ele>800.3333333333334</ele><time>2026-05-02T15:59:03.859Z</time></trkpt><trkpt lat="42.1837133" lon="13.270935"><ele>800.0</ele><time>2026-05-02T15:59:04.859Z</time></trkpt><trkpt lat="42.1838233" lon="13.2709383"><ele>800.0</ele><time>2026-05-02T15:59:05.859Z</time></trkpt><trkpt lat="42.1839383" lon="13.2709267"><ele>800.0</ele><time>2026-05-02T15:59:06.86Z</time></trkpt><trkpt lat="42.1840483" lon="13.270915"><ele>800.0</ele><time>2026-05-02T15:59:07.859Z</time></trkpt><trkpt lat="42.1841667" lon="13.2708983"><ele>800.0</ele><time>2026-05-02T15:59:08.859Z</time></trkpt><trkpt lat="42.1842733" lon="13.2708667"><ele>800.0</ele><time>2026-05-02T15:59:09.859Z</time></trkpt><trkpt lat="42.1843833" lon="13.27081"><ele>800.0</ele><time>2026-05-02T15:59:10.859Z</time></trkpt><trkpt lat="42.1844933" lon="13.27074"><ele>800.0</ele><time>2026-05-02T15:59:11.859Z</time></trkpt><trkpt lat="42.1846017" lon="13.2706583"><ele>800.0</ele><time>2026-05-02T15:59:12.859Z</time></trkpt><trkpt lat="42.1847083" lon="13.2705583"><ele>799.5</ele><time>2026-05-02T15:59:13.86Z</time></trkpt><trkpt lat="42.1848133" lon="13.2704567"><ele>799.0</ele><time>2026-05-02T15:59:14.86Z</time></trkpt><trkpt lat="42.1849167" lon="13.2703517"><ele>798.5</ele><time>2026-05-02T15:59:15.859Z</time></trkpt><trkpt lat="42.1850117" lon="13.270255"><ele>798.0</ele><time>2026-05-02T15:59:16.86Z</time></trkpt><trkpt lat="42.1851167" lon="13.270155"><ele>799.0</ele><time>2026-05-02T15:59:17.859Z</time></trkpt><trkpt lat="42.1852283" lon="13.270065"><ele>800.0</ele><time>2026-05-02T15:59:18.86Z</time></trkpt><trkpt lat="42.1853483" lon="13.2699767"><ele>801.0</ele><time>2026-05-02T15:59:19.859Z</time></trkpt><trkpt lat="42.18547" lon="13.269885"><ele>802.0</ele><time>2026-05-02T15:59:20.86Z</time></trkpt><trkpt lat="42.1855917" lon="13.2698033"><ele>802.25</ele><time>2026-05-02T15:59:21.859Z</time></trkpt><trkpt lat="42.1857133" lon="13.26972"><ele>802.5</ele><time>2026-05-02T15:59:22.86Z</time></trkpt><trkpt lat="42.1858383" lon="13.2696317"><ele>802.75</ele><time>2026-05-02T15:59:23.859Z</time></trkpt><trkpt lat="42.1859617" lon="13.269555"><ele>803.0</ele><time>2026-05-02T15:59:24.86Z</time></trkpt><trkpt lat="42.1860833" lon="13.2694733"><ele>803.0</ele><time>2026-05-02T15:59:25.859Z</time></trkpt><trkpt lat="42.1862" lon="13.2693983"><ele>803.0</ele><time>2026-05-02T15:59:26.859Z</time></trkpt><trkpt lat="42.18632" lon="13.2693267"><ele>803.0</ele><time>2026-05-02T15:59:27.86Z</time></trkpt><trkpt lat="42.1864367" lon="13.26926"><ele>803.0</ele><time>2026-05-02T15:59:28.86Z</time></trkpt><trkpt lat="42.186555" lon="13.269195"><ele>803.0</ele><time>2026-05-02T15:59:29.859Z</time></trkpt><trkpt lat="42.1866667" lon="13.26912"><ele>803.0</ele><time>2026-05-02T15:59:30.859Z</time></trkpt><trkpt lat="42.1867833" lon="13.2690433"><ele>803.0</ele><time>2026-05-02T15:59:31.859Z</time></trkpt><trkpt lat="42.186895" lon="13.268965"><ele>803.0</ele><time>2026-05-02T15:59:32.86Z</time></trkpt><trkpt lat="42.1870033" lon="13.2688567"><ele>802.75</ele><time>2026-05-02T15:59:33.859Z</time></trkpt><trkpt lat="42.1871167" lon="13.2687483"><ele>802.5</ele><time>2026-05-02T15:59:34.86Z</time></trkpt><trkpt lat="42.18723" lon="13.268645"><ele>802.25</ele><time>2026-05-02T15:59:35.859Z</time></trkpt><trkpt lat="42.187345" lon="13.268565"><ele>802.0</ele><time>2026-05-02T15:59:36.859Z</time></trkpt><trkpt lat="42.1874483" lon="13.2684767"><ele>802.0</ele><time>2026-05-02T15:59:37.859Z</time></trkpt><trkpt lat="42.1875533" lon="13.2683933"><ele>802.0</ele><time>2026-05-02T15:59:38.86Z</time></trkpt><trkpt lat="42.1876567" lon="13.2683117"><ele>802.0</ele><time>2026-05-02T15:59:39.859Z</time></trkpt><trkpt lat="42.1877583" lon="13.268225"><ele>802.0</ele><time>2026-05-02T15:59:40.86Z</time></trkpt><trkpt lat="42.18785" lon="13.2681533"><ele>801.9999999999999</ele><time>2026-05-02T15:59:41.86Z</time></trkpt><trkpt lat="42.1879283" lon="13.2680817"><ele>802.0</ele><time>2026-05-02T15:59:42.86Z</time></trkpt><trkpt lat="42.1880017" lon="13.2680167"><ele>802.0</ele><time>2026-05-02T15:59:43.859Z</time></trkpt><trkpt lat="42.1880767" lon="13.2679617"><ele>802.0</ele><time>2026-05-02T15:59:44.859Z</time></trkpt><trkpt lat="42.1881467" lon="13.2679183"><ele>801.9999999999999</ele><time>2026-05-02T15:59:45.859Z</time></trkpt><trkpt lat="42.188225" lon="13.26788"><ele>802.0</ele><time>2026-05-02T15:59:46.86Z</time></trkpt><trkpt lat="42.188315" lon="13.267855"><ele>802.6</ele><time>2026-05-02T15:59:47.859Z</time></trkpt><trkpt lat="42.18842" lon="13.267825"><ele>803.2</ele><time>2026-05-02T15:59:48.859Z</time></trkpt><trkpt lat="42.1885333" lon="13.2677867"><ele>803.8</ele><time>2026-05-02T15:59:49.859Z</time></trkpt><trkpt lat="42.1886367" lon="13.267735"><ele>804.4</ele><time>2026-05-02T15:59:50.859Z</time></trkpt><trkpt lat="42.1887367" lon="13.2676833"><ele>805.0</ele><time>2026-05-02T15:59:51.86Z</time></trkpt><trkpt lat="42.1888383" lon="13.267625"><ele>804.9999999999999</ele><time>2026-05-02T15:59:52.86Z</time></trkpt><trkpt lat="42.1889233" lon="13.2675617"><ele>805.0</ele><time>2026-05-02T15:59:53.86Z</time></trkpt><trkpt lat="42.1889933" lon="13.26751"><ele>805.0</ele><time>2026-05-02T15:59:54.859Z</time></trkpt><trkpt lat="42.18906" lon="13.26746"><ele>805.0</ele><time>2026-05-02T15:59:55.86Z</time></trkpt><trkpt lat="42.1891267" lon="13.2674133"><ele>804.9999999999999</ele><time>2026-05-02T15:59:56.86Z</time></trkpt><trkpt lat="42.189215" lon="13.2673483"><ele>805.0</ele><time>2026-05-02T15:59:57.859Z</time></trkpt><trkpt lat="42.1893117" lon="13.2672717"><ele>804.75</ele><time>2026-05-02T15:59:58.86Z</time></trkpt><trkpt lat="42.18941" lon="13.2671833"><ele>804.5</ele><time>2026-05-02T15:59:59.859Z</time></trkpt><trkpt lat="42.1895067" lon="13.2670933"><ele>804.25</ele><time>2026-05-02T16:00:00.86Z</time></trkpt><trkpt lat="42.1896067" lon="13.266985"><ele>804.0</ele><time>2026-05-02T16:00:01.86Z</time></trkpt><trkpt lat="42.1897117" lon="13.2668817"><ele>804.0</ele><time>2026-05-02T16:00:02.86Z</time></trkpt><trkpt lat="42.1898217" lon="13.2667833"><ele>804.0</ele><time>2026-05-02T16:00:03.859Z</time></trkpt><trkpt lat="42.1899283" lon="13.2666933"><ele>804.0</ele><time>2026-05-02T16:00:04.86Z</time></trkpt><trkpt lat="42.1900383" lon="13.2666167"><ele>804.0</ele><time>2026-05-02T16:00:05.86Z</time></trkpt><trkpt lat="42.1901433" lon="13.2665567"><ele>804.4000000000001</ele><time>2026-05-02T16:00:06.86Z</time></trkpt><trkpt lat="42.1902433" lon="13.2665033"><ele>804.8</ele><time>2026-05-02T16:00:07.86Z</time></trkpt><trkpt lat="42.19034" lon="13.2664367"><ele>805.2</ele><time>2026-05-02T16:00:08.86Z</time></trkpt><trkpt lat="42.1904233" lon="13.2663383"><ele>805.5999999999999</ele><time>2026-05-02T16:00:09.86Z</time></trkpt><trkpt lat="42.190515" lon="13.2662317"><ele>806.0</ele><time>2026-05-02T16:00:10.859Z</time></trkpt><trkpt lat="42.1906083" lon="13.2661317"><ele>807.0</ele><time>2026-05-02T16:00:11.86Z</time></trkpt><trkpt lat="42.1907133" lon="13.2660267"><ele>808.0</ele><time>2026-05-02T16:00:12.859Z</time></trkpt><trkpt lat="42.1908217" lon="13.2659067"><ele>809.0</ele><time>2026-05-02T16:00:13.86Z</time></trkpt><trkpt lat="42.19091" lon="13.2657883"><ele>810.0</ele><time>2026-05-02T16:00:14.86Z</time></trkpt><trkpt lat="42.1909933" lon="13.2656667"><ele>809.25</ele><time>2026-05-02T16:00:15.86Z</time></trkpt><trkpt lat="42.1910833" lon="13.26555"><ele>808.5</ele><time>2026-05-02T16:00:16.859Z</time></trkpt><trkpt lat="42.1911767" lon="13.265445"><ele>807.75</ele><time>2026-05-02T16:00:17.859Z</time></trkpt><trkpt lat="42.1912683" lon="13.26533"><ele>807.0</ele><time>2026-05-02T16:00:18.86Z</time></trkpt><trkpt lat="42.19136" lon="13.2652083"><ele>807.0</ele><time>2026-05-02T16:00:19.86Z</time></trkpt><trkpt lat="42.1914433" lon="13.2650767"><ele>807.0</ele><time>2026-05-02T16:00:20.859Z</time></trkpt><trkpt lat="42.191525" lon="13.2649433"><ele>807.0</ele><time>2026-05-02T16:00:21.859Z</time></trkpt><trkpt lat="42.1916083" lon="13.2648167"><ele>807.0</ele><time>2026-05-02T16:00:22.859Z</time></trkpt><trkpt lat="42.191695" lon="13.2647167"><ele>807.4000000000001</ele><time>2026-05-02T16:00:23.859Z</time></trkpt><trkpt lat="42.191795" lon="13.264635"><ele>807.8000000000001</ele><time>2026-05-02T16:00:24.86Z</time></trkpt><trkpt lat="42.1918983" lon="13.264565"><ele>808.2</ele><time>2026-05-02T16:00:25.86Z</time></trkpt><trkpt lat="42.1919967" lon="13.26449"><ele>808.6</ele><time>2026-05-02T16:00:26.859Z</time></trkpt><trkpt lat="42.1920883" lon="13.264435"><ele>809.0</ele><time>2026-05-02T16:00:27.86Z</time></trkpt><trkpt lat="42.192185" lon="13.2643817"><ele>809.0</ele><time>2026-05-02T16:00:28.859Z</time></trkpt><trkpt lat="42.1922867" lon="13.2643367"><ele>809.0</ele><time>2026-05-02T16:00:29.86Z</time></trkpt><trkpt lat="42.192385" lon="13.2642883"><ele>809.0</ele><time>2026-05-02T16:00:30.86Z</time></trkpt><trkpt lat="42.1924883" lon="13.26424"><ele>809.0</ele><time>2026-05-02T16:00:31.859Z</time></trkpt><trkpt lat="42.19259" lon="13.2641733"><ele>809.0</ele><time>2026-05-02T16:00:32.859Z</time></trkpt><trkpt lat="42.1926917" lon="13.2641133"><ele>810.0</ele><time>2026-05-02T16:00:33.86Z</time></trkpt><trkpt lat="42.1927983" lon="13.2640533"><ele>811.0</ele><time>2026-05-02T16:00:34.859Z</time></trkpt><trkpt lat="42.1929" lon="13.2639967"><ele>812.0</ele><time>2026-05-02T16:00:35.859Z</time></trkpt><trkpt lat="42.193015" lon="13.2639333"><ele>813.0</ele><time>2026-05-02T16:00:36.859Z</time></trkpt><trkpt lat="42.1931267" lon="13.2638683"><ele>813.25</ele><time>2026-05-02T16:00:37.859Z</time></trkpt><trkpt lat="42.193235" lon="13.26379"><ele>813.5</ele><time>2026-05-02T16:00:38.86Z</time></trkpt><trkpt lat="42.1933433" lon="13.2637067"><ele>813.75</ele><time>2026-05-02T16:00:39.859Z</time></trkpt><trkpt lat="42.193455" lon="13.2636183"><ele>814.0</ele><time>2026-05-02T16:00:40.859Z</time></trkpt><trkpt lat="42.1935667" lon="13.2635267"><ele>814.0</ele><time>2026-05-02T16:00:41.86Z</time></trkpt><trkpt lat="42.1936733" lon="13.26344"><ele>814.0</ele><time>2026-05-02T16:00:42.859Z</time></trkpt><trkpt lat="42.1937783" lon="13.2633483"><ele>814.0</ele><time>2026-05-02T16:00:43.859Z</time></trkpt><trkpt lat="42.1938833" lon="13.2632717"><ele>814.0</ele><time>2026-05-02T16:00:44.86Z</time></trkpt><trkpt lat="42.1939883" lon="13.2631983"><ele>814.2</ele><time>2026-05-02T16:00:45.859Z</time></trkpt><trkpt lat="42.1940833" lon="13.2631267"><ele>814.4000000000001</ele><time>2026-05-02T16:00:46.859Z</time></trkpt><trkpt lat="42.194165" lon="13.2630633"><ele>814.6</ele><time>2026-05-02T16:00:47.86Z</time></trkpt><trkpt lat="42.194245" lon="13.263015"><ele>814.8</ele><time>2026-05-02T16:00:48.859Z</time></trkpt><trkpt lat="42.19433" lon="13.2629817"><ele>815.0</ele><time>2026-05-02T16:00:49.859Z</time></trkpt><trkpt lat="42.19442" lon="13.2629683"><ele>815.0</ele><time>2026-05-02T16:00:50.859Z</time></trkpt><trkpt lat="42.1945133" lon="13.2629517"><ele>815.0</ele><time>2026-05-02T16:00:51.86Z</time></trkpt><trkpt lat="42.194605" lon="13.2629217"><ele>815.0</ele><time>2026-05-02T16:00:52.86Z</time></trkpt><trkpt lat="42.1946967" lon="13.2628833"><ele>815.0</ele><time>2026-05-02T16:00:53.86Z</time></trkpt><trkpt lat="42.1947883" lon="13.262855"><ele>815.0</ele><time>2026-05-02T16:00:54.86Z</time></trkpt><trkpt lat="42.194875" lon="13.2628367"><ele>815.0000000000001</ele><time>2026-05-02T16:00:55.859Z</time></trkpt><trkpt lat="42.1949633" lon="13.2628367"><ele>815.0</ele><time>2026-05-02T16:00:56.86Z</time></trkpt><trkpt lat="42.195055" lon="13.2628483"><ele>815.0</ele><time>2026-05-02T16:00:57.86Z</time></trkpt><trkpt lat="42.1951433" lon="13.2628783"><ele>815.0</ele><time>2026-05-02T16:00:58.859Z</time></trkpt><trkpt lat="42.1952267" lon="13.2629167"><ele>815.0000000000001</ele><time>2026-05-02T16:00:59.86Z</time></trkpt><trkpt lat="42.1953" lon="13.262955"><ele>815.0</ele><time>2026-05-02T16:01:00.859Z</time></trkpt><trkpt lat="42.1954067" lon="13.2629817"><ele>815.0</ele><time>2026-05-02T16:01:02.86Z</time></trkpt><trkpt lat="42.195495" lon="13.2629083"><ele>815.0</ele><time>2026-05-02T16:01:04.859Z</time></trkpt><trkpt lat="42.19554" lon="13.262835"><ele>815.0</ele><time>2026-05-02T16:01:05.86Z</time></trkpt><trkpt lat="42.1955883" lon="13.2627217"><ele>815.0</ele><time>2026-05-02T16:01:06.859Z</time></trkpt><trkpt lat="42.19564" lon="13.2625867"><ele>815.0</ele><time>2026-05-02T16:01:07.86Z</time></trkpt><trkpt lat="42.1956817" lon="13.2624567"><ele>815.0</ele><time>2026-05-02T16:01:08.859Z</time></trkpt><trkpt lat="42.1957283" lon="13.2623133"><ele>815.0</ele><time>2026-05-02T16:01:09.86Z</time></trkpt><trkpt lat="42.1957867" lon="13.2621717"><ele>815.0</ele><time>2026-05-02T16:01:10.86Z</time></trkpt><trkpt lat="42.1958533" lon="13.262035"><ele>815.0</ele><time>2026-05-02T16:01:11.86Z</time></trkpt><trkpt lat="42.1959117" lon="13.2618933"><ele>815.0</ele><time>2026-05-02T16:01:12.86Z</time></trkpt><trkpt lat="42.1959567" lon="13.2617467"><ele>815.0</ele><time>2026-05-02T16:01:13.86Z</time></trkpt><trkpt lat="42.195995" lon="13.2616033"><ele>815.0</ele><time>2026-05-02T16:01:14.86Z</time></trkpt><trkpt lat="42.19604" lon="13.2614483"><ele>815.0</ele><time>2026-05-02T16:01:15.86Z</time></trkpt><trkpt lat="42.196095" lon="13.2613017"><ele>814.8</ele><time>2026-05-02T16:01:16.86Z</time></trkpt><trkpt lat="42.19614" lon="13.26116"><ele>814.6</ele><time>2026-05-02T16:01:17.86Z</time></trkpt><trkpt lat="42.1961633" lon="13.2610133"><ele>814.4000000000001</ele><time>2026-05-02T16:01:18.859Z</time></trkpt><trkpt lat="42.19619" lon="13.26086"><ele>814.2</ele><time>2026-05-02T16:01:19.859Z</time></trkpt><trkpt lat="42.1962167" lon="13.2607317"><ele>814.0</ele><time>2026-05-02T16:01:20.86Z</time></trkpt><trkpt lat="42.1962383" lon="13.2606233"><ele>813.4999999999999</ele><time>2026-05-02T16:01:21.86Z</time></trkpt><trkpt lat="42.1962717" lon="13.2605417"><ele>813.0</ele><time>2026-05-02T16:01:22.86Z</time></trkpt><trkpt lat="42.1963467" lon="13.2604283"><ele>812.5</ele><time>2026-05-02T16:01:24.86Z</time></trkpt><trkpt lat="42.1964533" lon="13.2603767"><ele>812.0</ele><time>2026-05-02T16:01:26.859Z</time></trkpt><trkpt lat="42.1965183" lon="13.26036"><ele>811.4999999999999</ele><time>2026-05-02T16:01:27.859Z</time></trkpt><trkpt lat="42.1965867" lon="13.26035"><ele>811.0</ele><time>2026-05-02T16:01:28.859Z</time></trkpt><trkpt lat="42.19667" lon="13.260345"><ele>810.5999999999999</ele><time>2026-05-02T16:01:29.859Z</time></trkpt><trkpt lat="42.1967733" lon="13.2603417"><ele>810.2</ele><time>2026-05-02T16:01:30.86Z</time></trkpt><trkpt lat="42.196875" lon="13.2603217"><ele>809.8</ele><time>2026-05-02T16:01:31.86Z</time></trkpt><trkpt lat="42.1969867" lon="13.26029"><ele>809.4000000000001</ele><time>2026-05-02T16:01:32.859Z</time></trkpt><trkpt lat="42.1970983" lon="13.2602517"><ele>809.0</ele><time>2026-05-02T16:01:33.86Z</time></trkpt><trkpt lat="42.1972033" lon="13.2602133"><ele>809.0</ele><time>2026-05-02T16:01:34.859Z</time></trkpt><trkpt lat="42.19731" lon="13.26017"><ele>809.0</ele><time>2026-05-02T16:01:35.86Z</time></trkpt><trkpt lat="42.197415" lon="13.2601133"><ele>809.0</ele><time>2026-05-02T16:01:36.859Z</time></trkpt><trkpt lat="42.1975267" lon="13.260035"><ele>809.0</ele><time>2026-05-02T16:01:37.86Z</time></trkpt><trkpt lat="42.1976317" lon="13.2599433"><ele>808.75</ele><time>2026-05-02T16:01:38.859Z</time></trkpt><trkpt lat="42.1977317" lon="13.2598517"><ele>808.5</ele><time>2026-05-02T16:01:39.859Z</time></trkpt><trkpt lat="42.1978317" lon="13.2597617"><ele>808.25</ele><time>2026-05-02T16:01:40.86Z</time></trkpt><trkpt lat="42.1979267" lon="13.2596617"><ele>808.0</ele><time>2026-05-02T16:01:41.86Z</time></trkpt><trkpt lat="42.198025" lon="13.2595817"><ele>807.9999999999999</ele><time>2026-05-02T16:01:42.86Z</time></trkpt><trkpt lat="42.198105" lon="13.25951"><ele>808.0</ele><time>2026-05-02T16:01:43.859Z</time></trkpt><trkpt lat="42.19818" lon="13.2594483"><ele>808.0</ele><time>2026-05-02T16:01:44.859Z</time></trkpt><trkpt lat="42.1982517" lon="13.259415"><ele>808.0</ele><time>2026-05-02T16:01:45.859Z</time></trkpt><trkpt lat="42.198325" lon="13.2594017"><ele>807.9999999999999</ele><time>2026-05-02T16:01:46.86Z</time></trkpt><trkpt lat="42.1984067" lon="13.2594167"><ele>808.0</ele><time>2026-05-02T16:01:47.86Z</time></trkpt><trkpt lat="42.1984983" lon="13.2594267"><ele>809.0</ele><time>2026-05-02T16:01:48.859Z</time></trkpt><trkpt lat="42.1986" lon="13.25941"><ele>810.0</ele><time>2026-05-02T16:01:49.859Z</time></trkpt><trkpt lat="42.1986983" lon="13.2593633"><ele>811.0</ele><time>2026-05-02T16:01:50.86Z</time></trkpt><trkpt lat="42.198795" lon="13.25931"><ele>812.0</ele><time>2026-05-02T16:01:51.86Z</time></trkpt><trkpt lat="42.1988933" lon="13.259255"><ele>813.0</ele><time>2026-05-02T16:01:52.859Z</time></trkpt><trkpt lat="42.1989833" lon="13.2591917"><ele>813.5999999999999</ele><time>2026-05-02T16:01:53.86Z</time></trkpt><trkpt lat="42.199075" lon="13.25913"><ele>814.1999999999999</ele><time>2026-05-02T16:01:54.86Z</time></trkpt><trkpt lat="42.1991667" lon="13.25907"><ele>814.8</ele><time>2026-05-02T16:01:55.859Z</time></trkpt><trkpt lat="42.1992417" lon="13.2590267"><ele>815.4</ele><time>2026-05-02T16:01:56.86Z</time></trkpt><trkpt lat="42.1993283" lon="13.2589967"><ele>816.0</ele><time>2026-05-02T16:01:57.859Z</time></trkpt><trkpt lat="42.199425" lon="13.258995"><ele>816.0</ele><time>2026-05-02T16:01:58.859Z</time></trkpt><trkpt lat="42.1995233" lon="13.2590183"><ele>816.0</ele><time>2026-05-02T16:01:59.859Z</time></trkpt><trkpt lat="42.1996083" lon="13.25906"><ele>816.0</ele><time>2026-05-02T16:02:00.86Z</time></trkpt><trkpt lat="42.1996817" lon="13.2591017"><ele>816.0</ele><time>2026-05-02T16:02:01.86Z</time></trkpt><trkpt lat="42.1997517" lon="13.2591483"><ele>816.0</ele><time>2026-05-02T16:02:02.86Z</time></trkpt><trkpt lat="42.19983" lon="13.2592317"><ele>816.0</ele><time>2026-05-02T16:02:04.859Z</time></trkpt><trkpt lat="42.1999083" lon="13.2592483"><ele>815.8333333333334</ele><time>2026-05-02T16:02:07.859Z</time></trkpt><trkpt lat="42.1999367" lon="13.25916"><ele>815.6666666666667</ele><time>2026-05-02T16:02:10.859Z</time></trkpt><trkpt lat="42.1998933" lon="13.2590283"><ele>815.5</ele><time>2026-05-02T16:02:12.859Z</time></trkpt><trkpt lat="42.1998683" lon="13.2589383"><ele>815.3333333333334</ele><time>2026-05-02T16:02:13.86Z</time></trkpt><trkpt lat="42.1998383" lon="13.2588333"><ele>815.1666666666667</ele><time>2026-05-02T16:02:14.859Z</time></trkpt><trkpt lat="42.1998083" lon="13.2587217"><ele>815.0</ele><time>2026-05-02T16:02:15.859Z</time></trkpt><trkpt lat="42.19978" lon="13.25861"><ele>815.0000000000001</ele><time>2026-05-02T16:02:16.86Z</time></trkpt><trkpt lat="42.1997467" lon="13.2585"><ele>815.0</ele><time>2026-05-02T16:02:17.86Z</time></trkpt><trkpt lat="42.1997117" lon="13.2583883"><ele>815.0</ele><time>2026-05-02T16:02:18.86Z</time></trkpt><trkpt lat="42.1996783" lon="13.2582867"><ele>815.0</ele><time>2026-05-02T16:02:19.859Z</time></trkpt><trkpt lat="42.1996417" lon="13.2581933"><ele>815.0000000000001</ele><time>2026-05-02T16:02:20.86Z</time></trkpt><trkpt lat="42.199615" lon="13.2581067"><ele>815.0</ele><time>2026-05-02T16:02:21.86Z</time></trkpt><trkpt lat="42.1995917" lon="13.2580233"><ele>815.3333333333334</ele><time>2026-05-02T16:02:22.859Z</time></trkpt><trkpt lat="42.1995867" lon="13.2578367"><ele>815.6666666666667</ele><time>2026-05-02T16:02:24.86Z</time></trkpt><trkpt lat="42.1996033" lon="13.2577317"><ele>816.0</ele><time>2026-05-02T16:02:25.86Z</time></trkpt><trkpt lat="42.1996183" lon="13.2576383"><ele>816.3333333333333</ele><time>2026-05-02T16:02:26.859Z</time></trkpt><trkpt lat="42.1996417" lon="13.2575367"><ele>816.6666666666666</ele><time>2026-05-02T16:02:27.86Z</time></trkpt><trkpt lat="42.1996633" lon="13.2574367"><ele>817.0</ele><time>2026-05-02T16:02:28.86Z</time></trkpt><trkpt lat="42.1997067" lon="13.2573383"><ele>818.0</ele><time>2026-05-02T16:02:29.859Z</time></trkpt><trkpt lat="42.1997517" lon="13.2572683"><ele>819.0</ele><time>2026-05-02T16:02:30.859Z</time></trkpt><trkpt lat="42.1998317" lon="13.25721"><ele>820.0</ele><time>2026-05-02T16:02:32.86Z</time></trkpt><trkpt lat="42.1999267" lon="13.2572383"><ele>821.0</ele><time>2026-05-02T16:02:42.859Z</time></trkpt><trkpt lat="42.2000417" lon="13.2573217"><ele>822.0</ele><time>2026-05-02T16:02:44.859Z</time></trkpt><trkpt lat="42.2001017" lon="13.2573617"><ele>822.5</ele><time>2026-05-02T16:02:45.86Z</time></trkpt><trkpt lat="42.20016" lon="13.2574033"><ele>823.0</ele><time>2026-05-02T16:02:46.859Z</time></trkpt><trkpt lat="42.200265" lon="13.2574767"><ele>823.5</ele><time>2026-05-02T16:02:48.859Z</time></trkpt><trkpt lat="42.2003417" lon="13.25753"><ele>824.0</ele><time>2026-05-02T16:02:50.86Z</time></trkpt><trkpt lat="42.2004083" lon="13.2575817"><ele>824.5</ele><time>2026-05-02T16:02:52.86Z</time></trkpt><trkpt lat="42.2003567" lon="13.2575233"><ele>825.0</ele><time>2026-05-02T16:03:06.86Z</time></trkpt><trkpt lat="42.20025" lon="13.257455"><ele>825.0</ele><time>2026-05-02T16:03:08.86Z</time></trkpt><trkpt lat="42.20016" lon="13.25739"><ele>825.0</ele><time>2026-05-02T16:03:10.86Z</time></trkpt><trkpt lat="42.2000867" lon="13.2573483"><ele>825.0</ele><time>2026-05-02T16:03:12.859Z</time></trkpt><trkpt lat="42.2000217" lon="13.257305"><ele>825.0</ele><time>2026-05-02T16:03:14.859Z</time></trkpt><trkpt lat="42.1999483" lon="13.257265"><ele>825.0</ele><time>2026-05-02T16:03:17.859Z</time></trkpt><trkpt lat="42.199875" lon="13.2572417"><ele>825.0</ele><time>2026-05-02T16:03:20.859Z</time></trkpt><trkpt lat="42.1999083" lon="13.2571683"><ele>825.0</ele><time>2026-05-02T16:03:25.859Z</time></trkpt><trkpt lat="42.2" lon="13.2572033"><ele>825.0</ele><time>2026-05-02T16:03:27.86Z</time></trkpt><trkpt lat="42.20009" lon="13.257245"><ele>825.0</ele><time>2026-05-02T16:03:29.859Z</time></trkpt><trkpt lat="42.2001517" lon="13.2572667"><ele>825.0</ele><time>2026-05-02T16:03:31.86Z</time></trkpt><trkpt lat="42.200215" lon="13.2573033"><ele>825.0</ele><time>2026-05-02T16:03:34.86Z</time></trkpt><trkpt lat="42.200125" lon="13.25727"><ele>825.0</ele><time>2026-05-02T16:03:41.859Z</time></trkpt><trkpt lat="42.20001" lon="13.2572183"><ele>824.4</ele><time>2026-05-02T16:03:43.86Z</time></trkpt><trkpt lat="42.1999217" lon="13.2571817"><ele>823.8</ele><time>2026-05-02T16:03:45.859Z</time></trkpt><trkpt lat="42.1998433" lon="13.2571333"><ele>823.2</ele><time>2026-05-02T16:03:48.86Z</time></trkpt><trkpt lat="42.1997817" lon="13.2570317"><ele>822.6</ele><time>2026-05-02T16:03:51.86Z</time></trkpt><trkpt lat="42.1997283" lon="13.256925"><ele>822.0</ele><time>2026-05-02T16:03:53.859Z</time></trkpt><trkpt lat="42.1996717" lon="13.256835"><ele>822.0</ele><time>2026-05-02T16:03:55.86Z</time></trkpt><trkpt lat="42.1996367" lon="13.2567417"><ele>822.0</ele><time>2026-05-02T16:03:57.859Z</time></trkpt><trkpt lat="42.1997017" lon="13.25668"><ele>822.0</ele><time>2026-05-02T16:04:00.86Z</time></trkpt><trkpt lat="42.1998167" lon="13.2567517"><ele>822.0</ele><time>2026-05-02T16:04:02.86Z</time></trkpt><trkpt lat="42.1999333" lon="13.25684"><ele>822.0</ele><time>2026-05-02T16:04:04.859Z</time></trkpt><trkpt lat="42.2000017" lon="13.2568833"><ele>824.5</ele><time>2026-05-02T16:04:05.86Z</time></trkpt><trkpt lat="42.20008" lon="13.2568983"><ele>827.0</ele><time>2026-05-02T16:04:06.86Z</time></trkpt><trkpt lat="42.2001567" lon="13.2569183"><ele>829.5</ele><time>2026-05-02T16:04:07.86Z</time></trkpt><trkpt lat="42.20024" lon="13.2569317"><ele>832.0</ele><time>2026-05-02T16:04:08.86Z</time></trkpt><trkpt lat="42.2003283" lon="13.2569383"><ele>834.5</ele><time>2026-05-02T16:04:09.859Z</time></trkpt><trkpt lat="42.2004183" lon="13.25695"><ele>837.0</ele><time>2026-05-02T16:04:10.859Z</time></trkpt><trkpt lat="42.200505" lon="13.2569617"><ele>837.0</ele><time>2026-05-02T16:04:11.86Z</time></trkpt><trkpt lat="42.200595" lon="13.2569783"><ele>837.0</ele><time>2026-05-02T16:04:12.86Z</time></trkpt><trkpt lat="42.200675" lon="13.2570017"><ele>837.0</ele><time>2026-05-02T16:04:13.859Z</time></trkpt><trkpt lat="42.2007483" lon="13.2570167"><ele>837.0</ele><time>2026-05-02T16:04:14.86Z</time></trkpt><trkpt lat="42.2008567" lon="13.257045"><ele>837.0</ele><time>2026-05-02T16:04:16.86Z</time></trkpt><trkpt lat="42.2009183" lon="13.2570733"><ele>837.0</ele><time>2026-05-02T16:04:18.859Z</time></trkpt><trkpt lat="42.2009117" lon="13.256975"><ele>840.2</ele><time>2026-05-02T16:04:39.86Z</time></trkpt><trkpt lat="42.200885" lon="13.256895"><ele>843.4000000000001</ele><time>2026-05-02T16:04:41.859Z</time></trkpt><trkpt lat="42.2009683" lon="13.2568567"><ele>846.5999999999999</ele><time>2026-05-02T16:04:44.859Z</time></trkpt><trkpt lat="42.2010817" lon="13.2568483"><ele>849.8</ele><time>2026-05-02T16:04:46.859Z</time></trkpt><trkpt lat="42.2012133" lon="13.2568483"><ele>853.0</ele><time>2026-05-02T16:04:48.859Z</time></trkpt><trkpt lat="42.2012783" lon="13.2568433"><ele>852.9999999999999</ele><time>2026-05-02T16:04:49.859Z</time></trkpt><trkpt lat="42.2014" lon="13.2568167"><ele>853.0</ele><time>2026-05-02T16:04:51.86Z</time></trkpt><trkpt lat="42.2014667" lon="13.2568083"><ele>853.0</ele><time>2026-05-02T16:04:52.859Z</time></trkpt><trkpt lat="42.20154" lon="13.25681"><ele>853.0</ele><time>2026-05-02T16:04:53.859Z</time></trkpt><trkpt lat="42.2016183" lon="13.2568033"><ele>852.9999999999999</ele><time>2026-05-02T16:04:54.859Z</time></trkpt><trkpt lat="42.2017083" lon="13.2568033"><ele>853.0</ele><time>2026-05-02T16:04:55.859Z</time></trkpt><trkpt lat="42.2018033" lon="13.256815"><ele>856.4</ele><time>2026-05-02T16:04:56.86Z</time></trkpt><trkpt lat="42.2019017" lon="13.2568233"><ele>859.8</ele><time>2026-05-02T16:04:57.86Z</time></trkpt><trkpt lat="42.202005" lon="13.2568183"><ele>863.2</ele><time>2026-05-02T16:04:58.859Z</time></trkpt><trkpt lat="42.2021" lon="13.256815"><ele>866.6</ele><time>2026-05-02T16:04:59.859Z</time></trkpt><trkpt lat="42.202185" lon="13.256815"><ele>870.0</ele><time>2026-05-02T16:05:00.859Z</time></trkpt><trkpt lat="42.2022767" lon="13.2568033"><ele>871.0000000000001</ele><time>2026-05-02T16:05:01.859Z</time></trkpt><trkpt lat="42.202345" lon="13.256785"><ele>872.0</ele><time>2026-05-02T16:05:02.859Z</time></trkpt><trkpt lat="42.2024117" lon="13.2567567"><ele>873.0</ele><time>2026-05-02T16:05:03.86Z</time></trkpt><trkpt lat="42.2024717" lon="13.256725"><ele>874.0</ele><time>2026-05-02T16:05:04.859Z</time></trkpt><trkpt lat="42.2025483" lon="13.2567117"><ele>875.0</ele><time>2026-05-02T16:05:05.86Z</time></trkpt><trkpt lat="42.20262" lon="13.2566917"><ele>876.0000000000001</ele><time>2026-05-02T16:05:06.86Z</time></trkpt><trkpt lat="42.2026883" lon="13.25667"><ele>877.0</ele><time>2026-05-02T16:05:07.86Z</time></trkpt><trkpt lat="42.2027517" lon="13.256645"><ele>877.0</ele><time>2026-05-02T16:05:08.86Z</time></trkpt><trkpt lat="42.2028133" lon="13.25658"><ele>877.0</ele><time>2026-05-02T16:05:11.86Z</time></trkpt><trkpt lat="42.20287" lon="13.2564983"><ele>877.0</ele><time>2026-05-02T16:05:14.86Z</time></trkpt><trkpt lat="42.2029617" lon="13.256365"><ele>877.0</ele><time>2026-05-02T16:05:17.859Z</time></trkpt><trkpt lat="42.20301" lon="13.25626"><ele>877.0</ele><time>2026-05-02T16:05:19.859Z</time></trkpt><trkpt lat="42.2030517" lon="13.256155"><ele>878.2</ele><time>2026-05-02T16:05:21.86Z</time></trkpt><trkpt lat="42.20311" lon="13.256025"><ele>879.4000000000001</ele><time>2026-05-02T16:05:23.859Z</time></trkpt><trkpt lat="42.203185" lon="13.2559067"><ele>880.5999999999999</ele><time>2026-05-02T16:05:25.859Z</time></trkpt><trkpt lat="42.203255" lon="13.2557833"><ele>881.8</ele><time>2026-05-02T16:05:27.86Z</time></trkpt><trkpt lat="42.2032917" lon="13.25571"><ele>883.0</ele><time>2026-05-02T16:05:28.86Z</time></trkpt><trkpt lat="42.20333" lon="13.2555633"><ele>885.2</ele><time>2026-05-02T16:05:30.86Z</time></trkpt><trkpt lat="42.2033067" lon="13.2554067"><ele>887.4</ele><time>2026-05-02T16:05:32.86Z</time></trkpt><trkpt lat="42.2032817" lon="13.2553217"><ele>889.6000000000001</ele><time>2026-05-02T16:05:33.859Z</time></trkpt><trkpt lat="42.2032533" lon="13.25515"><ele>891.8000000000001</ele><time>2026-05-02T16:05:35.859Z</time></trkpt><trkpt lat="42.2032467" lon="13.2550617"><ele>894.0</ele><time>2026-05-02T16:05:36.86Z</time></trkpt><trkpt lat="42.203265" lon="13.254945"><ele>894.0</ele><time>2026-05-02T16:05:38.859Z</time></trkpt><trkpt lat="42.2033383" lon="13.2549183"><ele>894.0</ele><time>2026-05-02T16:05:41.86Z</time></trkpt><trkpt lat="42.2033917" lon="13.2549733"><ele>894.0</ele><time>2026-05-02T16:05:43.859Z</time></trkpt><trkpt lat="42.20348" lon="13.2550567"><ele>894.0</ele><time>2026-05-02T16:05:45.86Z</time></trkpt><trkpt lat="42.2035383" lon="13.2551"><ele>894.0</ele><time>2026-05-02T16:05:46.859Z</time></trkpt><trkpt lat="42.203595" lon="13.2551483"><ele>894.0</ele><time>2026-05-02T16:05:47.86Z</time></trkpt><trkpt lat="42.2036533" lon="13.2551983"><ele>894.0</ele><time>2026-05-02T16:05:48.86Z</time></trkpt><trkpt lat="42.20372" lon="13.255255"><ele>894.0</ele><time>2026-05-02T16:05:49.859Z</time></trkpt><trkpt lat="42.2037917" lon="13.2553217"><ele>894.0</ele><time>2026-05-02T16:05:50.859Z</time></trkpt><trkpt lat="42.2038567" lon="13.2553817"><ele>894.0</ele><time>2026-05-02T16:05:51.859Z</time></trkpt><trkpt lat="42.20393" lon="13.2554517"><ele>894.0</ele><time>2026-05-02T16:05:52.86Z</time></trkpt><trkpt lat="42.2040017" lon="13.255535"><ele>894.0</ele><time>2026-05-02T16:05:53.859Z</time></trkpt><trkpt lat="42.20407" lon="13.25563"><ele>895.2</ele><time>2026-05-02T16:05:54.86Z</time></trkpt><trkpt lat="42.2041367" lon="13.255725"><ele>896.4000000000001</ele><time>2026-05-02T16:05:55.859Z</time></trkpt><trkpt lat="42.204215" lon="13.2558267"><ele>897.6</ele><time>2026-05-02T16:05:56.86Z</time></trkpt><trkpt lat="42.2043117" lon="13.2559117"><ele>898.8</ele><time>2026-05-02T16:05:57.859Z</time></trkpt><trkpt lat="42.2044083" lon="13.25598"><ele>900.0</ele><time>2026-05-02T16:05:58.859Z</time></trkpt><trkpt lat="42.2045133" lon="13.256045"><ele>900.0</ele><time>2026-05-02T16:05:59.86Z</time></trkpt><trkpt lat="42.2046283" lon="13.25611"><ele>900.0</ele><time>2026-05-02T16:06:00.86Z</time></trkpt><trkpt lat="42.2047417" lon="13.2561933"><ele>900.0</ele><time>2026-05-02T16:06:01.859Z</time></trkpt><trkpt lat="42.204845" lon="13.2562867"><ele>900.0</ele><time>2026-05-02T16:06:02.859Z</time></trkpt><trkpt lat="42.2049367" lon="13.2563933"><ele>902.5</ele><time>2026-05-02T16:06:03.859Z</time></trkpt><trkpt lat="42.2050133" lon="13.2565167"><ele>905.0</ele><time>2026-05-02T16:06:04.859Z</time></trkpt><trkpt lat="42.20509" lon="13.2566533"><ele>907.5</ele><time>2026-05-02T16:06:05.859Z</time></trkpt><trkpt lat="42.2051683" lon="13.2567817"><ele>910.0</ele><time>2026-05-02T16:06:06.859Z</time></trkpt><trkpt lat="42.205235" lon="13.256915"><ele>910.0</ele><time>2026-05-02T16:06:07.859Z</time></trkpt><trkpt lat="42.2053" lon="13.2570433"><ele>910.0</ele><time>2026-05-02T16:06:08.859Z</time></trkpt><trkpt lat="42.2053617" lon="13.2571883"><ele>910.0</ele><time>2026-05-02T16:06:09.86Z</time></trkpt><trkpt lat="42.2054117" lon="13.2573417"><ele>910.0</ele><time>2026-05-02T16:06:10.86Z</time></trkpt><trkpt lat="42.20546" lon="13.2574833"><ele>907.6</ele><time>2026-05-02T16:06:11.86Z</time></trkpt><trkpt lat="42.2055133" lon="13.2576083"><ele>905.2</ele><time>2026-05-02T16:06:12.86Z</time></trkpt><trkpt lat="42.2055683" lon="13.2577133"><ele>902.8</ele><time>2026-05-02T16:06:13.86Z</time></trkpt><trkpt lat="42.2056283" lon="13.257795"><ele>900.4</ele><time>2026-05-02T16:06:14.859Z</time></trkpt><trkpt lat="42.2056933" lon="13.2578567"><ele>898.0</ele><time>2026-05-02T16:06:15.859Z</time></trkpt><trkpt lat="42.2057783" lon="13.2579033"><ele>901.8</ele><time>2026-05-02T16:06:16.86Z</time></trkpt><trkpt lat="42.20587" lon="13.2579467"><ele>905.5999999999999</ele><time>2026-05-02T16:06:17.859Z</time></trkpt><trkpt lat="42.2059583" lon="13.2579917"><ele>909.4000000000001</ele><time>2026-05-02T16:06:18.86Z</time></trkpt><trkpt lat="42.2060433" lon="13.2580483"><ele>913.2</ele><time>2026-05-02T16:06:19.859Z</time></trkpt><trkpt lat="42.206115" lon="13.25812"><ele>917.0</ele><time>2026-05-02T16:06:20.859Z</time></trkpt><trkpt lat="42.2061717" lon="13.2582033"><ele>917.0</ele><time>2026-05-02T16:06:21.86Z</time></trkpt><trkpt lat="42.2062067" lon="13.2583267"><ele>917.0</ele><time>2026-05-02T16:06:22.86Z</time></trkpt><trkpt lat="42.206215" lon="13.258475"><ele>917.0</ele><time>2026-05-02T16:06:23.859Z</time></trkpt><trkpt lat="42.2062117" lon="13.25864"><ele>917.0</ele><time>2026-05-02T16:06:24.86Z</time></trkpt><trkpt lat="42.2061933" lon="13.2588117"><ele>915.5</ele><time>2026-05-02T16:06:25.86Z</time></trkpt><trkpt lat="42.2061783" lon="13.2589883"><ele>914.0</ele><time>2026-05-02T16:06:26.859Z</time></trkpt><trkpt lat="42.2061667" lon="13.2591617"><ele>912.5</ele><time>2026-05-02T16:06:27.859Z</time></trkpt><trkpt lat="42.2061667" lon="13.2593317"><ele>911.0</ele><time>2026-05-02T16:06:28.859Z</time></trkpt><trkpt lat="42.2061683" lon="13.259495"><ele>911.0</ele><time>2026-05-02T16:06:29.86Z</time></trkpt><trkpt lat="42.206195" lon="13.2596433"><ele>911.0</ele><time>2026-05-02T16:06:30.859Z</time></trkpt><trkpt lat="42.2062433" lon="13.25977"><ele>911.0</ele><time>2026-05-02T16:06:31.86Z</time></trkpt><trkpt lat="42.2063133" lon="13.259895"><ele>911.0</ele><time>2026-05-02T16:06:32.859Z</time></trkpt><trkpt lat="42.2063983" lon="13.2600133"><ele>909.5</ele><time>2026-05-02T16:06:33.859Z</time></trkpt><trkpt lat="42.2064917" lon="13.2601433"><ele>908.0</ele><time>2026-05-02T16:06:34.86Z</time></trkpt><trkpt lat="42.2065867" lon="13.2602767"><ele>906.5</ele><time>2026-05-02T16:06:35.859Z</time></trkpt><trkpt lat="42.20669" lon="13.2604217"><ele>905.0</ele><time>2026-05-02T16:06:36.86Z</time></trkpt><trkpt lat="42.2067883" lon="13.2605733"><ele>910.25</ele><time>2026-05-02T16:06:37.859Z</time></trkpt><trkpt lat="42.2068833" lon="13.2607317"><ele>915.5</ele><time>2026-05-02T16:06:38.859Z</time></trkpt><trkpt lat="42.2069783" lon="13.2608883"><ele>920.75</ele><time>2026-05-02T16:06:39.859Z</time></trkpt><trkpt lat="42.2070683" lon="13.2610433"><ele>926.0</ele><time>2026-05-02T16:06:40.859Z</time></trkpt><trkpt lat="42.20715" lon="13.2611883"><ele>926.0</ele><time>2026-05-02T16:06:41.859Z</time></trkpt><trkpt lat="42.2072233" lon="13.261325"><ele>926.0</ele><time>2026-05-02T16:06:42.859Z</time></trkpt><trkpt lat="42.207295" lon="13.26146"><ele>926.0</ele><time>2026-05-02T16:06:43.86Z</time></trkpt><trkpt lat="42.2073717" lon="13.2615817"><ele>926.0</ele><time>2026-05-02T16:06:44.859Z</time></trkpt><trkpt lat="42.207445" lon="13.2616917"><ele>929.4</ele><time>2026-05-02T16:06:45.859Z</time></trkpt><trkpt lat="42.20751" lon="13.2617767"><ele>932.8</ele><time>2026-05-02T16:06:46.86Z</time></trkpt><trkpt lat="42.20758" lon="13.261845"><ele>936.1999999999999</ele><time>2026-05-02T16:06:47.859Z</time></trkpt><trkpt lat="42.20765" lon="13.26188"><ele>939.5999999999999</ele><time>2026-05-02T16:06:48.86Z</time></trkpt><trkpt lat="42.207715" lon="13.2618783"><ele>943.0</ele><time>2026-05-02T16:06:49.859Z</time></trkpt><trkpt lat="42.2078217" lon="13.2617667"><ele>942.9999999999999</ele><time>2026-05-02T16:06:51.86Z</time></trkpt><trkpt lat="42.2078683" lon="13.2616917"><ele>943.0</ele><time>2026-05-02T16:06:52.859Z</time></trkpt><trkpt lat="42.207895" lon="13.2615633"><ele>943.0</ele><time>2026-05-02T16:06:54.859Z</time></trkpt><trkpt lat="42.2078017" lon="13.26154"><ele>943.0</ele><time>2026-05-02T16:06:56.86Z</time></trkpt><trkpt lat="42.2077417" lon="13.2615767"><ele>942.9999999999999</ele><time>2026-05-02T16:06:57.859Z</time></trkpt><trkpt lat="42.207645" lon="13.26158"><ele>943.0</ele><time>2026-05-02T16:06:59.86Z</time></trkpt><trkpt lat="42.2075833" lon="13.2614517"><ele>947.4</ele><time>2026-05-02T16:07:01.859Z</time></trkpt><trkpt lat="42.207565" lon="13.26135"><ele>951.8</ele><time>2026-05-02T16:07:02.86Z</time></trkpt><trkpt lat="42.2075367" lon="13.2612383"><ele>956.2</ele><time>2026-05-02T16:07:03.859Z</time></trkpt><trkpt lat="42.2074917" lon="13.261115"><ele>960.6</ele><time>2026-05-02T16:07:04.86Z</time></trkpt><trkpt lat="42.207435" lon="13.2609883"><ele>965.0</ele><time>2026-05-02T16:07:05.86Z</time></trkpt><trkpt lat="42.2073767" lon="13.2608583"><ele>959.5</ele><time>2026-05-02T16:07:06.86Z</time></trkpt><trkpt lat="42.2073133" lon="13.2607167"><ele>954.0</ele><time>2026-05-02T16:07:07.859Z</time></trkpt><trkpt lat="42.20725" lon="13.260555"><ele>948.5</ele><time>2026-05-02T16:07:08.86Z</time></trkpt><trkpt lat="42.2071817" lon="13.260395"><ele>943.0</ele><time>2026-05-02T16:07:09.859Z</time></trkpt><trkpt lat="42.207115" lon="13.260235"><ele>943.0</ele><time>2026-05-02T16:07:10.86Z</time></trkpt><trkpt lat="42.20707" lon="13.26006"><ele>943.0</ele><time>2026-05-02T16:07:11.86Z</time></trkpt><trkpt lat="42.2070217" lon="13.2598983"><ele>943.0</ele><time>2026-05-02T16:07:12.859Z</time></trkpt><trkpt lat="42.2069783" lon="13.25976"><ele>943.0</ele><time>2026-05-02T16:07:13.859Z</time></trkpt><trkpt lat="42.20694" lon="13.259635"><ele>944.5999999999999</ele><time>2026-05-02T16:07:14.859Z</time></trkpt><trkpt lat="42.206915" lon="13.259515"><ele>946.1999999999999</ele><time>2026-05-02T16:07:15.859Z</time></trkpt><trkpt lat="42.206925" lon="13.2594"><ele>947.8</ele><time>2026-05-02T16:07:16.859Z</time></trkpt><trkpt lat="42.2069517" lon="13.2592833"><ele>949.4</ele><time>2026-05-02T16:07:17.859Z</time></trkpt><trkpt lat="42.2070033" lon="13.25915"><ele>951.0</ele><time>2026-05-02T16:07:18.859Z</time></trkpt><trkpt lat="42.207065" lon="13.2589983"><ele>951.0</ele><time>2026-05-02T16:07:19.859Z</time></trkpt><trkpt lat="42.207125" lon="13.258855"><ele>951.0</ele><time>2026-05-02T16:07:20.859Z</time></trkpt><trkpt lat="42.2071867" lon="13.2587"><ele>951.0</ele><time>2026-05-02T16:07:21.859Z</time></trkpt><trkpt lat="42.2072283" lon="13.258535"><ele>951.0</ele><time>2026-05-02T16:07:22.859Z</time></trkpt><trkpt lat="42.2072467" lon="13.2583733"><ele>951.0</ele><time>2026-05-02T16:07:23.859Z</time></trkpt><trkpt lat="42.207265" lon="13.2582183"><ele>950.9999999999999</ele><time>2026-05-02T16:07:24.859Z</time></trkpt><trkpt lat="42.2072783" lon="13.2580783"><ele>950.9999999999999</ele><time>2026-05-02T16:07:25.86Z</time></trkpt><trkpt lat="42.2072817" lon="13.25795"><ele>951.0</ele><time>2026-05-02T16:07:26.859Z</time></trkpt><trkpt lat="42.20729" lon="13.2578283"><ele>951.0</ele><time>2026-05-02T16:07:27.859Z</time></trkpt><trkpt lat="42.20728" lon="13.257705"><ele>954.75</ele><time>2026-05-02T16:07:28.86Z</time></trkpt><trkpt lat="42.2072333" lon="13.2575933"><ele>958.5</ele><time>2026-05-02T16:07:29.86Z</time></trkpt><trkpt lat="42.2071583" lon="13.2574767"><ele>962.25</ele><time>2026-05-02T16:07:30.86Z</time></trkpt><trkpt lat="42.207065" lon="13.2573533"><ele>966.0</ele><time>2026-05-02T16:07:31.859Z</time></trkpt><trkpt lat="42.2069667" lon="13.257235"><ele>971.25</ele><time>2026-05-02T16:07:32.86Z</time></trkpt><trkpt lat="42.2068767" lon="13.257115"><ele>976.5</ele><time>2026-05-02T16:07:33.859Z</time></trkpt><trkpt lat="42.20679" lon="13.2570017"><ele>981.75</ele><time>2026-05-02T16:07:34.86Z</time></trkpt><trkpt lat="42.20672" lon="13.2568967"><ele>987.0</ele><time>2026-05-02T16:07:35.859Z</time></trkpt><trkpt lat="42.2066567" lon="13.2567883"><ele>987.0</ele><time>2026-05-02T16:07:36.859Z</time></trkpt><trkpt lat="42.20661" lon="13.2566617"><ele>987.0</ele><time>2026-05-02T16:07:37.86Z</time></trkpt><trkpt lat="42.2065633" lon="13.2565183"><ele>987.0</ele><time>2026-05-02T16:07:38.859Z</time></trkpt><trkpt lat="42.206525" lon="13.2563717"><ele>987.0</ele><time>2026-05-02T16:07:39.859Z</time></trkpt><trkpt lat="42.2064883" lon="13.2562133"><ele>984.0</ele><time>2026-05-02T16:07:40.859Z</time></trkpt><trkpt lat="42.2064667" lon="13.2560617"><ele>981.0</ele><time>2026-05-02T16:07:41.859Z</time></trkpt><trkpt lat="42.20645" lon="13.2559067"><ele>978.0</ele><time>2026-05-02T16:07:42.859Z</time></trkpt><trkpt lat="42.2064467" lon="13.255745"><ele>975.0</ele><time>2026-05-02T16:07:43.86Z</time></trkpt><trkpt lat="42.2064517" lon="13.255595"><ele>975.0</ele><time>2026-05-02T16:07:44.859Z</time></trkpt><trkpt lat="42.2064583" lon="13.2554467"><ele>975.0</ele><time>2026-05-02T16:07:45.86Z</time></trkpt><trkpt lat="42.2064717" lon="13.2552967"><ele>975.0</ele><time>2026-05-02T16:07:46.859Z</time></trkpt><trkpt lat="42.206485" lon="13.25514"><ele>975.0</ele><time>2026-05-02T16:07:47.86Z</time></trkpt><trkpt lat="42.20648" lon="13.2549833"><ele>975.0</ele><time>2026-05-02T16:07:48.859Z</time></trkpt><trkpt lat="42.206475" lon="13.2548233"><ele>975.0</ele><time>2026-05-02T16:07:49.86Z</time></trkpt><trkpt lat="42.2064567" lon="13.2546633"><ele>975.0</ele><time>2026-05-02T16:07:50.859Z</time></trkpt><trkpt lat="42.2064333" lon="13.2544933"><ele>975.0</ele><time>2026-05-02T16:07:51.859Z</time></trkpt><trkpt lat="42.2064133" lon="13.2543433"><ele>974.8</ele><time>2026-05-02T16:07:52.859Z</time></trkpt><trkpt lat="42.206405" lon="13.2542017"><ele>974.6</ele><time>2026-05-02T16:07:53.859Z</time></trkpt><trkpt lat="42.2064133" lon="13.2540517"><ele>974.4000000000001</ele><time>2026-05-02T16:07:54.86Z</time></trkpt><trkpt lat="42.20643" lon="13.2539017"><ele>974.2</ele><time>2026-05-02T16:07:55.86Z</time></trkpt><trkpt lat="42.2064533" lon="13.25375"><ele>974.0</ele><time>2026-05-02T16:07:56.86Z</time></trkpt><trkpt lat="42.2064983" lon="13.2535883"><ele>981.25</ele><time>2026-05-02T16:07:57.859Z</time></trkpt><trkpt lat="42.2065459" lon="13.2534367"><ele>988.5</ele><time>2026-05-02T16:07:58.86Z</time></trkpt><trkpt lat="42.2066021" lon="13.2532877"><ele>995.75</ele><time>2026-05-02T16:07:59.859Z</time></trkpt><trkpt lat="42.2066605" lon="13.253142"><ele>1003.0</ele><time>2026-05-02T16:08:00.86Z</time></trkpt><trkpt lat="42.2067113" lon="13.2529944"><ele>1002.9999999999999</ele><time>2026-05-02T16:08:01.86Z</time></trkpt><trkpt lat="42.2067498" lon="13.2528552"><ele>1003.0</ele><time>2026-05-02T16:08:02.86Z</time></trkpt><trkpt lat="42.2067859" lon="13.2527328"><ele>1003.0</ele><time>2026-05-02T16:08:03.859Z</time></trkpt><trkpt lat="42.2068115" lon="13.2526446"><ele>1003.0</ele><time>2026-05-02T16:08:04.86Z</time></trkpt><trkpt lat="42.2068567" lon="13.2525788"><ele>1002.9999999999999</ele><time>2026-05-02T16:08:06.859Z</time></trkpt><trkpt lat="42.2068846" lon="13.2526562"><ele>1003.0</ele><time>2026-05-02T16:08:09.86Z</time></trkpt><trkpt lat="42.2068604" lon="13.2527892"><ele>1003.0</ele><time>2026-05-02T16:08:11.859Z</time></trkpt><trkpt lat="42.2068452" lon="13.2528719"><ele>1002.9999999999999</ele><time>2026-05-02T16:08:12.86Z</time></trkpt><trkpt lat="42.2068333" lon="13.2529599"><ele>1003.0</ele><time>2026-05-02T16:08:13.86Z</time></trkpt><trkpt lat="42.2068195" lon="13.253053"><ele>1003.0</ele><time>2026-05-02T16:08:14.859Z</time></trkpt><trkpt lat="42.2068053" lon="13.2531561"><ele>1002.9999999999999</ele><time>2026-05-02T16:08:15.859Z</time></trkpt><trkpt lat="42.2067949" lon="13.2532697"><ele>1003.0</ele><time>2026-05-02T16:08:16.859Z</time></trkpt><trkpt lat="42.206798" lon="13.2533842"><ele>1003.0</ele><time>2026-05-02T16:08:17.859Z</time></trkpt><trkpt lat="42.2068084" lon="13.2534989"><ele>1003.8333333333333</ele><time>2026-05-02T16:08:18.859Z</time></trkpt><trkpt lat="42.2068249" lon="13.2536066"><ele>1004.6666666666666</ele><time>2026-05-02T16:08:19.86Z</time></trkpt><trkpt lat="42.206837" lon="13.253708"><ele>1005.5</ele><time>2026-05-02T16:08:20.859Z</time></trkpt><trkpt lat="42.2068465" lon="13.2537965"><ele>1006.3333333333333</ele><time>2026-05-02T16:08:21.859Z</time></trkpt><trkpt lat="42.2068769" lon="13.2539455"><ele>1007.1666666666666</ele><time>2026-05-02T16:08:23.86Z</time></trkpt><trkpt lat="42.2069107" lon="13.2540258"><ele>1008.0</ele><time>2026-05-02T16:08:24.86Z</time></trkpt><trkpt lat="42.2069548" lon="13.2541157"><ele>1008.5</ele><time>2026-05-02T16:08:25.86Z</time></trkpt><trkpt lat="42.2069986" lon="13.2542138"><ele>1009.0</ele><time>2026-05-02T16:08:26.86Z</time></trkpt><trkpt lat="42.2070364" lon="13.2543134"><ele>1009.5</ele><time>2026-05-02T16:08:27.86Z</time></trkpt><trkpt lat="42.2070653" lon="13.254433"><ele>1010.0</ele><time>2026-05-02T16:08:28.86Z</time></trkpt><trkpt lat="42.2070915" lon="13.2545517"><ele>1010.5</ele><time>2026-05-02T16:08:29.859Z</time></trkpt><trkpt lat="42.2071271" lon="13.2546621"><ele>1011.0</ele><time>2026-05-02T16:08:30.859Z</time></trkpt><trkpt lat="42.2071562" lon="13.2547827"><ele>1010.0</ele><time>2026-05-02T16:08:31.859Z</time></trkpt><trkpt lat="42.2071889" lon="13.2549179"><ele>1008.9999999999999</ele><time>2026-05-02T16:08:32.859Z</time></trkpt><trkpt lat="42.2072257" lon="13.2550463"><ele>1007.9999999999999</ele><time>2026-05-02T16:08:33.859Z</time></trkpt><trkpt lat="42.2072569" lon="13.2551949"><ele>1007.0</ele><time>2026-05-02T16:08:34.86Z</time></trkpt><trkpt lat="42.2072828" lon="13.2553517"><ele>1006.0</ele><time>2026-05-02T16:08:35.86Z</time></trkpt><trkpt lat="42.2073155" lon="13.2555025"><ele>1013.75</ele><time>2026-05-02T16:08:36.859Z</time></trkpt><trkpt lat="42.2073471" lon="13.2556614"><ele>1021.5</ele><time>2026-05-02T16:08:37.859Z</time></trkpt><trkpt lat="42.2073857" lon="13.255811"><ele>1029.25</ele><time>2026-05-02T16:08:38.859Z</time></trkpt><trkpt lat="42.207422" lon="13.2559529"><ele>1037.0</ele><time>2026-05-02T16:08:39.859Z</time></trkpt><trkpt lat="42.2074563" lon="13.2560871"><ele>1037.0</ele><time>2026-05-02T16:08:40.859Z</time></trkpt><trkpt lat="42.2074977" lon="13.2562026"><ele>1037.0</ele><time>2026-05-02T16:08:41.859Z</time></trkpt><trkpt lat="42.2075481" lon="13.2563042"><ele>1037.0</ele><time>2026-05-02T16:08:42.86Z</time></trkpt><trkpt lat="42.2076137" lon="13.2563964"><ele>1037.0</ele><time>2026-05-02T16:08:43.859Z</time></trkpt><trkpt lat="42.2076951" lon="13.2564862"><ele>1037.0</ele><time>2026-05-02T16:08:44.86Z</time></trkpt><trkpt lat="42.2077799" lon="13.2565806"><ele>1033.25</ele><time>2026-05-02T16:08:45.859Z</time></trkpt><trkpt lat="42.2078715" lon="13.2566832"><ele>1029.5</ele><time>2026-05-02T16:08:46.86Z</time></trkpt><trkpt lat="42.2079573" lon="13.2567795"><ele>1025.75</ele><time>2026-05-02T16:08:47.859Z</time></trkpt><trkpt lat="42.2080371" lon="13.2568826"><ele>1022.0</ele><time>2026-05-02T16:08:48.86Z</time></trkpt><trkpt lat="42.2081103" lon="13.2569908"><ele>1026.8</ele><time>2026-05-02T16:08:49.86Z</time></trkpt><trkpt lat="42.2081787" lon="13.2571045"><ele>1031.6</ele><time>2026-05-02T16:08:50.86Z</time></trkpt><trkpt lat="42.2082432" lon="13.2572201"><ele>1036.3999999999999</ele><time>2026-05-02T16:08:51.859Z</time></trkpt><trkpt lat="42.2083028" lon="13.2573439"><ele>1041.2</ele><time>2026-05-02T16:08:52.859Z</time></trkpt><trkpt lat="42.2083468" lon="13.2574789"><ele>1046.0</ele><time>2026-05-02T16:08:53.86Z</time></trkpt><trkpt lat="42.2083816" lon="13.2576285"><ele>1046.0</ele><time>2026-05-02T16:08:54.86Z</time></trkpt><trkpt lat="42.2084028" lon="13.2577873"><ele>1046.0</ele><time>2026-05-02T16:08:55.859Z</time></trkpt><trkpt lat="42.2084152" lon="13.2579571"><ele>1046.0</ele><time>2026-05-02T16:08:56.86Z</time></trkpt><trkpt lat="42.2084239" lon="13.2581373"><ele>1046.0</ele><time>2026-05-02T16:08:57.859Z</time></trkpt><trkpt lat="42.208437" lon="13.2583106"><ele>1044.6</ele><time>2026-05-02T16:08:58.859Z</time></trkpt><trkpt lat="42.2084532" lon="13.2584695"><ele>1043.1999999999998</ele><time>2026-05-02T16:08:59.859Z</time></trkpt><trkpt lat="42.2084748" lon="13.2586123"><ele>1041.8000000000002</ele><time>2026-05-02T16:09:00.859Z</time></trkpt><trkpt lat="42.2084987" lon="13.2587361"><ele>1040.4</ele><time>2026-05-02T16:09:01.86Z</time></trkpt><trkpt lat="42.2085304" lon="13.2588361"><ele>1039.0</ele><time>2026-05-02T16:09:02.86Z</time></trkpt><trkpt lat="42.2085661" lon="13.2589167"><ele>1037.8333333333333</ele><time>2026-05-02T16:09:03.859Z</time></trkpt><trkpt lat="42.2086127" lon="13.2589837"><ele>1036.6666666666665</ele><time>2026-05-02T16:09:04.859Z</time></trkpt><trkpt lat="42.2086726" lon="13.2590367"><ele>1035.5</ele><time>2026-05-02T16:09:05.859Z</time></trkpt><trkpt lat="42.208746" lon="13.2590709"><ele>1034.3333333333333</ele><time>2026-05-02T16:09:06.859Z</time></trkpt><trkpt lat="42.2088355" lon="13.2590914"><ele>1033.1666666666667</ele><time>2026-05-02T16:09:07.859Z</time></trkpt><trkpt lat="42.2089385" lon="13.259109"><ele>1032.0</ele><time>2026-05-02T16:09:08.86Z</time></trkpt><trkpt lat="42.2090501" lon="13.2591305"><ele>1039.0</ele><time>2026-05-02T16:09:09.86Z</time></trkpt><trkpt lat="42.2091641" lon="13.2591539"><ele>1046.0</ele><time>2026-05-02T16:09:10.86Z</time></trkpt><trkpt lat="42.20928" lon="13.2591785"><ele>1053.0</ele><time>2026-05-02T16:09:11.86Z</time></trkpt><trkpt lat="42.2094014" lon="13.2592059"><ele>1060.0</ele><time>2026-05-02T16:09:12.86Z</time></trkpt><trkpt lat="42.2095193" lon="13.2592329"><ele>1060.0</ele><time>2026-05-02T16:09:13.859Z</time></trkpt><trkpt lat="42.2096378" lon="13.2592606"><ele>1060.0</ele><time>2026-05-02T16:09:14.859Z</time></trkpt><trkpt lat="42.2097598" lon="13.2592928"><ele>1060.0</ele><time>2026-05-02T16:09:15.86Z</time></trkpt><trkpt lat="42.2098804" lon="13.2593459"><ele>1060.0</ele><time>2026-05-02T16:09:16.86Z</time></trkpt><trkpt lat="42.2099981" lon="13.2594095"><ele>1058.75</ele><time>2026-05-02T16:09:17.859Z</time></trkpt><trkpt lat="42.2101106" lon="13.2594853"><ele>1057.5</ele><time>2026-05-02T16:09:18.859Z</time></trkpt><trkpt lat="42.2102202" lon="13.259575"><ele>1056.25</ele><time>2026-05-02T16:09:19.86Z</time></trkpt><trkpt lat="42.21033" lon="13.2596801"><ele>1055.0</ele><time>2026-05-02T16:09:20.86Z</time></trkpt><trkpt lat="42.2104385" lon="13.2597966"><ele>1055.0</ele><time>2026-05-02T16:09:21.859Z</time></trkpt><trkpt lat="42.2105343" lon="13.2599247"><ele>1055.0</ele><time>2026-05-02T16:09:22.859Z</time></trkpt><trkpt lat="42.2106197" lon="13.2600506"><ele>1055.0</ele><time>2026-05-02T16:09:23.86Z</time></trkpt><trkpt lat="42.2106904" lon="13.2601754"><ele>1055.0</ele><time>2026-05-02T16:09:24.86Z</time></trkpt><trkpt lat="42.2107599" lon="13.2603004"><ele>1058.0</ele><time>2026-05-02T16:09:25.86Z</time></trkpt><trkpt lat="42.2108372" lon="13.2604231"><ele>1061.0</ele><time>2026-05-02T16:09:26.86Z</time></trkpt><trkpt lat="42.2109191" lon="13.2605384"><ele>1064.0</ele><time>2026-05-02T16:09:27.86Z</time></trkpt><trkpt lat="42.2110109" lon="13.2606409"><ele>1067.0</ele><time>2026-05-02T16:09:28.86Z</time></trkpt><trkpt lat="42.2111091" lon="13.2607275"><ele>1067.0</ele><time>2026-05-02T16:09:29.86Z</time></trkpt><trkpt lat="42.2112122" lon="13.2608033"><ele>1067.0</ele><time>2026-05-02T16:09:30.86Z</time></trkpt><trkpt lat="42.2113208" lon="13.2608641"><ele>1067.0</ele><time>2026-05-02T16:09:31.859Z</time></trkpt><trkpt lat="42.2114331" lon="13.2609107"><ele>1067.0</ele><time>2026-05-02T16:09:32.859Z</time></trkpt><trkpt lat="42.2115411" lon="13.2609383"><ele>1073.8</ele><time>2026-05-02T16:09:33.859Z</time></trkpt><trkpt lat="42.2116477" lon="13.2609622"><ele>1080.6</ele><time>2026-05-02T16:09:34.86Z</time></trkpt><trkpt lat="42.211746" lon="13.2610059"><ele>1087.3999999999999</ele><time>2026-05-02T16:09:35.86Z</time></trkpt><trkpt lat="42.211832" lon="13.2610652"><ele>1094.2</ele><time>2026-05-02T16:09:36.859Z</time></trkpt><trkpt lat="42.2119075" lon="13.2611271"><ele>1101.0</ele><time>2026-05-02T16:09:37.859Z</time></trkpt><trkpt lat="42.2119686" lon="13.2611817"><ele>1101.0</ele><time>2026-05-02T16:09:38.859Z</time></trkpt><trkpt lat="42.21204" lon="13.2612183"><ele>1101.0</ele><time>2026-05-02T16:09:39.86Z</time></trkpt><trkpt lat="42.2121196" lon="13.2612366"><ele>1101.0</ele><time>2026-05-02T16:09:40.859Z</time></trkpt><trkpt lat="42.2122107" lon="13.2612385"><ele>1101.0</ele><time>2026-05-02T16:09:41.86Z</time></trkpt><trkpt lat="42.2123117" lon="13.2612216"><ele>1101.0</ele><time>2026-05-02T16:09:42.86Z</time></trkpt><trkpt lat="42.2124068" lon="13.2611989"><ele>1101.0</ele><time>2026-05-02T16:09:43.859Z</time></trkpt><trkpt lat="42.2124863" lon="13.2611818"><ele>1100.6</ele><time>2026-05-02T16:09:44.859Z</time></trkpt><trkpt lat="42.2125544" lon="13.2611909"><ele>1100.1999999999998</ele><time>2026-05-02T16:09:45.86Z</time></trkpt><trkpt lat="42.2126554" lon="13.2612815"><ele>1099.8000000000002</ele><time>2026-05-02T16:09:47.86Z</time></trkpt><trkpt lat="42.2126988" lon="13.2613884"><ele>1099.4</ele><time>2026-05-02T16:09:48.86Z</time></trkpt><trkpt lat="42.2127405" lon="13.2615133"><ele>1099.0</ele><time>2026-05-02T16:09:49.859Z</time></trkpt><trkpt lat="42.2127821" lon="13.2616287"><ele>1099.0</ele><time>2026-05-02T16:09:50.86Z</time></trkpt><trkpt lat="42.212823" lon="13.2617351"><ele>1099.0</ele><time>2026-05-02T16:09:51.859Z</time></trkpt><trkpt lat="42.2128749" lon="13.2618281"><ele>1099.0</ele><time>2026-05-02T16:09:52.859Z</time></trkpt><trkpt lat="42.2129353" lon="13.2619041"><ele>1099.0</ele><time>2026-05-02T16:09:53.86Z</time></trkpt><trkpt lat="42.2129951" lon="13.2619721"><ele>1099.0</ele><time>2026-05-02T16:09:54.86Z</time></trkpt><trkpt lat="42.2130537" lon="13.2620388"><ele>1099.0</ele><time>2026-05-02T16:09:55.86Z</time></trkpt><trkpt lat="42.2131106" lon="13.2621144"><ele>1100.6000000000001</ele><time>2026-05-02T16:09:56.859Z</time></trkpt><trkpt lat="42.2131687" lon="13.262204"><ele>1102.2</ele><time>2026-05-02T16:09:57.859Z</time></trkpt><trkpt lat="42.2132366" lon="13.2622897"><ele>1103.8000000000002</ele><time>2026-05-02T16:09:58.86Z</time></trkpt><trkpt lat="42.2133125" lon="13.2623617"><ele>1105.4</ele><time>2026-05-02T16:09:59.859Z</time></trkpt><trkpt lat="42.2133996" lon="13.2624367"><ele>1107.0</ele><time>2026-05-02T16:10:00.859Z</time></trkpt><trkpt lat="42.2135001" lon="13.2625194"><ele>1107.0</ele><time>2026-05-02T16:10:01.86Z</time></trkpt><trkpt lat="42.2135961" lon="13.2626081"><ele>1107.0</ele><time>2026-05-02T16:10:02.859Z</time></trkpt><trkpt lat="42.2136871" lon="13.2626916"><ele>1107.0</ele><time>2026-05-02T16:10:03.86Z</time></trkpt><trkpt lat="42.2137757" lon="13.262768"><ele>1107.0</ele><time>2026-05-02T16:10:04.86Z</time></trkpt><trkpt lat="42.213861" lon="13.2628433"><ele>1107.0</ele><time>2026-05-02T16:10:05.859Z</time></trkpt><trkpt lat="42.2139524" lon="13.2629045"><ele>1108.0</ele><time>2026-05-02T16:10:06.86Z</time></trkpt><trkpt lat="42.2140619" lon="13.2629603"><ele>1109.0</ele><time>2026-05-02T16:10:07.86Z</time></trkpt><trkpt lat="42.2141696" lon="13.2629718"><ele>1110.0</ele><time>2026-05-02T16:10:08.859Z</time></trkpt><trkpt lat="42.2142762" lon="13.262995"><ele>1111.0</ele><time>2026-05-02T16:10:09.86Z</time></trkpt><trkpt lat="42.2143793" lon="13.2630124"><ele>1112.0</ele><time>2026-05-02T16:10:10.86Z</time></trkpt><trkpt lat="42.2144848" lon="13.2630235"><ele>1112.0</ele><time>2026-05-02T16:10:11.859Z</time></trkpt><trkpt lat="42.2145864" lon="13.2630162"><ele>1112.0</ele><time>2026-05-02T16:10:12.859Z</time></trkpt><trkpt lat="42.2146892" lon="13.2630074"><ele>1112.0</ele><time>2026-05-02T16:10:13.86Z</time></trkpt><trkpt lat="42.2147983" lon="13.2630027"><ele>1112.0</ele><time>2026-05-02T16:10:14.86Z</time></trkpt><trkpt lat="42.2149072" lon="13.2630018"><ele>1112.0</ele><time>2026-05-02T16:10:15.859Z</time></trkpt><trkpt lat="42.2150169" lon="13.2630176"><ele>1110.0</ele><time>2026-05-02T16:10:16.86Z</time></trkpt><trkpt lat="42.215114" lon="13.2630525"><ele>1108.0</ele><time>2026-05-02T16:10:17.86Z</time></trkpt><trkpt lat="42.2152153" lon="13.2631042"><ele>1106.0</ele><time>2026-05-02T16:10:18.859Z</time></trkpt><trkpt lat="42.2153126" lon="13.2631717"><ele>1104.0</ele><time>2026-05-02T16:10:19.86Z</time></trkpt><trkpt lat="42.2154033" lon="13.2632546"><ele>1102.0</ele><time>2026-05-02T16:10:20.86Z</time></trkpt><trkpt lat="42.2154861" lon="13.2633357"><ele>1101.3333333333333</ele><time>2026-05-02T16:10:21.859Z</time></trkpt><trkpt lat="42.2155574" lon="13.263418"><ele>1100.6666666666665</ele><time>2026-05-02T16:10:22.86Z</time></trkpt><trkpt lat="42.2156121" lon="13.2634984"><ele>1100.0</ele><time>2026-05-02T16:10:23.86Z</time></trkpt><trkpt lat="42.2156266" lon="13.2636349"><ele>1099.3333333333333</ele><time>2026-05-02T16:10:25.859Z</time></trkpt><trkpt lat="42.2155659" lon="13.2637485"><ele>1098.6666666666667</ele><time>2026-05-02T16:10:27.86Z</time></trkpt><trkpt lat="42.2155082" lon="13.2637983"><ele>1098.0</ele><time>2026-05-02T16:10:28.86Z</time></trkpt><trkpt lat="42.2154491" lon="13.2638489"><ele>1098.0</ele><time>2026-05-02T16:10:29.86Z</time></trkpt><trkpt lat="42.215389" lon="13.2639574"><ele>1098.0</ele><time>2026-05-02T16:10:31.859Z</time></trkpt><trkpt lat="42.2153967" lon="13.264052"><ele>1098.0</ele><time>2026-05-02T16:10:33.86Z</time></trkpt><trkpt lat="42.2154584" lon="13.2641301"><ele>1098.0</ele><time>2026-05-02T16:10:35.859Z</time></trkpt><trkpt lat="42.2155828" lon="13.2642046"><ele>1098.0</ele><time>2026-05-02T16:10:37.859Z</time></trkpt><trkpt lat="42.2156574" lon="13.2642182"><ele>1100.5</ele><time>2026-05-02T16:10:38.859Z</time></trkpt><trkpt lat="42.2157409" lon="13.2642156"><ele>1103.0</ele><time>2026-05-02T16:10:39.859Z</time></trkpt><trkpt lat="42.2158228" lon="13.2642062"><ele>1105.5</ele><time>2026-05-02T16:10:40.859Z</time></trkpt><trkpt lat="42.2158883" lon="13.264205"><ele>1108.0</ele><time>2026-05-02T16:10:41.86Z</time></trkpt><trkpt lat="42.2159719" lon="13.2642282"><ele>1110.5</ele><time>2026-05-02T16:10:43.859Z</time></trkpt><trkpt lat="42.216039" lon="13.2642987"><ele>1113.0</ele><time>2026-05-02T16:10:45.86Z</time></trkpt><trkpt lat="42.216108" lon="13.2644214"><ele>1113.0</ele><time>2026-05-02T16:10:47.86Z</time></trkpt><trkpt lat="42.2161321" lon="13.2645068"><ele>1113.0</ele><time>2026-05-02T16:10:48.859Z</time></trkpt><trkpt lat="42.2161532" lon="13.2646149"><ele>1113.0</ele><time>2026-05-02T16:10:49.859Z</time></trkpt><trkpt lat="42.2161748" lon="13.2647274"><ele>1113.0</ele><time>2026-05-02T16:10:50.859Z</time></trkpt><trkpt lat="42.2161821" lon="13.2648338"><ele>1113.0</ele><time>2026-05-02T16:10:51.86Z</time></trkpt><trkpt lat="42.2161739" lon="13.2649357"><ele>1113.0</ele><time>2026-05-02T16:10:52.86Z</time></trkpt><trkpt lat="42.2161613" lon="13.2650409"><ele>1114.5</ele><time>2026-05-02T16:10:53.859Z</time></trkpt><trkpt lat="42.216155" lon="13.2651456"><ele>1116.0</ele><time>2026-05-02T16:10:54.859Z</time></trkpt><trkpt lat="42.2161649" lon="13.2652413"><ele>1117.5</ele><time>2026-05-02T16:10:55.859Z</time></trkpt><trkpt lat="42.2161936" lon="13.265326"><ele>1119.0</ele><time>2026-05-02T16:10:56.859Z</time></trkpt><trkpt lat="42.216239" lon="13.2654094"><ele>1120.5</ele><time>2026-05-02T16:10:57.859Z</time></trkpt><trkpt lat="42.2163092" lon="13.2654783"><ele>1122.0</ele><time>2026-05-02T16:10:58.859Z</time></trkpt><trkpt lat="42.2163859" lon="13.2655581"><ele>1121.6</ele><time>2026-05-02T16:10:59.859Z</time></trkpt><trkpt lat="42.2164551" lon="13.2656365"><ele>1121.2</ele><time>2026-05-02T16:11:00.86Z</time></trkpt><trkpt lat="42.2165223" lon="13.265718"><ele>1120.8</ele><time>2026-05-02T16:11:01.859Z</time></trkpt><trkpt lat="42.2165933" lon="13.2657915"><ele>1120.4</ele><time>2026-05-02T16:11:02.86Z</time></trkpt><trkpt lat="42.2166736" lon="13.2658515"><ele>1120.0</ele><time>2026-05-02T16:11:03.859Z</time></trkpt><trkpt lat="42.2167545" lon="13.2659011"><ele>1120.0</ele><time>2026-05-02T16:11:04.86Z</time></trkpt><trkpt lat="42.2168396" lon="13.2659452"><ele>1120.0</ele><time>2026-05-02T16:11:05.859Z</time></trkpt><trkpt lat="42.2169317" lon="13.2659845"><ele>1120.0</ele><time>2026-05-02T16:11:06.86Z</time></trkpt><trkpt lat="42.2170234" lon="13.2660143"><ele>1120.0</ele><time>2026-05-02T16:11:07.86Z</time></trkpt><trkpt lat="42.2171117" lon="13.2660292"><ele>1120.0</ele><time>2026-05-02T16:11:08.859Z</time></trkpt><trkpt lat="42.2172764" lon="13.2660573"><ele>1118.3333333333333</ele><time>2026-05-02T16:11:10.859Z</time></trkpt><trkpt lat="42.2173467" lon="13.2660678"><ele>1116.6666666666665</ele><time>2026-05-02T16:11:11.859Z</time></trkpt><trkpt lat="42.2174186" lon="13.2660757"><ele>1115.0</ele><time>2026-05-02T16:11:12.86Z</time></trkpt><trkpt lat="42.2174906" lon="13.2660686"><ele>1113.3333333333333</ele><time>2026-05-02T16:11:13.86Z</time></trkpt><trkpt lat="42.2175598" lon="13.2660634"><ele>1111.6666666666667</ele><time>2026-05-02T16:11:14.859Z</time></trkpt><trkpt lat="42.217667" lon="13.2660936"><ele>1110.0</ele><time>2026-05-02T16:11:16.859Z</time></trkpt><trkpt lat="42.2177562" lon="13.2661735"><ele>1110.0</ele><time>2026-05-02T16:11:18.86Z</time></trkpt><trkpt lat="42.2178086" lon="13.2662213"><ele>1110.0</ele><time>2026-05-02T16:11:19.859Z</time></trkpt><trkpt lat="42.2178625" lon="13.2662659"><ele>1110.0</ele><time>2026-05-02T16:11:20.859Z</time></trkpt><trkpt lat="42.217963" lon="13.2663111"><ele>1110.0</ele><time>2026-05-02T16:11:22.86Z</time></trkpt><trkpt lat="42.218045" lon="13.2662603"><ele>1110.0</ele><time>2026-05-02T16:11:24.859Z</time></trkpt><trkpt lat="42.2180822" lon="13.2661356"><ele>1110.0</ele><time>2026-05-02T16:11:26.86Z</time></trkpt><trkpt lat="42.2181263" lon="13.2660118"><ele>1110.5</ele><time>2026-05-02T16:11:28.859Z</time></trkpt><trkpt lat="42.2182194" lon="13.2659026"><ele>1111.0</ele><time>2026-05-02T16:11:30.86Z</time></trkpt><trkpt lat="42.2182814" lon="13.2658629"><ele>1111.5</ele><time>2026-05-02T16:11:31.859Z</time></trkpt><trkpt lat="42.218359" lon="13.2658412"><ele>1112.0</ele><time>2026-05-02T16:11:32.86Z</time></trkpt><trkpt lat="42.2184364" lon="13.2658368"><ele>1112.5</ele><time>2026-05-02T16:11:33.859Z</time></trkpt><trkpt lat="42.2185151" lon="13.2658324"><ele>1113.0</ele><time>2026-05-02T16:11:34.86Z</time></trkpt><trkpt lat="42.218595" lon="13.2658104"><ele>1113.0</ele><time>2026-05-02T16:11:35.859Z</time></trkpt><trkpt lat="42.2186878" lon="13.265771"><ele>1113.0</ele><time>2026-05-02T16:11:36.86Z</time></trkpt><trkpt lat="42.2187994" lon="13.2657086"><ele>1113.0</ele><time>2026-05-02T16:11:37.859Z</time></trkpt><trkpt lat="42.218913" lon="13.2656547"><ele>1113.0</ele><time>2026-05-02T16:11:38.86Z</time></trkpt><trkpt lat="42.2190197" lon="13.2656116"><ele>1113.6</ele><time>2026-05-02T16:11:39.859Z</time></trkpt><trkpt lat="42.2191224" lon="13.2655687"><ele>1114.1999999999998</ele><time>2026-05-02T16:11:40.86Z</time></trkpt><trkpt lat="42.2192136" lon="13.2655044"><ele>1114.8</ele><time>2026-05-02T16:11:41.859Z</time></trkpt><trkpt lat="42.2193024" lon="13.2654177"><ele>1115.3999999999999</ele><time>2026-05-02T16:11:42.86Z</time></trkpt><trkpt lat="42.2193963" lon="13.2653256"><ele>1116.0</ele><time>2026-05-02T16:11:43.86Z</time></trkpt><trkpt lat="42.2195057" lon="13.2652348"><ele>1116.0</ele><time>2026-05-02T16:11:44.86Z</time></trkpt><trkpt lat="42.2196112" lon="13.2651511"><ele>1116.0</ele><time>2026-05-02T16:11:45.86Z</time></trkpt><trkpt lat="42.2197021" lon="13.2650584"><ele>1116.0</ele><time>2026-05-02T16:11:46.859Z</time></trkpt><trkpt lat="42.2197758" lon="13.2649462"><ele>1116.0</ele><time>2026-05-02T16:11:47.86Z</time></trkpt><trkpt lat="42.2198367" lon="13.2648214"><ele>1117.1666666666667</ele><time>2026-05-02T16:11:48.86Z</time></trkpt><trkpt lat="42.2198912" lon="13.2647057"><ele>1118.3333333333333</ele><time>2026-05-02T16:11:49.859Z</time></trkpt><trkpt lat="42.2199435" lon="13.2646037"><ele>1119.5</ele><time>2026-05-02T16:11:50.859Z</time></trkpt><trkpt lat="42.220002" lon="13.2645226"><ele>1120.6666666666665</ele><time>2026-05-02T16:11:51.859Z</time></trkpt><trkpt lat="42.2200626" lon="13.2644567"><ele>1121.8333333333333</ele><time>2026-05-02T16:11:52.86Z</time></trkpt><trkpt lat="42.2201217" lon="13.2644125"><ele>1123.0</ele><time>2026-05-02T16:11:53.86Z</time></trkpt><trkpt lat="42.2202158" lon="13.2644316"><ele>1123.0</ele><time>2026-05-02T16:11:55.86Z</time></trkpt><trkpt lat="42.22026" lon="13.2645003"><ele>1123.0</ele><time>2026-05-02T16:11:56.859Z</time></trkpt><trkpt lat="42.2202977" lon="13.2645812"><ele>1123.0</ele><time>2026-05-02T16:11:57.859Z</time></trkpt><trkpt lat="42.2203443" lon="13.2646444"><ele>1123.0</ele><time>2026-05-02T16:11:58.859Z</time></trkpt><trkpt lat="42.2204073" lon="13.2646885"><ele>1123.0</ele><time>2026-05-02T16:11:59.86Z</time></trkpt><trkpt lat="42.2204878" lon="13.2647114"><ele>1123.0</ele><time>2026-05-02T16:12:00.859Z</time></trkpt><trkpt lat="42.22059" lon="13.2647255"><ele>1124.2</ele><time>2026-05-02T16:12:01.859Z</time></trkpt><trkpt lat="42.2206914" lon="13.2647354"><ele>1125.4</ele><time>2026-05-02T16:12:02.859Z</time></trkpt><trkpt lat="42.2208005" lon="13.2647477"><ele>1126.6000000000001</ele><time>2026-05-02T16:12:03.859Z</time></trkpt><trkpt lat="42.2209062" lon="13.2647708"><ele>1127.8</ele><time>2026-05-02T16:12:04.86Z</time></trkpt><trkpt lat="42.2210135" lon="13.2648105"><ele>1129.0</ele><time>2026-05-02T16:12:05.86Z</time></trkpt><trkpt lat="42.2211147" lon="13.2648806"><ele>1129.0</ele><time>2026-05-02T16:12:06.86Z</time></trkpt><trkpt lat="42.2212001" lon="13.264974"><ele>1129.0</ele><time>2026-05-02T16:12:07.859Z</time></trkpt><trkpt lat="42.2212818" lon="13.2650737"><ele>1129.0</ele><time>2026-05-02T16:12:08.859Z</time></trkpt><trkpt lat="42.2213478" lon="13.2651514"><ele>1129.0</ele><time>2026-05-02T16:12:09.859Z</time></trkpt><trkpt lat="42.2214371" lon="13.2652139"><ele>1129.0</ele><time>2026-05-02T16:12:11.859Z</time></trkpt><trkpt lat="42.2215432" lon="13.2651656"><ele>1127.75</ele><time>2026-05-02T16:12:13.859Z</time></trkpt><trkpt lat="42.2216307" lon="13.2650722"><ele>1126.5</ele><time>2026-05-02T16:12:14.86Z</time></trkpt><trkpt lat="42.2217273" lon="13.2649357"><ele>1125.25</ele><time>2026-05-02T16:12:15.86Z</time></trkpt><trkpt lat="42.2218235" lon="13.2647944"><ele>1124.0</ele><time>2026-05-02T16:12:16.859Z</time></trkpt><trkpt lat="42.2219083" lon="13.26466"><ele>1124.6000000000001</ele><time>2026-05-02T16:12:17.859Z</time></trkpt><trkpt lat="42.2219933" lon="13.26458"><ele>1125.2</ele><time>2026-05-02T16:12:18.859Z</time></trkpt><trkpt lat="42.222065" lon="13.2645233"><ele>1125.8000000000002</ele><time>2026-05-02T16:12:19.859Z</time></trkpt><trkpt lat="42.22215" lon="13.264465"><ele>1126.4</ele><time>2026-05-02T16:12:20.859Z</time></trkpt><trkpt lat="42.2222433" lon="13.2644117"><ele>1127.0</ele><time>2026-05-02T16:12:21.859Z</time></trkpt><trkpt lat="42.2223383" lon="13.2643483"><ele>1127.0</ele><time>2026-05-02T16:12:22.859Z</time></trkpt><trkpt lat="42.2224317" lon="13.26426"><ele>1127.0</ele><time>2026-05-02T16:12:23.859Z</time></trkpt><trkpt lat="42.222525" lon="13.26417"><ele>1127.0</ele><time>2026-05-02T16:12:24.859Z</time></trkpt><trkpt lat="42.2226167" lon="13.264115"><ele>1127.0</ele><time>2026-05-02T16:12:25.86Z</time></trkpt><trkpt lat="42.2227133" lon="13.2640633"><ele>1127.0</ele><time>2026-05-02T16:12:26.86Z</time></trkpt><trkpt lat="42.2228217" lon="13.264005"><ele>1127.0</ele><time>2026-05-02T16:12:27.86Z</time></trkpt><trkpt lat="42.2229267" lon="13.2639333"><ele>1127.0</ele><time>2026-05-02T16:12:28.859Z</time></trkpt><trkpt lat="42.223035" lon="13.2638517"><ele>1127.0</ele><time>2026-05-02T16:12:29.859Z</time></trkpt><trkpt lat="42.2231533" lon="13.2637833"><ele>1127.0</ele><time>2026-05-02T16:12:30.86Z</time></trkpt><trkpt lat="42.2232517" lon="13.2637067"><ele>1127.0</ele><time>2026-05-02T16:12:31.86Z</time></trkpt><trkpt lat="42.2233383" lon="13.2636233"><ele>1127.0</ele><time>2026-05-02T16:12:32.859Z</time></trkpt><trkpt lat="42.2234133" lon="13.2635467"><ele>1127.0</ele><time>2026-05-02T16:12:33.86Z</time></trkpt><trkpt lat="42.2234817" lon="13.2634683"><ele>1127.0</ele><time>2026-05-02T16:12:34.859Z</time></trkpt><trkpt lat="42.2235483" lon="13.263425"><ele>1127.0</ele><time>2026-05-02T16:12:35.859Z</time></trkpt><trkpt lat="42.2236533" lon="13.26338"><ele>1127.0</ele><time>2026-05-02T16:12:37.86Z</time></trkpt><trkpt lat="42.2237267" lon="13.2633867"><ele>1127.0</ele><time>2026-05-02T16:12:38.859Z</time></trkpt><trkpt lat="42.22382" lon="13.2634"><ele>1127.0</ele><time>2026-05-02T16:12:39.859Z</time></trkpt><trkpt lat="42.223925" lon="13.2634083"><ele>1127.0</ele><time>2026-05-02T16:12:40.86Z</time></trkpt><trkpt lat="42.2240367" lon="13.263435"><ele>1127.0</ele><time>2026-05-02T16:12:41.86Z</time></trkpt><trkpt lat="42.2241533" lon="13.2634533"><ele>1129.0</ele><time>2026-05-02T16:12:42.86Z</time></trkpt><trkpt lat="42.22428" lon="13.2634733"><ele>1131.0</ele><time>2026-05-02T16:12:43.859Z</time></trkpt><trkpt lat="42.2243917" lon="13.2634833"><ele>1133.0</ele><time>2026-05-02T16:12:44.859Z</time></trkpt><trkpt lat="42.2244933" lon="13.2635017"><ele>1135.0</ele><time>2026-05-02T16:12:45.859Z</time></trkpt><trkpt lat="42.2245967" lon="13.2635167"><ele>1137.0</ele><time>2026-05-02T16:12:46.86Z</time></trkpt><trkpt lat="42.2247117" lon="13.2635067"><ele>1139.0</ele><time>2026-05-02T16:12:47.859Z</time></trkpt><trkpt lat="42.2248383" lon="13.26347"><ele>1141.0</ele><time>2026-05-02T16:12:48.859Z</time></trkpt><trkpt lat="42.2249683" lon="13.2634167"><ele>1143.0</ele><time>2026-05-02T16:12:49.86Z</time></trkpt><trkpt lat="42.2250867" lon="13.2633883"><ele>1145.0</ele><time>2026-05-02T16:12:50.859Z</time></trkpt><trkpt lat="42.2251783" lon="13.2633717"><ele>1145.0</ele><time>2026-05-02T16:12:51.86Z</time></trkpt><trkpt lat="42.2252883" lon="13.2633683"><ele>1145.0</ele><time>2026-05-02T16:12:52.859Z</time></trkpt><trkpt lat="42.22539" lon="13.26337"><ele>1145.0</ele><time>2026-05-02T16:12:53.86Z</time></trkpt><trkpt lat="42.2254917" lon="13.2633433"><ele>1145.0</ele><time>2026-05-02T16:12:54.86Z</time></trkpt><trkpt lat="42.22559" lon="13.2633017"><ele>1145.0</ele><time>2026-05-02T16:12:55.859Z</time></trkpt><trkpt lat="42.2257067" lon="13.26324"><ele>1146.4</ele><time>2026-05-02T16:12:56.859Z</time></trkpt><trkpt lat="42.2258183" lon="13.2632067"><ele>1147.8</ele><time>2026-05-02T16:12:57.86Z</time></trkpt><trkpt lat="42.2259233" lon="13.2631783"><ele>1149.2</ele><time>2026-05-02T16:12:58.859Z</time></trkpt><trkpt lat="42.2260283" lon="13.2631683"><ele>1150.6</ele><time>2026-05-02T16:12:59.859Z</time></trkpt><trkpt lat="42.2261367" lon="13.2631767"><ele>1152.0</ele><time>2026-05-02T16:13:00.86Z</time></trkpt><trkpt lat="42.226235" lon="13.2631883"><ele>1152.0</ele><time>2026-05-02T16:13:01.859Z</time></trkpt><trkpt lat="42.2263283" lon="13.2632117"><ele>1152.0</ele><time>2026-05-02T16:13:02.86Z</time></trkpt><trkpt lat="42.2264167" lon="13.26324"><ele>1152.0</ele><time>2026-05-02T16:13:03.86Z</time></trkpt><trkpt lat="42.2264983" lon="13.2632867"><ele>1152.0</ele><time>2026-05-02T16:13:04.86Z</time></trkpt><trkpt lat="42.2265717" lon="13.2633617"><ele>1152.0</ele><time>2026-05-02T16:13:05.86Z</time></trkpt><trkpt lat="42.226635" lon="13.26344"><ele>1152.0</ele><time>2026-05-02T16:13:06.86Z</time></trkpt><trkpt lat="42.2266917" lon="13.2635275"><ele>1152.0</ele><time>2026-05-02T16:13:07.859Z</time></trkpt><trkpt lat="42.2267359" lon="13.2636275"><ele>1152.0</ele><time>2026-05-02T16:13:08.859Z</time></trkpt><trkpt lat="42.2267809" lon="13.2637352"><ele>1152.0</ele><time>2026-05-02T16:13:09.86Z</time></trkpt><trkpt lat="42.2268048" lon="13.2638456"><ele>1152.0</ele><time>2026-05-02T16:13:10.86Z</time></trkpt><trkpt lat="42.2268201" lon="13.2639544"><ele>1152.0</ele><time>2026-05-02T16:13:11.86Z</time></trkpt><trkpt lat="42.2268413" lon="13.2640447"><ele>1154.1666666666667</ele><time>2026-05-02T16:13:12.86Z</time></trkpt><trkpt lat="42.2269092" lon="13.2641886"><ele>1156.3333333333333</ele><time>2026-05-02T16:13:14.859Z</time></trkpt><trkpt lat="42.226951" lon="13.2642684"><ele>1158.5</ele><time>2026-05-02T16:13:15.859Z</time></trkpt><trkpt lat="42.2269965" lon="13.2643478"><ele>1160.6666666666665</ele><time>2026-05-02T16:13:16.859Z</time></trkpt><trkpt lat="42.2270408" lon="13.2644304"><ele>1162.8333333333333</ele><time>2026-05-02T16:13:17.86Z</time></trkpt><trkpt lat="42.2270916" lon="13.2645084"><ele>1165.0</ele><time>2026-05-02T16:13:18.86Z</time></trkpt><trkpt lat="42.2271491" lon="13.2645777"><ele>1165.0</ele><time>2026-05-02T16:13:19.86Z</time></trkpt><trkpt lat="42.2272145" lon="13.2646217"><ele>1165.0</ele><time>2026-05-02T16:13:20.859Z</time></trkpt><trkpt lat="42.227283" lon="13.2646413"><ele>1165.0</ele><time>2026-05-02T16:13:21.86Z</time></trkpt><trkpt lat="42.2273536" lon="13.2646454"><ele>1165.0</ele><time>2026-05-02T16:13:22.859Z</time></trkpt><trkpt lat="42.2274315" lon="13.2646329"><ele>1165.0</ele><time>2026-05-02T16:13:23.859Z</time></trkpt><trkpt lat="42.2275212" lon="13.2645919"><ele>1165.0</ele><time>2026-05-02T16:13:24.859Z</time></trkpt><trkpt lat="42.227631" lon="13.2645489"><ele>1164.25</ele><time>2026-05-02T16:13:25.86Z</time></trkpt><trkpt lat="42.2277441" lon="13.2645156"><ele>1163.5</ele><time>2026-05-02T16:13:26.86Z</time></trkpt><trkpt lat="42.2278547" lon="13.2644894"><ele>1162.75</ele><time>2026-05-02T16:13:27.86Z</time></trkpt><trkpt lat="42.2279693" lon="13.2644497"><ele>1162.0</ele><time>2026-05-02T16:13:28.859Z</time></trkpt><trkpt lat="42.2280759" lon="13.2643957"><ele>1165.0</ele><time>2026-05-02T16:13:29.86Z</time></trkpt><trkpt lat="42.2281729" lon="13.264337"><ele>1168.0</ele><time>2026-05-02T16:13:30.859Z</time></trkpt><trkpt lat="42.228254" lon="13.2642735"><ele>1171.0</ele><time>2026-05-02T16:13:31.86Z</time></trkpt><trkpt lat="42.2283342" lon="13.2642032"><ele>1174.0</ele><time>2026-05-02T16:13:32.859Z</time></trkpt><trkpt lat="42.2284045" lon="13.2641088"><ele>1177.0</ele><time>2026-05-02T16:13:33.86Z</time></trkpt><trkpt lat="42.2284689" lon="13.2639984"><ele>1173.5</ele><time>2026-05-02T16:13:34.859Z</time></trkpt><trkpt lat="42.2285382" lon="13.2638989"><ele>1170.0</ele><time>2026-05-02T16:13:35.86Z</time></trkpt><trkpt lat="42.2286232" lon="13.2637978"><ele>1166.5</ele><time>2026-05-02T16:13:36.86Z</time></trkpt><trkpt lat="42.2287267" lon="13.2636895"><ele>1163.0</ele><time>2026-05-02T16:13:37.859Z</time></trkpt><trkpt lat="42.2288382" lon="13.2635759"><ele>1163.0</ele><time>2026-05-02T16:13:38.859Z</time></trkpt><trkpt lat="42.2289456" lon="13.263457"><ele>1163.0</ele><time>2026-05-02T16:13:39.859Z</time></trkpt><trkpt lat="42.2290574" lon="13.2633392"><ele>1163.0</ele><time>2026-05-02T16:13:40.859Z</time></trkpt><trkpt lat="42.2291581" lon="13.2632373"><ele>1163.0</ele><time>2026-05-02T16:13:41.859Z</time></trkpt><trkpt lat="42.2292525" lon="13.2631547"><ele>1166.4</ele><time>2026-05-02T16:13:42.859Z</time></trkpt><trkpt lat="42.2293302" lon="13.2630728"><ele>1169.8</ele><time>2026-05-02T16:13:43.859Z</time></trkpt><trkpt lat="42.2293834" lon="13.2629961"><ele>1173.2</ele><time>2026-05-02T16:13:44.86Z</time></trkpt><trkpt lat="42.2294206" lon="13.2629275"><ele>1176.6</ele><time>2026-05-02T16:13:45.86Z</time></trkpt><trkpt lat="42.2294571" lon="13.2627933"><ele>1180.0</ele><time>2026-05-02T16:13:47.86Z</time></trkpt><trkpt lat="42.2294239" lon="13.262659"><ele>1180.0</ele><time>2026-05-02T16:13:49.86Z</time></trkpt><trkpt lat="42.2293951" lon="13.2625821"><ele>1180.0</ele><time>2026-05-02T16:13:50.859Z</time></trkpt><trkpt lat="42.2293632" lon="13.262492"><ele>1180.0</ele><time>2026-05-02T16:13:51.859Z</time></trkpt><trkpt lat="42.2293314" lon="13.2624019"><ele>1180.0</ele><time>2026-05-02T16:13:52.859Z</time></trkpt><trkpt lat="42.2293154" lon="13.2622583"><ele>1180.0</ele><time>2026-05-02T16:13:54.86Z</time></trkpt><trkpt lat="42.2293783" lon="13.262135"><ele>1180.0</ele><time>2026-05-02T16:13:56.86Z</time></trkpt><trkpt lat="42.2294217" lon="13.2620733"><ele>1179.6</ele><time>2026-05-02T16:13:57.859Z</time></trkpt><trkpt lat="42.229475" lon="13.2620133"><ele>1179.2</ele><time>2026-05-02T16:13:58.859Z</time></trkpt><trkpt lat="42.2295483" lon="13.2619167"><ele>1178.8</ele><time>2026-05-02T16:14:00.859Z</time></trkpt><trkpt lat="42.2296286" lon="13.2617687"><ele>1178.4</ele><time>2026-05-02T16:15:31.859Z</time></trkpt><trkpt lat="42.2296685" lon="13.2616492"><ele>1178.0</ele><time>2026-05-02T16:15:32.859Z</time></trkpt><trkpt lat="42.2296916" lon="13.2615438"><ele>1177.3333333333335</ele><time>2026-05-02T16:15:33.86Z</time></trkpt><trkpt lat="42.2296928" lon="13.2614452"><ele>1176.6666666666667</ele><time>2026-05-02T16:15:34.859Z</time></trkpt><trkpt lat="42.2296819" lon="13.2613374"><ele>1176.0</ele><time>2026-05-02T16:15:35.859Z</time></trkpt><trkpt lat="42.2296548" lon="13.2612187"><ele>1175.3333333333333</ele><time>2026-05-02T16:15:36.859Z</time></trkpt><trkpt lat="42.2296353" lon="13.2611075"><ele>1174.6666666666665</ele><time>2026-05-02T16:15:37.86Z</time></trkpt><trkpt lat="42.2296332" lon="13.2610087"><ele>1174.0</ele><time>2026-05-02T16:15:38.86Z</time></trkpt><trkpt lat="42.2296485" lon="13.2609194"><ele>1174.0</ele><time>2026-05-02T16:15:39.859Z</time></trkpt><trkpt lat="42.2296853" lon="13.2608443"><ele>1174.0</ele><time>2026-05-02T16:15:40.859Z</time></trkpt><trkpt lat="42.2297373" lon="13.2607882"><ele>1174.0</ele><time>2026-05-02T16:15:41.86Z</time></trkpt><trkpt lat="42.229807" lon="13.2607607"><ele>1174.0</ele><time>2026-05-02T16:15:42.859Z</time></trkpt><trkpt lat="42.2298988" lon="13.2607528"><ele>1174.0</ele><time>2026-05-02T16:15:43.859Z</time></trkpt><trkpt lat="42.2300018" lon="13.2607739"><ele>1174.0</ele><time>2026-05-02T16:15:44.86Z</time></trkpt><trkpt lat="42.2301093" lon="13.2608114"><ele>1178.6000000000001</ele><time>2026-05-02T16:15:45.86Z</time></trkpt><trkpt lat="42.2302111" lon="13.2608631"><ele>1183.2</ele><time>2026-05-02T16:15:46.859Z</time></trkpt><trkpt lat="42.2302943" lon="13.260914"><ele>1187.8000000000002</ele><time>2026-05-02T16:15:47.86Z</time></trkpt><trkpt lat="42.23037" lon="13.2609533"><ele>1192.4</ele><time>2026-05-02T16:15:48.859Z</time></trkpt><trkpt lat="42.2304885" lon="13.2609544"><ele>1197.0</ele><time>2026-05-02T16:15:50.859Z</time></trkpt><trkpt lat="42.2305523" lon="13.2609174"><ele>1197.0</ele><time>2026-05-02T16:15:51.86Z</time></trkpt><trkpt lat="42.2306234" lon="13.2608288"><ele>1197.0</ele><time>2026-05-02T16:15:52.86Z</time></trkpt><trkpt lat="42.2306933" lon="13.2607145"><ele>1197.0</ele><time>2026-05-02T16:15:53.86Z</time></trkpt><trkpt lat="42.2307636" lon="13.2606113"><ele>1197.0</ele><time>2026-05-02T16:15:54.86Z</time></trkpt><trkpt lat="42.2308364" lon="13.2605425"><ele>1197.0</ele><time>2026-05-02T16:15:55.859Z</time></trkpt><trkpt lat="42.2309141" lon="13.2605002"><ele>1195.6</ele><time>2026-05-02T16:15:56.859Z</time></trkpt><trkpt lat="42.2309999" lon="13.2604812"><ele>1194.2</ele><time>2026-05-02T16:15:57.859Z</time></trkpt><trkpt lat="42.2310931" lon="13.2604635"><ele>1192.8</ele><time>2026-05-02T16:15:58.859Z</time></trkpt><trkpt lat="42.231196" lon="13.2604516"><ele>1191.4</ele><time>2026-05-02T16:15:59.859Z</time></trkpt><trkpt lat="42.2313101" lon="13.2604403"><ele>1190.0</ele><time>2026-05-02T16:16:00.86Z</time></trkpt><trkpt lat="42.2314226" lon="13.2604243"><ele>1191.6</ele><time>2026-05-02T16:16:01.86Z</time></trkpt><trkpt lat="42.2315182" lon="13.2604293"><ele>1193.2</ele><time>2026-05-02T16:16:02.86Z</time></trkpt><trkpt lat="42.2316106" lon="13.2604483"><ele>1194.8</ele><time>2026-05-02T16:16:03.86Z</time></trkpt><trkpt lat="42.2316906" lon="13.2605055"><ele>1196.4</ele><time>2026-05-02T16:16:04.859Z</time></trkpt><trkpt lat="42.2317695" lon="13.2605765"><ele>1198.0</ele><time>2026-05-02T16:16:05.859Z</time></trkpt><trkpt lat="42.2318571" lon="13.2606571"><ele>1201.0</ele><time>2026-05-02T16:16:06.859Z</time></trkpt><trkpt lat="42.2319486" lon="13.2607229"><ele>1204.0</ele><time>2026-05-02T16:16:07.859Z</time></trkpt><trkpt lat="42.2320576" lon="13.260787"><ele>1207.0</ele><time>2026-05-02T16:16:08.86Z</time></trkpt><trkpt lat="42.2321719" lon="13.2608578"><ele>1210.0</ele><time>2026-05-02T16:16:09.86Z</time></trkpt><trkpt lat="42.2322971" lon="13.2609419"><ele>1208.25</ele><time>2026-05-02T16:16:10.859Z</time></trkpt><trkpt lat="42.2324232" lon="13.2610316"><ele>1206.5</ele><time>2026-05-02T16:16:11.86Z</time></trkpt><trkpt lat="42.2325567" lon="13.2611311"><ele>1204.75</ele><time>2026-05-02T16:16:12.859Z</time></trkpt><trkpt lat="42.2326832" lon="13.2612206"><ele>1203.0</ele><time>2026-05-02T16:16:13.859Z</time></trkpt><trkpt lat="42.2328024" lon="13.2613001"><ele>1203.0</ele><time>2026-05-02T16:16:14.86Z</time></trkpt><trkpt lat="42.2329123" lon="13.2613772"><ele>1203.0</ele><time>2026-05-02T16:16:15.859Z</time></trkpt><trkpt lat="42.2330009" lon="13.2614544"><ele>1203.0</ele><time>2026-05-02T16:16:16.859Z</time></trkpt><trkpt lat="42.233078" lon="13.261521"><ele>1203.0</ele><time>2026-05-02T16:16:17.86Z</time></trkpt><trkpt lat="42.233152" lon="13.2615926"><ele>1203.0</ele><time>2026-05-02T16:16:18.859Z</time></trkpt><trkpt lat="42.2332097" lon="13.2616755"><ele>1203.5</ele><time>2026-05-02T16:16:19.86Z</time></trkpt><trkpt lat="42.233265" lon="13.2617494"><ele>1204.0</ele><time>2026-05-02T16:16:20.859Z</time></trkpt><trkpt lat="42.2333219" lon="13.2618131"><ele>1204.5</ele><time>2026-05-02T16:16:21.86Z</time></trkpt><trkpt lat="42.2334406" lon="13.2618776"><ele>1205.0</ele><time>2026-05-02T16:16:23.86Z</time></trkpt><trkpt lat="42.2335074" lon="13.2618967"><ele>1205.5</ele><time>2026-05-02T16:16:24.859Z</time></trkpt><trkpt lat="42.2335839" lon="13.261922"><ele>1206.0</ele><time>2026-05-02T16:16:25.859Z</time></trkpt><trkpt lat="42.2336692" lon="13.2619702"><ele>1206.0</ele><time>2026-05-02T16:16:26.859Z</time></trkpt><trkpt lat="42.2337529" lon="13.2620262"><ele>1206.0</ele><time>2026-05-02T16:16:27.859Z</time></trkpt><trkpt lat="42.233815" lon="13.2620837"><ele>1206.0</ele><time>2026-05-02T16:16:28.859Z</time></trkpt><trkpt lat="42.2338829" lon="13.2621171"><ele>1206.0</ele><time>2026-05-02T16:16:29.86Z</time></trkpt><trkpt lat="42.2339603" lon="13.2621145"><ele>1206.0</ele><time>2026-05-02T16:16:30.859Z</time></trkpt><trkpt lat="42.2340434" lon="13.2620825"><ele>1206.0</ele><time>2026-05-02T16:16:31.86Z</time></trkpt><trkpt lat="42.2341275" lon="13.262038"><ele>1205.0</ele><time>2026-05-02T16:16:32.86Z</time></trkpt><trkpt lat="42.2342133" lon="13.261984"><ele>1204.0</ele><time>2026-05-02T16:16:33.859Z</time></trkpt><trkpt lat="42.2343088" lon="13.261934"><ele>1203.0</ele><time>2026-05-02T16:16:34.859Z</time></trkpt><trkpt lat="42.2344083" lon="13.2618757"><ele>1202.0</ele><time>2026-05-02T16:16:35.859Z</time></trkpt><trkpt lat="42.2345212" lon="13.261816"><ele>1201.0</ele><time>2026-05-02T16:16:36.86Z</time></trkpt><trkpt lat="42.2346429" lon="13.2617485"><ele>1201.0</ele><time>2026-05-02T16:16:37.859Z</time></trkpt><trkpt lat="42.2347727" lon="13.2616823"><ele>1201.0</ele><time>2026-05-02T16:16:38.859Z</time></trkpt><trkpt lat="42.2348979" lon="13.2616246"><ele>1201.0</ele><time>2026-05-02T16:16:39.859Z</time></trkpt><trkpt lat="42.2350204" lon="13.2615791"><ele>1201.0</ele><time>2026-05-02T16:16:40.86Z</time></trkpt><trkpt lat="42.2351345" lon="13.2615538"><ele>1201.6666666666665</ele><time>2026-05-02T16:16:41.859Z</time></trkpt><trkpt lat="42.2352346" lon="13.2615357"><ele>1202.3333333333333</ele><time>2026-05-02T16:16:42.859Z</time></trkpt><trkpt lat="42.2353166" lon="13.2615171"><ele>1203.0</ele><time>2026-05-02T16:16:43.86Z</time></trkpt><trkpt lat="42.2353892" lon="13.2614803"><ele>1203.6666666666667</ele><time>2026-05-02T16:16:44.86Z</time></trkpt><trkpt lat="42.2354581" lon="13.2614258"><ele>1204.3333333333335</ele><time>2026-05-02T16:16:45.859Z</time></trkpt><trkpt lat="42.2355226" lon="13.2613582"><ele>1205.0</ele><time>2026-05-02T16:16:46.86Z</time></trkpt><trkpt lat="42.2355892" lon="13.2612719"><ele>1209.5</ele><time>2026-05-02T16:16:47.859Z</time></trkpt><trkpt lat="42.2356751" lon="13.2611791"><ele>1214.0</ele><time>2026-05-02T16:16:48.859Z</time></trkpt><trkpt lat="42.2357793" lon="13.2610884"><ele>1218.5</ele><time>2026-05-02T16:16:49.859Z</time></trkpt><trkpt lat="42.2358864" lon="13.2610173"><ele>1223.0</ele><time>2026-05-02T16:16:50.86Z</time></trkpt><trkpt lat="42.2359968" lon="13.2609628"><ele>1223.0</ele><time>2026-05-02T16:16:51.86Z</time></trkpt><trkpt lat="42.2361155" lon="13.2609206"><ele>1223.0</ele><time>2026-05-02T16:16:52.86Z</time></trkpt><trkpt lat="42.2362402" lon="13.2608893"><ele>1223.0</ele><time>2026-05-02T16:16:53.86Z</time></trkpt><trkpt lat="42.2363555" lon="13.2608632"><ele>1223.0</ele><time>2026-05-02T16:16:54.859Z</time></trkpt><trkpt lat="42.2364598" lon="13.2608356"><ele>1224.0</ele><time>2026-05-02T16:16:55.859Z</time></trkpt><trkpt lat="42.2365689" lon="13.2607862"><ele>1225.0</ele><time>2026-05-02T16:16:56.86Z</time></trkpt><trkpt lat="42.2366782" lon="13.2607171"><ele>1226.0</ele><time>2026-05-02T16:16:57.859Z</time></trkpt><trkpt lat="42.2367837" lon="13.2606529"><ele>1227.0</ele><time>2026-05-02T16:16:58.86Z</time></trkpt><trkpt lat="42.2368789" lon="13.2606102"><ele>1227.0</ele><time>2026-05-02T16:16:59.86Z</time></trkpt><trkpt lat="42.2369661" lon="13.2605819"><ele>1227.0</ele><time>2026-05-02T16:17:00.86Z</time></trkpt><trkpt lat="42.2370506" lon="13.2605739"><ele>1227.0</ele><time>2026-05-02T16:17:01.859Z</time></trkpt><trkpt lat="42.2371375" lon="13.2605904"><ele>1227.0</ele><time>2026-05-02T16:17:02.859Z</time></trkpt><trkpt lat="42.2372311" lon="13.2606237"><ele>1227.0</ele><time>2026-05-02T16:17:03.859Z</time></trkpt><trkpt lat="42.2373219" lon="13.2606565"><ele>1226.8</ele><time>2026-05-02T16:17:04.859Z</time></trkpt><trkpt lat="42.2374231" lon="13.260672"><ele>1226.6</ele><time>2026-05-02T16:17:05.859Z</time></trkpt><trkpt lat="42.2375335" lon="13.2606652"><ele>1226.3999999999999</ele><time>2026-05-02T16:17:06.86Z</time></trkpt><trkpt lat="42.2376446" lon="13.2606587"><ele>1226.2</ele><time>2026-05-02T16:17:07.86Z</time></trkpt><trkpt lat="42.2377487" lon="13.2606426"><ele>1226.0</ele><time>2026-05-02T16:17:08.859Z</time></trkpt><trkpt lat="42.2378453" lon="13.2606154"><ele>1225.0</ele><time>2026-05-02T16:17:09.859Z</time></trkpt><trkpt lat="42.2379378" lon="13.2605647"><ele>1224.0</ele><time>2026-05-02T16:17:10.86Z</time></trkpt><trkpt lat="42.2380354" lon="13.2605074"><ele>1223.0</ele><time>2026-05-02T16:17:11.859Z</time></trkpt><trkpt lat="42.2381335" lon="13.2604631"><ele>1222.0</ele><time>2026-05-02T16:17:12.86Z</time></trkpt><trkpt lat="42.2382291" lon="13.2604413"><ele>1221.0</ele><time>2026-05-02T16:17:13.86Z</time></trkpt><trkpt lat="42.2383218" lon="13.2604257"><ele>1221.0</ele><time>2026-05-02T16:17:14.86Z</time></trkpt><trkpt lat="42.2384208" lon="13.2604054"><ele>1221.0</ele><time>2026-05-02T16:17:15.859Z</time></trkpt><trkpt lat="42.2385116" lon="13.2603697"><ele>1221.0</ele><time>2026-05-02T16:17:16.86Z</time></trkpt><trkpt lat="42.2385901" lon="13.2603179"><ele>1221.0</ele><time>2026-05-02T16:17:17.859Z</time></trkpt><trkpt lat="42.2386617" lon="13.2602552"><ele>1221.0</ele><time>2026-05-02T16:17:18.859Z</time></trkpt><trkpt lat="42.2387341" lon="13.2602085"><ele>1221.0</ele><time>2026-05-02T16:17:19.859Z</time></trkpt><trkpt lat="42.2388114" lon="13.2601776"><ele>1221.0</ele><time>2026-05-02T16:17:20.859Z</time></trkpt><trkpt lat="42.2388798" lon="13.2601631"><ele>1221.0</ele><time>2026-05-02T16:17:21.859Z</time></trkpt><trkpt lat="42.2389428" lon="13.2601725"><ele>1221.0</ele><time>2026-05-02T16:17:22.86Z</time></trkpt><trkpt lat="42.2390624" lon="13.260224"><ele>1221.0</ele><time>2026-05-02T16:17:24.86Z</time></trkpt><trkpt lat="42.2391182" lon="13.2602805"><ele>1221.0</ele><time>2026-05-02T16:17:25.86Z</time></trkpt><trkpt lat="42.2391769" lon="13.2603382"><ele>1221.0</ele><time>2026-05-02T16:17:26.86Z</time></trkpt><trkpt lat="42.2392505" lon="13.2603983"><ele>1220.0</ele><time>2026-05-02T16:17:27.86Z</time></trkpt><trkpt lat="42.2393164" lon="13.2604562"><ele>1219.0</ele><time>2026-05-02T16:17:28.859Z</time></trkpt><trkpt lat="42.2393911" lon="13.260532"><ele>1218.0</ele><time>2026-05-02T16:17:29.86Z</time></trkpt><trkpt lat="42.2394678" lon="13.2606086"><ele>1217.0</ele><time>2026-05-02T16:17:30.86Z</time></trkpt><trkpt lat="42.2396186" lon="13.2606782"><ele>1216.0</ele><time>2026-05-02T16:17:32.86Z</time></trkpt><trkpt lat="42.2397203" lon="13.2607249"><ele>1219.25</ele><time>2026-05-02T16:17:33.859Z</time></trkpt><trkpt lat="42.2398375" lon="13.260751"><ele>1222.5</ele><time>2026-05-02T16:17:34.86Z</time></trkpt><trkpt lat="42.2399594" lon="13.2607395"><ele>1225.75</ele><time>2026-05-02T16:17:35.859Z</time></trkpt><trkpt lat="42.2400844" lon="13.2607069"><ele>1229.0</ele><time>2026-05-02T16:17:36.859Z</time></trkpt><trkpt lat="42.2402149" lon="13.2606731"><ele>1229.0</ele><time>2026-05-02T16:17:37.86Z</time></trkpt><trkpt lat="42.2403405" lon="13.2606377"><ele>1229.0</ele><time>2026-05-02T16:17:38.859Z</time></trkpt><trkpt lat="42.2404644" lon="13.2605917"><ele>1229.0</ele><time>2026-05-02T16:17:39.86Z</time></trkpt><trkpt lat="42.2405785" lon="13.2605518"><ele>1229.0</ele><time>2026-05-02T16:17:40.859Z</time></trkpt><trkpt lat="42.240683" lon="13.2605386"><ele>1227.3333333333335</ele><time>2026-05-02T16:17:41.86Z</time></trkpt><trkpt lat="42.2407672" lon="13.2605276"><ele>1225.6666666666667</ele><time>2026-05-02T16:17:42.859Z</time></trkpt><trkpt lat="42.2408359" lon="13.2605359"><ele>1224.0</ele><time>2026-05-02T16:17:43.859Z</time></trkpt><trkpt lat="42.2408972" lon="13.2605064"><ele>1222.3333333333333</ele><time>2026-05-02T16:17:44.859Z</time></trkpt><trkpt lat="42.2409696" lon="13.2604654"><ele>1220.6666666666665</ele><time>2026-05-02T16:17:45.859Z</time></trkpt><trkpt lat="42.2410554" lon="13.2604139"><ele>1219.0</ele><time>2026-05-02T16:17:46.859Z</time></trkpt><trkpt lat="42.241138" lon="13.2603473"><ele>1219.0</ele><time>2026-05-02T16:17:47.859Z</time></trkpt><trkpt lat="42.2412223" lon="13.2602687"><ele>1219.0</ele><time>2026-05-02T16:17:48.859Z</time></trkpt><trkpt lat="42.2412919" lon="13.2601784"><ele>1219.0</ele><time>2026-05-02T16:17:49.859Z</time></trkpt><trkpt lat="42.2413524" lon="13.2600999"><ele>1219.0</ele><time>2026-05-02T16:17:50.859Z</time></trkpt><trkpt lat="42.2414046" lon="13.260044"><ele>1219.0</ele><time>2026-05-02T16:17:51.86Z</time></trkpt><trkpt lat="42.2415116" lon="13.2600051"><ele>1221.3333333333333</ele><time>2026-05-02T16:17:53.86Z</time></trkpt><trkpt lat="42.2415839" lon="13.2600096"><ele>1223.6666666666665</ele><time>2026-05-02T16:17:54.859Z</time></trkpt><trkpt lat="42.2416674" lon="13.2600217"><ele>1226.0</ele><time>2026-05-02T16:17:55.86Z</time></trkpt><trkpt lat="42.2417584" lon="13.2600326"><ele>1228.3333333333333</ele><time>2026-05-02T16:17:56.859Z</time></trkpt><trkpt lat="42.241847" lon="13.2600287"><ele>1230.6666666666667</ele><time>2026-05-02T16:17:57.86Z</time></trkpt><trkpt lat="42.2419353" lon="13.2599959"><ele>1233.0</ele><time>2026-05-02T16:17:58.86Z</time></trkpt><trkpt lat="42.2420184" lon="13.2599444"><ele>1233.0</ele><time>2026-05-02T16:17:59.859Z</time></trkpt><trkpt lat="42.2421087" lon="13.2599001"><ele>1233.0</ele><time>2026-05-02T16:18:00.859Z</time></trkpt><trkpt lat="42.2422134" lon="13.2598565"><ele>1233.0</ele><time>2026-05-02T16:18:01.86Z</time></trkpt><trkpt lat="42.2423198" lon="13.2598134"><ele>1233.0</ele><time>2026-05-02T16:18:02.86Z</time></trkpt><trkpt lat="42.2424207" lon="13.2597659"><ele>1233.0</ele><time>2026-05-02T16:18:03.859Z</time></trkpt><trkpt lat="42.2425151" lon="13.2597274"><ele>1231.8</ele><time>2026-05-02T16:18:04.859Z</time></trkpt><trkpt lat="42.2426029" lon="13.2596963"><ele>1230.6</ele><time>2026-05-02T16:18:05.86Z</time></trkpt><trkpt lat="42.2426915" lon="13.2596732"><ele>1229.4</ele><time>2026-05-02T16:18:06.859Z</time></trkpt><trkpt lat="42.2427827" lon="13.2596556"><ele>1228.2</ele><time>2026-05-02T16:18:07.86Z</time></trkpt><trkpt lat="42.2428798" lon="13.2596347"><ele>1227.0</ele><time>2026-05-02T16:18:08.859Z</time></trkpt><trkpt lat="42.2429636" lon="13.2595945"><ele>1227.0</ele><time>2026-05-02T16:18:09.859Z</time></trkpt><trkpt lat="42.243046" lon="13.2595445"><ele>1227.0</ele><time>2026-05-02T16:18:10.86Z</time></trkpt><trkpt lat="42.2431301" lon="13.2594847"><ele>1227.0</ele><time>2026-05-02T16:18:11.859Z</time></trkpt><trkpt lat="42.2432137" lon="13.2594183"><ele>1227.0</ele><time>2026-05-02T16:18:12.86Z</time></trkpt><trkpt lat="42.2432894" lon="13.2593502"><ele>1227.0</ele><time>2026-05-02T16:18:13.859Z</time></trkpt><trkpt lat="42.2433596" lon="13.2592891"><ele>1230.4</ele><time>2026-05-02T16:18:14.86Z</time></trkpt><trkpt lat="42.2434301" lon="13.2592216"><ele>1233.8000000000002</ele><time>2026-05-02T16:18:15.86Z</time></trkpt><trkpt lat="42.243504" lon="13.2591612"><ele>1237.2</ele><time>2026-05-02T16:18:16.859Z</time></trkpt><trkpt lat="42.2435858" lon="13.2591036"><ele>1240.6000000000001</ele><time>2026-05-02T16:18:17.859Z</time></trkpt><trkpt lat="42.2436772" lon="13.2590536"><ele>1244.0</ele><time>2026-05-02T16:18:18.859Z</time></trkpt><trkpt lat="42.2437626" lon="13.2590011"><ele>1245.1666666666667</ele><time>2026-05-02T16:18:19.859Z</time></trkpt><trkpt lat="42.2438423" lon="13.2589415"><ele>1246.3333333333335</ele><time>2026-05-02T16:18:20.86Z</time></trkpt><trkpt lat="42.243915" lon="13.2588708"><ele>1247.5</ele><time>2026-05-02T16:18:21.859Z</time></trkpt><trkpt lat="42.2439731" lon="13.2587878"><ele>1248.6666666666667</ele><time>2026-05-02T16:18:22.859Z</time></trkpt><trkpt lat="42.2440296" lon="13.2587006"><ele>1249.8333333333333</ele><time>2026-05-02T16:18:23.859Z</time></trkpt><trkpt lat="42.2440919" lon="13.2586288"><ele>1251.0</ele><time>2026-05-02T16:18:24.86Z</time></trkpt><trkpt lat="42.2441646" lon="13.2585815"><ele>1251.0</ele><time>2026-05-02T16:18:25.859Z</time></trkpt><trkpt lat="42.2442528" lon="13.2585449"><ele>1251.0</ele><time>2026-05-02T16:18:26.859Z</time></trkpt><trkpt lat="42.2443421" lon="13.2585162"><ele>1251.0</ele><time>2026-05-02T16:18:27.86Z</time></trkpt><trkpt lat="42.2444331" lon="13.258508"><ele>1251.0</ele><time>2026-05-02T16:18:28.86Z</time></trkpt><trkpt lat="42.2445225" lon="13.2585253"><ele>1251.0</ele><time>2026-05-02T16:18:29.86Z</time></trkpt><trkpt lat="42.2446053" lon="13.2585623"><ele>1251.0</ele><time>2026-05-02T16:18:30.859Z</time></trkpt><trkpt lat="42.2446822" lon="13.2586238"><ele>1251.0</ele><time>2026-05-02T16:18:31.86Z</time></trkpt><trkpt lat="42.244763" lon="13.2586915"><ele>1251.0</ele><time>2026-05-02T16:18:32.86Z</time></trkpt><trkpt lat="42.2448426" lon="13.2587553"><ele>1251.0</ele><time>2026-05-02T16:18:33.86Z</time></trkpt><trkpt lat="42.2449155" lon="13.258816"><ele>1251.0</ele><time>2026-05-02T16:18:34.859Z</time></trkpt><trkpt lat="42.2449943" lon="13.2588847"><ele>1251.8</ele><time>2026-05-02T16:18:35.859Z</time></trkpt><trkpt lat="42.2450745" lon="13.2589526"><ele>1252.6</ele><time>2026-05-02T16:18:36.859Z</time></trkpt><trkpt lat="42.2451536" lon="13.2590201"><ele>1253.4</ele><time>2026-05-02T16:18:37.859Z</time></trkpt><trkpt lat="42.2452349" lon="13.2590853"><ele>1254.2</ele><time>2026-05-02T16:18:38.86Z</time></trkpt><trkpt lat="42.2453246" lon="13.2591487"><ele>1255.0</ele><time>2026-05-02T16:18:39.859Z</time></trkpt><trkpt lat="42.2454234" lon="13.2592062"><ele>1255.0</ele><time>2026-05-02T16:18:40.86Z</time></trkpt><trkpt lat="42.245529" lon="13.2592551"><ele>1255.0</ele><time>2026-05-02T16:18:41.86Z</time></trkpt><trkpt lat="42.2456362" lon="13.2592945"><ele>1255.0</ele><time>2026-05-02T16:18:42.86Z</time></trkpt><trkpt lat="42.2457398" lon="13.259333"><ele>1255.0</ele><time>2026-05-02T16:18:43.86Z</time></trkpt><trkpt lat="42.2458439" lon="13.2593688"><ele>1255.0</ele><time>2026-05-02T16:18:44.859Z</time></trkpt><trkpt lat="42.2459462" lon="13.2594113"><ele>1254.8333333333333</ele><time>2026-05-02T16:18:45.86Z</time></trkpt><trkpt lat="42.2460326" lon="13.2594512"><ele>1254.6666666666665</ele><time>2026-05-02T16:18:46.86Z</time></trkpt><trkpt lat="42.2461117" lon="13.259488"><ele>1254.5</ele><time>2026-05-02T16:18:47.86Z</time></trkpt><trkpt lat="42.2461732" lon="13.2595317"><ele>1254.3333333333333</ele><time>2026-05-02T16:18:48.86Z</time></trkpt><trkpt lat="42.2462254" lon="13.2595853"><ele>1254.1666666666667</ele><time>2026-05-02T16:18:49.859Z</time></trkpt><trkpt lat="42.2462703" lon="13.2597036"><ele>1254.0</ele><time>2026-05-02T16:18:51.86Z</time></trkpt><trkpt lat="42.246267" lon="13.2598554"><ele>1257.6000000000001</ele><time>2026-05-02T16:18:53.86Z</time></trkpt><trkpt lat="42.2462497" lon="13.2599412"><ele>1261.2</ele><time>2026-05-02T16:18:54.859Z</time></trkpt><trkpt lat="42.2462675" lon="13.2600766"><ele>1264.8000000000002</ele><time>2026-05-02T16:18:56.859Z</time></trkpt><trkpt lat="42.2463656" lon="13.2601523"><ele>1268.4</ele><time>2026-05-02T16:18:58.86Z</time></trkpt><trkpt lat="42.2464408" lon="13.2601644"><ele>1272.0</ele><time>2026-05-02T16:18:59.859Z</time></trkpt><trkpt lat="42.2465341" lon="13.2601623"><ele>1273.2</ele><time>2026-05-02T16:19:00.859Z</time></trkpt><trkpt lat="42.2466252" lon="13.2601422"><ele>1274.4</ele><time>2026-05-02T16:19:01.859Z</time></trkpt><trkpt lat="42.2467188" lon="13.2601035"><ele>1275.6</ele><time>2026-05-02T16:19:02.859Z</time></trkpt><trkpt lat="42.2468016" lon="13.2600396"><ele>1276.8</ele><time>2026-05-02T16:19:03.859Z</time></trkpt><trkpt lat="42.2468717" lon="13.2599534"><ele>1278.0</ele><time>2026-05-02T16:19:04.859Z</time></trkpt><trkpt lat="42.2469267" lon="13.2598493"><ele>1278.0</ele><time>2026-05-02T16:19:05.859Z</time></trkpt><trkpt lat="42.2469749" lon="13.2597622"><ele>1278.0</ele><time>2026-05-02T16:19:06.859Z</time></trkpt><trkpt lat="42.2470571" lon="13.2597029"><ele>1278.0</ele><time>2026-05-02T16:19:08.859Z</time></trkpt><trkpt lat="42.2471123" lon="13.2597977"><ele>1278.0</ele><time>2026-05-02T16:19:10.859Z</time></trkpt><trkpt lat="42.2471082" lon="13.2599529"><ele>1278.0</ele><time>2026-05-02T16:19:12.86Z</time></trkpt><trkpt lat="42.2470895" lon="13.2600358"><ele>1278.0</ele><time>2026-05-02T16:19:13.859Z</time></trkpt><trkpt lat="42.2470674" lon="13.2601211"><ele>1278.0</ele><time>2026-05-02T16:19:14.859Z</time></trkpt><trkpt lat="42.2470463" lon="13.2602064"><ele>1278.0</ele><time>2026-05-02T16:19:15.86Z</time></trkpt><trkpt lat="42.2470481" lon="13.2603238"><ele>1278.0</ele><time>2026-05-02T16:19:17.859Z</time></trkpt><trkpt lat="42.2471214" lon="13.2603749"><ele>1278.0</ele><time>2026-05-02T16:19:20.86Z</time></trkpt><trkpt lat="42.2472023" lon="13.2603336"><ele>1278.0</ele><time>2026-05-02T16:19:22.859Z</time></trkpt><trkpt lat="42.2472495" lon="13.2602694"><ele>1278.0</ele><time>2026-05-02T16:19:23.859Z</time></trkpt><trkpt lat="42.2472921" lon="13.2601716"><ele>1279.6</ele><time>2026-05-02T16:19:24.86Z</time></trkpt><trkpt lat="42.2473238" lon="13.2600384"><ele>1281.1999999999998</ele><time>2026-05-02T16:19:25.859Z</time></trkpt><trkpt lat="42.2473499" lon="13.2598907"><ele>1282.8</ele><time>2026-05-02T16:19:26.859Z</time></trkpt><trkpt lat="42.247379" lon="13.2597452"><ele>1284.3999999999999</ele><time>2026-05-02T16:19:27.859Z</time></trkpt><trkpt lat="42.247416" lon="13.2596196"><ele>1286.0</ele><time>2026-05-02T16:19:28.86Z</time></trkpt><trkpt lat="42.2474665" lon="13.2595239"><ele>1286.0</ele><time>2026-05-02T16:19:29.859Z</time></trkpt><trkpt lat="42.2475216" lon="13.2594464"><ele>1286.0</ele><time>2026-05-02T16:19:30.859Z</time></trkpt><trkpt lat="42.2475895" lon="13.259386"><ele>1286.0</ele><time>2026-05-02T16:19:31.86Z</time></trkpt><trkpt lat="42.2476558" lon="13.2593252"><ele>1286.0</ele><time>2026-05-02T16:19:32.859Z</time></trkpt><trkpt lat="42.2477053" lon="13.2592603"><ele>1286.0</ele><time>2026-05-02T16:19:33.86Z</time></trkpt><trkpt lat="42.2477677" lon="13.2591095"><ele>1286.0</ele><time>2026-05-02T16:19:35.859Z</time></trkpt><trkpt lat="42.2478171" lon="13.2590424"><ele>1286.0</ele><time>2026-05-02T16:19:36.859Z</time></trkpt><trkpt lat="42.2478807" lon="13.2589786"><ele>1286.0</ele><time>2026-05-02T16:19:37.86Z</time></trkpt><trkpt lat="42.2479503" lon="13.2589167"><ele>1286.0</ele><time>2026-05-02T16:19:38.86Z</time></trkpt><trkpt lat="42.2480157" lon="13.2588418"><ele>1286.0</ele><time>2026-05-02T16:19:39.859Z</time></trkpt><trkpt lat="42.2480639" lon="13.2587497"><ele>1286.0</ele><time>2026-05-02T16:19:40.859Z</time></trkpt><trkpt lat="42.2481088" lon="13.2586475"><ele>1286.0</ele><time>2026-05-02T16:19:41.86Z</time></trkpt><trkpt lat="42.248143" lon="13.2585289"><ele>1285.6</ele><time>2026-05-02T16:19:42.86Z</time></trkpt><trkpt lat="42.2481736" lon="13.2584121"><ele>1285.1999999999998</ele><time>2026-05-02T16:19:43.86Z</time></trkpt><trkpt lat="42.248214" lon="13.2583006"><ele>1284.8000000000002</ele><time>2026-05-02T16:19:44.86Z</time></trkpt><trkpt lat="42.2482676" lon="13.258186"><ele>1284.4</ele><time>2026-05-02T16:19:45.859Z</time></trkpt><trkpt lat="42.2483285" lon="13.258071"><ele>1284.0</ele><time>2026-05-02T16:19:46.859Z</time></trkpt><trkpt lat="42.2483974" lon="13.2579665"><ele>1284.0</ele><time>2026-05-02T16:19:47.86Z</time></trkpt><trkpt lat="42.2484555" lon="13.2578488"><ele>1284.0</ele><time>2026-05-02T16:19:48.86Z</time></trkpt><trkpt lat="42.2484946" lon="13.2577222"><ele>1284.0</ele><time>2026-05-02T16:19:49.86Z</time></trkpt><trkpt lat="42.2485359" lon="13.2575916"><ele>1284.0</ele><time>2026-05-02T16:19:50.86Z</time></trkpt><trkpt lat="42.2485852" lon="13.2574644"><ele>1284.0</ele><time>2026-05-02T16:19:51.86Z</time></trkpt><trkpt lat="42.2486383" lon="13.2573531"><ele>1285.4</ele><time>2026-05-02T16:19:52.86Z</time></trkpt><trkpt lat="42.2486956" lon="13.2572509"><ele>1286.8000000000002</ele><time>2026-05-02T16:19:53.859Z</time></trkpt><trkpt lat="42.2487562" lon="13.2571682"><ele>1288.1999999999998</ele><time>2026-05-02T16:19:54.86Z</time></trkpt><trkpt lat="42.2488244" lon="13.2570973"><ele>1289.6</ele><time>2026-05-02T16:19:55.859Z</time></trkpt><trkpt lat="42.2488997" lon="13.2570271"><ele>1291.0</ele><time>2026-05-02T16:19:56.859Z</time></trkpt><trkpt lat="42.2489962" lon="13.2569693"><ele>1291.0</ele><time>2026-05-02T16:19:57.859Z</time></trkpt><trkpt lat="42.2490892" lon="13.2569219"><ele>1291.0</ele><time>2026-05-02T16:19:58.859Z</time></trkpt><trkpt lat="42.2491855" lon="13.2568893"><ele>1291.0</ele><time>2026-05-02T16:19:59.859Z</time></trkpt><trkpt lat="42.2492842" lon="13.2568575"><ele>1291.0</ele><time>2026-05-02T16:20:00.859Z</time></trkpt><trkpt lat="42.2493838" lon="13.256837"><ele>1291.0</ele><time>2026-05-02T16:20:01.859Z</time></trkpt><trkpt lat="42.249476" lon="13.2568301"><ele>1291.0</ele><time>2026-05-02T16:20:02.86Z</time></trkpt><trkpt lat="42.2495693" lon="13.2568256"><ele>1291.0</ele><time>2026-05-02T16:20:03.859Z</time></trkpt><trkpt lat="42.249663" lon="13.2568316"><ele>1291.0</ele><time>2026-05-02T16:20:04.86Z</time></trkpt><trkpt lat="42.2497384" lon="13.2568416"><ele>1291.0</ele><time>2026-05-02T16:20:05.86Z</time></trkpt><trkpt lat="42.2498048" lon="13.256842"><ele>1291.0</ele><time>2026-05-02T16:20:06.859Z</time></trkpt><trkpt lat="42.2498729" lon="13.2568328"><ele>1291.0</ele><time>2026-05-02T16:20:07.859Z</time></trkpt><trkpt lat="42.249947" lon="13.256807"><ele>1291.6</ele><time>2026-05-02T16:20:08.86Z</time></trkpt><trkpt lat="42.25003" lon="13.2567653"><ele>1292.1999999999998</ele><time>2026-05-02T16:20:09.859Z</time></trkpt><trkpt lat="42.2501185" lon="13.2567093"><ele>1292.8000000000002</ele><time>2026-05-02T16:20:10.859Z</time></trkpt><trkpt lat="42.2502042" lon="13.2566493"><ele>1293.4</ele><time>2026-05-02T16:20:11.86Z</time></trkpt><trkpt lat="42.2502855" lon="13.2565838"><ele>1294.0</ele><time>2026-05-02T16:20:12.86Z</time></trkpt><trkpt lat="42.2503659" lon="13.2565148"><ele>1294.0</ele><time>2026-05-02T16:20:13.86Z</time></trkpt><trkpt lat="42.2504361" lon="13.2564606"><ele>1294.0</ele><time>2026-05-02T16:20:14.859Z</time></trkpt><trkpt lat="42.2505001" lon="13.2564194"><ele>1294.0</ele><time>2026-05-02T16:20:15.859Z</time></trkpt><trkpt lat="42.2505645" lon="13.2563971"><ele>1294.0</ele><time>2026-05-02T16:20:16.86Z</time></trkpt><trkpt lat="42.2506443" lon="13.2563851"><ele>1294.0</ele><time>2026-05-02T16:20:17.859Z</time></trkpt><trkpt lat="42.2507486" lon="13.2563711"><ele>1294.0</ele><time>2026-05-02T16:20:18.859Z</time></trkpt><trkpt lat="42.2508586" lon="13.2563575"><ele>1294.2</ele><time>2026-05-02T16:20:19.86Z</time></trkpt><trkpt lat="42.2509749" lon="13.256351"><ele>1294.4</ele><time>2026-05-02T16:20:20.86Z</time></trkpt><trkpt lat="42.2510819" lon="13.2563648"><ele>1294.6</ele><time>2026-05-02T16:20:21.86Z</time></trkpt><trkpt lat="42.2511804" lon="13.2563922"><ele>1294.8</ele><time>2026-05-02T16:20:22.859Z</time></trkpt><trkpt lat="42.251275" lon="13.2564297"><ele>1295.0</ele><time>2026-05-02T16:20:23.86Z</time></trkpt><trkpt lat="42.2513744" lon="13.2564804"><ele>1295.6</ele><time>2026-05-02T16:20:24.86Z</time></trkpt><trkpt lat="42.2514717" lon="13.2565382"><ele>1296.2</ele><time>2026-05-02T16:20:25.859Z</time></trkpt><trkpt lat="42.2515655" lon="13.2565915"><ele>1296.8000000000002</ele><time>2026-05-02T16:20:26.859Z</time></trkpt><trkpt lat="42.2516479" lon="13.2566391"><ele>1297.4</ele><time>2026-05-02T16:20:27.859Z</time></trkpt><trkpt lat="42.2517162" lon="13.2566799"><ele>1298.0</ele><time>2026-05-02T16:20:28.86Z</time></trkpt><trkpt lat="42.2518012" lon="13.2567136"><ele>1298.0</ele><time>2026-05-02T16:20:30.859Z</time></trkpt><trkpt lat="42.2518625" lon="13.2566653"><ele>1298.0</ele><time>2026-05-02T16:20:33.86Z</time></trkpt><trkpt lat="42.2518852" lon="13.2565583"><ele>1298.0</ele><time>2026-05-02T16:20:35.859Z</time></trkpt><trkpt lat="42.2519231" lon="13.2564737"><ele>1298.0</ele><time>2026-05-02T16:20:36.859Z</time></trkpt><trkpt lat="42.2519835" lon="13.256364"><ele>1298.0</ele><time>2026-05-02T16:20:37.859Z</time></trkpt><trkpt lat="42.2520563" lon="13.2562351"><ele>1298.0</ele><time>2026-05-02T16:20:38.86Z</time></trkpt><trkpt lat="42.2521287" lon="13.2561038"><ele>1298.75</ele><time>2026-05-02T16:20:39.86Z</time></trkpt><trkpt lat="42.2522055" lon="13.2559693"><ele>1299.5</ele><time>2026-05-02T16:20:40.859Z</time></trkpt><trkpt lat="42.2522872" lon="13.2558396"><ele>1300.25</ele><time>2026-05-02T16:20:41.859Z</time></trkpt><trkpt lat="42.2523579" lon="13.2557187"><ele>1301.0</ele><time>2026-05-02T16:20:42.859Z</time></trkpt><trkpt lat="42.2524196" lon="13.255611"><ele>1298.4</ele><time>2026-05-02T16:20:43.859Z</time></trkpt><trkpt lat="42.2524828" lon="13.2555095"><ele>1295.8</ele><time>2026-05-02T16:20:44.86Z</time></trkpt><trkpt lat="42.2525454" lon="13.255415"><ele>1293.2</ele><time>2026-05-02T16:20:45.859Z</time></trkpt><trkpt lat="42.2526212" lon="13.2553356"><ele>1290.6000000000001</ele><time>2026-05-02T16:20:46.859Z</time></trkpt><trkpt lat="42.2527103" lon="13.2552673"><ele>1288.0</ele><time>2026-05-02T16:20:47.86Z</time></trkpt><trkpt lat="42.2528042" lon="13.2552007"><ele>1288.0</ele><time>2026-05-02T16:20:48.859Z</time></trkpt><trkpt lat="42.2529031" lon="13.2551412"><ele>1288.0</ele><time>2026-05-02T16:20:49.859Z</time></trkpt><trkpt lat="42.2529998" lon="13.2550975"><ele>1288.0</ele><time>2026-05-02T16:20:50.859Z</time></trkpt><trkpt lat="42.2531042" lon="13.2550647"><ele>1288.0</ele><time>2026-05-02T16:20:51.86Z</time></trkpt><trkpt lat="42.2532077" lon="13.2550325"><ele>1288.0</ele><time>2026-05-02T16:20:52.86Z</time></trkpt><trkpt lat="42.2533123" lon="13.2549961"><ele>1289.2</ele><time>2026-05-02T16:20:53.86Z</time></trkpt><trkpt lat="42.2534073" lon="13.2549612"><ele>1290.4</ele><time>2026-05-02T16:20:54.86Z</time></trkpt><trkpt lat="42.2534962" lon="13.2549186"><ele>1291.6000000000001</ele><time>2026-05-02T16:20:55.859Z</time></trkpt><trkpt lat="42.25359" lon="13.2548573"><ele>1292.8000000000002</ele><time>2026-05-02T16:20:56.859Z</time></trkpt><trkpt lat="42.2536868" lon="13.2547853"><ele>1294.0</ele><time>2026-05-02T16:20:57.859Z</time></trkpt><trkpt lat="42.2537853" lon="13.2547125"><ele>1291.5</ele><time>2026-05-02T16:20:58.859Z</time></trkpt><trkpt lat="42.2538899" lon="13.2546436"><ele>1289.0</ele><time>2026-05-02T16:20:59.86Z</time></trkpt><trkpt lat="42.254002" lon="13.254577"><ele>1286.5</ele><time>2026-05-02T16:21:00.859Z</time></trkpt><trkpt lat="42.2541147" lon="13.2545127"><ele>1284.0</ele><time>2026-05-02T16:21:01.859Z</time></trkpt><trkpt lat="42.2542197" lon="13.2544611"><ele>1284.0</ele><time>2026-05-02T16:21:02.86Z</time></trkpt><trkpt lat="42.2543303" lon="13.2544036"><ele>1284.0</ele><time>2026-05-02T16:21:03.86Z</time></trkpt><trkpt lat="42.2544361" lon="13.2543381"><ele>1284.0</ele><time>2026-05-02T16:21:04.859Z</time></trkpt><trkpt lat="42.2545436" lon="13.2542688"><ele>1284.0</ele><time>2026-05-02T16:21:05.86Z</time></trkpt><trkpt lat="42.2546451" lon="13.2542028"><ele>1284.0</ele><time>2026-05-02T16:21:06.859Z</time></trkpt><trkpt lat="42.254742" lon="13.2541433"><ele>1284.0</ele><time>2026-05-02T16:21:07.86Z</time></trkpt><trkpt lat="42.2548408" lon="13.2540836"><ele>1284.0</ele><time>2026-05-02T16:21:08.86Z</time></trkpt><trkpt lat="42.2549459" lon="13.2540297"><ele>1284.0</ele><time>2026-05-02T16:21:09.859Z</time></trkpt><trkpt lat="42.2550568" lon="13.2539818"><ele>1284.0</ele><time>2026-05-02T16:21:10.859Z</time></trkpt><trkpt lat="42.2551689" lon="13.2539437"><ele>1284.8000000000002</ele><time>2026-05-02T16:21:11.859Z</time></trkpt><trkpt lat="42.2552784" lon="13.2539003"><ele>1285.6000000000001</ele><time>2026-05-02T16:21:12.859Z</time></trkpt><trkpt lat="42.2553819" lon="13.2538477"><ele>1286.4</ele><time>2026-05-02T16:21:13.86Z</time></trkpt><trkpt lat="42.2554813" lon="13.2537813"><ele>1287.2</ele><time>2026-05-02T16:21:14.86Z</time></trkpt><trkpt lat="42.2555686" lon="13.2537107"><ele>1288.0</ele><time>2026-05-02T16:21:15.859Z</time></trkpt><trkpt lat="42.2556468" lon="13.2536446"><ele>1288.0</ele><time>2026-05-02T16:21:16.859Z</time></trkpt><trkpt lat="42.2557109" lon="13.2535796"><ele>1288.0</ele><time>2026-05-02T16:21:17.859Z</time></trkpt><trkpt lat="42.2557665" lon="13.2535059"><ele>1288.0</ele><time>2026-05-02T16:21:18.86Z</time></trkpt><trkpt lat="42.2558018" lon="13.2534084"><ele>1288.0</ele><time>2026-05-02T16:21:19.859Z</time></trkpt><trkpt lat="42.2558228" lon="13.253295"><ele>1288.0</ele><time>2026-05-02T16:21:20.86Z</time></trkpt><trkpt lat="42.2558317" lon="13.2531681"><ele>1288.0</ele><time>2026-05-02T16:21:21.859Z</time></trkpt><trkpt lat="42.2558351" lon="13.2530271"><ele>1287.8000000000002</ele><time>2026-05-02T16:21:22.859Z</time></trkpt><trkpt lat="42.2558319" lon="13.2528899"><ele>1287.6</ele><time>2026-05-02T16:21:23.859Z</time></trkpt><trkpt lat="42.2558378" lon="13.2527607"><ele>1287.4</ele><time>2026-05-02T16:21:24.859Z</time></trkpt><trkpt lat="42.2558578" lon="13.2526354"><ele>1287.1999999999998</ele><time>2026-05-02T16:21:25.86Z</time></trkpt><trkpt lat="42.2558935" lon="13.2525131"><ele>1287.0</ele><time>2026-05-02T16:21:26.859Z</time></trkpt><trkpt lat="42.255933" lon="13.2523981"><ele>1287.0</ele><time>2026-05-02T16:21:27.859Z</time></trkpt><trkpt lat="42.2559794" lon="13.2522959"><ele>1287.0</ele><time>2026-05-02T16:21:28.86Z</time></trkpt><trkpt lat="42.2560339" lon="13.2522158"><ele>1287.0</ele><time>2026-05-02T16:21:29.86Z</time></trkpt><trkpt lat="42.2560941" lon="13.2521368"><ele>1287.0</ele><time>2026-05-02T16:21:30.859Z</time></trkpt><trkpt lat="42.2561646" lon="13.2520722"><ele>1287.0</ele><time>2026-05-02T16:21:31.859Z</time></trkpt><trkpt lat="42.2562443" lon="13.2520013"><ele>1287.0</ele><time>2026-05-02T16:21:32.859Z</time></trkpt><trkpt lat="42.2563173" lon="13.25191"><ele>1286.3333333333333</ele><time>2026-05-02T16:21:33.86Z</time></trkpt><trkpt lat="42.256386" lon="13.2518237"><ele>1285.6666666666667</ele><time>2026-05-02T16:21:34.86Z</time></trkpt><trkpt lat="42.2564555" lon="13.2517476"><ele>1285.0</ele><time>2026-05-02T16:21:35.859Z</time></trkpt><trkpt lat="42.2565279" lon="13.2516851"><ele>1284.3333333333335</ele><time>2026-05-02T16:21:36.859Z</time></trkpt><trkpt lat="42.2566061" lon="13.2516332"><ele>1283.6666666666667</ele><time>2026-05-02T16:21:37.86Z</time></trkpt><trkpt lat="42.2566875" lon="13.2515859"><ele>1283.0</ele><time>2026-05-02T16:21:38.859Z</time></trkpt><trkpt lat="42.256773" lon="13.2515409"><ele>1285.3333333333335</ele><time>2026-05-02T16:21:39.86Z</time></trkpt><trkpt lat="42.2568545" lon="13.2515042"><ele>1287.6666666666667</ele><time>2026-05-02T16:21:40.86Z</time></trkpt><trkpt lat="42.2569249" lon="13.2514823"><ele>1290.0</ele><time>2026-05-02T16:21:41.859Z</time></trkpt><trkpt lat="42.2570247" lon="13.2514819"><ele>1292.3333333333333</ele><time>2026-05-02T16:21:43.86Z</time></trkpt><trkpt lat="42.2570895" lon="13.25154"><ele>1294.6666666666665</ele><time>2026-05-02T16:21:45.859Z</time></trkpt><trkpt lat="42.2571437" lon="13.2516572"><ele>1297.0</ele><time>2026-05-02T16:21:47.86Z</time></trkpt><trkpt lat="42.2571669" lon="13.2517526"><ele>1297.0</ele><time>2026-05-02T16:21:48.859Z</time></trkpt><trkpt lat="42.2571819" lon="13.2518644"><ele>1297.0</ele><time>2026-05-02T16:21:49.86Z</time></trkpt><trkpt lat="42.2571931" lon="13.2519912"><ele>1297.0</ele><time>2026-05-02T16:21:50.859Z</time></trkpt><trkpt lat="42.2572009" lon="13.2521209"><ele>1297.0</ele><time>2026-05-02T16:21:51.86Z</time></trkpt><trkpt lat="42.2572101" lon="13.252234"><ele>1297.0</ele><time>2026-05-02T16:21:52.86Z</time></trkpt><trkpt lat="42.2572135" lon="13.2523274"><ele>1297.0</ele><time>2026-05-02T16:21:53.86Z</time></trkpt><trkpt lat="42.2572155" lon="13.2524143"><ele>1297.8333333333333</ele><time>2026-05-02T16:21:54.859Z</time></trkpt><trkpt lat="42.2572271" lon="13.2525633"><ele>1298.6666666666665</ele><time>2026-05-02T16:21:56.859Z</time></trkpt><trkpt lat="42.257272" lon="13.2526537"><ele>1299.5</ele><time>2026-05-02T16:21:58.859Z</time></trkpt><trkpt lat="42.2573444" lon="13.2526716"><ele>1300.3333333333333</ele><time>2026-05-02T16:22:00.861Z</time></trkpt><trkpt lat="42.2574439" lon="13.2526169"><ele>1301.1666666666667</ele><time>2026-05-02T16:22:02.86Z</time></trkpt><trkpt lat="42.2575039" lon="13.2525838"><ele>1302.0</ele><time>2026-05-02T16:22:03.861Z</time></trkpt><trkpt lat="42.2575668" lon="13.2525688"><ele>1299.6</ele><time>2026-05-02T16:22:04.861Z</time></trkpt><trkpt lat="42.2576357" lon="13.2525626"><ele>1297.1999999999998</ele><time>2026-05-02T16:22:05.861Z</time></trkpt><trkpt lat="42.2577206" lon="13.2525659"><ele>1294.8</ele><time>2026-05-02T16:22:06.861Z</time></trkpt><trkpt lat="42.2578166" lon="13.2525754"><ele>1292.4</ele><time>2026-05-02T16:22:07.86Z</time></trkpt><trkpt lat="42.2579345" lon="13.2525763"><ele>1290.0</ele><time>2026-05-02T16:22:08.86Z</time></trkpt><trkpt lat="42.2580461" lon="13.2525633"><ele>1290.0</ele><time>2026-05-02T16:22:09.861Z</time></trkpt><trkpt lat="42.2581453" lon="13.2525384"><ele>1290.0</ele><time>2026-05-02T16:22:10.86Z</time></trkpt><trkpt lat="42.2582401" lon="13.2525016"><ele>1290.0</ele><time>2026-05-02T16:22:11.86Z</time></trkpt><trkpt lat="42.2583255" lon="13.2524374"><ele>1290.0</ele><time>2026-05-02T16:22:12.861Z</time></trkpt><trkpt lat="42.2584114" lon="13.2523548"><ele>1290.0</ele><time>2026-05-02T16:22:13.86Z</time></trkpt><trkpt lat="42.2584907" lon="13.2522625"><ele>1287.4</ele><time>2026-05-02T16:22:14.86Z</time></trkpt><trkpt lat="42.2585533" lon="13.2521746"><ele>1284.8</ele><time>2026-05-02T16:22:15.86Z</time></trkpt><trkpt lat="42.2586064" lon="13.2520787"><ele>1282.2</ele><time>2026-05-02T16:22:16.86Z</time></trkpt><trkpt lat="42.2586532" lon="13.2519766"><ele>1279.6</ele><time>2026-05-02T16:22:17.861Z</time></trkpt><trkpt lat="42.2587024" lon="13.2518645"><ele>1277.0</ele><time>2026-05-02T16:22:18.861Z</time></trkpt><trkpt lat="42.2587606" lon="13.2517521"><ele>1277.0</ele><time>2026-05-02T16:22:19.86Z</time></trkpt><trkpt lat="42.25882" lon="13.2516614"><ele>1277.0</ele><time>2026-05-02T16:22:20.861Z</time></trkpt><trkpt lat="42.2588847" lon="13.2515758"><ele>1277.0</ele><time>2026-05-02T16:22:21.86Z</time></trkpt><trkpt lat="42.2589492" lon="13.2515017"><ele>1277.0</ele><time>2026-05-02T16:22:22.861Z</time></trkpt><trkpt lat="42.2590173" lon="13.2514387"><ele>1277.0</ele><time>2026-05-02T16:22:23.86Z</time></trkpt><trkpt lat="42.2590855" lon="13.2513801"><ele>1277.0</ele><time>2026-05-02T16:22:24.86Z</time></trkpt><trkpt lat="42.259168" lon="13.2513462"><ele>1275.5</ele><time>2026-05-02T16:22:25.861Z</time></trkpt><trkpt lat="42.2592541" lon="13.2513257"><ele>1274.0</ele><time>2026-05-02T16:22:26.86Z</time></trkpt><trkpt lat="42.2593369" lon="13.251301"><ele>1272.5</ele><time>2026-05-02T16:22:27.861Z</time></trkpt><trkpt lat="42.2594135" lon="13.2512675"><ele>1271.0</ele><time>2026-05-02T16:22:28.86Z</time></trkpt><trkpt lat="42.2594882" lon="13.2512133"><ele>1269.5</ele><time>2026-05-02T16:22:29.861Z</time></trkpt><trkpt lat="42.2595597" lon="13.2511413"><ele>1268.0</ele><time>2026-05-02T16:22:30.861Z</time></trkpt><trkpt lat="42.259616" lon="13.2510556"><ele>1268.0</ele><time>2026-05-02T16:22:31.861Z</time></trkpt><trkpt lat="42.2596611" lon="13.2509534"><ele>1268.0</ele><time>2026-05-02T16:22:32.861Z</time></trkpt><trkpt lat="42.2597003" lon="13.2508343"><ele>1268.0</ele><time>2026-05-02T16:22:33.86Z</time></trkpt><trkpt lat="42.2597446" lon="13.2507147"><ele>1268.0</ele><time>2026-05-02T16:22:34.86Z</time></trkpt><trkpt lat="42.2597923" lon="13.2505899"><ele>1268.0</ele><time>2026-05-02T16:22:35.86Z</time></trkpt><trkpt lat="42.2598354" lon="13.2504517"><ele>1268.8</ele><time>2026-05-02T16:22:36.861Z</time></trkpt><trkpt lat="42.2598612" lon="13.2503114"><ele>1269.6</ele><time>2026-05-02T16:22:37.861Z</time></trkpt><trkpt lat="42.2598814" lon="13.2501692"><ele>1270.4</ele><time>2026-05-02T16:22:38.861Z</time></trkpt><trkpt lat="42.2598961" lon="13.2500359"><ele>1271.2</ele><time>2026-05-02T16:22:39.86Z</time></trkpt><trkpt lat="42.2599031" lon="13.249903"><ele>1272.0</ele><time>2026-05-02T16:22:40.86Z</time></trkpt><trkpt lat="42.2599202" lon="13.2497725"><ele>1270.4</ele><time>2026-05-02T16:22:41.86Z</time></trkpt><trkpt lat="42.2599515" lon="13.249644"><ele>1268.8000000000002</ele><time>2026-05-02T16:22:42.86Z</time></trkpt><trkpt lat="42.2599913" lon="13.2495209"><ele>1267.2</ele><time>2026-05-02T16:22:43.86Z</time></trkpt><trkpt lat="42.2600324" lon="13.2493883"><ele>1265.6000000000001</ele><time>2026-05-02T16:22:44.86Z</time></trkpt><trkpt lat="42.2600694" lon="13.2492488"><ele>1264.0</ele><time>2026-05-02T16:22:45.86Z</time></trkpt><trkpt lat="42.2601051" lon="13.2491096"><ele>1264.0</ele><time>2026-05-02T16:22:46.86Z</time></trkpt><trkpt lat="42.2601365" lon="13.2489646"><ele>1264.0</ele><time>2026-05-02T16:22:47.86Z</time></trkpt><trkpt lat="42.2601602" lon="13.248815"><ele>1264.0</ele><time>2026-05-02T16:22:48.861Z</time></trkpt><trkpt lat="42.2601815" lon="13.2486585"><ele>1264.0</ele><time>2026-05-02T16:22:49.86Z</time></trkpt><trkpt lat="42.2602027" lon="13.248503"><ele>1262.75</ele><time>2026-05-02T16:22:50.861Z</time></trkpt><trkpt lat="42.2602241" lon="13.2483523"><ele>1261.5</ele><time>2026-05-02T16:22:51.861Z</time></trkpt><trkpt lat="42.2602434" lon="13.2482024"><ele>1260.25</ele><time>2026-05-02T16:22:52.861Z</time></trkpt><trkpt lat="42.2602651" lon="13.2480545"><ele>1259.0</ele><time>2026-05-02T16:22:53.86Z</time></trkpt><trkpt lat="42.2602861" lon="13.2479012"><ele>1258.0</ele><time>2026-05-02T16:22:54.861Z</time></trkpt><trkpt lat="42.2603106" lon="13.2477594"><ele>1257.0</ele><time>2026-05-02T16:22:55.86Z</time></trkpt><trkpt lat="42.2603321" lon="13.2476337"><ele>1256.0</ele><time>2026-05-02T16:22:56.86Z</time></trkpt><trkpt lat="42.2603484" lon="13.2475189"><ele>1255.0</ele><time>2026-05-02T16:22:57.86Z</time></trkpt><trkpt lat="42.260366" lon="13.2474169"><ele>1254.0</ele><time>2026-05-02T16:22:58.86Z</time></trkpt><trkpt lat="42.2603874" lon="13.2473285"><ele>1253.0</ele><time>2026-05-02T16:22:59.861Z</time></trkpt><trkpt lat="42.2604223" lon="13.2472511"><ele>1253.0</ele><time>2026-05-02T16:23:00.86Z</time></trkpt><trkpt lat="42.2604708" lon="13.2471758"><ele>1253.0</ele><time>2026-05-02T16:23:01.861Z</time></trkpt><trkpt lat="42.2605387" lon="13.2470934"><ele>1253.0</ele><time>2026-05-02T16:23:02.861Z</time></trkpt><trkpt lat="42.2606034" lon="13.2469904"><ele>1253.0</ele><time>2026-05-02T16:23:03.861Z</time></trkpt><trkpt lat="42.2606752" lon="13.2468703"><ele>1253.0</ele><time>2026-05-02T16:23:04.861Z</time></trkpt><trkpt lat="42.2607426" lon="13.2467414"><ele>1252.5</ele><time>2026-05-02T16:23:05.86Z</time></trkpt><trkpt lat="42.2608153" lon="13.2466105"><ele>1252.0</ele><time>2026-05-02T16:23:06.861Z</time></trkpt><trkpt lat="42.2608863" lon="13.2464802"><ele>1251.5</ele><time>2026-05-02T16:23:07.86Z</time></trkpt><trkpt lat="42.2609374" lon="13.2463484"><ele>1251.0</ele><time>2026-05-02T16:23:08.861Z</time></trkpt><trkpt lat="42.2610039" lon="13.2462182"><ele>1251.0</ele><time>2026-05-02T16:23:09.86Z</time></trkpt><trkpt lat="42.261064" lon="13.2460856"><ele>1251.0</ele><time>2026-05-02T16:23:10.86Z</time></trkpt><trkpt lat="42.2611345" lon="13.2459455"><ele>1251.0</ele><time>2026-05-02T16:23:11.861Z</time></trkpt><trkpt lat="42.261223" lon="13.2457945"><ele>1251.0</ele><time>2026-05-02T16:23:12.861Z</time></trkpt><trkpt lat="42.2613108" lon="13.2456469"><ele>1252.0</ele><time>2026-05-02T16:23:13.861Z</time></trkpt><trkpt lat="42.2613856" lon="13.2455094"><ele>1253.0</ele><time>2026-05-02T16:23:14.86Z</time></trkpt><trkpt lat="42.2614516" lon="13.2453758"><ele>1254.0</ele><time>2026-05-02T16:23:15.86Z</time></trkpt><trkpt lat="42.2615202" lon="13.2452415"><ele>1255.0</ele><time>2026-05-02T16:23:16.861Z</time></trkpt><trkpt lat="42.2615847" lon="13.2451085"><ele>1255.0</ele><time>2026-05-02T16:23:17.86Z</time></trkpt><trkpt lat="42.2616371" lon="13.2449757"><ele>1255.0</ele><time>2026-05-02T16:23:18.861Z</time></trkpt><trkpt lat="42.261683" lon="13.2448456"><ele>1255.0</ele><time>2026-05-02T16:23:19.86Z</time></trkpt><trkpt lat="42.2617224" lon="13.2447107"><ele>1255.0</ele><time>2026-05-02T16:23:20.86Z</time></trkpt><trkpt lat="42.2617499" lon="13.2445715"><ele>1255.0</ele><time>2026-05-02T16:23:21.86Z</time></trkpt><trkpt lat="42.2617554" lon="13.2444368"><ele>1254.6</ele><time>2026-05-02T16:23:22.861Z</time></trkpt><trkpt lat="42.2617453" lon="13.2443014"><ele>1254.2</ele><time>2026-05-02T16:23:23.86Z</time></trkpt><trkpt lat="42.2617174" lon="13.2441694"><ele>1253.8</ele><time>2026-05-02T16:23:24.86Z</time></trkpt><trkpt lat="42.2616787" lon="13.2440502"><ele>1253.4</ele><time>2026-05-02T16:23:25.86Z</time></trkpt><trkpt lat="42.2616244" lon="13.2439374"><ele>1253.0</ele><time>2026-05-02T16:23:26.861Z</time></trkpt><trkpt lat="42.2615446" lon="13.2438288"><ele>1253.0</ele><time>2026-05-02T16:23:27.86Z</time></trkpt><trkpt lat="42.2614583" lon="13.243725"><ele>1253.0</ele><time>2026-05-02T16:23:28.861Z</time></trkpt><trkpt lat="42.261361" lon="13.2436319"><ele>1253.0</ele><time>2026-05-02T16:23:29.861Z</time></trkpt><trkpt lat="42.2612671" lon="13.2435428"><ele>1253.0</ele><time>2026-05-02T16:23:30.861Z</time></trkpt><trkpt lat="42.2611765" lon="13.2434593"><ele>1253.0</ele><time>2026-05-02T16:23:31.86Z</time></trkpt><trkpt lat="42.2610852" lon="13.2433813"><ele>1253.0</ele><time>2026-05-02T16:23:32.861Z</time></trkpt><trkpt lat="42.2610069" lon="13.2433108"><ele>1253.0</ele><time>2026-05-02T16:23:33.86Z</time></trkpt><trkpt lat="42.2609365" lon="13.2432451"><ele>1253.0</ele><time>2026-05-02T16:23:34.86Z</time></trkpt><trkpt lat="42.2608762" lon="13.2431695"><ele>1253.0</ele><time>2026-05-02T16:23:35.86Z</time></trkpt><trkpt lat="42.2608296" lon="13.243087"><ele>1253.0</ele><time>2026-05-02T16:23:36.861Z</time></trkpt><trkpt lat="42.2607932" lon="13.2429926"><ele>1253.0</ele><time>2026-05-02T16:23:37.86Z</time></trkpt><trkpt lat="42.2607713" lon="13.2428945"><ele>1253.0</ele><time>2026-05-02T16:23:38.861Z</time></trkpt><trkpt lat="42.2607619" lon="13.2427884"><ele>1253.0</ele><time>2026-05-02T16:23:39.861Z</time></trkpt><trkpt lat="42.2607619" lon="13.2426631"><ele>1253.0</ele><time>2026-05-02T16:23:40.86Z</time></trkpt><trkpt lat="42.26076" lon="13.2425382"><ele>1253.0</ele><time>2026-05-02T16:23:41.86Z</time></trkpt><trkpt lat="42.2607381" lon="13.2424099"><ele>1253.0</ele><time>2026-05-02T16:23:42.861Z</time></trkpt><trkpt lat="42.2607038" lon="13.2422777"><ele>1252.6</ele><time>2026-05-02T16:23:43.86Z</time></trkpt><trkpt lat="42.2606621" lon="13.2421436"><ele>1252.1999999999998</ele><time>2026-05-02T16:23:44.86Z</time></trkpt><trkpt lat="42.260622" lon="13.2420119"><ele>1251.8</ele><time>2026-05-02T16:23:45.86Z</time></trkpt><trkpt lat="42.2605887" lon="13.2418814"><ele>1251.3999999999999</ele><time>2026-05-02T16:23:46.86Z</time></trkpt><trkpt lat="42.2605645" lon="13.241748"><ele>1251.0</ele><time>2026-05-02T16:23:47.86Z</time></trkpt><trkpt lat="42.2605526" lon="13.2416129"><ele>1249.3999999999999</ele><time>2026-05-02T16:23:48.86Z</time></trkpt><trkpt lat="42.2605497" lon="13.2414773"><ele>1247.8</ele><time>2026-05-02T16:23:49.86Z</time></trkpt><trkpt lat="42.2605575" lon="13.2413398"><ele>1246.1999999999998</ele><time>2026-05-02T16:23:50.86Z</time></trkpt><trkpt lat="42.2605771" lon="13.2412116"><ele>1244.6</ele><time>2026-05-02T16:23:51.86Z</time></trkpt><trkpt lat="42.2606057" lon="13.2410959"><ele>1243.0</ele><time>2026-05-02T16:23:52.86Z</time></trkpt><trkpt lat="42.260642" lon="13.240994"><ele>1243.0</ele><time>2026-05-02T16:23:53.861Z</time></trkpt><trkpt lat="42.2606826" lon="13.2409113"><ele>1243.0</ele><time>2026-05-02T16:23:54.86Z</time></trkpt><trkpt lat="42.2607369" lon="13.2408415"><ele>1243.0</ele><time>2026-05-02T16:23:55.861Z</time></trkpt><trkpt lat="42.2608111" lon="13.2407781"><ele>1243.0</ele><time>2026-05-02T16:23:56.861Z</time></trkpt><trkpt lat="42.260907" lon="13.2407185"><ele>1243.0</ele><time>2026-05-02T16:23:57.86Z</time></trkpt><trkpt lat="42.2610136" lon="13.2406638"><ele>1241.6</ele><time>2026-05-02T16:23:58.861Z</time></trkpt><trkpt lat="42.2611152" lon="13.2406079"><ele>1240.1999999999998</ele><time>2026-05-02T16:23:59.86Z</time></trkpt><trkpt lat="42.2612122" lon="13.240553"><ele>1238.8</ele><time>2026-05-02T16:24:00.86Z</time></trkpt><trkpt lat="42.2613038" lon="13.2405005"><ele>1237.3999999999999</ele><time>2026-05-02T16:24:01.861Z</time></trkpt><trkpt lat="42.2614001" lon="13.2404522"><ele>1236.0</ele><time>2026-05-02T16:24:02.861Z</time></trkpt><trkpt lat="42.2614967" lon="13.2403965"><ele>1236.0</ele><time>2026-05-02T16:24:03.861Z</time></trkpt><trkpt lat="42.2615839" lon="13.2403195"><ele>1236.0</ele><time>2026-05-02T16:24:04.861Z</time></trkpt><trkpt lat="42.2616623" lon="13.2402314"><ele>1236.0</ele><time>2026-05-02T16:24:05.86Z</time></trkpt><trkpt lat="42.2617418" lon="13.240148"><ele>1236.0</ele><time>2026-05-02T16:24:06.861Z</time></trkpt><trkpt lat="42.2618272" lon="13.2400707"><ele>1236.0</ele><time>2026-05-02T16:24:07.86Z</time></trkpt><trkpt lat="42.2619141" lon="13.2400082"><ele>1236.0</ele><time>2026-05-02T16:24:08.86Z</time></trkpt><trkpt lat="42.2620115" lon="13.2399567"><ele>1236.0</ele><time>2026-05-02T16:24:09.86Z</time></trkpt><trkpt lat="42.2621211" lon="13.2399047"><ele>1236.0</ele><time>2026-05-02T16:24:10.861Z</time></trkpt><trkpt lat="42.2622241" lon="13.2398596"><ele>1236.0</ele><time>2026-05-02T16:24:11.86Z</time></trkpt><trkpt lat="42.2623279" lon="13.2398209"><ele>1236.0</ele><time>2026-05-02T16:24:12.86Z</time></trkpt><trkpt lat="42.2624288" lon="13.2397841"><ele>1232.0</ele><time>2026-05-02T16:24:13.861Z</time></trkpt><trkpt lat="42.2625394" lon="13.2397668"><ele>1228.0</ele><time>2026-05-02T16:24:14.861Z</time></trkpt><trkpt lat="42.2626438" lon="13.239757"><ele>1224.0</ele><time>2026-05-02T16:24:15.86Z</time></trkpt><trkpt lat="42.2627456" lon="13.2397527"><ele>1220.0</ele><time>2026-05-02T16:24:16.861Z</time></trkpt><trkpt lat="42.2628373" lon="13.2397492"><ele>1216.0</ele><time>2026-05-02T16:24:17.86Z</time></trkpt><trkpt lat="42.2629154" lon="13.2397332"><ele>1216.0</ele><time>2026-05-02T16:24:18.86Z</time></trkpt><trkpt lat="42.2629991" lon="13.2397057"><ele>1216.0</ele><time>2026-05-02T16:24:19.861Z</time></trkpt><trkpt lat="42.2630635" lon="13.2396666"><ele>1216.0</ele><time>2026-05-02T16:24:20.861Z</time></trkpt><trkpt lat="42.26313" lon="13.239626"><ele>1216.0</ele><time>2026-05-02T16:24:21.86Z</time></trkpt><trkpt lat="42.2631887" lon="13.2395757"><ele>1216.0</ele><time>2026-05-02T16:24:22.86Z</time></trkpt><trkpt lat="42.263222" lon="13.2393969"><ele>1216.0</ele><time>2026-05-02T16:24:24.861Z</time></trkpt><trkpt lat="42.263222" lon="13.239271"><ele>1215.8</ele><time>2026-05-02T16:24:25.86Z</time></trkpt><trkpt lat="42.2632271" lon="13.2391262"><ele>1215.6</ele><time>2026-05-02T16:24:26.861Z</time></trkpt><trkpt lat="42.2632381" lon="13.23897"><ele>1215.4</ele><time>2026-05-02T16:24:27.861Z</time></trkpt><trkpt lat="42.2632514" lon="13.2388211"><ele>1215.2</ele><time>2026-05-02T16:24:28.861Z</time></trkpt><trkpt lat="42.2632711" lon="13.2386861"><ele>1215.0</ele><time>2026-05-02T16:24:29.86Z</time></trkpt><trkpt lat="42.2632957" lon="13.2385647"><ele>1215.0</ele><time>2026-05-02T16:24:30.86Z</time></trkpt><trkpt lat="42.2633354" lon="13.238456"><ele>1215.0</ele><time>2026-05-02T16:24:31.861Z</time></trkpt><trkpt lat="42.2633908" lon="13.2383488"><ele>1215.0</ele><time>2026-05-02T16:24:32.86Z</time></trkpt><trkpt lat="42.2634525" lon="13.2382388"><ele>1215.0</ele><time>2026-05-02T16:24:33.861Z</time></trkpt><trkpt lat="42.2635167" lon="13.2381274"><ele>1215.0</ele><time>2026-05-02T16:24:34.86Z</time></trkpt><trkpt lat="42.2635777" lon="13.238022"><ele>1214.5</ele><time>2026-05-02T16:24:35.861Z</time></trkpt><trkpt lat="42.2636367" lon="13.237927"><ele>1214.0</ele><time>2026-05-02T16:24:36.861Z</time></trkpt><trkpt lat="42.2636884" lon="13.2378485"><ele>1213.5</ele><time>2026-05-02T16:24:37.861Z</time></trkpt><trkpt lat="42.2637365" lon="13.2377849"><ele>1213.0</ele><time>2026-05-02T16:24:38.86Z</time></trkpt><trkpt lat="42.2638055" lon="13.2376896"><ele>1212.5</ele><time>2026-05-02T16:24:40.861Z</time></trkpt><trkpt lat="42.2638658" lon="13.2376517"><ele>1212.0</ele><time>2026-05-02T16:24:43.861Z</time></trkpt><trkpt lat="42.2640708" lon="13.237566"><ele>1212.0</ele><time>2026-05-02T16:26:40.861Z</time></trkpt><trkpt lat="42.2641451" lon="13.2375083"><ele>1212.0</ele><time>2026-05-02T16:26:41.861Z</time></trkpt><trkpt lat="42.2642216" lon="13.237456"><ele>1212.0</ele><time>2026-05-02T16:26:42.86Z</time></trkpt><trkpt lat="42.264299" lon="13.2374165"><ele>1212.0</ele><time>2026-05-02T16:26:43.861Z</time></trkpt><trkpt lat="42.2643761" lon="13.2373917"><ele>1212.0</ele><time>2026-05-02T16:26:44.861Z</time></trkpt><trkpt lat="42.2644547" lon="13.2373766"><ele>1212.0</ele><time>2026-05-02T16:26:45.86Z</time></trkpt><trkpt lat="42.2645336" lon="13.2373778"><ele>1212.0</ele><time>2026-05-02T16:26:46.861Z</time></trkpt><trkpt lat="42.2646032" lon="13.2373992"><ele>1212.0</ele><time>2026-05-02T16:26:47.861Z</time></trkpt><trkpt lat="42.2646633" lon="13.2374344"><ele>1212.0</ele><time>2026-05-02T16:26:48.86Z</time></trkpt><trkpt lat="42.264724" lon="13.2374818"><ele>1212.0</ele><time>2026-05-02T16:26:49.86Z</time></trkpt><trkpt lat="42.2647902" lon="13.2375518"><ele>1212.0</ele><time>2026-05-02T16:26:50.861Z</time></trkpt><trkpt lat="42.2648565" lon="13.2376409"><ele>1212.0</ele><time>2026-05-02T16:26:51.86Z</time></trkpt><trkpt lat="42.2649243" lon="13.2377279"><ele>1212.6</ele><time>2026-05-02T16:26:52.861Z</time></trkpt><trkpt lat="42.2649983" lon="13.2378099"><ele>1213.2</ele><time>2026-05-02T16:26:53.86Z</time></trkpt><trkpt lat="42.2650778" lon="13.2378873"><ele>1213.8</ele><time>2026-05-02T16:26:54.861Z</time></trkpt><trkpt lat="42.2651527" lon="13.237964"><ele>1214.4</ele><time>2026-05-02T16:26:55.861Z</time></trkpt><trkpt lat="42.2652225" lon="13.2380487"><ele>1215.0</ele><time>2026-05-02T16:26:56.861Z</time></trkpt><trkpt lat="42.2652917" lon="13.2381557"><ele>1213.0</ele><time>2026-05-02T16:26:57.861Z</time></trkpt><trkpt lat="42.2653538" lon="13.2382847"><ele>1211.0</ele><time>2026-05-02T16:26:58.86Z</time></trkpt><trkpt lat="42.265411" lon="13.2384239"><ele>1209.0</ele><time>2026-05-02T16:26:59.861Z</time></trkpt><trkpt lat="42.2654669" lon="13.238565"><ele>1207.0</ele><time>2026-05-02T16:27:00.861Z</time></trkpt><trkpt lat="42.2655261" lon="13.2386992"><ele>1207.0</ele><time>2026-05-02T16:27:01.86Z</time></trkpt><trkpt lat="42.2655836" lon="13.2388156"><ele>1207.0</ele><time>2026-05-02T16:27:02.86Z</time></trkpt><trkpt lat="42.2656376" lon="13.2389203"><ele>1207.0</ele><time>2026-05-02T16:27:03.86Z</time></trkpt><trkpt lat="42.2656891" lon="13.2390202"><ele>1207.0</ele><time>2026-05-02T16:27:04.86Z</time></trkpt><trkpt lat="42.2657317" lon="13.2391183"><ele>1207.0</ele><time>2026-05-02T16:27:05.86Z</time></trkpt><trkpt lat="42.2657717" lon="13.2392283"><ele>1206.2</ele><time>2026-05-02T16:27:06.86Z</time></trkpt><trkpt lat="42.2658083" lon="13.2393617"><ele>1205.4</ele><time>2026-05-02T16:27:07.861Z</time></trkpt><trkpt lat="42.265845" lon="13.2395"><ele>1204.6</ele><time>2026-05-02T16:27:08.86Z</time></trkpt><trkpt lat="42.2658983" lon="13.239625"><ele>1203.8</ele><time>2026-05-02T16:27:09.86Z</time></trkpt><trkpt lat="42.2659633" lon="13.23975"><ele>1203.0</ele><time>2026-05-02T16:27:10.86Z</time></trkpt><trkpt lat="42.26604" lon="13.2398667"><ele>1201.0</ele><time>2026-05-02T16:27:11.861Z</time></trkpt><trkpt lat="42.2661217" lon="13.2399883"><ele>1199.0</ele><time>2026-05-02T16:27:12.86Z</time></trkpt><trkpt lat="42.2661967" lon="13.2401067"><ele>1197.0</ele><time>2026-05-02T16:27:13.86Z</time></trkpt><trkpt lat="42.2662783" lon="13.240215"><ele>1195.0</ele><time>2026-05-02T16:27:14.86Z</time></trkpt><trkpt lat="42.26636" lon="13.2403167"><ele>1195.5</ele><time>2026-05-02T16:27:15.86Z</time></trkpt><trkpt lat="42.2664517" lon="13.24042"><ele>1196.0</ele><time>2026-05-02T16:27:16.86Z</time></trkpt><trkpt lat="42.266555" lon="13.2405033"><ele>1196.5</ele><time>2026-05-02T16:27:17.86Z</time></trkpt><trkpt lat="42.26667" lon="13.2405733"><ele>1197.0</ele><time>2026-05-02T16:27:18.86Z</time></trkpt><trkpt lat="42.2667883" lon="13.2406383"><ele>1194.0</ele><time>2026-05-02T16:27:19.86Z</time></trkpt><trkpt lat="42.26691" lon="13.240695"><ele>1191.0</ele><time>2026-05-02T16:27:20.86Z</time></trkpt><trkpt lat="42.2670367" lon="13.2407483"><ele>1188.0</ele><time>2026-05-02T16:27:21.86Z</time></trkpt><trkpt lat="42.26716" lon="13.2407967"><ele>1185.0</ele><time>2026-05-02T16:27:22.86Z</time></trkpt><trkpt lat="42.2672883" lon="13.24084"><ele>1184.75</ele><time>2026-05-02T16:27:23.861Z</time></trkpt><trkpt lat="42.2674033" lon="13.2408817"><ele>1184.5</ele><time>2026-05-02T16:27:24.861Z</time></trkpt><trkpt lat="42.2675183" lon="13.2409233"><ele>1184.25</ele><time>2026-05-02T16:27:25.86Z</time></trkpt><trkpt lat="42.2676267" lon="13.2409767"><ele>1184.0</ele><time>2026-05-02T16:27:26.86Z</time></trkpt><trkpt lat="42.2677283" lon="13.2410417"><ele>1184.0</ele><time>2026-05-02T16:27:27.861Z</time></trkpt><trkpt lat="42.2678133" lon="13.2411133"><ele>1184.0</ele><time>2026-05-02T16:27:28.86Z</time></trkpt><trkpt lat="42.2678783" lon="13.2411867"><ele>1184.0</ele><time>2026-05-02T16:27:29.86Z</time></trkpt><trkpt lat="42.2679283" lon="13.241275"><ele>1184.0</ele><time>2026-05-02T16:27:30.86Z</time></trkpt><trkpt lat="42.2679617" lon="13.241375"><ele>1184.0</ele><time>2026-05-02T16:27:31.861Z</time></trkpt><trkpt lat="42.2679733" lon="13.2415017"><ele>1184.0</ele><time>2026-05-02T16:27:32.86Z</time></trkpt><trkpt lat="42.26797" lon="13.2416467"><ele>1183.0</ele><time>2026-05-02T16:27:33.86Z</time></trkpt><trkpt lat="42.26796" lon="13.2418033"><ele>1182.0</ele><time>2026-05-02T16:27:34.86Z</time></trkpt><trkpt lat="42.2679617" lon="13.241965"><ele>1181.0</ele><time>2026-05-02T16:27:35.861Z</time></trkpt><trkpt lat="42.267975" lon="13.2421183"><ele>1180.0</ele><time>2026-05-02T16:27:36.861Z</time></trkpt><trkpt lat="42.268005" lon="13.2422833"><ele>1179.8</ele><time>2026-05-02T16:27:37.861Z</time></trkpt><trkpt lat="42.2680467" lon="13.24244"><ele>1179.6</ele><time>2026-05-02T16:27:38.861Z</time></trkpt><trkpt lat="42.2680917" lon="13.24258"><ele>1179.4</ele><time>2026-05-02T16:27:39.86Z</time></trkpt><trkpt lat="42.2681267" lon="13.2427083"><ele>1179.2</ele><time>2026-05-02T16:27:40.861Z</time></trkpt><trkpt lat="42.2681667" lon="13.2428083"><ele>1179.0</ele><time>2026-05-02T16:27:41.86Z</time></trkpt><trkpt lat="42.26821" lon="13.242895"><ele>1179.0</ele><time>2026-05-02T16:27:42.861Z</time></trkpt><trkpt lat="42.2682717" lon="13.2429533"><ele>1179.0</ele><time>2026-05-02T16:27:43.861Z</time></trkpt><trkpt lat="42.26834" lon="13.2429933"><ele>1179.0</ele><time>2026-05-02T16:27:44.861Z</time></trkpt><trkpt lat="42.268425" lon="13.243015"><ele>1179.0</ele><time>2026-05-02T16:27:45.861Z</time></trkpt><trkpt lat="42.2685317" lon="13.24302"><ele>1179.0</ele><time>2026-05-02T16:27:46.86Z</time></trkpt><trkpt lat="42.2686433" lon="13.2430133"><ele>1179.0</ele><time>2026-05-02T16:27:47.861Z</time></trkpt><trkpt lat="42.2687517" lon="13.2430183"><ele>1179.0</ele><time>2026-05-02T16:27:48.86Z</time></trkpt><trkpt lat="42.2688617" lon="13.2430383"><ele>1179.0</ele><time>2026-05-02T16:27:49.861Z</time></trkpt><trkpt lat="42.2689667" lon="13.2430767"><ele>1179.0</ele><time>2026-05-02T16:27:50.86Z</time></trkpt><trkpt lat="42.2690717" lon="13.243125"><ele>1179.0</ele><time>2026-05-02T16:27:51.86Z</time></trkpt><trkpt lat="42.2691667" lon="13.24317"><ele>1180.6000000000001</ele><time>2026-05-02T16:27:52.861Z</time></trkpt><trkpt lat="42.2692533" lon="13.2432117"><ele>1182.2</ele><time>2026-05-02T16:27:53.86Z</time></trkpt><trkpt lat="42.2693333" lon="13.2432567"><ele>1183.8000000000002</ele><time>2026-05-02T16:27:54.86Z</time></trkpt><trkpt lat="42.2694199" lon="13.2432903"><ele>1185.4</ele><time>2026-05-02T16:27:55.86Z</time></trkpt><trkpt lat="42.2695096" lon="13.2433289"><ele>1187.0</ele><time>2026-05-02T16:27:56.86Z</time></trkpt><trkpt lat="42.2696015" lon="13.2433627"><ele>1187.0</ele><time>2026-05-02T16:27:57.86Z</time></trkpt><trkpt lat="42.2696925" lon="13.2433841"><ele>1187.0</ele><time>2026-05-02T16:27:58.86Z</time></trkpt><trkpt lat="42.2697791" lon="13.2433852"><ele>1187.0</ele><time>2026-05-02T16:27:59.861Z</time></trkpt><trkpt lat="42.2698694" lon="13.2433668"><ele>1187.0</ele><time>2026-05-02T16:28:00.861Z</time></trkpt><trkpt lat="42.269952" lon="13.2433379"><ele>1187.0</ele><time>2026-05-02T16:28:01.861Z</time></trkpt><trkpt lat="42.2700326" lon="13.2432913"><ele>1187.0</ele><time>2026-05-02T16:28:02.86Z</time></trkpt><trkpt lat="42.2701136" lon="13.2432306"><ele>1188.2</ele><time>2026-05-02T16:28:03.86Z</time></trkpt><trkpt lat="42.270191" lon="13.2431479"><ele>1189.4</ele><time>2026-05-02T16:28:04.861Z</time></trkpt><trkpt lat="42.2702673" lon="13.2430497"><ele>1190.6</ele><time>2026-05-02T16:28:05.861Z</time></trkpt><trkpt lat="42.2703478" lon="13.242959"><ele>1191.8</ele><time>2026-05-02T16:28:06.86Z</time></trkpt><trkpt lat="42.2704339" lon="13.2428721"><ele>1193.0</ele><time>2026-05-02T16:28:07.86Z</time></trkpt><trkpt lat="42.2705316" lon="13.2427976"><ele>1192.25</ele><time>2026-05-02T16:28:08.861Z</time></trkpt><trkpt lat="42.2706413" lon="13.2427304"><ele>1191.5</ele><time>2026-05-02T16:28:09.86Z</time></trkpt><trkpt lat="42.2707479" lon="13.2426665"><ele>1190.75</ele><time>2026-05-02T16:28:10.86Z</time></trkpt><trkpt lat="42.2708547" lon="13.2425961"><ele>1190.0</ele><time>2026-05-02T16:28:11.86Z</time></trkpt><trkpt lat="42.270957" lon="13.2425269"><ele>1190.0</ele><time>2026-05-02T16:28:12.86Z</time></trkpt><trkpt lat="42.271052" lon="13.2424626"><ele>1190.0</ele><time>2026-05-02T16:28:13.86Z</time></trkpt><trkpt lat="42.271156" lon="13.2423942"><ele>1190.0</ele><time>2026-05-02T16:28:14.86Z</time></trkpt><trkpt lat="42.2712647" lon="13.2423216"><ele>1190.0</ele><time>2026-05-02T16:28:15.861Z</time></trkpt><trkpt lat="42.2713707" lon="13.2422531"><ele>1189.4</ele><time>2026-05-02T16:28:16.861Z</time></trkpt><trkpt lat="42.2714713" lon="13.2421859"><ele>1188.8</ele><time>2026-05-02T16:28:17.86Z</time></trkpt><trkpt lat="42.2715684" lon="13.2421221"><ele>1188.2</ele><time>2026-05-02T16:28:18.86Z</time></trkpt><trkpt lat="42.2716617" lon="13.2420438"><ele>1187.6</ele><time>2026-05-02T16:28:19.86Z</time></trkpt><trkpt lat="42.2717527" lon="13.2419523"><ele>1187.0</ele><time>2026-05-02T16:28:20.86Z</time></trkpt><trkpt lat="42.2718377" lon="13.2418618"><ele>1187.0</ele><time>2026-05-02T16:28:21.86Z</time></trkpt><trkpt lat="42.2719146" lon="13.2417654"><ele>1187.0</ele><time>2026-05-02T16:28:22.86Z</time></trkpt><trkpt lat="42.2719916" lon="13.2416834"><ele>1187.0</ele><time>2026-05-02T16:28:23.86Z</time></trkpt><trkpt lat="42.2720693" lon="13.2416189"><ele>1187.0</ele><time>2026-05-02T16:28:24.86Z</time></trkpt><trkpt lat="42.2721452" lon="13.2415686"><ele>1187.0</ele><time>2026-05-02T16:28:25.861Z</time></trkpt><trkpt lat="42.2722284" lon="13.2415386"><ele>1186.0</ele><time>2026-05-02T16:28:26.86Z</time></trkpt><trkpt lat="42.2723255" lon="13.2415281"><ele>1185.0</ele><time>2026-05-02T16:28:27.86Z</time></trkpt><trkpt lat="42.2724337" lon="13.2415371"><ele>1184.0</ele><time>2026-05-02T16:28:28.86Z</time></trkpt><trkpt lat="42.2725495" lon="13.2415575"><ele>1183.0</ele><time>2026-05-02T16:28:29.86Z</time></trkpt><trkpt lat="42.2726664" lon="13.2415779"><ele>1182.0</ele><time>2026-05-02T16:28:30.86Z</time></trkpt><trkpt lat="42.2727908" lon="13.2416014"><ele>1182.0</ele><time>2026-05-02T16:28:31.86Z</time></trkpt><trkpt lat="42.2729214" lon="13.2416271"><ele>1182.0</ele><time>2026-05-02T16:28:32.861Z</time></trkpt><trkpt lat="42.2730407" lon="13.2416451"><ele>1182.0</ele><time>2026-05-02T16:28:33.861Z</time></trkpt><trkpt lat="42.2731489" lon="13.2416582"><ele>1182.0</ele><time>2026-05-02T16:28:34.861Z</time></trkpt><trkpt lat="42.2732529" lon="13.241665"><ele>1181.5</ele><time>2026-05-02T16:28:35.86Z</time></trkpt><trkpt lat="42.2733504" lon="13.2416651"><ele>1181.0</ele><time>2026-05-02T16:28:36.861Z</time></trkpt><trkpt lat="42.273432" lon="13.2416685"><ele>1180.5</ele><time>2026-05-02T16:28:37.861Z</time></trkpt><trkpt lat="42.2734984" lon="13.2416927"><ele>1180.0</ele><time>2026-05-02T16:28:38.861Z</time></trkpt><trkpt lat="42.2735638" lon="13.2417323"><ele>1179.5</ele><time>2026-05-02T16:28:39.861Z</time></trkpt><trkpt lat="42.2736216" lon="13.2417838"><ele>1179.0</ele><time>2026-05-02T16:28:40.86Z</time></trkpt><trkpt lat="42.2736773" lon="13.2418522"><ele>1179.0</ele><time>2026-05-02T16:28:41.861Z</time></trkpt><trkpt lat="42.2737376" lon="13.2419424"><ele>1179.0</ele><time>2026-05-02T16:28:42.86Z</time></trkpt><trkpt lat="42.2738128" lon="13.2420455"><ele>1179.0</ele><time>2026-05-02T16:28:43.86Z</time></trkpt><trkpt lat="42.2738919" lon="13.2421369"><ele>1179.0</ele><time>2026-05-02T16:28:44.86Z</time></trkpt><trkpt lat="42.2739735" lon="13.2422048"><ele>1179.0</ele><time>2026-05-02T16:28:45.861Z</time></trkpt><trkpt lat="42.27406" lon="13.2422585"><ele>1180.5714285714284</ele><time>2026-05-02T16:28:46.861Z</time></trkpt><trkpt lat="42.2741324" lon="13.2423093"><ele>1182.142857142857</ele><time>2026-05-02T16:28:47.861Z</time></trkpt><trkpt lat="42.2741916" lon="13.2423765"><ele>1183.7142857142858</ele><time>2026-05-02T16:28:48.861Z</time></trkpt><trkpt lat="42.2742344" lon="13.2424495"><ele>1185.2857142857142</ele><time>2026-05-02T16:28:49.861Z</time></trkpt><trkpt lat="42.274261" lon="13.2425296"><ele>1186.857142857143</ele><time>2026-05-02T16:28:50.86Z</time></trkpt><trkpt lat="42.2742695" lon="13.2426184"><ele>1188.4285714285713</ele><time>2026-05-02T16:28:51.86Z</time></trkpt><trkpt lat="42.2742648" lon="13.2427212"><ele>1190.0</ele><time>2026-05-02T16:28:52.86Z</time></trkpt><trkpt lat="42.2742638" lon="13.2428321"><ele>1190.0</ele><time>2026-05-02T16:28:53.86Z</time></trkpt><trkpt lat="42.274272" lon="13.2429431"><ele>1190.0</ele><time>2026-05-02T16:28:54.86Z</time></trkpt><trkpt lat="42.2742896" lon="13.2430496"><ele>1190.0</ele><time>2026-05-02T16:28:55.86Z</time></trkpt><trkpt lat="42.2743167" lon="13.2431494"><ele>1190.0</ele><time>2026-05-02T16:28:56.86Z</time></trkpt><trkpt lat="42.2743622" lon="13.2432386"><ele>1190.0</ele><time>2026-05-02T16:28:57.861Z</time></trkpt><trkpt lat="42.2744173" lon="13.2433151"><ele>1190.0</ele><time>2026-05-02T16:28:58.861Z</time></trkpt><trkpt lat="42.2744911" lon="13.2433839"><ele>1189.5</ele><time>2026-05-02T16:28:59.86Z</time></trkpt><trkpt lat="42.2745876" lon="13.2434483"><ele>1189.0</ele><time>2026-05-02T16:29:00.86Z</time></trkpt><trkpt lat="42.2746915" lon="13.2435169"><ele>1188.5</ele><time>2026-05-02T16:29:01.86Z</time></trkpt><trkpt lat="42.2747941" lon="13.2435942"><ele>1188.0</ele><time>2026-05-02T16:29:02.861Z</time></trkpt><trkpt lat="42.27489" lon="13.2436749"><ele>1191.0</ele><time>2026-05-02T16:29:03.861Z</time></trkpt><trkpt lat="42.274985" lon="13.2437495"><ele>1194.0</ele><time>2026-05-02T16:29:04.861Z</time></trkpt><trkpt lat="42.2750848" lon="13.2438252"><ele>1197.0</ele><time>2026-05-02T16:29:05.861Z</time></trkpt><trkpt lat="42.2751902" lon="13.2438974"><ele>1200.0</ele><time>2026-05-02T16:29:06.861Z</time></trkpt><trkpt lat="42.275297" lon="13.2439635"><ele>1200.0</ele><time>2026-05-02T16:29:07.86Z</time></trkpt><trkpt lat="42.2754004" lon="13.2440255"><ele>1200.0</ele><time>2026-05-02T16:29:08.86Z</time></trkpt><trkpt lat="42.2755005" lon="13.2440897"><ele>1200.0</ele><time>2026-05-02T16:29:09.86Z</time></trkpt><trkpt lat="42.2755849" lon="13.2441561"><ele>1200.0</ele><time>2026-05-02T16:29:10.86Z</time></trkpt><trkpt lat="42.2756742" lon="13.2442435"><ele>1200.0</ele><time>2026-05-02T16:29:11.86Z</time></trkpt><trkpt lat="42.2757576" lon="13.2443213"><ele>1201.5</ele><time>2026-05-02T16:29:12.86Z</time></trkpt><trkpt lat="42.2758402" lon="13.2443909"><ele>1203.0</ele><time>2026-05-02T16:29:13.861Z</time></trkpt><trkpt lat="42.2759186" lon="13.244441"><ele>1204.5</ele><time>2026-05-02T16:29:14.861Z</time></trkpt><trkpt lat="42.2759995" lon="13.2444833"><ele>1206.0</ele><time>2026-05-02T16:29:15.861Z</time></trkpt><trkpt lat="42.2760677" lon="13.2445089"><ele>1207.5</ele><time>2026-05-02T16:29:16.86Z</time></trkpt><trkpt lat="42.2761374" lon="13.2445293"><ele>1209.0</ele><time>2026-05-02T16:29:17.86Z</time></trkpt><trkpt lat="42.2762052" lon="13.2445565"><ele>1209.0</ele><time>2026-05-02T16:29:18.861Z</time></trkpt><trkpt lat="42.2762729" lon="13.2445976"><ele>1209.0</ele><time>2026-05-02T16:29:19.861Z</time></trkpt><trkpt lat="42.2763518" lon="13.2446634"><ele>1209.0</ele><time>2026-05-02T16:29:20.861Z</time></trkpt><trkpt lat="42.2764348" lon="13.2447471"><ele>1209.0</ele><time>2026-05-02T16:29:21.861Z</time></trkpt><trkpt lat="42.2765153" lon="13.2448365"><ele>1209.0</ele><time>2026-05-02T16:29:22.86Z</time></trkpt><trkpt lat="42.2765918" lon="13.2449232"><ele>1209.8</ele><time>2026-05-02T16:29:23.86Z</time></trkpt><trkpt lat="42.2766675" lon="13.2449939"><ele>1210.6000000000001</ele><time>2026-05-02T16:29:24.86Z</time></trkpt><trkpt lat="42.2767409" lon="13.2450498"><ele>1211.4</ele><time>2026-05-02T16:29:25.861Z</time></trkpt><trkpt lat="42.2768171" lon="13.2451082"><ele>1212.2</ele><time>2026-05-02T16:29:26.861Z</time></trkpt><trkpt lat="42.2769036" lon="13.2451673"><ele>1213.0</ele><time>2026-05-02T16:29:27.86Z</time></trkpt><trkpt lat="42.2769969" lon="13.2452227"><ele>1213.0</ele><time>2026-05-02T16:29:28.861Z</time></trkpt><trkpt lat="42.2770872" lon="13.2452589"><ele>1213.0</ele><time>2026-05-02T16:29:29.861Z</time></trkpt><trkpt lat="42.2771766" lon="13.2452968"><ele>1213.0</ele><time>2026-05-02T16:29:30.86Z</time></trkpt><trkpt lat="42.2772584" lon="13.2453473"><ele>1213.0</ele><time>2026-05-02T16:29:31.861Z</time></trkpt><trkpt lat="42.2773304" lon="13.2454098"><ele>1213.0</ele><time>2026-05-02T16:29:32.86Z</time></trkpt><trkpt lat="42.2773925" lon="13.2454884"><ele>1213.0</ele><time>2026-05-02T16:29:33.86Z</time></trkpt><trkpt lat="42.2774469" lon="13.2455814"><ele>1211.4</ele><time>2026-05-02T16:29:34.86Z</time></trkpt><trkpt lat="42.2774932" lon="13.2456734"><ele>1209.8</ele><time>2026-05-02T16:29:35.861Z</time></trkpt><trkpt lat="42.2775342" lon="13.2457478"><ele>1208.2</ele><time>2026-05-02T16:29:36.86Z</time></trkpt><trkpt lat="42.2776328" lon="13.245846"><ele>1206.6</ele><time>2026-05-02T16:29:38.86Z</time></trkpt><trkpt lat="42.2777408" lon="13.2458679"><ele>1205.0</ele><time>2026-05-02T16:29:39.86Z</time></trkpt><trkpt lat="42.2778696" lon="13.2458843"><ele>1205.0</ele><time>2026-05-02T16:29:40.86Z</time></trkpt><trkpt lat="42.278002" lon="13.2458989"><ele>1205.0</ele><time>2026-05-02T16:29:41.861Z</time></trkpt><trkpt lat="42.2781308" lon="13.2459071"><ele>1205.0</ele><time>2026-05-02T16:29:42.861Z</time></trkpt><trkpt lat="42.2782539" lon="13.2459113"><ele>1205.0</ele><time>2026-05-02T16:29:43.861Z</time></trkpt><trkpt lat="42.278364" lon="13.2459067"><ele>1202.0</ele><time>2026-05-02T16:29:44.86Z</time></trkpt><trkpt lat="42.2784776" lon="13.24588"><ele>1199.0</ele><time>2026-05-02T16:29:45.86Z</time></trkpt><trkpt lat="42.2785887" lon="13.2458361"><ele>1196.0</ele><time>2026-05-02T16:29:46.86Z</time></trkpt><trkpt lat="42.2786963" lon="13.2457838"><ele>1193.0</ele><time>2026-05-02T16:29:47.861Z</time></trkpt><trkpt lat="42.2787968" lon="13.2457204"><ele>1193.0</ele><time>2026-05-02T16:29:48.86Z</time></trkpt><trkpt lat="42.2789057" lon="13.2456664"><ele>1193.0</ele><time>2026-05-02T16:29:49.86Z</time></trkpt><trkpt lat="42.2790209" lon="13.2456249"><ele>1193.0</ele><time>2026-05-02T16:29:50.86Z</time></trkpt><trkpt lat="42.2791391" lon="13.2455915"><ele>1193.0</ele><time>2026-05-02T16:29:51.861Z</time></trkpt><trkpt lat="42.2792552" lon="13.2455613"><ele>1194.25</ele><time>2026-05-02T16:29:52.86Z</time></trkpt><trkpt lat="42.2793667" lon="13.2455273"><ele>1195.5</ele><time>2026-05-02T16:29:53.86Z</time></trkpt><trkpt lat="42.2794809" lon="13.2454855"><ele>1196.75</ele><time>2026-05-02T16:29:54.86Z</time></trkpt><trkpt lat="42.2795956" lon="13.2454412"><ele>1198.0</ele><time>2026-05-02T16:29:55.861Z</time></trkpt><trkpt lat="42.2797082" lon="13.2453955"><ele>1196.5</ele><time>2026-05-02T16:29:56.861Z</time></trkpt><trkpt lat="42.2798214" lon="13.2453456"><ele>1195.0</ele><time>2026-05-02T16:29:57.86Z</time></trkpt><trkpt lat="42.279937" lon="13.2452866"><ele>1193.5</ele><time>2026-05-02T16:29:58.861Z</time></trkpt><trkpt lat="42.2800446" lon="13.2452142"><ele>1192.0</ele><time>2026-05-02T16:29:59.86Z</time></trkpt><trkpt lat="42.2801524" lon="13.2451267"><ele>1192.0</ele><time>2026-05-02T16:30:00.86Z</time></trkpt><trkpt lat="42.2802628" lon="13.2450325"><ele>1192.0</ele><time>2026-05-02T16:30:01.861Z</time></trkpt><trkpt lat="42.2803689" lon="13.244939"><ele>1192.0</ele><time>2026-05-02T16:30:02.86Z</time></trkpt><trkpt lat="42.2804783" lon="13.244853"><ele>1192.0</ele><time>2026-05-02T16:30:03.86Z</time></trkpt><trkpt lat="42.2805937" lon="13.2447785"><ele>1192.75</ele><time>2026-05-02T16:30:04.86Z</time></trkpt><trkpt lat="42.2807084" lon="13.2447172"><ele>1193.5</ele><time>2026-05-02T16:30:05.861Z</time></trkpt><trkpt lat="42.2808321" lon="13.2446626"><ele>1194.25</ele><time>2026-05-02T16:30:06.86Z</time></trkpt><trkpt lat="42.2809504" lon="13.2446136"><ele>1195.0</ele><time>2026-05-02T16:30:07.86Z</time></trkpt><trkpt lat="42.281053" lon="13.244568"><ele>1195.0</ele><time>2026-05-02T16:30:08.861Z</time></trkpt><trkpt lat="42.2811524" lon="13.244529"><ele>1195.0</ele><time>2026-05-02T16:30:09.861Z</time></trkpt><trkpt lat="42.2812476" lon="13.2445029"><ele>1195.0</ele><time>2026-05-02T16:30:10.861Z</time></trkpt><trkpt lat="42.2813495" lon="13.2444907"><ele>1195.0</ele><time>2026-05-02T16:30:11.861Z</time></trkpt><trkpt lat="42.2814551" lon="13.2445056"><ele>1195.0</ele><time>2026-05-02T16:30:12.86Z</time></trkpt><trkpt lat="42.2815615" lon="13.2445405"><ele>1193.4</ele><time>2026-05-02T16:30:13.861Z</time></trkpt><trkpt lat="42.2816706" lon="13.2445843"><ele>1191.8</ele><time>2026-05-02T16:30:14.86Z</time></trkpt><trkpt lat="42.2817814" lon="13.2446245"><ele>1190.2</ele><time>2026-05-02T16:30:15.861Z</time></trkpt><trkpt lat="42.2818853" lon="13.2446541"><ele>1188.6</ele><time>2026-05-02T16:30:16.86Z</time></trkpt><trkpt lat="42.2819734" lon="13.2446771"><ele>1187.0</ele><time>2026-05-02T16:30:17.86Z</time></trkpt><trkpt lat="42.2820482" lon="13.244692"><ele>1187.0</ele><time>2026-05-02T16:30:18.861Z</time></trkpt><trkpt lat="42.2821157" lon="13.2447002"><ele>1187.0</ele><time>2026-05-02T16:30:19.861Z</time></trkpt><trkpt lat="42.2822176" lon="13.2446869"><ele>1187.0</ele><time>2026-05-02T16:30:21.86Z</time></trkpt><trkpt lat="42.2822917" lon="13.2446263"><ele>1187.0</ele><time>2026-05-02T16:30:24.861Z</time></trkpt><trkpt lat="42.2822981" lon="13.2444971"><ele>1187.0</ele><time>2026-05-02T16:30:26.86Z</time></trkpt><trkpt lat="42.2823081" lon="13.244399"><ele>1187.0</ele><time>2026-05-02T16:30:27.86Z</time></trkpt><trkpt lat="42.2823324" lon="13.2442899"><ele>1187.0</ele><time>2026-05-02T16:30:28.86Z</time></trkpt><trkpt lat="42.2823751" lon="13.2441846"><ele>1187.0</ele><time>2026-05-02T16:30:29.861Z</time></trkpt><trkpt lat="42.2824308" lon="13.2440842"><ele>1187.0</ele><time>2026-05-02T16:30:30.86Z</time></trkpt><trkpt lat="42.282498" lon="13.2439826"><ele>1187.0</ele><time>2026-05-02T16:30:31.86Z</time></trkpt><trkpt lat="42.2825785" lon="13.2438731"><ele>1187.0</ele><time>2026-05-02T16:30:32.861Z</time></trkpt><trkpt lat="42.2826631" lon="13.2437733"><ele>1187.0</ele><time>2026-05-02T16:30:33.861Z</time></trkpt><trkpt lat="42.2827426" lon="13.2436874"><ele>1187.0</ele><time>2026-05-02T16:30:34.86Z</time></trkpt><trkpt lat="42.282818" lon="13.243611"><ele>1187.0</ele><time>2026-05-02T16:30:35.86Z</time></trkpt><trkpt lat="42.28288" lon="13.2435237"><ele>1187.0</ele><time>2026-05-02T16:30:36.86Z</time></trkpt><trkpt lat="42.2829343" lon="13.2434202"><ele>1187.0</ele><time>2026-05-02T16:30:37.86Z</time></trkpt><trkpt lat="42.2829782" lon="13.2433025"><ele>1187.0</ele><time>2026-05-02T16:30:38.861Z</time></trkpt><trkpt lat="42.2830032" lon="13.2431744"><ele>1187.0</ele><time>2026-05-02T16:30:39.86Z</time></trkpt><trkpt lat="42.283009" lon="13.2430461"><ele>1187.0</ele><time>2026-05-02T16:30:40.86Z</time></trkpt><trkpt lat="42.2829927" lon="13.2429031"><ele>1187.0</ele><time>2026-05-02T16:30:41.86Z</time></trkpt><trkpt lat="42.2829535" lon="13.2427568"><ele>1187.0</ele><time>2026-05-02T16:30:42.861Z</time></trkpt><trkpt lat="42.2829095" lon="13.2426077"><ele>1186.0</ele><time>2026-05-02T16:30:43.861Z</time></trkpt><trkpt lat="42.2828668" lon="13.2424619"><ele>1185.0</ele><time>2026-05-02T16:30:44.86Z</time></trkpt><trkpt lat="42.2828351" lon="13.2423226"><ele>1184.0</ele><time>2026-05-02T16:30:45.86Z</time></trkpt><trkpt lat="42.2828118" lon="13.2421886"><ele>1183.0</ele><time>2026-05-02T16:30:46.86Z</time></trkpt><trkpt lat="42.2828001" lon="13.2420827"><ele>1182.0</ele><time>2026-05-02T16:30:47.86Z</time></trkpt><trkpt lat="42.2828152" lon="13.2419337"><ele>1182.5</ele><time>2026-05-02T16:30:49.861Z</time></trkpt><trkpt lat="42.2828743" lon="13.2418367"><ele>1183.0</ele><time>2026-05-02T16:30:51.861Z</time></trkpt><trkpt lat="42.2829816" lon="13.2417959"><ele>1183.5</ele><time>2026-05-02T16:30:53.861Z</time></trkpt><trkpt lat="42.2830479" lon="13.2418014"><ele>1184.0</ele><time>2026-05-02T16:30:54.86Z</time></trkpt><trkpt lat="42.2831273" lon="13.2418161"><ele>1184.5</ele><time>2026-05-02T16:30:55.86Z</time></trkpt><trkpt lat="42.283215" lon="13.2418305"><ele>1185.0</ele><time>2026-05-02T16:30:56.861Z</time></trkpt><trkpt lat="42.2833116" lon="13.2418529"><ele>1185.0</ele><time>2026-05-02T16:30:57.861Z</time></trkpt><trkpt lat="42.2834152" lon="13.2418797"><ele>1185.0</ele><time>2026-05-02T16:30:58.861Z</time></trkpt><trkpt lat="42.2835247" lon="13.2418981"><ele>1185.0</ele><time>2026-05-02T16:30:59.86Z</time></trkpt><trkpt lat="42.2836328" lon="13.2418977"><ele>1185.0</ele><time>2026-05-02T16:31:00.86Z</time></trkpt><trkpt lat="42.2837341" lon="13.241884"><ele>1185.0</ele><time>2026-05-02T16:31:01.86Z</time></trkpt><trkpt lat="42.2838366" lon="13.2418451"><ele>1185.8</ele><time>2026-05-02T16:31:02.861Z</time></trkpt><trkpt lat="42.2839313" lon="13.2417829"><ele>1186.6</ele><time>2026-05-02T16:31:03.86Z</time></trkpt><trkpt lat="42.2840211" lon="13.2416992"><ele>1187.4</ele><time>2026-05-02T16:31:04.861Z</time></trkpt><trkpt lat="42.2841094" lon="13.2416144"><ele>1188.2</ele><time>2026-05-02T16:31:05.861Z</time></trkpt><trkpt lat="42.2842023" lon="13.2415277"><ele>1189.0</ele><time>2026-05-02T16:31:06.861Z</time></trkpt><trkpt lat="42.2843013" lon="13.2414499"><ele>1192.25</ele><time>2026-05-02T16:31:07.86Z</time></trkpt><trkpt lat="42.2844094" lon="13.2413753"><ele>1195.5</ele><time>2026-05-02T16:31:08.86Z</time></trkpt><trkpt lat="42.2845201" lon="13.2412934"><ele>1198.75</ele><time>2026-05-02T16:31:09.86Z</time></trkpt><trkpt lat="42.2846368" lon="13.2411995"><ele>1202.0</ele><time>2026-05-02T16:31:10.861Z</time></trkpt><trkpt lat="42.2847438" lon="13.2410807"><ele>1199.25</ele><time>2026-05-02T16:31:11.86Z</time></trkpt><trkpt lat="42.2848376" lon="13.2409436"><ele>1196.5</ele><time>2026-05-02T16:31:12.86Z</time></trkpt><trkpt lat="42.2849288" lon="13.2408096"><ele>1193.75</ele><time>2026-05-02T16:31:13.86Z</time></trkpt><trkpt lat="42.2850285" lon="13.2406856"><ele>1191.0</ele><time>2026-05-02T16:31:14.86Z</time></trkpt><trkpt lat="42.285135" lon="13.2405704"><ele>1195.25</ele><time>2026-05-02T16:31:15.86Z</time></trkpt><trkpt lat="42.2852457" lon="13.2404685"><ele>1199.5</ele><time>2026-05-02T16:31:16.86Z</time></trkpt><trkpt lat="42.2853624" lon="13.2403836"><ele>1203.75</ele><time>2026-05-02T16:31:17.86Z</time></trkpt><trkpt lat="42.2854895" lon="13.2403083"><ele>1208.0</ele><time>2026-05-02T16:31:18.861Z</time></trkpt><trkpt lat="42.2856212" lon="13.2402387"><ele>1208.0</ele><time>2026-05-02T16:31:19.861Z</time></trkpt><trkpt lat="42.2857493" lon="13.2401561"><ele>1208.0</ele><time>2026-05-02T16:31:20.86Z</time></trkpt><trkpt lat="42.2858718" lon="13.240065"><ele>1208.0</ele><time>2026-05-02T16:31:21.861Z</time></trkpt><trkpt lat="42.2859931" lon="13.2399768"><ele>1208.0</ele><time>2026-05-02T16:31:22.861Z</time></trkpt><trkpt lat="42.2861212" lon="13.2399004"><ele>1208.0</ele><time>2026-05-02T16:31:23.86Z</time></trkpt><trkpt lat="42.2862502" lon="13.2398369"><ele>1208.0</ele><time>2026-05-02T16:31:24.86Z</time></trkpt><trkpt lat="42.286383" lon="13.2397733"><ele>1208.0</ele><time>2026-05-02T16:31:25.861Z</time></trkpt><trkpt lat="42.2865164" lon="13.2397017"><ele>1208.0</ele><time>2026-05-02T16:31:26.861Z</time></trkpt><trkpt lat="42.2866432" lon="13.2396307"><ele>1213.25</ele><time>2026-05-02T16:31:27.861Z</time></trkpt><trkpt lat="42.2867632" lon="13.239591"><ele>1218.5</ele><time>2026-05-02T16:31:28.86Z</time></trkpt><trkpt lat="42.2868842" lon="13.2395917"><ele>1223.75</ele><time>2026-05-02T16:31:29.86Z</time></trkpt><trkpt lat="42.287009" lon="13.2396129"><ele>1229.0</ele><time>2026-05-02T16:31:30.861Z</time></trkpt><trkpt lat="42.2871326" lon="13.2396255"><ele>1229.0</ele><time>2026-05-02T16:31:31.861Z</time></trkpt><trkpt lat="42.2872489" lon="13.2396194"><ele>1229.0</ele><time>2026-05-02T16:31:32.861Z</time></trkpt><trkpt lat="42.2873577" lon="13.2396134"><ele>1229.0</ele><time>2026-05-02T16:31:33.861Z</time></trkpt><trkpt lat="42.2874709" lon="13.239629"><ele>1229.0</ele><time>2026-05-02T16:31:34.86Z</time></trkpt><trkpt lat="42.2875827" lon="13.2396879"><ele>1227.75</ele><time>2026-05-02T16:31:35.861Z</time></trkpt><trkpt lat="42.2876793" lon="13.2397778"><ele>1226.5</ele><time>2026-05-02T16:31:36.861Z</time></trkpt><trkpt lat="42.2877749" lon="13.239853"><ele>1225.25</ele><time>2026-05-02T16:31:37.861Z</time></trkpt><trkpt lat="42.2878812" lon="13.2398899"><ele>1224.0</ele><time>2026-05-02T16:31:38.86Z</time></trkpt><trkpt lat="42.2879948" lon="13.2398916"><ele>1225.5</ele><time>2026-05-02T16:31:39.861Z</time></trkpt><trkpt lat="42.2881103" lon="13.2398311"><ele>1227.0</ele><time>2026-05-02T16:31:40.861Z</time></trkpt><trkpt lat="42.2882264" lon="13.2397374"><ele>1228.5</ele><time>2026-05-02T16:31:41.861Z</time></trkpt><trkpt lat="42.288354" lon="13.2396479"><ele>1230.0</ele><time>2026-05-02T16:31:42.86Z</time></trkpt><trkpt lat="42.2884883" lon="13.2395659"><ele>1230.0</ele><time>2026-05-02T16:31:43.861Z</time></trkpt><trkpt lat="42.288623" lon="13.2395032"><ele>1230.0</ele><time>2026-05-02T16:31:44.86Z</time></trkpt><trkpt lat="42.2887624" lon="13.2394385"><ele>1230.0</ele><time>2026-05-02T16:31:45.86Z</time></trkpt><trkpt lat="42.2889005" lon="13.2393745"><ele>1230.0</ele><time>2026-05-02T16:31:46.861Z</time></trkpt><trkpt lat="42.2890371" lon="13.2393225"><ele>1229.5</ele><time>2026-05-02T16:31:47.86Z</time></trkpt><trkpt lat="42.2891707" lon="13.2392824"><ele>1229.0</ele><time>2026-05-02T16:31:48.86Z</time></trkpt><trkpt lat="42.2893079" lon="13.2392666"><ele>1228.5</ele><time>2026-05-02T16:31:49.861Z</time></trkpt><trkpt lat="42.2894481" lon="13.2392789"><ele>1228.0</ele><time>2026-05-02T16:31:50.861Z</time></trkpt><trkpt lat="42.2895878" lon="13.2392965"><ele>1228.0</ele><time>2026-05-02T16:31:51.86Z</time></trkpt><trkpt lat="42.2897202" lon="13.239288"><ele>1228.0</ele><time>2026-05-02T16:31:52.861Z</time></trkpt><trkpt lat="42.2898506" lon="13.2392366"><ele>1228.0</ele><time>2026-05-02T16:31:53.86Z</time></trkpt><trkpt lat="42.2899805" lon="13.2391822"><ele>1228.0</ele><time>2026-05-02T16:31:54.86Z</time></trkpt><trkpt lat="42.290116" lon="13.23915"><ele>1229.0</ele><time>2026-05-02T16:31:55.861Z</time></trkpt><trkpt lat="42.2902524" lon="13.2391574"><ele>1230.0</ele><time>2026-05-02T16:31:56.86Z</time></trkpt><trkpt lat="42.290391" lon="13.2391931"><ele>1231.0</ele><time>2026-05-02T16:31:57.861Z</time></trkpt><trkpt lat="42.2905186" lon="13.2392401"><ele>1232.0</ele><time>2026-05-02T16:31:58.86Z</time></trkpt><trkpt lat="42.2906545" lon="13.2392607"><ele>1232.25</ele><time>2026-05-02T16:31:59.861Z</time></trkpt><trkpt lat="42.2907962" lon="13.23923"><ele>1232.5</ele><time>2026-05-02T16:32:00.861Z</time></trkpt><trkpt lat="42.2909272" lon="13.239155"><ele>1232.75</ele><time>2026-05-02T16:32:01.861Z</time></trkpt><trkpt lat="42.2910665" lon="13.2390655"><ele>1233.0</ele><time>2026-05-02T16:32:02.86Z</time></trkpt><trkpt lat="42.2912172" lon="13.2389936"><ele>1243.3333333333333</ele><time>2026-05-02T16:32:03.861Z</time></trkpt><trkpt lat="42.2913749" lon="13.2389378"><ele>1253.6666666666665</ele><time>2026-05-02T16:32:04.861Z</time></trkpt><trkpt lat="42.2915366" lon="13.238898"><ele>1264.0</ele><time>2026-05-02T16:32:05.86Z</time></trkpt><trkpt lat="42.2916986" lon="13.2388692"><ele>1264.0</ele><time>2026-05-02T16:32:06.86Z</time></trkpt><trkpt lat="42.2918544" lon="13.2388196"><ele>1264.0</ele><time>2026-05-02T16:32:07.861Z</time></trkpt><trkpt lat="42.2920111" lon="13.2387583"><ele>1264.0</ele><time>2026-05-02T16:32:08.861Z</time></trkpt><trkpt lat="42.292172" lon="13.2386957"><ele>1262.3333333333333</ele><time>2026-05-02T16:32:09.86Z</time></trkpt><trkpt lat="42.2923353" lon="13.2386563"><ele>1260.6666666666667</ele><time>2026-05-02T16:32:10.86Z</time></trkpt><trkpt lat="42.2924978" lon="13.2386349"><ele>1259.0</ele><time>2026-05-02T16:32:11.86Z</time></trkpt><trkpt lat="42.2926593" lon="13.2386267"><ele>1259.0</ele><time>2026-05-02T16:32:12.86Z</time></trkpt><trkpt lat="42.2928131" lon="13.2386045"><ele>1259.0</ele><time>2026-05-02T16:32:13.86Z</time></trkpt><trkpt lat="42.2929635" lon="13.2385383"><ele>1259.0</ele><time>2026-05-02T16:32:14.86Z</time></trkpt><trkpt lat="42.2931119" lon="13.2384304"><ele>1255.3333333333335</ele><time>2026-05-02T16:32:15.86Z</time></trkpt><trkpt lat="42.2932665" lon="13.2383148"><ele>1251.6666666666667</ele><time>2026-05-02T16:32:16.861Z</time></trkpt><trkpt lat="42.2934259" lon="13.2382034"><ele>1248.0</ele><time>2026-05-02T16:32:17.86Z</time></trkpt><trkpt lat="42.2935892" lon="13.238111"><ele>1254.6666666666667</ele><time>2026-05-02T16:32:18.861Z</time></trkpt><trkpt lat="42.2937545" lon="13.2380152"><ele>1261.3333333333335</ele><time>2026-05-02T16:32:19.861Z</time></trkpt><trkpt lat="42.2939215" lon="13.2379217"><ele>1268.0</ele><time>2026-05-02T16:32:20.86Z</time></trkpt><trkpt lat="42.2940857" lon="13.2378269"><ele>1268.0</ele><time>2026-05-02T16:32:21.861Z</time></trkpt><trkpt lat="42.294246" lon="13.2377335"><ele>1268.0</ele><time>2026-05-02T16:32:22.86Z</time></trkpt><trkpt lat="42.2944067" lon="13.2376363"><ele>1268.0</ele><time>2026-05-02T16:32:23.861Z</time></trkpt><trkpt lat="42.2945555" lon="13.2375375"><ele>1268.0</ele><time>2026-05-02T16:32:24.861Z</time></trkpt><trkpt lat="42.2947046" lon="13.2374676"><ele>1268.0</ele><time>2026-05-02T16:32:25.861Z</time></trkpt><trkpt lat="42.2948587" lon="13.2374081"><ele>1268.0</ele><time>2026-05-02T16:32:26.861Z</time></trkpt><trkpt lat="42.2950232" lon="13.2373656"><ele>1265.0</ele><time>2026-05-02T16:32:27.861Z</time></trkpt><trkpt lat="42.295199" lon="13.237327"><ele>1262.0</ele><time>2026-05-02T16:32:28.86Z</time></trkpt><trkpt lat="42.2953774" lon="13.2372839"><ele>1259.0</ele><time>2026-05-02T16:32:29.86Z</time></trkpt><trkpt lat="42.2955513" lon="13.2372326"><ele>1271.0</ele><time>2026-05-02T16:32:30.86Z</time></trkpt><trkpt lat="42.2957263" lon="13.2371986"><ele>1283.0</ele><time>2026-05-02T16:32:31.86Z</time></trkpt><trkpt lat="42.295899" lon="13.2371676"><ele>1295.0</ele><time>2026-05-02T16:32:32.86Z</time></trkpt><trkpt lat="42.2960722" lon="13.237129"><ele>1295.0</ele><time>2026-05-02T16:32:33.86Z</time></trkpt><trkpt lat="42.2962483" lon="13.2371045"><ele>1295.0</ele><time>2026-05-02T16:32:34.86Z</time></trkpt><trkpt lat="42.2964261" lon="13.2370881"><ele>1295.0</ele><time>2026-05-02T16:32:35.86Z</time></trkpt><trkpt lat="42.2965983" lon="13.2370718"><ele>1292.3333333333335</ele><time>2026-05-02T16:32:36.86Z</time></trkpt><trkpt lat="42.2967763" lon="13.2370687"><ele>1289.6666666666667</ele><time>2026-05-02T16:32:37.86Z</time></trkpt><trkpt lat="42.2969447" lon="13.2370844"><ele>1287.0</ele><time>2026-05-02T16:32:38.86Z</time></trkpt><trkpt lat="42.2971064" lon="13.2371154"><ele>1289.3333333333333</ele><time>2026-05-02T16:32:39.86Z</time></trkpt><trkpt lat="42.2972702" lon="13.2371621"><ele>1291.6666666666665</ele><time>2026-05-02T16:32:40.86Z</time></trkpt><trkpt lat="42.2974335" lon="13.2372108"><ele>1294.0</ele><time>2026-05-02T16:32:41.86Z</time></trkpt><trkpt lat="42.2976084" lon="13.2372429"><ele>1294.0</ele><time>2026-05-02T16:32:42.86Z</time></trkpt><trkpt lat="42.2977695" lon="13.2372937"><ele>1294.0</ele><time>2026-05-02T16:32:43.86Z</time></trkpt><trkpt lat="42.2979299" lon="13.237353"><ele>1294.0</ele><time>2026-05-02T16:32:44.86Z</time></trkpt><trkpt lat="42.29808" lon="13.237431"><ele>1288.3333333333333</ele><time>2026-05-02T16:32:45.861Z</time></trkpt><trkpt lat="42.2982202" lon="13.2375292"><ele>1282.6666666666667</ele><time>2026-05-02T16:32:46.86Z</time></trkpt><trkpt lat="42.2983456" lon="13.2376423"><ele>1277.0</ele><time>2026-05-02T16:32:47.86Z</time></trkpt><trkpt lat="42.2984624" lon="13.2377618"><ele>1277.0</ele><time>2026-05-02T16:32:48.86Z</time></trkpt><trkpt lat="42.2985784" lon="13.2378715"><ele>1277.0</ele><time>2026-05-02T16:32:49.861Z</time></trkpt><trkpt lat="42.2987023" lon="13.2379496"><ele>1277.0</ele><time>2026-05-02T16:32:50.86Z</time></trkpt><trkpt lat="42.2988328" lon="13.2379786"><ele>1277.0</ele><time>2026-05-02T16:32:51.86Z</time></trkpt><trkpt lat="42.2989686" lon="13.2379558"><ele>1278.0</ele><time>2026-05-02T16:32:52.861Z</time></trkpt><trkpt lat="42.29911" lon="13.2378924"><ele>1279.0</ele><time>2026-05-02T16:32:53.86Z</time></trkpt><trkpt lat="42.2992578" lon="13.2378254"><ele>1280.0</ele><time>2026-05-02T16:32:54.86Z</time></trkpt><trkpt lat="42.2994049" lon="13.2377882"><ele>1280.0</ele><time>2026-05-02T16:32:55.861Z</time></trkpt><trkpt lat="42.2995546" lon="13.2377834"><ele>1280.0</ele><time>2026-05-02T16:32:56.861Z</time></trkpt><trkpt lat="42.2997043" lon="13.2378147"><ele>1280.0</ele><time>2026-05-02T16:32:57.861Z</time></trkpt><trkpt lat="42.2998501" lon="13.2378784"><ele>1278.6666666666667</ele><time>2026-05-02T16:32:58.861Z</time></trkpt><trkpt lat="42.2999996" lon="13.2379411"><ele>1277.3333333333333</ele><time>2026-05-02T16:32:59.861Z</time></trkpt><trkpt lat="42.3001591" lon="13.2379659"><ele>1276.0</ele><time>2026-05-02T16:33:00.861Z</time></trkpt><trkpt lat="42.3003206" lon="13.2379513"><ele>1276.0</ele><time>2026-05-02T16:33:01.86Z</time></trkpt><trkpt lat="42.300476" lon="13.2378929"><ele>1276.0</ele><time>2026-05-02T16:33:02.86Z</time></trkpt><trkpt lat="42.3006235" lon="13.2378058"><ele>1276.0</ele><time>2026-05-02T16:33:03.861Z</time></trkpt><trkpt lat="42.3007766" lon="13.2377314"><ele>1276.3333333333333</ele><time>2026-05-02T16:33:04.861Z</time></trkpt><trkpt lat="42.3009357" lon="13.2376869"><ele>1276.6666666666667</ele><time>2026-05-02T16:33:05.861Z</time></trkpt><trkpt lat="42.3011026" lon="13.2376763"><ele>1277.0</ele><time>2026-05-02T16:33:06.861Z</time></trkpt><trkpt lat="42.3012704" lon="13.2376946"><ele>1275.3333333333335</ele><time>2026-05-02T16:33:07.86Z</time></trkpt><trkpt lat="42.3014427" lon="13.2377233"><ele>1273.6666666666667</ele><time>2026-05-02T16:33:08.861Z</time></trkpt><trkpt lat="42.3016148" lon="13.2377417"><ele>1272.0</ele><time>2026-05-02T16:33:09.861Z</time></trkpt><trkpt lat="42.3017817" lon="13.2377502"><ele>1272.0</ele><time>2026-05-02T16:33:10.86Z</time></trkpt><trkpt lat="42.3019469" lon="13.2377406"><ele>1272.0</ele><time>2026-05-02T16:33:11.86Z</time></trkpt><trkpt lat="42.3021039" lon="13.237718"><ele>1272.0</ele><time>2026-05-02T16:33:12.86Z</time></trkpt><trkpt lat="42.3022559" lon="13.2376796"><ele>1272.3333333333333</ele><time>2026-05-02T16:33:13.86Z</time></trkpt><trkpt lat="42.3024097" lon="13.2376552"><ele>1272.6666666666665</ele><time>2026-05-02T16:33:14.86Z</time></trkpt><trkpt lat="42.3025647" lon="13.237665"><ele>1273.0</ele><time>2026-05-02T16:33:15.861Z</time></trkpt><trkpt lat="42.3027247" lon="13.2377007"><ele>1273.0</ele><time>2026-05-02T16:33:16.86Z</time></trkpt><trkpt lat="42.3028795" lon="13.2377645"><ele>1273.0</ele><time>2026-05-02T16:33:17.861Z</time></trkpt><trkpt lat="42.3030326" lon="13.2378384"><ele>1273.0</ele><time>2026-05-02T16:33:18.86Z</time></trkpt><trkpt lat="42.3031812" lon="13.2379067"><ele>1273.25</ele><time>2026-05-02T16:33:19.86Z</time></trkpt><trkpt lat="42.3033256" lon="13.2379651"><ele>1273.5</ele><time>2026-05-02T16:33:20.86Z</time></trkpt><trkpt lat="42.3034582" lon="13.2380387"><ele>1273.75</ele><time>2026-05-02T16:33:21.861Z</time></trkpt><trkpt lat="42.303573" lon="13.2381438"><ele>1274.0</ele><time>2026-05-02T16:33:22.86Z</time></trkpt><trkpt lat="42.3036658" lon="13.2382795"><ele>1274.75</ele><time>2026-05-02T16:33:23.86Z</time></trkpt><trkpt lat="42.3037378" lon="13.2384301"><ele>1275.5</ele><time>2026-05-02T16:33:24.861Z</time></trkpt><trkpt lat="42.3038165" lon="13.2385713"><ele>1276.25</ele><time>2026-05-02T16:33:25.86Z</time></trkpt><trkpt lat="42.3039298" lon="13.2386787"><ele>1277.0</ele><time>2026-05-02T16:33:26.861Z</time></trkpt><trkpt lat="42.3040678" lon="13.238752"><ele>1277.0</ele><time>2026-05-02T16:33:27.861Z</time></trkpt><trkpt lat="42.3042187" lon="13.2388027"><ele>1277.0</ele><time>2026-05-02T16:33:28.86Z</time></trkpt><trkpt lat="42.3043771" lon="13.2388382"><ele>1277.0</ele><time>2026-05-02T16:33:29.86Z</time></trkpt><trkpt lat="42.3045268" lon="13.2388708"><ele>1277.0</ele><time>2026-05-02T16:33:30.861Z</time></trkpt><trkpt lat="42.3046475" lon="13.2389015"><ele>1277.0</ele><time>2026-05-02T16:33:31.86Z</time></trkpt><trkpt lat="42.3047375" lon="13.2389309"><ele>1277.0</ele><time>2026-05-02T16:33:32.86Z</time></trkpt><trkpt lat="42.304805" lon="13.2389574"><ele>1277.0</ele><time>2026-05-02T16:33:33.86Z</time></trkpt><trkpt lat="42.3048826" lon="13.2389957"><ele>1277.0</ele><time>2026-05-02T16:33:35.861Z</time></trkpt><trkpt lat="42.3048415" lon="13.2389257"><ele>1277.0</ele><time>2026-05-02T16:33:40.861Z</time></trkpt><trkpt lat="42.3047208" lon="13.2389011"><ele>1277.0</ele><time>2026-05-02T16:33:42.861Z</time></trkpt><trkpt lat="42.3046443" lon="13.2388791"><ele>1277.0</ele><time>2026-05-02T16:33:43.86Z</time></trkpt><trkpt lat="42.3045585" lon="13.2388541"><ele>1277.0</ele><time>2026-05-02T16:33:44.861Z</time></trkpt><trkpt lat="42.3044573" lon="13.2388293"><ele>1277.0</ele><time>2026-05-02T16:33:45.861Z</time></trkpt><trkpt lat="42.3043471" lon="13.2388074"><ele>1277.0</ele><time>2026-05-02T16:33:46.861Z</time></trkpt><trkpt lat="42.3042325" lon="13.2387773"><ele>1277.0</ele><time>2026-05-02T16:33:47.86Z</time></trkpt><trkpt lat="42.3041063" lon="13.2387391"><ele>1277.0</ele><time>2026-05-02T16:33:48.86Z</time></trkpt><trkpt lat="42.3039838" lon="13.2386812"><ele>1277.0</ele><time>2026-05-02T16:33:49.86Z</time></trkpt><trkpt lat="42.3038634" lon="13.2385955"><ele>1277.0</ele><time>2026-05-02T16:33:50.86Z</time></trkpt><trkpt lat="42.3037537" lon="13.2384669"><ele>1276.0</ele><time>2026-05-02T16:33:51.86Z</time></trkpt><trkpt lat="42.3036617" lon="13.2383111"><ele>1275.0</ele><time>2026-05-02T16:33:52.86Z</time></trkpt><trkpt lat="42.3035667" lon="13.2381467"><ele>1274.0</ele><time>2026-05-02T16:33:53.86Z</time></trkpt><trkpt lat="42.3034483" lon="13.2380267"><ele>1274.0</ele><time>2026-05-02T16:33:54.86Z</time></trkpt><trkpt lat="42.3033133" lon="13.2379433"><ele>1274.0</ele><time>2026-05-02T16:33:55.861Z</time></trkpt><trkpt lat="42.3031667" lon="13.23788"><ele>1274.0</ele><time>2026-05-02T16:33:56.861Z</time></trkpt><trkpt lat="42.3030133" lon="13.2378117"><ele>1273.75</ele><time>2026-05-02T16:33:57.861Z</time></trkpt><trkpt lat="42.3028667" lon="13.23775"><ele>1273.5</ele><time>2026-05-02T16:33:58.861Z</time></trkpt><trkpt lat="42.3027367" lon="13.2376983"><ele>1273.25</ele><time>2026-05-02T16:33:59.86Z</time></trkpt><trkpt lat="42.30262" lon="13.237655"><ele>1273.0</ele><time>2026-05-02T16:34:00.861Z</time></trkpt><trkpt lat="42.3025133" lon="13.2376283"><ele>1273.0</ele><time>2026-05-02T16:34:01.86Z</time></trkpt><trkpt lat="42.30242" lon="13.2376233"><ele>1273.0</ele><time>2026-05-02T16:34:02.861Z</time></trkpt><trkpt lat="42.302335" lon="13.2376417"><ele>1273.0</ele><time>2026-05-02T16:34:03.861Z</time></trkpt><trkpt lat="42.3022667" lon="13.2376583"><ele>1273.0</ele><time>2026-05-02T16:34:04.86Z</time></trkpt><trkpt lat="42.3022017" lon="13.237715"><ele>1273.0</ele><time>2026-05-02T16:34:06.86Z</time></trkpt><trkpt lat="42.3022717" lon="13.237825"><ele>1273.0</ele><time>2026-05-02T16:34:09.86Z</time></trkpt><trkpt lat="42.30234" lon="13.2378833"><ele>1273.0</ele><time>2026-05-02T16:34:10.86Z</time></trkpt><trkpt lat="42.3024067" lon="13.2379517"><ele>1273.0</ele><time>2026-05-02T16:34:11.86Z</time></trkpt><trkpt lat="42.30246" lon="13.2380133"><ele>1273.0</ele><time>2026-05-02T16:34:12.861Z</time></trkpt><trkpt lat="42.3025" lon="13.2380917"><ele>1273.0</ele><time>2026-05-02T16:34:13.861Z</time></trkpt><trkpt lat="42.302525" lon="13.23818"><ele>1273.0</ele><time>2026-05-02T16:34:14.86Z</time></trkpt><trkpt lat="42.30255" lon="13.2382833"><ele>1273.0</ele><time>2026-05-02T16:34:15.861Z</time></trkpt><trkpt lat="42.302585" lon="13.23838"><ele>1272.0</ele><time>2026-05-02T16:34:16.86Z</time></trkpt><trkpt lat="42.3026367" lon="13.23846"><ele>1271.0</ele><time>2026-05-02T16:34:17.861Z</time></trkpt><trkpt lat="42.3027017" lon="13.2385283"><ele>1270.0</ele><time>2026-05-02T16:34:18.86Z</time></trkpt><trkpt lat="42.3027817" lon="13.2385867"><ele>1269.0</ele><time>2026-05-02T16:34:19.86Z</time></trkpt><trkpt lat="42.3028617" lon="13.2386417"><ele>1268.0</ele><time>2026-05-02T16:34:20.861Z</time></trkpt><trkpt lat="42.3029483" lon="13.2386967"><ele>1267.0</ele><time>2026-05-02T16:34:21.86Z</time></trkpt><trkpt lat="42.303035" lon="13.23875"><ele>1267.1666666666665</ele><time>2026-05-02T16:34:22.86Z</time></trkpt><trkpt lat="42.303115" lon="13.2387967"><ele>1267.3333333333333</ele><time>2026-05-02T16:34:23.86Z</time></trkpt><trkpt lat="42.303185" lon="13.2388467"><ele>1267.5</ele><time>2026-05-02T16:34:24.86Z</time></trkpt><trkpt lat="42.3032583" lon="13.2389183"><ele>1267.6666666666667</ele><time>2026-05-02T16:34:25.861Z</time></trkpt><trkpt lat="42.30333" lon="13.238995"><ele>1267.8333333333335</ele><time>2026-05-02T16:34:26.861Z</time></trkpt><trkpt lat="42.3034081" lon="13.2390771"><ele>1268.0</ele><time>2026-05-02T16:34:27.861Z</time></trkpt><trkpt lat="42.3034874" lon="13.2391645"><ele>1269.8</ele><time>2026-05-02T16:34:28.86Z</time></trkpt><trkpt lat="42.3035676" lon="13.2392483"><ele>1271.6</ele><time>2026-05-02T16:34:29.86Z</time></trkpt><trkpt lat="42.3036491" lon="13.2393259"><ele>1273.4</ele><time>2026-05-02T16:34:30.86Z</time></trkpt><trkpt lat="42.3037339" lon="13.2394066"><ele>1275.2</ele><time>2026-05-02T16:34:31.86Z</time></trkpt><trkpt lat="42.3038063" lon="13.2394754"><ele>1277.0</ele><time>2026-05-02T16:34:32.861Z</time></trkpt><trkpt lat="42.3038612" lon="13.2395452"><ele>1277.0</ele><time>2026-05-02T16:34:33.86Z</time></trkpt><trkpt lat="42.3039058" lon="13.2396234"><ele>1277.0</ele><time>2026-05-02T16:34:34.86Z</time></trkpt><trkpt lat="42.3039384" lon="13.2397235"><ele>1277.0</ele><time>2026-05-02T16:34:35.861Z</time></trkpt><trkpt lat="42.3039589" lon="13.2398466"><ele>1277.0</ele><time>2026-05-02T16:34:36.861Z</time></trkpt><trkpt lat="42.303972" lon="13.2399953"><ele>1277.0</ele><time>2026-05-02T16:34:37.86Z</time></trkpt><trkpt lat="42.3039874" lon="13.2401422"><ele>1277.2</ele><time>2026-05-02T16:34:38.86Z</time></trkpt><trkpt lat="42.304005" lon="13.2402917"><ele>1277.4</ele><time>2026-05-02T16:34:39.86Z</time></trkpt><trkpt lat="42.3040344" lon="13.2404322"><ele>1277.6</ele><time>2026-05-02T16:34:40.861Z</time></trkpt><trkpt lat="42.3040643" lon="13.2405696"><ele>1277.8</ele><time>2026-05-02T16:34:41.861Z</time></trkpt><trkpt lat="42.3040915" lon="13.2407116"><ele>1278.0</ele><time>2026-05-02T16:34:42.861Z</time></trkpt><trkpt lat="42.3041128" lon="13.2408528"><ele>1278.0</ele><time>2026-05-02T16:34:43.86Z</time></trkpt><trkpt lat="42.3041223" lon="13.2409871"><ele>1278.0</ele><time>2026-05-02T16:34:44.86Z</time></trkpt><trkpt lat="42.3041234" lon="13.2411181"><ele>1278.0</ele><time>2026-05-02T16:34:45.86Z</time></trkpt><trkpt lat="42.3041137" lon="13.2412401"><ele>1278.0</ele><time>2026-05-02T16:34:46.86Z</time></trkpt><trkpt lat="42.3040909" lon="13.2413507"><ele>1278.0</ele><time>2026-05-02T16:34:47.86Z</time></trkpt><trkpt lat="42.3040559" lon="13.2414582"><ele>1278.4</ele><time>2026-05-02T16:34:48.86Z</time></trkpt><trkpt lat="42.3040168" lon="13.2415666"><ele>1278.8</ele><time>2026-05-02T16:34:49.861Z</time></trkpt><trkpt lat="42.3039882" lon="13.241674"><ele>1279.2</ele><time>2026-05-02T16:34:50.86Z</time></trkpt><trkpt lat="42.3039523" lon="13.241788"><ele>1279.6</ele><time>2026-05-02T16:34:51.861Z</time></trkpt><trkpt lat="42.3039119" lon="13.2419022"><ele>1280.0</ele><time>2026-05-02T16:34:52.86Z</time></trkpt><trkpt lat="42.3038631" lon="13.2420147"><ele>1283.6</ele><time>2026-05-02T16:34:53.861Z</time></trkpt><trkpt lat="42.3038095" lon="13.2421302"><ele>1287.2</ele><time>2026-05-02T16:34:54.861Z</time></trkpt><trkpt lat="42.3037544" lon="13.2422576"><ele>1290.8000000000002</ele><time>2026-05-02T16:34:55.861Z</time></trkpt><trkpt lat="42.3037025" lon="13.2423983"><ele>1294.4</ele><time>2026-05-02T16:34:56.86Z</time></trkpt><trkpt lat="42.3036607" lon="13.2425475"><ele>1298.0</ele><time>2026-05-02T16:34:57.86Z</time></trkpt><trkpt lat="42.3036312" lon="13.2426968"><ele>1298.0</ele><time>2026-05-02T16:34:58.861Z</time></trkpt><trkpt lat="42.3036043" lon="13.2428511"><ele>1298.0</ele><time>2026-05-02T16:34:59.861Z</time></trkpt><trkpt lat="42.3035907" lon="13.2430019"><ele>1298.0</ele><time>2026-05-02T16:35:00.86Z</time></trkpt><trkpt lat="42.3035853" lon="13.2431505"><ele>1298.0</ele><time>2026-05-02T16:35:01.86Z</time></trkpt><trkpt lat="42.3035828" lon="13.2433023"><ele>1298.0</ele><time>2026-05-02T16:35:02.861Z</time></trkpt><trkpt lat="42.303573" lon="13.2434415"><ele>1298.0</ele><time>2026-05-02T16:35:03.86Z</time></trkpt><trkpt lat="42.3035752" lon="13.2435634"><ele>1298.0</ele><time>2026-05-02T16:35:04.86Z</time></trkpt><trkpt lat="42.3035849" lon="13.2436797"><ele>1298.0</ele><time>2026-05-02T16:35:05.861Z</time></trkpt><trkpt lat="42.3036003" lon="13.2437885"><ele>1298.0</ele><time>2026-05-02T16:35:06.86Z</time></trkpt><trkpt lat="42.3036194" lon="13.2439023"><ele>1298.0</ele><time>2026-05-02T16:35:07.861Z</time></trkpt><trkpt lat="42.303634" lon="13.2440184"><ele>1299.0</ele><time>2026-05-02T16:35:08.861Z</time></trkpt><trkpt lat="42.3036386" lon="13.2441322"><ele>1300.0</ele><time>2026-05-02T16:35:09.86Z</time></trkpt><trkpt lat="42.3036243" lon="13.2442483"><ele>1301.0</ele><time>2026-05-02T16:35:10.86Z</time></trkpt><trkpt lat="42.3035872" lon="13.2443561"><ele>1302.0</ele><time>2026-05-02T16:35:11.86Z</time></trkpt><trkpt lat="42.303547" lon="13.2444606"><ele>1303.0</ele><time>2026-05-02T16:35:12.86Z</time></trkpt><trkpt lat="42.3035091" lon="13.2445712"><ele>1304.0</ele><time>2026-05-02T16:35:13.86Z</time></trkpt><trkpt lat="42.303473" lon="13.2446911"><ele>1305.0</ele><time>2026-05-02T16:35:14.861Z</time></trkpt><trkpt lat="42.3034293" lon="13.2448132"><ele>1306.0</ele><time>2026-05-02T16:35:15.86Z</time></trkpt><trkpt lat="42.3033769" lon="13.2449287"><ele>1307.0</ele><time>2026-05-02T16:35:16.86Z</time></trkpt><trkpt lat="42.3033205" lon="13.2450349"><ele>1308.0</ele><time>2026-05-02T16:35:17.861Z</time></trkpt><trkpt lat="42.3032695" lon="13.2451378"><ele>1309.0</ele><time>2026-05-02T16:35:18.86Z</time></trkpt><trkpt lat="42.3032237" lon="13.2452369"><ele>1309.0</ele><time>2026-05-02T16:35:19.861Z</time></trkpt><trkpt lat="42.3031939" lon="13.2453378"><ele>1309.0</ele><time>2026-05-02T16:35:20.861Z</time></trkpt><trkpt lat="42.3031773" lon="13.2454285"><ele>1309.0</ele><time>2026-05-02T16:35:21.861Z</time></trkpt><trkpt lat="42.3031688" lon="13.2455247"><ele>1309.0</ele><time>2026-05-02T16:35:22.86Z</time></trkpt><trkpt lat="42.3031642" lon="13.2456254"><ele>1309.0</ele><time>2026-05-02T16:35:23.86Z</time></trkpt><trkpt lat="42.3031463" lon="13.2457227"><ele>1309.0</ele><time>2026-05-02T16:35:24.861Z</time></trkpt><trkpt lat="42.3031108" lon="13.2458238"><ele>1310.1666666666665</ele><time>2026-05-02T16:35:25.86Z</time></trkpt><trkpt lat="42.3030618" lon="13.2459108"><ele>1311.3333333333333</ele><time>2026-05-02T16:35:26.86Z</time></trkpt><trkpt lat="42.3030172" lon="13.2459979"><ele>1312.5</ele><time>2026-05-02T16:35:27.86Z</time></trkpt><trkpt lat="42.302991" lon="13.2460887"><ele>1313.6666666666667</ele><time>2026-05-02T16:35:28.86Z</time></trkpt><trkpt lat="42.3029748" lon="13.2461763"><ele>1314.8333333333335</ele><time>2026-05-02T16:35:29.86Z</time></trkpt><trkpt lat="42.3029151" lon="13.2463242"><ele>1316.0</ele><time>2026-05-02T16:35:31.86Z</time></trkpt><trkpt lat="42.3028642" lon="13.2464038"><ele>1317.5</ele><time>2026-05-02T16:35:32.861Z</time></trkpt><trkpt lat="42.3028117" lon="13.24649"><ele>1319.0</ele><time>2026-05-02T16:35:33.861Z</time></trkpt><trkpt lat="42.3027673" lon="13.246586"><ele>1320.5</ele><time>2026-05-02T16:35:34.86Z</time></trkpt><trkpt lat="42.302735" lon="13.2466875"><ele>1322.0</ele><time>2026-05-02T16:35:35.861Z</time></trkpt><trkpt lat="42.3027028" lon="13.2467941"><ele>1323.5</ele><time>2026-05-02T16:35:36.861Z</time></trkpt><trkpt lat="42.3026634" lon="13.246898"><ele>1325.0</ele><time>2026-05-02T16:35:37.861Z</time></trkpt><trkpt lat="42.3026156" lon="13.2469961"><ele>1325.0</ele><time>2026-05-02T16:35:38.86Z</time></trkpt><trkpt lat="42.3025588" lon="13.2470878"><ele>1325.0</ele><time>2026-05-02T16:35:39.86Z</time></trkpt><trkpt lat="42.3025029" lon="13.2471776"><ele>1325.0</ele><time>2026-05-02T16:35:40.861Z</time></trkpt><trkpt lat="42.3024571" lon="13.2472648"><ele>1325.0</ele><time>2026-05-02T16:35:41.86Z</time></trkpt><trkpt lat="42.3024116" lon="13.247351"><ele>1325.0</ele><time>2026-05-02T16:35:42.86Z</time></trkpt><trkpt lat="42.3023695" lon="13.2474288"><ele>1325.0</ele><time>2026-05-02T16:35:43.86Z</time></trkpt><trkpt lat="42.3023221" lon="13.2475092"><ele>1327.6666666666667</ele><time>2026-05-02T16:35:44.86Z</time></trkpt><trkpt lat="42.3022711" lon="13.2475904"><ele>1330.3333333333335</ele><time>2026-05-02T16:35:45.86Z</time></trkpt><trkpt lat="42.3022134" lon="13.2476696"><ele>1333.0</ele><time>2026-05-02T16:35:46.861Z</time></trkpt><trkpt lat="42.3021493" lon="13.2477515"><ele>1335.6666666666667</ele><time>2026-05-02T16:35:47.862Z</time></trkpt><trkpt lat="42.3020887" lon="13.2478413"><ele>1338.3333333333333</ele><time>2026-05-02T16:35:48.861Z</time></trkpt><trkpt lat="42.3020376" lon="13.2479325"><ele>1341.0</ele><time>2026-05-02T16:35:49.861Z</time></trkpt><trkpt lat="42.3019907" lon="13.2480191"><ele>1342.0</ele><time>2026-05-02T16:35:50.861Z</time></trkpt><trkpt lat="42.301943" lon="13.2481028"><ele>1343.0</ele><time>2026-05-02T16:35:51.861Z</time></trkpt><trkpt lat="42.3018882" lon="13.2481831"><ele>1344.0</ele><time>2026-05-02T16:35:52.862Z</time></trkpt><trkpt lat="42.3018374" lon="13.248252"><ele>1345.0</ele><time>2026-05-02T16:35:53.861Z</time></trkpt><trkpt lat="42.3017863" lon="13.2483237"><ele>1346.0</ele><time>2026-05-02T16:35:54.861Z</time></trkpt><trkpt lat="42.3017379" lon="13.248394"><ele>1347.0</ele><time>2026-05-02T16:35:55.861Z</time></trkpt><trkpt lat="42.3016761" lon="13.2484962"><ele>1347.5714285714284</ele><time>2026-05-02T16:35:57.862Z</time></trkpt><trkpt lat="42.3016131" lon="13.2485604"><ele>1348.142857142857</ele><time>2026-05-02T16:35:59.861Z</time></trkpt><trkpt lat="42.3015315" lon="13.2486106"><ele>1348.7142857142858</ele><time>2026-05-02T16:36:01.861Z</time></trkpt><trkpt lat="42.3015093" lon="13.248702"><ele>1349.2857142857142</ele><time>2026-05-02T16:36:03.862Z</time></trkpt><trkpt lat="42.3015571" lon="13.248764"><ele>1349.857142857143</ele><time>2026-05-02T16:36:06.862Z</time></trkpt><trkpt lat="42.30162" lon="13.2487583"><ele>1350.4285714285713</ele><time>2026-05-02T16:36:15.862Z</time></trkpt><trkpt lat="42.3016383" lon="13.24866"><ele>1351.0</ele><time>2026-05-02T16:36:18.861Z</time></trkpt><trkpt lat="42.3015517" lon="13.2486667"><ele>1351.0</ele><time>2026-05-02T16:36:22.862Z</time></trkpt><trkpt lat="42.3015317" lon="13.24877"><ele>1351.0</ele><time>2026-05-02T16:36:24.861Z</time></trkpt><trkpt lat="42.3015183" lon="13.2488983"><ele>1351.0</ele><time>2026-05-02T16:36:26.862Z</time></trkpt><trkpt lat="42.3015083" lon="13.2490367"><ele>1351.0</ele><time>2026-05-02T16:36:28.862Z</time></trkpt><trkpt lat="42.3015" lon="13.249125"><ele>1351.0</ele><time>2026-05-02T16:36:29.862Z</time></trkpt><trkpt lat="42.3014883" lon="13.2492267"><ele>1351.0</ele><time>2026-05-02T16:36:30.861Z</time></trkpt><trkpt lat="42.3014667" lon="13.2493333"><ele>1352.4</ele><time>2026-05-02T16:36:31.861Z</time></trkpt><trkpt lat="42.3014483" lon="13.2494483"><ele>1353.8</ele><time>2026-05-02T16:36:32.862Z</time></trkpt><trkpt lat="42.301435" lon="13.24957"><ele>1355.2</ele><time>2026-05-02T16:36:33.861Z</time></trkpt><trkpt lat="42.3014267" lon="13.2496983"><ele>1356.6000000000001</ele><time>2026-05-02T16:36:34.861Z</time></trkpt><trkpt lat="42.3014233" lon="13.24983"><ele>1358.0</ele><time>2026-05-02T16:36:35.862Z</time></trkpt><trkpt lat="42.301425" lon="13.2499733"><ele>1358.0</ele><time>2026-05-02T16:36:36.862Z</time></trkpt><trkpt lat="42.3014367" lon="13.2501083"><ele>1358.0</ele><time>2026-05-02T16:36:37.862Z</time></trkpt><trkpt lat="42.3014467" lon="13.2502567"><ele>1358.0</ele><time>2026-05-02T16:36:38.862Z</time></trkpt><trkpt lat="42.3014817" lon="13.2503933"><ele>1358.0</ele><time>2026-05-02T16:36:39.862Z</time></trkpt><trkpt lat="42.30154" lon="13.2505317"><ele>1358.0</ele><time>2026-05-02T16:36:40.861Z</time></trkpt><trkpt lat="42.3016017" lon="13.2506717"><ele>1354.25</ele><time>2026-05-02T16:36:41.861Z</time></trkpt><trkpt lat="42.3016567" lon="13.2508033"><ele>1350.5</ele><time>2026-05-02T16:36:42.861Z</time></trkpt><trkpt lat="42.30172" lon="13.2509417"><ele>1346.75</ele><time>2026-05-02T16:36:43.861Z</time></trkpt><trkpt lat="42.3017817" lon="13.2510917"><ele>1343.0</ele><time>2026-05-02T16:36:44.862Z</time></trkpt><trkpt lat="42.3018433" lon="13.2512383"><ele>1343.0</ele><time>2026-05-02T16:36:45.862Z</time></trkpt><trkpt lat="42.3019133" lon="13.25138"><ele>1343.0</ele><time>2026-05-02T16:36:46.862Z</time></trkpt><trkpt lat="42.302" lon="13.25151"><ele>1343.0</ele><time>2026-05-02T16:36:47.862Z</time></trkpt><trkpt lat="42.3021033" lon="13.2516183"><ele>1343.0</ele><time>2026-05-02T16:36:48.861Z</time></trkpt><trkpt lat="42.3022133" lon="13.25172"><ele>1343.25</ele><time>2026-05-02T16:36:49.862Z</time></trkpt><trkpt lat="42.3023367" lon="13.25181"><ele>1343.5</ele><time>2026-05-02T16:36:50.862Z</time></trkpt><trkpt lat="42.302465" lon="13.251865"><ele>1343.75</ele><time>2026-05-02T16:36:51.862Z</time></trkpt><trkpt lat="42.3026083" lon="13.2518717"><ele>1344.0</ele><time>2026-05-02T16:36:52.861Z</time></trkpt><trkpt lat="42.3027517" lon="13.25185"><ele>1344.0</ele><time>2026-05-02T16:36:53.862Z</time></trkpt><trkpt lat="42.3028933" lon="13.2518183"><ele>1344.0</ele><time>2026-05-02T16:36:54.861Z</time></trkpt><trkpt lat="42.3030333" lon="13.2517983"><ele>1344.0</ele><time>2026-05-02T16:36:55.862Z</time></trkpt><trkpt lat="42.3031717" lon="13.2517967"><ele>1344.0</ele><time>2026-05-02T16:36:56.861Z</time></trkpt><trkpt lat="42.30331" lon="13.2518117"><ele>1345.5</ele><time>2026-05-02T16:36:57.862Z</time></trkpt><trkpt lat="42.303445" lon="13.2518267"><ele>1347.0</ele><time>2026-05-02T16:36:58.862Z</time></trkpt><trkpt lat="42.3035767" lon="13.2518533"><ele>1348.5</ele><time>2026-05-02T16:36:59.861Z</time></trkpt><trkpt lat="42.3037" lon="13.2519017"><ele>1350.0</ele><time>2026-05-02T16:37:00.862Z</time></trkpt><trkpt lat="42.3038167" lon="13.25196"><ele>1347.25</ele><time>2026-05-02T16:37:01.862Z</time></trkpt><trkpt lat="42.303935" lon="13.2520533"><ele>1344.5</ele><time>2026-05-02T16:37:02.862Z</time></trkpt><trkpt lat="42.3040367" lon="13.2521933"><ele>1341.75</ele><time>2026-05-02T16:37:03.861Z</time></trkpt><trkpt lat="42.3041083" lon="13.25237"><ele>1339.0</ele><time>2026-05-02T16:37:04.862Z</time></trkpt><trkpt lat="42.304165" lon="13.2525633"><ele>1339.0</ele><time>2026-05-02T16:37:05.861Z</time></trkpt><trkpt lat="42.3042233" lon="13.2527667"><ele>1339.0</ele><time>2026-05-02T16:37:06.861Z</time></trkpt><trkpt lat="42.304275" lon="13.2529783"><ele>1339.0</ele><time>2026-05-02T16:37:07.862Z</time></trkpt><trkpt lat="42.3043367" lon="13.2531867"><ele>1331.0</ele><time>2026-05-02T16:37:08.861Z</time></trkpt><trkpt lat="42.3044" lon="13.2533883"><ele>1323.0</ele><time>2026-05-02T16:37:09.862Z</time></trkpt><trkpt lat="42.3044633" lon="13.2535883"><ele>1315.0</ele><time>2026-05-02T16:37:10.861Z</time></trkpt><trkpt lat="42.3045233" lon="13.253775"><ele>1315.0</ele><time>2026-05-02T16:37:11.862Z</time></trkpt><trkpt lat="42.3045967" lon="13.2539483"><ele>1315.0</ele><time>2026-05-02T16:37:12.862Z</time></trkpt><trkpt lat="42.3046667" lon="13.2541217"><ele>1315.0</ele><time>2026-05-02T16:37:13.861Z</time></trkpt><trkpt lat="42.3047283" lon="13.2542833"><ele>1315.0</ele><time>2026-05-02T16:37:14.861Z</time></trkpt><trkpt lat="42.304785" lon="13.2544083"><ele>1318.2</ele><time>2026-05-02T16:37:15.862Z</time></trkpt><trkpt lat="42.30484" lon="13.2545133"><ele>1321.4</ele><time>2026-05-02T16:37:16.861Z</time></trkpt><trkpt lat="42.3049067" lon="13.2545783"><ele>1324.6</ele><time>2026-05-02T16:37:17.861Z</time></trkpt><trkpt lat="42.3050017" lon="13.2546033"><ele>1327.8</ele><time>2026-05-02T16:37:18.862Z</time></trkpt><trkpt lat="42.3051067" lon="13.2545867"><ele>1331.0</ele><time>2026-05-02T16:37:19.862Z</time></trkpt><trkpt lat="42.3052333" lon="13.254525"><ele>1331.0</ele><time>2026-05-02T16:37:20.861Z</time></trkpt><trkpt lat="42.305365" lon="13.254465"><ele>1331.0</ele><time>2026-05-02T16:37:21.861Z</time></trkpt><trkpt lat="42.3054933" lon="13.2544017"><ele>1331.0</ele><time>2026-05-02T16:37:22.861Z</time></trkpt><trkpt lat="42.3056117" lon="13.25432"><ele>1331.0</ele><time>2026-05-02T16:37:23.861Z</time></trkpt><trkpt lat="42.305735" lon="13.254235"><ele>1329.0</ele><time>2026-05-02T16:37:24.862Z</time></trkpt><trkpt lat="42.3058583" lon="13.254145"><ele>1327.0</ele><time>2026-05-02T16:37:25.861Z</time></trkpt><trkpt lat="42.3059833" lon="13.2540867"><ele>1325.0</ele><time>2026-05-02T16:37:26.862Z</time></trkpt><trkpt lat="42.30611" lon="13.254055"><ele>1323.0</ele><time>2026-05-02T16:37:27.861Z</time></trkpt><trkpt lat="42.3062617" lon="13.2540233"><ele>1323.0</ele><time>2026-05-02T16:37:28.861Z</time></trkpt><trkpt lat="42.3064059" lon="13.2539814"><ele>1323.0</ele><time>2026-05-02T16:37:29.861Z</time></trkpt><trkpt lat="42.3065487" lon="13.2539428"><ele>1323.0</ele><time>2026-05-02T16:37:30.861Z</time></trkpt><trkpt lat="42.3066927" lon="13.2539173"><ele>1323.0</ele><time>2026-05-02T16:37:31.861Z</time></trkpt><trkpt lat="42.3068429" lon="13.253888"><ele>1327.3333333333333</ele><time>2026-05-02T16:37:32.861Z</time></trkpt><trkpt lat="42.306999" lon="13.253856"><ele>1331.6666666666665</ele><time>2026-05-02T16:37:33.862Z</time></trkpt><trkpt lat="42.307152" lon="13.2538088"><ele>1336.0</ele><time>2026-05-02T16:37:34.862Z</time></trkpt><trkpt lat="42.3073062" lon="13.2537449"><ele>1336.0</ele><time>2026-05-02T16:37:35.861Z</time></trkpt><trkpt lat="42.3074543" lon="13.2536957"><ele>1336.0</ele><time>2026-05-02T16:37:36.861Z</time></trkpt><trkpt lat="42.3076088" lon="13.2536713"><ele>1336.0</ele><time>2026-05-02T16:37:37.862Z</time></trkpt><trkpt lat="42.3077664" lon="13.2536747"><ele>1336.0</ele><time>2026-05-02T16:37:38.861Z</time></trkpt><trkpt lat="42.3079257" lon="13.2537002"><ele>1336.0</ele><time>2026-05-02T16:37:39.862Z</time></trkpt><trkpt lat="42.3080929" lon="13.2537252"><ele>1336.0</ele><time>2026-05-02T16:37:40.862Z</time></trkpt><trkpt lat="42.3082557" lon="13.2537459"><ele>1332.6666666666665</ele><time>2026-05-02T16:37:41.861Z</time></trkpt><trkpt lat="42.3084171" lon="13.2537689"><ele>1329.3333333333333</ele><time>2026-05-02T16:37:42.862Z</time></trkpt><trkpt lat="42.3085722" lon="13.2538064"><ele>1326.0</ele><time>2026-05-02T16:37:43.861Z</time></trkpt><trkpt lat="42.3087266" lon="13.2538626"><ele>1326.0</ele><time>2026-05-02T16:37:44.862Z</time></trkpt><trkpt lat="42.3088801" lon="13.253928"><ele>1326.0</ele><time>2026-05-02T16:37:45.861Z</time></trkpt><trkpt lat="42.3090186" lon="13.2539877"><ele>1326.0</ele><time>2026-05-02T16:37:46.862Z</time></trkpt><trkpt lat="42.3091415" lon="13.2540196"><ele>1326.0</ele><time>2026-05-02T16:37:47.861Z</time></trkpt><trkpt lat="42.3092577" lon="13.2540256"><ele>1325.25</ele><time>2026-05-02T16:37:48.862Z</time></trkpt><trkpt lat="42.3093681" lon="13.2539877"><ele>1324.5</ele><time>2026-05-02T16:37:49.861Z</time></trkpt><trkpt lat="42.3094766" lon="13.2539067"><ele>1323.75</ele><time>2026-05-02T16:37:50.861Z</time></trkpt><trkpt lat="42.3095914" lon="13.2538035"><ele>1323.0</ele><time>2026-05-02T16:37:51.861Z</time></trkpt><trkpt lat="42.3097179" lon="13.2537109"><ele>1319.0</ele><time>2026-05-02T16:37:52.862Z</time></trkpt><trkpt lat="42.3098454" lon="13.2536205"><ele>1315.0</ele><time>2026-05-02T16:37:53.861Z</time></trkpt><trkpt lat="42.3099716" lon="13.2535217"><ele>1311.0</ele><time>2026-05-02T16:37:54.861Z</time></trkpt><trkpt lat="42.3101002" lon="13.2534289"><ele>1307.0</ele><time>2026-05-02T16:37:55.862Z</time></trkpt><trkpt lat="42.3102251" lon="13.2533318"><ele>1307.0</ele><time>2026-05-02T16:37:56.862Z</time></trkpt><trkpt lat="42.3103457" lon="13.2532319"><ele>1307.0</ele><time>2026-05-02T16:37:57.861Z</time></trkpt><trkpt lat="42.3104724" lon="13.2531249"><ele>1307.0</ele><time>2026-05-02T16:37:58.861Z</time></trkpt><trkpt lat="42.3106059" lon="13.2530323"><ele>1307.0</ele><time>2026-05-02T16:37:59.861Z</time></trkpt><trkpt lat="42.3107446" lon="13.2529549"><ele>1309.0</ele><time>2026-05-02T16:38:00.862Z</time></trkpt><trkpt lat="42.3108901" lon="13.2529035"><ele>1311.0</ele><time>2026-05-02T16:38:01.862Z</time></trkpt><trkpt lat="42.3110358" lon="13.2528866"><ele>1313.0</ele><time>2026-05-02T16:38:02.861Z</time></trkpt><trkpt lat="42.311188" lon="13.2528872"><ele>1315.0</ele><time>2026-05-02T16:38:03.861Z</time></trkpt><trkpt lat="42.3113449" lon="13.2528769"><ele>1311.6666666666665</ele><time>2026-05-02T16:38:04.861Z</time></trkpt><trkpt lat="42.3114954" lon="13.2528427"><ele>1308.3333333333333</ele><time>2026-05-02T16:38:05.861Z</time></trkpt><trkpt lat="42.3116437" lon="13.2528032"><ele>1305.0</ele><time>2026-05-02T16:38:06.862Z</time></trkpt><trkpt lat="42.3117906" lon="13.2527882"><ele>1305.0</ele><time>2026-05-02T16:38:07.862Z</time></trkpt><trkpt lat="42.3119333" lon="13.2528066"><ele>1305.0</ele><time>2026-05-02T16:38:08.862Z</time></trkpt><trkpt lat="42.3120695" lon="13.2528505"><ele>1305.0</ele><time>2026-05-02T16:38:09.862Z</time></trkpt><trkpt lat="42.3121882" lon="13.2528929"><ele>1305.0</ele><time>2026-05-02T16:38:10.861Z</time></trkpt><trkpt lat="42.3123058" lon="13.2528886"><ele>1301.25</ele><time>2026-05-02T16:38:11.861Z</time></trkpt><trkpt lat="42.3124121" lon="13.2528173"><ele>1297.5</ele><time>2026-05-02T16:38:12.862Z</time></trkpt><trkpt lat="42.31251" lon="13.2527138"><ele>1293.75</ele><time>2026-05-02T16:38:13.862Z</time></trkpt><trkpt lat="42.3126155" lon="13.2526116"><ele>1290.0</ele><time>2026-05-02T16:38:14.862Z</time></trkpt><trkpt lat="42.3127253" lon="13.2525238"><ele>1290.0</ele><time>2026-05-02T16:38:15.861Z</time></trkpt><trkpt lat="42.3128231" lon="13.2524139"><ele>1290.0</ele><time>2026-05-02T16:38:16.861Z</time></trkpt><trkpt lat="42.3128898" lon="13.2522652"><ele>1290.0</ele><time>2026-05-02T16:38:17.862Z</time></trkpt><trkpt lat="42.3129387" lon="13.2521173"><ele>1290.0</ele><time>2026-05-02T16:38:18.861Z</time></trkpt><trkpt lat="42.313004" lon="13.2519901"><ele>1288.5</ele><time>2026-05-02T16:38:19.861Z</time></trkpt><trkpt lat="42.3130853" lon="13.2518827"><ele>1287.0</ele><time>2026-05-02T16:38:20.861Z</time></trkpt><trkpt lat="42.3131939" lon="13.251812"><ele>1285.5</ele><time>2026-05-02T16:38:21.861Z</time></trkpt><trkpt lat="42.313311" lon="13.2517627"><ele>1284.0</ele><time>2026-05-02T16:38:22.862Z</time></trkpt><trkpt lat="42.3134164" lon="13.2517031"><ele>1284.0</ele><time>2026-05-02T16:38:23.862Z</time></trkpt><trkpt lat="42.3135102" lon="13.2516035"><ele>1284.0</ele><time>2026-05-02T16:38:24.861Z</time></trkpt><trkpt lat="42.3135831" lon="13.2514815"><ele>1284.0</ele><time>2026-05-02T16:38:25.862Z</time></trkpt><trkpt lat="42.3136568" lon="13.251379"><ele>1284.0</ele><time>2026-05-02T16:38:26.861Z</time></trkpt><trkpt lat="42.3137579" lon="13.2513165"><ele>1287.0</ele><time>2026-05-02T16:38:27.862Z</time></trkpt><trkpt lat="42.3138781" lon="13.2512885"><ele>1290.0</ele><time>2026-05-02T16:38:28.861Z</time></trkpt><trkpt lat="42.3140081" lon="13.2512581"><ele>1293.0</ele><time>2026-05-02T16:38:29.861Z</time></trkpt><trkpt lat="42.3141272" lon="13.2511974"><ele>1296.0</ele><time>2026-05-02T16:38:30.862Z</time></trkpt><trkpt lat="42.3142366" lon="13.2511327"><ele>1296.0</ele><time>2026-05-02T16:38:31.861Z</time></trkpt><trkpt lat="42.3143424" lon="13.2510859"><ele>1296.0</ele><time>2026-05-02T16:38:32.861Z</time></trkpt><trkpt lat="42.3144464" lon="13.251073"><ele>1296.0</ele><time>2026-05-02T16:38:33.861Z</time></trkpt><trkpt lat="42.3145573" lon="13.2511055"><ele>1296.0</ele><time>2026-05-02T16:38:34.862Z</time></trkpt><trkpt lat="42.3146637" lon="13.2511904"><ele>1297.0</ele><time>2026-05-02T16:38:35.862Z</time></trkpt><trkpt lat="42.3147701" lon="13.2513043"><ele>1298.0</ele><time>2026-05-02T16:38:36.862Z</time></trkpt><trkpt lat="42.3148754" lon="13.2514273"><ele>1299.0</ele><time>2026-05-02T16:38:37.861Z</time></trkpt><trkpt lat="42.3149793" lon="13.2515509"><ele>1300.0</ele><time>2026-05-02T16:38:38.861Z</time></trkpt><trkpt lat="42.315084" lon="13.2516741"><ele>1293.25</ele><time>2026-05-02T16:38:39.862Z</time></trkpt><trkpt lat="42.3151839" lon="13.2517985"><ele>1286.5</ele><time>2026-05-02T16:38:40.861Z</time></trkpt><trkpt lat="42.3152741" lon="13.2519251"><ele>1279.75</ele><time>2026-05-02T16:38:41.861Z</time></trkpt><trkpt lat="42.3153583" lon="13.2520474"><ele>1273.0</ele><time>2026-05-02T16:38:42.862Z</time></trkpt><trkpt lat="42.3154494" lon="13.25214"><ele>1273.0</ele><time>2026-05-02T16:38:43.861Z</time></trkpt><trkpt lat="42.3155622" lon="13.2521891"><ele>1273.0</ele><time>2026-05-02T16:38:44.862Z</time></trkpt><trkpt lat="42.315693" lon="13.2522107"><ele>1273.0</ele><time>2026-05-02T16:38:45.861Z</time></trkpt><trkpt lat="42.3158289" lon="13.2522038"><ele>1273.0</ele><time>2026-05-02T16:38:46.861Z</time></trkpt><trkpt lat="42.3159622" lon="13.2521737"><ele>1278.5</ele><time>2026-05-02T16:38:47.861Z</time></trkpt><trkpt lat="42.3160911" lon="13.2521295"><ele>1284.0</ele><time>2026-05-02T16:38:48.861Z</time></trkpt><trkpt lat="42.3162053" lon="13.2520825"><ele>1289.5</ele><time>2026-05-02T16:38:49.862Z</time></trkpt><trkpt lat="42.3163089" lon="13.2520391"><ele>1295.0</ele><time>2026-05-02T16:38:50.862Z</time></trkpt><trkpt lat="42.3163971" lon="13.2520016"><ele>1294.3333333333335</ele><time>2026-05-02T16:38:51.861Z</time></trkpt><trkpt lat="42.3164802" lon="13.2519878"><ele>1293.6666666666667</ele><time>2026-05-02T16:38:52.862Z</time></trkpt><trkpt lat="42.3165562" lon="13.2520044"><ele>1293.0</ele><time>2026-05-02T16:38:53.862Z</time></trkpt><trkpt lat="42.3166179" lon="13.2520452"><ele>1292.3333333333333</ele><time>2026-05-02T16:38:54.862Z</time></trkpt><trkpt lat="42.3166533" lon="13.2521312"><ele>1291.6666666666665</ele><time>2026-05-02T16:38:55.862Z</time></trkpt><trkpt lat="42.3166652" lon="13.2522444"><ele>1291.0</ele><time>2026-05-02T16:38:56.862Z</time></trkpt><trkpt lat="42.3166575" lon="13.2523642"><ele>1287.6</ele><time>2026-05-02T16:38:57.861Z</time></trkpt><trkpt lat="42.316628" lon="13.2524815"><ele>1284.1999999999998</ele><time>2026-05-02T16:38:58.861Z</time></trkpt><trkpt lat="42.316573" lon="13.2525873"><ele>1280.8000000000002</ele><time>2026-05-02T16:38:59.861Z</time></trkpt><trkpt lat="42.3165081" lon="13.2526838"><ele>1277.4</ele><time>2026-05-02T16:39:00.861Z</time></trkpt><trkpt lat="42.3164476" lon="13.2527817"><ele>1274.0</ele><time>2026-05-02T16:39:01.862Z</time></trkpt><trkpt lat="42.3164104" lon="13.2528845"><ele>1274.0</ele><time>2026-05-02T16:39:02.861Z</time></trkpt><trkpt lat="42.3164059" lon="13.2529878"><ele>1274.0</ele><time>2026-05-02T16:39:03.862Z</time></trkpt><trkpt lat="42.3164355" lon="13.2530685"><ele>1274.0</ele><time>2026-05-02T16:39:04.861Z</time></trkpt><trkpt lat="42.3164956" lon="13.2531156"><ele>1274.0</ele><time>2026-05-02T16:39:05.861Z</time></trkpt><trkpt lat="42.3165945" lon="13.2531005"><ele>1274.0</ele><time>2026-05-02T16:39:06.862Z</time></trkpt><trkpt lat="42.316704" lon="13.2530564"><ele>1274.0</ele><time>2026-05-02T16:39:07.861Z</time></trkpt><trkpt lat="42.3168169" lon="13.2530042"><ele>1274.0</ele><time>2026-05-02T16:39:08.861Z</time></trkpt><trkpt lat="42.3169328" lon="13.2529557"><ele>1274.0</ele><time>2026-05-02T16:39:09.861Z</time></trkpt><trkpt lat="42.3170568" lon="13.2529109"><ele>1274.0</ele><time>2026-05-02T16:39:10.861Z</time></trkpt><trkpt lat="42.3171861" lon="13.2528708"><ele>1274.0</ele><time>2026-05-02T16:39:11.862Z</time></trkpt><trkpt lat="42.3173197" lon="13.2528279"><ele>1274.5</ele><time>2026-05-02T16:39:12.861Z</time></trkpt><trkpt lat="42.3174552" lon="13.2527824"><ele>1275.0</ele><time>2026-05-02T16:39:13.862Z</time></trkpt><trkpt lat="42.3175955" lon="13.2527302"><ele>1275.5</ele><time>2026-05-02T16:39:14.861Z</time></trkpt><trkpt lat="42.3177313" lon="13.2526789"><ele>1276.0</ele><time>2026-05-02T16:39:15.861Z</time></trkpt><trkpt lat="42.3178689" lon="13.252632"><ele>1276.0</ele><time>2026-05-02T16:39:16.861Z</time></trkpt><trkpt lat="42.3180156" lon="13.2525997"><ele>1276.0</ele><time>2026-05-02T16:39:17.861Z</time></trkpt><trkpt lat="42.3181655" lon="13.2525744"><ele>1276.0</ele><time>2026-05-02T16:39:18.861Z</time></trkpt><trkpt lat="42.3183185" lon="13.2525588"><ele>1274.0</ele><time>2026-05-02T16:39:19.861Z</time></trkpt><trkpt lat="42.3184693" lon="13.2525473"><ele>1272.0</ele><time>2026-05-02T16:39:20.861Z</time></trkpt><trkpt lat="42.3186183" lon="13.2525352"><ele>1270.0</ele><time>2026-05-02T16:39:21.862Z</time></trkpt><trkpt lat="42.3187693" lon="13.2525141"><ele>1268.75</ele><time>2026-05-02T16:39:22.862Z</time></trkpt><trkpt lat="42.3189144" lon="13.2524811"><ele>1267.5</ele><time>2026-05-02T16:39:23.861Z</time></trkpt><trkpt lat="42.3190576" lon="13.2524463"><ele>1266.25</ele><time>2026-05-02T16:39:24.861Z</time></trkpt><trkpt lat="42.3191978" lon="13.2524125"><ele>1265.0</ele><time>2026-05-02T16:39:25.861Z</time></trkpt><trkpt lat="42.3193332" lon="13.2523854"><ele>1265.0</ele><time>2026-05-02T16:39:26.862Z</time></trkpt><trkpt lat="42.3194673" lon="13.2523624"><ele>1265.0</ele><time>2026-05-02T16:39:27.861Z</time></trkpt><trkpt lat="42.319599" lon="13.2523374"><ele>1265.0</ele><time>2026-05-02T16:39:28.862Z</time></trkpt><trkpt lat="42.3197169" lon="13.2522891"><ele>1265.0</ele><time>2026-05-02T16:39:29.862Z</time></trkpt><trkpt lat="42.3198213" lon="13.252202"><ele>1269.0</ele><time>2026-05-02T16:39:30.861Z</time></trkpt><trkpt lat="42.3199221" lon="13.2520748"><ele>1273.0</ele><time>2026-05-02T16:39:31.862Z</time></trkpt><trkpt lat="42.320008" lon="13.2519273"><ele>1277.0</ele><time>2026-05-02T16:39:32.862Z</time></trkpt><trkpt lat="42.3200878" lon="13.2517813"><ele>1281.0</ele><time>2026-05-02T16:39:33.862Z</time></trkpt><trkpt lat="42.3201677" lon="13.2516423"><ele>1281.0</ele><time>2026-05-02T16:39:34.862Z</time></trkpt><trkpt lat="42.3202311" lon="13.2514964"><ele>1281.0</ele><time>2026-05-02T16:39:35.862Z</time></trkpt><trkpt lat="42.3202913" lon="13.2513446"><ele>1281.0</ele><time>2026-05-02T16:39:36.861Z</time></trkpt><trkpt lat="42.3203474" lon="13.2511829"><ele>1281.0</ele><time>2026-05-02T16:39:37.861Z</time></trkpt><trkpt lat="42.3204022" lon="13.2510224"><ele>1279.6</ele><time>2026-05-02T16:39:38.862Z</time></trkpt><trkpt lat="42.3204329" lon="13.2508644"><ele>1278.1999999999998</ele><time>2026-05-02T16:39:39.861Z</time></trkpt><trkpt lat="42.3204606" lon="13.2507228"><ele>1276.8000000000002</ele><time>2026-05-02T16:39:40.861Z</time></trkpt><trkpt lat="42.3204956" lon="13.25059"><ele>1275.4</ele><time>2026-05-02T16:39:41.862Z</time></trkpt><trkpt lat="42.3205436" lon="13.2504886"><ele>1274.0</ele><time>2026-05-02T16:39:42.862Z</time></trkpt><trkpt lat="42.3206223" lon="13.2504117"><ele>1274.0</ele><time>2026-05-02T16:39:43.862Z</time></trkpt><trkpt lat="42.3207359" lon="13.2503679"><ele>1274.0</ele><time>2026-05-02T16:39:44.861Z</time></trkpt><trkpt lat="42.3208693" lon="13.2503654"><ele>1274.0</ele><time>2026-05-02T16:39:45.862Z</time></trkpt><trkpt lat="42.3210099" lon="13.250394"><ele>1274.0</ele><time>2026-05-02T16:39:46.861Z</time></trkpt><trkpt lat="42.3211486" lon="13.25045"><ele>1274.0</ele><time>2026-05-02T16:39:47.862Z</time></trkpt><trkpt lat="42.3212796" lon="13.2505233"><ele>1274.0</ele><time>2026-05-02T16:39:48.862Z</time></trkpt><trkpt lat="42.3214117" lon="13.2506005"><ele>1274.0</ele><time>2026-05-02T16:39:49.861Z</time></trkpt><trkpt lat="42.32154" lon="13.2506728"><ele>1274.0</ele><time>2026-05-02T16:39:50.862Z</time></trkpt><trkpt lat="42.3216658" lon="13.2507419"><ele>1267.75</ele><time>2026-05-02T16:39:51.862Z</time></trkpt><trkpt lat="42.3217877" lon="13.2508141"><ele>1261.5</ele><time>2026-05-02T16:39:52.861Z</time></trkpt><trkpt lat="42.3218992" lon="13.2508984"><ele>1255.25</ele><time>2026-05-02T16:39:53.861Z</time></trkpt><trkpt lat="42.321991" lon="13.2509875"><ele>1249.0</ele><time>2026-05-02T16:39:54.862Z</time></trkpt><trkpt lat="42.3220575" lon="13.251072"><ele>1249.0</ele><time>2026-05-02T16:39:55.861Z</time></trkpt><trkpt lat="42.3220966" lon="13.251204"><ele>1249.0</ele><time>2026-05-02T16:39:57.861Z</time></trkpt><trkpt lat="42.3219878" lon="13.251289"><ele>1249.0</ele><time>2026-05-02T16:39:59.862Z</time></trkpt><trkpt lat="42.3218857" lon="13.2512844"><ele>1249.0</ele><time>2026-05-02T16:40:00.862Z</time></trkpt><trkpt lat="42.321767" lon="13.2512565"><ele>1249.0</ele><time>2026-05-02T16:40:01.862Z</time></trkpt><trkpt lat="42.3216527" lon="13.2512204"><ele>1249.0</ele><time>2026-05-02T16:40:02.862Z</time></trkpt><trkpt lat="42.3215456" lon="13.2511486"><ele>1249.0</ele><time>2026-05-02T16:40:03.861Z</time></trkpt><trkpt lat="42.3214496" lon="13.2510551"><ele>1249.0</ele><time>2026-05-02T16:40:04.861Z</time></trkpt><trkpt lat="42.3213624" lon="13.2509402"><ele>1249.5</ele><time>2026-05-02T16:40:05.861Z</time></trkpt><trkpt lat="42.3212758" lon="13.2508217"><ele>1250.0</ele><time>2026-05-02T16:40:06.861Z</time></trkpt><trkpt lat="42.3211836" lon="13.2507205"><ele>1250.5</ele><time>2026-05-02T16:40:07.861Z</time></trkpt><trkpt lat="42.3210834" lon="13.2506494"><ele>1251.0</ele><time>2026-05-02T16:40:08.862Z</time></trkpt><trkpt lat="42.3209822" lon="13.2506065"><ele>1251.0</ele><time>2026-05-02T16:40:09.862Z</time></trkpt><trkpt lat="42.3208944" lon="13.2505942"><ele>1251.0</ele><time>2026-05-02T16:40:10.861Z</time></trkpt><trkpt lat="42.3208206" lon="13.2506062"><ele>1251.0</ele><time>2026-05-02T16:40:11.861Z</time></trkpt><trkpt lat="42.3207327" lon="13.2506997"><ele>1251.0</ele><time>2026-05-02T16:40:13.861Z</time></trkpt><trkpt lat="42.3207223" lon="13.2507992"><ele>1251.0</ele><time>2026-05-02T16:40:14.861Z</time></trkpt><trkpt lat="42.3207116" lon="13.2509229"><ele>1251.0</ele><time>2026-05-02T16:40:15.861Z</time></trkpt><trkpt lat="42.3206873" lon="13.2510649"><ele>1251.0</ele><time>2026-05-02T16:40:16.861Z</time></trkpt><trkpt lat="42.3206443" lon="13.2512054"><ele>1251.0</ele><time>2026-05-02T16:40:17.861Z</time></trkpt><trkpt lat="42.3205922" lon="13.2513429"><ele>1251.0</ele><time>2026-05-02T16:40:18.862Z</time></trkpt><trkpt lat="42.3205348" lon="13.2514973"><ele>1251.0</ele><time>2026-05-02T16:40:19.861Z</time></trkpt><trkpt lat="42.320475" lon="13.2516717"><ele>1250.25</ele><time>2026-05-02T16:40:20.861Z</time></trkpt><trkpt lat="42.320409" lon="13.2518425"><ele>1249.5</ele><time>2026-05-02T16:40:21.861Z</time></trkpt><trkpt lat="42.320327" lon="13.252001"><ele>1248.75</ele><time>2026-05-02T16:40:22.862Z</time></trkpt><trkpt lat="42.3202412" lon="13.2521625"><ele>1248.0</ele><time>2026-05-02T16:40:23.861Z</time></trkpt><trkpt lat="42.3201639" lon="13.2523291"><ele>1248.0</ele><time>2026-05-02T16:40:24.861Z</time></trkpt><trkpt lat="42.3200923" lon="13.2524945"><ele>1248.0</ele><time>2026-05-02T16:40:25.862Z</time></trkpt><trkpt lat="42.3200227" lon="13.2526335"><ele>1248.0</ele><time>2026-05-02T16:40:26.862Z</time></trkpt><trkpt lat="42.319938" lon="13.2527574"><ele>1248.0</ele><time>2026-05-02T16:40:27.861Z</time></trkpt><trkpt lat="42.3198237" lon="13.2528533"><ele>1253.6666666666667</ele><time>2026-05-02T16:40:28.862Z</time></trkpt><trkpt lat="42.3196804" lon="13.2529221"><ele>1259.3333333333335</ele><time>2026-05-02T16:40:29.862Z</time></trkpt><trkpt lat="42.3195196" lon="13.2529637"><ele>1265.0</ele><time>2026-05-02T16:40:30.862Z</time></trkpt><trkpt lat="42.3193498" lon="13.253011"><ele>1265.0</ele><time>2026-05-02T16:40:31.861Z</time></trkpt><trkpt lat="42.3191857" lon="13.2530644"><ele>1265.0</ele><time>2026-05-02T16:40:32.862Z</time></trkpt><trkpt lat="42.3190289" lon="13.2531266"><ele>1265.0</ele><time>2026-05-02T16:40:33.861Z</time></trkpt><trkpt lat="42.3188737" lon="13.2531885"><ele>1254.6666666666667</ele><time>2026-05-02T16:40:34.861Z</time></trkpt><trkpt lat="42.3187138" lon="13.2532354"><ele>1244.3333333333333</ele><time>2026-05-02T16:40:35.862Z</time></trkpt><trkpt lat="42.3185492" lon="13.2532627"><ele>1234.0</ele><time>2026-05-02T16:40:36.862Z</time></trkpt><trkpt lat="42.318385" lon="13.2532854"><ele>1234.0</ele><time>2026-05-02T16:40:37.861Z</time></trkpt><trkpt lat="42.3182214" lon="13.253322"><ele>1234.0</ele><time>2026-05-02T16:40:38.862Z</time></trkpt><trkpt lat="42.3180616" lon="13.2533749"><ele>1234.0</ele><time>2026-05-02T16:40:39.861Z</time></trkpt><trkpt lat="42.3179005" lon="13.2534415"><ele>1236.6666666666665</ele><time>2026-05-02T16:40:40.861Z</time></trkpt><trkpt lat="42.3177427" lon="13.2535047"><ele>1239.3333333333333</ele><time>2026-05-02T16:40:41.861Z</time></trkpt><trkpt lat="42.3175819" lon="13.2535669"><ele>1242.0</ele><time>2026-05-02T16:40:42.862Z</time></trkpt><trkpt lat="42.3174183" lon="13.2536333"><ele>1242.0</ele><time>2026-05-02T16:40:43.861Z</time></trkpt><trkpt lat="42.3172617" lon="13.2537017"><ele>1242.0</ele><time>2026-05-02T16:40:44.861Z</time></trkpt><trkpt lat="42.3171083" lon="13.2537733"><ele>1242.0</ele><time>2026-05-02T16:40:45.862Z</time></trkpt><trkpt lat="42.3169533" lon="13.253855"><ele>1245.3333333333333</ele><time>2026-05-02T16:40:46.862Z</time></trkpt><trkpt lat="42.3167983" lon="13.2539417"><ele>1248.6666666666665</ele><time>2026-05-02T16:40:47.862Z</time></trkpt><trkpt lat="42.3166533" lon="13.2540233"><ele>1252.0</ele><time>2026-05-02T16:40:48.861Z</time></trkpt><trkpt lat="42.31651" lon="13.2541017"><ele>1240.25</ele><time>2026-05-02T16:40:49.861Z</time></trkpt><trkpt lat="42.3163917" lon="13.2541667"><ele>1228.5</ele><time>2026-05-02T16:40:50.862Z</time></trkpt><trkpt lat="42.3162733" lon="13.2541817"><ele>1216.75</ele><time>2026-05-02T16:40:51.862Z</time></trkpt><trkpt lat="42.3161583" lon="13.2541417"><ele>1205.0</ele><time>2026-05-02T16:40:52.862Z</time></trkpt><trkpt lat="42.3160367" lon="13.2540717"><ele>1205.0</ele><time>2026-05-02T16:40:53.861Z</time></trkpt><trkpt lat="42.3159183" lon="13.2539783"><ele>1205.0</ele><time>2026-05-02T16:40:54.861Z</time></trkpt><trkpt lat="42.3157933" lon="13.2539167"><ele>1205.0</ele><time>2026-05-02T16:40:55.862Z</time></trkpt><trkpt lat="42.3156683" lon="13.253875"><ele>1205.0</ele><time>2026-05-02T16:40:56.861Z</time></trkpt><trkpt lat="42.315555" lon="13.25382"><ele>1205.6</ele><time>2026-05-02T16:40:57.862Z</time></trkpt><trkpt lat="42.3154533" lon="13.2537583"><ele>1206.2</ele><time>2026-05-02T16:40:58.861Z</time></trkpt><trkpt lat="42.3153667" lon="13.25366"><ele>1206.8</ele><time>2026-05-02T16:40:59.862Z</time></trkpt><trkpt lat="42.315305" lon="13.2535317"><ele>1207.4</ele><time>2026-05-02T16:41:00.861Z</time></trkpt><trkpt lat="42.315245" lon="13.2534167"><ele>1208.0</ele><time>2026-05-02T16:41:01.861Z</time></trkpt><trkpt lat="42.315155" lon="13.2533283"><ele>1208.0</ele><time>2026-05-02T16:41:02.861Z</time></trkpt><trkpt lat="42.315055" lon="13.253265"><ele>1208.0</ele><time>2026-05-02T16:41:03.861Z</time></trkpt><trkpt lat="42.3149333" lon="13.2532083"><ele>1208.0</ele><time>2026-05-02T16:41:04.862Z</time></trkpt><trkpt lat="42.314825" lon="13.2531333"><ele>1208.0</ele><time>2026-05-02T16:41:05.862Z</time></trkpt><trkpt lat="42.31473" lon="13.2530467"><ele>1212.4</ele><time>2026-05-02T16:41:06.862Z</time></trkpt><trkpt lat="42.3146417" lon="13.252975"><ele>1216.8</ele><time>2026-05-02T16:41:07.861Z</time></trkpt><trkpt lat="42.3145467" lon="13.2529467"><ele>1221.2</ele><time>2026-05-02T16:41:08.862Z</time></trkpt><trkpt lat="42.3144383" lon="13.2529683"><ele>1225.6</ele><time>2026-05-02T16:41:09.862Z</time></trkpt><trkpt lat="42.3143183" lon="13.253025"><ele>1230.0</ele><time>2026-05-02T16:41:10.862Z</time></trkpt><trkpt lat="42.3141983" lon="13.2530967"><ele>1233.5</ele><time>2026-05-02T16:41:11.862Z</time></trkpt><trkpt lat="42.314085" lon="13.2531917"><ele>1237.0</ele><time>2026-05-02T16:41:12.861Z</time></trkpt><trkpt lat="42.3139817" lon="13.2533183"><ele>1240.5</ele><time>2026-05-02T16:41:13.861Z</time></trkpt><trkpt lat="42.31391" lon="13.2534783"><ele>1244.0</ele><time>2026-05-02T16:41:14.861Z</time></trkpt><trkpt lat="42.31384" lon="13.2536417"><ele>1244.0</ele><time>2026-05-02T16:41:15.862Z</time></trkpt><trkpt lat="42.3137433" lon="13.2537933"><ele>1244.0</ele><time>2026-05-02T16:41:16.861Z</time></trkpt><trkpt lat="42.313665" lon="13.2539583"><ele>1244.0</ele><time>2026-05-02T16:41:17.861Z</time></trkpt><trkpt lat="42.3136167" lon="13.254165"><ele>1238.3333333333335</ele><time>2026-05-02T16:41:18.862Z</time></trkpt><trkpt lat="42.31358" lon="13.2543767"><ele>1232.6666666666667</ele><time>2026-05-02T16:41:19.861Z</time></trkpt><trkpt lat="42.313545" lon="13.2545883"><ele>1227.0</ele><time>2026-05-02T16:41:20.861Z</time></trkpt><trkpt lat="42.3135117" lon="13.254785"><ele>1222.5</ele><time>2026-05-02T16:41:21.861Z</time></trkpt><trkpt lat="42.3134717" lon="13.2549683"><ele>1218.0</ele><time>2026-05-02T16:41:22.862Z</time></trkpt><trkpt lat="42.3134217" lon="13.2551233"><ele>1213.5</ele><time>2026-05-02T16:41:23.861Z</time></trkpt><trkpt lat="42.313355" lon="13.2552467"><ele>1209.0</ele><time>2026-05-02T16:41:24.861Z</time></trkpt><trkpt lat="42.313275" lon="13.2553167"><ele>1209.0</ele><time>2026-05-02T16:41:25.862Z</time></trkpt><trkpt lat="42.3131867" lon="13.2553383"><ele>1209.0</ele><time>2026-05-02T16:41:26.862Z</time></trkpt><trkpt lat="42.31308" lon="13.25531"><ele>1209.0</ele><time>2026-05-02T16:41:27.861Z</time></trkpt><trkpt lat="42.3129683" lon="13.2552533"><ele>1209.0</ele><time>2026-05-02T16:41:28.862Z</time></trkpt><trkpt lat="42.312845" lon="13.25519"><ele>1212.5</ele><time>2026-05-02T16:41:29.861Z</time></trkpt><trkpt lat="42.3127183" lon="13.2551383"><ele>1216.0</ele><time>2026-05-02T16:41:30.861Z</time></trkpt><trkpt lat="42.312595" lon="13.255125"><ele>1219.5</ele><time>2026-05-02T16:41:31.862Z</time></trkpt><trkpt lat="42.3124833" lon="13.25515"><ele>1223.0</ele><time>2026-05-02T16:41:32.861Z</time></trkpt><trkpt lat="42.31239" lon="13.2552133"><ele>1223.0</ele><time>2026-05-02T16:41:33.861Z</time></trkpt><trkpt lat="42.3123233" lon="13.2553267"><ele>1223.0</ele><time>2026-05-02T16:41:34.862Z</time></trkpt><trkpt lat="42.31229" lon="13.2554633"><ele>1223.0</ele><time>2026-05-02T16:41:35.861Z</time></trkpt><trkpt lat="42.3122733" lon="13.255625"><ele>1223.0</ele><time>2026-05-02T16:41:36.861Z</time></trkpt><trkpt lat="42.3122883" lon="13.255795"><ele>1222.0</ele><time>2026-05-02T16:41:37.862Z</time></trkpt><trkpt lat="42.3122967" lon="13.2559733"><ele>1221.0</ele><time>2026-05-02T16:41:38.862Z</time></trkpt><trkpt lat="42.3123017" lon="13.256135"><ele>1220.0</ele><time>2026-05-02T16:41:39.862Z</time></trkpt><trkpt lat="42.3122733" lon="13.25629"><ele>1219.0</ele><time>2026-05-02T16:41:40.861Z</time></trkpt><trkpt lat="42.3122283" lon="13.2564317"><ele>1213.8</ele><time>2026-05-02T16:41:41.862Z</time></trkpt><trkpt lat="42.31215" lon="13.256545"><ele>1208.6000000000001</ele><time>2026-05-02T16:41:42.861Z</time></trkpt><trkpt lat="42.3120617" lon="13.2566317"><ele>1203.4</ele><time>2026-05-02T16:41:43.861Z</time></trkpt><trkpt lat="42.3119567" lon="13.256685"><ele>1198.2</ele><time>2026-05-02T16:41:44.861Z</time></trkpt><trkpt lat="42.3118433" lon="13.256685"><ele>1193.0</ele><time>2026-05-02T16:41:45.862Z</time></trkpt><trkpt lat="42.3117217" lon="13.2566467"><ele>1193.0</ele><time>2026-05-02T16:41:46.861Z</time></trkpt><trkpt lat="42.3115967" lon="13.2565817"><ele>1193.0</ele><time>2026-05-02T16:41:47.862Z</time></trkpt><trkpt lat="42.31149" lon="13.2565333"><ele>1193.0</ele><time>2026-05-02T16:41:48.862Z</time></trkpt><trkpt lat="42.3113683" lon="13.2565217"><ele>1193.0</ele><time>2026-05-02T16:41:49.861Z</time></trkpt><trkpt lat="42.3112533" lon="13.2565483"><ele>1197.25</ele><time>2026-05-02T16:41:50.861Z</time></trkpt><trkpt lat="42.3111567" lon="13.2566367"><ele>1201.5</ele><time>2026-05-02T16:41:51.862Z</time></trkpt><trkpt lat="42.3110867" lon="13.2567567"><ele>1205.75</ele><time>2026-05-02T16:41:52.861Z</time></trkpt><trkpt lat="42.311015" lon="13.2569233"><ele>1210.0</ele><time>2026-05-02T16:41:53.862Z</time></trkpt><trkpt lat="42.3109483" lon="13.2571133"><ele>1202.0</ele><time>2026-05-02T16:41:54.861Z</time></trkpt><trkpt lat="42.3108783" lon="13.2573067"><ele>1194.0</ele><time>2026-05-02T16:41:55.861Z</time></trkpt><trkpt lat="42.3107967" lon="13.2575033"><ele>1186.0</ele><time>2026-05-02T16:41:56.861Z</time></trkpt><trkpt lat="42.310715" lon="13.2576717"><ele>1186.0</ele><time>2026-05-02T16:41:57.861Z</time></trkpt><trkpt lat="42.3106233" lon="13.2577967"><ele>1186.0</ele><time>2026-05-02T16:41:58.861Z</time></trkpt><trkpt lat="42.3105167" lon="13.2578917"><ele>1186.0</ele><time>2026-05-02T16:41:59.862Z</time></trkpt><trkpt lat="42.31039" lon="13.2579617"><ele>1186.0</ele><time>2026-05-02T16:42:00.862Z</time></trkpt><trkpt lat="42.3102567" lon="13.2579767"><ele>1183.25</ele><time>2026-05-02T16:42:01.861Z</time></trkpt><trkpt lat="42.31012" lon="13.257985"><ele>1180.5</ele><time>2026-05-02T16:42:02.862Z</time></trkpt><trkpt lat="42.3099983" lon="13.2580367"><ele>1177.75</ele><time>2026-05-02T16:42:03.862Z</time></trkpt><trkpt lat="42.3098817" lon="13.258135"><ele>1175.0</ele><time>2026-05-02T16:42:04.861Z</time></trkpt><trkpt lat="42.3097817" lon="13.2582467"><ele>1180.5</ele><time>2026-05-02T16:42:05.861Z</time></trkpt><trkpt lat="42.309705" lon="13.2584217"><ele>1186.0</ele><time>2026-05-02T16:42:06.861Z</time></trkpt><trkpt lat="42.3096217" lon="13.2585917"><ele>1191.5</ele><time>2026-05-02T16:42:07.861Z</time></trkpt><trkpt lat="42.309535" lon="13.2587467"><ele>1197.0</ele><time>2026-05-02T16:42:08.861Z</time></trkpt><trkpt lat="42.3094333" lon="13.2588817"><ele>1192.25</ele><time>2026-05-02T16:42:09.861Z</time></trkpt><trkpt lat="42.3093133" lon="13.25899"><ele>1187.5</ele><time>2026-05-02T16:42:10.861Z</time></trkpt><trkpt lat="42.3091783" lon="13.25905"><ele>1182.75</ele><time>2026-05-02T16:42:11.862Z</time></trkpt><trkpt lat="42.309025" lon="13.259095"><ele>1178.0</ele><time>2026-05-02T16:42:12.861Z</time></trkpt><trkpt lat="42.308875" lon="13.259145"><ele>1178.0</ele><time>2026-05-02T16:42:13.862Z</time></trkpt><trkpt lat="42.3087317" lon="13.2592233"><ele>1178.0</ele><time>2026-05-02T16:42:14.861Z</time></trkpt><trkpt lat="42.3085883" lon="13.2593233"><ele>1178.0</ele><time>2026-05-02T16:42:15.862Z</time></trkpt><trkpt lat="42.30845" lon="13.2594267"><ele>1178.0</ele><time>2026-05-02T16:42:16.861Z</time></trkpt><trkpt lat="42.3083133" lon="13.259535"><ele>1178.0</ele><time>2026-05-02T16:42:17.861Z</time></trkpt><trkpt lat="42.3081817" lon="13.25964"><ele>1178.0</ele><time>2026-05-02T16:42:18.862Z</time></trkpt><trkpt lat="42.3080517" lon="13.259735"><ele>1172.5</ele><time>2026-05-02T16:42:19.861Z</time></trkpt><trkpt lat="42.307925" lon="13.2598183"><ele>1167.0</ele><time>2026-05-02T16:42:20.862Z</time></trkpt><trkpt lat="42.307795" lon="13.259895"><ele>1161.5</ele><time>2026-05-02T16:42:21.862Z</time></trkpt><trkpt lat="42.3076683" lon="13.2599367"><ele>1156.0</ele><time>2026-05-02T16:42:22.862Z</time></trkpt><trkpt lat="42.3075433" lon="13.2599517"><ele>1156.0</ele><time>2026-05-02T16:42:23.861Z</time></trkpt><trkpt lat="42.3074183" lon="13.2599317"><ele>1156.0</ele><time>2026-05-02T16:42:24.862Z</time></trkpt><trkpt lat="42.307305" lon="13.259855"><ele>1156.0</ele><time>2026-05-02T16:42:25.862Z</time></trkpt><trkpt lat="42.3072017" lon="13.25974"><ele>1156.0</ele><time>2026-05-02T16:42:26.861Z</time></trkpt><trkpt lat="42.3071" lon="13.259595"><ele>1152.6666666666665</ele><time>2026-05-02T16:42:27.861Z</time></trkpt><trkpt lat="42.3070017" lon="13.25945"><ele>1149.3333333333333</ele><time>2026-05-02T16:42:28.862Z</time></trkpt><trkpt lat="42.3069117" lon="13.2592817"><ele>1146.0</ele><time>2026-05-02T16:42:29.861Z</time></trkpt><trkpt lat="42.3068383" lon="13.2590967"><ele>1149.0</ele><time>2026-05-02T16:42:30.862Z</time></trkpt><trkpt lat="42.3067767" lon="13.2589033"><ele>1152.0</ele><time>2026-05-02T16:42:31.861Z</time></trkpt><trkpt lat="42.3067233" lon="13.2587"><ele>1155.0</ele><time>2026-05-02T16:42:32.862Z</time></trkpt><trkpt lat="42.306665" lon="13.258505"><ele>1155.0</ele><time>2026-05-02T16:42:33.861Z</time></trkpt><trkpt lat="42.30659" lon="13.2583233"><ele>1155.0</ele><time>2026-05-02T16:42:34.861Z</time></trkpt><trkpt lat="42.3065067" lon="13.2581583"><ele>1155.0</ele><time>2026-05-02T16:42:35.862Z</time></trkpt><trkpt lat="42.3064" lon="13.25802"><ele>1155.0</ele><time>2026-05-02T16:42:36.861Z</time></trkpt><trkpt lat="42.3062683" lon="13.2579033"><ele>1157.6666666666667</ele><time>2026-05-02T16:42:37.862Z</time></trkpt><trkpt lat="42.306125" lon="13.2578217"><ele>1160.3333333333335</ele><time>2026-05-02T16:42:38.862Z</time></trkpt><trkpt lat="42.3059767" lon="13.2577783"><ele>1163.0</ele><time>2026-05-02T16:42:39.861Z</time></trkpt><trkpt lat="42.305825" lon="13.25778"><ele>1163.0</ele><time>2026-05-02T16:42:40.861Z</time></trkpt><trkpt lat="42.3056633" lon="13.2578233"><ele>1163.0</ele><time>2026-05-02T16:42:41.861Z</time></trkpt><trkpt lat="42.3055133" lon="13.2578717"><ele>1163.0</ele><time>2026-05-02T16:42:42.862Z</time></trkpt><trkpt lat="42.3053483" lon="13.2579117"><ele>1161.3333333333335</ele><time>2026-05-02T16:42:43.862Z</time></trkpt><trkpt lat="42.3051867" lon="13.25792"><ele>1159.6666666666667</ele><time>2026-05-02T16:42:44.861Z</time></trkpt><trkpt lat="42.30503" lon="13.257895"><ele>1158.0</ele><time>2026-05-02T16:42:45.861Z</time></trkpt><trkpt lat="42.3048683" lon="13.257865"><ele>1160.0</ele><time>2026-05-02T16:42:46.861Z</time></trkpt><trkpt lat="42.3046983" lon="13.2578517"><ele>1162.0</ele><time>2026-05-02T16:42:47.861Z</time></trkpt><trkpt lat="42.304535" lon="13.2578817"><ele>1164.0</ele><time>2026-05-02T16:42:48.861Z</time></trkpt><trkpt lat="42.3043717" lon="13.2579383"><ele>1164.0</ele><time>2026-05-02T16:42:49.861Z</time></trkpt><trkpt lat="42.3042067" lon="13.258005"><ele>1164.0</ele><time>2026-05-02T16:42:50.862Z</time></trkpt><trkpt lat="42.30405" lon="13.2580667"><ele>1164.0</ele><time>2026-05-02T16:42:51.862Z</time></trkpt><trkpt lat="42.3038983" lon="13.25813"><ele>1155.25</ele><time>2026-05-02T16:42:52.862Z</time></trkpt><trkpt lat="42.3037483" lon="13.2581983"><ele>1146.5</ele><time>2026-05-02T16:42:53.861Z</time></trkpt><trkpt lat="42.3036033" lon="13.2582467"><ele>1137.75</ele><time>2026-05-02T16:42:54.861Z</time></trkpt><trkpt lat="42.3034767" lon="13.2582967"><ele>1129.0</ele><time>2026-05-02T16:42:55.861Z</time></trkpt><trkpt lat="42.3033567" lon="13.2583317"><ele>1129.0</ele><time>2026-05-02T16:42:56.862Z</time></trkpt><trkpt lat="42.3032317" lon="13.258345"><ele>1129.0</ele><time>2026-05-02T16:42:57.861Z</time></trkpt><trkpt lat="42.3031133" lon="13.258315"><ele>1129.0</ele><time>2026-05-02T16:42:58.861Z</time></trkpt><trkpt lat="42.3030117" lon="13.25822"><ele>1129.0</ele><time>2026-05-02T16:42:59.861Z</time></trkpt><trkpt lat="42.3029183" lon="13.2580883"><ele>1130.3333333333333</ele><time>2026-05-02T16:43:00.862Z</time></trkpt><trkpt lat="42.3028183" lon="13.2579433"><ele>1131.6666666666667</ele><time>2026-05-02T16:43:01.861Z</time></trkpt><trkpt lat="42.3026967" lon="13.2577967"><ele>1133.0</ele><time>2026-05-02T16:43:02.862Z</time></trkpt><trkpt lat="42.302575" lon="13.25765"><ele>1133.0</ele><time>2026-05-02T16:43:03.861Z</time></trkpt><trkpt lat="42.302465" lon="13.2575133"><ele>1133.0</ele><time>2026-05-02T16:43:04.862Z</time></trkpt><trkpt lat="42.30235" lon="13.2573767"><ele>1133.0</ele><time>2026-05-02T16:43:05.861Z</time></trkpt><trkpt lat="42.3022183" lon="13.2572517"><ele>1132.0</ele><time>2026-05-02T16:43:06.862Z</time></trkpt><trkpt lat="42.3020733" lon="13.2571417"><ele>1131.0</ele><time>2026-05-02T16:43:07.861Z</time></trkpt><trkpt lat="42.3019367" lon="13.2570417"><ele>1130.0</ele><time>2026-05-02T16:43:08.861Z</time></trkpt><trkpt lat="42.30181" lon="13.256955"><ele>1130.0</ele><time>2026-05-02T16:43:09.861Z</time></trkpt><trkpt lat="42.3016933" lon="13.256875"><ele>1130.0</ele><time>2026-05-02T16:43:10.861Z</time></trkpt><trkpt lat="42.3015933" lon="13.2568167"><ele>1130.0</ele><time>2026-05-02T16:43:11.862Z</time></trkpt><trkpt lat="42.3014983" lon="13.2567967"><ele>1130.0</ele><time>2026-05-02T16:43:12.862Z</time></trkpt><trkpt lat="42.3014083" lon="13.2568167"><ele>1130.0</ele><time>2026-05-02T16:43:13.861Z</time></trkpt><trkpt lat="42.30133" lon="13.2568833"><ele>1135.25</ele><time>2026-05-02T16:43:14.861Z</time></trkpt><trkpt lat="42.3012617" lon="13.256985"><ele>1140.5</ele><time>2026-05-02T16:43:15.861Z</time></trkpt><trkpt lat="42.3011983" lon="13.257135"><ele>1145.75</ele><time>2026-05-02T16:43:16.862Z</time></trkpt><trkpt lat="42.30115" lon="13.2573083"><ele>1151.0</ele><time>2026-05-02T16:43:17.862Z</time></trkpt><trkpt lat="42.3011167" lon="13.2574917"><ele>1151.0</ele><time>2026-05-02T16:43:18.861Z</time></trkpt><trkpt lat="42.30107" lon="13.25769"><ele>1151.0</ele><time>2026-05-02T16:43:19.861Z</time></trkpt><trkpt lat="42.3010417" lon="13.2579"><ele>1151.0</ele><time>2026-05-02T16:43:20.862Z</time></trkpt><trkpt lat="42.3010183" lon="13.2581117"><ele>1147.0</ele><time>2026-05-02T16:43:21.861Z</time></trkpt><trkpt lat="42.3009983" lon="13.2583267"><ele>1143.0</ele><time>2026-05-02T16:43:22.861Z</time></trkpt><trkpt lat="42.300975" lon="13.25854"><ele>1139.0</ele><time>2026-05-02T16:43:23.861Z</time></trkpt><trkpt lat="42.3009533" lon="13.2587483"><ele>1137.6666666666667</ele><time>2026-05-02T16:43:24.862Z</time></trkpt><trkpt lat="42.300935" lon="13.2589533"><ele>1136.3333333333333</ele><time>2026-05-02T16:43:25.861Z</time></trkpt><trkpt lat="42.300935" lon="13.259175"><ele>1135.0</ele><time>2026-05-02T16:43:26.861Z</time></trkpt><trkpt lat="42.3009417" lon="13.2593983"><ele>1135.0</ele><time>2026-05-02T16:43:27.862Z</time></trkpt><trkpt lat="42.3009517" lon="13.259615"><ele>1135.0</ele><time>2026-05-02T16:43:28.861Z</time></trkpt><trkpt lat="42.3009667" lon="13.25983"><ele>1135.0</ele><time>2026-05-02T16:43:29.862Z</time></trkpt><trkpt lat="42.3010067" lon="13.2600533"><ele>1134.25</ele><time>2026-05-02T16:43:30.861Z</time></trkpt><trkpt lat="42.3010533" lon="13.260275"><ele>1133.5</ele><time>2026-05-02T16:43:31.861Z</time></trkpt><trkpt lat="42.3011033" lon="13.260465"><ele>1132.75</ele><time>2026-05-02T16:43:32.861Z</time></trkpt><trkpt lat="42.30113" lon="13.2606367"><ele>1132.0</ele><time>2026-05-02T16:43:33.862Z</time></trkpt><trkpt lat="42.3011567" lon="13.26078"><ele>1129.4</ele><time>2026-05-02T16:43:34.861Z</time></trkpt><trkpt lat="42.3011617" lon="13.2609033"><ele>1126.8000000000002</ele><time>2026-05-02T16:43:35.861Z</time></trkpt><trkpt lat="42.3011317" lon="13.261015"><ele>1124.2</ele><time>2026-05-02T16:43:36.861Z</time></trkpt><trkpt lat="42.3010783" lon="13.2611283"><ele>1121.6000000000001</ele><time>2026-05-02T16:43:37.862Z</time></trkpt><trkpt lat="42.3009967" lon="13.2612217"><ele>1119.0</ele><time>2026-05-02T16:43:38.861Z</time></trkpt><trkpt lat="42.30087" lon="13.261315"><ele>1119.0</ele><time>2026-05-02T16:43:39.862Z</time></trkpt><trkpt lat="42.3007417" lon="13.261395"><ele>1119.0</ele><time>2026-05-02T16:43:40.861Z</time></trkpt><trkpt lat="42.3006067" lon="13.2614583"><ele>1119.0</ele><time>2026-05-02T16:43:41.861Z</time></trkpt><trkpt lat="42.3004833" lon="13.2615"><ele>1119.0</ele><time>2026-05-02T16:43:42.861Z</time></trkpt><trkpt lat="42.300385" lon="13.2615767"><ele>1117.25</ele><time>2026-05-02T16:43:43.861Z</time></trkpt><trkpt lat="42.3002933" lon="13.2616933"><ele>1115.5</ele><time>2026-05-02T16:43:44.861Z</time></trkpt><trkpt lat="42.30023" lon="13.261855"><ele>1113.75</ele><time>2026-05-02T16:43:45.862Z</time></trkpt><trkpt lat="42.30018" lon="13.2619983"><ele>1112.0</ele><time>2026-05-02T16:43:46.862Z</time></trkpt><trkpt lat="42.300135" lon="13.2621217"><ele>1112.0</ele><time>2026-05-02T16:43:47.862Z</time></trkpt><trkpt lat="42.300065" lon="13.26223"><ele>1112.0</ele><time>2026-05-02T16:43:48.862Z</time></trkpt><trkpt lat="42.2999667" lon="13.2623267"><ele>1112.0</ele><time>2026-05-02T16:43:49.861Z</time></trkpt><trkpt lat="42.2998467" lon="13.262385"><ele>1112.0</ele><time>2026-05-02T16:43:50.861Z</time></trkpt><trkpt lat="42.2997417" lon="13.2624667"><ele>1106.0</ele><time>2026-05-02T16:43:51.861Z</time></trkpt><trkpt lat="42.2996517" lon="13.26255"><ele>1100.0</ele><time>2026-05-02T16:43:52.861Z</time></trkpt><trkpt lat="42.2995717" lon="13.2626317"><ele>1094.0</ele><time>2026-05-02T16:43:53.861Z</time></trkpt><trkpt lat="42.2994917" lon="13.2626817"><ele>1088.0</ele><time>2026-05-02T16:43:54.862Z</time></trkpt><trkpt lat="42.2994067" lon="13.26268"><ele>1082.0</ele><time>2026-05-02T16:43:55.862Z</time></trkpt><trkpt lat="42.2993117" lon="13.2626467"><ele>1082.0</ele><time>2026-05-02T16:43:56.861Z</time></trkpt><trkpt lat="42.2992333" lon="13.2625517"><ele>1082.0</ele><time>2026-05-02T16:43:57.861Z</time></trkpt><trkpt lat="42.299175" lon="13.2624117"><ele>1082.0</ele><time>2026-05-02T16:43:58.861Z</time></trkpt><trkpt lat="42.2991317" lon="13.2622483"><ele>1082.0</ele><time>2026-05-02T16:43:59.862Z</time></trkpt><trkpt lat="42.2990917" lon="13.2620733"><ele>1085.0</ele><time>2026-05-02T16:44:00.861Z</time></trkpt><trkpt lat="42.29905" lon="13.2619133"><ele>1088.0</ele><time>2026-05-02T16:44:01.861Z</time></trkpt><trkpt lat="42.299015" lon="13.26177"><ele>1091.0</ele><time>2026-05-02T16:44:02.861Z</time></trkpt><trkpt lat="42.2989717" lon="13.261645"><ele>1094.0</ele><time>2026-05-02T16:44:03.861Z</time></trkpt><trkpt lat="42.2989267" lon="13.2615483"><ele>1097.0</ele><time>2026-05-02T16:44:04.862Z</time></trkpt><trkpt lat="42.2988717" lon="13.261495"><ele>1097.0</ele><time>2026-05-02T16:44:05.862Z</time></trkpt><trkpt lat="42.2988083" lon="13.2614733"><ele>1097.0</ele><time>2026-05-02T16:44:06.861Z</time></trkpt><trkpt lat="42.2987367" lon="13.2614917"><ele>1097.0</ele><time>2026-05-02T16:44:07.861Z</time></trkpt><trkpt lat="42.2986483" lon="13.2615833"><ele>1097.0</ele><time>2026-05-02T16:44:08.861Z</time></trkpt><trkpt lat="42.2985633" lon="13.26169"><ele>1097.0</ele><time>2026-05-02T16:44:09.861Z</time></trkpt><trkpt lat="42.2984617" lon="13.2617983"><ele>1097.0</ele><time>2026-05-02T16:44:10.861Z</time></trkpt><trkpt lat="42.2983567" lon="13.261895"><ele>1097.0</ele><time>2026-05-02T16:44:11.861Z</time></trkpt><trkpt lat="42.2982367" lon="13.2619533"><ele>1097.0</ele><time>2026-05-02T16:44:12.861Z</time></trkpt><trkpt lat="42.298115" lon="13.2619967"><ele>1097.0</ele><time>2026-05-02T16:44:13.862Z</time></trkpt><trkpt lat="42.298015" lon="13.262055"><ele>1096.6</ele><time>2026-05-02T16:44:14.861Z</time></trkpt><trkpt lat="42.2979317" lon="13.26214"><ele>1096.2</ele><time>2026-05-02T16:44:15.862Z</time></trkpt><trkpt lat="42.2978733" lon="13.2622483"><ele>1095.8</ele><time>2026-05-02T16:44:16.861Z</time></trkpt><trkpt lat="42.297865" lon="13.2623733"><ele>1095.4</ele><time>2026-05-02T16:44:17.861Z</time></trkpt><trkpt lat="42.2978517" lon="13.262535"><ele>1095.0</ele><time>2026-05-02T16:44:18.862Z</time></trkpt><trkpt lat="42.2978417" lon="13.26271"><ele>1095.0</ele><time>2026-05-02T16:44:19.861Z</time></trkpt><trkpt lat="42.297815" lon="13.2628567"><ele>1095.0</ele><time>2026-05-02T16:44:20.861Z</time></trkpt><trkpt lat="42.2977767" lon="13.2629967"><ele>1095.0</ele><time>2026-05-02T16:44:21.862Z</time></trkpt><trkpt lat="42.2977217" lon="13.26311"><ele>1095.0</ele><time>2026-05-02T16:44:22.862Z</time></trkpt><trkpt lat="42.29764" lon="13.2631833"><ele>1095.0</ele><time>2026-05-02T16:44:23.862Z</time></trkpt><trkpt lat="42.29754" lon="13.26322"><ele>1093.0</ele><time>2026-05-02T16:44:24.862Z</time></trkpt><trkpt lat="42.2974267" lon="13.2632267"><ele>1091.0</ele><time>2026-05-02T16:44:25.862Z</time></trkpt><trkpt lat="42.2973133" lon="13.2631983"><ele>1089.0</ele><time>2026-05-02T16:44:26.861Z</time></trkpt><trkpt lat="42.2972" lon="13.263165"><ele>1087.0</ele><time>2026-05-02T16:44:27.861Z</time></trkpt><trkpt lat="42.297085" lon="13.2631583"><ele>1087.0</ele><time>2026-05-02T16:44:28.861Z</time></trkpt><trkpt lat="42.2969783" lon="13.2631967"><ele>1087.0</ele><time>2026-05-02T16:44:29.862Z</time></trkpt><trkpt lat="42.296885" lon="13.2632867"><ele>1087.0</ele><time>2026-05-02T16:44:30.861Z</time></trkpt><trkpt lat="42.296805" lon="13.2634033"><ele>1087.0</ele><time>2026-05-02T16:44:31.862Z</time></trkpt><trkpt lat="42.296765" lon="13.2635317"><ele>1087.0</ele><time>2026-05-02T16:44:32.862Z</time></trkpt><trkpt lat="42.296745" lon="13.2636983"><ele>1087.0</ele><time>2026-05-02T16:44:33.861Z</time></trkpt><trkpt lat="42.2967583" lon="13.2638517"><ele>1087.0</ele><time>2026-05-02T16:44:34.862Z</time></trkpt><trkpt lat="42.296765" lon="13.2640033"><ele>1087.0</ele><time>2026-05-02T16:44:35.861Z</time></trkpt><trkpt lat="42.2967483" lon="13.2641567"><ele>1087.0</ele><time>2026-05-02T16:44:36.862Z</time></trkpt><trkpt lat="42.2966917" lon="13.2642917"><ele>1083.0</ele><time>2026-05-02T16:44:37.861Z</time></trkpt><trkpt lat="42.2966067" lon="13.2643983"><ele>1079.0</ele><time>2026-05-02T16:44:38.861Z</time></trkpt><trkpt lat="42.29652" lon="13.264515"><ele>1075.0</ele><time>2026-05-02T16:44:39.862Z</time></trkpt><trkpt lat="42.2964667" lon="13.264655"><ele>1071.0</ele><time>2026-05-02T16:44:40.861Z</time></trkpt><trkpt lat="42.2964533" lon="13.2648133"><ele>1068.0</ele><time>2026-05-02T16:44:41.861Z</time></trkpt><trkpt lat="42.2964617" lon="13.2649633"><ele>1065.0</ele><time>2026-05-02T16:44:42.862Z</time></trkpt><trkpt lat="42.2964633" lon="13.2651033"><ele>1062.0</ele><time>2026-05-02T16:44:43.861Z</time></trkpt><trkpt lat="42.296455" lon="13.2652133"><ele>1059.0</ele><time>2026-05-02T16:44:44.861Z</time></trkpt><trkpt lat="42.2964483" lon="13.2652983"><ele>1056.0</ele><time>2026-05-02T16:44:45.862Z</time></trkpt><trkpt lat="42.2964767" lon="13.2654833"><ele>1056.0</ele><time>2026-05-02T16:45:56.862Z</time></trkpt><trkpt lat="42.2964533" lon="13.26557"><ele>1056.0</ele><time>2026-05-02T16:45:58.862Z</time></trkpt><trkpt lat="42.2964067" lon="13.2656867"><ele>1056.0</ele><time>2026-05-02T16:46:00.862Z</time></trkpt><trkpt lat="42.2963717" lon="13.265805"><ele>1056.0</ele><time>2026-05-02T16:46:02.863Z</time></trkpt><trkpt lat="42.2963333" lon="13.2659317"><ele>1056.0</ele><time>2026-05-02T16:46:04.862Z</time></trkpt><trkpt lat="42.2963083" lon="13.266055"><ele>1054.0</ele><time>2026-05-02T16:46:06.862Z</time></trkpt><trkpt lat="42.2963467" lon="13.2661383"><ele>1052.0</ele><time>2026-05-02T16:46:08.863Z</time></trkpt><trkpt lat="42.2964683" lon="13.266115"><ele>1050.0</ele><time>2026-05-02T16:46:10.863Z</time></trkpt><trkpt lat="42.296545" lon="13.2660733"><ele>1048.0</ele><time>2026-05-02T16:46:11.862Z</time></trkpt><trkpt lat="42.296635" lon="13.26602"><ele>1046.0</ele><time>2026-05-02T16:46:12.862Z</time></trkpt><trkpt lat="42.2967267" lon="13.2659767"><ele>1046.0</ele><time>2026-05-02T16:46:13.863Z</time></trkpt><trkpt lat="42.29681" lon="13.2659533"><ele>1046.0</ele><time>2026-05-02T16:46:14.862Z</time></trkpt><trkpt lat="42.29689" lon="13.26594"><ele>1046.0</ele><time>2026-05-02T16:46:15.862Z</time></trkpt><trkpt lat="42.29697" lon="13.2659383"><ele>1046.0</ele><time>2026-05-02T16:46:16.863Z</time></trkpt><trkpt lat="42.29705" lon="13.2659683"><ele>1046.0</ele><time>2026-05-02T16:46:17.863Z</time></trkpt><trkpt lat="42.29712" lon="13.26602"><ele>1046.0</ele><time>2026-05-02T16:46:18.863Z</time></trkpt><trkpt lat="42.297175" lon="13.2660867"><ele>1046.0</ele><time>2026-05-02T16:46:19.862Z</time></trkpt><trkpt lat="42.2972083" lon="13.2661617"><ele>1046.0</ele><time>2026-05-02T16:46:20.862Z</time></trkpt><trkpt lat="42.2972017" lon="13.2663117"><ele>1046.0</ele><time>2026-05-02T16:46:22.863Z</time></trkpt><trkpt lat="42.2971417" lon="13.2663683"><ele>1046.0</ele><time>2026-05-02T16:46:23.862Z</time></trkpt><trkpt lat="42.29706" lon="13.2664017"><ele>1046.0</ele><time>2026-05-02T16:46:24.863Z</time></trkpt><trkpt lat="42.296975" lon="13.2664267"><ele>1046.0</ele><time>2026-05-02T16:46:25.862Z</time></trkpt><trkpt lat="42.2968867" lon="13.2664833"><ele>1042.25</ele><time>2026-05-02T16:46:26.862Z</time></trkpt><trkpt lat="42.2968133" lon="13.2665817"><ele>1038.5</ele><time>2026-05-02T16:46:27.862Z</time></trkpt><trkpt lat="42.2967583" lon="13.2667033"><ele>1034.75</ele><time>2026-05-02T16:46:28.862Z</time></trkpt><trkpt lat="42.2967" lon="13.266845"><ele>1031.0</ele><time>2026-05-02T16:46:29.863Z</time></trkpt><trkpt lat="42.2966383" lon="13.26699"><ele>1031.0</ele><time>2026-05-02T16:46:30.863Z</time></trkpt><trkpt lat="42.2965717" lon="13.267135"><ele>1031.0</ele><time>2026-05-02T16:46:31.863Z</time></trkpt><trkpt lat="42.2965083" lon="13.26728"><ele>1031.0</ele><time>2026-05-02T16:46:32.862Z</time></trkpt><trkpt lat="42.2964483" lon="13.2674367"><ele>1031.0</ele><time>2026-05-02T16:46:33.862Z</time></trkpt><trkpt lat="42.2964" lon="13.2676067"><ele>1033.75</ele><time>2026-05-02T16:46:34.862Z</time></trkpt><trkpt lat="42.2963683" lon="13.2677917"><ele>1036.5</ele><time>2026-05-02T16:46:35.862Z</time></trkpt><trkpt lat="42.29635" lon="13.267985"><ele>1039.25</ele><time>2026-05-02T16:46:36.862Z</time></trkpt><trkpt lat="42.29634" lon="13.2681767"><ele>1042.0</ele><time>2026-05-02T16:46:37.863Z</time></trkpt><trkpt lat="42.2963217" lon="13.2683667"><ele>1036.25</ele><time>2026-05-02T16:46:38.863Z</time></trkpt><trkpt lat="42.296285" lon="13.2685617"><ele>1030.5</ele><time>2026-05-02T16:46:39.862Z</time></trkpt><trkpt lat="42.2962317" lon="13.2687517"><ele>1024.75</ele><time>2026-05-02T16:46:40.862Z</time></trkpt><trkpt lat="42.2961617" lon="13.268925"><ele>1019.0</ele><time>2026-05-02T16:46:41.862Z</time></trkpt><trkpt lat="42.2961033" lon="13.269065"><ele>1016.1666666666667</ele><time>2026-05-02T16:46:42.863Z</time></trkpt><trkpt lat="42.2960467" lon="13.2691917"><ele>1013.3333333333334</ele><time>2026-05-02T16:46:43.862Z</time></trkpt><trkpt lat="42.295995" lon="13.2692917"><ele>1010.5</ele><time>2026-05-02T16:46:44.862Z</time></trkpt><trkpt lat="42.29595" lon="13.2693767"><ele>1007.6666666666667</ele><time>2026-05-02T16:46:45.862Z</time></trkpt><trkpt lat="42.2959367" lon="13.26946"><ele>1004.8333333333334</ele><time>2026-05-02T16:46:46.862Z</time></trkpt><trkpt lat="42.2959967" lon="13.2695667"><ele>1002.0</ele><time>2026-05-02T16:46:48.863Z</time></trkpt><trkpt lat="42.296135" lon="13.26952"><ele>1002.0</ele><time>2026-05-02T16:46:50.862Z</time></trkpt><trkpt lat="42.2962167" lon="13.269445"><ele>1002.0</ele><time>2026-05-02T16:46:51.862Z</time></trkpt><trkpt lat="42.2963117" lon="13.2693683"><ele>1002.0</ele><time>2026-05-02T16:46:52.863Z</time></trkpt><trkpt lat="42.2964117" lon="13.269305"><ele>1002.0</ele><time>2026-05-02T16:46:53.862Z</time></trkpt><trkpt lat="42.2965117" lon="13.2692433"><ele>1002.0</ele><time>2026-05-02T16:46:54.862Z</time></trkpt><trkpt lat="42.296605" lon="13.2691933"><ele>998.3333333333334</ele><time>2026-05-02T16:46:55.862Z</time></trkpt><trkpt lat="42.2966917" lon="13.269165"><ele>994.6666666666667</ele><time>2026-05-02T16:46:56.862Z</time></trkpt><trkpt lat="42.2967617" lon="13.269165"><ele>991.0</ele><time>2026-05-02T16:46:57.862Z</time></trkpt><trkpt lat="42.2968283" lon="13.2691867"><ele>987.3333333333334</ele><time>2026-05-02T16:46:58.862Z</time></trkpt><trkpt lat="42.29687" lon="13.269275"><ele>983.6666666666667</ele><time>2026-05-02T16:46:59.862Z</time></trkpt><trkpt lat="42.296915" lon="13.2693933"><ele>980.0</ele><time>2026-05-02T16:47:00.862Z</time></trkpt><trkpt lat="42.2969483" lon="13.2695467"><ele>980.0</ele><time>2026-05-02T16:47:01.862Z</time></trkpt><trkpt lat="42.2969717" lon="13.269705"><ele>980.0</ele><time>2026-05-02T16:47:02.862Z</time></trkpt><trkpt lat="42.2969933" lon="13.2698767"><ele>980.0</ele><time>2026-05-02T16:47:03.862Z</time></trkpt><trkpt lat="42.2970083" lon="13.27006"><ele>980.0</ele><time>2026-05-02T16:47:04.862Z</time></trkpt><trkpt lat="42.2970267" lon="13.2702467"><ele>978.3333333333334</ele><time>2026-05-02T16:47:05.863Z</time></trkpt><trkpt lat="42.29705" lon="13.2704467"><ele>976.6666666666667</ele><time>2026-05-02T16:47:06.862Z</time></trkpt><trkpt lat="42.2970883" lon="13.2706467"><ele>975.0</ele><time>2026-05-02T16:47:07.863Z</time></trkpt><trkpt lat="42.2971417" lon="13.2708417"><ele>972.25</ele><time>2026-05-02T16:47:08.862Z</time></trkpt><trkpt lat="42.2972" lon="13.27102"><ele>969.5</ele><time>2026-05-02T16:47:09.863Z</time></trkpt><trkpt lat="42.2972717" lon="13.2711917"><ele>966.75</ele><time>2026-05-02T16:47:10.863Z</time></trkpt><trkpt lat="42.2973417" lon="13.27136"><ele>964.0</ele><time>2026-05-02T16:47:11.862Z</time></trkpt><trkpt lat="42.2974367" lon="13.2715167"><ele>960.0</ele><time>2026-05-02T16:47:12.862Z</time></trkpt><trkpt lat="42.2975633" lon="13.27165"><ele>956.0</ele><time>2026-05-02T16:47:13.863Z</time></trkpt><trkpt lat="42.2976767" lon="13.2717717"><ele>952.0</ele><time>2026-05-02T16:47:14.862Z</time></trkpt><trkpt lat="42.2977633" lon="13.271865"><ele>948.0</ele><time>2026-05-02T16:47:15.862Z</time></trkpt><trkpt lat="42.297835" lon="13.2719083"><ele>948.0</ele><time>2026-05-02T16:47:16.863Z</time></trkpt><trkpt lat="42.2979583" lon="13.271885"><ele>948.0</ele><time>2026-05-02T16:47:18.862Z</time></trkpt><trkpt lat="42.2980167" lon="13.271785"><ele>948.0</ele><time>2026-05-02T16:47:19.862Z</time></trkpt><trkpt lat="42.2980683" lon="13.2716667"><ele>948.0</ele><time>2026-05-02T16:47:20.862Z</time></trkpt><trkpt lat="42.298115" lon="13.27154"><ele>948.0</ele><time>2026-05-02T16:47:21.863Z</time></trkpt><trkpt lat="42.29815" lon="13.271435"><ele>944.4</ele><time>2026-05-02T16:47:22.863Z</time></trkpt><trkpt lat="42.2981917" lon="13.2713467"><ele>940.8</ele><time>2026-05-02T16:47:23.863Z</time></trkpt><trkpt lat="42.2982367" lon="13.2712833"><ele>937.2</ele><time>2026-05-02T16:47:24.863Z</time></trkpt><trkpt lat="42.2983717" lon="13.2712983"><ele>933.6</ele><time>2026-05-02T16:47:26.862Z</time></trkpt><trkpt lat="42.2984433" lon="13.27139"><ele>930.0</ele><time>2026-05-02T16:47:27.863Z</time></trkpt><trkpt lat="42.298525" lon="13.2715117"><ele>930.0</ele><time>2026-05-02T16:47:28.862Z</time></trkpt><trkpt lat="42.2986067" lon="13.27165"><ele>930.0</ele><time>2026-05-02T16:47:29.862Z</time></trkpt><trkpt lat="42.29868" lon="13.2718"><ele>930.0</ele><time>2026-05-02T16:47:30.862Z</time></trkpt><trkpt lat="42.29874" lon="13.27195"><ele>930.0</ele><time>2026-05-02T16:47:31.863Z</time></trkpt><trkpt lat="42.2987983" lon="13.2720683"><ele>930.0</ele><time>2026-05-02T16:47:32.862Z</time></trkpt><trkpt lat="42.29886" lon="13.27217"><ele>930.0</ele><time>2026-05-02T16:47:33.863Z</time></trkpt><trkpt lat="42.29894" lon="13.2722433"><ele>930.0</ele><time>2026-05-02T16:47:34.862Z</time></trkpt><trkpt lat="42.2990417" lon="13.27229"><ele>930.0</ele><time>2026-05-02T16:47:35.862Z</time></trkpt><trkpt lat="42.299165" lon="13.2723083"><ele>930.0</ele><time>2026-05-02T16:47:36.862Z</time></trkpt><trkpt lat="42.2992967" lon="13.2723117"><ele>925.75</ele><time>2026-05-02T16:47:37.862Z</time></trkpt><trkpt lat="42.2994333" lon="13.2723367"><ele>921.5</ele><time>2026-05-02T16:47:38.862Z</time></trkpt><trkpt lat="42.2995733" lon="13.2723767"><ele>917.25</ele><time>2026-05-02T16:47:39.862Z</time></trkpt><trkpt lat="42.29972" lon="13.2724333"><ele>913.0</ele><time>2026-05-02T16:47:40.862Z</time></trkpt><trkpt lat="42.2998667" lon="13.2725033"><ele>910.0</ele><time>2026-05-02T16:47:41.863Z</time></trkpt><trkpt lat="42.3000033" lon="13.2725617"><ele>907.0</ele><time>2026-05-02T16:47:42.863Z</time></trkpt><trkpt lat="42.3001083" lon="13.2726133"><ele>904.0</ele><time>2026-05-02T16:47:43.863Z</time></trkpt><trkpt lat="42.3001967" lon="13.2726633"><ele>901.0</ele><time>2026-05-02T16:47:44.863Z</time></trkpt><trkpt lat="42.3002533" lon="13.272715"><ele>898.0</ele><time>2026-05-02T16:47:45.862Z</time></trkpt><trkpt lat="42.300325" lon="13.2728383"><ele>897.9999999999999</ele><time>2026-05-02T16:47:47.862Z</time></trkpt><trkpt lat="42.3003217" lon="13.272925"><ele>898.0</ele><time>2026-05-02T16:47:48.862Z</time></trkpt><trkpt lat="42.3002917" lon="13.273025"><ele>898.0</ele><time>2026-05-02T16:47:49.863Z</time></trkpt><trkpt lat="42.3002717" lon="13.2731383"><ele>898.0</ele><time>2026-05-02T16:47:50.862Z</time></trkpt><trkpt lat="42.30028" lon="13.2732617"><ele>897.9999999999999</ele><time>2026-05-02T16:47:51.863Z</time></trkpt><trkpt lat="42.300325" lon="13.2733867"><ele>898.0</ele><time>2026-05-02T16:47:52.862Z</time></trkpt><trkpt lat="42.300395" lon="13.273535"><ele>896.5</ele><time>2026-05-02T16:47:53.862Z</time></trkpt><trkpt lat="42.3004617" lon="13.2736917"><ele>895.0</ele><time>2026-05-02T16:47:54.863Z</time></trkpt><trkpt lat="42.300525" lon="13.2738517"><ele>893.5</ele><time>2026-05-02T16:47:55.862Z</time></trkpt><trkpt lat="42.3005783" lon="13.274005"><ele>892.0</ele><time>2026-05-02T16:47:56.862Z</time></trkpt><trkpt lat="42.30064" lon="13.274165"><ele>889.75</ele><time>2026-05-02T16:47:57.863Z</time></trkpt><trkpt lat="42.300705" lon="13.2743217"><ele>887.5</ele><time>2026-05-02T16:47:58.862Z</time></trkpt><trkpt lat="42.3007733" lon="13.2744767"><ele>885.25</ele><time>2026-05-02T16:47:59.863Z</time></trkpt><trkpt lat="42.3008283" lon="13.274605"><ele>883.0</ele><time>2026-05-02T16:48:00.862Z</time></trkpt><trkpt lat="42.3008867" lon="13.27473"><ele>879.25</ele><time>2026-05-02T16:48:01.862Z</time></trkpt><trkpt lat="42.3009433" lon="13.2748617"><ele>875.5</ele><time>2026-05-02T16:48:02.862Z</time></trkpt><trkpt lat="42.30101" lon="13.274985"><ele>871.75</ele><time>2026-05-02T16:48:03.862Z</time></trkpt><trkpt lat="42.3010867" lon="13.2751067"><ele>868.0</ele><time>2026-05-02T16:48:04.862Z</time></trkpt><trkpt lat="42.301155" lon="13.2752283"><ele>867.9999999999999</ele><time>2026-05-02T16:48:05.862Z</time></trkpt><trkpt lat="42.3012083" lon="13.27533"><ele>868.0</ele><time>2026-05-02T16:48:06.863Z</time></trkpt><trkpt lat="42.301245" lon="13.27542"><ele>868.0</ele><time>2026-05-02T16:48:07.862Z</time></trkpt><trkpt lat="42.3012767" lon="13.2754967"><ele>868.0</ele><time>2026-05-02T16:48:08.862Z</time></trkpt><trkpt lat="42.3013" lon="13.2755833"><ele>867.9999999999999</ele><time>2026-05-02T16:48:09.862Z</time></trkpt><trkpt lat="42.301345" lon="13.2756583"><ele>868.0</ele><time>2026-05-02T16:48:10.863Z</time></trkpt><trkpt lat="42.3014167" lon="13.2757783"><ele>866.4285714285714</ele><time>2026-05-02T16:48:12.862Z</time></trkpt><trkpt lat="42.30148" lon="13.2758367"><ele>864.8571428571429</ele><time>2026-05-02T16:48:14.862Z</time></trkpt><trkpt lat="42.30154" lon="13.27579"><ele>863.2857142857142</ele><time>2026-05-02T16:48:16.862Z</time></trkpt><trkpt lat="42.30158" lon="13.2757183"><ele>861.7142857142858</ele><time>2026-05-02T16:48:17.862Z</time></trkpt><trkpt lat="42.30163" lon="13.2756383"><ele>860.1428571428571</ele><time>2026-05-02T16:48:18.862Z</time></trkpt><trkpt lat="42.301675" lon="13.27555"><ele>858.5714285714286</ele><time>2026-05-02T16:48:19.862Z</time></trkpt><trkpt lat="42.3017133" lon="13.275455"><ele>857.0</ele><time>2026-05-02T16:48:20.862Z</time></trkpt><trkpt lat="42.30175" lon="13.275375"><ele>857.0000000000001</ele><time>2026-05-02T16:48:21.862Z</time></trkpt><trkpt lat="42.3018033" lon="13.2752617"><ele>857.0</ele><time>2026-05-02T16:48:23.863Z</time></trkpt><trkpt lat="42.3018833" lon="13.2752567"><ele>857.0</ele><time>2026-05-02T16:48:26.862Z</time></trkpt><trkpt lat="42.3019233" lon="13.27537"><ele>857.0</ele><time>2026-05-02T16:48:28.863Z</time></trkpt><trkpt lat="42.3019467" lon="13.2754617"><ele>857.0000000000001</ele><time>2026-05-02T16:48:29.862Z</time></trkpt><trkpt lat="42.3019767" lon="13.275575"><ele>857.0</ele><time>2026-05-02T16:48:30.863Z</time></trkpt><trkpt lat="42.3020033" lon="13.275685"><ele>855.8</ele><time>2026-05-02T16:48:31.862Z</time></trkpt><trkpt lat="42.3020367" lon="13.275805"><ele>854.6</ele><time>2026-05-02T16:48:32.863Z</time></trkpt><trkpt lat="42.30207" lon="13.2759217"><ele>853.4</ele><time>2026-05-02T16:48:33.863Z</time></trkpt><trkpt lat="42.302105" lon="13.2760267"><ele>852.1999999999999</ele><time>2026-05-02T16:48:34.863Z</time></trkpt><trkpt lat="42.3021383" lon="13.2761083"><ele>851.0</ele><time>2026-05-02T16:48:35.863Z</time></trkpt><trkpt lat="42.3021917" lon="13.276255"><ele>851.0</ele><time>2026-05-02T16:48:37.863Z</time></trkpt><trkpt lat="42.3022333" lon="13.276365"><ele>851.0</ele><time>2026-05-02T16:48:39.863Z</time></trkpt><trkpt lat="42.3022467" lon="13.2765033"><ele>851.0</ele><time>2026-05-02T16:48:41.863Z</time></trkpt><trkpt lat="42.3022317" lon="13.2766317"><ele>851.0</ele><time>2026-05-02T16:48:43.863Z</time></trkpt><trkpt lat="42.30221" lon="13.2767683"><ele>851.0</ele><time>2026-05-02T16:48:45.863Z</time></trkpt><trkpt lat="42.302175" lon="13.27685"><ele>850.3333333333334</ele><time>2026-05-02T16:48:46.863Z</time></trkpt><trkpt lat="42.3021367" lon="13.276935"><ele>849.6666666666667</ele><time>2026-05-02T16:48:47.863Z</time></trkpt><trkpt lat="42.302095" lon="13.2770317"><ele>849.0</ele><time>2026-05-02T16:48:48.863Z</time></trkpt><trkpt lat="42.302065" lon="13.2771417"><ele>848.3333333333333</ele><time>2026-05-02T16:48:49.862Z</time></trkpt><trkpt lat="42.3020367" lon="13.2772417"><ele>847.6666666666666</ele><time>2026-05-02T16:48:50.863Z</time></trkpt><trkpt lat="42.302025" lon="13.2773667"><ele>847.0</ele><time>2026-05-02T16:48:52.863Z</time></trkpt><trkpt lat="42.3020633" lon="13.277475"><ele>845.3333333333333</ele><time>2026-05-02T16:48:55.863Z</time></trkpt><trkpt lat="42.3020967" lon="13.2775817"><ele>843.6666666666666</ele><time>2026-05-02T16:48:57.862Z</time></trkpt><trkpt lat="42.3021467" lon="13.2777133"><ele>842.0</ele><time>2026-05-02T16:48:59.862Z</time></trkpt><trkpt lat="42.3021817" lon="13.2777867"><ele>840.3333333333333</ele><time>2026-05-02T16:49:00.863Z</time></trkpt><trkpt lat="42.3022567" lon="13.27789"><ele>838.6666666666666</ele><time>2026-05-02T16:49:02.862Z</time></trkpt><trkpt lat="42.302325" lon="13.2779417"><ele>837.0</ele><time>2026-05-02T16:49:05.862Z</time></trkpt><trkpt lat="42.3023" lon="13.27803"><ele>835.5</ele><time>2026-05-02T16:49:08.863Z</time></trkpt><trkpt lat="42.302215" lon="13.278155"><ele>834.0</ele><time>2026-05-02T16:49:10.862Z</time></trkpt><trkpt lat="42.3021717" lon="13.27822"><ele>832.5</ele><time>2026-05-02T16:49:11.863Z</time></trkpt><trkpt lat="42.30212" lon="13.2782717"><ele>831.0</ele><time>2026-05-02T16:49:12.863Z</time></trkpt><trkpt lat="42.302055" lon="13.2783233"><ele>829.5</ele><time>2026-05-02T16:49:13.863Z</time></trkpt><trkpt lat="42.3019717" lon="13.2783433"><ele>828.0</ele><time>2026-05-02T16:49:14.862Z</time></trkpt><trkpt lat="42.30189" lon="13.2783533"><ele>828.0</ele><time>2026-05-02T16:49:15.863Z</time></trkpt><trkpt lat="42.30179" lon="13.2783317"><ele>828.0</ele><time>2026-05-02T16:49:16.862Z</time></trkpt><trkpt lat="42.30169" lon="13.2783"><ele>828.0</ele><time>2026-05-02T16:49:17.863Z</time></trkpt><trkpt lat="42.3016183" lon="13.278235"><ele>828.0</ele><time>2026-05-02T16:49:18.863Z</time></trkpt><trkpt lat="42.3015583" lon="13.278165"><ele>828.0</ele><time>2026-05-02T16:49:19.862Z</time></trkpt><trkpt lat="42.3015067" lon="13.27807"><ele>827.5</ele><time>2026-05-02T16:49:20.862Z</time></trkpt><trkpt lat="42.3014683" lon="13.2779783"><ele>827.0</ele><time>2026-05-02T16:49:21.863Z</time></trkpt><trkpt lat="42.3014167" lon="13.2778917"><ele>826.5</ele><time>2026-05-02T16:49:22.863Z</time></trkpt><trkpt lat="42.3013717" lon="13.2778067"><ele>826.0</ele><time>2026-05-02T16:49:23.863Z</time></trkpt><trkpt lat="42.3013067" lon="13.2777367"><ele>825.5</ele><time>2026-05-02T16:49:24.862Z</time></trkpt><trkpt lat="42.3012433" lon="13.2776783"><ele>825.0</ele><time>2026-05-02T16:49:25.863Z</time></trkpt><trkpt lat="42.3011817" lon="13.27763"><ele>825.0</ele><time>2026-05-02T16:49:26.863Z</time></trkpt><trkpt lat="42.30111" lon="13.2776033"><ele>825.0</ele><time>2026-05-02T16:49:27.863Z</time></trkpt><trkpt lat="42.3010367" lon="13.2775717"><ele>825.0</ele><time>2026-05-02T16:49:28.862Z</time></trkpt><trkpt lat="42.3009567" lon="13.2775517"><ele>825.0</ele><time>2026-05-02T16:49:29.863Z</time></trkpt><trkpt lat="42.3008817" lon="13.277515"><ele>825.0</ele><time>2026-05-02T16:49:30.863Z</time></trkpt><trkpt lat="42.30081" lon="13.27748"><ele>825.0</ele><time>2026-05-02T16:49:31.863Z</time></trkpt><trkpt lat="42.3007333" lon="13.2774583"><ele>825.0</ele><time>2026-05-02T16:49:32.862Z</time></trkpt><trkpt lat="42.3006467" lon="13.277455"><ele>825.0</ele><time>2026-05-02T16:49:33.863Z</time></trkpt><trkpt lat="42.30055" lon="13.2774733"><ele>825.0</ele><time>2026-05-02T16:49:34.862Z</time></trkpt><trkpt lat="42.3004467" lon="13.2775117"><ele>825.0</ele><time>2026-05-02T16:49:35.862Z</time></trkpt><trkpt lat="42.3003383" lon="13.2775533"><ele>825.0</ele><time>2026-05-02T16:49:36.862Z</time></trkpt><trkpt lat="42.300225" lon="13.2775933"><ele>825.5</ele><time>2026-05-02T16:49:37.862Z</time></trkpt><trkpt lat="42.3001067" lon="13.277625"><ele>826.0</ele><time>2026-05-02T16:49:38.863Z</time></trkpt><trkpt lat="42.29999" lon="13.2776283"><ele>826.5</ele><time>2026-05-02T16:49:39.862Z</time></trkpt><trkpt lat="42.2998733" lon="13.2776117"><ele>827.0</ele><time>2026-05-02T16:49:40.863Z</time></trkpt><trkpt lat="42.29974" lon="13.2776"><ele>827.0</ele><time>2026-05-02T16:49:41.863Z</time></trkpt><trkpt lat="42.299605" lon="13.2775967"><ele>827.0</ele><time>2026-05-02T16:49:42.863Z</time></trkpt><trkpt lat="42.2994733" lon="13.2775933"><ele>827.0</ele><time>2026-05-02T16:49:43.862Z</time></trkpt><trkpt lat="42.299345" lon="13.2776083"><ele>827.0</ele><time>2026-05-02T16:49:44.862Z</time></trkpt><trkpt lat="42.2992317" lon="13.2776283"><ele>827.0</ele><time>2026-05-02T16:49:45.862Z</time></trkpt><trkpt lat="42.2991217" lon="13.27767"><ele>827.0</ele><time>2026-05-02T16:49:46.863Z</time></trkpt><trkpt lat="42.2990267" lon="13.2777367"><ele>827.0</ele><time>2026-05-02T16:49:47.862Z</time></trkpt><trkpt lat="42.298945" lon="13.2778383"><ele>827.0</ele><time>2026-05-02T16:49:48.862Z</time></trkpt><trkpt lat="42.298895" lon="13.2779733"><ele>827.0</ele><time>2026-05-02T16:49:49.862Z</time></trkpt><trkpt lat="42.2988583" lon="13.2781317"><ele>828.5</ele><time>2026-05-02T16:49:50.862Z</time></trkpt><trkpt lat="42.298815" lon="13.278285"><ele>830.0</ele><time>2026-05-02T16:49:51.863Z</time></trkpt><trkpt lat="42.2987483" lon="13.27841"><ele>831.5</ele><time>2026-05-02T16:49:52.863Z</time></trkpt><trkpt lat="42.29865" lon="13.2785133"><ele>833.0</ele><time>2026-05-02T16:49:53.863Z</time></trkpt><trkpt lat="42.2985283" lon="13.27859"><ele>833.0</ele><time>2026-05-02T16:49:54.862Z</time></trkpt><trkpt lat="42.2984083" lon="13.27865"><ele>833.0</ele><time>2026-05-02T16:49:55.862Z</time></trkpt><trkpt lat="42.298285" lon="13.27871"><ele>833.0</ele><time>2026-05-02T16:49:56.862Z</time></trkpt><trkpt lat="42.29815" lon="13.2787967"><ele>833.0</ele><time>2026-05-02T16:49:57.862Z</time></trkpt><trkpt lat="42.2980367" lon="13.27891"><ele>836.6666666666667</ele><time>2026-05-02T16:49:58.862Z</time></trkpt><trkpt lat="42.2979317" lon="13.2790633"><ele>840.3333333333333</ele><time>2026-05-02T16:49:59.862Z</time></trkpt><trkpt lat="42.29783" lon="13.27922"><ele>844.0</ele><time>2026-05-02T16:50:00.863Z</time></trkpt><trkpt lat="42.2977417" lon="13.2793717"><ele>844.0</ele><time>2026-05-02T16:50:01.862Z</time></trkpt><trkpt lat="42.2976733" lon="13.2795167"><ele>844.0</ele><time>2026-05-02T16:50:02.862Z</time></trkpt><trkpt lat="42.2976433" lon="13.279665"><ele>844.0</ele><time>2026-05-02T16:50:03.862Z</time></trkpt><trkpt lat="42.297635" lon="13.27982"><ele>844.0</ele><time>2026-05-02T16:50:04.863Z</time></trkpt><trkpt lat="42.2976633" lon="13.27999"><ele>841.75</ele><time>2026-05-02T16:50:05.862Z</time></trkpt><trkpt lat="42.2977083" lon="13.280155"><ele>839.5</ele><time>2026-05-02T16:50:06.862Z</time></trkpt><trkpt lat="42.2977783" lon="13.28029"><ele>837.25</ele><time>2026-05-02T16:50:07.862Z</time></trkpt><trkpt lat="42.2978633" lon="13.2803917"><ele>835.0</ele><time>2026-05-02T16:50:08.863Z</time></trkpt><trkpt lat="42.2979633" lon="13.2804583"><ele>832.25</ele><time>2026-05-02T16:50:09.862Z</time></trkpt><trkpt lat="42.2980933" lon="13.28047"><ele>829.5</ele><time>2026-05-02T16:50:10.863Z</time></trkpt><trkpt lat="42.2982317" lon="13.2804633"><ele>826.75</ele><time>2026-05-02T16:50:11.863Z</time></trkpt><trkpt lat="42.2983833" lon="13.2804417"><ele>824.0</ele><time>2026-05-02T16:50:12.863Z</time></trkpt><trkpt lat="42.2985217" lon="13.2804183"><ele>824.0</ele><time>2026-05-02T16:50:13.863Z</time></trkpt><trkpt lat="42.2986483" lon="13.2804133"><ele>824.0</ele><time>2026-05-02T16:50:14.862Z</time></trkpt><trkpt lat="42.2987767" lon="13.2804683"><ele>824.0</ele><time>2026-05-02T16:50:15.862Z</time></trkpt><trkpt lat="42.2988867" lon="13.280565"><ele>824.0</ele><time>2026-05-02T16:50:16.862Z</time></trkpt><trkpt lat="42.299015" lon="13.280675"><ele>827.6666666666667</ele><time>2026-05-02T16:50:17.862Z</time></trkpt><trkpt lat="42.2991883" lon="13.28077"><ele>831.3333333333333</ele><time>2026-05-02T16:50:18.863Z</time></trkpt><trkpt lat="42.2993217" lon="13.2808967"><ele>835.0</ele><time>2026-05-02T16:50:19.863Z</time></trkpt><trkpt lat="42.2994583" lon="13.281015"><ele>835.0</ele><time>2026-05-02T16:50:20.863Z</time></trkpt><trkpt lat="42.2996033" lon="13.2811333"><ele>835.0</ele><time>2026-05-02T16:50:21.862Z</time></trkpt><trkpt lat="42.299745" lon="13.2812633"><ele>835.0</ele><time>2026-05-02T16:50:22.863Z</time></trkpt><trkpt lat="42.2999" lon="13.2813833"><ele>836.0</ele><time>2026-05-02T16:50:23.862Z</time></trkpt><trkpt lat="42.300045" lon="13.2815017"><ele>837.0</ele><time>2026-05-02T16:50:24.863Z</time></trkpt><trkpt lat="42.3001833" lon="13.2816"><ele>838.0</ele><time>2026-05-02T16:50:25.863Z</time></trkpt><trkpt lat="42.3003117" lon="13.28171"><ele>838.0</ele><time>2026-05-02T16:50:26.863Z</time></trkpt><trkpt lat="42.3004133" lon="13.2818117"><ele>838.0</ele><time>2026-05-02T16:50:27.863Z</time></trkpt><trkpt lat="42.3004967" lon="13.2819367"><ele>838.0</ele><time>2026-05-02T16:50:28.862Z</time></trkpt><trkpt lat="42.300565" lon="13.28208"><ele>838.0</ele><time>2026-05-02T16:50:29.863Z</time></trkpt><trkpt lat="42.3005783" lon="13.28224"><ele>838.75</ele><time>2026-05-02T16:50:30.862Z</time></trkpt><trkpt lat="42.3005833" lon="13.2824183"><ele>839.5</ele><time>2026-05-02T16:50:31.862Z</time></trkpt><trkpt lat="42.3005533" lon="13.2826083"><ele>840.25</ele><time>2026-05-02T16:50:32.862Z</time></trkpt><trkpt lat="42.3005333" lon="13.2827933"><ele>841.0</ele><time>2026-05-02T16:50:33.863Z</time></trkpt><trkpt lat="42.300515" lon="13.28296"><ele>839.0</ele><time>2026-05-02T16:50:34.863Z</time></trkpt><trkpt lat="42.3005033" lon="13.2830983"><ele>837.0</ele><time>2026-05-02T16:50:35.862Z</time></trkpt><trkpt lat="42.3005" lon="13.2832183"><ele>835.0</ele><time>2026-05-02T16:50:36.862Z</time></trkpt><trkpt lat="42.300495" lon="13.2833117"><ele>833.0</ele><time>2026-05-02T16:50:37.863Z</time></trkpt><trkpt lat="42.3004517" lon="13.2834217"><ele>831.0</ele><time>2026-05-02T16:50:39.862Z</time></trkpt><trkpt lat="42.3003183" lon="13.28345"><ele>831.0</ele><time>2026-05-02T16:50:41.863Z</time></trkpt><trkpt lat="42.3002183" lon="13.2834433"><ele>831.0</ele><time>2026-05-02T16:50:42.862Z</time></trkpt><trkpt lat="42.3000967" lon="13.2834467"><ele>831.0</ele><time>2026-05-02T16:50:43.862Z</time></trkpt><trkpt lat="42.2999617" lon="13.283475"><ele>831.0</ele><time>2026-05-02T16:50:44.862Z</time></trkpt><trkpt lat="42.299825" lon="13.2835383"><ele>831.5</ele><time>2026-05-02T16:50:45.863Z</time></trkpt><trkpt lat="42.29969" lon="13.2836167"><ele>832.0</ele><time>2026-05-02T16:50:46.862Z</time></trkpt><trkpt lat="42.29956" lon="13.2837233"><ele>832.5</ele><time>2026-05-02T16:50:47.863Z</time></trkpt><trkpt lat="42.2994433" lon="13.283825"><ele>833.0</ele><time>2026-05-02T16:50:48.862Z</time></trkpt><trkpt lat="42.2993333" lon="13.28392"><ele>829.75</ele><time>2026-05-02T16:50:49.863Z</time></trkpt><trkpt lat="42.2992117" lon="13.283995"><ele>826.5</ele><time>2026-05-02T16:50:50.862Z</time></trkpt><trkpt lat="42.2990867" lon="13.2840467"><ele>823.25</ele><time>2026-05-02T16:50:51.862Z</time></trkpt><trkpt lat="42.2989633" lon="13.2840483"><ele>820.0</ele><time>2026-05-02T16:50:52.863Z</time></trkpt><trkpt lat="42.2988283" lon="13.2840083"><ele>819.25</ele><time>2026-05-02T16:50:53.862Z</time></trkpt><trkpt lat="42.2987083" lon="13.283945"><ele>818.5</ele><time>2026-05-02T16:50:54.862Z</time></trkpt><trkpt lat="42.2986017" lon="13.2838733"><ele>817.75</ele><time>2026-05-02T16:50:55.863Z</time></trkpt><trkpt lat="42.298495" lon="13.2838217"><ele>817.0</ele><time>2026-05-02T16:50:56.862Z</time></trkpt><trkpt lat="42.2983933" lon="13.2837817"><ele>818.75</ele><time>2026-05-02T16:50:57.862Z</time></trkpt><trkpt lat="42.2982767" lon="13.2837817"><ele>820.5</ele><time>2026-05-02T16:50:58.863Z</time></trkpt><trkpt lat="42.2981583" lon="13.283815"><ele>822.25</ele><time>2026-05-02T16:50:59.862Z</time></trkpt><trkpt lat="42.298045" lon="13.2838767"><ele>824.0</ele><time>2026-05-02T16:51:00.863Z</time></trkpt><trkpt lat="42.297955" lon="13.28394"><ele>824.0000000000001</ele><time>2026-05-02T16:51:01.863Z</time></trkpt><trkpt lat="42.2979" lon="13.28399"><ele>824.0</ele><time>2026-05-02T16:51:02.862Z</time></trkpt><trkpt lat="42.29786" lon="13.284085"><ele>824.0</ele><time>2026-05-02T16:51:04.862Z</time></trkpt><trkpt lat="42.29794" lon="13.2841633"><ele>824.0</ele><time>2026-05-02T16:51:06.862Z</time></trkpt><trkpt lat="42.2980267" lon="13.2841783"><ele>824.0000000000001</ele><time>2026-05-02T16:51:07.862Z</time></trkpt><trkpt lat="42.2981283" lon="13.2841967"><ele>824.0</ele><time>2026-05-02T16:51:08.862Z</time></trkpt><trkpt lat="42.2982633" lon="13.28421"><ele>822.25</ele><time>2026-05-02T16:51:09.863Z</time></trkpt><trkpt lat="42.29839" lon="13.2842467"><ele>820.5</ele><time>2026-05-02T16:51:10.863Z</time></trkpt><trkpt lat="42.29852" lon="13.2842783"><ele>818.75</ele><time>2026-05-02T16:51:11.862Z</time></trkpt><trkpt lat="42.298635" lon="13.2843333"><ele>817.0</ele><time>2026-05-02T16:51:12.863Z</time></trkpt><trkpt lat="42.2987483" lon="13.2844083"><ele>817.0</ele><time>2026-05-02T16:51:13.863Z</time></trkpt><trkpt lat="42.2988533" lon="13.2845183"><ele>817.0</ele><time>2026-05-02T16:51:14.862Z</time></trkpt><trkpt lat="42.298955" lon="13.284655"><ele>817.0</ele><time>2026-05-02T16:51:15.862Z</time></trkpt><trkpt lat="42.299045" lon="13.2848083"><ele>817.0</ele><time>2026-05-02T16:51:16.862Z</time></trkpt><trkpt lat="42.2991317" lon="13.28496"><ele>815.5</ele><time>2026-05-02T16:51:17.862Z</time></trkpt><trkpt lat="42.2992167" lon="13.28513"><ele>814.0</ele><time>2026-05-02T16:51:18.863Z</time></trkpt><trkpt lat="42.299295" lon="13.2853"><ele>812.5</ele><time>2026-05-02T16:51:19.862Z</time></trkpt><trkpt lat="42.2993483" lon="13.2854817"><ele>811.0</ele><time>2026-05-02T16:51:20.862Z</time></trkpt><trkpt lat="42.2993933" lon="13.2856767"><ele>809.3333333333333</ele><time>2026-05-02T16:51:21.862Z</time></trkpt><trkpt lat="42.2994233" lon="13.2858917"><ele>807.6666666666667</ele><time>2026-05-02T16:51:22.862Z</time></trkpt><trkpt lat="42.2994467" lon="13.2861167"><ele>806.0</ele><time>2026-05-02T16:51:23.863Z</time></trkpt><trkpt lat="42.2994483" lon="13.2863417"><ele>804.0</ele><time>2026-05-02T16:51:24.862Z</time></trkpt><trkpt lat="42.2994583" lon="13.2865583"><ele>802.0</ele><time>2026-05-02T16:51:25.862Z</time></trkpt><trkpt lat="42.2994717" lon="13.2867683"><ele>800.0</ele><time>2026-05-02T16:51:26.862Z</time></trkpt><trkpt lat="42.299475" lon="13.2869733"><ele>800.0</ele><time>2026-05-02T16:51:27.863Z</time></trkpt><trkpt lat="42.2994867" lon="13.28716"><ele>800.0</ele><time>2026-05-02T16:51:28.863Z</time></trkpt><trkpt lat="42.2995167" lon="13.2873367"><ele>800.0</ele><time>2026-05-02T16:51:29.863Z</time></trkpt><trkpt lat="42.2995733" lon="13.2874933"><ele>800.0</ele><time>2026-05-02T16:51:30.862Z</time></trkpt><trkpt lat="42.2996567" lon="13.2876217"><ele>800.5</ele><time>2026-05-02T16:51:31.863Z</time></trkpt><trkpt lat="42.2997567" lon="13.2877117"><ele>801.0</ele><time>2026-05-02T16:51:32.862Z</time></trkpt><trkpt lat="42.2998783" lon="13.2877533"><ele>801.5</ele><time>2026-05-02T16:51:33.863Z</time></trkpt><trkpt lat="42.3000033" lon="13.287755"><ele>802.0</ele><time>2026-05-02T16:51:34.862Z</time></trkpt><trkpt lat="42.3001417" lon="13.2877233"><ele>802.0</ele><time>2026-05-02T16:51:35.862Z</time></trkpt><trkpt lat="42.3002983" lon="13.28768"><ele>802.0</ele><time>2026-05-02T16:51:36.862Z</time></trkpt><trkpt lat="42.3004617" lon="13.28767"><ele>802.0</ele><time>2026-05-02T16:51:37.862Z</time></trkpt><trkpt lat="42.3006283" lon="13.2876767"><ele>800.3333333333333</ele><time>2026-05-02T16:51:38.863Z</time></trkpt><trkpt lat="42.3007933" lon="13.2876767"><ele>798.6666666666667</ele><time>2026-05-02T16:51:39.863Z</time></trkpt><trkpt lat="42.3009567" lon="13.2876567"><ele>797.0</ele><time>2026-05-02T16:51:40.862Z</time></trkpt><trkpt lat="42.3010967" lon="13.28764"><ele>797.0</ele><time>2026-05-02T16:51:41.863Z</time></trkpt><trkpt lat="42.3012317" lon="13.2876067"><ele>797.0</ele><time>2026-05-02T16:51:42.863Z</time></trkpt><trkpt lat="42.301355" lon="13.28756"><ele>797.0</ele><time>2026-05-02T16:51:43.862Z</time></trkpt><trkpt lat="42.301465" lon="13.2874867"><ele>797.0</ele><time>2026-05-02T16:51:44.863Z</time></trkpt><trkpt lat="42.3015783" lon="13.2874083"><ele>793.0</ele><time>2026-05-02T16:51:45.862Z</time></trkpt><trkpt lat="42.3017083" lon="13.2873433"><ele>789.0</ele><time>2026-05-02T16:51:46.862Z</time></trkpt><trkpt lat="42.3018367" lon="13.2873"><ele>785.0</ele><time>2026-05-02T16:51:47.863Z</time></trkpt><trkpt lat="42.3019467" lon="13.2872783"><ele>781.0</ele><time>2026-05-02T16:51:48.863Z</time></trkpt><trkpt lat="42.30204" lon="13.28729"><ele>781.0</ele><time>2026-05-02T16:51:49.863Z</time></trkpt><trkpt lat="42.3021033" lon="13.287315"><ele>781.0</ele><time>2026-05-02T16:51:50.862Z</time></trkpt><trkpt lat="42.302135" lon="13.2874167"><ele>781.0</ele><time>2026-05-02T16:51:53.862Z</time></trkpt><trkpt lat="42.3021133" lon="13.2875667"><ele>781.0</ele><time>2026-05-02T16:51:55.863Z</time></trkpt><trkpt lat="42.3021033" lon="13.2876783"><ele>781.0</ele><time>2026-05-02T16:51:56.862Z</time></trkpt><trkpt lat="42.3020933" lon="13.2878317"><ele>781.0</ele><time>2026-05-02T16:51:57.862Z</time></trkpt><trkpt lat="42.3020883" lon="13.288005"><ele>781.0</ele><time>2026-05-02T16:51:58.863Z</time></trkpt><trkpt lat="42.3020867" lon="13.2881767"><ele>781.0</ele><time>2026-05-02T16:51:59.862Z</time></trkpt><trkpt lat="42.30208" lon="13.2883417"><ele>781.0</ele><time>2026-05-02T16:52:00.862Z</time></trkpt><trkpt lat="42.3020717" lon="13.2884717"><ele>780.5999999999999</ele><time>2026-05-02T16:52:01.862Z</time></trkpt><trkpt lat="42.3020633" lon="13.2885883"><ele>780.2</ele><time>2026-05-02T16:52:02.862Z</time></trkpt><trkpt lat="42.3020717" lon="13.288675"><ele>779.8</ele><time>2026-05-02T16:52:03.863Z</time></trkpt><trkpt lat="42.3020933" lon="13.2888267"><ele>779.4000000000001</ele><time>2026-05-02T16:52:05.862Z</time></trkpt><trkpt lat="42.3021633" lon="13.2889017"><ele>779.0</ele><time>2026-05-02T16:52:07.862Z</time></trkpt><trkpt lat="42.302275" lon="13.288945"><ele>779.0</ele><time>2026-05-02T16:52:09.862Z</time></trkpt><trkpt lat="42.3023967" lon="13.28897"><ele>779.0</ele><time>2026-05-02T16:52:11.863Z</time></trkpt><trkpt lat="42.3024733" lon="13.28898"><ele>779.0</ele><time>2026-05-02T16:52:12.863Z</time></trkpt><trkpt lat="42.302565" lon="13.2889867"><ele>779.0</ele><time>2026-05-02T16:52:13.862Z</time></trkpt><trkpt lat="42.3026783" lon="13.288985"><ele>779.0</ele><time>2026-05-02T16:52:14.862Z</time></trkpt><trkpt lat="42.3028083" lon="13.2889817"><ele>779.0</ele><time>2026-05-02T16:52:15.862Z</time></trkpt><trkpt lat="42.3029367" lon="13.28897"><ele>779.0</ele><time>2026-05-02T16:52:16.863Z</time></trkpt><trkpt lat="42.303065" lon="13.2889383"><ele>779.0</ele><time>2026-05-02T16:52:17.863Z</time></trkpt><trkpt lat="42.3031883" lon="13.2889083"><ele>779.0</ele><time>2026-05-02T16:52:18.862Z</time></trkpt><trkpt lat="42.3033067" lon="13.2888633"><ele>776.5</ele><time>2026-05-02T16:52:19.862Z</time></trkpt><trkpt lat="42.3034267" lon="13.288825"><ele>774.0</ele><time>2026-05-02T16:52:20.862Z</time></trkpt><trkpt lat="42.3035383" lon="13.2887933"><ele>771.5</ele><time>2026-05-02T16:52:21.862Z</time></trkpt><trkpt lat="42.303645" lon="13.2887633"><ele>769.0</ele><time>2026-05-02T16:52:22.862Z</time></trkpt><trkpt lat="42.3037524" lon="13.2887375"><ele>769.0</ele><time>2026-05-02T16:52:23.862Z</time></trkpt><trkpt lat="42.3038567" lon="13.2887108"><ele>769.0</ele><time>2026-05-02T16:52:24.863Z</time></trkpt><trkpt lat="42.303956" lon="13.2886861"><ele>769.0</ele><time>2026-05-02T16:52:25.862Z</time></trkpt><trkpt lat="42.3040553" lon="13.2886554"><ele>769.0</ele><time>2026-05-02T16:52:26.862Z</time></trkpt><trkpt lat="42.3041498" lon="13.2886245"><ele>769.0</ele><time>2026-05-02T16:52:27.863Z</time></trkpt><trkpt lat="42.3042475" lon="13.2885934"><ele>769.0</ele><time>2026-05-02T16:52:28.863Z</time></trkpt><trkpt lat="42.3043493" lon="13.2885587"><ele>769.0</ele><time>2026-05-02T16:52:29.863Z</time></trkpt><trkpt lat="42.3044465" lon="13.2885168"><ele>769.0</ele><time>2026-05-02T16:52:30.862Z</time></trkpt><trkpt lat="42.3045556" lon="13.2884801"><ele>769.0</ele><time>2026-05-02T16:52:31.863Z</time></trkpt><trkpt lat="42.3046649" lon="13.2884589"><ele>769.0</ele><time>2026-05-02T16:52:32.863Z</time></trkpt><trkpt lat="42.3047723" lon="13.2884281"><ele>768.8000000000001</ele><time>2026-05-02T16:52:33.862Z</time></trkpt><trkpt lat="42.3048746" lon="13.2883971"><ele>768.6</ele><time>2026-05-02T16:52:34.863Z</time></trkpt><trkpt lat="42.3049648" lon="13.2883567"><ele>768.4</ele><time>2026-05-02T16:52:35.862Z</time></trkpt><trkpt lat="42.3050451" lon="13.2883167"><ele>768.2</ele><time>2026-05-02T16:52:36.862Z</time></trkpt><trkpt lat="42.305125" lon="13.288284"><ele>768.0</ele><time>2026-05-02T16:52:37.863Z</time></trkpt><trkpt lat="42.3052108" lon="13.2882603"><ele>768.0</ele><time>2026-05-02T16:52:38.863Z</time></trkpt><trkpt lat="42.3053036" lon="13.288256"><ele>768.0</ele><time>2026-05-02T16:52:39.862Z</time></trkpt><trkpt lat="42.3053831" lon="13.2882541"><ele>768.0</ele><time>2026-05-02T16:52:40.862Z</time></trkpt><trkpt lat="42.3054718" lon="13.2882597"><ele>768.0</ele><time>2026-05-02T16:52:41.862Z</time></trkpt><trkpt lat="42.3055614" lon="13.2882649"><ele>768.0</ele><time>2026-05-02T16:52:42.862Z</time></trkpt><trkpt lat="42.3056493" lon="13.2882645"><ele>768.0</ele><time>2026-05-02T16:52:43.863Z</time></trkpt><trkpt lat="42.3057192" lon="13.2882455"><ele>767.8</ele><time>2026-05-02T16:52:44.863Z</time></trkpt><trkpt lat="42.3058057" lon="13.2882153"><ele>767.5999999999999</ele><time>2026-05-02T16:52:45.862Z</time></trkpt><trkpt lat="42.3059028" lon="13.2881837"><ele>767.4000000000001</ele><time>2026-05-02T16:52:46.862Z</time></trkpt><trkpt lat="42.3060024" lon="13.2881521"><ele>767.2</ele><time>2026-05-02T16:52:47.862Z</time></trkpt><trkpt lat="42.3061034" lon="13.2881158"><ele>767.0</ele><time>2026-05-02T16:52:48.863Z</time></trkpt><trkpt lat="42.3062184" lon="13.2880741"><ele>766.5</ele><time>2026-05-02T16:52:49.862Z</time></trkpt><trkpt lat="42.3063346" lon="13.2880319"><ele>766.0</ele><time>2026-05-02T16:52:50.863Z</time></trkpt><trkpt lat="42.306455" lon="13.2879732"><ele>765.5</ele><time>2026-05-02T16:52:51.862Z</time></trkpt><trkpt lat="42.3065714" lon="13.2879069"><ele>765.0</ele><time>2026-05-02T16:52:52.863Z</time></trkpt><trkpt lat="42.3066657" lon="13.287856"><ele>765.0</ele><time>2026-05-02T16:52:53.862Z</time></trkpt><trkpt lat="42.3067377" lon="13.2878237"><ele>765.0</ele><time>2026-05-02T16:52:54.863Z</time></trkpt><trkpt lat="42.3068341" lon="13.287791"><ele>765.0</ele><time>2026-05-02T16:52:56.863Z</time></trkpt><trkpt lat="42.3069116" lon="13.2877653"><ele>765.0</ele><time>2026-05-02T16:52:59.863Z</time></trkpt><trkpt lat="42.3069882" lon="13.2877274"><ele>765.0</ele><time>2026-05-02T16:53:01.863Z</time></trkpt><trkpt lat="42.3070948" lon="13.2876174"><ele>765.0</ele><time>2026-05-02T16:53:03.862Z</time></trkpt><trkpt lat="42.3071539" lon="13.2875445"><ele>765.0</ele><time>2026-05-02T16:53:04.862Z</time></trkpt><trkpt lat="42.3072187" lon="13.2874643"><ele>765.0</ele><time>2026-05-02T16:53:05.862Z</time></trkpt><trkpt lat="42.3072854" lon="13.2873759"><ele>765.0</ele><time>2026-05-02T16:53:06.862Z</time></trkpt><trkpt lat="42.3073501" lon="13.2872766"><ele>765.0</ele><time>2026-05-02T16:53:07.863Z</time></trkpt><trkpt lat="42.307425" lon="13.2871758"><ele>764.5</ele><time>2026-05-02T16:53:08.862Z</time></trkpt><trkpt lat="42.307505" lon="13.28707"><ele>764.0</ele><time>2026-05-02T16:53:09.862Z</time></trkpt><trkpt lat="42.3075867" lon="13.286965"><ele>763.5</ele><time>2026-05-02T16:53:10.863Z</time></trkpt><trkpt lat="42.3076817" lon="13.2868683"><ele>763.0</ele><time>2026-05-02T16:53:11.862Z</time></trkpt><trkpt lat="42.30777" lon="13.2867633"><ele>763.0</ele><time>2026-05-02T16:53:12.863Z</time></trkpt><trkpt lat="42.3078667" lon="13.2866867"><ele>763.0</ele><time>2026-05-02T16:53:13.863Z</time></trkpt><trkpt lat="42.3079567" lon="13.2866183"><ele>763.0</ele><time>2026-05-02T16:53:14.862Z</time></trkpt><trkpt lat="42.3080433" lon="13.2865533"><ele>763.0</ele><time>2026-05-02T16:53:15.862Z</time></trkpt><trkpt lat="42.3081417" lon="13.2864867"><ele>763.0</ele><time>2026-05-02T16:53:16.863Z</time></trkpt><trkpt lat="42.3082533" lon="13.2864233"><ele>761.8</ele><time>2026-05-02T16:53:17.863Z</time></trkpt><trkpt lat="42.30836" lon="13.2863517"><ele>760.5999999999999</ele><time>2026-05-02T16:53:18.862Z</time></trkpt><trkpt lat="42.3084667" lon="13.28628"><ele>759.4000000000001</ele><time>2026-05-02T16:53:19.863Z</time></trkpt><trkpt lat="42.3085583" lon="13.286215"><ele>758.2</ele><time>2026-05-02T16:53:20.862Z</time></trkpt><trkpt lat="42.3086383" lon="13.28616"><ele>757.0</ele><time>2026-05-02T16:53:21.862Z</time></trkpt><trkpt lat="42.308705" lon="13.28613"><ele>757.0</ele><time>2026-05-02T16:53:22.862Z</time></trkpt><trkpt lat="42.3088067" lon="13.286085"><ele>757.0</ele><time>2026-05-02T16:53:24.862Z</time></trkpt><trkpt lat="42.3088883" lon="13.2860433"><ele>757.0</ele><time>2026-05-02T16:53:26.862Z</time></trkpt><trkpt lat="42.3089933" lon="13.28599"><ele>757.0</ele><time>2026-05-02T16:53:28.862Z</time></trkpt><trkpt lat="42.3090633" lon="13.2859683"><ele>757.0</ele><time>2026-05-02T16:53:29.863Z</time></trkpt><trkpt lat="42.30914" lon="13.2859517"><ele>757.0</ele><time>2026-05-02T16:53:30.862Z</time></trkpt><trkpt lat="42.30922" lon="13.2859333"><ele>757.0</ele><time>2026-05-02T16:53:31.862Z</time></trkpt><trkpt lat="42.30931" lon="13.285925"><ele>757.0</ele><time>2026-05-02T16:53:32.863Z</time></trkpt><trkpt lat="42.3094033" lon="13.28592"><ele>757.0</ele><time>2026-05-02T16:53:33.863Z</time></trkpt><trkpt lat="42.3094933" lon="13.2859067"><ele>757.0</ele><time>2026-05-02T16:53:34.863Z</time></trkpt><trkpt lat="42.3095717" lon="13.28589"><ele>757.0</ele><time>2026-05-02T16:53:35.862Z</time></trkpt><trkpt lat="42.309635" lon="13.2858783"><ele>757.0</ele><time>2026-05-02T16:53:36.862Z</time></trkpt><trkpt lat="42.309715" lon="13.285905"><ele>757.0</ele><time>2026-05-02T16:53:38.863Z</time></trkpt><trkpt lat="42.3096733" lon="13.2859833"><ele>757.0</ele><time>2026-05-02T16:53:41.863Z</time></trkpt><trkpt lat="42.30961" lon="13.2859883"><ele>757.0</ele><time>2026-05-02T16:53:42.862Z</time></trkpt><trkpt lat="42.3095233" lon="13.2859867"><ele>757.0</ele><time>2026-05-02T16:53:43.864Z</time></trkpt><trkpt lat="42.3094317" lon="13.285975"><ele>757.0</ele><time>2026-05-02T16:53:44.863Z</time></trkpt><trkpt lat="42.3093267" lon="13.2859817"><ele>757.0</ele><time>2026-05-02T16:53:45.863Z</time></trkpt><trkpt lat="42.3092083" lon="13.2860117"><ele>757.0</ele><time>2026-05-02T16:53:46.863Z</time></trkpt><trkpt lat="42.3090883" lon="13.2860583"><ele>757.0</ele><time>2026-05-02T16:53:47.864Z</time></trkpt><trkpt lat="42.308985" lon="13.286105"><ele>757.0</ele><time>2026-05-02T16:53:48.863Z</time></trkpt><trkpt lat="42.3088733" lon="13.2861667"><ele>757.0</ele><time>2026-05-02T16:53:49.864Z</time></trkpt><trkpt lat="42.30876" lon="13.2862283"><ele>757.0</ele><time>2026-05-02T16:53:50.863Z</time></trkpt><trkpt lat="42.3086536" lon="13.2862888"><ele>757.0</ele><time>2026-05-02T16:53:51.863Z</time></trkpt><trkpt lat="42.3085601" lon="13.2863465"><ele>757.0</ele><time>2026-05-02T16:53:52.863Z</time></trkpt><trkpt lat="42.3084895" lon="13.2864104"><ele>757.0</ele><time>2026-05-02T16:53:53.864Z</time></trkpt><trkpt lat="42.3084529" lon="13.2864875"><ele>759.0</ele><time>2026-05-02T16:53:54.863Z</time></trkpt><trkpt lat="42.3085003" lon="13.2866213"><ele>761.0</ele><time>2026-05-02T16:53:56.863Z</time></trkpt><trkpt lat="42.3085806" lon="13.2866462"><ele>763.0</ele><time>2026-05-02T16:53:57.864Z</time></trkpt><trkpt lat="42.3086759" lon="13.2866436"><ele>765.0</ele><time>2026-05-02T16:53:58.863Z</time></trkpt><trkpt lat="42.3087932" lon="13.2866188"><ele>767.0</ele><time>2026-05-02T16:53:59.863Z</time></trkpt><trkpt lat="42.3089258" lon="13.2866"><ele>769.0</ele><time>2026-05-02T16:54:00.864Z</time></trkpt><trkpt lat="42.3090692" lon="13.2865909"><ele>771.0</ele><time>2026-05-02T16:54:01.863Z</time></trkpt><trkpt lat="42.3092206" lon="13.2865852"><ele>773.0</ele><time>2026-05-02T16:54:02.864Z</time></trkpt><trkpt lat="42.309377" lon="13.2865708"><ele>773.0</ele><time>2026-05-02T16:54:03.863Z</time></trkpt><trkpt lat="42.3095416" lon="13.2865578"><ele>773.0</ele><time>2026-05-02T16:54:04.863Z</time></trkpt><trkpt lat="42.3097069" lon="13.2865484"><ele>773.0</ele><time>2026-05-02T16:54:05.863Z</time></trkpt><trkpt lat="42.3098763" lon="13.286517"><ele>769.6666666666667</ele><time>2026-05-02T16:54:06.863Z</time></trkpt><trkpt lat="42.3100353" lon="13.2864835"><ele>766.3333333333334</ele><time>2026-05-02T16:54:07.863Z</time></trkpt><trkpt lat="42.3101915" lon="13.2864386"><ele>763.0</ele><time>2026-05-02T16:54:08.864Z</time></trkpt><trkpt lat="42.310351" lon="13.2864084"><ele>763.0</ele><time>2026-05-02T16:54:09.863Z</time></trkpt><trkpt lat="42.3105119" lon="13.2863861"><ele>763.0</ele><time>2026-05-02T16:54:10.863Z</time></trkpt><trkpt lat="42.310666" lon="13.2863705"><ele>763.0</ele><time>2026-05-02T16:54:11.863Z</time></trkpt><trkpt lat="42.3108073" lon="13.2863658"><ele>765.0</ele><time>2026-05-02T16:54:12.863Z</time></trkpt><trkpt lat="42.3109317" lon="13.2863712"><ele>767.0</ele><time>2026-05-02T16:54:13.863Z</time></trkpt><trkpt lat="42.3110339" lon="13.286372"><ele>769.0</ele><time>2026-05-02T16:54:14.863Z</time></trkpt><trkpt lat="42.3111164" lon="13.2863583"><ele>771.0</ele><time>2026-05-02T16:54:15.863Z</time></trkpt><trkpt lat="42.3111844" lon="13.2863363"><ele>773.0</ele><time>2026-05-02T16:54:16.863Z</time></trkpt><trkpt lat="42.3112537" lon="13.2862961"><ele>773.0</ele><time>2026-05-02T16:54:17.863Z</time></trkpt><trkpt lat="42.3113264" lon="13.2862393"><ele>773.0</ele><time>2026-05-02T16:54:18.863Z</time></trkpt><trkpt lat="42.3114008" lon="13.286167"><ele>773.0</ele><time>2026-05-02T16:54:19.863Z</time></trkpt><trkpt lat="42.3114763" lon="13.2860874"><ele>773.0</ele><time>2026-05-02T16:54:20.864Z</time></trkpt><trkpt lat="42.311545" lon="13.2860337"><ele>773.0</ele><time>2026-05-02T16:54:21.864Z</time></trkpt><trkpt lat="42.3116442" lon="13.2860614"><ele>775.4</ele><time>2026-05-02T16:54:23.863Z</time></trkpt><trkpt lat="42.3116497" lon="13.286219"><ele>777.8</ele><time>2026-05-02T16:54:25.864Z</time></trkpt><trkpt lat="42.3116097" lon="13.2863183"><ele>780.2</ele><time>2026-05-02T16:54:26.863Z</time></trkpt><trkpt lat="42.3115531" lon="13.2864357"><ele>782.6</ele><time>2026-05-02T16:54:27.864Z</time></trkpt><trkpt lat="42.3114893" lon="13.286576"><ele>785.0</ele><time>2026-05-02T16:54:28.863Z</time></trkpt><trkpt lat="42.3114165" lon="13.2867375"><ele>787.0</ele><time>2026-05-02T16:54:29.863Z</time></trkpt><trkpt lat="42.311336" lon="13.2869117"><ele>789.0</ele><time>2026-05-02T16:54:30.864Z</time></trkpt><trkpt lat="42.3112451" lon="13.2870833"><ele>791.0</ele><time>2026-05-02T16:54:31.864Z</time></trkpt><trkpt lat="42.3111454" lon="13.2872589"><ele>793.0</ele><time>2026-05-02T16:54:32.864Z</time></trkpt><trkpt lat="42.3110362" lon="13.287421"><ele>795.0</ele><time>2026-05-02T16:54:33.863Z</time></trkpt><trkpt lat="42.3109142" lon="13.2875611"><ele>797.0</ele><time>2026-05-02T16:54:34.863Z</time></trkpt><trkpt lat="42.3107903" lon="13.2876757"><ele>797.0</ele><time>2026-05-02T16:54:35.863Z</time></trkpt><trkpt lat="42.3106582" lon="13.2878011"><ele>797.0</ele><time>2026-05-02T16:54:36.864Z</time></trkpt><trkpt lat="42.3105286" lon="13.2879323"><ele>797.0</ele><time>2026-05-02T16:54:37.863Z</time></trkpt><trkpt lat="42.310399" lon="13.2880622"><ele>797.3333333333334</ele><time>2026-05-02T16:54:38.863Z</time></trkpt><trkpt lat="42.3102614" lon="13.2882058"><ele>797.6666666666667</ele><time>2026-05-02T16:54:39.864Z</time></trkpt><trkpt lat="42.3101227" lon="13.2883628"><ele>798.0</ele><time>2026-05-02T16:54:40.863Z</time></trkpt><trkpt lat="42.3099886" lon="13.2885205"><ele>798.0</ele><time>2026-05-02T16:54:41.864Z</time></trkpt><trkpt lat="42.3098526" lon="13.2886733"><ele>798.0</ele><time>2026-05-02T16:54:42.864Z</time></trkpt><trkpt lat="42.3097177" lon="13.2888268"><ele>798.0</ele><time>2026-05-02T16:54:43.864Z</time></trkpt><trkpt lat="42.3095899" lon="13.2889767"><ele>798.0</ele><time>2026-05-02T16:54:44.863Z</time></trkpt><trkpt lat="42.309479" lon="13.2891066"><ele>798.0</ele><time>2026-05-02T16:54:45.863Z</time></trkpt><trkpt lat="42.3093955" lon="13.2892054"><ele>798.0</ele><time>2026-05-02T16:54:46.863Z</time></trkpt><trkpt lat="42.3093324" lon="13.289278"><ele>798.0</ele><time>2026-05-02T16:54:47.863Z</time></trkpt><trkpt lat="42.309256" lon="13.2893632"><ele>798.0</ele><time>2026-05-02T16:54:49.863Z</time></trkpt><trkpt lat="42.3092004" lon="13.2894495"><ele>798.0</ele><time>2026-05-02T16:54:58.864Z</time></trkpt><trkpt lat="42.3091164" lon="13.2895196"><ele>798.0</ele><time>2026-05-02T16:55:00.864Z</time></trkpt><trkpt lat="42.30901" lon="13.2896124"><ele>798.0</ele><time>2026-05-02T16:55:02.864Z</time></trkpt><trkpt lat="42.3089505" lon="13.2896747"><ele>798.0</ele><time>2026-05-02T16:55:03.863Z</time></trkpt><trkpt lat="42.3088904" lon="13.2897396"><ele>798.0</ele><time>2026-05-02T16:55:04.863Z</time></trkpt><trkpt lat="42.3088375" lon="13.2897941"><ele>798.0</ele><time>2026-05-02T16:55:05.864Z</time></trkpt><trkpt lat="42.3087826" lon="13.2898984"><ele>798.6666666666666</ele><time>2026-05-02T16:55:07.863Z</time></trkpt><trkpt lat="42.3087964" lon="13.2900352"><ele>799.3333333333333</ele><time>2026-05-02T16:55:09.864Z</time></trkpt><trkpt lat="42.3088321" lon="13.2901151"><ele>800.0</ele><time>2026-05-02T16:55:10.864Z</time></trkpt><trkpt lat="42.3088843" lon="13.2902082"><ele>800.6666666666666</ele><time>2026-05-02T16:55:11.864Z</time></trkpt><trkpt lat="42.308942" lon="13.2903005"><ele>801.3333333333333</ele><time>2026-05-02T16:55:12.863Z</time></trkpt><trkpt lat="42.309001" lon="13.2903854"><ele>802.0</ele><time>2026-05-02T16:55:13.863Z</time></trkpt><trkpt lat="42.3090526" lon="13.2904658"><ele>801.9999999999999</ele><time>2026-05-02T16:55:14.863Z</time></trkpt><trkpt lat="42.3090988" lon="13.2905316"><ele>802.0</ele><time>2026-05-02T16:55:15.863Z</time></trkpt><trkpt lat="42.3091658" lon="13.2906349"><ele>802.0</ele><time>2026-05-02T16:55:17.863Z</time></trkpt><trkpt lat="42.3091801" lon="13.290722"><ele>802.0</ele><time>2026-05-02T16:55:19.864Z</time></trkpt><trkpt lat="42.3091645" lon="13.290855"><ele>801.9999999999999</ele><time>2026-05-02T16:55:21.863Z</time></trkpt><trkpt lat="42.3091676" lon="13.290943"><ele>802.0</ele><time>2026-05-02T16:55:22.863Z</time></trkpt><trkpt lat="42.3091834" lon="13.2910406"><ele>801.9999999999999</ele><time>2026-05-02T16:55:23.863Z</time></trkpt><trkpt lat="42.3092105" lon="13.2911459"><ele>802.0</ele><time>2026-05-02T16:55:24.863Z</time></trkpt><trkpt lat="42.3092425" lon="13.2912572"><ele>802.0</ele><time>2026-05-02T16:55:25.864Z</time></trkpt><trkpt lat="42.3092679" lon="13.2913676"><ele>802.0</ele><time>2026-05-02T16:55:26.863Z</time></trkpt><trkpt lat="42.3092946" lon="13.2914785"><ele>801.9999999999999</ele><time>2026-05-02T16:55:27.864Z</time></trkpt><trkpt lat="42.3093163" lon="13.2915892"><ele>802.0</ele><time>2026-05-02T16:55:28.863Z</time></trkpt><trkpt lat="42.309335" lon="13.2916984"><ele>801.6666666666666</ele><time>2026-05-02T16:55:29.863Z</time></trkpt><trkpt lat="42.309355" lon="13.2918004"><ele>801.3333333333333</ele><time>2026-05-02T16:55:30.863Z</time></trkpt><trkpt lat="42.3093536" lon="13.2919055"><ele>801.0</ele><time>2026-05-02T16:55:31.863Z</time></trkpt><trkpt lat="42.3093708" lon="13.2920061"><ele>800.6666666666667</ele><time>2026-05-02T16:55:32.864Z</time></trkpt><trkpt lat="42.3093908" lon="13.2921006"><ele>800.3333333333334</ele><time>2026-05-02T16:55:33.864Z</time></trkpt><trkpt lat="42.3094045" lon="13.2921882"><ele>800.0</ele><time>2026-05-02T16:55:34.863Z</time></trkpt><trkpt lat="42.3094168" lon="13.2923412"><ele>799.6</ele><time>2026-05-02T16:55:36.863Z</time></trkpt><trkpt lat="42.309434" lon="13.2924874"><ele>799.2</ele><time>2026-05-02T16:55:38.864Z</time></trkpt><trkpt lat="42.3094844" lon="13.2926341"><ele>798.8</ele><time>2026-05-02T16:55:40.863Z</time></trkpt><trkpt lat="42.3095104" lon="13.2927273"><ele>798.4</ele><time>2026-05-02T16:55:41.863Z</time></trkpt><trkpt lat="42.3095238" lon="13.2928379"><ele>798.0</ele><time>2026-05-02T16:55:42.864Z</time></trkpt><trkpt lat="42.309535" lon="13.2929644"><ele>797.0</ele><time>2026-05-02T16:55:43.863Z</time></trkpt><trkpt lat="42.3095438" lon="13.2930958"><ele>796.0</ele><time>2026-05-02T16:55:44.863Z</time></trkpt><trkpt lat="42.3095564" lon="13.2932272"><ele>795.0</ele><time>2026-05-02T16:55:45.863Z</time></trkpt><trkpt lat="42.3095591" lon="13.2933489"><ele>794.0</ele><time>2026-05-02T16:55:46.864Z</time></trkpt><trkpt lat="42.3095603" lon="13.2934519"><ele>793.0</ele><time>2026-05-02T16:55:47.864Z</time></trkpt><trkpt lat="42.30957" lon="13.2935783"><ele>793.0</ele><time>2026-05-02T16:55:49.864Z</time></trkpt><trkpt lat="42.3096117" lon="13.2936583"><ele>793.0</ele><time>2026-05-02T16:55:51.863Z</time></trkpt><trkpt lat="42.3096833" lon="13.2936583"><ele>793.0</ele><time>2026-05-02T16:55:53.863Z</time></trkpt><trkpt lat="42.3097883" lon="13.2935833"><ele>793.0</ele><time>2026-05-02T16:55:55.864Z</time></trkpt><trkpt lat="42.3099017" lon="13.29353"><ele>793.0</ele><time>2026-05-02T16:55:57.863Z</time></trkpt><trkpt lat="42.3100083" lon="13.2935617"><ele>790.8</ele><time>2026-05-02T16:55:59.863Z</time></trkpt><trkpt lat="42.3100817" lon="13.2936717"><ele>788.5999999999999</ele><time>2026-05-02T16:56:01.864Z</time></trkpt><trkpt lat="42.3101017" lon="13.2938267"><ele>786.4000000000001</ele><time>2026-05-02T16:56:03.863Z</time></trkpt><trkpt lat="42.310045" lon="13.2939633"><ele>784.2</ele><time>2026-05-02T16:56:05.863Z</time></trkpt><trkpt lat="42.31" lon="13.2940233"><ele>782.0</ele><time>2026-05-02T16:56:06.863Z</time></trkpt><trkpt lat="42.3099417" lon="13.294065"><ele>782.1428571428571</ele><time>2026-05-02T16:56:07.864Z</time></trkpt><trkpt lat="42.3098833" lon="13.2941017"><ele>782.2857142857142</ele><time>2026-05-02T16:56:08.863Z</time></trkpt><trkpt lat="42.3098117" lon="13.29413"><ele>782.4285714285713</ele><time>2026-05-02T16:56:09.863Z</time></trkpt><trkpt lat="42.3097367" lon="13.2941567"><ele>782.5714285714286</ele><time>2026-05-02T16:56:10.863Z</time></trkpt><trkpt lat="42.3096583" lon="13.29418"><ele>782.7142857142858</ele><time>2026-05-02T16:56:11.863Z</time></trkpt><trkpt lat="42.309585" lon="13.2942033"><ele>782.8571428571428</ele><time>2026-05-02T16:56:12.864Z</time></trkpt><trkpt lat="42.309525" lon="13.29424"><ele>783.0</ele><time>2026-05-02T16:56:13.863Z</time></trkpt><trkpt lat="42.3094733" lon="13.2942917"><ele>783.0</ele><time>2026-05-02T16:56:14.863Z</time></trkpt><trkpt lat="42.3094133" lon="13.2944217"><ele>783.0</ele><time>2026-05-02T16:56:16.863Z</time></trkpt><trkpt lat="42.3094367" lon="13.2945717"><ele>783.0</ele><time>2026-05-02T16:56:18.863Z</time></trkpt><trkpt lat="42.3094617" lon="13.2946533"><ele>783.0</ele><time>2026-05-02T16:56:19.864Z</time></trkpt><trkpt lat="42.3094833" lon="13.2948033"><ele>783.0</ele><time>2026-05-02T16:56:21.864Z</time></trkpt><trkpt lat="42.3094467" lon="13.2949683"><ele>782.0</ele><time>2026-05-02T16:56:23.864Z</time></trkpt><trkpt lat="42.3093983" lon="13.2950733"><ele>781.0</ele><time>2026-05-02T16:56:24.864Z</time></trkpt><trkpt lat="42.30935" lon="13.2951767"><ele>780.0</ele><time>2026-05-02T16:56:25.863Z</time></trkpt><trkpt lat="42.3093033" lon="13.2952917"><ele>779.0</ele><time>2026-05-02T16:56:26.863Z</time></trkpt><trkpt lat="42.30926" lon="13.295425"><ele>778.0</ele><time>2026-05-02T16:56:27.863Z</time></trkpt><trkpt lat="42.3092183" lon="13.29555"><ele>776.5999999999999</ele><time>2026-05-02T16:56:28.864Z</time></trkpt><trkpt lat="42.3091733" lon="13.295655"><ele>775.1999999999999</ele><time>2026-05-02T16:56:29.863Z</time></trkpt><trkpt lat="42.3091233" lon="13.295755"><ele>773.8</ele><time>2026-05-02T16:56:30.863Z</time></trkpt><trkpt lat="42.3090683" lon="13.29587"><ele>772.4</ele><time>2026-05-02T16:56:31.863Z</time></trkpt><trkpt lat="42.3090117" lon="13.2959733"><ele>771.0</ele><time>2026-05-02T16:56:32.863Z</time></trkpt><trkpt lat="42.3089533" lon="13.2961"><ele>771.5999999999999</ele><time>2026-05-02T16:56:33.863Z</time></trkpt><trkpt lat="42.3089017" lon="13.2962083"><ele>772.2</ele><time>2026-05-02T16:56:34.863Z</time></trkpt><trkpt lat="42.3088467" lon="13.2963317"><ele>772.8</ele><time>2026-05-02T16:56:35.863Z</time></trkpt><trkpt lat="42.3087933" lon="13.2964583"><ele>773.4000000000001</ele><time>2026-05-02T16:56:36.864Z</time></trkpt><trkpt lat="42.3087433" lon="13.2965933"><ele>774.0</ele><time>2026-05-02T16:56:37.863Z</time></trkpt><trkpt lat="42.308695" lon="13.2967233"><ele>774.0</ele><time>2026-05-02T16:56:38.864Z</time></trkpt><trkpt lat="42.308645" lon="13.2968483"><ele>774.0</ele><time>2026-05-02T16:56:39.863Z</time></trkpt><trkpt lat="42.3085783" lon="13.29697"><ele>774.0</ele><time>2026-05-02T16:56:40.863Z</time></trkpt><trkpt lat="42.30851" lon="13.297075"><ele>774.0</ele><time>2026-05-02T16:56:41.864Z</time></trkpt><trkpt lat="42.3084467" lon="13.2971733"><ele>774.0</ele><time>2026-05-02T16:56:42.863Z</time></trkpt><trkpt lat="42.3084" lon="13.297275"><ele>773.4000000000001</ele><time>2026-05-02T16:56:43.863Z</time></trkpt><trkpt lat="42.30836" lon="13.2973833"><ele>772.8</ele><time>2026-05-02T16:56:44.864Z</time></trkpt><trkpt lat="42.308345" lon="13.2975217"><ele>772.2</ele><time>2026-05-02T16:56:45.863Z</time></trkpt><trkpt lat="42.3083467" lon="13.2976633"><ele>771.5999999999999</ele><time>2026-05-02T16:56:46.863Z</time></trkpt><trkpt lat="42.308355" lon="13.2977967"><ele>771.0</ele><time>2026-05-02T16:56:47.863Z</time></trkpt><trkpt lat="42.3083667" lon="13.2979217"><ele>771.0</ele><time>2026-05-02T16:56:48.863Z</time></trkpt><trkpt lat="42.3083717" lon="13.2980617"><ele>771.0</ele><time>2026-05-02T16:56:49.863Z</time></trkpt><trkpt lat="42.3083767" lon="13.2981567"><ele>771.0</ele><time>2026-05-02T16:56:50.864Z</time></trkpt><trkpt lat="42.308355" lon="13.29828"><ele>771.0</ele><time>2026-05-02T16:56:52.863Z</time></trkpt><trkpt lat="42.3082683" lon="13.298385"><ele>771.0</ele><time>2026-05-02T16:56:54.864Z</time></trkpt><trkpt lat="42.3082033" lon="13.29845"><ele>770.5</ele><time>2026-05-02T16:56:55.863Z</time></trkpt><trkpt lat="42.3081417" lon="13.2984983"><ele>770.0</ele><time>2026-05-02T16:56:56.864Z</time></trkpt><trkpt lat="42.3080717" lon="13.2985417"><ele>769.5</ele><time>2026-05-02T16:56:57.863Z</time></trkpt><trkpt lat="42.307985" lon="13.2985733"><ele>769.0</ele><time>2026-05-02T16:56:58.863Z</time></trkpt><trkpt lat="42.3079" lon="13.2985933"><ele>768.5</ele><time>2026-05-02T16:56:59.864Z</time></trkpt><trkpt lat="42.3078217" lon="13.2986067"><ele>768.0</ele><time>2026-05-02T16:57:00.863Z</time></trkpt><trkpt lat="42.3077483" lon="13.2986217"><ele>769.1666666666666</ele><time>2026-05-02T16:57:01.864Z</time></trkpt><trkpt lat="42.30768" lon="13.2986533"><ele>770.3333333333333</ele><time>2026-05-02T16:57:02.863Z</time></trkpt><trkpt lat="42.30762" lon="13.2986967"><ele>771.5</ele><time>2026-05-02T16:57:03.864Z</time></trkpt><trkpt lat="42.3075617" lon="13.2987483"><ele>772.6666666666666</ele><time>2026-05-02T16:57:04.863Z</time></trkpt><trkpt lat="42.3075217" lon="13.2988167"><ele>773.8333333333333</ele><time>2026-05-02T16:57:05.863Z</time></trkpt><trkpt lat="42.3074817" lon="13.2989833"><ele>775.0</ele><time>2026-05-02T16:57:07.864Z</time></trkpt><trkpt lat="42.307455" lon="13.29908"><ele>775.1666666666666</ele><time>2026-05-02T16:57:08.864Z</time></trkpt><trkpt lat="42.3073867" lon="13.29919"><ele>775.3333333333333</ele><time>2026-05-02T16:57:10.863Z</time></trkpt><trkpt lat="42.30728" lon="13.2992483"><ele>775.5</ele><time>2026-05-02T16:57:12.864Z</time></trkpt><trkpt lat="42.3072167" lon="13.2992767"><ele>775.6666666666667</ele><time>2026-05-02T16:57:13.864Z</time></trkpt><trkpt lat="42.30715" lon="13.2992867"><ele>775.8333333333334</ele><time>2026-05-02T16:57:14.864Z</time></trkpt><trkpt lat="42.3070783" lon="13.299275"><ele>776.0</ele><time>2026-05-02T16:57:15.864Z</time></trkpt><trkpt lat="42.307015" lon="13.299265"><ele>776.0000000000001</ele><time>2026-05-02T16:57:16.863Z</time></trkpt><trkpt lat="42.3069367" lon="13.2992717"><ele>776.0</ele><time>2026-05-02T16:57:18.864Z</time></trkpt><trkpt lat="42.306885" lon="13.299345"><ele>776.0</ele><time>2026-05-02T16:57:20.864Z</time></trkpt><trkpt lat="42.306835" lon="13.299425"><ele>776.0</ele><time>2026-05-02T16:57:22.864Z</time></trkpt><trkpt lat="42.3067217" lon="13.29945"><ele>776.0000000000001</ele><time>2026-05-02T16:57:31.863Z</time></trkpt><trkpt lat="42.3066367" lon="13.2994583"><ele>776.0</ele><time>2026-05-02T16:57:33.863Z</time></trkpt><trkpt lat="42.3065806" lon="13.2995223"><ele>776.0</ele><time>2026-05-02T16:57:37.911Z</time></trkpt><trkpt lat="42.3065036" lon="13.2997035"><ele>776.0</ele><time>2026-05-02T16:57:40.863Z</time></trkpt><trkpt lat="42.3064515" lon="13.299772"><ele>776.0</ele><time>2026-05-02T16:57:41.863Z</time></trkpt><trkpt lat="42.3063778" lon="13.2998085"><ele>776.0</ele><time>2026-05-02T16:57:44.903Z</time></trkpt><trkpt lat="42.3062867" lon="13.2998851"><ele>776.0</ele><time>2026-05-02T16:57:46.871Z</time></trkpt><trkpt lat="42.3062254" lon="13.2999874"><ele>776.1999999999999</ele><time>2026-05-02T16:57:48.863Z</time></trkpt><trkpt lat="42.3061593" lon="13.3000597"><ele>776.4</ele><time>2026-05-02T16:57:50.92Z</time></trkpt><trkpt lat="42.3060782" lon="13.3000396"><ele>776.6</ele><time>2026-05-02T16:57:51.935Z</time></trkpt><trkpt lat="42.3059772" lon="13.3000244"><ele>776.8</ele><time>2026-05-02T16:57:53.873Z</time></trkpt><trkpt lat="42.305895" lon="13.3000622"><ele>777.0</ele><time>2026-05-02T16:57:55.864Z</time></trkpt><trkpt lat="42.3058123" lon="13.3001318"><ele>777.0</ele><time>2026-05-02T16:57:57.858Z</time></trkpt><trkpt lat="42.3056924" lon="13.3001716"><ele>777.0</ele><time>2026-05-02T16:57:58.863Z</time></trkpt><trkpt lat="42.3056148" lon="13.3002038"><ele>777.0</ele><time>2026-05-02T16:57:59.863Z</time></trkpt><trkpt lat="42.3055479" lon="13.3002425"><ele>777.0</ele><time>2026-05-02T16:58:00.864Z</time></trkpt><trkpt lat="42.305495" lon="13.3003017"><ele>777.0</ele><time>2026-05-02T16:58:01.864Z</time></trkpt><trkpt lat="42.305425" lon="13.30038"><ele>777.0</ele><time>2026-05-02T16:58:03.864Z</time></trkpt><trkpt lat="42.3053383" lon="13.30044"><ele>777.3333333333334</ele><time>2026-05-02T16:58:05.864Z</time></trkpt><trkpt lat="42.30528" lon="13.300475"><ele>777.6666666666667</ele><time>2026-05-02T16:58:06.864Z</time></trkpt><trkpt lat="42.3052167" lon="13.3005183"><ele>778.0</ele><time>2026-05-02T16:58:07.864Z</time></trkpt><trkpt lat="42.3051517" lon="13.30057"><ele>778.3333333333334</ele><time>2026-05-02T16:58:08.864Z</time></trkpt><trkpt lat="42.30508" lon="13.3006217"><ele>778.6666666666667</ele><time>2026-05-02T16:58:09.864Z</time></trkpt><trkpt lat="42.3050067" lon="13.3006717"><ele>779.0</ele><time>2026-05-02T16:58:10.863Z</time></trkpt><trkpt lat="42.3049217" lon="13.3007267"><ele>779.0</ele><time>2026-05-02T16:58:11.864Z</time></trkpt><trkpt lat="42.30484" lon="13.3007783"><ele>779.0</ele><time>2026-05-02T16:58:12.864Z</time></trkpt><trkpt lat="42.3047517" lon="13.3008383"><ele>779.0</ele><time>2026-05-02T16:58:13.864Z</time></trkpt><trkpt lat="42.3046817" lon="13.3008833"><ele>779.0</ele><time>2026-05-02T16:58:14.863Z</time></trkpt><trkpt lat="42.3045767" lon="13.300915"><ele>779.0</ele><time>2026-05-02T16:58:16.864Z</time></trkpt><trkpt lat="42.3044583" lon="13.30091"><ele>779.2</ele><time>2026-05-02T16:58:18.864Z</time></trkpt><trkpt lat="42.3043417" lon="13.3009017"><ele>779.4000000000001</ele><time>2026-05-02T16:58:20.863Z</time></trkpt><trkpt lat="42.304225" lon="13.300945"><ele>779.6</ele><time>2026-05-02T16:58:22.863Z</time></trkpt><trkpt lat="42.3041717" lon="13.301005"><ele>779.8</ele><time>2026-05-02T16:58:23.864Z</time></trkpt><trkpt lat="42.3041183" lon="13.30108"><ele>780.0</ele><time>2026-05-02T16:58:24.864Z</time></trkpt><trkpt lat="42.304065" lon="13.3011717"><ele>780.0</ele><time>2026-05-02T16:58:25.863Z</time></trkpt><trkpt lat="42.3040017" lon="13.3012567"><ele>780.0</ele><time>2026-05-02T16:58:26.863Z</time></trkpt><trkpt lat="42.3039383" lon="13.3013333"><ele>780.0</ele><time>2026-05-02T16:58:27.863Z</time></trkpt><trkpt lat="42.3038817" lon="13.3013883"><ele>780.0</ele><time>2026-05-02T16:58:28.863Z</time></trkpt><trkpt lat="42.303825" lon="13.3014333"><ele>780.0</ele><time>2026-05-02T16:58:29.863Z</time></trkpt><trkpt lat="42.3037017" lon="13.3014317"><ele>780.0</ele><time>2026-05-02T16:58:31.864Z</time></trkpt><trkpt lat="42.303585" lon="13.3013867"><ele>780.8333333333334</ele><time>2026-05-02T16:58:33.863Z</time></trkpt><trkpt lat="42.3034683" lon="13.3014183"><ele>781.6666666666667</ele><time>2026-05-02T16:58:35.864Z</time></trkpt><trkpt lat="42.303405" lon="13.30146"><ele>782.5</ele><time>2026-05-02T16:58:36.864Z</time></trkpt><trkpt lat="42.303345" lon="13.301505"><ele>783.3333333333334</ele><time>2026-05-02T16:58:37.864Z</time></trkpt><trkpt lat="42.3032833" lon="13.301525"><ele>784.1666666666667</ele><time>2026-05-02T16:58:38.864Z</time></trkpt><trkpt lat="42.3031783" lon="13.3015333"><ele>785.0</ele><time>2026-05-02T16:58:40.864Z</time></trkpt><trkpt lat="42.303105" lon="13.3015433"><ele>785.3333333333334</ele><time>2026-05-02T16:58:41.863Z</time></trkpt><trkpt lat="42.3030267" lon="13.3015533"><ele>785.6666666666667</ele><time>2026-05-02T16:58:42.864Z</time></trkpt><trkpt lat="42.3029417" lon="13.30157"><ele>786.0</ele><time>2026-05-02T16:58:43.863Z</time></trkpt><trkpt lat="42.3028683" lon="13.30159"><ele>786.3333333333333</ele><time>2026-05-02T16:58:44.863Z</time></trkpt><trkpt lat="42.3027983" lon="13.301625"><ele>786.6666666666666</ele><time>2026-05-02T16:58:45.863Z</time></trkpt><trkpt lat="42.302735" lon="13.3016683"><ele>787.0</ele><time>2026-05-02T16:58:46.863Z</time></trkpt><trkpt lat="42.302625" lon="13.3016967"><ele>786.9999999999999</ele><time>2026-05-02T16:58:48.863Z</time></trkpt><trkpt lat="42.3025133" lon="13.30168"><ele>787.0</ele><time>2026-05-02T16:58:50.864Z</time></trkpt><trkpt lat="42.3024" lon="13.3017167"><ele>787.0</ele><time>2026-05-02T16:58:52.864Z</time></trkpt><trkpt lat="42.3023383" lon="13.30176"><ele>787.0</ele><time>2026-05-02T16:58:53.863Z</time></trkpt><trkpt lat="42.3022767" lon="13.3018033"><ele>786.9999999999999</ele><time>2026-05-02T16:58:54.864Z</time></trkpt><trkpt lat="42.3022033" lon="13.301835"><ele>787.0</ele><time>2026-05-02T16:58:55.863Z</time></trkpt><trkpt lat="42.3021267" lon="13.3018533"><ele>786.9999999999999</ele><time>2026-05-02T16:58:56.864Z</time></trkpt><trkpt lat="42.302035" lon="13.3018733"><ele>787.0</ele><time>2026-05-02T16:58:58.863Z</time></trkpt><trkpt lat="42.3019733" lon="13.3019433"><ele>787.0</ele><time>2026-05-02T16:59:00.863Z</time></trkpt><trkpt lat="42.301915" lon="13.302065"><ele>787.0</ele><time>2026-05-02T16:59:02.864Z</time></trkpt><trkpt lat="42.301875" lon="13.30218"><ele>786.9999999999999</ele><time>2026-05-02T16:59:04.863Z</time></trkpt><trkpt lat="42.3018467" lon="13.30226"><ele>787.0</ele><time>2026-05-02T16:59:06.863Z</time></trkpt><trkpt lat="42.3019133" lon="13.30233"><ele>787.9999999999999</ele><time>2026-05-02T16:59:11.864Z</time></trkpt><trkpt lat="42.3020133" lon="13.3024467"><ele>789.0</ele><time>2026-05-02T16:59:13.864Z</time></trkpt><trkpt lat="42.3020517" lon="13.30253"><ele>790.0</ele><time>2026-05-02T16:59:14.864Z</time></trkpt><trkpt lat="42.3020933" lon="13.3026"><ele>791.0</ele><time>2026-05-02T16:59:15.864Z</time></trkpt><trkpt lat="42.3021583" lon="13.3026433"><ele>791.9999999999999</ele><time>2026-05-02T16:59:16.863Z</time></trkpt><trkpt lat="42.302235" lon="13.3026683"><ele>793.0</ele><time>2026-05-02T16:59:17.864Z</time></trkpt><trkpt lat="42.3023267" lon="13.30269"><ele>793.0</ele><time>2026-05-02T16:59:18.864Z</time></trkpt><trkpt lat="42.30242" lon="13.30272"><ele>793.0</ele><time>2026-05-02T16:59:19.864Z</time></trkpt><trkpt lat="42.3025167" lon="13.3027617"><ele>793.0</ele><time>2026-05-02T16:59:20.864Z</time></trkpt><trkpt lat="42.3026083" lon="13.3028083"><ele>793.0</ele><time>2026-05-02T16:59:21.864Z</time></trkpt><trkpt lat="42.302705" lon="13.3028617"><ele>793.0</ele><time>2026-05-02T16:59:22.864Z</time></trkpt><trkpt lat="42.3028167" lon="13.3028867"><ele>793.0</ele><time>2026-05-02T16:59:23.863Z</time></trkpt><trkpt lat="42.3029317" lon="13.3028717"><ele>793.0</ele><time>2026-05-02T16:59:24.864Z</time></trkpt><trkpt lat="42.30306" lon="13.3028417"><ele>793.0</ele><time>2026-05-02T16:59:25.863Z</time></trkpt><trkpt lat="42.3031833" lon="13.3028133"><ele>793.0</ele><time>2026-05-02T16:59:26.864Z</time></trkpt><trkpt lat="42.30331" lon="13.3027883"><ele>793.0</ele><time>2026-05-02T16:59:27.863Z</time></trkpt><trkpt lat="42.3034283" lon="13.3027583"><ele>793.0</ele><time>2026-05-02T16:59:28.864Z</time></trkpt><trkpt lat="42.30355" lon="13.302735"><ele>793.0</ele><time>2026-05-02T16:59:29.863Z</time></trkpt><trkpt lat="42.303685" lon="13.30271"><ele>793.0</ele><time>2026-05-02T16:59:30.863Z</time></trkpt><trkpt lat="42.3038333" lon="13.302705"><ele>794.3333333333333</ele><time>2026-05-02T16:59:31.863Z</time></trkpt><trkpt lat="42.3039917" lon="13.30272"><ele>795.6666666666667</ele><time>2026-05-02T16:59:32.863Z</time></trkpt><trkpt lat="42.3041467" lon="13.3027483"><ele>797.0</ele><time>2026-05-02T16:59:33.863Z</time></trkpt><trkpt lat="42.30429" lon="13.3027817"><ele>797.0</ele><time>2026-05-02T16:59:34.864Z</time></trkpt><trkpt lat="42.304445" lon="13.302795"><ele>797.0</ele><time>2026-05-02T16:59:35.863Z</time></trkpt><trkpt lat="42.3046067" lon="13.3027633"><ele>797.0</ele><time>2026-05-02T16:59:36.864Z</time></trkpt><trkpt lat="42.3047733" lon="13.302695"><ele>798.75</ele><time>2026-05-02T16:59:37.863Z</time></trkpt><trkpt lat="42.304925" lon="13.3026217"><ele>800.5</ele><time>2026-05-02T16:59:38.863Z</time></trkpt><trkpt lat="42.305055" lon="13.302575"><ele>802.25</ele><time>2026-05-02T16:59:39.863Z</time></trkpt><trkpt lat="42.3051533" lon="13.302535"><ele>804.0</ele><time>2026-05-02T16:59:40.864Z</time></trkpt><trkpt lat="42.30524" lon="13.3025083"><ele>804.0</ele><time>2026-05-02T16:59:41.864Z</time></trkpt><trkpt lat="42.30532" lon="13.302475"><ele>804.0</ele><time>2026-05-02T16:59:42.864Z</time></trkpt><trkpt lat="42.3054017" lon="13.3024533"><ele>804.0</ele><time>2026-05-02T16:59:43.863Z</time></trkpt><trkpt lat="42.30551" lon="13.3024217"><ele>804.0</ele><time>2026-05-02T16:59:44.863Z</time></trkpt><trkpt lat="42.305635" lon="13.3023967"><ele>804.0</ele><time>2026-05-02T16:59:45.864Z</time></trkpt><trkpt lat="42.305785" lon="13.3023633"><ele>804.6666666666667</ele><time>2026-05-02T16:59:46.864Z</time></trkpt><trkpt lat="42.305945" lon="13.3023233"><ele>805.3333333333334</ele><time>2026-05-02T16:59:47.863Z</time></trkpt><trkpt lat="42.306115" lon="13.3022783"><ele>806.0</ele><time>2026-05-02T16:59:48.863Z</time></trkpt><trkpt lat="42.30629" lon="13.3022267"><ele>803.0</ele><time>2026-05-02T16:59:49.864Z</time></trkpt><trkpt lat="42.3064583" lon="13.3021583"><ele>800.0</ele><time>2026-05-02T16:59:50.863Z</time></trkpt><trkpt lat="42.306625" lon="13.3020717"><ele>797.0</ele><time>2026-05-02T16:59:51.864Z</time></trkpt><trkpt lat="42.3068" lon="13.30199"><ele>797.0</ele><time>2026-05-02T16:59:52.864Z</time></trkpt><trkpt lat="42.3069767" lon="13.3019183"><ele>797.0</ele><time>2026-05-02T16:59:53.864Z</time></trkpt><trkpt lat="42.3071483" lon="13.3018633"><ele>797.0</ele><time>2026-05-02T16:59:54.864Z</time></trkpt><trkpt lat="42.3073233" lon="13.3018083"><ele>798.0</ele><time>2026-05-02T16:59:55.863Z</time></trkpt><trkpt lat="42.3075033" lon="13.3017617"><ele>799.0</ele><time>2026-05-02T16:59:56.863Z</time></trkpt><trkpt lat="42.3076767" lon="13.3017083"><ele>800.0</ele><time>2026-05-02T16:59:57.864Z</time></trkpt><trkpt lat="42.307845" lon="13.301655"><ele>800.0</ele><time>2026-05-02T16:59:58.863Z</time></trkpt><trkpt lat="42.3080167" lon="13.3015633"><ele>800.0</ele><time>2026-05-02T16:59:59.864Z</time></trkpt><trkpt lat="42.3081667" lon="13.3014533"><ele>800.0</ele><time>2026-05-02T17:00:00.864Z</time></trkpt><trkpt lat="42.3082867" lon="13.3012867"><ele>799.0</ele><time>2026-05-02T17:00:01.863Z</time></trkpt><trkpt lat="42.3083967" lon="13.301125"><ele>798.0</ele><time>2026-05-02T17:00:02.863Z</time></trkpt><trkpt lat="42.3085083" lon="13.300995"><ele>797.0</ele><time>2026-05-02T17:00:03.863Z</time></trkpt><trkpt lat="42.30863" lon="13.30084"><ele>797.0</ele><time>2026-05-02T17:00:04.863Z</time></trkpt><trkpt lat="42.3087629" lon="13.3007137"><ele>797.0</ele><time>2026-05-02T17:00:05.863Z</time></trkpt><trkpt lat="42.3089083" lon="13.3006027"><ele>797.0</ele><time>2026-05-02T17:00:06.863Z</time></trkpt><trkpt lat="42.3090584" lon="13.300498"><ele>796.3333333333334</ele><time>2026-05-02T17:00:07.863Z</time></trkpt><trkpt lat="42.3092123" lon="13.3004062"><ele>795.6666666666667</ele><time>2026-05-02T17:00:08.863Z</time></trkpt><trkpt lat="42.3093662" lon="13.3003338"><ele>795.0</ele><time>2026-05-02T17:00:09.864Z</time></trkpt><trkpt lat="42.3095272" lon="13.3002801"><ele>795.0</ele><time>2026-05-02T17:00:10.864Z</time></trkpt><trkpt lat="42.3096851" lon="13.3002429"><ele>795.0</ele><time>2026-05-02T17:00:11.863Z</time></trkpt><trkpt lat="42.3098335" lon="13.3002054"><ele>795.0</ele><time>2026-05-02T17:00:12.863Z</time></trkpt><trkpt lat="42.3099687" lon="13.3001447"><ele>797.25</ele><time>2026-05-02T17:00:13.863Z</time></trkpt><trkpt lat="42.3100798" lon="13.3000541"><ele>799.5</ele><time>2026-05-02T17:00:14.864Z</time></trkpt><trkpt lat="42.3101613" lon="13.2999377"><ele>801.75</ele><time>2026-05-02T17:00:15.864Z</time></trkpt><trkpt lat="42.3102299" lon="13.2998007"><ele>804.0</ele><time>2026-05-02T17:00:16.864Z</time></trkpt><trkpt lat="42.3102878" lon="13.2996626"><ele>804.0</ele><time>2026-05-02T17:00:17.863Z</time></trkpt><trkpt lat="42.3103445" lon="13.2995319"><ele>804.0</ele><time>2026-05-02T17:00:18.864Z</time></trkpt><trkpt lat="42.3104156" lon="13.2994205"><ele>804.0</ele><time>2026-05-02T17:00:19.863Z</time></trkpt><trkpt lat="42.3104914" lon="13.2993196"><ele>804.0</ele><time>2026-05-02T17:00:20.864Z</time></trkpt><trkpt lat="42.3105744" lon="13.2992296"><ele>804.0</ele><time>2026-05-02T17:00:21.863Z</time></trkpt><trkpt lat="42.3106623" lon="13.2991493"><ele>805.2</ele><time>2026-05-02T17:00:22.863Z</time></trkpt><trkpt lat="42.3107542" lon="13.2990685"><ele>806.4000000000001</ele><time>2026-05-02T17:00:23.864Z</time></trkpt><trkpt lat="42.3108425" lon="13.2989934"><ele>807.6</ele><time>2026-05-02T17:00:24.863Z</time></trkpt><trkpt lat="42.3109279" lon="13.2989261"><ele>808.8</ele><time>2026-05-02T17:00:25.863Z</time></trkpt><trkpt lat="42.3110134" lon="13.2988626"><ele>810.0</ele><time>2026-05-02T17:00:26.864Z</time></trkpt><trkpt lat="42.3110963" lon="13.2988096"><ele>810.0</ele><time>2026-05-02T17:00:27.863Z</time></trkpt><trkpt lat="42.3111796" lon="13.2987511"><ele>810.0</ele><time>2026-05-02T17:00:28.864Z</time></trkpt><trkpt lat="42.3112662" lon="13.2986863"><ele>810.0</ele><time>2026-05-02T17:00:29.863Z</time></trkpt><trkpt lat="42.3113519" lon="13.2986262"><ele>810.0</ele><time>2026-05-02T17:00:30.863Z</time></trkpt><trkpt lat="42.3114342" lon="13.2985557"><ele>810.0</ele><time>2026-05-02T17:00:31.863Z</time></trkpt><trkpt lat="42.3115208" lon="13.2985004"><ele>810.4</ele><time>2026-05-02T17:00:32.863Z</time></trkpt><trkpt lat="42.3116076" lon="13.2984525"><ele>810.8</ele><time>2026-05-02T17:00:33.864Z</time></trkpt><trkpt lat="42.3116987" lon="13.2984047"><ele>811.2</ele><time>2026-05-02T17:00:34.863Z</time></trkpt><trkpt lat="42.3117871" lon="13.2983545"><ele>811.6</ele><time>2026-05-02T17:00:35.864Z</time></trkpt><trkpt lat="42.3118755" lon="13.2983045"><ele>812.0</ele><time>2026-05-02T17:00:36.863Z</time></trkpt><trkpt lat="42.3119644" lon="13.2982662"><ele>812.0</ele><time>2026-05-02T17:00:37.863Z</time></trkpt><trkpt lat="42.3120542" lon="13.2982386"><ele>812.0</ele><time>2026-05-02T17:00:38.863Z</time></trkpt><trkpt lat="42.3121481" lon="13.2982163"><ele>812.0</ele><time>2026-05-02T17:00:39.863Z</time></trkpt><trkpt lat="42.3122403" lon="13.2981936"><ele>812.0</ele><time>2026-05-02T17:00:40.864Z</time></trkpt><trkpt lat="42.3123315" lon="13.2981817"><ele>812.0</ele><time>2026-05-02T17:00:41.864Z</time></trkpt><trkpt lat="42.3124135" lon="13.2981676"><ele>811.8333333333334</ele><time>2026-05-02T17:00:42.863Z</time></trkpt><trkpt lat="42.3124896" lon="13.2981598"><ele>811.6666666666667</ele><time>2026-05-02T17:00:43.863Z</time></trkpt><trkpt lat="42.312561" lon="13.2981451"><ele>811.5</ele><time>2026-05-02T17:00:44.863Z</time></trkpt><trkpt lat="42.312625" lon="13.2981283"><ele>811.3333333333333</ele><time>2026-05-02T17:00:45.864Z</time></trkpt><trkpt lat="42.31273" lon="13.29811"><ele>811.1666666666666</ele><time>2026-05-02T17:00:47.863Z</time></trkpt><trkpt lat="42.31282" lon="13.2981067"><ele>811.0</ele><time>2026-05-02T17:00:49.864Z</time></trkpt><trkpt lat="42.3129317" lon="13.298095"><ele>810.8</ele><time>2026-05-02T17:00:51.863Z</time></trkpt><trkpt lat="42.313035" lon="13.2980817"><ele>810.5999999999999</ele><time>2026-05-02T17:00:53.864Z</time></trkpt><trkpt lat="42.313135" lon="13.2980467"><ele>810.4</ele><time>2026-05-02T17:00:55.863Z</time></trkpt><trkpt lat="42.3132" lon="13.29801"><ele>810.2</ele><time>2026-05-02T17:00:56.864Z</time></trkpt><trkpt lat="42.3132933" lon="13.2979733"><ele>810.0</ele><time>2026-05-02T17:00:58.863Z</time></trkpt><trkpt lat="42.3133883" lon="13.297935"><ele>809.6666666666666</ele><time>2026-05-02T17:01:00.863Z</time></trkpt><trkpt lat="42.3134467" lon="13.2978983"><ele>809.3333333333333</ele><time>2026-05-02T17:01:01.863Z</time></trkpt><trkpt lat="42.3135067" lon="13.29786"><ele>809.0</ele><time>2026-05-02T17:01:02.864Z</time></trkpt><trkpt lat="42.313605" lon="13.2978033"><ele>808.6666666666666</ele><time>2026-05-02T17:01:04.863Z</time></trkpt><trkpt lat="42.313675" lon="13.2977533"><ele>808.3333333333333</ele><time>2026-05-02T17:01:06.863Z</time></trkpt><trkpt lat="42.3137617" lon="13.2976833"><ele>808.0</ele><time>2026-05-02T17:01:09.864Z</time></trkpt><trkpt lat="42.3138583" lon="13.2976533"><ele>807.4999999999999</ele><time>2026-05-02T17:01:11.863Z</time></trkpt><trkpt lat="42.3139717" lon="13.2976167"><ele>807.0</ele><time>2026-05-02T17:01:13.863Z</time></trkpt><trkpt lat="42.3140483" lon="13.2976283"><ele>806.5</ele><time>2026-05-02T17:01:15.863Z</time></trkpt><trkpt lat="42.3140967" lon="13.297735"><ele>806.0</ele><time>2026-05-02T17:01:17.863Z</time></trkpt><trkpt lat="42.3141067" lon="13.2978217"><ele>805.4999999999999</ele><time>2026-05-02T17:01:18.864Z</time></trkpt><trkpt lat="42.31411" lon="13.2979183"><ele>805.0</ele><time>2026-05-02T17:01:19.864Z</time></trkpt><trkpt lat="42.314125" lon="13.298025"><ele>804.9999999999999</ele><time>2026-05-02T17:01:20.863Z</time></trkpt><trkpt lat="42.3141417" lon="13.2981317"><ele>805.0</ele><time>2026-05-02T17:01:21.864Z</time></trkpt><trkpt lat="42.31416" lon="13.2982433"><ele>805.0</ele><time>2026-05-02T17:01:22.864Z</time></trkpt><trkpt lat="42.3141833" lon="13.298355"><ele>805.0</ele><time>2026-05-02T17:01:23.863Z</time></trkpt><trkpt lat="42.31421" lon="13.2984617"><ele>804.9999999999999</ele><time>2026-05-02T17:01:24.863Z</time></trkpt><trkpt lat="42.314235" lon="13.2985667"><ele>805.0</ele><time>2026-05-02T17:01:25.864Z</time></trkpt><trkpt lat="42.3142567" lon="13.2986733"><ele>805.0</ele><time>2026-05-02T17:01:26.863Z</time></trkpt><trkpt lat="42.31428" lon="13.2987767"><ele>805.0</ele><time>2026-05-02T17:01:27.863Z</time></trkpt><trkpt lat="42.3143083" lon="13.2988717"><ele>805.0</ele><time>2026-05-02T17:01:28.864Z</time></trkpt><trkpt lat="42.314335" lon="13.29897"><ele>805.0</ele><time>2026-05-02T17:01:29.863Z</time></trkpt><trkpt lat="42.3143467" lon="13.2990633"><ele>805.0</ele><time>2026-05-02T17:01:30.864Z</time></trkpt><trkpt lat="42.3143633" lon="13.2991533"><ele>805.0</ele><time>2026-05-02T17:01:31.863Z</time></trkpt><trkpt lat="42.3143917" lon="13.29924"><ele>805.0</ele><time>2026-05-02T17:01:32.863Z</time></trkpt><trkpt lat="42.3144417" lon="13.2993033"><ele>804.0</ele><time>2026-05-02T17:01:33.863Z</time></trkpt><trkpt lat="42.3145117" lon="13.2993533"><ele>803.0</ele><time>2026-05-02T17:01:34.864Z</time></trkpt><trkpt lat="42.3146017" lon="13.2993917"><ele>802.0</ele><time>2026-05-02T17:01:35.864Z</time></trkpt><trkpt lat="42.3147067" lon="13.2994167"><ele>801.0</ele><time>2026-05-02T17:01:36.863Z</time></trkpt><trkpt lat="42.314825" lon="13.2994267"><ele>800.0</ele><time>2026-05-02T17:01:37.863Z</time></trkpt><trkpt lat="42.3149367" lon="13.2994383"><ele>798.4</ele><time>2026-05-02T17:01:38.863Z</time></trkpt><trkpt lat="42.31506" lon="13.299445"><ele>796.8</ele><time>2026-05-02T17:01:39.863Z</time></trkpt><trkpt lat="42.3151683" lon="13.29945"><ele>795.2</ele><time>2026-05-02T17:01:40.863Z</time></trkpt><trkpt lat="42.3152717" lon="13.299445"><ele>793.6</ele><time>2026-05-02T17:01:41.864Z</time></trkpt><trkpt lat="42.3153683" lon="13.2994467"><ele>792.0</ele><time>2026-05-02T17:01:42.864Z</time></trkpt><trkpt lat="42.3154517" lon="13.2994533"><ele>792.0</ele><time>2026-05-02T17:01:43.863Z</time></trkpt><trkpt lat="42.315535" lon="13.2994667"><ele>792.0</ele><time>2026-05-02T17:01:44.864Z</time></trkpt><trkpt lat="42.31562" lon="13.299515"><ele>792.0</ele><time>2026-05-02T17:01:45.864Z</time></trkpt><trkpt lat="42.3157117" lon="13.2995867"><ele>792.0</ele><time>2026-05-02T17:01:46.864Z</time></trkpt><trkpt lat="42.3158" lon="13.29967"><ele>792.0</ele><time>2026-05-02T17:01:47.863Z</time></trkpt><trkpt lat="42.3158933" lon="13.2997533"><ele>791.0</ele><time>2026-05-02T17:01:48.864Z</time></trkpt><trkpt lat="42.315995" lon="13.2998317"><ele>790.0</ele><time>2026-05-02T17:01:49.864Z</time></trkpt><trkpt lat="42.3160967" lon="13.299895"><ele>789.0</ele><time>2026-05-02T17:01:50.863Z</time></trkpt><trkpt lat="42.3162167" lon="13.2999433"><ele>788.0</ele><time>2026-05-02T17:01:51.864Z</time></trkpt><trkpt lat="42.3163467" lon="13.29996"><ele>788.75</ele><time>2026-05-02T17:01:52.864Z</time></trkpt><trkpt lat="42.3164867" lon="13.299965"><ele>789.5</ele><time>2026-05-02T17:01:53.863Z</time></trkpt><trkpt lat="42.3166317" lon="13.2999667"><ele>790.25</ele><time>2026-05-02T17:01:54.864Z</time></trkpt><trkpt lat="42.3167883" lon="13.2999583"><ele>791.0</ele><time>2026-05-02T17:01:55.863Z</time></trkpt><trkpt lat="42.3169533" lon="13.2999583"><ele>791.0</ele><time>2026-05-02T17:01:56.863Z</time></trkpt><trkpt lat="42.3171133" lon="13.299965"><ele>791.0</ele><time>2026-05-02T17:01:57.863Z</time></trkpt><trkpt lat="42.3172667" lon="13.299975"><ele>791.0</ele><time>2026-05-02T17:01:58.863Z</time></trkpt><trkpt lat="42.317415" lon="13.299985"><ele>791.5</ele><time>2026-05-02T17:01:59.864Z</time></trkpt><trkpt lat="42.3175467" lon="13.29999"><ele>792.0</ele><time>2026-05-02T17:02:00.863Z</time></trkpt><trkpt lat="42.31767" lon="13.30001"><ele>792.5</ele><time>2026-05-02T17:02:01.863Z</time></trkpt><trkpt lat="42.3177883" lon="13.300045"><ele>793.0</ele><time>2026-05-02T17:02:02.864Z</time></trkpt><trkpt lat="42.3178767" lon="13.3000783"><ele>793.0</ele><time>2026-05-02T17:02:03.864Z</time></trkpt><trkpt lat="42.3179483" lon="13.300165"><ele>793.0</ele><time>2026-05-02T17:02:04.863Z</time></trkpt><trkpt lat="42.318015" lon="13.3002917"><ele>793.0</ele><time>2026-05-02T17:02:05.863Z</time></trkpt><trkpt lat="42.318095" lon="13.3004383"><ele>793.0</ele><time>2026-05-02T17:02:06.863Z</time></trkpt><trkpt lat="42.3181883" lon="13.300585"><ele>796.0</ele><time>2026-05-02T17:02:07.863Z</time></trkpt><trkpt lat="42.3183" lon="13.3007283"><ele>799.0</ele><time>2026-05-02T17:02:08.863Z</time></trkpt><trkpt lat="42.3184083" lon="13.300855"><ele>802.0</ele><time>2026-05-02T17:02:09.863Z</time></trkpt><trkpt lat="42.3185167" lon="13.300955"><ele>805.0</ele><time>2026-05-02T17:02:10.863Z</time></trkpt><trkpt lat="42.3186117" lon="13.30104"><ele>804.9999999999999</ele><time>2026-05-02T17:02:11.864Z</time></trkpt><trkpt lat="42.3187033" lon="13.3011"><ele>805.0</ele><time>2026-05-02T17:02:12.864Z</time></trkpt><trkpt lat="42.3187817" lon="13.301155"><ele>805.0</ele><time>2026-05-02T17:02:13.864Z</time></trkpt><trkpt lat="42.3188433" lon="13.3011933"><ele>805.0</ele><time>2026-05-02T17:02:14.863Z</time></trkpt><trkpt lat="42.3189167" lon="13.3012633"><ele>804.9999999999999</ele><time>2026-05-02T17:02:16.863Z</time></trkpt><trkpt lat="42.3189133" lon="13.3013767"><ele>805.0</ele><time>2026-05-02T17:02:18.864Z</time></trkpt><trkpt lat="42.3188617" lon="13.3014883"><ele>806.75</ele><time>2026-05-02T17:02:20.864Z</time></trkpt><trkpt lat="42.31878" lon="13.301645"><ele>808.5</ele><time>2026-05-02T17:02:22.864Z</time></trkpt><trkpt lat="42.3187217" lon="13.3017467"><ele>810.25</ele><time>2026-05-02T17:02:23.863Z</time></trkpt><trkpt lat="42.3186583" lon="13.30188"><ele>812.0</ele><time>2026-05-02T17:02:24.863Z</time></trkpt><trkpt lat="42.31859" lon="13.3020283"><ele>812.0</ele><time>2026-05-02T17:02:25.863Z</time></trkpt><trkpt lat="42.31852" lon="13.3021867"><ele>812.0</ele><time>2026-05-02T17:02:26.864Z</time></trkpt><trkpt lat="42.31845" lon="13.30234"><ele>812.0</ele><time>2026-05-02T17:02:27.863Z</time></trkpt><trkpt lat="42.3183867" lon="13.302475"><ele>812.0</ele><time>2026-05-02T17:02:28.863Z</time></trkpt><trkpt lat="42.31832" lon="13.3026117"><ele>810.75</ele><time>2026-05-02T17:02:29.864Z</time></trkpt><trkpt lat="42.3182583" lon="13.3027617"><ele>809.5</ele><time>2026-05-02T17:02:30.863Z</time></trkpt><trkpt lat="42.3182017" lon="13.3029183"><ele>808.25</ele><time>2026-05-02T17:02:31.864Z</time></trkpt><trkpt lat="42.3181517" lon="13.3030867"><ele>807.0</ele><time>2026-05-02T17:02:32.864Z</time></trkpt><trkpt lat="42.3181033" lon="13.30327"><ele>812.25</ele><time>2026-05-02T17:02:33.864Z</time></trkpt><trkpt lat="42.3180567" lon="13.30344"><ele>817.5</ele><time>2026-05-02T17:02:34.864Z</time></trkpt><trkpt lat="42.318005" lon="13.3036"><ele>822.75</ele><time>2026-05-02T17:02:35.863Z</time></trkpt><trkpt lat="42.3179517" lon="13.3037567"><ele>828.0</ele><time>2026-05-02T17:02:36.863Z</time></trkpt><trkpt lat="42.3179033" lon="13.3039133"><ele>825.75</ele><time>2026-05-02T17:02:37.864Z</time></trkpt><trkpt lat="42.3178533" lon="13.3040767"><ele>823.5</ele><time>2026-05-02T17:02:38.864Z</time></trkpt><trkpt lat="42.3178017" lon="13.304235"><ele>821.25</ele><time>2026-05-02T17:02:39.863Z</time></trkpt><trkpt lat="42.31775" lon="13.3043917"><ele>819.0</ele><time>2026-05-02T17:02:40.864Z</time></trkpt><trkpt lat="42.3176967" lon="13.3045383"><ele>819.0</ele><time>2026-05-02T17:02:41.863Z</time></trkpt><trkpt lat="42.31763" lon="13.30469"><ele>819.0</ele><time>2026-05-02T17:02:42.864Z</time></trkpt><trkpt lat="42.3175683" lon="13.30484"><ele>819.0</ele><time>2026-05-02T17:02:43.863Z</time></trkpt><trkpt lat="42.3175067" lon="13.30497"><ele>819.0</ele><time>2026-05-02T17:02:44.864Z</time></trkpt><trkpt lat="42.3174333" lon="13.3050917"><ele>819.4000000000001</ele><time>2026-05-02T17:02:45.863Z</time></trkpt><trkpt lat="42.3173683" lon="13.3052117"><ele>819.8</ele><time>2026-05-02T17:02:46.863Z</time></trkpt><trkpt lat="42.31731" lon="13.3053383"><ele>820.2</ele><time>2026-05-02T17:02:47.863Z</time></trkpt><trkpt lat="42.3172517" lon="13.305455"><ele>820.5999999999999</ele><time>2026-05-02T17:02:48.864Z</time></trkpt><trkpt lat="42.31721" lon="13.3055883"><ele>821.0</ele><time>2026-05-02T17:02:49.864Z</time></trkpt><trkpt lat="42.317175" lon="13.3057417"><ele>821.0</ele><time>2026-05-02T17:02:50.863Z</time></trkpt><trkpt lat="42.31716" lon="13.3059033"><ele>821.0</ele><time>2026-05-02T17:02:51.864Z</time></trkpt><trkpt lat="42.31715" lon="13.3060667"><ele>821.0</ele><time>2026-05-02T17:02:52.864Z</time></trkpt><trkpt lat="42.3171367" lon="13.3062417"><ele>821.0</ele><time>2026-05-02T17:02:53.863Z</time></trkpt><trkpt lat="42.317115" lon="13.3064233"><ele>820.75</ele><time>2026-05-02T17:02:54.864Z</time></trkpt><trkpt lat="42.3170967" lon="13.3066117"><ele>820.5</ele><time>2026-05-02T17:02:55.864Z</time></trkpt><trkpt lat="42.3170883" lon="13.3067917"><ele>820.25</ele><time>2026-05-02T17:02:56.864Z</time></trkpt><trkpt lat="42.317065" lon="13.3069767"><ele>820.0</ele><time>2026-05-02T17:02:57.864Z</time></trkpt><trkpt lat="42.3170383" lon="13.30716"><ele>820.75</ele><time>2026-05-02T17:02:58.863Z</time></trkpt><trkpt lat="42.3170117" lon="13.30734"><ele>821.5</ele><time>2026-05-02T17:02:59.863Z</time></trkpt><trkpt lat="42.31698" lon="13.3075083"><ele>822.25</ele><time>2026-05-02T17:03:00.863Z</time></trkpt><trkpt lat="42.316955" lon="13.307675"><ele>823.0</ele><time>2026-05-02T17:03:01.863Z</time></trkpt><trkpt lat="42.3169283" lon="13.3078267"><ele>823.0</ele><time>2026-05-02T17:03:02.863Z</time></trkpt><trkpt lat="42.3168933" lon="13.3079533"><ele>823.0</ele><time>2026-05-02T17:03:03.863Z</time></trkpt><trkpt lat="42.3168383" lon="13.3080833"><ele>823.0</ele><time>2026-05-02T17:03:04.864Z</time></trkpt><trkpt lat="42.316765" lon="13.308215"><ele>823.0</ele><time>2026-05-02T17:03:05.863Z</time></trkpt><trkpt lat="42.3166767" lon="13.3083417"><ele>823.0</ele><time>2026-05-02T17:03:06.863Z</time></trkpt><trkpt lat="42.3166033" lon="13.30845"><ele>823.0</ele><time>2026-05-02T17:03:07.863Z</time></trkpt><trkpt lat="42.3165317" lon="13.308535"><ele>823.0</ele><time>2026-05-02T17:03:08.863Z</time></trkpt><trkpt lat="42.3164783" lon="13.308665"><ele>823.0</ele><time>2026-05-02T17:03:09.864Z</time></trkpt><trkpt lat="42.3164317" lon="13.3088167"><ele>823.0</ele><time>2026-05-02T17:03:10.864Z</time></trkpt><trkpt lat="42.3163767" lon="13.3089567"><ele>823.0</ele><time>2026-05-02T17:03:11.864Z</time></trkpt><trkpt lat="42.31631" lon="13.3091"><ele>823.0</ele><time>2026-05-02T17:03:12.864Z</time></trkpt><trkpt lat="42.31623" lon="13.309255"><ele>823.0</ele><time>2026-05-02T17:03:13.864Z</time></trkpt><trkpt lat="42.3161433" lon="13.3093883"><ele>823.0</ele><time>2026-05-02T17:03:14.864Z</time></trkpt><trkpt lat="42.3160767" lon="13.3095117"><ele>823.0</ele><time>2026-05-02T17:03:15.863Z</time></trkpt><trkpt lat="42.315995" lon="13.3096383"><ele>823.0</ele><time>2026-05-02T17:03:16.864Z</time></trkpt><trkpt lat="42.3159167" lon="13.30977"><ele>823.0</ele><time>2026-05-02T17:03:17.863Z</time></trkpt><trkpt lat="42.31585" lon="13.3099083"><ele>823.0</ele><time>2026-05-02T17:03:18.863Z</time></trkpt><trkpt lat="42.3157833" lon="13.310045"><ele>824.25</ele><time>2026-05-02T17:03:19.864Z</time></trkpt><trkpt lat="42.31571" lon="13.31018"><ele>825.5</ele><time>2026-05-02T17:03:20.863Z</time></trkpt><trkpt lat="42.315635" lon="13.310305"><ele>826.75</ele><time>2026-05-02T17:03:21.864Z</time></trkpt><trkpt lat="42.3155567" lon="13.31042"><ele>828.0</ele><time>2026-05-02T17:03:22.864Z</time></trkpt><trkpt lat="42.3154833" lon="13.3105267"><ele>829.1666666666666</ele><time>2026-05-02T17:03:23.863Z</time></trkpt><trkpt lat="42.3154233" lon="13.310625"><ele>830.3333333333333</ele><time>2026-05-02T17:03:24.863Z</time></trkpt><trkpt lat="42.3153667" lon="13.31072"><ele>831.5</ele><time>2026-05-02T17:03:25.863Z</time></trkpt><trkpt lat="42.3153133" lon="13.3108067"><ele>832.6666666666666</ele><time>2026-05-02T17:03:26.864Z</time></trkpt><trkpt lat="42.31526" lon="13.3108833"><ele>833.8333333333333</ele><time>2026-05-02T17:03:27.863Z</time></trkpt><trkpt lat="42.315205" lon="13.3109533"><ele>835.0</ele><time>2026-05-02T17:03:28.863Z</time></trkpt><trkpt lat="42.3151367" lon="13.311025"><ele>835.0</ele><time>2026-05-02T17:03:29.863Z</time></trkpt><trkpt lat="42.3150617" lon="13.31109"><ele>835.0</ele><time>2026-05-02T17:03:30.863Z</time></trkpt><trkpt lat="42.3149967" lon="13.3111433"><ele>835.0</ele><time>2026-05-02T17:03:31.864Z</time></trkpt><trkpt lat="42.3149367" lon="13.3111783"><ele>835.0</ele><time>2026-05-02T17:03:32.864Z</time></trkpt><trkpt lat="42.31485" lon="13.3112317"><ele>835.0</ele><time>2026-05-02T17:03:34.863Z</time></trkpt><trkpt lat="42.3148767" lon="13.3114067"><ele>833.6</ele><time>2026-05-02T17:03:50.864Z</time></trkpt><trkpt lat="42.3149433" lon="13.3115117"><ele>832.2</ele><time>2026-05-02T17:03:53.863Z</time></trkpt><trkpt lat="42.31502" lon="13.31158"><ele>830.8</ele><time>2026-05-02T17:03:55.863Z</time></trkpt><trkpt lat="42.3151" lon="13.3117017"><ele>829.4</ele><time>2026-05-02T17:03:57.863Z</time></trkpt><trkpt lat="42.31515" lon="13.3117883"><ele>828.0</ele><time>2026-05-02T17:03:58.863Z</time></trkpt><trkpt lat="42.31519" lon="13.31186"><ele>828.0</ele><time>2026-05-02T17:03:59.863Z</time></trkpt><trkpt lat="42.3152317" lon="13.311935"><ele>828.0</ele><time>2026-05-02T17:04:00.864Z</time></trkpt><trkpt lat="42.31528" lon="13.3120217"><ele>828.0</ele><time>2026-05-02T17:04:01.864Z</time></trkpt><trkpt lat="42.31534" lon="13.31213"><ele>828.0</ele><time>2026-05-02T17:04:02.863Z</time></trkpt><trkpt lat="42.3154067" lon="13.312235"><ele>828.0</ele><time>2026-05-02T17:04:03.863Z</time></trkpt><trkpt lat="42.3154633" lon="13.3123217"><ele>828.0</ele><time>2026-05-02T17:04:04.863Z</time></trkpt><trkpt lat="42.31552" lon="13.3123983"><ele>828.3333333333334</ele><time>2026-05-02T17:04:05.863Z</time></trkpt><trkpt lat="42.31557" lon="13.3124667"><ele>828.6666666666667</ele><time>2026-05-02T17:04:06.863Z</time></trkpt><trkpt lat="42.3156583" lon="13.3125167"><ele>829.0</ele><time>2026-05-02T17:04:08.863Z</time></trkpt><trkpt lat="42.3157517" lon="13.31251"><ele>829.3333333333334</ele><time>2026-05-02T17:04:10.864Z</time></trkpt><trkpt lat="42.3158283" lon="13.3125283"><ele>829.6666666666667</ele><time>2026-05-02T17:04:11.864Z</time></trkpt><trkpt lat="42.3159117" lon="13.3125617"><ele>830.0</ele><time>2026-05-02T17:04:12.863Z</time></trkpt><trkpt lat="42.3159967" lon="13.31259"><ele>830.3333333333334</ele><time>2026-05-02T17:04:13.863Z</time></trkpt><trkpt lat="42.316075" lon="13.3126333"><ele>830.6666666666667</ele><time>2026-05-02T17:04:14.863Z</time></trkpt><trkpt lat="42.316145" lon="13.31268"><ele>831.0</ele><time>2026-05-02T17:04:15.864Z</time></trkpt><trkpt lat="42.316215" lon="13.31273"><ele>831.3333333333333</ele><time>2026-05-02T17:04:16.863Z</time></trkpt><trkpt lat="42.3162883" lon="13.3127733"><ele>831.6666666666666</ele><time>2026-05-02T17:04:17.863Z</time></trkpt><trkpt lat="42.316365" lon="13.31282"><ele>832.0</ele><time>2026-05-02T17:04:18.863Z</time></trkpt><trkpt lat="42.3164467" lon="13.3128717"><ele>833.6666666666666</ele><time>2026-05-02T17:04:19.864Z</time></trkpt><trkpt lat="42.3165283" lon="13.3129117"><ele>835.3333333333333</ele><time>2026-05-02T17:04:20.863Z</time></trkpt><trkpt lat="42.3166133" lon="13.3129533"><ele>837.0</ele><time>2026-05-02T17:04:21.863Z</time></trkpt><trkpt lat="42.3166983" lon="13.313005"><ele>838.6666666666667</ele><time>2026-05-02T17:04:22.863Z</time></trkpt><trkpt lat="42.3167933" lon="13.3130517"><ele>840.3333333333334</ele><time>2026-05-02T17:04:23.863Z</time></trkpt><trkpt lat="42.3168667" lon="13.313085"><ele>842.0</ele><time>2026-05-02T17:04:24.863Z</time></trkpt><trkpt lat="42.31694" lon="13.3131067"><ele>843.2</ele><time>2026-05-02T17:04:25.863Z</time></trkpt><trkpt lat="42.3170167" lon="13.313105"><ele>844.4000000000001</ele><time>2026-05-02T17:04:26.864Z</time></trkpt><trkpt lat="42.317095" lon="13.3130983"><ele>845.5999999999999</ele><time>2026-05-02T17:04:27.864Z</time></trkpt><trkpt lat="42.3172367" lon="13.3131367"><ele>846.8</ele><time>2026-05-02T17:04:29.863Z</time></trkpt><trkpt lat="42.3173217" lon="13.3131917"><ele>848.0</ele><time>2026-05-02T17:04:30.863Z</time></trkpt><trkpt lat="42.3173983" lon="13.3132483"><ele>849.0</ele><time>2026-05-02T17:04:31.863Z</time></trkpt><trkpt lat="42.31748" lon="13.3133167"><ele>850.0</ele><time>2026-05-02T17:04:32.863Z</time></trkpt><trkpt lat="42.317555" lon="13.3133967"><ele>851.0</ele><time>2026-05-02T17:04:33.863Z</time></trkpt><trkpt lat="42.3176217" lon="13.313485"><ele>852.0</ele><time>2026-05-02T17:04:34.863Z</time></trkpt><trkpt lat="42.317695" lon="13.3135633"><ele>853.0</ele><time>2026-05-02T17:04:35.864Z</time></trkpt><trkpt lat="42.3177633" lon="13.3136367"><ele>852.9999999999999</ele><time>2026-05-02T17:04:36.863Z</time></trkpt><trkpt lat="42.3178267" lon="13.3137033"><ele>853.0</ele><time>2026-05-02T17:04:37.864Z</time></trkpt><trkpt lat="42.3178883" lon="13.3137567"><ele>853.0</ele><time>2026-05-02T17:04:38.864Z</time></trkpt><trkpt lat="42.31795" lon="13.3138267"><ele>853.0</ele><time>2026-05-02T17:04:39.864Z</time></trkpt><trkpt lat="42.318015" lon="13.3139017"><ele>852.9999999999999</ele><time>2026-05-02T17:04:40.864Z</time></trkpt><trkpt lat="42.318085" lon="13.3139667"><ele>853.0</ele><time>2026-05-02T17:04:41.864Z</time></trkpt><trkpt lat="42.31815" lon="13.3140083"><ele>852.8333333333333</ele><time>2026-05-02T17:04:42.863Z</time></trkpt><trkpt lat="42.3182383" lon="13.3140567"><ele>852.6666666666666</ele><time>2026-05-02T17:04:44.864Z</time></trkpt><trkpt lat="42.3183167" lon="13.31408"><ele>852.5</ele><time>2026-05-02T17:04:50.863Z</time></trkpt><trkpt lat="42.3183933" lon="13.3140317"><ele>852.3333333333333</ele><time>2026-05-02T17:04:53.863Z</time></trkpt><trkpt lat="42.3184717" lon="13.313955"><ele>852.1666666666666</ele><time>2026-05-02T17:04:55.863Z</time></trkpt><trkpt lat="42.318525" lon="13.3138933"><ele>852.0</ele><time>2026-05-02T17:04:56.864Z</time></trkpt><trkpt lat="42.3185683" lon="13.313825"><ele>852.0</ele><time>2026-05-02T17:04:57.863Z</time></trkpt><trkpt lat="42.3186217" lon="13.313765"><ele>852.0</ele><time>2026-05-02T17:04:58.864Z</time></trkpt><trkpt lat="42.31872" lon="13.3137383"><ele>852.0</ele><time>2026-05-02T17:05:00.864Z</time></trkpt><trkpt lat="42.3187867" lon="13.3137583"><ele>852.0</ele><time>2026-05-02T17:05:01.863Z</time></trkpt><trkpt lat="42.3188517" lon="13.313795"><ele>852.0</ele><time>2026-05-02T17:05:02.863Z</time></trkpt><trkpt lat="42.318925" lon="13.3138417"><ele>852.0</ele><time>2026-05-02T17:05:03.864Z</time></trkpt><trkpt lat="42.3189983" lon="13.313895"><ele>851.0</ele><time>2026-05-02T17:05:04.864Z</time></trkpt><trkpt lat="42.3190867" lon="13.3139667"><ele>850.0</ele><time>2026-05-02T17:05:05.863Z</time></trkpt><trkpt lat="42.31918" lon="13.3140383"><ele>849.0</ele><time>2026-05-02T17:05:06.863Z</time></trkpt><trkpt lat="42.3192733" lon="13.3141167"><ele>848.0</ele><time>2026-05-02T17:05:07.863Z</time></trkpt><trkpt lat="42.3193667" lon="13.31419"><ele>847.0</ele><time>2026-05-02T17:05:08.863Z</time></trkpt><trkpt lat="42.31946" lon="13.3142667"><ele>847.0</ele><time>2026-05-02T17:05:09.864Z</time></trkpt><trkpt lat="42.3195583" lon="13.314345"><ele>847.0</ele><time>2026-05-02T17:05:10.863Z</time></trkpt><trkpt lat="42.3196617" lon="13.31443"><ele>847.0</ele><time>2026-05-02T17:05:11.863Z</time></trkpt><trkpt lat="42.3197733" lon="13.3145267"><ele>847.0</ele><time>2026-05-02T17:05:12.863Z</time></trkpt><trkpt lat="42.319885" lon="13.3146133"><ele>845.5</ele><time>2026-05-02T17:05:13.863Z</time></trkpt><trkpt lat="42.319995" lon="13.314695"><ele>844.0</ele><time>2026-05-02T17:05:14.864Z</time></trkpt><trkpt lat="42.3200983" lon="13.3147733"><ele>842.5</ele><time>2026-05-02T17:05:15.863Z</time></trkpt><trkpt lat="42.3201933" lon="13.31485"><ele>841.0</ele><time>2026-05-02T17:05:16.863Z</time></trkpt><trkpt lat="42.3202817" lon="13.314915"><ele>840.4999999999999</ele><time>2026-05-02T17:05:17.864Z</time></trkpt><trkpt lat="42.3203483" lon="13.3149733"><ele>840.0</ele><time>2026-05-02T17:05:18.864Z</time></trkpt><trkpt lat="42.3204033" lon="13.3150233"><ele>839.5</ele><time>2026-05-02T17:05:19.864Z</time></trkpt><trkpt lat="42.3204567" lon="13.3151667"><ele>839.0</ele><time>2026-05-02T17:05:21.864Z</time></trkpt><trkpt lat="42.32045" lon="13.3152617"><ele>838.4999999999999</ele><time>2026-05-02T17:05:22.863Z</time></trkpt><trkpt lat="42.320415" lon="13.3154083"><ele>838.0</ele><time>2026-05-02T17:05:24.864Z</time></trkpt><trkpt lat="42.3203667" lon="13.3155117"><ele>837.8</ele><time>2026-05-02T17:05:26.863Z</time></trkpt><trkpt lat="42.3203033" lon="13.3156267"><ele>837.5999999999999</ele><time>2026-05-02T17:05:28.863Z</time></trkpt><trkpt lat="42.3202683" lon="13.3157667"><ele>837.4000000000001</ele><time>2026-05-02T17:05:30.863Z</time></trkpt><trkpt lat="42.3202533" lon="13.315885"><ele>837.2</ele><time>2026-05-02T17:05:32.865Z</time></trkpt><trkpt lat="42.3202367" lon="13.3159933"><ele>837.0</ele><time>2026-05-02T17:05:35.865Z</time></trkpt><trkpt lat="42.3202533" lon="13.3158983"><ele>837.0</ele><time>2026-05-02T17:05:55.864Z</time></trkpt><trkpt lat="42.3202583" lon="13.3158033"><ele>837.0</ele><time>2026-05-02T17:05:57.865Z</time></trkpt><trkpt lat="42.32028" lon="13.3157017"><ele>837.0</ele><time>2026-05-02T17:05:59.865Z</time></trkpt><trkpt lat="42.3203033" lon="13.3156167"><ele>837.0</ele><time>2026-05-02T17:06:01.864Z</time></trkpt><trkpt lat="42.3203667" lon="13.3155567"><ele>837.0</ele><time>2026-05-02T17:06:07.865Z</time></trkpt><trkpt lat="42.32045" lon="13.3155683"><ele>837.0</ele><time>2026-05-02T17:06:09.864Z</time></trkpt><trkpt lat="42.3205583" lon="13.315635"><ele>835.4000000000001</ele><time>2026-05-02T17:06:11.865Z</time></trkpt><trkpt lat="42.3206283" lon="13.31567"><ele>833.8000000000001</ele><time>2026-05-02T17:06:12.864Z</time></trkpt><trkpt lat="42.3206933" lon="13.3156967"><ele>832.2</ele><time>2026-05-02T17:06:13.864Z</time></trkpt><trkpt lat="42.3207767" lon="13.31579"><ele>830.6</ele><time>2026-05-02T17:06:15.864Z</time></trkpt><trkpt lat="42.3207967" lon="13.3159517"><ele>829.0</ele><time>2026-05-02T17:06:17.865Z</time></trkpt><trkpt lat="42.3208733" lon="13.3160617"><ele>829.0</ele><time>2026-05-02T17:06:19.864Z</time></trkpt><trkpt lat="42.3210133" lon="13.3160783"><ele>829.0</ele><time>2026-05-02T17:06:21.864Z</time></trkpt><trkpt lat="42.3211117" lon="13.31607"><ele>829.0</ele><time>2026-05-02T17:06:22.865Z</time></trkpt><trkpt lat="42.3212117" lon="13.3160617"><ele>829.0</ele><time>2026-05-02T17:06:23.865Z</time></trkpt><trkpt lat="42.321305" lon="13.31607"><ele>829.0</ele><time>2026-05-02T17:06:24.864Z</time></trkpt><trkpt lat="42.3213867" lon="13.3160983"><ele>828.1666666666666</ele><time>2026-05-02T17:06:25.865Z</time></trkpt><trkpt lat="42.32146" lon="13.3161317"><ele>827.3333333333333</ele><time>2026-05-02T17:06:26.864Z</time></trkpt><trkpt lat="42.3215383" lon="13.3161533"><ele>826.5</ele><time>2026-05-02T17:06:27.865Z</time></trkpt><trkpt lat="42.3216083" lon="13.31617"><ele>825.6666666666667</ele><time>2026-05-02T17:06:28.865Z</time></trkpt><trkpt lat="42.32168" lon="13.3161717"><ele>824.8333333333334</ele><time>2026-05-02T17:06:29.864Z</time></trkpt><trkpt lat="42.32181" lon="13.31618"><ele>824.0</ele><time>2026-05-02T17:06:31.864Z</time></trkpt><trkpt lat="42.3218933" lon="13.3161833"><ele>824.0000000000001</ele><time>2026-05-02T17:06:32.864Z</time></trkpt><trkpt lat="42.3219817" lon="13.3162"><ele>824.0</ele><time>2026-05-02T17:06:33.864Z</time></trkpt><trkpt lat="42.3220667" lon="13.3162217"><ele>824.0</ele><time>2026-05-02T17:06:34.865Z</time></trkpt><trkpt lat="42.3221517" lon="13.3162483"><ele>824.0</ele><time>2026-05-02T17:06:35.864Z</time></trkpt><trkpt lat="42.3222317" lon="13.31628"><ele>824.0000000000001</ele><time>2026-05-02T17:06:36.864Z</time></trkpt><trkpt lat="42.3223167" lon="13.31632"><ele>824.0</ele><time>2026-05-02T17:06:37.865Z</time></trkpt><trkpt lat="42.3224033" lon="13.3163617"><ele>823.1666666666667</ele><time>2026-05-02T17:06:38.865Z</time></trkpt><trkpt lat="42.32249" lon="13.3164067"><ele>822.3333333333334</ele><time>2026-05-02T17:06:39.865Z</time></trkpt><trkpt lat="42.32256" lon="13.3164467"><ele>821.5</ele><time>2026-05-02T17:06:40.865Z</time></trkpt><trkpt lat="42.32262" lon="13.3164883"><ele>820.6666666666667</ele><time>2026-05-02T17:06:41.865Z</time></trkpt><trkpt lat="42.3227133" lon="13.3165467"><ele>819.8333333333334</ele><time>2026-05-02T17:06:43.865Z</time></trkpt><trkpt lat="42.322795" lon="13.316575"><ele>819.0</ele><time>2026-05-02T17:06:45.864Z</time></trkpt><trkpt lat="42.322885" lon="13.3166117"><ele>819.0</ele><time>2026-05-02T17:07:06.864Z</time></trkpt><trkpt lat="42.3228183" lon="13.3165833"><ele>819.0</ele><time>2026-05-02T17:07:20.865Z</time></trkpt><trkpt lat="42.3227783" lon="13.31651"><ele>819.0</ele><time>2026-05-02T17:07:24.864Z</time></trkpt><trkpt lat="42.32281" lon="13.3163917"><ele>819.0</ele><time>2026-05-02T17:07:27.865Z</time></trkpt><trkpt lat="42.322815" lon="13.316235"><ele>819.0</ele><time>2026-05-02T17:07:30.865Z</time></trkpt><trkpt lat="42.32285" lon="13.3161433"><ele>819.0</ele><time>2026-05-02T17:07:31.865Z</time></trkpt><trkpt lat="42.3229183" lon="13.3160383"><ele>818.1666666666666</ele><time>2026-05-02T17:07:33.864Z</time></trkpt><trkpt lat="42.32301" lon="13.316015"><ele>817.3333333333333</ele><time>2026-05-02T17:07:35.864Z</time></trkpt><trkpt lat="42.3231233" lon="13.3160417"><ele>816.5</ele><time>2026-05-02T17:07:37.864Z</time></trkpt><trkpt lat="42.3231933" lon="13.3160533"><ele>815.6666666666666</ele><time>2026-05-02T17:07:38.865Z</time></trkpt><trkpt lat="42.3232667" lon="13.31607"><ele>814.8333333333333</ele><time>2026-05-02T17:07:39.865Z</time></trkpt><trkpt lat="42.3233483" lon="13.3160883"><ele>814.0</ele><time>2026-05-02T17:07:40.865Z</time></trkpt><trkpt lat="42.3234333" lon="13.3160983"><ele>812.4000000000001</ele><time>2026-05-02T17:07:41.865Z</time></trkpt><trkpt lat="42.3235233" lon="13.3161233"><ele>810.8</ele><time>2026-05-02T17:07:42.865Z</time></trkpt><trkpt lat="42.3236133" lon="13.316145"><ele>809.2</ele><time>2026-05-02T17:07:43.864Z</time></trkpt><trkpt lat="42.3236967" lon="13.3161683"><ele>807.5999999999999</ele><time>2026-05-02T17:07:44.864Z</time></trkpt><trkpt lat="42.3237833" lon="13.3161967"><ele>806.0</ele><time>2026-05-02T17:07:45.864Z</time></trkpt><trkpt lat="42.3238767" lon="13.3162283"><ele>804.4</ele><time>2026-05-02T17:07:46.864Z</time></trkpt><trkpt lat="42.32397" lon="13.31626"><ele>802.8</ele><time>2026-05-02T17:07:47.864Z</time></trkpt><trkpt lat="42.3240683" lon="13.3162983"><ele>801.1999999999999</ele><time>2026-05-02T17:07:48.864Z</time></trkpt><trkpt lat="42.3241583" lon="13.3163383"><ele>799.5999999999999</ele><time>2026-05-02T17:07:49.864Z</time></trkpt><trkpt lat="42.3242483" lon="13.316365"><ele>798.0</ele><time>2026-05-02T17:07:50.865Z</time></trkpt><trkpt lat="42.32433" lon="13.3164"><ele>799.2857142857143</ele><time>2026-05-02T17:07:51.865Z</time></trkpt><trkpt lat="42.3243983" lon="13.3164333"><ele>800.5714285714286</ele><time>2026-05-02T17:07:52.864Z</time></trkpt><trkpt lat="42.3244633" lon="13.3164533"><ele>801.8571428571429</ele><time>2026-05-02T17:07:53.864Z</time></trkpt><trkpt lat="42.3245283" lon="13.316475"><ele>803.1428571428571</ele><time>2026-05-02T17:07:54.865Z</time></trkpt><trkpt lat="42.3245933" lon="13.3164833"><ele>804.4285714285714</ele><time>2026-05-02T17:07:55.865Z</time></trkpt><trkpt lat="42.32466" lon="13.3164933"><ele>805.7142857142858</ele><time>2026-05-02T17:07:56.864Z</time></trkpt><trkpt lat="42.32473" lon="13.3165017"><ele>807.0</ele><time>2026-05-02T17:07:57.865Z</time></trkpt><trkpt lat="42.324805" lon="13.31651"><ele>807.0</ele><time>2026-05-02T17:07:58.864Z</time></trkpt><trkpt lat="42.3248917" lon="13.316515"><ele>807.0</ele><time>2026-05-02T17:07:59.865Z</time></trkpt><trkpt lat="42.3249783" lon="13.3165233"><ele>807.0</ele><time>2026-05-02T17:08:00.864Z</time></trkpt><trkpt lat="42.32507" lon="13.3165317"><ele>807.0</ele><time>2026-05-02T17:08:01.864Z</time></trkpt><trkpt lat="42.3251517" lon="13.31653"><ele>807.0</ele><time>2026-05-02T17:08:02.865Z</time></trkpt><trkpt lat="42.3252417" lon="13.316525"><ele>807.0</ele><time>2026-05-02T17:08:03.865Z</time></trkpt><trkpt lat="42.325315" lon="13.3165133"><ele>807.0</ele><time>2026-05-02T17:08:04.864Z</time></trkpt><trkpt lat="42.32538" lon="13.31648"><ele>807.0</ele><time>2026-05-02T17:08:05.864Z</time></trkpt><trkpt lat="42.3254567" lon="13.3164367"><ele>807.0</ele><time>2026-05-02T17:08:06.865Z</time></trkpt><trkpt lat="42.32553" lon="13.3163733"><ele>807.0</ele><time>2026-05-02T17:08:07.865Z</time></trkpt><trkpt lat="42.3256017" lon="13.3163217"><ele>807.0</ele><time>2026-05-02T17:08:08.865Z</time></trkpt><trkpt lat="42.3256783" lon="13.3162733"><ele>807.0</ele><time>2026-05-02T17:08:09.864Z</time></trkpt><trkpt lat="42.32577" lon="13.3162217"><ele>804.6</ele><time>2026-05-02T17:08:10.865Z</time></trkpt><trkpt lat="42.32585" lon="13.3161683"><ele>802.2</ele><time>2026-05-02T17:08:11.865Z</time></trkpt><trkpt lat="42.325935" lon="13.3161233"><ele>799.8</ele><time>2026-05-02T17:08:12.865Z</time></trkpt><trkpt lat="42.3260183" lon="13.3160883"><ele>797.4</ele><time>2026-05-02T17:08:13.864Z</time></trkpt><trkpt lat="42.3261083" lon="13.3160633"><ele>795.0</ele><time>2026-05-02T17:08:14.864Z</time></trkpt><trkpt lat="42.3261983" lon="13.3160517"><ele>795.0</ele><time>2026-05-02T17:08:15.865Z</time></trkpt><trkpt lat="42.3262883" lon="13.3160483"><ele>795.0</ele><time>2026-05-02T17:08:16.864Z</time></trkpt><trkpt lat="42.32637" lon="13.3160367"><ele>795.0</ele><time>2026-05-02T17:08:17.864Z</time></trkpt><trkpt lat="42.3264483" lon="13.316005"><ele>795.0</ele><time>2026-05-02T17:08:18.865Z</time></trkpt><trkpt lat="42.326515" lon="13.3159633"><ele>795.0</ele><time>2026-05-02T17:08:19.865Z</time></trkpt><trkpt lat="42.326575" lon="13.3159217"><ele>795.0</ele><time>2026-05-02T17:08:20.865Z</time></trkpt><trkpt lat="42.3266367" lon="13.3159"><ele>795.0</ele><time>2026-05-02T17:08:21.864Z</time></trkpt><trkpt lat="42.3267633" lon="13.3158917"><ele>795.0</ele><time>2026-05-02T17:08:23.864Z</time></trkpt><trkpt lat="42.326835" lon="13.315895"><ele>795.0</ele><time>2026-05-02T17:08:24.865Z</time></trkpt><trkpt lat="42.3269117" lon="13.3159067"><ele>795.0</ele><time>2026-05-02T17:08:25.864Z</time></trkpt><trkpt lat="42.32699" lon="13.31591"><ele>795.0</ele><time>2026-05-02T17:08:26.865Z</time></trkpt><trkpt lat="42.3270753" lon="13.3159117"><ele>795.0</ele><time>2026-05-02T17:08:27.865Z</time></trkpt><trkpt lat="42.3271667" lon="13.3159105"><ele>794.3333333333334</ele><time>2026-05-02T17:08:28.864Z</time></trkpt><trkpt lat="42.3272588" lon="13.3159093"><ele>793.6666666666667</ele><time>2026-05-02T17:08:29.865Z</time></trkpt><trkpt lat="42.327348" lon="13.3159187"><ele>793.0</ele><time>2026-05-02T17:08:30.865Z</time></trkpt><trkpt lat="42.3274299" lon="13.3159358"><ele>792.3333333333334</ele><time>2026-05-02T17:08:31.864Z</time></trkpt><trkpt lat="42.3275105" lon="13.3159488"><ele>791.6666666666667</ele><time>2026-05-02T17:08:32.864Z</time></trkpt><trkpt lat="42.3275861" lon="13.3159534"><ele>791.0</ele><time>2026-05-02T17:08:33.864Z</time></trkpt><trkpt lat="42.3276591" lon="13.3159573"><ele>791.0000000000001</ele><time>2026-05-02T17:08:34.864Z</time></trkpt><trkpt lat="42.3277309" lon="13.3159603"><ele>791.0</ele><time>2026-05-02T17:08:35.865Z</time></trkpt><trkpt lat="42.3278105" lon="13.3159729"><ele>791.0</ele><time>2026-05-02T17:08:36.865Z</time></trkpt><trkpt lat="42.3278914" lon="13.3159941"><ele>791.0</ele><time>2026-05-02T17:08:37.864Z</time></trkpt><trkpt lat="42.3279762" lon="13.3160209"><ele>791.0000000000001</ele><time>2026-05-02T17:08:38.864Z</time></trkpt><trkpt lat="42.3280596" lon="13.3160543"><ele>791.0</ele><time>2026-05-02T17:08:39.865Z</time></trkpt><trkpt lat="42.3281426" lon="13.3160863"><ele>789.8571428571429</ele><time>2026-05-02T17:08:40.864Z</time></trkpt><trkpt lat="42.3282229" lon="13.3161229"><ele>788.7142857142858</ele><time>2026-05-02T17:08:41.864Z</time></trkpt><trkpt lat="42.3282985" lon="13.3161632"><ele>787.5714285714286</ele><time>2026-05-02T17:08:42.865Z</time></trkpt><trkpt lat="42.3283643" lon="13.3162024"><ele>786.4285714285714</ele><time>2026-05-02T17:08:43.864Z</time></trkpt><trkpt lat="42.3284223" lon="13.3162399"><ele>785.2857142857143</ele><time>2026-05-02T17:08:44.864Z</time></trkpt><trkpt lat="42.3284824" lon="13.3162818"><ele>784.1428571428571</ele><time>2026-05-02T17:08:45.865Z</time></trkpt><trkpt lat="42.3285385" lon="13.3163232"><ele>783.0</ele><time>2026-05-02T17:08:46.864Z</time></trkpt><trkpt lat="42.3286019" lon="13.3163614"><ele>784.5999999999999</ele><time>2026-05-02T17:08:47.864Z</time></trkpt><trkpt lat="42.3287199" lon="13.3164128"><ele>786.1999999999999</ele><time>2026-05-02T17:08:49.864Z</time></trkpt><trkpt lat="42.3288437" lon="13.3164515"><ele>787.8</ele><time>2026-05-02T17:08:51.864Z</time></trkpt><trkpt lat="42.3289142" lon="13.3164645"><ele>789.4</ele><time>2026-05-02T17:08:52.864Z</time></trkpt><trkpt lat="42.3289907" lon="13.3164708"><ele>791.0</ele><time>2026-05-02T17:08:53.864Z</time></trkpt><trkpt lat="42.3290768" lon="13.3164774"><ele>791.0000000000001</ele><time>2026-05-02T17:08:54.864Z</time></trkpt><trkpt lat="42.329159" lon="13.3164764"><ele>791.0</ele><time>2026-05-02T17:08:55.865Z</time></trkpt><trkpt lat="42.3292477" lon="13.3164748"><ele>791.0</ele><time>2026-05-02T17:08:56.865Z</time></trkpt><trkpt lat="42.3293354" lon="13.316471"><ele>791.0</ele><time>2026-05-02T17:08:57.864Z</time></trkpt><trkpt lat="42.3294198" lon="13.316467"><ele>791.0000000000001</ele><time>2026-05-02T17:08:58.864Z</time></trkpt><trkpt lat="42.3295057" lon="13.3164661"><ele>791.0</ele><time>2026-05-02T17:08:59.865Z</time></trkpt><trkpt lat="42.3295898" lon="13.3164657"><ele>791.0000000000001</ele><time>2026-05-02T17:09:00.864Z</time></trkpt><trkpt lat="42.3296704" lon="13.3164595"><ele>791.0</ele><time>2026-05-02T17:09:01.865Z</time></trkpt><trkpt lat="42.3297485" lon="13.3164553"><ele>791.0</ele><time>2026-05-02T17:09:02.865Z</time></trkpt><trkpt lat="42.3298263" lon="13.316456"><ele>791.0</ele><time>2026-05-02T17:09:03.864Z</time></trkpt><trkpt lat="42.3299008" lon="13.3164567"><ele>791.0000000000001</ele><time>2026-05-02T17:09:04.865Z</time></trkpt><trkpt lat="42.3299741" lon="13.3164528"><ele>791.0</ele><time>2026-05-02T17:09:05.864Z</time></trkpt><trkpt lat="42.3300514" lon="13.3164464"><ele>790.3333333333334</ele><time>2026-05-02T17:09:06.865Z</time></trkpt><trkpt lat="42.3301219" lon="13.3164452"><ele>789.6666666666667</ele><time>2026-05-02T17:09:07.865Z</time></trkpt><trkpt lat="42.3302031" lon="13.3164434"><ele>789.0</ele><time>2026-05-02T17:09:08.864Z</time></trkpt><trkpt lat="42.3302829" lon="13.3164421"><ele>788.3333333333333</ele><time>2026-05-02T17:09:09.865Z</time></trkpt><trkpt lat="42.3303593" lon="13.3164425"><ele>787.6666666666666</ele><time>2026-05-02T17:09:10.865Z</time></trkpt><trkpt lat="42.3304345" lon="13.3164431"><ele>787.0</ele><time>2026-05-02T17:09:11.864Z</time></trkpt><trkpt lat="42.3305109" lon="13.3164398"><ele>786.8333333333333</ele><time>2026-05-02T17:09:12.865Z</time></trkpt><trkpt lat="42.330589" lon="13.3164331"><ele>786.6666666666666</ele><time>2026-05-02T17:09:13.864Z</time></trkpt><trkpt lat="42.3306661" lon="13.3164205"><ele>786.5</ele><time>2026-05-02T17:09:14.865Z</time></trkpt><trkpt lat="42.330745" lon="13.3164117"><ele>786.3333333333333</ele><time>2026-05-02T17:09:15.864Z</time></trkpt><trkpt lat="42.3308167" lon="13.3164117"><ele>786.1666666666666</ele><time>2026-05-02T17:09:16.865Z</time></trkpt><trkpt lat="42.3308883" lon="13.3164117"><ele>786.0</ele><time>2026-05-02T17:09:17.865Z</time></trkpt><trkpt lat="42.33099" lon="13.3164033"><ele>785.3333333333334</ele><time>2026-05-02T17:09:19.864Z</time></trkpt><trkpt lat="42.3311033" lon="13.3163567"><ele>784.6666666666667</ele><time>2026-05-02T17:09:21.865Z</time></trkpt><trkpt lat="42.3311683" lon="13.31633"><ele>784.0</ele><time>2026-05-02T17:09:22.864Z</time></trkpt><trkpt lat="42.331235" lon="13.316295"><ele>783.3333333333334</ele><time>2026-05-02T17:09:23.864Z</time></trkpt><trkpt lat="42.3313083" lon="13.3162517"><ele>782.6666666666667</ele><time>2026-05-02T17:09:24.864Z</time></trkpt><trkpt lat="42.3313783" lon="13.3162067"><ele>782.0</ele><time>2026-05-02T17:09:25.864Z</time></trkpt><trkpt lat="42.331445" lon="13.3161683"><ele>781.4285714285713</ele><time>2026-05-02T17:09:26.864Z</time></trkpt><trkpt lat="42.331515" lon="13.3161317"><ele>780.8571428571429</ele><time>2026-05-02T17:09:27.864Z</time></trkpt><trkpt lat="42.331585" lon="13.316095"><ele>780.2857142857142</ele><time>2026-05-02T17:09:28.864Z</time></trkpt><trkpt lat="42.331655" lon="13.316065"><ele>779.7142857142857</ele><time>2026-05-02T17:09:29.865Z</time></trkpt><trkpt lat="42.3317267" lon="13.3160367"><ele>779.1428571428571</ele><time>2026-05-02T17:09:30.865Z</time></trkpt><trkpt lat="42.3317917" lon="13.3160167"><ele>778.5714285714286</ele><time>2026-05-02T17:09:31.865Z</time></trkpt><trkpt lat="42.3318567" lon="13.316015"><ele>778.0</ele><time>2026-05-02T17:09:32.865Z</time></trkpt><trkpt lat="42.3319283" lon="13.3160267"><ele>778.0</ele><time>2026-05-02T17:09:33.865Z</time></trkpt><trkpt lat="42.3320083" lon="13.316055"><ele>778.0</ele><time>2026-05-02T17:09:34.864Z</time></trkpt><trkpt lat="42.3320967" lon="13.316095"><ele>778.0</ele><time>2026-05-02T17:09:35.864Z</time></trkpt><trkpt lat="42.3321883" lon="13.3161483"><ele>778.0</ele><time>2026-05-02T17:09:36.865Z</time></trkpt><trkpt lat="42.3322767" lon="13.3161733"><ele>778.0</ele><time>2026-05-02T17:09:37.864Z</time></trkpt><trkpt lat="42.33236" lon="13.3161917"><ele>777.4285714285714</ele><time>2026-05-02T17:09:38.864Z</time></trkpt><trkpt lat="42.332435" lon="13.3162"><ele>776.8571428571428</ele><time>2026-05-02T17:09:39.865Z</time></trkpt><trkpt lat="42.3325067" lon="13.3161967"><ele>776.2857142857142</ele><time>2026-05-02T17:09:40.865Z</time></trkpt><trkpt lat="42.332575" lon="13.3161833"><ele>775.7142857142858</ele><time>2026-05-02T17:09:41.864Z</time></trkpt><trkpt lat="42.3326467" lon="13.31617"><ele>775.1428571428571</ele><time>2026-05-02T17:09:42.864Z</time></trkpt><trkpt lat="42.3327167" lon="13.3161633"><ele>774.5714285714286</ele><time>2026-05-02T17:09:43.864Z</time></trkpt><trkpt lat="42.3327817" lon="13.316165"><ele>774.0</ele><time>2026-05-02T17:09:44.864Z</time></trkpt><trkpt lat="42.3328467" lon="13.3161633"><ele>774.0</ele><time>2026-05-02T17:09:45.865Z</time></trkpt><trkpt lat="42.33292" lon="13.31618"><ele>774.0</ele><time>2026-05-02T17:09:46.864Z</time></trkpt><trkpt lat="42.332985" lon="13.3161967"><ele>774.0</ele><time>2026-05-02T17:09:47.864Z</time></trkpt><trkpt lat="42.333065" lon="13.3162133"><ele>774.0</ele><time>2026-05-02T17:09:48.864Z</time></trkpt><trkpt lat="42.333145" lon="13.3162233"><ele>774.0</ele><time>2026-05-02T17:09:49.864Z</time></trkpt><trkpt lat="42.3332317" lon="13.3162317"><ele>774.0</ele><time>2026-05-02T17:09:50.864Z</time></trkpt><trkpt lat="42.3333333" lon="13.31625"><ele>773.1666666666666</ele><time>2026-05-02T17:09:51.864Z</time></trkpt><trkpt lat="42.3334283" lon="13.3162617"><ele>772.3333333333333</ele><time>2026-05-02T17:09:52.864Z</time></trkpt><trkpt lat="42.3335183" lon="13.3162783"><ele>771.5</ele><time>2026-05-02T17:09:53.864Z</time></trkpt><trkpt lat="42.33361" lon="13.3162883"><ele>770.6666666666666</ele><time>2026-05-02T17:09:54.865Z</time></trkpt><trkpt lat="42.3336967" lon="13.3162933"><ele>769.8333333333333</ele><time>2026-05-02T17:09:55.864Z</time></trkpt><trkpt lat="42.3337783" lon="13.316285"><ele>769.0</ele><time>2026-05-02T17:09:56.865Z</time></trkpt><trkpt lat="42.3338683" lon="13.3162817"><ele>766.9999999999999</ele><time>2026-05-02T17:09:57.864Z</time></trkpt><trkpt lat="42.3339517" lon="13.3162717"><ele>765.0</ele><time>2026-05-02T17:09:58.864Z</time></trkpt><trkpt lat="42.3340383" lon="13.31626"><ele>763.0</ele><time>2026-05-02T17:09:59.864Z</time></trkpt><trkpt lat="42.334125" lon="13.31625"><ele>761.0</ele><time>2026-05-02T17:10:00.864Z</time></trkpt><trkpt lat="42.3342033" lon="13.3162283"><ele>759.0</ele><time>2026-05-02T17:10:01.864Z</time></trkpt><trkpt lat="42.3342883" lon="13.3162033"><ele>757.0</ele><time>2026-05-02T17:10:02.864Z</time></trkpt><trkpt lat="42.3343833" lon="13.3161783"><ele>757.0</ele><time>2026-05-02T17:10:03.865Z</time></trkpt><trkpt lat="42.3344733" lon="13.316155"><ele>757.0</ele><time>2026-05-02T17:10:04.864Z</time></trkpt><trkpt lat="42.3345667" lon="13.3161317"><ele>757.0</ele><time>2026-05-02T17:10:05.865Z</time></trkpt><trkpt lat="42.33464" lon="13.3161183"><ele>757.0</ele><time>2026-05-02T17:10:06.864Z</time></trkpt><trkpt lat="42.3347167" lon="13.3160967"><ele>757.0</ele><time>2026-05-02T17:10:07.865Z</time></trkpt><trkpt lat="42.3347933" lon="13.316075"><ele>757.0</ele><time>2026-05-02T17:10:08.864Z</time></trkpt><trkpt lat="42.3348733" lon="13.3160617"><ele>757.0</ele><time>2026-05-02T17:10:09.864Z</time></trkpt><trkpt lat="42.3349617" lon="13.316055"><ele>757.0</ele><time>2026-05-02T17:10:10.864Z</time></trkpt><trkpt lat="42.335045" lon="13.316045"><ele>757.0</ele><time>2026-05-02T17:10:11.864Z</time></trkpt><trkpt lat="42.33513" lon="13.3160367"><ele>757.0</ele><time>2026-05-02T17:10:12.864Z</time></trkpt><trkpt lat="42.33523" lon="13.31603"><ele>757.0</ele><time>2026-05-02T17:10:13.864Z</time></trkpt><trkpt lat="42.3353133" lon="13.316025"><ele>757.0</ele><time>2026-05-02T17:10:14.865Z</time></trkpt><trkpt lat="42.3354067" lon="13.3160183"><ele>757.0</ele><time>2026-05-02T17:10:15.865Z</time></trkpt><trkpt lat="42.3354983" lon="13.3160167"><ele>757.0</ele><time>2026-05-02T17:10:16.864Z</time></trkpt><trkpt lat="42.3355867" lon="13.3160133"><ele>757.0</ele><time>2026-05-02T17:10:17.865Z</time></trkpt><trkpt lat="42.3356817" lon="13.3160133"><ele>757.0</ele><time>2026-05-02T17:10:18.865Z</time></trkpt><trkpt lat="42.3357717" lon="13.316005"><ele>757.0</ele><time>2026-05-02T17:10:19.865Z</time></trkpt><trkpt lat="42.335865" lon="13.3159967"><ele>757.0</ele><time>2026-05-02T17:10:20.864Z</time></trkpt><trkpt lat="42.3359417" lon="13.3159833"><ele>757.0</ele><time>2026-05-02T17:10:21.864Z</time></trkpt><trkpt lat="42.336015" lon="13.3159733"><ele>757.0</ele><time>2026-05-02T17:10:22.865Z</time></trkpt><trkpt lat="42.336095" lon="13.3159733"><ele>757.0</ele><time>2026-05-02T17:10:23.865Z</time></trkpt><trkpt lat="42.3361867" lon="13.3159717"><ele>757.0</ele><time>2026-05-02T17:10:24.864Z</time></trkpt><trkpt lat="42.3362867" lon="13.31597"><ele>757.0</ele><time>2026-05-02T17:10:25.865Z</time></trkpt><trkpt lat="42.3363983" lon="13.3159733"><ele>757.0</ele><time>2026-05-02T17:10:26.864Z</time></trkpt><trkpt lat="42.336505" lon="13.3159733"><ele>757.0</ele><time>2026-05-02T17:10:27.865Z</time></trkpt><trkpt lat="42.3366033" lon="13.31597"><ele>757.0</ele><time>2026-05-02T17:10:28.864Z</time></trkpt><trkpt lat="42.3366967" lon="13.3159767"><ele>757.0</ele><time>2026-05-02T17:10:29.864Z</time></trkpt><trkpt lat="42.336785" lon="13.3159783"><ele>757.0</ele><time>2026-05-02T17:10:30.864Z</time></trkpt><trkpt lat="42.3368617" lon="13.3159733"><ele>757.0</ele><time>2026-05-02T17:10:31.865Z</time></trkpt><trkpt lat="42.33695" lon="13.3159717"><ele>757.0</ele><time>2026-05-02T17:10:32.864Z</time></trkpt><trkpt lat="42.3370333" lon="13.3159633"><ele>757.0</ele><time>2026-05-02T17:10:33.865Z</time></trkpt><trkpt lat="42.3371167" lon="13.315955"><ele>757.0</ele><time>2026-05-02T17:10:34.864Z</time></trkpt><trkpt lat="42.3372067" lon="13.3159367"><ele>757.0</ele><time>2026-05-02T17:10:35.864Z</time></trkpt><trkpt lat="42.3372967" lon="13.3159183"><ele>757.0</ele><time>2026-05-02T17:10:36.865Z</time></trkpt><trkpt lat="42.3373817" lon="13.3159017"><ele>757.6</ele><time>2026-05-02T17:10:37.864Z</time></trkpt><trkpt lat="42.3374717" lon="13.3158833"><ele>758.2</ele><time>2026-05-02T17:10:38.865Z</time></trkpt><trkpt lat="42.33756" lon="13.3158717"><ele>758.8</ele><time>2026-05-02T17:10:39.864Z</time></trkpt><trkpt lat="42.3376467" lon="13.3158483"><ele>759.4</ele><time>2026-05-02T17:10:40.864Z</time></trkpt><trkpt lat="42.3377367" lon="13.31583"><ele>760.0</ele><time>2026-05-02T17:10:41.864Z</time></trkpt><trkpt lat="42.3378367" lon="13.3158117"><ele>760.0</ele><time>2026-05-02T17:10:42.865Z</time></trkpt><trkpt lat="42.3379317" lon="13.3157883"><ele>760.0</ele><time>2026-05-02T17:10:43.864Z</time></trkpt><trkpt lat="42.3380233" lon="13.3157633"><ele>760.0</ele><time>2026-05-02T17:10:44.864Z</time></trkpt><trkpt lat="42.338104" lon="13.315746"><ele>760.0</ele><time>2026-05-02T17:10:45.865Z</time></trkpt><trkpt lat="42.3381904" lon="13.3157281"><ele>760.0</ele><time>2026-05-02T17:10:46.865Z</time></trkpt><trkpt lat="42.3382718" lon="13.315715"><ele>760.0</ele><time>2026-05-02T17:10:47.865Z</time></trkpt><trkpt lat="42.3383689" lon="13.3157067"><ele>760.4</ele><time>2026-05-02T17:10:48.864Z</time></trkpt><trkpt lat="42.3384662" lon="13.3157021"><ele>760.8</ele><time>2026-05-02T17:10:49.864Z</time></trkpt><trkpt lat="42.3385634" lon="13.3156989"><ele>761.2</ele><time>2026-05-02T17:10:50.865Z</time></trkpt><trkpt lat="42.3386665" lon="13.3156903"><ele>761.6</ele><time>2026-05-02T17:10:51.864Z</time></trkpt><trkpt lat="42.3387665" lon="13.3156845"><ele>762.0</ele><time>2026-05-02T17:10:52.864Z</time></trkpt><trkpt lat="42.3388568" lon="13.3156881"><ele>761.4000000000001</ele><time>2026-05-02T17:10:53.865Z</time></trkpt><trkpt lat="42.3389451" lon="13.3156965"><ele>760.8000000000001</ele><time>2026-05-02T17:10:54.864Z</time></trkpt><trkpt lat="42.3390348" lon="13.315707"><ele>760.2</ele><time>2026-05-02T17:10:55.864Z</time></trkpt><trkpt lat="42.3391193" lon="13.3157191"><ele>759.6</ele><time>2026-05-02T17:10:56.865Z</time></trkpt><trkpt lat="42.3392139" lon="13.3157294"><ele>759.0</ele><time>2026-05-02T17:10:57.865Z</time></trkpt><trkpt lat="42.3393051" lon="13.3157384"><ele>759.0</ele><time>2026-05-02T17:10:58.864Z</time></trkpt><trkpt lat="42.3394059" lon="13.3157411"><ele>759.0</ele><time>2026-05-02T17:10:59.864Z</time></trkpt><trkpt lat="42.3395015" lon="13.3157413"><ele>759.0</ele><time>2026-05-02T17:11:00.864Z</time></trkpt><trkpt lat="42.3395982" lon="13.3157435"><ele>759.0</ele><time>2026-05-02T17:11:01.865Z</time></trkpt><trkpt lat="42.3396881" lon="13.3157426"><ele>759.0</ele><time>2026-05-02T17:11:02.864Z</time></trkpt><trkpt lat="42.3397734" lon="13.3157391"><ele>758.1666666666666</ele><time>2026-05-02T17:11:03.864Z</time></trkpt><trkpt lat="42.339861" lon="13.3157404"><ele>757.3333333333334</ele><time>2026-05-02T17:11:04.865Z</time></trkpt><trkpt lat="42.3399531" lon="13.3157446"><ele>756.5</ele><time>2026-05-02T17:11:05.864Z</time></trkpt><trkpt lat="42.3400293" lon="13.3157443"><ele>755.6666666666667</ele><time>2026-05-02T17:11:06.865Z</time></trkpt><trkpt lat="42.340113" lon="13.3157526"><ele>754.8333333333334</ele><time>2026-05-02T17:11:07.864Z</time></trkpt><trkpt lat="42.340205" lon="13.3157685"><ele>754.0</ele><time>2026-05-02T17:11:08.864Z</time></trkpt><trkpt lat="42.340287" lon="13.3157771"><ele>754.0</ele><time>2026-05-02T17:11:09.864Z</time></trkpt><trkpt lat="42.340377" lon="13.315798"><ele>754.0</ele><time>2026-05-02T17:11:10.865Z</time></trkpt><trkpt lat="42.3404581" lon="13.315819"><ele>754.0</ele><time>2026-05-02T17:11:11.864Z</time></trkpt><trkpt lat="42.3405376" lon="13.315833"><ele>754.0</ele><time>2026-05-02T17:11:12.864Z</time></trkpt><trkpt lat="42.3406135" lon="13.315851"><ele>754.0</ele><time>2026-05-02T17:11:13.864Z</time></trkpt><trkpt lat="42.3406859" lon="13.3158674"><ele>754.0</ele><time>2026-05-02T17:11:14.865Z</time></trkpt><trkpt lat="42.3407656" lon="13.3158793"><ele>753.5</ele><time>2026-05-02T17:11:15.864Z</time></trkpt><trkpt lat="42.3408473" lon="13.3158905"><ele>753.0</ele><time>2026-05-02T17:11:16.865Z</time></trkpt><trkpt lat="42.3409252" lon="13.3159009"><ele>752.5</ele><time>2026-05-02T17:11:17.865Z</time></trkpt><trkpt lat="42.3410041" lon="13.3159101"><ele>752.0</ele><time>2026-05-02T17:11:18.864Z</time></trkpt><trkpt lat="42.3410828" lon="13.3159126"><ele>751.5</ele><time>2026-05-02T17:11:19.864Z</time></trkpt><trkpt lat="42.3411703" lon="13.3159201"><ele>751.0</ele><time>2026-05-02T17:11:20.865Z</time></trkpt><trkpt lat="42.3412574" lon="13.3159301"><ele>751.0</ele><time>2026-05-02T17:11:21.865Z</time></trkpt><trkpt lat="42.3413507" lon="13.3159421"><ele>751.0</ele><time>2026-05-02T17:11:22.864Z</time></trkpt><trkpt lat="42.3414617" lon="13.3159623"><ele>751.0</ele><time>2026-05-02T17:11:23.864Z</time></trkpt><trkpt lat="42.3415746" lon="13.3159643"><ele>751.0</ele><time>2026-05-02T17:11:24.865Z</time></trkpt><trkpt lat="42.3416867" lon="13.3159633"><ele>751.0</ele><time>2026-05-02T17:11:25.865Z</time></trkpt><trkpt lat="42.3418" lon="13.3159617"><ele>748.8</ele><time>2026-05-02T17:11:26.865Z</time></trkpt><trkpt lat="42.341905" lon="13.3159617"><ele>746.5999999999999</ele><time>2026-05-02T17:11:27.864Z</time></trkpt><trkpt lat="42.3420083" lon="13.315955"><ele>744.4</ele><time>2026-05-02T17:11:28.864Z</time></trkpt><trkpt lat="42.3420917" lon="13.31596"><ele>742.2</ele><time>2026-05-02T17:11:29.864Z</time></trkpt><trkpt lat="42.34217" lon="13.3159767"><ele>740.0</ele><time>2026-05-02T17:11:30.864Z</time></trkpt><trkpt lat="42.3422533" lon="13.315985"><ele>739.5</ele><time>2026-05-02T17:11:31.864Z</time></trkpt><trkpt lat="42.3423267" lon="13.315985"><ele>739.0</ele><time>2026-05-02T17:11:32.865Z</time></trkpt><trkpt lat="42.3424" lon="13.3159733"><ele>738.5</ele><time>2026-05-02T17:11:33.864Z</time></trkpt><trkpt lat="42.3424667" lon="13.315945"><ele>738.0</ele><time>2026-05-02T17:11:34.864Z</time></trkpt><trkpt lat="42.34254" lon="13.3158867"><ele>737.5</ele><time>2026-05-02T17:11:35.864Z</time></trkpt><trkpt lat="42.3426133" lon="13.3158183"><ele>737.0</ele><time>2026-05-02T17:11:36.865Z</time></trkpt><trkpt lat="42.3426833" lon="13.31575"><ele>737.0</ele><time>2026-05-02T17:11:37.864Z</time></trkpt><trkpt lat="42.3427583" lon="13.315685"><ele>737.0</ele><time>2026-05-02T17:11:38.865Z</time></trkpt><trkpt lat="42.342825" lon="13.31563"><ele>737.0</ele><time>2026-05-02T17:11:39.864Z</time></trkpt><trkpt lat="42.34289" lon="13.3155767"><ele>737.0</ele><time>2026-05-02T17:11:40.865Z</time></trkpt><trkpt lat="42.3429567" lon="13.3155283"><ele>737.0</ele><time>2026-05-02T17:11:41.864Z</time></trkpt><trkpt lat="42.3430267" lon="13.3154717"><ele>737.0</ele><time>2026-05-02T17:11:42.864Z</time></trkpt><trkpt lat="42.3430883" lon="13.3154367"><ele>735.6666666666666</ele><time>2026-05-02T17:11:43.864Z</time></trkpt><trkpt lat="42.343165" lon="13.3154017"><ele>734.3333333333333</ele><time>2026-05-02T17:11:44.865Z</time></trkpt><trkpt lat="42.343245" lon="13.3153817"><ele>733.0</ele><time>2026-05-02T17:11:45.865Z</time></trkpt><trkpt lat="42.343325" lon="13.315365"><ele>731.6666666666666</ele><time>2026-05-02T17:11:46.864Z</time></trkpt><trkpt lat="42.34341" lon="13.3153667"><ele>730.3333333333334</ele><time>2026-05-02T17:11:47.864Z</time></trkpt><trkpt lat="42.3434867" lon="13.315385"><ele>729.0</ele><time>2026-05-02T17:11:48.864Z</time></trkpt><trkpt lat="42.3435567" lon="13.315415"><ele>729.0</ele><time>2026-05-02T17:11:49.865Z</time></trkpt><trkpt lat="42.3436233" lon="13.3154517"><ele>729.0</ele><time>2026-05-02T17:11:50.865Z</time></trkpt><trkpt lat="42.3437067" lon="13.315485"><ele>729.0</ele><time>2026-05-02T17:11:51.864Z</time></trkpt><trkpt lat="42.3437967" lon="13.31551"><ele>729.0</ele><time>2026-05-02T17:11:52.865Z</time></trkpt><trkpt lat="42.3438917" lon="13.3155233"><ele>729.0</ele><time>2026-05-02T17:11:53.864Z</time></trkpt><trkpt lat="42.3439833" lon="13.31553"><ele>729.0</ele><time>2026-05-02T17:11:54.865Z</time></trkpt><trkpt lat="42.3440867" lon="13.31553"><ele>727.6</ele><time>2026-05-02T17:11:55.865Z</time></trkpt><trkpt lat="42.3441867" lon="13.3155333"><ele>726.2</ele><time>2026-05-02T17:11:56.864Z</time></trkpt><trkpt lat="42.3442833" lon="13.3155317"><ele>724.8000000000001</ele><time>2026-05-02T17:11:57.864Z</time></trkpt><trkpt lat="42.34438" lon="13.315525"><ele>723.4000000000001</ele><time>2026-05-02T17:11:58.864Z</time></trkpt><trkpt lat="42.34447" lon="13.3155133"><ele>722.0</ele><time>2026-05-02T17:11:59.864Z</time></trkpt><trkpt lat="42.3445517" lon="13.3155033"><ele>722.0</ele><time>2026-05-02T17:12:00.865Z</time></trkpt><trkpt lat="42.3446433" lon="13.3155"><ele>722.0</ele><time>2026-05-02T17:12:01.865Z</time></trkpt><trkpt lat="42.3447317" lon="13.3154833"><ele>722.0</ele><time>2026-05-02T17:12:02.865Z</time></trkpt><trkpt lat="42.3448283" lon="13.3154567"><ele>722.0</ele><time>2026-05-02T17:12:03.865Z</time></trkpt><trkpt lat="42.3449267" lon="13.315435"><ele>722.0</ele><time>2026-05-02T17:12:04.865Z</time></trkpt><trkpt lat="42.3450367" lon="13.3154167"><ele>720.8</ele><time>2026-05-02T17:12:05.865Z</time></trkpt><trkpt lat="42.34513" lon="13.3154"><ele>719.6</ele><time>2026-05-02T17:12:06.864Z</time></trkpt><trkpt lat="42.3452083" lon="13.3153883"><ele>718.4</ele><time>2026-05-02T17:12:07.864Z</time></trkpt><trkpt lat="42.3452833" lon="13.3153733"><ele>717.1999999999999</ele><time>2026-05-02T17:12:08.864Z</time></trkpt><trkpt lat="42.34542" lon="13.3153617"><ele>716.0</ele><time>2026-05-02T17:12:10.864Z</time></trkpt><trkpt lat="42.3454917" lon="13.3153767"><ele>715.6666666666666</ele><time>2026-05-02T17:12:11.865Z</time></trkpt><trkpt lat="42.3455633" lon="13.3154017"><ele>715.3333333333333</ele><time>2026-05-02T17:12:12.864Z</time></trkpt><trkpt lat="42.3456333" lon="13.3154367"><ele>715.0</ele><time>2026-05-02T17:12:13.864Z</time></trkpt><trkpt lat="42.3456983" lon="13.3154733"><ele>714.6666666666666</ele><time>2026-05-02T17:12:14.864Z</time></trkpt><trkpt lat="42.345765" lon="13.3155033"><ele>714.3333333333334</ele><time>2026-05-02T17:12:15.865Z</time></trkpt><trkpt lat="42.3458533" lon="13.31553"><ele>714.0</ele><time>2026-05-02T17:12:16.864Z</time></trkpt><trkpt lat="42.3459417" lon="13.3155617"><ele>715.0</ele><time>2026-05-02T17:12:17.865Z</time></trkpt><trkpt lat="42.34604" lon="13.31559"><ele>716.0</ele><time>2026-05-02T17:12:18.864Z</time></trkpt><trkpt lat="42.3461317" lon="13.3156117"><ele>717.0</ele><time>2026-05-02T17:12:19.865Z</time></trkpt><trkpt lat="42.34621" lon="13.3156333"><ele>718.0</ele><time>2026-05-02T17:12:20.865Z</time></trkpt><trkpt lat="42.3462917" lon="13.31565"><ele>719.0</ele><time>2026-05-02T17:12:21.864Z</time></trkpt><trkpt lat="42.3463717" lon="13.3156633"><ele>720.0</ele><time>2026-05-02T17:12:22.865Z</time></trkpt><trkpt lat="42.346445" lon="13.3156733"><ele>720.3333333333334</ele><time>2026-05-02T17:12:23.865Z</time></trkpt><trkpt lat="42.34653" lon="13.31568"><ele>720.6666666666666</ele><time>2026-05-02T17:12:24.864Z</time></trkpt><trkpt lat="42.3466067" lon="13.3156983"><ele>721.0</ele><time>2026-05-02T17:12:25.864Z</time></trkpt><trkpt lat="42.346685" lon="13.31573"><ele>721.3333333333333</ele><time>2026-05-02T17:12:26.865Z</time></trkpt><trkpt lat="42.346755" lon="13.315775"><ele>721.6666666666666</ele><time>2026-05-02T17:12:27.865Z</time></trkpt><trkpt lat="42.3468267" lon="13.3158267"><ele>722.0</ele><time>2026-05-02T17:12:28.865Z</time></trkpt><trkpt lat="42.3469167" lon="13.3158783"><ele>722.0</ele><time>2026-05-02T17:12:29.865Z</time></trkpt><trkpt lat="42.3469767" lon="13.3159233"><ele>722.0</ele><time>2026-05-02T17:12:30.864Z</time></trkpt><trkpt lat="42.3470467" lon="13.3159933"><ele>722.0</ele><time>2026-05-02T17:12:31.864Z</time></trkpt><trkpt lat="42.347115" lon="13.3160733"><ele>722.0</ele><time>2026-05-02T17:12:32.864Z</time></trkpt><trkpt lat="42.3472" lon="13.3161367"><ele>722.0</ele><time>2026-05-02T17:12:33.864Z</time></trkpt><trkpt lat="42.3472667" lon="13.3162117"><ele>722.0</ele><time>2026-05-02T17:12:34.865Z</time></trkpt><trkpt lat="42.3473367" lon="13.3162583"><ele>721.4000000000001</ele><time>2026-05-02T17:12:35.865Z</time></trkpt><trkpt lat="42.3474267" lon="13.3162917"><ele>720.8000000000001</ele><time>2026-05-02T17:12:36.864Z</time></trkpt><trkpt lat="42.3475183" lon="13.3163083"><ele>720.2</ele><time>2026-05-02T17:12:37.865Z</time></trkpt><trkpt lat="42.3476283" lon="13.3163317"><ele>719.6</ele><time>2026-05-02T17:12:38.864Z</time></trkpt><trkpt lat="42.34773" lon="13.3163633"><ele>719.0</ele><time>2026-05-02T17:12:39.865Z</time></trkpt><trkpt lat="42.3478233" lon="13.3163967"><ele>719.0</ele><time>2026-05-02T17:12:40.865Z</time></trkpt><trkpt lat="42.34791" lon="13.3164433"><ele>719.0</ele><time>2026-05-02T17:12:41.865Z</time></trkpt><trkpt lat="42.34799" lon="13.3165067"><ele>719.0</ele><time>2026-05-02T17:12:42.864Z</time></trkpt><trkpt lat="42.3480683" lon="13.316575"><ele>719.0</ele><time>2026-05-02T17:12:43.864Z</time></trkpt><trkpt lat="42.34816" lon="13.3166533"><ele>719.0</ele><time>2026-05-02T17:12:44.864Z</time></trkpt><trkpt lat="42.348245" lon="13.316725"><ele>718.6666666666666</ele><time>2026-05-02T17:12:45.865Z</time></trkpt><trkpt lat="42.3483267" lon="13.3167983"><ele>718.3333333333333</ele><time>2026-05-02T17:12:46.865Z</time></trkpt><trkpt lat="42.3483983" lon="13.3168483"><ele>718.0</ele><time>2026-05-02T17:12:47.864Z</time></trkpt><trkpt lat="42.348475" lon="13.3168883"><ele>717.6666666666666</ele><time>2026-05-02T17:12:48.864Z</time></trkpt><trkpt lat="42.3485583" lon="13.3168967"><ele>717.3333333333334</ele><time>2026-05-02T17:12:49.864Z</time></trkpt><trkpt lat="42.3486417" lon="13.3169083"><ele>717.0</ele><time>2026-05-02T17:12:50.865Z</time></trkpt><trkpt lat="42.3487133" lon="13.3169067"><ele>717.0</ele><time>2026-05-02T17:12:51.865Z</time></trkpt><trkpt lat="42.348815" lon="13.31692"><ele>717.0</ele><time>2026-05-02T17:12:53.864Z</time></trkpt><trkpt lat="42.3488783" lon="13.31691"><ele>717.0</ele><time>2026-05-02T17:12:55.864Z</time></trkpt><trkpt lat="42.3489317" lon="13.3168117"><ele>717.0</ele><time>2026-05-02T17:12:58.864Z</time></trkpt><trkpt lat="42.3489617" lon="13.3167183"><ele>717.0</ele><time>2026-05-02T17:13:00.864Z</time></trkpt><trkpt lat="42.3490317" lon="13.3166867"><ele>717.0</ele><time>2026-05-02T17:13:02.864Z</time></trkpt><trkpt lat="42.3491233" lon="13.3167883"><ele>714.0</ele><time>2026-05-02T17:13:04.865Z</time></trkpt><trkpt lat="42.3491933" lon="13.3168817"><ele>711.0</ele><time>2026-05-02T17:13:05.865Z</time></trkpt><trkpt lat="42.349285" lon="13.3169417"><ele>708.0</ele><time>2026-05-02T17:13:06.865Z</time></trkpt><trkpt lat="42.3493933" lon="13.3170067"><ele>705.0</ele><time>2026-05-02T17:13:07.865Z</time></trkpt><trkpt lat="42.349515" lon="13.3170917"><ele>705.0</ele><time>2026-05-02T17:13:08.864Z</time></trkpt><trkpt lat="42.3496383" lon="13.3171783"><ele>705.0</ele><time>2026-05-02T17:13:09.864Z</time></trkpt><trkpt lat="42.349755" lon="13.317265"><ele>705.0</ele><time>2026-05-02T17:13:10.864Z</time></trkpt><trkpt lat="42.34986" lon="13.31737"><ele>705.0</ele><time>2026-05-02T17:13:11.864Z</time></trkpt><trkpt lat="42.3499517" lon="13.3174833"><ele>702.75</ele><time>2026-05-02T17:13:12.864Z</time></trkpt><trkpt lat="42.3500317" lon="13.3176117"><ele>700.5</ele><time>2026-05-02T17:13:13.864Z</time></trkpt><trkpt lat="42.350115" lon="13.31774"><ele>698.25</ele><time>2026-05-02T17:13:14.864Z</time></trkpt><trkpt lat="42.350195" lon="13.3178567"><ele>696.0</ele><time>2026-05-02T17:13:15.864Z</time></trkpt><trkpt lat="42.3502767" lon="13.3179633"><ele>696.1999999999999</ele><time>2026-05-02T17:13:16.864Z</time></trkpt><trkpt lat="42.35036" lon="13.318075"><ele>696.4</ele><time>2026-05-02T17:13:17.865Z</time></trkpt><trkpt lat="42.3504417" lon="13.3181783"><ele>696.6</ele><time>2026-05-02T17:13:18.864Z</time></trkpt><trkpt lat="42.3505233" lon="13.3182733"><ele>696.8</ele><time>2026-05-02T17:13:19.864Z</time></trkpt><trkpt lat="42.3505983" lon="13.318375"><ele>697.0</ele><time>2026-05-02T17:13:20.864Z</time></trkpt><trkpt lat="42.3506767" lon="13.3184767"><ele>694.8</ele><time>2026-05-02T17:13:21.865Z</time></trkpt><trkpt lat="42.3507517" lon="13.3185733"><ele>692.6</ele><time>2026-05-02T17:13:22.864Z</time></trkpt><trkpt lat="42.3508217" lon="13.3186683"><ele>690.4</ele><time>2026-05-02T17:13:23.864Z</time></trkpt><trkpt lat="42.3508933" lon="13.318755"><ele>688.1999999999999</ele><time>2026-05-02T17:13:24.865Z</time></trkpt><trkpt lat="42.3509667" lon="13.3188467"><ele>686.0</ele><time>2026-05-02T17:13:25.865Z</time></trkpt><trkpt lat="42.3510383" lon="13.3189433"><ele>685.4</ele><time>2026-05-02T17:13:26.864Z</time></trkpt><trkpt lat="42.3510983" lon="13.3190467"><ele>684.8</ele><time>2026-05-02T17:13:27.864Z</time></trkpt><trkpt lat="42.3511633" lon="13.319155"><ele>684.1999999999999</ele><time>2026-05-02T17:13:28.864Z</time></trkpt><trkpt lat="42.3512433" lon="13.3192717"><ele>683.5999999999999</ele><time>2026-05-02T17:13:29.865Z</time></trkpt><trkpt lat="42.3513283" lon="13.31939"><ele>683.0</ele><time>2026-05-02T17:13:30.864Z</time></trkpt><trkpt lat="42.35143" lon="13.3195033"><ele>683.0</ele><time>2026-05-02T17:13:31.865Z</time></trkpt><trkpt lat="42.351545" lon="13.31961"><ele>683.0</ele><time>2026-05-02T17:13:32.864Z</time></trkpt><trkpt lat="42.3516583" lon="13.319705"><ele>683.0</ele><time>2026-05-02T17:13:33.864Z</time></trkpt><trkpt lat="42.3517833" lon="13.3198117"><ele>683.0</ele><time>2026-05-02T17:13:34.864Z</time></trkpt><trkpt lat="42.3519033" lon="13.3199183"><ele>683.0</ele><time>2026-05-02T17:13:35.865Z</time></trkpt><trkpt lat="42.3520233" lon="13.32003"><ele>683.0</ele><time>2026-05-02T17:13:36.864Z</time></trkpt><trkpt lat="42.35214" lon="13.3201283"><ele>683.0</ele><time>2026-05-02T17:13:37.864Z</time></trkpt><trkpt lat="42.35225" lon="13.3202317"><ele>683.0</ele><time>2026-05-02T17:13:38.864Z</time></trkpt><trkpt lat="42.352355" lon="13.3203217"><ele>681.8333333333333</ele><time>2026-05-02T17:13:39.865Z</time></trkpt><trkpt lat="42.3524533" lon="13.3204083"><ele>680.6666666666666</ele><time>2026-05-02T17:13:40.864Z</time></trkpt><trkpt lat="42.352535" lon="13.32049"><ele>679.5</ele><time>2026-05-02T17:13:41.864Z</time></trkpt><trkpt lat="42.3526067" lon="13.32055"><ele>678.3333333333334</ele><time>2026-05-02T17:13:42.864Z</time></trkpt><trkpt lat="42.35267" lon="13.3206017"><ele>677.1666666666667</ele><time>2026-05-02T17:13:43.865Z</time></trkpt><trkpt lat="42.3527267" lon="13.3206517"><ele>676.0</ele><time>2026-05-02T17:13:44.864Z</time></trkpt><trkpt lat="42.3527817" lon="13.3206983"><ele>676.0</ele><time>2026-05-02T17:13:45.865Z</time></trkpt><trkpt lat="42.352855" lon="13.3207983"><ele>676.0</ele><time>2026-05-02T17:13:47.864Z</time></trkpt><trkpt lat="42.3528883" lon="13.3209567"><ele>676.0</ele><time>2026-05-02T17:13:49.865Z</time></trkpt><trkpt lat="42.352885" lon="13.3210667"><ele>676.0</ele><time>2026-05-02T17:13:50.865Z</time></trkpt><trkpt lat="42.3528783" lon="13.3212083"><ele>676.0</ele><time>2026-05-02T17:13:51.864Z</time></trkpt><trkpt lat="42.35288" lon="13.3213583"><ele>674.5</ele><time>2026-05-02T17:13:52.864Z</time></trkpt><trkpt lat="42.352895" lon="13.32152"><ele>673.0</ele><time>2026-05-02T17:13:53.864Z</time></trkpt><trkpt lat="42.3529217" lon="13.3216983"><ele>671.5</ele><time>2026-05-02T17:13:54.864Z</time></trkpt><trkpt lat="42.3529567" lon="13.3218567"><ele>670.0</ele><time>2026-05-02T17:13:55.864Z</time></trkpt><trkpt lat="42.353" lon="13.322"><ele>669.8</ele><time>2026-05-02T17:13:56.864Z</time></trkpt><trkpt lat="42.3530483" lon="13.3221317"><ele>669.6</ele><time>2026-05-02T17:13:57.864Z</time></trkpt><trkpt lat="42.3531017" lon="13.32226"><ele>669.4000000000001</ele><time>2026-05-02T17:13:58.865Z</time></trkpt><trkpt lat="42.353145" lon="13.3223783"><ele>669.2</ele><time>2026-05-02T17:13:59.864Z</time></trkpt><trkpt lat="42.3531817" lon="13.3224933"><ele>669.0</ele><time>2026-05-02T17:14:00.864Z</time></trkpt><trkpt lat="42.35322" lon="13.3226"><ele>668.3333333333334</ele><time>2026-05-02T17:14:01.864Z</time></trkpt><trkpt lat="42.3532417" lon="13.3226967"><ele>667.6666666666666</ele><time>2026-05-02T17:14:02.865Z</time></trkpt><trkpt lat="42.3532517" lon="13.3227933"><ele>667.0</ele><time>2026-05-02T17:14:03.865Z</time></trkpt><trkpt lat="42.3532733" lon="13.3228833"><ele>666.3333333333333</ele><time>2026-05-02T17:14:04.864Z</time></trkpt><trkpt lat="42.3533183" lon="13.32298"><ele>665.6666666666666</ele><time>2026-05-02T17:14:05.864Z</time></trkpt><trkpt lat="42.3533833" lon="13.32309"><ele>665.0</ele><time>2026-05-02T17:14:06.864Z</time></trkpt><trkpt lat="42.3534633" lon="13.3232167"><ele>664.4</ele><time>2026-05-02T17:14:07.864Z</time></trkpt><trkpt lat="42.3535367" lon="13.3233517"><ele>663.8</ele><time>2026-05-02T17:14:08.864Z</time></trkpt><trkpt lat="42.3536" lon="13.3234783"><ele>663.2</ele><time>2026-05-02T17:14:09.865Z</time></trkpt><trkpt lat="42.353655" lon="13.323605"><ele>662.6</ele><time>2026-05-02T17:14:10.865Z</time></trkpt><trkpt lat="42.353705" lon="13.3237267"><ele>662.0</ele><time>2026-05-02T17:14:11.865Z</time></trkpt><trkpt lat="42.3537467" lon="13.3238217"><ele>661.8333333333333</ele><time>2026-05-02T17:14:12.865Z</time></trkpt><trkpt lat="42.353785" lon="13.3239133"><ele>661.6666666666666</ele><time>2026-05-02T17:14:13.864Z</time></trkpt><trkpt lat="42.3538183" lon="13.3239867"><ele>661.5</ele><time>2026-05-02T17:14:14.865Z</time></trkpt><trkpt lat="42.3538583" lon="13.32407"><ele>661.3333333333334</ele><time>2026-05-02T17:14:15.864Z</time></trkpt><trkpt lat="42.3539033" lon="13.3241467"><ele>661.1666666666667</ele><time>2026-05-02T17:14:16.865Z</time></trkpt><trkpt lat="42.3539433" lon="13.3242233"><ele>661.0</ele><time>2026-05-02T17:14:17.864Z</time></trkpt><trkpt lat="42.3540017" lon="13.3243633"><ele>661.0</ele><time>2026-05-02T17:14:19.864Z</time></trkpt><trkpt lat="42.35407" lon="13.3244917"><ele>661.0</ele><time>2026-05-02T17:14:21.864Z</time></trkpt><trkpt lat="42.354125" lon="13.3245983"><ele>661.0</ele><time>2026-05-02T17:14:23.864Z</time></trkpt><trkpt lat="42.3541883" lon="13.3246117"><ele>661.0</ele><time>2026-05-02T17:14:25.864Z</time></trkpt><trkpt lat="42.3542067" lon="13.3245233"><ele>661.0</ele><time>2026-05-02T17:14:28.865Z</time></trkpt><trkpt lat="42.35416" lon="13.3244533"><ele>661.0</ele><time>2026-05-02T17:14:31.864Z</time></trkpt><trkpt lat="42.3541283" lon="13.3245533"><ele>661.0</ele><time>2026-05-02T17:15:53.864Z</time></trkpt><trkpt lat="42.3541367" lon="13.3244167"><ele>661.0</ele><time>2026-05-02T17:20:42.864Z</time></trkpt><trkpt lat="42.3540867" lon="13.3243217"><ele>661.0</ele><time>2026-05-02T17:20:45.864Z</time></trkpt><trkpt lat="42.3540467" lon="13.3243967"><ele>661.0</ele><time>2026-05-02T17:20:48.864Z</time></trkpt><trkpt lat="42.3540467" lon="13.32454"><ele>661.0</ele><time>2026-05-02T17:20:51.865Z</time></trkpt><trkpt lat="42.3540967" lon="13.3246867"><ele>660.3333333333334</ele><time>2026-05-02T17:20:53.864Z</time></trkpt><trkpt lat="42.3541367" lon="13.3247667"><ele>659.6666666666667</ele><time>2026-05-02T17:20:54.864Z</time></trkpt><trkpt lat="42.3541767" lon="13.3248583"><ele>659.0</ele><time>2026-05-02T17:20:55.865Z</time></trkpt><trkpt lat="42.35423" lon="13.32495"><ele>658.3333333333334</ele><time>2026-05-02T17:20:56.864Z</time></trkpt><trkpt lat="42.354275" lon="13.3250467"><ele>657.6666666666666</ele><time>2026-05-02T17:20:57.864Z</time></trkpt><trkpt lat="42.3543217" lon="13.32515"><ele>657.0</ele><time>2026-05-02T17:20:58.865Z</time></trkpt><trkpt lat="42.35438" lon="13.3252533"><ele>657.0</ele><time>2026-05-02T17:20:59.864Z</time></trkpt><trkpt lat="42.3544417" lon="13.3253667"><ele>657.0</ele><time>2026-05-02T17:21:00.864Z</time></trkpt><trkpt lat="42.3544983" lon="13.3254683"><ele>657.0</ele><time>2026-05-02T17:21:01.864Z</time></trkpt><trkpt lat="42.3545533" lon="13.3255683"><ele>657.0</ele><time>2026-05-02T17:21:02.864Z</time></trkpt><trkpt lat="42.354605" lon="13.3256667"><ele>657.0</ele><time>2026-05-02T17:21:03.864Z</time></trkpt><trkpt lat="42.3546667" lon="13.32577"><ele>656.5</ele><time>2026-05-02T17:21:04.865Z</time></trkpt><trkpt lat="42.3547267" lon="13.32589"><ele>656.0</ele><time>2026-05-02T17:21:05.864Z</time></trkpt><trkpt lat="42.35479" lon="13.326015"><ele>655.5</ele><time>2026-05-02T17:21:06.865Z</time></trkpt><trkpt lat="42.3548483" lon="13.32615"><ele>655.0</ele><time>2026-05-02T17:21:07.864Z</time></trkpt><trkpt lat="42.3549133" lon="13.3262983"><ele>655.0</ele><time>2026-05-02T17:21:08.864Z</time></trkpt><trkpt lat="42.35498" lon="13.32644"><ele>655.0</ele><time>2026-05-02T17:21:09.864Z</time></trkpt><trkpt lat="42.3550567" lon="13.3265917"><ele>655.0</ele><time>2026-05-02T17:21:10.865Z</time></trkpt><trkpt lat="42.3551433" lon="13.3267367"><ele>655.0</ele><time>2026-05-02T17:21:11.864Z</time></trkpt><trkpt lat="42.3552358" lon="13.3268732"><ele>655.0</ele><time>2026-05-02T17:21:12.865Z</time></trkpt><trkpt lat="42.3553314" lon="13.3270092"><ele>655.0</ele><time>2026-05-02T17:21:13.864Z</time></trkpt><trkpt lat="42.3554228" lon="13.3271517"><ele>655.0</ele><time>2026-05-02T17:21:14.864Z</time></trkpt><trkpt lat="42.3555064" lon="13.3272962"><ele>655.0</ele><time>2026-05-02T17:21:15.864Z</time></trkpt><trkpt lat="42.3555816" lon="13.3274354"><ele>654.5</ele><time>2026-05-02T17:21:16.865Z</time></trkpt><trkpt lat="42.3556493" lon="13.3275693"><ele>654.0</ele><time>2026-05-02T17:21:17.864Z</time></trkpt><trkpt lat="42.3557193" lon="13.327707"><ele>653.5</ele><time>2026-05-02T17:21:18.864Z</time></trkpt><trkpt lat="42.3557923" lon="13.3278498"><ele>653.0</ele><time>2026-05-02T17:21:19.864Z</time></trkpt><trkpt lat="42.3558732" lon="13.3279942"><ele>652.75</ele><time>2026-05-02T17:21:20.864Z</time></trkpt><trkpt lat="42.3559499" lon="13.3281444"><ele>652.5</ele><time>2026-05-02T17:21:21.864Z</time></trkpt><trkpt lat="42.356026" lon="13.3282886"><ele>652.25</ele><time>2026-05-02T17:21:22.865Z</time></trkpt><trkpt lat="42.3561017" lon="13.3284267"><ele>652.0</ele><time>2026-05-02T17:21:23.865Z</time></trkpt><trkpt lat="42.3561699" lon="13.3285655"><ele>652.0</ele><time>2026-05-02T17:21:24.865Z</time></trkpt><trkpt lat="42.3562243" lon="13.3287084"><ele>652.0</ele><time>2026-05-02T17:21:25.865Z</time></trkpt><trkpt lat="42.3562542" lon="13.3288662"><ele>652.0</ele><time>2026-05-02T17:21:26.864Z</time></trkpt><trkpt lat="42.3562568" lon="13.3290397"><ele>652.0</ele><time>2026-05-02T17:21:27.864Z</time></trkpt><trkpt lat="42.356236" lon="13.3292257"><ele>652.0</ele><time>2026-05-02T17:21:28.864Z</time></trkpt><trkpt lat="42.3561973" lon="13.32942"><ele>652.0</ele><time>2026-05-02T17:21:29.864Z</time></trkpt><trkpt lat="42.3561589" lon="13.32961"><ele>652.0</ele><time>2026-05-02T17:21:30.864Z</time></trkpt><trkpt lat="42.3561213" lon="13.3297975"><ele>652.0</ele><time>2026-05-02T17:21:31.864Z</time></trkpt><trkpt lat="42.3560831" lon="13.3299845"><ele>652.0</ele><time>2026-05-02T17:21:32.864Z</time></trkpt><trkpt lat="42.3560441" lon="13.3301697"><ele>652.0</ele><time>2026-05-02T17:21:33.865Z</time></trkpt><trkpt lat="42.3560069" lon="13.3303506"><ele>652.0</ele><time>2026-05-02T17:21:34.865Z</time></trkpt><trkpt lat="42.3559694" lon="13.3305336"><ele>652.0</ele><time>2026-05-02T17:21:35.864Z</time></trkpt><trkpt lat="42.3559345" lon="13.330714"><ele>652.0</ele><time>2026-05-02T17:21:36.865Z</time></trkpt><trkpt lat="42.3558994" lon="13.3308944"><ele>652.0</ele><time>2026-05-02T17:21:37.864Z</time></trkpt><trkpt lat="42.3558759" lon="13.3310705"><ele>652.0</ele><time>2026-05-02T17:21:38.865Z</time></trkpt><trkpt lat="42.355858" lon="13.3312472"><ele>652.0</ele><time>2026-05-02T17:21:39.865Z</time></trkpt><trkpt lat="42.3558477" lon="13.3314237"><ele>652.0</ele><time>2026-05-02T17:21:40.865Z</time></trkpt><trkpt lat="42.3558355" lon="13.3316019"><ele>652.0</ele><time>2026-05-02T17:21:41.865Z</time></trkpt><trkpt lat="42.3558247" lon="13.3317831"><ele>652.0</ele><time>2026-05-02T17:21:42.864Z</time></trkpt><trkpt lat="42.3558131" lon="13.3319749"><ele>652.0</ele><time>2026-05-02T17:21:43.864Z</time></trkpt><trkpt lat="42.3557968" lon="13.332168"><ele>651.0</ele><time>2026-05-02T17:21:44.865Z</time></trkpt><trkpt lat="42.3557848" lon="13.3323632"><ele>650.0</ele><time>2026-05-02T17:21:45.865Z</time></trkpt><trkpt lat="42.3557761" lon="13.332555"><ele>649.0</ele><time>2026-05-02T17:21:46.865Z</time></trkpt><trkpt lat="42.3557653" lon="13.3327504"><ele>648.0</ele><time>2026-05-02T17:21:47.865Z</time></trkpt><trkpt lat="42.3557485" lon="13.3329514"><ele>647.6666666666666</ele><time>2026-05-02T17:21:48.864Z</time></trkpt><trkpt lat="42.3557325" lon="13.3331551"><ele>647.3333333333333</ele><time>2026-05-02T17:21:49.864Z</time></trkpt><trkpt lat="42.3557184" lon="13.3333586"><ele>647.0</ele><time>2026-05-02T17:21:50.864Z</time></trkpt><trkpt lat="42.3557037" lon="13.3335588"><ele>647.0</ele><time>2026-05-02T17:21:51.864Z</time></trkpt><trkpt lat="42.3556903" lon="13.3337519"><ele>647.0</ele><time>2026-05-02T17:21:52.864Z</time></trkpt><trkpt lat="42.3556835" lon="13.3339426"><ele>647.0</ele><time>2026-05-02T17:21:53.864Z</time></trkpt><trkpt lat="42.355674" lon="13.3341278"><ele>647.0</ele><time>2026-05-02T17:21:54.864Z</time></trkpt><trkpt lat="42.355661" lon="13.3343104"><ele>646.75</ele><time>2026-05-02T17:21:55.864Z</time></trkpt><trkpt lat="42.3556591" lon="13.334497"><ele>646.5</ele><time>2026-05-02T17:21:56.864Z</time></trkpt><trkpt lat="42.3556787" lon="13.3346778"><ele>646.25</ele><time>2026-05-02T17:21:57.865Z</time></trkpt><trkpt lat="42.3557166" lon="13.3348399"><ele>646.0</ele><time>2026-05-02T17:21:58.865Z</time></trkpt><trkpt lat="42.3557534" lon="13.3349698"><ele>645.3333333333334</ele><time>2026-05-02T17:21:59.865Z</time></trkpt><trkpt lat="42.3557867" lon="13.33508"><ele>644.6666666666667</ele><time>2026-05-02T17:22:00.864Z</time></trkpt><trkpt lat="42.3558133" lon="13.33519"><ele>644.0</ele><time>2026-05-02T17:22:01.864Z</time></trkpt><trkpt lat="42.3558367" lon="13.3352767"><ele>643.3333333333334</ele><time>2026-05-02T17:22:02.864Z</time></trkpt><trkpt lat="42.3559117" lon="13.3353933"><ele>642.6666666666666</ele><time>2026-05-02T17:22:04.865Z</time></trkpt><trkpt lat="42.3559817" lon="13.3354333"><ele>642.0</ele><time>2026-05-02T17:22:05.865Z</time></trkpt><trkpt lat="42.3560617" lon="13.3354817"><ele>642.0</ele><time>2026-05-02T17:22:06.865Z</time></trkpt><trkpt lat="42.3561433" lon="13.3355533"><ele>642.0</ele><time>2026-05-02T17:22:07.864Z</time></trkpt><trkpt lat="42.35624" lon="13.3356433"><ele>642.0</ele><time>2026-05-02T17:22:08.865Z</time></trkpt><trkpt lat="42.35634" lon="13.33574"><ele>642.0</ele><time>2026-05-02T17:22:09.865Z</time></trkpt><trkpt lat="42.3564483" lon="13.33584"><ele>641.0</ele><time>2026-05-02T17:22:10.864Z</time></trkpt><trkpt lat="42.356555" lon="13.33594"><ele>640.0</ele><time>2026-05-02T17:22:11.864Z</time></trkpt><trkpt lat="42.3566533" lon="13.33603"><ele>639.0</ele><time>2026-05-02T17:22:12.864Z</time></trkpt><trkpt lat="42.3567467" lon="13.336115"><ele>638.0</ele><time>2026-05-02T17:22:13.865Z</time></trkpt><trkpt lat="42.3568333" lon="13.33619"><ele>638.0</ele><time>2026-05-02T17:22:14.864Z</time></trkpt><trkpt lat="42.3569067" lon="13.3362617"><ele>638.0</ele><time>2026-05-02T17:22:15.864Z</time></trkpt><trkpt lat="42.3569733" lon="13.3363283"><ele>638.0</ele><time>2026-05-02T17:22:16.865Z</time></trkpt><trkpt lat="42.357025" lon="13.336395"><ele>638.0</ele><time>2026-05-02T17:22:17.865Z</time></trkpt><trkpt lat="42.3570567" lon="13.33647"><ele>638.0</ele><time>2026-05-02T17:22:18.865Z</time></trkpt><trkpt lat="42.3570617" lon="13.3365583"><ele>638.0</ele><time>2026-05-02T17:22:19.865Z</time></trkpt><trkpt lat="42.3570467" lon="13.3366683"><ele>638.5999999999999</ele><time>2026-05-02T17:22:20.865Z</time></trkpt><trkpt lat="42.3570217" lon="13.3367967"><ele>639.1999999999999</ele><time>2026-05-02T17:22:21.865Z</time></trkpt><trkpt lat="42.3569917" lon="13.3369383"><ele>639.8</ele><time>2026-05-02T17:22:22.864Z</time></trkpt><trkpt lat="42.3569583" lon="13.3370917"><ele>640.4</ele><time>2026-05-02T17:22:23.865Z</time></trkpt><trkpt lat="42.3569317" lon="13.3372517"><ele>641.0</ele><time>2026-05-02T17:22:24.865Z</time></trkpt><trkpt lat="42.3569017" lon="13.3374233"><ele>641.25</ele><time>2026-05-02T17:22:25.864Z</time></trkpt><trkpt lat="42.356865" lon="13.3375883"><ele>641.5</ele><time>2026-05-02T17:22:26.864Z</time></trkpt><trkpt lat="42.356825" lon="13.3377483"><ele>641.75</ele><time>2026-05-02T17:22:27.864Z</time></trkpt><trkpt lat="42.3567917" lon="13.3379117"><ele>642.0</ele><time>2026-05-02T17:22:28.865Z</time></trkpt><trkpt lat="42.3567583" lon="13.3380767"><ele>642.5</ele><time>2026-05-02T17:22:29.864Z</time></trkpt><trkpt lat="42.3567283" lon="13.3382417"><ele>643.0</ele><time>2026-05-02T17:22:30.864Z</time></trkpt><trkpt lat="42.356695" lon="13.338415"><ele>643.5</ele><time>2026-05-02T17:22:31.864Z</time></trkpt><trkpt lat="42.3566617" lon="13.3385933"><ele>644.0</ele><time>2026-05-02T17:22:32.865Z</time></trkpt><trkpt lat="42.3566233" lon="13.3387833"><ele>643.6666666666666</ele><time>2026-05-02T17:22:33.864Z</time></trkpt><trkpt lat="42.356585" lon="13.33898"><ele>643.3333333333334</ele><time>2026-05-02T17:22:34.865Z</time></trkpt><trkpt lat="42.3565517" lon="13.3391867"><ele>643.0</ele><time>2026-05-02T17:22:35.864Z</time></trkpt><trkpt lat="42.3565117" lon="13.339385"><ele>643.0</ele><time>2026-05-02T17:22:36.865Z</time></trkpt><trkpt lat="42.356465" lon="13.3395867"><ele>643.0</ele><time>2026-05-02T17:22:37.864Z</time></trkpt><trkpt lat="42.356425" lon="13.3397983"><ele>643.0</ele><time>2026-05-02T17:22:38.865Z</time></trkpt><trkpt lat="42.3563817" lon="13.3400133"><ele>641.6666666666667</ele><time>2026-05-02T17:22:39.864Z</time></trkpt><trkpt lat="42.3563417" lon="13.3402333"><ele>640.3333333333334</ele><time>2026-05-02T17:22:40.864Z</time></trkpt><trkpt lat="42.3563017" lon="13.3404533"><ele>639.0</ele><time>2026-05-02T17:22:41.865Z</time></trkpt><trkpt lat="42.3562633" lon="13.3406717"><ele>639.0</ele><time>2026-05-02T17:22:42.865Z</time></trkpt><trkpt lat="42.3562267" lon="13.34089"><ele>639.0</ele><time>2026-05-02T17:22:43.864Z</time></trkpt><trkpt lat="42.356185" lon="13.3411083"><ele>639.0</ele><time>2026-05-02T17:22:44.865Z</time></trkpt><trkpt lat="42.3561367" lon="13.341335"><ele>639.0</ele><time>2026-05-02T17:22:45.864Z</time></trkpt><trkpt lat="42.3560867" lon="13.3415533"><ele>639.0</ele><time>2026-05-02T17:22:46.864Z</time></trkpt><trkpt lat="42.3560483" lon="13.3417633"><ele>639.0</ele><time>2026-05-02T17:22:47.865Z</time></trkpt><trkpt lat="42.356005" lon="13.3419833"><ele>639.0</ele><time>2026-05-02T17:22:48.865Z</time></trkpt><trkpt lat="42.3559642" lon="13.3421963"><ele>639.0</ele><time>2026-05-02T17:22:49.865Z</time></trkpt><trkpt lat="42.355923" lon="13.3424027"><ele>639.0</ele><time>2026-05-02T17:22:50.865Z</time></trkpt><trkpt lat="42.355884" lon="13.3426046"><ele>638.6666666666666</ele><time>2026-05-02T17:22:51.864Z</time></trkpt><trkpt lat="42.3558452" lon="13.3428105"><ele>638.3333333333333</ele><time>2026-05-02T17:22:52.864Z</time></trkpt><trkpt lat="42.3558037" lon="13.3430192"><ele>638.0</ele><time>2026-05-02T17:22:53.864Z</time></trkpt><trkpt lat="42.3557714" lon="13.3432342"><ele>638.0</ele><time>2026-05-02T17:22:54.865Z</time></trkpt><trkpt lat="42.3557466" lon="13.3434598"><ele>638.0</ele><time>2026-05-02T17:22:55.864Z</time></trkpt><trkpt lat="42.3557386" lon="13.343692"><ele>638.0</ele><time>2026-05-02T17:22:56.865Z</time></trkpt><trkpt lat="42.3557519" lon="13.3439265"><ele>637.0</ele><time>2026-05-02T17:22:57.864Z</time></trkpt><trkpt lat="42.3557788" lon="13.3441577"><ele>636.0</ele><time>2026-05-02T17:22:58.864Z</time></trkpt><trkpt lat="42.3558198" lon="13.3443886"><ele>635.0</ele><time>2026-05-02T17:22:59.864Z</time></trkpt><trkpt lat="42.3558751" lon="13.3446161"><ele>634.0</ele><time>2026-05-02T17:23:00.865Z</time></trkpt><trkpt lat="42.3559343" lon="13.3448437"><ele>633.0</ele><time>2026-05-02T17:23:01.864Z</time></trkpt><trkpt lat="42.355993" lon="13.3450695"><ele>632.0</ele><time>2026-05-02T17:23:02.864Z</time></trkpt><trkpt lat="42.3560515" lon="13.3452993"><ele>632.0</ele><time>2026-05-02T17:23:03.864Z</time></trkpt><trkpt lat="42.3561098" lon="13.3455267"><ele>632.0</ele><time>2026-05-02T17:23:04.865Z</time></trkpt><trkpt lat="42.3561627" lon="13.3457563"><ele>632.0</ele><time>2026-05-02T17:23:05.865Z</time></trkpt><trkpt lat="42.3562158" lon="13.3459838"><ele>632.0</ele><time>2026-05-02T17:23:06.864Z</time></trkpt><trkpt lat="42.3562701" lon="13.346209"><ele>632.0</ele><time>2026-05-02T17:23:07.865Z</time></trkpt><trkpt lat="42.3563256" lon="13.3464352"><ele>632.0</ele><time>2026-05-02T17:23:08.864Z</time></trkpt><trkpt lat="42.3563781" lon="13.3466537"><ele>633.6666666666666</ele><time>2026-05-02T17:23:09.865Z</time></trkpt><trkpt lat="42.3564301" lon="13.3468681"><ele>635.3333333333334</ele><time>2026-05-02T17:23:10.864Z</time></trkpt><trkpt lat="42.3564784" lon="13.3470782"><ele>637.0</ele><time>2026-05-02T17:23:11.864Z</time></trkpt><trkpt lat="42.3565263" lon="13.3472865"><ele>637.0</ele><time>2026-05-02T17:23:12.864Z</time></trkpt><trkpt lat="42.3565734" lon="13.3474906"><ele>637.0</ele><time>2026-05-02T17:23:13.864Z</time></trkpt><trkpt lat="42.3566153" lon="13.3476892"><ele>637.0</ele><time>2026-05-02T17:23:14.865Z</time></trkpt><trkpt lat="42.3566597" lon="13.3478835"><ele>636.25</ele><time>2026-05-02T17:23:15.864Z</time></trkpt><trkpt lat="42.3567062" lon="13.348073"><ele>635.5</ele><time>2026-05-02T17:23:16.864Z</time></trkpt><trkpt lat="42.3567565" lon="13.348255"><ele>634.75</ele><time>2026-05-02T17:23:17.864Z</time></trkpt><trkpt lat="42.3568014" lon="13.3484311"><ele>634.0</ele><time>2026-05-02T17:23:18.865Z</time></trkpt><trkpt lat="42.3568433" lon="13.3485951"><ele>634.0</ele><time>2026-05-02T17:23:19.865Z</time></trkpt><trkpt lat="42.3568792" lon="13.3487465"><ele>634.0</ele><time>2026-05-02T17:23:20.865Z</time></trkpt><trkpt lat="42.3569107" lon="13.348887"><ele>634.0</ele><time>2026-05-02T17:23:21.864Z</time></trkpt><trkpt lat="42.3569364" lon="13.3490173"><ele>634.0</ele><time>2026-05-02T17:23:22.864Z</time></trkpt><trkpt lat="42.3569577" lon="13.3491357"><ele>634.0</ele><time>2026-05-02T17:23:23.864Z</time></trkpt><trkpt lat="42.356976" lon="13.3492555"><ele>633.8</ele><time>2026-05-02T17:23:24.864Z</time></trkpt><trkpt lat="42.35698" lon="13.3493804"><ele>633.5999999999999</ele><time>2026-05-02T17:23:25.864Z</time></trkpt><trkpt lat="42.3569616" lon="13.3495079"><ele>633.4</ele><time>2026-05-02T17:23:26.865Z</time></trkpt><trkpt lat="42.356931" lon="13.349638"><ele>633.1999999999999</ele><time>2026-05-02T17:23:27.864Z</time></trkpt><trkpt lat="42.3569082" lon="13.3497674"><ele>633.0</ele><time>2026-05-02T17:23:28.865Z</time></trkpt><trkpt lat="42.3569052" lon="13.3498934"><ele>633.1666666666666</ele><time>2026-05-02T17:23:29.865Z</time></trkpt><trkpt lat="42.3569269" lon="13.3500049"><ele>633.3333333333334</ele><time>2026-05-02T17:23:30.864Z</time></trkpt><trkpt lat="42.3569647" lon="13.3501025"><ele>633.5</ele><time>2026-05-02T17:23:31.865Z</time></trkpt><trkpt lat="42.3570167" lon="13.350185"><ele>633.6666666666667</ele><time>2026-05-02T17:23:32.864Z</time></trkpt><trkpt lat="42.3570822" lon="13.3502443"><ele>633.8333333333334</ele><time>2026-05-02T17:23:33.865Z</time></trkpt><trkpt lat="42.3571654" lon="13.3502847"><ele>634.0</ele><time>2026-05-02T17:23:34.864Z</time></trkpt><trkpt lat="42.3572622" lon="13.3503038"><ele>634.0</ele><time>2026-05-02T17:23:35.864Z</time></trkpt><trkpt lat="42.3573641" lon="13.3503103"><ele>634.0</ele><time>2026-05-02T17:23:36.864Z</time></trkpt><trkpt lat="42.3574656" lon="13.3503297"><ele>634.0</ele><time>2026-05-02T17:23:37.865Z</time></trkpt><trkpt lat="42.3575614" lon="13.3503697"><ele>634.0</ele><time>2026-05-02T17:23:38.865Z</time></trkpt><trkpt lat="42.3576514" lon="13.3504319"><ele>634.0</ele><time>2026-05-02T17:23:39.865Z</time></trkpt><trkpt lat="42.3577405" lon="13.3505146"><ele>633.4</ele><time>2026-05-02T17:23:40.864Z</time></trkpt><trkpt lat="42.3578216" lon="13.3506118"><ele>632.8</ele><time>2026-05-02T17:23:41.864Z</time></trkpt><trkpt lat="42.3578984" lon="13.3507121"><ele>632.2</ele><time>2026-05-02T17:23:42.864Z</time></trkpt><trkpt lat="42.3579731" lon="13.3508146"><ele>631.6</ele><time>2026-05-02T17:23:43.865Z</time></trkpt><trkpt lat="42.3580425" lon="13.3509157"><ele>631.0</ele><time>2026-05-02T17:23:44.864Z</time></trkpt><trkpt lat="42.3581132" lon="13.3510189"><ele>630.6</ele><time>2026-05-02T17:23:45.864Z</time></trkpt><trkpt lat="42.3581803" lon="13.3511238"><ele>630.2</ele><time>2026-05-02T17:23:46.864Z</time></trkpt><trkpt lat="42.3582435" lon="13.3512266"><ele>629.8</ele><time>2026-05-02T17:23:47.865Z</time></trkpt><trkpt lat="42.358303" lon="13.3513275"><ele>629.4</ele><time>2026-05-02T17:23:48.865Z</time></trkpt><trkpt lat="42.3583606" lon="13.3514301"><ele>629.0</ele><time>2026-05-02T17:23:49.864Z</time></trkpt><trkpt lat="42.3584129" lon="13.351533"><ele>628.8333333333333</ele><time>2026-05-02T17:23:50.864Z</time></trkpt><trkpt lat="42.3584614" lon="13.3516321"><ele>628.6666666666666</ele><time>2026-05-02T17:23:51.865Z</time></trkpt><trkpt lat="42.3585079" lon="13.3517283"><ele>628.5</ele><time>2026-05-02T17:23:52.865Z</time></trkpt><trkpt lat="42.3585511" lon="13.3518153"><ele>628.3333333333334</ele><time>2026-05-02T17:23:53.864Z</time></trkpt><trkpt lat="42.3585911" lon="13.3518994"><ele>628.1666666666667</ele><time>2026-05-02T17:23:54.865Z</time></trkpt><trkpt lat="42.3586237" lon="13.3519795"><ele>628.0</ele><time>2026-05-02T17:23:55.865Z</time></trkpt><trkpt lat="42.35865" lon="13.352064"><ele>628.0</ele><time>2026-05-02T17:23:56.864Z</time></trkpt><trkpt lat="42.3586716" lon="13.3521556"><ele>628.0</ele><time>2026-05-02T17:23:57.864Z</time></trkpt><trkpt lat="42.3586808" lon="13.3522575"><ele>628.0</ele><time>2026-05-02T17:23:58.864Z</time></trkpt><trkpt lat="42.3586861" lon="13.3523653"><ele>628.0</ele><time>2026-05-02T17:23:59.864Z</time></trkpt><trkpt lat="42.3586991" lon="13.3524736"><ele>628.0</ele><time>2026-05-02T17:24:00.865Z</time></trkpt><trkpt lat="42.3587251" lon="13.3525803"><ele>628.0</ele><time>2026-05-02T17:24:01.865Z</time></trkpt><trkpt lat="42.3587689" lon="13.3526858"><ele>628.0</ele><time>2026-05-02T17:24:02.865Z</time></trkpt><trkpt lat="42.3588228" lon="13.3527959"><ele>628.0</ele><time>2026-05-02T17:24:03.865Z</time></trkpt><trkpt lat="42.3588789" lon="13.3529106"><ele>628.0</ele><time>2026-05-02T17:24:04.866Z</time></trkpt><trkpt lat="42.3589302" lon="13.3530357"><ele>628.0</ele><time>2026-05-02T17:24:05.865Z</time></trkpt><trkpt lat="42.3589838" lon="13.3531753"><ele>628.0</ele><time>2026-05-02T17:24:06.865Z</time></trkpt><trkpt lat="42.3590389" lon="13.3533339"><ele>628.0</ele><time>2026-05-02T17:24:07.865Z</time></trkpt><trkpt lat="42.359096" lon="13.3535057"><ele>628.0</ele><time>2026-05-02T17:24:08.865Z</time></trkpt><trkpt lat="42.3591484" lon="13.3536834"><ele>628.0</ele><time>2026-05-02T17:24:09.865Z</time></trkpt><trkpt lat="42.3591929" lon="13.353868"><ele>628.0</ele><time>2026-05-02T17:24:10.866Z</time></trkpt><trkpt lat="42.3592411" lon="13.3540635"><ele>628.0</ele><time>2026-05-02T17:24:11.865Z</time></trkpt><trkpt lat="42.3592914" lon="13.3542649"><ele>628.0</ele><time>2026-05-02T17:24:12.865Z</time></trkpt><trkpt lat="42.3593424" lon="13.3544599"><ele>628.0</ele><time>2026-05-02T17:24:13.865Z</time></trkpt><trkpt lat="42.3593955" lon="13.3546534"><ele>628.0</ele><time>2026-05-02T17:24:14.865Z</time></trkpt><trkpt lat="42.3594476" lon="13.3548489"><ele>628.0</ele><time>2026-05-02T17:24:15.866Z</time></trkpt><trkpt lat="42.3595004" lon="13.3550388"><ele>628.0</ele><time>2026-05-02T17:24:16.865Z</time></trkpt><trkpt lat="42.3595492" lon="13.3552269"><ele>628.0</ele><time>2026-05-02T17:24:17.866Z</time></trkpt><trkpt lat="42.3595997" lon="13.3554083"><ele>628.0</ele><time>2026-05-02T17:24:18.865Z</time></trkpt><trkpt lat="42.3596473" lon="13.3555826"><ele>628.0</ele><time>2026-05-02T17:24:19.865Z</time></trkpt><trkpt lat="42.3596942" lon="13.3557557"><ele>628.0</ele><time>2026-05-02T17:24:20.865Z</time></trkpt><trkpt lat="42.3597418" lon="13.3559253"><ele>627.5</ele><time>2026-05-02T17:24:21.865Z</time></trkpt><trkpt lat="42.3597861" lon="13.3560948"><ele>627.0</ele><time>2026-05-02T17:24:22.866Z</time></trkpt><trkpt lat="42.3598262" lon="13.3562619"><ele>626.5</ele><time>2026-05-02T17:24:23.866Z</time></trkpt><trkpt lat="42.3598657" lon="13.3564184"><ele>626.0</ele><time>2026-05-02T17:24:24.866Z</time></trkpt><trkpt lat="42.3598984" lon="13.3565565"><ele>626.0</ele><time>2026-05-02T17:24:25.866Z</time></trkpt><trkpt lat="42.3599308" lon="13.3566889"><ele>626.0</ele><time>2026-05-02T17:24:26.865Z</time></trkpt><trkpt lat="42.3599625" lon="13.3568216"><ele>626.0</ele><time>2026-05-02T17:24:27.865Z</time></trkpt><trkpt lat="42.3599912" lon="13.3569626"><ele>626.0</ele><time>2026-05-02T17:24:28.866Z</time></trkpt><trkpt lat="42.360012" lon="13.3571095"><ele>626.0</ele><time>2026-05-02T17:24:29.865Z</time></trkpt><trkpt lat="42.3600251" lon="13.3572562"><ele>626.2</ele><time>2026-05-02T17:24:30.865Z</time></trkpt><trkpt lat="42.3600327" lon="13.3574041"><ele>626.4000000000001</ele><time>2026-05-02T17:24:31.866Z</time></trkpt><trkpt lat="42.3600333" lon="13.3575531"><ele>626.6</ele><time>2026-05-02T17:24:32.866Z</time></trkpt><trkpt lat="42.3600259" lon="13.3577063"><ele>626.8000000000001</ele><time>2026-05-02T17:24:33.865Z</time></trkpt><trkpt lat="42.3600195" lon="13.3578598"><ele>627.0</ele><time>2026-05-02T17:24:34.865Z</time></trkpt><trkpt lat="42.3600098" lon="13.3580259"><ele>626.75</ele><time>2026-05-02T17:24:35.865Z</time></trkpt><trkpt lat="42.3599939" lon="13.3581996"><ele>626.5</ele><time>2026-05-02T17:24:36.866Z</time></trkpt><trkpt lat="42.3599725" lon="13.3583702"><ele>626.25</ele><time>2026-05-02T17:24:37.865Z</time></trkpt><trkpt lat="42.3599456" lon="13.3585384"><ele>626.0</ele><time>2026-05-02T17:24:38.865Z</time></trkpt><trkpt lat="42.3599091" lon="13.3587097"><ele>625.5</ele><time>2026-05-02T17:24:39.865Z</time></trkpt><trkpt lat="42.359863" lon="13.3588898"><ele>625.0</ele><time>2026-05-02T17:24:40.865Z</time></trkpt><trkpt lat="42.3598136" lon="13.3590764"><ele>624.5</ele><time>2026-05-02T17:24:41.865Z</time></trkpt><trkpt lat="42.3597592" lon="13.3592744"><ele>624.0</ele><time>2026-05-02T17:24:42.866Z</time></trkpt><trkpt lat="42.3596989" lon="13.3594781"><ele>624.0</ele><time>2026-05-02T17:24:43.865Z</time></trkpt><trkpt lat="42.3596338" lon="13.3596927"><ele>624.0</ele><time>2026-05-02T17:24:44.865Z</time></trkpt><trkpt lat="42.359566" lon="13.3599131"><ele>624.0</ele><time>2026-05-02T17:24:45.866Z</time></trkpt><trkpt lat="42.3594977" lon="13.3601325"><ele>625.0</ele><time>2026-05-02T17:24:46.866Z</time></trkpt><trkpt lat="42.3594249" lon="13.3603582"><ele>626.0</ele><time>2026-05-02T17:24:47.865Z</time></trkpt><trkpt lat="42.3593526" lon="13.3605844"><ele>627.0</ele><time>2026-05-02T17:24:48.866Z</time></trkpt><trkpt lat="42.3592826" lon="13.3608128"><ele>627.3333333333334</ele><time>2026-05-02T17:24:49.865Z</time></trkpt><trkpt lat="42.3592138" lon="13.3610424"><ele>627.6666666666667</ele><time>2026-05-02T17:24:50.866Z</time></trkpt><trkpt lat="42.3591485" lon="13.3612704"><ele>628.0</ele><time>2026-05-02T17:24:51.866Z</time></trkpt><trkpt lat="42.3590842" lon="13.3615006"><ele>630.0</ele><time>2026-05-02T17:24:52.866Z</time></trkpt><trkpt lat="42.3590205" lon="13.3617298"><ele>632.0</ele><time>2026-05-02T17:24:53.866Z</time></trkpt><trkpt lat="42.3589607" lon="13.3619592"><ele>634.0</ele><time>2026-05-02T17:24:54.865Z</time></trkpt><trkpt lat="42.3588906" lon="13.3621842"><ele>631.3333333333334</ele><time>2026-05-02T17:24:55.865Z</time></trkpt><trkpt lat="42.3588238" lon="13.362412"><ele>628.6666666666666</ele><time>2026-05-02T17:24:56.865Z</time></trkpt><trkpt lat="42.3587564" lon="13.362641"><ele>626.0</ele><time>2026-05-02T17:24:57.866Z</time></trkpt><trkpt lat="42.3586884" lon="13.3628621"><ele>626.6666666666666</ele><time>2026-05-02T17:24:58.866Z</time></trkpt><trkpt lat="42.3586186" lon="13.3630783"><ele>627.3333333333334</ele><time>2026-05-02T17:24:59.866Z</time></trkpt><trkpt lat="42.3585491" lon="13.3632896"><ele>628.0</ele><time>2026-05-02T17:25:00.865Z</time></trkpt><trkpt lat="42.3584862" lon="13.3634965"><ele>628.0</ele><time>2026-05-02T17:25:01.865Z</time></trkpt><trkpt lat="42.3584295" lon="13.3636957"><ele>628.0</ele><time>2026-05-02T17:25:02.865Z</time></trkpt><trkpt lat="42.3583832" lon="13.3638825"><ele>628.0</ele><time>2026-05-02T17:25:03.865Z</time></trkpt><trkpt lat="42.3583449" lon="13.3640505"><ele>628.0</ele><time>2026-05-02T17:25:04.865Z</time></trkpt><trkpt lat="42.3583072" lon="13.3642056"><ele>628.25</ele><time>2026-05-02T17:25:05.865Z</time></trkpt><trkpt lat="42.358277" lon="13.3643537"><ele>628.5</ele><time>2026-05-02T17:25:06.866Z</time></trkpt><trkpt lat="42.3582498" lon="13.3644998"><ele>628.75</ele><time>2026-05-02T17:25:07.865Z</time></trkpt><trkpt lat="42.3582238" lon="13.3646493"><ele>629.0</ele><time>2026-05-02T17:25:08.865Z</time></trkpt><trkpt lat="42.3582046" lon="13.3648089"><ele>629.0</ele><time>2026-05-02T17:25:09.865Z</time></trkpt><trkpt lat="42.3581896" lon="13.3649628"><ele>629.0</ele><time>2026-05-02T17:25:10.865Z</time></trkpt><trkpt lat="42.3581772" lon="13.3651095"><ele>629.0</ele><time>2026-05-02T17:25:11.865Z</time></trkpt><trkpt lat="42.3581767" lon="13.3652494"><ele>629.0</ele><time>2026-05-02T17:25:12.865Z</time></trkpt><trkpt lat="42.3581807" lon="13.3653855"><ele>629.0</ele><time>2026-05-02T17:25:13.865Z</time></trkpt><trkpt lat="42.358195" lon="13.3655205"><ele>628.5</ele><time>2026-05-02T17:25:14.865Z</time></trkpt><trkpt lat="42.3582129" lon="13.3656635"><ele>628.0</ele><time>2026-05-02T17:25:15.865Z</time></trkpt><trkpt lat="42.3582378" lon="13.3658123"><ele>627.5</ele><time>2026-05-02T17:25:16.866Z</time></trkpt><trkpt lat="42.3582727" lon="13.3659667"><ele>627.0</ele><time>2026-05-02T17:25:17.866Z</time></trkpt><trkpt lat="42.3583216" lon="13.3661256"><ele>627.0</ele><time>2026-05-02T17:25:18.866Z</time></trkpt><trkpt lat="42.3583827" lon="13.3662955"><ele>627.0</ele><time>2026-05-02T17:25:19.866Z</time></trkpt><trkpt lat="42.3584462" lon="13.366456"><ele>627.0</ele><time>2026-05-02T17:25:20.865Z</time></trkpt><trkpt lat="42.3585092" lon="13.3666056"><ele>627.0</ele><time>2026-05-02T17:25:21.866Z</time></trkpt><trkpt lat="42.3585718" lon="13.3667449"><ele>627.25</ele><time>2026-05-02T17:25:22.866Z</time></trkpt><trkpt lat="42.3586349" lon="13.3668859"><ele>627.5</ele><time>2026-05-02T17:25:23.865Z</time></trkpt><trkpt lat="42.3586944" lon="13.3670231"><ele>627.75</ele><time>2026-05-02T17:25:24.865Z</time></trkpt><trkpt lat="42.3587551" lon="13.3671577"><ele>628.0</ele><time>2026-05-02T17:25:25.866Z</time></trkpt><trkpt lat="42.3588092" lon="13.3672857"><ele>628.1666666666667</ele><time>2026-05-02T17:25:26.865Z</time></trkpt><trkpt lat="42.3588519" lon="13.367396"><ele>628.3333333333334</ele><time>2026-05-02T17:25:27.866Z</time></trkpt><trkpt lat="42.3588882" lon="13.3674914"><ele>628.5</ele><time>2026-05-02T17:25:28.865Z</time></trkpt><trkpt lat="42.3589208" lon="13.3675789"><ele>628.6666666666666</ele><time>2026-05-02T17:25:29.865Z</time></trkpt><trkpt lat="42.358949" lon="13.3676572"><ele>628.8333333333333</ele><time>2026-05-02T17:25:30.866Z</time></trkpt><trkpt lat="42.3589864" lon="13.3677916"><ele>629.0</ele><time>2026-05-02T17:25:32.865Z</time></trkpt><trkpt lat="42.3589999" lon="13.3679178"><ele>629.0</ele><time>2026-05-02T17:25:34.866Z</time></trkpt><trkpt lat="42.3590281" lon="13.3680893"><ele>629.0</ele><time>2026-05-02T17:25:36.866Z</time></trkpt><trkpt lat="42.3590544" lon="13.3682108"><ele>629.0</ele><time>2026-05-02T17:25:37.865Z</time></trkpt><trkpt lat="42.3590864" lon="13.3683497"><ele>629.0</ele><time>2026-05-02T17:25:38.865Z</time></trkpt><trkpt lat="42.3591161" lon="13.3684924"><ele>629.0</ele><time>2026-05-02T17:25:39.865Z</time></trkpt><trkpt lat="42.3591458" lon="13.3686401"><ele>629.0</ele><time>2026-05-02T17:25:40.866Z</time></trkpt><trkpt lat="42.3591717" lon="13.3687915"><ele>629.0</ele><time>2026-05-02T17:25:41.865Z</time></trkpt><trkpt lat="42.359197" lon="13.3689497"><ele>629.0</ele><time>2026-05-02T17:25:42.865Z</time></trkpt><trkpt lat="42.3592189" lon="13.3691178"><ele>629.0</ele><time>2026-05-02T17:25:43.866Z</time></trkpt><trkpt lat="42.3592455" lon="13.3692997"><ele>629.25</ele><time>2026-05-02T17:25:44.865Z</time></trkpt><trkpt lat="42.3592761" lon="13.369489"><ele>629.5</ele><time>2026-05-02T17:25:45.866Z</time></trkpt><trkpt lat="42.3593051" lon="13.3696808"><ele>629.75</ele><time>2026-05-02T17:25:46.865Z</time></trkpt><trkpt lat="42.3593334" lon="13.3698763"><ele>630.0</ele><time>2026-05-02T17:25:47.865Z</time></trkpt><trkpt lat="42.3593636" lon="13.3700771"><ele>630.6666666666666</ele><time>2026-05-02T17:25:48.865Z</time></trkpt><trkpt lat="42.3593952" lon="13.3702769"><ele>631.3333333333333</ele><time>2026-05-02T17:25:49.865Z</time></trkpt><trkpt lat="42.359431" lon="13.3704875"><ele>632.0</ele><time>2026-05-02T17:25:50.866Z</time></trkpt><trkpt lat="42.3594563" lon="13.3707054"><ele>633.6666666666666</ele><time>2026-05-02T17:25:51.866Z</time></trkpt><trkpt lat="42.3594884" lon="13.3709264"><ele>635.3333333333334</ele><time>2026-05-02T17:25:52.865Z</time></trkpt><trkpt lat="42.3595254" lon="13.3711511"><ele>637.0</ele><time>2026-05-02T17:25:53.866Z</time></trkpt><trkpt lat="42.3595673" lon="13.3713868"><ele>637.3333333333334</ele><time>2026-05-02T17:25:54.866Z</time></trkpt><trkpt lat="42.3596057" lon="13.3716185"><ele>637.6666666666666</ele><time>2026-05-02T17:25:55.865Z</time></trkpt><trkpt lat="42.3596411" lon="13.3718341"><ele>638.0</ele><time>2026-05-02T17:25:56.866Z</time></trkpt><trkpt lat="42.359672" lon="13.3720348"><ele>638.5</ele><time>2026-05-02T17:25:57.865Z</time></trkpt><trkpt lat="42.3596981" lon="13.3722173"><ele>639.0</ele><time>2026-05-02T17:25:58.866Z</time></trkpt><trkpt lat="42.3597244" lon="13.3723752"><ele>639.5</ele><time>2026-05-02T17:25:59.866Z</time></trkpt><trkpt lat="42.359746" lon="13.3725197"><ele>640.0</ele><time>2026-05-02T17:26:00.866Z</time></trkpt><trkpt lat="42.3597677" lon="13.3726618"><ele>640.2</ele><time>2026-05-02T17:26:01.866Z</time></trkpt><trkpt lat="42.359789" lon="13.3728005"><ele>640.4</ele><time>2026-05-02T17:26:02.866Z</time></trkpt><trkpt lat="42.3598129" lon="13.3729332"><ele>640.5999999999999</ele><time>2026-05-02T17:26:03.866Z</time></trkpt><trkpt lat="42.3598396" lon="13.373077"><ele>640.8</ele><time>2026-05-02T17:26:04.865Z</time></trkpt><trkpt lat="42.3598684" lon="13.3732261"><ele>641.0</ele><time>2026-05-02T17:26:05.865Z</time></trkpt><trkpt lat="42.35989" lon="13.373377"><ele>641.5999999999999</ele><time>2026-05-02T17:26:06.866Z</time></trkpt><trkpt lat="42.3599053" lon="13.373524"><ele>642.2</ele><time>2026-05-02T17:26:07.865Z</time></trkpt><trkpt lat="42.3599204" lon="13.3736523"><ele>642.8</ele><time>2026-05-02T17:26:08.866Z</time></trkpt><trkpt lat="42.3599382" lon="13.3737771"><ele>643.4000000000001</ele><time>2026-05-02T17:26:09.865Z</time></trkpt><trkpt lat="42.3599616" lon="13.3739226"><ele>644.0</ele><time>2026-05-02T17:26:10.865Z</time></trkpt><trkpt lat="42.3599869" lon="13.3740841"><ele>644.25</ele><time>2026-05-02T17:26:11.865Z</time></trkpt><trkpt lat="42.3600104" lon="13.3742581"><ele>644.5</ele><time>2026-05-02T17:26:12.865Z</time></trkpt><trkpt lat="42.3600352" lon="13.37444"><ele>644.75</ele><time>2026-05-02T17:26:13.866Z</time></trkpt><trkpt lat="42.3600593" lon="13.3746264"><ele>645.0</ele><time>2026-05-02T17:26:14.865Z</time></trkpt><trkpt lat="42.3600866" lon="13.3748127"><ele>645.25</ele><time>2026-05-02T17:26:15.866Z</time></trkpt><trkpt lat="42.3601136" lon="13.375007"><ele>645.5</ele><time>2026-05-02T17:26:16.865Z</time></trkpt><trkpt lat="42.3601404" lon="13.3751994"><ele>645.75</ele><time>2026-05-02T17:26:17.866Z</time></trkpt><trkpt lat="42.3601668" lon="13.3753792"><ele>646.0</ele><time>2026-05-02T17:26:18.865Z</time></trkpt><trkpt lat="42.3601914" lon="13.3755525"><ele>646.4</ele><time>2026-05-02T17:26:19.865Z</time></trkpt><trkpt lat="42.3602133" lon="13.3757119"><ele>646.8</ele><time>2026-05-02T17:26:20.866Z</time></trkpt><trkpt lat="42.3602338" lon="13.3758563"><ele>647.1999999999999</ele><time>2026-05-02T17:26:21.865Z</time></trkpt><trkpt lat="42.3602485" lon="13.3759779"><ele>647.5999999999999</ele><time>2026-05-02T17:26:22.866Z</time></trkpt><trkpt lat="42.360267" lon="13.3760929"><ele>648.0</ele><time>2026-05-02T17:26:23.865Z</time></trkpt><trkpt lat="42.3602817" lon="13.3762232"><ele>648.5</ele><time>2026-05-02T17:26:24.866Z</time></trkpt><trkpt lat="42.3602955" lon="13.3763826"><ele>649.0</ele><time>2026-05-02T17:26:25.865Z</time></trkpt><trkpt lat="42.3603121" lon="13.3765667"><ele>649.5</ele><time>2026-05-02T17:26:26.865Z</time></trkpt><trkpt lat="42.3603324" lon="13.3767512"><ele>650.0</ele><time>2026-05-02T17:26:27.865Z</time></trkpt><trkpt lat="42.3603518" lon="13.376925"><ele>650.0</ele><time>2026-05-02T17:26:28.865Z</time></trkpt><trkpt lat="42.3603633" lon="13.3770864"><ele>650.0</ele><time>2026-05-02T17:26:29.865Z</time></trkpt><trkpt lat="42.3603751" lon="13.3772362"><ele>650.0</ele><time>2026-05-02T17:26:30.865Z</time></trkpt><trkpt lat="42.3603786" lon="13.3773848"><ele>650.0</ele><time>2026-05-02T17:26:31.866Z</time></trkpt><trkpt lat="42.3603728" lon="13.3775329"><ele>650.0</ele><time>2026-05-02T17:26:32.866Z</time></trkpt><trkpt lat="42.3603651" lon="13.3776894"><ele>650.0</ele><time>2026-05-02T17:26:33.865Z</time></trkpt><trkpt lat="42.3603603" lon="13.3778453"><ele>650.0</ele><time>2026-05-02T17:26:34.865Z</time></trkpt><trkpt lat="42.3603512" lon="13.3780004"><ele>650.0</ele><time>2026-05-02T17:26:35.866Z</time></trkpt><trkpt lat="42.360338" lon="13.3781537"><ele>650.2</ele><time>2026-05-02T17:26:36.866Z</time></trkpt><trkpt lat="42.3603223" lon="13.3783032"><ele>650.4</ele><time>2026-05-02T17:26:37.866Z</time></trkpt><trkpt lat="42.3603033" lon="13.378449"><ele>650.5999999999999</ele><time>2026-05-02T17:26:38.865Z</time></trkpt><trkpt lat="42.3602847" lon="13.3785894"><ele>650.8</ele><time>2026-05-02T17:26:39.866Z</time></trkpt><trkpt lat="42.3602616" lon="13.3787162"><ele>651.0</ele><time>2026-05-02T17:26:40.865Z</time></trkpt><trkpt lat="42.360235" lon="13.378834"><ele>651.1666666666666</ele><time>2026-05-02T17:26:41.865Z</time></trkpt><trkpt lat="42.3602066" lon="13.3789463"><ele>651.3333333333334</ele><time>2026-05-02T17:26:42.865Z</time></trkpt><trkpt lat="42.3601742" lon="13.3790553"><ele>651.5</ele><time>2026-05-02T17:26:43.865Z</time></trkpt><trkpt lat="42.360143" lon="13.3791527"><ele>651.6666666666667</ele><time>2026-05-02T17:26:44.866Z</time></trkpt><trkpt lat="42.3600929" lon="13.3792838"><ele>651.8333333333334</ele><time>2026-05-02T17:26:46.865Z</time></trkpt><trkpt lat="42.3600603" lon="13.3793638"><ele>652.0</ele><time>2026-05-02T17:26:48.866Z</time></trkpt><trkpt lat="42.3600151" lon="13.3794671"><ele>652.0</ele><time>2026-05-02T17:26:51.865Z</time></trkpt><trkpt lat="42.3599704" lon="13.3795398"><ele>652.0</ele><time>2026-05-02T17:26:55.865Z</time></trkpt><trkpt lat="42.3599199" lon="13.3795937"><ele>652.0</ele><time>2026-05-02T17:26:57.866Z</time></trkpt><trkpt lat="42.3598571" lon="13.3796912"><ele>652.0</ele><time>2026-05-02T17:26:59.865Z</time></trkpt><trkpt lat="42.3598306" lon="13.3798306"><ele>652.0</ele><time>2026-05-02T17:27:01.865Z</time></trkpt><trkpt lat="42.3598391" lon="13.3799837"><ele>651.8333333333334</ele><time>2026-05-02T17:27:03.866Z</time></trkpt><trkpt lat="42.3598333" lon="13.3800983"><ele>651.6666666666667</ele><time>2026-05-02T17:27:05.866Z</time></trkpt><trkpt lat="42.3598117" lon="13.380185"><ele>651.5</ele><time>2026-05-02T17:27:08.866Z</time></trkpt><trkpt lat="42.359775" lon="13.380305"><ele>651.3333333333334</ele><time>2026-05-02T17:27:10.866Z</time></trkpt><trkpt lat="42.35974" lon="13.3804017"><ele>651.1666666666666</ele><time>2026-05-02T17:27:11.865Z</time></trkpt><trkpt lat="42.35969" lon="13.380505"><ele>651.0</ele><time>2026-05-02T17:27:12.865Z</time></trkpt><trkpt lat="42.359635" lon="13.38062"><ele>650.75</ele><time>2026-05-02T17:27:13.865Z</time></trkpt><trkpt lat="42.3595683" lon="13.3807633"><ele>650.5</ele><time>2026-05-02T17:27:14.866Z</time></trkpt><trkpt lat="42.3595" lon="13.3809217"><ele>650.25</ele><time>2026-05-02T17:27:15.865Z</time></trkpt><trkpt lat="42.3594267" lon="13.3810867"><ele>650.0</ele><time>2026-05-02T17:27:16.866Z</time></trkpt><trkpt lat="42.3593517" lon="13.3812583"><ele>649.75</ele><time>2026-05-02T17:27:17.865Z</time></trkpt><trkpt lat="42.3592833" lon="13.3814117"><ele>649.5</ele><time>2026-05-02T17:27:18.866Z</time></trkpt><trkpt lat="42.3592217" lon="13.381555"><ele>649.25</ele><time>2026-05-02T17:27:19.866Z</time></trkpt><trkpt lat="42.35916" lon="13.381695"><ele>649.0</ele><time>2026-05-02T17:27:20.866Z</time></trkpt><trkpt lat="42.3590917" lon="13.38184"><ele>649.0</ele><time>2026-05-02T17:27:21.865Z</time></trkpt><trkpt lat="42.35903" lon="13.3819817"><ele>649.0</ele><time>2026-05-02T17:27:22.865Z</time></trkpt><trkpt lat="42.3589683" lon="13.382125"><ele>649.0</ele><time>2026-05-02T17:27:23.865Z</time></trkpt><trkpt lat="42.3589133" lon="13.3822683"><ele>649.0</ele><time>2026-05-02T17:27:24.865Z</time></trkpt><trkpt lat="42.358855" lon="13.3824133"><ele>649.0</ele><time>2026-05-02T17:27:25.865Z</time></trkpt><trkpt lat="42.358795" lon="13.3825533"><ele>649.0</ele><time>2026-05-02T17:27:26.865Z</time></trkpt><trkpt lat="42.3587267" lon="13.3827083"><ele>649.0</ele><time>2026-05-02T17:27:27.865Z</time></trkpt><trkpt lat="42.3586533" lon="13.382875"><ele>649.0</ele><time>2026-05-02T17:27:28.866Z</time></trkpt><trkpt lat="42.3585833" lon="13.3830317"><ele>649.0</ele><time>2026-05-02T17:27:29.866Z</time></trkpt><trkpt lat="42.3585117" lon="13.38319"><ele>649.0</ele><time>2026-05-02T17:27:30.865Z</time></trkpt><trkpt lat="42.3584417" lon="13.3833467"><ele>649.0</ele><time>2026-05-02T17:27:31.865Z</time></trkpt><trkpt lat="42.3583717" lon="13.383505"><ele>649.0</ele><time>2026-05-02T17:27:32.865Z</time></trkpt><trkpt lat="42.35829" lon="13.3836767"><ele>649.0</ele><time>2026-05-02T17:27:33.865Z</time></trkpt><trkpt lat="42.3581983" lon="13.3838433"><ele>649.0</ele><time>2026-05-02T17:27:34.866Z</time></trkpt><trkpt lat="42.3581083" lon="13.3840133"><ele>649.0</ele><time>2026-05-02T17:27:35.866Z</time></trkpt><trkpt lat="42.3580283" lon="13.3841883"><ele>649.0</ele><time>2026-05-02T17:27:36.866Z</time></trkpt><trkpt lat="42.3579583" lon="13.38435"><ele>649.0</ele><time>2026-05-02T17:27:37.866Z</time></trkpt><trkpt lat="42.3579033" lon="13.3845133"><ele>649.0</ele><time>2026-05-02T17:27:38.866Z</time></trkpt><trkpt lat="42.35786" lon="13.384675"><ele>649.0</ele><time>2026-05-02T17:27:39.865Z</time></trkpt><trkpt lat="42.3578217" lon="13.3848233"><ele>649.0</ele><time>2026-05-02T17:27:40.865Z</time></trkpt><trkpt lat="42.3577833" lon="13.3849517"><ele>649.0</ele><time>2026-05-02T17:27:41.865Z</time></trkpt><trkpt lat="42.3577417" lon="13.38506"><ele>649.0</ele><time>2026-05-02T17:27:42.865Z</time></trkpt><trkpt lat="42.3576933" lon="13.3851567"><ele>649.0</ele><time>2026-05-02T17:27:43.866Z</time></trkpt><trkpt lat="42.3576317" lon="13.3852467"><ele>649.0</ele><time>2026-05-02T17:27:44.865Z</time></trkpt><trkpt lat="42.35756" lon="13.38534"><ele>649.0</ele><time>2026-05-02T17:27:45.866Z</time></trkpt><trkpt lat="42.3574917" lon="13.3854517"><ele>649.0</ele><time>2026-05-02T17:27:46.866Z</time></trkpt><trkpt lat="42.3574233" lon="13.3855783"><ele>649.0</ele><time>2026-05-02T17:27:47.865Z</time></trkpt><trkpt lat="42.3573467" lon="13.3857133"><ele>649.0</ele><time>2026-05-02T17:27:48.865Z</time></trkpt><trkpt lat="42.357255" lon="13.38584"><ele>648.75</ele><time>2026-05-02T17:27:49.865Z</time></trkpt><trkpt lat="42.357155" lon="13.3859633"><ele>648.5</ele><time>2026-05-02T17:27:50.866Z</time></trkpt><trkpt lat="42.3570517" lon="13.3860917"><ele>648.25</ele><time>2026-05-02T17:27:51.866Z</time></trkpt><trkpt lat="42.3569483" lon="13.3862417"><ele>648.0</ele><time>2026-05-02T17:27:52.865Z</time></trkpt><trkpt lat="42.3568467" lon="13.3864"><ele>648.0</ele><time>2026-05-02T17:27:53.866Z</time></trkpt><trkpt lat="42.3567533" lon="13.3865517"><ele>648.0</ele><time>2026-05-02T17:27:54.866Z</time></trkpt><trkpt lat="42.3566583" lon="13.3867067"><ele>648.0</ele><time>2026-05-02T17:27:55.866Z</time></trkpt><trkpt lat="42.3565667" lon="13.3868633"><ele>648.0</ele><time>2026-05-02T17:27:56.865Z</time></trkpt><trkpt lat="42.3564733" lon="13.38702"><ele>647.5</ele><time>2026-05-02T17:27:57.866Z</time></trkpt><trkpt lat="42.3563817" lon="13.3871783"><ele>647.0</ele><time>2026-05-02T17:27:58.866Z</time></trkpt><trkpt lat="42.3562983" lon="13.3873317"><ele>646.5</ele><time>2026-05-02T17:27:59.865Z</time></trkpt><trkpt lat="42.3562267" lon="13.387475"><ele>646.0</ele><time>2026-05-02T17:28:00.866Z</time></trkpt><trkpt lat="42.3561683" lon="13.3876117"><ele>646.0</ele><time>2026-05-02T17:28:01.866Z</time></trkpt><trkpt lat="42.3560983" lon="13.3877383"><ele>646.0</ele><time>2026-05-02T17:28:02.865Z</time></trkpt><trkpt lat="42.3560283" lon="13.387855"><ele>646.0</ele><time>2026-05-02T17:28:03.865Z</time></trkpt><trkpt lat="42.3559667" lon="13.3879683"><ele>646.0</ele><time>2026-05-02T17:28:04.865Z</time></trkpt><trkpt lat="42.3559083" lon="13.388065"><ele>646.0</ele><time>2026-05-02T17:28:05.865Z</time></trkpt><trkpt lat="42.3558417" lon="13.3881517"><ele>646.8333333333334</ele><time>2026-05-02T17:28:06.866Z</time></trkpt><trkpt lat="42.355775" lon="13.3882183"><ele>647.6666666666667</ele><time>2026-05-02T17:28:07.865Z</time></trkpt><trkpt lat="42.3556967" lon="13.3882617"><ele>648.5</ele><time>2026-05-02T17:28:08.865Z</time></trkpt><trkpt lat="42.3556233" lon="13.3882817"><ele>649.3333333333334</ele><time>2026-05-02T17:28:09.865Z</time></trkpt><trkpt lat="42.3555183" lon="13.388345"><ele>650.1666666666666</ele><time>2026-05-02T17:28:11.866Z</time></trkpt><trkpt lat="42.355475" lon="13.3884417"><ele>651.0</ele><time>2026-05-02T17:28:13.865Z</time></trkpt><trkpt lat="42.3554911" lon="13.3885646"><ele>651.1999999999999</ele><time>2026-05-02T17:28:15.865Z</time></trkpt><trkpt lat="42.3555534" lon="13.3886684"><ele>651.4</ele><time>2026-05-02T17:28:17.866Z</time></trkpt><trkpt lat="42.3556482" lon="13.3887454"><ele>651.6</ele><time>2026-05-02T17:28:19.866Z</time></trkpt><trkpt lat="42.3557327" lon="13.3888357"><ele>651.8</ele><time>2026-05-02T17:28:21.866Z</time></trkpt><trkpt lat="42.3558025" lon="13.3889248"><ele>652.0</ele><time>2026-05-02T17:28:23.865Z</time></trkpt><trkpt lat="42.3558984" lon="13.3890506"><ele>653.0</ele><time>2026-05-02T17:28:25.866Z</time></trkpt><trkpt lat="42.3559584" lon="13.3891348"><ele>654.0</ele><time>2026-05-02T17:28:26.865Z</time></trkpt><trkpt lat="42.3560209" lon="13.3892376"><ele>655.0</ele><time>2026-05-02T17:28:27.866Z</time></trkpt><trkpt lat="42.3560871" lon="13.3893502"><ele>656.0</ele><time>2026-05-02T17:28:28.865Z</time></trkpt><trkpt lat="42.3561595" lon="13.389471"><ele>657.0</ele><time>2026-05-02T17:28:29.866Z</time></trkpt><trkpt lat="42.3562287" lon="13.3896036"><ele>657.75</ele><time>2026-05-02T17:28:30.866Z</time></trkpt><trkpt lat="42.3562945" lon="13.3897382"><ele>658.5</ele><time>2026-05-02T17:28:31.866Z</time></trkpt><trkpt lat="42.3563613" lon="13.3898645"><ele>659.25</ele><time>2026-05-02T17:28:32.865Z</time></trkpt><trkpt lat="42.3564297" lon="13.3899954"><ele>660.0</ele><time>2026-05-02T17:28:33.866Z</time></trkpt><trkpt lat="42.3565003" lon="13.3901275"><ele>658.8</ele><time>2026-05-02T17:28:34.866Z</time></trkpt><trkpt lat="42.3565808" lon="13.3902407"><ele>657.6</ele><time>2026-05-02T17:28:35.865Z</time></trkpt><trkpt lat="42.3566522" lon="13.3903323"><ele>656.4000000000001</ele><time>2026-05-02T17:28:36.865Z</time></trkpt><trkpt lat="42.356706" lon="13.390422"><ele>655.2</ele><time>2026-05-02T17:28:37.865Z</time></trkpt><trkpt lat="42.3567496" lon="13.3905202"><ele>654.0</ele><time>2026-05-02T17:28:38.865Z</time></trkpt><trkpt lat="42.3567816" lon="13.3906302"><ele>654.0</ele><time>2026-05-02T17:28:39.865Z</time></trkpt><trkpt lat="42.3568022" lon="13.3907451"><ele>654.0</ele><time>2026-05-02T17:28:40.865Z</time></trkpt><trkpt lat="42.3567983" lon="13.3908626"><ele>654.0</ele><time>2026-05-02T17:28:41.865Z</time></trkpt><trkpt lat="42.3567751" lon="13.3909919"><ele>654.0</ele><time>2026-05-02T17:28:42.865Z</time></trkpt><trkpt lat="42.3567398" lon="13.3911263"><ele>654.0</ele><time>2026-05-02T17:28:43.865Z</time></trkpt><trkpt lat="42.3567099" lon="13.3912801"><ele>655.25</ele><time>2026-05-02T17:28:44.865Z</time></trkpt><trkpt lat="42.3566889" lon="13.3914464"><ele>656.5</ele><time>2026-05-02T17:28:45.866Z</time></trkpt><trkpt lat="42.3566735" lon="13.3916073"><ele>657.75</ele><time>2026-05-02T17:28:46.865Z</time></trkpt><trkpt lat="42.3566655" lon="13.3917532"><ele>659.0</ele><time>2026-05-02T17:28:47.866Z</time></trkpt><trkpt lat="42.3566586" lon="13.391898"><ele>659.0</ele><time>2026-05-02T17:28:48.865Z</time></trkpt><trkpt lat="42.3566539" lon="13.3920385"><ele>659.0</ele><time>2026-05-02T17:28:49.865Z</time></trkpt><trkpt lat="42.3566528" lon="13.3921671"><ele>659.0</ele><time>2026-05-02T17:28:50.865Z</time></trkpt><trkpt lat="42.3566554" lon="13.3922938"><ele>659.0</ele><time>2026-05-02T17:28:51.865Z</time></trkpt><trkpt lat="42.356655" lon="13.3924265"><ele>659.0</ele><time>2026-05-02T17:28:52.866Z</time></trkpt><trkpt lat="42.3566523" lon="13.3925547"><ele>660.2</ele><time>2026-05-02T17:28:53.865Z</time></trkpt><trkpt lat="42.3566525" lon="13.3926852"><ele>661.4000000000001</ele><time>2026-05-02T17:28:54.865Z</time></trkpt><trkpt lat="42.3566503" lon="13.3928193"><ele>662.6</ele><time>2026-05-02T17:28:55.865Z</time></trkpt><trkpt lat="42.3566484" lon="13.3929556"><ele>663.8</ele><time>2026-05-02T17:28:56.865Z</time></trkpt><trkpt lat="42.3566496" lon="13.393105"><ele>665.0</ele><time>2026-05-02T17:28:57.865Z</time></trkpt><trkpt lat="42.3566525" lon="13.393268"><ele>666.0</ele><time>2026-05-02T17:28:58.865Z</time></trkpt><trkpt lat="42.356648" lon="13.3934399"><ele>667.0</ele><time>2026-05-02T17:28:59.865Z</time></trkpt><trkpt lat="42.3566408" lon="13.3936094"><ele>668.0</ele><time>2026-05-02T17:29:00.866Z</time></trkpt><trkpt lat="42.356637" lon="13.3937715"><ele>669.0</ele><time>2026-05-02T17:29:01.866Z</time></trkpt><trkpt lat="42.356631" lon="13.3939239"><ele>670.2</ele><time>2026-05-02T17:29:02.865Z</time></trkpt><trkpt lat="42.3566282" lon="13.3940683"><ele>671.4000000000001</ele><time>2026-05-02T17:29:03.865Z</time></trkpt><trkpt lat="42.3566253" lon="13.3941961"><ele>672.6</ele><time>2026-05-02T17:29:04.866Z</time></trkpt><trkpt lat="42.3566235" lon="13.3943068"><ele>673.8</ele><time>2026-05-02T17:29:05.865Z</time></trkpt><trkpt lat="42.356623" lon="13.3944173"><ele>675.0</ele><time>2026-05-02T17:29:06.866Z</time></trkpt><trkpt lat="42.3566187" lon="13.3945357"><ele>675.0</ele><time>2026-05-02T17:29:07.865Z</time></trkpt><trkpt lat="42.3566169" lon="13.3946696"><ele>675.0</ele><time>2026-05-02T17:29:08.865Z</time></trkpt><trkpt lat="42.3566201" lon="13.39482"><ele>675.0</ele><time>2026-05-02T17:29:09.865Z</time></trkpt><trkpt lat="42.3566163" lon="13.39499"><ele>675.0</ele><time>2026-05-02T17:29:10.866Z</time></trkpt><trkpt lat="42.3566108" lon="13.3951785"><ele>675.25</ele><time>2026-05-02T17:29:11.866Z</time></trkpt><trkpt lat="42.3566043" lon="13.395371"><ele>675.5</ele><time>2026-05-02T17:29:12.866Z</time></trkpt><trkpt lat="42.3565985" lon="13.3955686"><ele>675.75</ele><time>2026-05-02T17:29:13.865Z</time></trkpt><trkpt lat="42.3565937" lon="13.3957672"><ele>676.0</ele><time>2026-05-02T17:29:14.865Z</time></trkpt><trkpt lat="42.3565887" lon="13.395961"><ele>675.5</ele><time>2026-05-02T17:29:15.865Z</time></trkpt><trkpt lat="42.3565811" lon="13.3961425"><ele>675.0</ele><time>2026-05-02T17:29:16.866Z</time></trkpt><trkpt lat="42.3565687" lon="13.396325"><ele>674.5</ele><time>2026-05-02T17:29:17.866Z</time></trkpt><trkpt lat="42.3565557" lon="13.3965101"><ele>674.0</ele><time>2026-05-02T17:29:18.865Z</time></trkpt><trkpt lat="42.3565415" lon="13.3967058"><ele>675.25</ele><time>2026-05-02T17:29:19.866Z</time></trkpt><trkpt lat="42.3565268" lon="13.3968991"><ele>676.5</ele><time>2026-05-02T17:29:20.865Z</time></trkpt><trkpt lat="42.3565091" lon="13.3970918"><ele>677.75</ele><time>2026-05-02T17:29:21.865Z</time></trkpt><trkpt lat="42.3565037" lon="13.3972867"><ele>679.0</ele><time>2026-05-02T17:29:22.865Z</time></trkpt><trkpt lat="42.3565138" lon="13.3974845"><ele>682.0</ele><time>2026-05-02T17:29:23.865Z</time></trkpt><trkpt lat="42.356537" lon="13.3976828"><ele>685.0</ele><time>2026-05-02T17:29:24.866Z</time></trkpt><trkpt lat="42.3565828" lon="13.3978792"><ele>688.0</ele><time>2026-05-02T17:29:25.866Z</time></trkpt><trkpt lat="42.356654" lon="13.3980741"><ele>688.3333333333334</ele><time>2026-05-02T17:29:26.866Z</time></trkpt><trkpt lat="42.356748" lon="13.3982627"><ele>688.6666666666666</ele><time>2026-05-02T17:29:27.865Z</time></trkpt><trkpt lat="42.3568452" lon="13.3984435"><ele>689.0</ele><time>2026-05-02T17:29:28.865Z</time></trkpt><trkpt lat="42.3569298" lon="13.3986229"><ele>689.0</ele><time>2026-05-02T17:29:29.866Z</time></trkpt><trkpt lat="42.3569982" lon="13.3988058"><ele>689.0</ele><time>2026-05-02T17:29:30.865Z</time></trkpt><trkpt lat="42.3570376" lon="13.3990029"><ele>689.0</ele><time>2026-05-02T17:29:31.865Z</time></trkpt><trkpt lat="42.3570576" lon="13.3992105"><ele>690.6666666666666</ele><time>2026-05-02T17:29:32.865Z</time></trkpt><trkpt lat="42.3570562" lon="13.3994299"><ele>692.3333333333334</ele><time>2026-05-02T17:29:33.866Z</time></trkpt><trkpt lat="42.357055" lon="13.3996484"><ele>694.0</ele><time>2026-05-02T17:29:34.866Z</time></trkpt><trkpt lat="42.3570535" lon="13.3998594"><ele>695.2</ele><time>2026-05-02T17:29:35.866Z</time></trkpt><trkpt lat="42.3570521" lon="13.4000372"><ele>696.4000000000001</ele><time>2026-05-02T17:29:36.865Z</time></trkpt><trkpt lat="42.3570539" lon="13.4001841"><ele>697.6</ele><time>2026-05-02T17:29:37.865Z</time></trkpt><trkpt lat="42.3570507" lon="13.4003153"><ele>698.8</ele><time>2026-05-02T17:29:38.865Z</time></trkpt><trkpt lat="42.357047" lon="13.400433"><ele>700.0</ele><time>2026-05-02T17:29:39.866Z</time></trkpt><trkpt lat="42.3570432" lon="13.4005344"><ele>700.6666666666667</ele><time>2026-05-02T17:29:40.865Z</time></trkpt><trkpt lat="42.357042" lon="13.4006217"><ele>701.3333333333334</ele><time>2026-05-02T17:29:41.866Z</time></trkpt><trkpt lat="42.3570483" lon="13.4007858"><ele>702.0</ele><time>2026-05-02T17:29:43.865Z</time></trkpt><trkpt lat="42.357056" lon="13.4008819"><ele>702.6666666666666</ele><time>2026-05-02T17:29:44.865Z</time></trkpt><trkpt lat="42.3570616" lon="13.4009856"><ele>703.3333333333333</ele><time>2026-05-02T17:29:45.865Z</time></trkpt><trkpt lat="42.3570705" lon="13.4011001"><ele>704.0</ele><time>2026-05-02T17:29:46.865Z</time></trkpt><trkpt lat="42.3570799" lon="13.4012368"><ele>703.75</ele><time>2026-05-02T17:29:47.866Z</time></trkpt><trkpt lat="42.357087" lon="13.4013903"><ele>703.5</ele><time>2026-05-02T17:29:48.866Z</time></trkpt><trkpt lat="42.3570925" lon="13.4015573"><ele>703.25</ele><time>2026-05-02T17:29:49.866Z</time></trkpt><trkpt lat="42.3570886" lon="13.4017357"><ele>703.0</ele><time>2026-05-02T17:29:50.866Z</time></trkpt><trkpt lat="42.3570795" lon="13.4019203"><ele>703.0</ele><time>2026-05-02T17:29:51.865Z</time></trkpt><trkpt lat="42.3570743" lon="13.4021104"><ele>703.0</ele><time>2026-05-02T17:29:52.865Z</time></trkpt><trkpt lat="42.3570729" lon="13.402296"><ele>703.0</ele><time>2026-05-02T17:29:53.865Z</time></trkpt><trkpt lat="42.357066" lon="13.4024778"><ele>703.0</ele><time>2026-05-02T17:29:54.865Z</time></trkpt><trkpt lat="42.3570701" lon="13.402657"><ele>703.0</ele><time>2026-05-02T17:29:55.865Z</time></trkpt><trkpt lat="42.3570908" lon="13.4028431"><ele>703.0</ele><time>2026-05-02T17:29:56.865Z</time></trkpt><trkpt lat="42.3571387" lon="13.4030262"><ele>703.0</ele><time>2026-05-02T17:29:57.865Z</time></trkpt><trkpt lat="42.3571982" lon="13.4032042"><ele>703.0</ele><time>2026-05-02T17:29:58.865Z</time></trkpt><trkpt lat="42.3572691" lon="13.4033831"><ele>703.0</ele><time>2026-05-02T17:29:59.865Z</time></trkpt><trkpt lat="42.3573475" lon="13.4035566"><ele>703.0</ele><time>2026-05-02T17:30:00.865Z</time></trkpt><trkpt lat="42.3574213" lon="13.4037349"><ele>703.0</ele><time>2026-05-02T17:30:01.866Z</time></trkpt><trkpt lat="42.3574906" lon="13.4039064"><ele>703.0</ele><time>2026-05-02T17:30:02.865Z</time></trkpt><trkpt lat="42.3575561" lon="13.4040671"><ele>702.8</ele><time>2026-05-02T17:30:03.865Z</time></trkpt><trkpt lat="42.3576131" lon="13.4042173"><ele>702.5999999999999</ele><time>2026-05-02T17:30:04.865Z</time></trkpt><trkpt lat="42.3576561" lon="13.4043569"><ele>702.4000000000001</ele><time>2026-05-02T17:30:05.866Z</time></trkpt><trkpt lat="42.3576762" lon="13.4044916"><ele>702.2</ele><time>2026-05-02T17:30:06.865Z</time></trkpt><trkpt lat="42.3576656" lon="13.404626"><ele>702.0</ele><time>2026-05-02T17:30:07.865Z</time></trkpt><trkpt lat="42.3576266" lon="13.404753"><ele>703.2</ele><time>2026-05-02T17:30:08.865Z</time></trkpt><trkpt lat="42.3575628" lon="13.4048639"><ele>704.4000000000001</ele><time>2026-05-02T17:30:09.865Z</time></trkpt><trkpt lat="42.3574809" lon="13.4049442"><ele>705.5999999999999</ele><time>2026-05-02T17:30:10.865Z</time></trkpt><trkpt lat="42.3573848" lon="13.4049839"><ele>706.8</ele><time>2026-05-02T17:30:11.865Z</time></trkpt><trkpt lat="42.3572779" lon="13.4049934"><ele>708.0</ele><time>2026-05-02T17:30:12.866Z</time></trkpt><trkpt lat="42.3571755" lon="13.4049991"><ele>708.0</ele><time>2026-05-02T17:30:13.865Z</time></trkpt><trkpt lat="42.3570755" lon="13.4050047"><ele>708.0</ele><time>2026-05-02T17:30:14.865Z</time></trkpt><trkpt lat="42.3569752" lon="13.405009"><ele>708.0</ele><time>2026-05-02T17:30:15.866Z</time></trkpt><trkpt lat="42.3568731" lon="13.4050187"><ele>708.0</ele><time>2026-05-02T17:30:16.865Z</time></trkpt><trkpt lat="42.3567757" lon="13.4050424"><ele>708.0</ele><time>2026-05-02T17:30:17.865Z</time></trkpt><trkpt lat="42.3566903" lon="13.4050821"><ele>708.0</ele><time>2026-05-02T17:30:18.866Z</time></trkpt><trkpt lat="42.3566181" lon="13.4051309"><ele>708.0</ele><time>2026-05-02T17:30:19.866Z</time></trkpt><trkpt lat="42.3565555" lon="13.4051836"><ele>708.0</ele><time>2026-05-02T17:30:20.866Z</time></trkpt><trkpt lat="42.3565014" lon="13.4052319"><ele>708.0</ele><time>2026-05-02T17:30:21.865Z</time></trkpt><trkpt lat="42.356421" lon="13.4053086"><ele>708.0</ele><time>2026-05-02T17:30:23.865Z</time></trkpt><trkpt lat="42.3563421" lon="13.4053809"><ele>708.0</ele><time>2026-05-02T17:30:25.865Z</time></trkpt><trkpt lat="42.3562501" lon="13.4054619"><ele>708.8</ele><time>2026-05-02T17:30:27.866Z</time></trkpt><trkpt lat="42.3561492" lon="13.4055325"><ele>709.5999999999999</ele><time>2026-05-02T17:30:29.865Z</time></trkpt><trkpt lat="42.3560615" lon="13.4055883"><ele>710.4000000000001</ele><time>2026-05-02T17:30:31.865Z</time></trkpt><trkpt lat="42.3559966" lon="13.4056078"><ele>711.2</ele><time>2026-05-02T17:30:33.866Z</time></trkpt><trkpt lat="42.3559075" lon="13.405629"><ele>712.0</ele><time>2026-05-02T17:30:35.866Z</time></trkpt><trkpt lat="42.3558048" lon="13.4055778"><ele>711.8</ele><time>2026-05-02T17:30:37.865Z</time></trkpt><trkpt lat="42.3557657" lon="13.4054773"><ele>711.6</ele><time>2026-05-02T17:30:39.866Z</time></trkpt><trkpt lat="42.3557383" lon="13.4053167"><ele>711.4</ele><time>2026-05-02T17:30:41.865Z</time></trkpt><trkpt lat="42.35571" lon="13.4052"><ele>711.1999999999999</ele><time>2026-05-02T17:30:42.865Z</time></trkpt><trkpt lat="42.35568" lon="13.4050717"><ele>711.0</ele><time>2026-05-02T17:30:43.865Z</time></trkpt><trkpt lat="42.355645" lon="13.4049217"><ele>711.0</ele><time>2026-05-02T17:30:44.866Z</time></trkpt><trkpt lat="42.3556067" lon="13.4047617"><ele>711.0</ele><time>2026-05-02T17:30:45.866Z</time></trkpt><trkpt lat="42.3555667" lon="13.40461"><ele>711.0</ele><time>2026-05-02T17:30:46.866Z</time></trkpt><trkpt lat="42.35552" lon="13.4044633"><ele>711.0</ele><time>2026-05-02T17:30:47.865Z</time></trkpt><trkpt lat="42.3554783" lon="13.4043167"><ele>714.0</ele><time>2026-05-02T17:30:48.865Z</time></trkpt><trkpt lat="42.3554467" lon="13.4041683"><ele>717.0</ele><time>2026-05-02T17:30:49.866Z</time></trkpt><trkpt lat="42.3554117" lon="13.4040183"><ele>720.0</ele><time>2026-05-02T17:30:50.865Z</time></trkpt><trkpt lat="42.3553783" lon="13.403855"><ele>723.0</ele><time>2026-05-02T17:30:51.866Z</time></trkpt><trkpt lat="42.3553467" lon="13.4036933"><ele>723.0</ele><time>2026-05-02T17:30:52.866Z</time></trkpt><trkpt lat="42.35531" lon="13.4035417"><ele>723.0</ele><time>2026-05-02T17:30:53.866Z</time></trkpt><trkpt lat="42.35527" lon="13.4033917"><ele>723.0</ele><time>2026-05-02T17:30:54.865Z</time></trkpt><trkpt lat="42.3552117" lon="13.4032433"><ele>723.0</ele><time>2026-05-02T17:30:55.866Z</time></trkpt><trkpt lat="42.3551567" lon="13.4031017"><ele>721.25</ele><time>2026-05-02T17:30:56.865Z</time></trkpt><trkpt lat="42.35509" lon="13.4029717"><ele>719.5</ele><time>2026-05-02T17:30:57.866Z</time></trkpt><trkpt lat="42.3550067" lon="13.4028467"><ele>717.75</ele><time>2026-05-02T17:30:58.866Z</time></trkpt><trkpt lat="42.3549217" lon="13.40273"><ele>716.0</ele><time>2026-05-02T17:30:59.865Z</time></trkpt><trkpt lat="42.3548217" lon="13.4026033"><ele>716.0</ele><time>2026-05-02T17:31:00.865Z</time></trkpt><trkpt lat="42.3547167" lon="13.4024833"><ele>716.0</ele><time>2026-05-02T17:31:01.866Z</time></trkpt><trkpt lat="42.3546117" lon="13.402365"><ele>716.0</ele><time>2026-05-02T17:31:02.865Z</time></trkpt><trkpt lat="42.3545167" lon="13.4022533"><ele>716.0</ele><time>2026-05-02T17:31:03.865Z</time></trkpt><trkpt lat="42.3544283" lon="13.402155"><ele>718.0</ele><time>2026-05-02T17:31:04.865Z</time></trkpt><trkpt lat="42.35436" lon="13.4020683"><ele>720.0</ele><time>2026-05-02T17:31:05.865Z</time></trkpt><trkpt lat="42.3543117" lon="13.4019783"><ele>722.0</ele><time>2026-05-02T17:31:06.866Z</time></trkpt><trkpt lat="42.354285" lon="13.4018767"><ele>724.0</ele><time>2026-05-02T17:31:07.865Z</time></trkpt><trkpt lat="42.3542833" lon="13.401775"><ele>726.0</ele><time>2026-05-02T17:31:08.866Z</time></trkpt><trkpt lat="42.3542867" lon="13.401685"><ele>728.0</ele><time>2026-05-02T17:31:09.865Z</time></trkpt><trkpt lat="42.3543" lon="13.4015417"><ele>728.0</ele><time>2026-05-02T17:31:11.865Z</time></trkpt><trkpt lat="42.3542617" lon="13.40146"><ele>728.0</ele><time>2026-05-02T17:31:17.865Z</time></trkpt><trkpt lat="42.35418" lon="13.401445"><ele>728.0</ele><time>2026-05-02T17:31:20.865Z</time></trkpt><trkpt lat="42.3541033" lon="13.4014183"><ele>728.0</ele><time>2026-05-02T17:31:23.865Z</time></trkpt><trkpt lat="42.3540433" lon="13.4013833"><ele>728.0</ele><time>2026-05-02T17:31:26.865Z</time></trkpt><trkpt lat="42.3539883" lon="13.4013383"><ele>728.0</ele><time>2026-05-02T17:31:30.865Z</time></trkpt><trkpt lat="42.35391" lon="13.4013017"><ele>728.0</ele><time>2026-05-02T17:31:34.865Z</time></trkpt><trkpt lat="42.3538467" lon="13.4012617"><ele>729.0</ele><time>2026-05-02T17:31:37.866Z</time></trkpt><trkpt lat="42.3537467" lon="13.40125"><ele>730.0</ele><time>2026-05-02T17:31:43.866Z</time></trkpt><trkpt lat="42.353725" lon="13.401355"><ele>731.0</ele><time>2026-05-02T17:31:47.865Z</time></trkpt><trkpt lat="42.353685" lon="13.4014267"><ele>732.0</ele><time>2026-05-02T17:31:50.866Z</time></trkpt><trkpt lat="42.3536567" lon="13.40153"><ele>733.0</ele><time>2026-05-02T17:31:53.865Z</time></trkpt><trkpt lat="42.35366" lon="13.4016217"><ele>734.0</ele><time>2026-05-02T17:31:56.865Z</time></trkpt><trkpt lat="42.3536983" lon="13.4017017"><ele>734.0</ele><time>2026-05-02T17:32:01.865Z</time></trkpt><trkpt lat="42.35373" lon="13.4017933"><ele>734.0</ele><time>2026-05-02T17:32:07.865Z</time></trkpt><trkpt lat="42.3537383" lon="13.4019067"><ele>734.0</ele><time>2026-05-02T17:32:09.866Z</time></trkpt><trkpt lat="42.3537433" lon="13.4020367"><ele>734.0</ele><time>2026-05-02T17:32:11.865Z</time></trkpt><trkpt lat="42.3537367" lon="13.40217"><ele>734.0</ele><time>2026-05-02T17:32:13.865Z</time></trkpt><trkpt lat="42.3537317" lon="13.4022783"><ele>734.0</ele><time>2026-05-02T17:32:15.865Z</time></trkpt><trkpt lat="42.353765" lon="13.402385"><ele>734.0</ele><time>2026-05-02T17:32:18.865Z</time></trkpt><trkpt lat="42.35379" lon="13.4024717"><ele>734.0</ele><time>2026-05-02T17:32:21.865Z</time></trkpt><trkpt lat="42.3538517" lon="13.4025467"><ele>734.0</ele><time>2026-05-02T17:54:02.865Z</time></trkpt><trkpt lat="42.3537833" lon="13.402505"><ele>734.0</ele><time>2026-05-02T17:54:06.864Z</time></trkpt><trkpt lat="42.353765" lon="13.4024167"><ele>734.0</ele><time>2026-05-02T17:54:08.864Z</time></trkpt><trkpt lat="42.3537583" lon="13.40232"><ele>734.0</ele><time>2026-05-02T17:54:10.864Z</time></trkpt><trkpt lat="42.35375" lon="13.4022217"><ele>734.0</ele><time>2026-05-02T17:54:12.865Z</time></trkpt><trkpt lat="42.35374" lon="13.4021333"><ele>734.0</ele><time>2026-05-02T17:54:14.864Z</time></trkpt><trkpt lat="42.35373" lon="13.4020267"><ele>734.0</ele><time>2026-05-02T17:54:17.864Z</time></trkpt><trkpt lat="42.35374" lon="13.40194"><ele>734.0</ele><time>2026-05-02T17:54:19.864Z</time></trkpt><trkpt lat="42.3537483" lon="13.4018483"><ele>734.0</ele><time>2026-05-02T17:54:21.864Z</time></trkpt><trkpt lat="42.353785" lon="13.40176"><ele>734.0</ele><time>2026-05-02T17:54:23.865Z</time></trkpt><trkpt lat="42.353845" lon="13.4016867"><ele>734.0</ele><time>2026-05-02T17:54:25.864Z</time></trkpt><trkpt lat="42.3539117" lon="13.4016333"><ele>734.0</ele><time>2026-05-02T17:54:27.865Z</time></trkpt><trkpt lat="42.3540017" lon="13.401665"><ele>733.0</ele><time>2026-05-02T17:54:30.864Z</time></trkpt><trkpt lat="42.3540817" lon="13.4017317"><ele>732.0</ele><time>2026-05-02T17:54:32.864Z</time></trkpt><trkpt lat="42.3541717" lon="13.40184"><ele>731.0</ele><time>2026-05-02T17:54:34.865Z</time></trkpt><trkpt lat="42.3542217" lon="13.4019017"><ele>730.0</ele><time>2026-05-02T17:54:35.864Z</time></trkpt><trkpt lat="42.35427" lon="13.40196"><ele>729.0</ele><time>2026-05-02T17:54:36.864Z</time></trkpt><trkpt lat="42.3543233" lon="13.40202"><ele>728.0</ele><time>2026-05-02T17:54:37.864Z</time></trkpt><trkpt lat="42.3543817" lon="13.4020867"><ele>728.0</ele><time>2026-05-02T17:54:38.864Z</time></trkpt><trkpt lat="42.3544317" lon="13.4021483"><ele>728.0</ele><time>2026-05-02T17:54:39.864Z</time></trkpt><trkpt lat="42.3545033" lon="13.4022367"><ele>728.0</ele><time>2026-05-02T17:54:41.864Z</time></trkpt><trkpt lat="42.3545617" lon="13.4023017"><ele>728.0</ele><time>2026-05-02T17:54:44.864Z</time></trkpt><trkpt lat="42.354615" lon="13.4023717"><ele>728.0</ele><time>2026-05-02T17:54:46.865Z</time></trkpt><trkpt lat="42.354685" lon="13.4024617"><ele>728.0</ele><time>2026-05-02T17:54:48.864Z</time></trkpt><trkpt lat="42.3547617" lon="13.4025483"><ele>726.0</ele><time>2026-05-02T17:54:50.864Z</time></trkpt><trkpt lat="42.3548467" lon="13.4026533"><ele>724.0</ele><time>2026-05-02T17:54:52.864Z</time></trkpt><trkpt lat="42.3548933" lon="13.4027133"><ele>722.0</ele><time>2026-05-02T17:54:53.864Z</time></trkpt><trkpt lat="42.3549417" lon="13.402775"><ele>720.0</ele><time>2026-05-02T17:54:54.865Z</time></trkpt><trkpt lat="42.3549917" lon="13.4028383"><ele>718.0</ele><time>2026-05-02T17:54:55.864Z</time></trkpt><trkpt lat="42.3550417" lon="13.40291"><ele>716.0</ele><time>2026-05-02T17:54:56.865Z</time></trkpt><trkpt lat="42.3550883" lon="13.4029933"><ele>717.1666666666666</ele><time>2026-05-02T17:54:57.864Z</time></trkpt><trkpt lat="42.3551333" lon="13.4030833"><ele>718.3333333333333</ele><time>2026-05-02T17:54:58.864Z</time></trkpt><trkpt lat="42.3551717" lon="13.4031767"><ele>719.5</ele><time>2026-05-02T17:54:59.864Z</time></trkpt><trkpt lat="42.3552083" lon="13.4032633"><ele>720.6666666666666</ele><time>2026-05-02T17:55:00.865Z</time></trkpt><trkpt lat="42.3552367" lon="13.4033417"><ele>721.8333333333334</ele><time>2026-05-02T17:55:01.865Z</time></trkpt><trkpt lat="42.355275" lon="13.4034633"><ele>723.0</ele><time>2026-05-02T17:55:03.864Z</time></trkpt><trkpt lat="42.3553" lon="13.40356"><ele>723.0</ele><time>2026-05-02T17:55:06.864Z</time></trkpt><trkpt lat="42.3553233" lon="13.4036433"><ele>723.0</ele><time>2026-05-02T17:55:09.864Z</time></trkpt><trkpt lat="42.3553567" lon="13.4037767"><ele>723.0</ele><time>2026-05-02T17:55:12.864Z</time></trkpt><trkpt lat="42.3553917" lon="13.403905"><ele>723.0</ele><time>2026-05-02T17:55:14.864Z</time></trkpt><trkpt lat="42.3554183" lon="13.4040017"><ele>723.0</ele><time>2026-05-02T17:55:16.865Z</time></trkpt><trkpt lat="42.3554567" lon="13.4041317"><ele>724.4</ele><time>2026-05-02T17:55:19.865Z</time></trkpt><trkpt lat="42.3554933" lon="13.4043"><ele>725.8</ele><time>2026-05-02T17:55:21.864Z</time></trkpt><trkpt lat="42.3555133" lon="13.4043933"><ele>727.2</ele><time>2026-05-02T17:55:22.865Z</time></trkpt><trkpt lat="42.355545" lon="13.4045467"><ele>728.6</ele><time>2026-05-02T17:55:24.864Z</time></trkpt><trkpt lat="42.355575" lon="13.40469"><ele>730.0</ele><time>2026-05-02T17:55:26.865Z</time></trkpt><trkpt lat="42.3556083" lon="13.4048583"><ele>727.0</ele><time>2026-05-02T17:55:28.865Z</time></trkpt><trkpt lat="42.3556367" lon="13.40502"><ele>724.0</ele><time>2026-05-02T17:55:30.864Z</time></trkpt><trkpt lat="42.355655" lon="13.405105"><ele>721.0</ele><time>2026-05-02T17:55:31.864Z</time></trkpt><trkpt lat="42.355675" lon="13.405195"><ele>718.0</ele><time>2026-05-02T17:55:32.864Z</time></trkpt><trkpt lat="42.3556967" lon="13.4052867"><ele>715.0</ele><time>2026-05-02T17:55:33.865Z</time></trkpt><trkpt lat="42.355715" lon="13.40537"><ele>712.0</ele><time>2026-05-02T17:55:34.864Z</time></trkpt><trkpt lat="42.3557417" lon="13.40551"><ele>712.0</ele><time>2026-05-02T17:55:36.865Z</time></trkpt><trkpt lat="42.3557633" lon="13.405615"><ele>712.0</ele><time>2026-05-02T17:55:38.864Z</time></trkpt><trkpt lat="42.355775" lon="13.4057367"><ele>712.0</ele><time>2026-05-02T17:55:41.865Z</time></trkpt><trkpt lat="42.355775" lon="13.40586"><ele>712.0</ele><time>2026-05-02T17:55:43.864Z</time></trkpt><trkpt lat="42.3557917" lon="13.4059933"><ele>712.0</ele><time>2026-05-02T17:55:45.864Z</time></trkpt><trkpt lat="42.355825" lon="13.4061633"><ele>712.0</ele><time>2026-05-02T17:55:47.864Z</time></trkpt><trkpt lat="42.3558283" lon="13.4062717"><ele>712.0</ele><time>2026-05-02T17:55:48.864Z</time></trkpt><trkpt lat="42.3558083" lon="13.40639"><ele>712.0</ele><time>2026-05-02T17:55:49.864Z</time></trkpt><trkpt lat="42.355765" lon="13.4065117"><ele>712.0</ele><time>2026-05-02T17:55:50.865Z</time></trkpt><trkpt lat="42.3557083" lon="13.40662"><ele>712.0</ele><time>2026-05-02T17:55:51.865Z</time></trkpt><trkpt lat="42.3556417" lon="13.4067133"><ele>712.0</ele><time>2026-05-02T17:55:52.864Z</time></trkpt><trkpt lat="42.3555767" lon="13.4067983"><ele>712.0</ele><time>2026-05-02T17:55:53.865Z</time></trkpt><trkpt lat="42.355505" lon="13.4068633"><ele>712.0</ele><time>2026-05-02T17:55:54.864Z</time></trkpt><trkpt lat="42.355425" lon="13.4069267"><ele>712.0</ele><time>2026-05-02T17:55:55.865Z</time></trkpt><trkpt lat="42.3553417" lon="13.40702"><ele>712.0</ele><time>2026-05-02T17:55:56.864Z</time></trkpt><trkpt lat="42.3552633" lon="13.4071417"><ele>712.0</ele><time>2026-05-02T17:55:57.865Z</time></trkpt><trkpt lat="42.3551859" lon="13.4072861"><ele>712.0</ele><time>2026-05-02T17:55:58.864Z</time></trkpt><trkpt lat="42.3551045" lon="13.4074378"><ele>712.0</ele><time>2026-05-02T17:55:59.864Z</time></trkpt><trkpt lat="42.3550217" lon="13.4075948"><ele>712.0</ele><time>2026-05-02T17:56:00.865Z</time></trkpt><trkpt lat="42.3549371" lon="13.4077607"><ele>712.0</ele><time>2026-05-02T17:56:01.865Z</time></trkpt><trkpt lat="42.3548553" lon="13.4079318"><ele>712.0</ele><time>2026-05-02T17:56:02.865Z</time></trkpt><trkpt lat="42.3547738" lon="13.4080985"><ele>712.0</ele><time>2026-05-02T17:56:03.865Z</time></trkpt><trkpt lat="42.3546992" lon="13.4082571"><ele>712.0</ele><time>2026-05-02T17:56:04.865Z</time></trkpt><trkpt lat="42.3546289" lon="13.4084084"><ele>712.4000000000001</ele><time>2026-05-02T17:56:05.864Z</time></trkpt><trkpt lat="42.3545628" lon="13.4085439"><ele>712.8000000000001</ele><time>2026-05-02T17:56:06.864Z</time></trkpt><trkpt lat="42.3544973" lon="13.4086677"><ele>713.2</ele><time>2026-05-02T17:56:07.864Z</time></trkpt><trkpt lat="42.3544334" lon="13.4087882"><ele>713.6</ele><time>2026-05-02T17:56:08.865Z</time></trkpt><trkpt lat="42.3543703" lon="13.4088933"><ele>714.0</ele><time>2026-05-02T17:56:09.865Z</time></trkpt><trkpt lat="42.3543068" lon="13.4089918"><ele>714.0</ele><time>2026-05-02T17:56:10.865Z</time></trkpt><trkpt lat="42.3542389" lon="13.4090918"><ele>714.0</ele><time>2026-05-02T17:56:11.865Z</time></trkpt><trkpt lat="42.3541698" lon="13.409192"><ele>714.0</ele><time>2026-05-02T17:56:12.864Z</time></trkpt><trkpt lat="42.3541038" lon="13.4092929"><ele>714.0</ele><time>2026-05-02T17:56:13.864Z</time></trkpt><trkpt lat="42.354042" lon="13.4093909"><ele>714.0</ele><time>2026-05-02T17:56:14.864Z</time></trkpt><trkpt lat="42.3539753" lon="13.4094902"><ele>714.0</ele><time>2026-05-02T17:56:15.865Z</time></trkpt><trkpt lat="42.3539091" lon="13.4095897"><ele>714.0</ele><time>2026-05-02T17:56:16.864Z</time></trkpt><trkpt lat="42.3538474" lon="13.4096857"><ele>714.0</ele><time>2026-05-02T17:56:17.864Z</time></trkpt><trkpt lat="42.3537891" lon="13.4097715"><ele>714.0</ele><time>2026-05-02T17:56:18.864Z</time></trkpt><trkpt lat="42.3537276" lon="13.4098625"><ele>714.0</ele><time>2026-05-02T17:56:19.865Z</time></trkpt><trkpt lat="42.3536668" lon="13.4099506"><ele>713.8000000000001</ele><time>2026-05-02T17:56:20.864Z</time></trkpt><trkpt lat="42.353608" lon="13.4100398"><ele>713.6</ele><time>2026-05-02T17:56:21.865Z</time></trkpt><trkpt lat="42.3535444" lon="13.4101288"><ele>713.4</ele><time>2026-05-02T17:56:22.864Z</time></trkpt><trkpt lat="42.3534768" lon="13.4102162"><ele>713.2</ele><time>2026-05-02T17:56:23.865Z</time></trkpt><trkpt lat="42.353409" lon="13.4103035"><ele>713.0</ele><time>2026-05-02T17:56:24.864Z</time></trkpt><trkpt lat="42.353344" lon="13.4103997"><ele>713.1666666666666</ele><time>2026-05-02T17:56:25.864Z</time></trkpt><trkpt lat="42.3532795" lon="13.4104957"><ele>713.3333333333333</ele><time>2026-05-02T17:56:26.864Z</time></trkpt><trkpt lat="42.3532187" lon="13.4105818"><ele>713.5</ele><time>2026-05-02T17:56:27.864Z</time></trkpt><trkpt lat="42.3531648" lon="13.4106617"><ele>713.6666666666666</ele><time>2026-05-02T17:56:28.865Z</time></trkpt><trkpt lat="42.3531176" lon="13.4107352"><ele>713.8333333333334</ele><time>2026-05-02T17:56:29.864Z</time></trkpt><trkpt lat="42.3530724" lon="13.4108052"><ele>714.0</ele><time>2026-05-02T17:56:30.864Z</time></trkpt><trkpt lat="42.3530276" lon="13.4108713"><ele>714.0</ele><time>2026-05-02T17:56:31.865Z</time></trkpt><trkpt lat="42.3529743" lon="13.4109476"><ele>714.0</ele><time>2026-05-02T17:56:32.864Z</time></trkpt><trkpt lat="42.3529072" lon="13.4110336"><ele>714.0</ele><time>2026-05-02T17:56:33.864Z</time></trkpt><trkpt lat="42.3528358" lon="13.4111343"><ele>714.0</ele><time>2026-05-02T17:56:34.865Z</time></trkpt><trkpt lat="42.3527655" lon="13.4112341"><ele>714.0</ele><time>2026-05-02T17:56:35.865Z</time></trkpt><trkpt lat="42.3526973" lon="13.4113283"><ele>714.3333333333334</ele><time>2026-05-02T17:56:36.865Z</time></trkpt><trkpt lat="42.3526356" lon="13.4114191"><ele>714.6666666666666</ele><time>2026-05-02T17:56:37.864Z</time></trkpt><trkpt lat="42.3525824" lon="13.4115037"><ele>715.0</ele><time>2026-05-02T17:56:38.865Z</time></trkpt><trkpt lat="42.3525356" lon="13.4115809"><ele>715.3333333333333</ele><time>2026-05-02T17:56:39.864Z</time></trkpt><trkpt lat="42.3524943" lon="13.4116471"><ele>715.6666666666666</ele><time>2026-05-02T17:56:40.865Z</time></trkpt><trkpt lat="42.3524222" lon="13.4117601"><ele>716.0</ele><time>2026-05-02T17:56:42.865Z</time></trkpt><trkpt lat="42.3523358" lon="13.4118921"><ele>716.0</ele><time>2026-05-02T17:56:44.864Z</time></trkpt><trkpt lat="42.3522846" lon="13.4119701"><ele>716.0</ele><time>2026-05-02T17:56:45.864Z</time></trkpt><trkpt lat="42.35223" lon="13.4120483"><ele>716.0</ele><time>2026-05-02T17:56:46.864Z</time></trkpt><trkpt lat="42.3521733" lon="13.412135"><ele>716.0</ele><time>2026-05-02T17:56:47.865Z</time></trkpt><trkpt lat="42.3521267" lon="13.41221"><ele>716.0</ele><time>2026-05-02T17:56:48.865Z</time></trkpt><trkpt lat="42.3520817" lon="13.4123017"><ele>716.0</ele><time>2026-05-02T17:56:49.864Z</time></trkpt><trkpt lat="42.3520417" lon="13.4124183"><ele>715.75</ele><time>2026-05-02T17:56:50.864Z</time></trkpt><trkpt lat="42.352015" lon="13.412545"><ele>715.5</ele><time>2026-05-02T17:56:51.864Z</time></trkpt><trkpt lat="42.3520067" lon="13.4126867"><ele>715.25</ele><time>2026-05-02T17:56:52.864Z</time></trkpt><trkpt lat="42.3520283" lon="13.4128433"><ele>715.0</ele><time>2026-05-02T17:56:53.864Z</time></trkpt><trkpt lat="42.3520683" lon="13.4130133"><ele>715.5</ele><time>2026-05-02T17:56:54.864Z</time></trkpt><trkpt lat="42.3521267" lon="13.4131867"><ele>716.0</ele><time>2026-05-02T17:56:55.864Z</time></trkpt><trkpt lat="42.3522017" lon="13.4133483"><ele>716.5</ele><time>2026-05-02T17:56:56.865Z</time></trkpt><trkpt lat="42.352275" lon="13.41351"><ele>717.0</ele><time>2026-05-02T17:56:57.864Z</time></trkpt><trkpt lat="42.35235" lon="13.4136733"><ele>717.75</ele><time>2026-05-02T17:56:58.864Z</time></trkpt><trkpt lat="42.3524217" lon="13.413845"><ele>718.5</ele><time>2026-05-02T17:56:59.865Z</time></trkpt><trkpt lat="42.3524733" lon="13.414025"><ele>719.25</ele><time>2026-05-02T17:57:00.864Z</time></trkpt><trkpt lat="42.3524933" lon="13.41421"><ele>720.0</ele><time>2026-05-02T17:57:01.864Z</time></trkpt><trkpt lat="42.3525" lon="13.4143933"><ele>720.0</ele><time>2026-05-02T17:57:02.864Z</time></trkpt><trkpt lat="42.3524933" lon="13.41458"><ele>720.0</ele><time>2026-05-02T17:57:03.865Z</time></trkpt><trkpt lat="42.352455" lon="13.4147667"><ele>720.0</ele><time>2026-05-02T17:57:04.864Z</time></trkpt><trkpt lat="42.3524133" lon="13.4149483"><ele>720.0</ele><time>2026-05-02T17:57:05.865Z</time></trkpt><trkpt lat="42.3523483" lon="13.41513"><ele>720.3333333333334</ele><time>2026-05-02T17:57:06.865Z</time></trkpt><trkpt lat="42.3522683" lon="13.4153033"><ele>720.6666666666667</ele><time>2026-05-02T17:57:07.864Z</time></trkpt><trkpt lat="42.3521817" lon="13.4154783"><ele>721.0</ele><time>2026-05-02T17:57:08.864Z</time></trkpt><trkpt lat="42.352085" lon="13.4156483"><ele>722.0</ele><time>2026-05-02T17:57:09.864Z</time></trkpt><trkpt lat="42.3519917" lon="13.41582"><ele>723.0</ele><time>2026-05-02T17:57:10.864Z</time></trkpt><trkpt lat="42.351905" lon="13.4159917"><ele>724.0</ele><time>2026-05-02T17:57:11.865Z</time></trkpt><trkpt lat="42.3518267" lon="13.4161733"><ele>725.0</ele><time>2026-05-02T17:57:12.865Z</time></trkpt><trkpt lat="42.35177" lon="13.416375"><ele>726.0</ele><time>2026-05-02T17:57:13.864Z</time></trkpt><trkpt lat="42.351725" lon="13.41658"><ele>727.0</ele><time>2026-05-02T17:57:14.864Z</time></trkpt><trkpt lat="42.3516933" lon="13.416785"><ele>727.0</ele><time>2026-05-02T17:57:15.864Z</time></trkpt><trkpt lat="42.3516817" lon="13.416995"><ele>727.0</ele><time>2026-05-02T17:57:16.864Z</time></trkpt><trkpt lat="42.3516717" lon="13.4171983"><ele>727.0</ele><time>2026-05-02T17:57:17.865Z</time></trkpt><trkpt lat="42.3516633" lon="13.4174"><ele>727.75</ele><time>2026-05-02T17:57:18.865Z</time></trkpt><trkpt lat="42.3516567" lon="13.4176017"><ele>728.5</ele><time>2026-05-02T17:57:19.864Z</time></trkpt><trkpt lat="42.35166" lon="13.4178017"><ele>729.25</ele><time>2026-05-02T17:57:20.865Z</time></trkpt><trkpt lat="42.35166" lon="13.4179967"><ele>730.0</ele><time>2026-05-02T17:57:21.864Z</time></trkpt><trkpt lat="42.35168" lon="13.418175"><ele>730.0</ele><time>2026-05-02T17:57:22.864Z</time></trkpt><trkpt lat="42.3517217" lon="13.4183417"><ele>730.0</ele><time>2026-05-02T17:57:23.864Z</time></trkpt><trkpt lat="42.3517783" lon="13.4184767"><ele>730.0</ele><time>2026-05-02T17:57:24.864Z</time></trkpt><trkpt lat="42.351845" lon="13.418595"><ele>730.0</ele><time>2026-05-02T17:57:25.865Z</time></trkpt><trkpt lat="42.3519083" lon="13.4186883"><ele>730.0</ele><time>2026-05-02T17:57:26.865Z</time></trkpt><trkpt lat="42.3519533" lon="13.4187883"><ele>730.2</ele><time>2026-05-02T17:57:27.865Z</time></trkpt><trkpt lat="42.3519867" lon="13.4189"><ele>730.4</ele><time>2026-05-02T17:57:28.864Z</time></trkpt><trkpt lat="42.3520233" lon="13.41901"><ele>730.5999999999999</ele><time>2026-05-02T17:57:29.864Z</time></trkpt><trkpt lat="42.3520883" lon="13.4191183"><ele>730.8</ele><time>2026-05-02T17:57:30.864Z</time></trkpt><trkpt lat="42.3521617" lon="13.4192167"><ele>731.0</ele><time>2026-05-02T17:57:31.864Z</time></trkpt><trkpt lat="42.3522267" lon="13.4193267"><ele>732.5</ele><time>2026-05-02T17:57:32.865Z</time></trkpt><trkpt lat="42.3522783" lon="13.4194383"><ele>734.0</ele><time>2026-05-02T17:57:33.864Z</time></trkpt><trkpt lat="42.3523133" lon="13.41954"><ele>735.5</ele><time>2026-05-02T17:57:34.864Z</time></trkpt><trkpt lat="42.3523433" lon="13.4196283"><ele>737.0</ele><time>2026-05-02T17:57:35.865Z</time></trkpt><trkpt lat="42.3523783" lon="13.4197133"><ele>738.5</ele><time>2026-05-02T17:57:36.864Z</time></trkpt><trkpt lat="42.35242" lon="13.41981"><ele>740.0</ele><time>2026-05-02T17:57:37.864Z</time></trkpt><trkpt lat="42.35247" lon="13.4199217"><ele>740.0</ele><time>2026-05-02T17:57:38.865Z</time></trkpt><trkpt lat="42.3525167" lon="13.4200567"><ele>740.0</ele><time>2026-05-02T17:57:39.864Z</time></trkpt><trkpt lat="42.3525617" lon="13.420205"><ele>740.0</ele><time>2026-05-02T17:57:40.865Z</time></trkpt><trkpt lat="42.3525783" lon="13.4203617"><ele>740.0</ele><time>2026-05-02T17:57:41.865Z</time></trkpt><trkpt lat="42.3525717" lon="13.4205283"><ele>740.25</ele><time>2026-05-02T17:57:42.865Z</time></trkpt><trkpt lat="42.3525533" lon="13.4207033"><ele>740.5</ele><time>2026-05-02T17:57:43.864Z</time></trkpt><trkpt lat="42.3525333" lon="13.42088"><ele>740.75</ele><time>2026-05-02T17:57:44.865Z</time></trkpt><trkpt lat="42.3525183" lon="13.42106"><ele>741.0</ele><time>2026-05-02T17:57:45.865Z</time></trkpt><trkpt lat="42.3525167" lon="13.4212433"><ele>741.75</ele><time>2026-05-02T17:57:46.864Z</time></trkpt><trkpt lat="42.352535" lon="13.4214283"><ele>742.5</ele><time>2026-05-02T17:57:47.865Z</time></trkpt><trkpt lat="42.3525717" lon="13.4216167"><ele>743.25</ele><time>2026-05-02T17:57:48.864Z</time></trkpt><trkpt lat="42.352615" lon="13.4218117"><ele>744.0</ele><time>2026-05-02T17:57:49.865Z</time></trkpt><trkpt lat="42.3526567" lon="13.4220067"><ele>741.6666666666666</ele><time>2026-05-02T17:57:50.865Z</time></trkpt><trkpt lat="42.3527033" lon="13.4221967"><ele>739.3333333333333</ele><time>2026-05-02T17:57:51.865Z</time></trkpt><trkpt lat="42.3527583" lon="13.4223933"><ele>737.0</ele><time>2026-05-02T17:57:52.865Z</time></trkpt><trkpt lat="42.35281" lon="13.4225933"><ele>737.0</ele><time>2026-05-02T17:57:53.865Z</time></trkpt><trkpt lat="42.352865" lon="13.4227967"><ele>737.0</ele><time>2026-05-02T17:57:54.865Z</time></trkpt><trkpt lat="42.3529167" lon="13.4230017"><ele>737.0</ele><time>2026-05-02T17:57:55.866Z</time></trkpt><trkpt lat="42.3529683" lon="13.423215"><ele>738.0</ele><time>2026-05-02T17:57:56.865Z</time></trkpt><trkpt lat="42.3530233" lon="13.4234217"><ele>739.0</ele><time>2026-05-02T17:57:57.865Z</time></trkpt><trkpt lat="42.3530783" lon="13.4236233"><ele>740.0</ele><time>2026-05-02T17:57:58.865Z</time></trkpt><trkpt lat="42.353135" lon="13.4238267"><ele>740.0</ele><time>2026-05-02T17:57:59.865Z</time></trkpt><trkpt lat="42.3531917" lon="13.42404"><ele>740.0</ele><time>2026-05-02T17:58:00.866Z</time></trkpt><trkpt lat="42.3532483" lon="13.4242617"><ele>740.0</ele><time>2026-05-02T17:58:01.866Z</time></trkpt><trkpt lat="42.3532967" lon="13.42449"><ele>738.0</ele><time>2026-05-02T17:58:02.866Z</time></trkpt><trkpt lat="42.3533333" lon="13.42473"><ele>736.0</ele><time>2026-05-02T17:58:03.866Z</time></trkpt><trkpt lat="42.35336" lon="13.4249817"><ele>734.0</ele><time>2026-05-02T17:58:04.865Z</time></trkpt><trkpt lat="42.3533667" lon="13.4252383"><ele>733.0</ele><time>2026-05-02T17:58:05.866Z</time></trkpt><trkpt lat="42.3533583" lon="13.4254967"><ele>732.0</ele><time>2026-05-02T17:58:06.865Z</time></trkpt><trkpt lat="42.3533383" lon="13.4257517"><ele>731.0</ele><time>2026-05-02T17:58:07.866Z</time></trkpt><trkpt lat="42.3533033" lon="13.4260067"><ele>731.0</ele><time>2026-05-02T17:58:08.866Z</time></trkpt><trkpt lat="42.35325" lon="13.42626"><ele>731.0</ele><time>2026-05-02T17:58:09.865Z</time></trkpt><trkpt lat="42.353185" lon="13.4265067"><ele>731.0</ele><time>2026-05-02T17:58:10.865Z</time></trkpt><trkpt lat="42.3531017" lon="13.4267467"><ele>731.6666666666666</ele><time>2026-05-02T17:58:11.865Z</time></trkpt><trkpt lat="42.3530033" lon="13.4269733"><ele>732.3333333333334</ele><time>2026-05-02T17:58:12.866Z</time></trkpt><trkpt lat="42.3529" lon="13.4271783"><ele>733.0</ele><time>2026-05-02T17:58:13.866Z</time></trkpt><trkpt lat="42.3527933" lon="13.4273733"><ele>733.0</ele><time>2026-05-02T17:58:14.865Z</time></trkpt><trkpt lat="42.352675" lon="13.4275517"><ele>733.0</ele><time>2026-05-02T17:58:15.865Z</time></trkpt><trkpt lat="42.3525433" lon="13.4277267"><ele>733.0</ele><time>2026-05-02T17:58:16.866Z</time></trkpt><trkpt lat="42.3523967" lon="13.4278867"><ele>735.6666666666667</ele><time>2026-05-02T17:58:17.865Z</time></trkpt><trkpt lat="42.352245" lon="13.4280517"><ele>738.3333333333334</ele><time>2026-05-02T17:58:18.866Z</time></trkpt><trkpt lat="42.35209" lon="13.4282133"><ele>741.0</ele><time>2026-05-02T17:58:19.865Z</time></trkpt><trkpt lat="42.35195" lon="13.4283817"><ele>741.0</ele><time>2026-05-02T17:58:20.866Z</time></trkpt><trkpt lat="42.3518067" lon="13.4285433"><ele>741.0</ele><time>2026-05-02T17:58:21.865Z</time></trkpt><trkpt lat="42.351645" lon="13.4287033"><ele>741.0</ele><time>2026-05-02T17:58:22.865Z</time></trkpt><trkpt lat="42.3514833" lon="13.4288633"><ele>736.6666666666666</ele><time>2026-05-02T17:58:23.866Z</time></trkpt><trkpt lat="42.35133" lon="13.4290167"><ele>732.3333333333333</ele><time>2026-05-02T17:58:24.866Z</time></trkpt><trkpt lat="42.3511833" lon="13.4291833"><ele>728.0</ele><time>2026-05-02T17:58:25.865Z</time></trkpt><trkpt lat="42.35103" lon="13.4293533"><ele>728.0</ele><time>2026-05-02T17:58:26.866Z</time></trkpt><trkpt lat="42.35088" lon="13.42952"><ele>728.0</ele><time>2026-05-02T17:58:27.865Z</time></trkpt><trkpt lat="42.3507167" lon="13.4296783"><ele>728.0</ele><time>2026-05-02T17:58:28.866Z</time></trkpt><trkpt lat="42.3505467" lon="13.4298233"><ele>725.0</ele><time>2026-05-02T17:58:29.865Z</time></trkpt><trkpt lat="42.3503833" lon="13.4299783"><ele>722.0</ele><time>2026-05-02T17:58:30.865Z</time></trkpt><trkpt lat="42.3502117" lon="13.4301267"><ele>719.0</ele><time>2026-05-02T17:58:31.866Z</time></trkpt><trkpt lat="42.350035" lon="13.4302717"><ele>719.0</ele><time>2026-05-02T17:58:32.866Z</time></trkpt><trkpt lat="42.3498567" lon="13.4304067"><ele>719.0</ele><time>2026-05-02T17:58:33.865Z</time></trkpt><trkpt lat="42.3496767" lon="13.4305317"><ele>719.0</ele><time>2026-05-02T17:58:34.865Z</time></trkpt><trkpt lat="42.3494917" lon="13.430645"><ele>719.6666666666666</ele><time>2026-05-02T17:58:35.866Z</time></trkpt><trkpt lat="42.3493" lon="13.4307383"><ele>720.3333333333334</ele><time>2026-05-02T17:58:36.865Z</time></trkpt><trkpt lat="42.349105" lon="13.4308317"><ele>721.0</ele><time>2026-05-02T17:58:37.865Z</time></trkpt><trkpt lat="42.3489067" lon="13.4309183"><ele>718.3333333333334</ele><time>2026-05-02T17:58:38.865Z</time></trkpt><trkpt lat="42.3487117" lon="13.4309983"><ele>715.6666666666666</ele><time>2026-05-02T17:58:39.865Z</time></trkpt><trkpt lat="42.3485183" lon="13.431075"><ele>713.0</ele><time>2026-05-02T17:58:40.866Z</time></trkpt><trkpt lat="42.34833" lon="13.4311633"><ele>713.0</ele><time>2026-05-02T17:58:41.866Z</time></trkpt><trkpt lat="42.3481383" lon="13.4312483"><ele>713.0</ele><time>2026-05-02T17:58:42.866Z</time></trkpt><trkpt lat="42.3479483" lon="13.43133"><ele>713.0</ele><time>2026-05-02T17:58:43.866Z</time></trkpt><trkpt lat="42.3477633" lon="13.4314133"><ele>712.3333333333333</ele><time>2026-05-02T17:58:44.866Z</time></trkpt><trkpt lat="42.3475683" lon="13.4315017"><ele>711.6666666666666</ele><time>2026-05-02T17:58:45.866Z</time></trkpt><trkpt lat="42.3473717" lon="13.43159"><ele>711.0</ele><time>2026-05-02T17:58:46.865Z</time></trkpt><trkpt lat="42.3471733" lon="13.4316733"><ele>708.6666666666666</ele><time>2026-05-02T17:58:47.866Z</time></trkpt><trkpt lat="42.3469717" lon="13.4317583"><ele>706.3333333333333</ele><time>2026-05-02T17:58:48.865Z</time></trkpt><trkpt lat="42.34677" lon="13.43184"><ele>704.0</ele><time>2026-05-02T17:58:49.865Z</time></trkpt><trkpt lat="42.3465717" lon="13.4319217"><ele>704.0</ele><time>2026-05-02T17:58:50.865Z</time></trkpt><trkpt lat="42.3463783" lon="13.43201"><ele>704.0</ele><time>2026-05-02T17:58:51.865Z</time></trkpt><trkpt lat="42.3461867" lon="13.4320983"><ele>704.0</ele><time>2026-05-02T17:58:52.865Z</time></trkpt><trkpt lat="42.3459967" lon="13.4321867"><ele>705.3333333333333</ele><time>2026-05-02T17:58:53.865Z</time></trkpt><trkpt lat="42.345805" lon="13.432275"><ele>706.6666666666666</ele><time>2026-05-02T17:58:54.866Z</time></trkpt><trkpt lat="42.34561" lon="13.4323717"><ele>708.0</ele><time>2026-05-02T17:58:55.866Z</time></trkpt><trkpt lat="42.345425" lon="13.4324733"><ele>705.0</ele><time>2026-05-02T17:58:56.865Z</time></trkpt><trkpt lat="42.345245" lon="13.4325983"><ele>702.0</ele><time>2026-05-02T17:58:57.866Z</time></trkpt><trkpt lat="42.3450667" lon="13.43274"><ele>699.0</ele><time>2026-05-02T17:58:58.866Z</time></trkpt><trkpt lat="42.3449" lon="13.4329033"><ele>699.6666666666666</ele><time>2026-05-02T17:58:59.866Z</time></trkpt><trkpt lat="42.3447517" lon="13.4330867"><ele>700.3333333333333</ele><time>2026-05-02T17:59:00.866Z</time></trkpt><trkpt lat="42.3446133" lon="13.433295"><ele>701.0</ele><time>2026-05-02T17:59:01.865Z</time></trkpt><trkpt lat="42.3444867" lon="13.433515"><ele>698.0</ele><time>2026-05-02T17:59:02.866Z</time></trkpt><trkpt lat="42.3443733" lon="13.4337483"><ele>695.0</ele><time>2026-05-02T17:59:03.866Z</time></trkpt><trkpt lat="42.344275" lon="13.4339967"><ele>692.0</ele><time>2026-05-02T17:59:04.865Z</time></trkpt><trkpt lat="42.34419" lon="13.4342483"><ele>692.0</ele><time>2026-05-02T17:59:05.865Z</time></trkpt><trkpt lat="42.34412" lon="13.4345133"><ele>692.0</ele><time>2026-05-02T17:59:06.866Z</time></trkpt><trkpt lat="42.34407" lon="13.434785"><ele>692.0</ele><time>2026-05-02T17:59:07.866Z</time></trkpt><trkpt lat="42.3440317" lon="13.4350617"><ele>692.6666666666666</ele><time>2026-05-02T17:59:08.866Z</time></trkpt><trkpt lat="42.3440017" lon="13.4353433"><ele>693.3333333333334</ele><time>2026-05-02T17:59:09.866Z</time></trkpt><trkpt lat="42.3439767" lon="13.4356233"><ele>694.0</ele><time>2026-05-02T17:59:10.865Z</time></trkpt><trkpt lat="42.3439483" lon="13.4358983"><ele>695.0</ele><time>2026-05-02T17:59:11.866Z</time></trkpt><trkpt lat="42.343915" lon="13.43617"><ele>696.0</ele><time>2026-05-02T17:59:12.866Z</time></trkpt><trkpt lat="42.34386" lon="13.4364333"><ele>697.0</ele><time>2026-05-02T17:59:13.865Z</time></trkpt><trkpt lat="42.3437817" lon="13.4367017"><ele>689.6666666666667</ele><time>2026-05-02T17:59:14.865Z</time></trkpt><trkpt lat="42.3436817" lon="13.4369667"><ele>682.3333333333334</ele><time>2026-05-02T17:59:15.865Z</time></trkpt><trkpt lat="42.343565" lon="13.43722"><ele>675.0</ele><time>2026-05-02T17:59:16.865Z</time></trkpt><trkpt lat="42.343425" lon="13.4374533"><ele>675.0</ele><time>2026-05-02T17:59:17.866Z</time></trkpt><trkpt lat="42.3432767" lon="13.43766"><ele>675.0</ele><time>2026-05-02T17:59:18.865Z</time></trkpt><trkpt lat="42.343105" lon="13.4378433"><ele>675.0</ele><time>2026-05-02T17:59:19.866Z</time></trkpt><trkpt lat="42.3429317" lon="13.4380133"><ele>674.0</ele><time>2026-05-02T17:59:20.866Z</time></trkpt><trkpt lat="42.3427417" lon="13.4381533"><ele>673.0</ele><time>2026-05-02T17:59:21.866Z</time></trkpt><trkpt lat="42.3425433" lon="13.438265"><ele>672.0</ele><time>2026-05-02T17:59:22.866Z</time></trkpt><trkpt lat="42.342335" lon="13.43835"><ele>669.6666666666666</ele><time>2026-05-02T17:59:23.865Z</time></trkpt><trkpt lat="42.3421267" lon="13.4384167"><ele>667.3333333333333</ele><time>2026-05-02T17:59:24.865Z</time></trkpt><trkpt lat="42.3419167" lon="13.4384717"><ele>665.0</ele><time>2026-05-02T17:59:25.865Z</time></trkpt><trkpt lat="42.34171" lon="13.4385233"><ele>665.0</ele><time>2026-05-02T17:59:26.866Z</time></trkpt><trkpt lat="42.34151" lon="13.4385667"><ele>665.0</ele><time>2026-05-02T17:59:27.865Z</time></trkpt><trkpt lat="42.3413083" lon="13.43862"><ele>665.0</ele><time>2026-05-02T17:59:28.866Z</time></trkpt><trkpt lat="42.3411133" lon="13.4386767"><ele>665.0</ele><time>2026-05-02T17:59:29.865Z</time></trkpt><trkpt lat="42.340915" lon="13.4387417"><ele>665.0</ele><time>2026-05-02T17:59:30.865Z</time></trkpt><trkpt lat="42.340725" lon="13.4388283"><ele>665.0</ele><time>2026-05-02T17:59:31.865Z</time></trkpt><trkpt lat="42.3405383" lon="13.4389333"><ele>661.6666666666666</ele><time>2026-05-02T17:59:32.865Z</time></trkpt><trkpt lat="42.3403617" lon="13.4390517"><ele>658.3333333333334</ele><time>2026-05-02T17:59:33.866Z</time></trkpt><trkpt lat="42.3401933" lon="13.43918"><ele>655.0</ele><time>2026-05-02T17:59:34.865Z</time></trkpt><trkpt lat="42.3400333" lon="13.439325"><ele>655.0</ele><time>2026-05-02T17:59:35.866Z</time></trkpt><trkpt lat="42.339885" lon="13.4395"><ele>655.0</ele><time>2026-05-02T17:59:36.865Z</time></trkpt><trkpt lat="42.3397367" lon="13.43969"><ele>655.0</ele><time>2026-05-02T17:59:37.866Z</time></trkpt><trkpt lat="42.3396033" lon="13.4399017"><ele>654.6666666666667</ele><time>2026-05-02T17:59:38.866Z</time></trkpt><trkpt lat="42.3394833" lon="13.4401233"><ele>654.3333333333334</ele><time>2026-05-02T17:59:39.865Z</time></trkpt><trkpt lat="42.33937" lon="13.440355"><ele>654.0</ele><time>2026-05-02T17:59:40.865Z</time></trkpt><trkpt lat="42.33926" lon="13.4405967"><ele>654.0</ele><time>2026-05-02T17:59:41.865Z</time></trkpt><trkpt lat="42.3391517" lon="13.440855"><ele>654.0</ele><time>2026-05-02T17:59:42.866Z</time></trkpt><trkpt lat="42.339065" lon="13.4411167"><ele>654.0</ele><time>2026-05-02T17:59:43.865Z</time></trkpt><trkpt lat="42.33899" lon="13.441385"><ele>652.6666666666666</ele><time>2026-05-02T17:59:44.865Z</time></trkpt><trkpt lat="42.33892" lon="13.441655"><ele>651.3333333333333</ele><time>2026-05-02T17:59:45.865Z</time></trkpt><trkpt lat="42.33884" lon="13.44193"><ele>650.0</ele><time>2026-05-02T17:59:46.865Z</time></trkpt><trkpt lat="42.3387583" lon="13.4421983"><ele>645.6666666666666</ele><time>2026-05-02T17:59:47.865Z</time></trkpt><trkpt lat="42.3386833" lon="13.4424583"><ele>641.3333333333334</ele><time>2026-05-02T17:59:48.865Z</time></trkpt><trkpt lat="42.3386083" lon="13.4427167"><ele>637.0</ele><time>2026-05-02T17:59:49.865Z</time></trkpt><trkpt lat="42.3385367" lon="13.44297"><ele>637.0</ele><time>2026-05-02T17:59:50.865Z</time></trkpt><trkpt lat="42.3384633" lon="13.4432233"><ele>637.0</ele><time>2026-05-02T17:59:51.865Z</time></trkpt><trkpt lat="42.33839" lon="13.4434733"><ele>637.0</ele><time>2026-05-02T17:59:52.866Z</time></trkpt><trkpt lat="42.3383183" lon="13.44372"><ele>638.3333333333334</ele><time>2026-05-02T17:59:53.865Z</time></trkpt><trkpt lat="42.3382533" lon="13.4439617"><ele>639.6666666666666</ele><time>2026-05-02T17:59:54.865Z</time></trkpt><trkpt lat="42.3381933" lon="13.44419"><ele>641.0</ele><time>2026-05-02T17:59:55.865Z</time></trkpt><trkpt lat="42.3381283" lon="13.4444333"><ele>640.0</ele><time>2026-05-02T17:59:56.865Z</time></trkpt><trkpt lat="42.338055" lon="13.4446633"><ele>639.0</ele><time>2026-05-02T17:59:57.865Z</time></trkpt><trkpt lat="42.3379933" lon="13.4449017"><ele>638.0</ele><time>2026-05-02T17:59:58.865Z</time></trkpt><trkpt lat="42.3379267" lon="13.44514"><ele>634.3333333333333</ele><time>2026-05-02T17:59:59.865Z</time></trkpt><trkpt lat="42.33787" lon="13.4453717"><ele>630.6666666666666</ele><time>2026-05-02T18:00:00.865Z</time></trkpt><trkpt lat="42.3378167" lon="13.445595"><ele>627.0</ele><time>2026-05-02T18:00:01.865Z</time></trkpt><trkpt lat="42.3377683" lon="13.445825"><ele>626.0</ele><time>2026-05-02T18:00:02.865Z</time></trkpt><trkpt lat="42.3377083" lon="13.4460617"><ele>625.0</ele><time>2026-05-02T18:00:03.866Z</time></trkpt><trkpt lat="42.337645" lon="13.4463017"><ele>624.0</ele><time>2026-05-02T18:00:04.865Z</time></trkpt><trkpt lat="42.3375933" lon="13.4465317"><ele>623.6666666666666</ele><time>2026-05-02T18:00:05.865Z</time></trkpt><trkpt lat="42.3375417" lon="13.4467433"><ele>623.3333333333333</ele><time>2026-05-02T18:00:06.865Z</time></trkpt><trkpt lat="42.3374983" lon="13.4469367"><ele>623.0</ele><time>2026-05-02T18:00:07.866Z</time></trkpt><trkpt lat="42.3374517" lon="13.4471133"><ele>623.0</ele><time>2026-05-02T18:00:08.865Z</time></trkpt><trkpt lat="42.3374033" lon="13.44727"><ele>623.0</ele><time>2026-05-02T18:00:09.866Z</time></trkpt><trkpt lat="42.3373483" lon="13.4474133"><ele>623.0</ele><time>2026-05-02T18:00:10.866Z</time></trkpt><trkpt lat="42.3372983" lon="13.4475383"><ele>623.0</ele><time>2026-05-02T18:00:11.866Z</time></trkpt><trkpt lat="42.3372633" lon="13.447665"><ele>623.0</ele><time>2026-05-02T18:00:12.865Z</time></trkpt><trkpt lat="42.3372533" lon="13.4478"><ele>623.0</ele><time>2026-05-02T18:00:13.865Z</time></trkpt><trkpt lat="42.337265" lon="13.4479583"><ele>623.0</ele><time>2026-05-02T18:00:14.866Z</time></trkpt><trkpt lat="42.33727" lon="13.44813"><ele>623.0</ele><time>2026-05-02T18:00:15.865Z</time></trkpt><trkpt lat="42.3372583" lon="13.448315"><ele>623.0</ele><time>2026-05-02T18:00:16.865Z</time></trkpt><trkpt lat="42.3372267" lon="13.4485167"><ele>623.0</ele><time>2026-05-02T18:00:17.865Z</time></trkpt><trkpt lat="42.3371833" lon="13.4487267"><ele>623.0</ele><time>2026-05-02T18:00:18.866Z</time></trkpt><trkpt lat="42.337135" lon="13.4489483"><ele>617.6666666666666</ele><time>2026-05-02T18:00:19.866Z</time></trkpt><trkpt lat="42.337085" lon="13.4491833"><ele>612.3333333333334</ele><time>2026-05-02T18:00:20.866Z</time></trkpt><trkpt lat="42.3370333" lon="13.44942"><ele>607.0</ele><time>2026-05-02T18:00:21.865Z</time></trkpt><trkpt lat="42.3369833" lon="13.44965"><ele>607.0</ele><time>2026-05-02T18:00:22.865Z</time></trkpt><trkpt lat="42.3369317" lon="13.44987"><ele>607.0</ele><time>2026-05-02T18:00:23.866Z</time></trkpt><trkpt lat="42.336885" lon="13.4500767"><ele>607.0</ele><time>2026-05-02T18:00:24.866Z</time></trkpt><trkpt lat="42.336845" lon="13.450265"><ele>607.0</ele><time>2026-05-02T18:00:25.866Z</time></trkpt><trkpt lat="42.3368083" lon="13.4504317"><ele>607.0</ele><time>2026-05-02T18:00:26.865Z</time></trkpt><trkpt lat="42.3367733" lon="13.4505817"><ele>607.0</ele><time>2026-05-02T18:00:27.866Z</time></trkpt><trkpt lat="42.3367383" lon="13.4507117"><ele>607.0</ele><time>2026-05-02T18:00:28.865Z</time></trkpt><trkpt lat="42.33669" lon="13.450825"><ele>607.0</ele><time>2026-05-02T18:00:29.866Z</time></trkpt><trkpt lat="42.3366317" lon="13.4509217"><ele>606.6666666666667</ele><time>2026-05-02T18:00:30.865Z</time></trkpt><trkpt lat="42.33656" lon="13.4509917"><ele>606.3333333333334</ele><time>2026-05-02T18:00:31.865Z</time></trkpt><trkpt lat="42.3364783" lon="13.4510467"><ele>606.0</ele><time>2026-05-02T18:00:32.866Z</time></trkpt><trkpt lat="42.336405" lon="13.451105"><ele>605.6666666666666</ele><time>2026-05-02T18:00:33.866Z</time></trkpt><trkpt lat="42.3363517" lon="13.4511817"><ele>605.3333333333333</ele><time>2026-05-02T18:00:34.865Z</time></trkpt><trkpt lat="42.3363217" lon="13.45128"><ele>605.0</ele><time>2026-05-02T18:00:35.865Z</time></trkpt><trkpt lat="42.3363167" lon="13.451385"><ele>604.6</ele><time>2026-05-02T18:00:36.866Z</time></trkpt><trkpt lat="42.336345" lon="13.4515"><ele>604.2</ele><time>2026-05-02T18:00:37.866Z</time></trkpt><trkpt lat="42.3363967" lon="13.45162"><ele>603.8</ele><time>2026-05-02T18:00:38.865Z</time></trkpt><trkpt lat="42.3364517" lon="13.451755"><ele>603.4</ele><time>2026-05-02T18:00:39.866Z</time></trkpt><trkpt lat="42.3365067" lon="13.45193"><ele>603.0</ele><time>2026-05-02T18:00:40.865Z</time></trkpt><trkpt lat="42.3365517" lon="13.4521183"><ele>603.0</ele><time>2026-05-02T18:00:41.865Z</time></trkpt><trkpt lat="42.3365883" lon="13.4523117"><ele>603.0</ele><time>2026-05-02T18:00:42.866Z</time></trkpt><trkpt lat="42.3366317" lon="13.4525183"><ele>603.0</ele><time>2026-05-02T18:00:43.866Z</time></trkpt><trkpt lat="42.3366817" lon="13.4527267"><ele>603.0</ele><time>2026-05-02T18:00:44.865Z</time></trkpt><trkpt lat="42.3367283" lon="13.45293"><ele>603.0</ele><time>2026-05-02T18:00:45.866Z</time></trkpt><trkpt lat="42.3367767" lon="13.4531367"><ele>603.0</ele><time>2026-05-02T18:00:46.866Z</time></trkpt><trkpt lat="42.3368183" lon="13.45334"><ele>602.3333333333334</ele><time>2026-05-02T18:00:47.865Z</time></trkpt><trkpt lat="42.3368617" lon="13.4535417"><ele>601.6666666666667</ele><time>2026-05-02T18:00:48.865Z</time></trkpt><trkpt lat="42.3369083" lon="13.453745"><ele>601.0</ele><time>2026-05-02T18:00:49.865Z</time></trkpt><trkpt lat="42.336955" lon="13.45394"><ele>600.3333333333334</ele><time>2026-05-02T18:00:50.865Z</time></trkpt><trkpt lat="42.3370033" lon="13.45414"><ele>599.6666666666666</ele><time>2026-05-02T18:00:51.865Z</time></trkpt><trkpt lat="42.3370467" lon="13.4543483"><ele>599.0</ele><time>2026-05-02T18:00:52.866Z</time></trkpt><trkpt lat="42.337095" lon="13.454545"><ele>598.25</ele><time>2026-05-02T18:00:53.865Z</time></trkpt><trkpt lat="42.33714" lon="13.4547367"><ele>597.5</ele><time>2026-05-02T18:00:54.866Z</time></trkpt><trkpt lat="42.3371733" lon="13.4548983"><ele>596.75</ele><time>2026-05-02T18:00:55.865Z</time></trkpt><trkpt lat="42.337205" lon="13.4550467"><ele>596.0</ele><time>2026-05-02T18:00:56.866Z</time></trkpt><trkpt lat="42.3372317" lon="13.45521"><ele>597.0</ele><time>2026-05-02T18:00:57.865Z</time></trkpt><trkpt lat="42.3372583" lon="13.455375"><ele>598.0</ele><time>2026-05-02T18:00:58.865Z</time></trkpt><trkpt lat="42.3372817" lon="13.4555533"><ele>599.0</ele><time>2026-05-02T18:00:59.865Z</time></trkpt><trkpt lat="42.3373017" lon="13.45573"><ele>600.0</ele><time>2026-05-02T18:01:00.865Z</time></trkpt><trkpt lat="42.33731" lon="13.455915"><ele>600.0</ele><time>2026-05-02T18:01:01.865Z</time></trkpt><trkpt lat="42.3373033" lon="13.4561083"><ele>600.0</ele><time>2026-05-02T18:01:02.865Z</time></trkpt><trkpt lat="42.33729" lon="13.4563017"><ele>600.0</ele><time>2026-05-02T18:01:03.865Z</time></trkpt><trkpt lat="42.33727" lon="13.4564883"><ele>600.0</ele><time>2026-05-02T18:01:04.865Z</time></trkpt><trkpt lat="42.337245" lon="13.45667"><ele>599.0</ele><time>2026-05-02T18:01:05.865Z</time></trkpt><trkpt lat="42.3372083" lon="13.4568367"><ele>598.0</ele><time>2026-05-02T18:01:06.866Z</time></trkpt><trkpt lat="42.3371633" lon="13.456985"><ele>597.0</ele><time>2026-05-02T18:01:07.865Z</time></trkpt><trkpt lat="42.337105" lon="13.4571117"><ele>596.0</ele><time>2026-05-02T18:01:08.865Z</time></trkpt><trkpt lat="42.3370467" lon="13.4572167"><ele>596.0</ele><time>2026-05-02T18:01:09.866Z</time></trkpt><trkpt lat="42.336985" lon="13.4573"><ele>596.0</ele><time>2026-05-02T18:01:10.865Z</time></trkpt><trkpt lat="42.336935" lon="13.4573883"><ele>596.0</ele><time>2026-05-02T18:01:11.865Z</time></trkpt><trkpt lat="42.33691" lon="13.45749"><ele>596.0</ele><time>2026-05-02T18:01:12.866Z</time></trkpt><trkpt lat="42.3369" lon="13.4576033"><ele>596.0</ele><time>2026-05-02T18:01:13.865Z</time></trkpt><trkpt lat="42.336915" lon="13.4577433"><ele>596.0</ele><time>2026-05-02T18:01:14.866Z</time></trkpt><trkpt lat="42.3369183" lon="13.4578933"><ele>595.75</ele><time>2026-05-02T18:01:15.865Z</time></trkpt><trkpt lat="42.3368917" lon="13.4580567"><ele>595.5</ele><time>2026-05-02T18:01:16.865Z</time></trkpt><trkpt lat="42.3368417" lon="13.4582317"><ele>595.25</ele><time>2026-05-02T18:01:17.866Z</time></trkpt><trkpt lat="42.3367917" lon="13.45842"><ele>595.0</ele><time>2026-05-02T18:01:18.865Z</time></trkpt><trkpt lat="42.3367383" lon="13.4586033"><ele>595.0</ele><time>2026-05-02T18:01:19.865Z</time></trkpt><trkpt lat="42.336685" lon="13.4587983"><ele>595.0</ele><time>2026-05-02T18:01:20.865Z</time></trkpt><trkpt lat="42.33663" lon="13.4590067"><ele>595.0</ele><time>2026-05-02T18:01:21.865Z</time></trkpt><trkpt lat="42.33657" lon="13.4592167"><ele>595.0</ele><time>2026-05-02T18:01:22.866Z</time></trkpt><trkpt lat="42.33651" lon="13.4594317"><ele>595.0</ele><time>2026-05-02T18:01:23.866Z</time></trkpt><trkpt lat="42.3364567" lon="13.45964"><ele>595.0</ele><time>2026-05-02T18:01:24.865Z</time></trkpt><trkpt lat="42.3363967" lon="13.45985"><ele>594.6666666666667</ele><time>2026-05-02T18:01:25.866Z</time></trkpt><trkpt lat="42.33634" lon="13.4600683"><ele>594.3333333333334</ele><time>2026-05-02T18:01:26.865Z</time></trkpt><trkpt lat="42.3362767" lon="13.4602883"><ele>594.0</ele><time>2026-05-02T18:01:27.865Z</time></trkpt><trkpt lat="42.3362183" lon="13.460515"><ele>594.0</ele><time>2026-05-02T18:01:28.865Z</time></trkpt><trkpt lat="42.33616" lon="13.4607367"><ele>594.0</ele><time>2026-05-02T18:01:29.865Z</time></trkpt><trkpt lat="42.336095" lon="13.4609617"><ele>594.0</ele><time>2026-05-02T18:01:30.866Z</time></trkpt><trkpt lat="42.3360283" lon="13.461185"><ele>594.0</ele><time>2026-05-02T18:01:31.865Z</time></trkpt><trkpt lat="42.3359633" lon="13.4614117"><ele>594.0</ele><time>2026-05-02T18:01:32.865Z</time></trkpt><trkpt lat="42.3359" lon="13.461635"><ele>594.0</ele><time>2026-05-02T18:01:33.865Z</time></trkpt><trkpt lat="42.335835" lon="13.46186"><ele>594.0</ele><time>2026-05-02T18:01:34.866Z</time></trkpt><trkpt lat="42.3357667" lon="13.46209"><ele>594.0</ele><time>2026-05-02T18:01:35.865Z</time></trkpt><trkpt lat="42.3357017" lon="13.4623167"><ele>594.0</ele><time>2026-05-02T18:01:36.865Z</time></trkpt><trkpt lat="42.335645" lon="13.4625433"><ele>594.0</ele><time>2026-05-02T18:01:37.866Z</time></trkpt><trkpt lat="42.3355883" lon="13.4627717"><ele>594.0</ele><time>2026-05-02T18:01:38.865Z</time></trkpt><trkpt lat="42.33553" lon="13.463"><ele>594.0</ele><time>2026-05-02T18:01:39.865Z</time></trkpt><trkpt lat="42.3354717" lon="13.463225"><ele>594.0</ele><time>2026-05-02T18:01:40.865Z</time></trkpt><trkpt lat="42.3354067" lon="13.46345"><ele>594.0</ele><time>2026-05-02T18:01:41.866Z</time></trkpt><trkpt lat="42.3353417" lon="13.4636717"><ele>594.0</ele><time>2026-05-02T18:01:42.866Z</time></trkpt><trkpt lat="42.3352817" lon="13.463875"><ele>594.3333333333334</ele><time>2026-05-02T18:01:43.865Z</time></trkpt><trkpt lat="42.3352167" lon="13.4640883"><ele>594.6666666666667</ele><time>2026-05-02T18:01:44.866Z</time></trkpt><trkpt lat="42.33515" lon="13.464305"><ele>595.0</ele><time>2026-05-02T18:01:45.865Z</time></trkpt><trkpt lat="42.3350917" lon="13.4645183"><ele>594.6666666666667</ele><time>2026-05-02T18:01:46.866Z</time></trkpt><trkpt lat="42.33503" lon="13.4647383"><ele>594.3333333333334</ele><time>2026-05-02T18:01:47.865Z</time></trkpt><trkpt lat="42.3349667" lon="13.4649583"><ele>594.0</ele><time>2026-05-02T18:01:48.866Z</time></trkpt><trkpt lat="42.3349117" lon="13.46519"><ele>594.0</ele><time>2026-05-02T18:01:49.865Z</time></trkpt><trkpt lat="42.3348483" lon="13.4654033"><ele>594.0</ele><time>2026-05-02T18:01:50.865Z</time></trkpt><trkpt lat="42.3347917" lon="13.4656233"><ele>594.0</ele><time>2026-05-02T18:01:51.866Z</time></trkpt><trkpt lat="42.33473" lon="13.4658317"><ele>593.3333333333334</ele><time>2026-05-02T18:01:52.866Z</time></trkpt><trkpt lat="42.3346733" lon="13.466035"><ele>592.6666666666667</ele><time>2026-05-02T18:01:53.865Z</time></trkpt><trkpt lat="42.33462" lon="13.466235"><ele>592.0</ele><time>2026-05-02T18:01:54.866Z</time></trkpt><trkpt lat="42.33457" lon="13.4664317"><ele>592.0</ele><time>2026-05-02T18:01:55.865Z</time></trkpt><trkpt lat="42.33452" lon="13.4666233"><ele>592.0</ele><time>2026-05-02T18:01:56.865Z</time></trkpt><trkpt lat="42.3344667" lon="13.4668033"><ele>592.0</ele><time>2026-05-02T18:01:57.865Z</time></trkpt><trkpt lat="42.3344167" lon="13.46696"><ele>592.0</ele><time>2026-05-02T18:01:58.866Z</time></trkpt><trkpt lat="42.3343717" lon="13.4671"><ele>591.8000000000001</ele><time>2026-05-02T18:01:59.866Z</time></trkpt><trkpt lat="42.334335" lon="13.4672333"><ele>591.6</ele><time>2026-05-02T18:02:00.865Z</time></trkpt><trkpt lat="42.3342967" lon="13.4673633"><ele>591.4000000000001</ele><time>2026-05-02T18:02:01.866Z</time></trkpt><trkpt lat="42.3342583" lon="13.467495"><ele>591.2</ele><time>2026-05-02T18:02:02.865Z</time></trkpt><trkpt lat="42.3342117" lon="13.46764"><ele>591.0</ele><time>2026-05-02T18:02:03.866Z</time></trkpt><trkpt lat="42.3341683" lon="13.4678"><ele>591.5</ele><time>2026-05-02T18:02:04.866Z</time></trkpt><trkpt lat="42.334125" lon="13.4679667"><ele>592.0</ele><time>2026-05-02T18:02:05.866Z</time></trkpt><trkpt lat="42.3340783" lon="13.46814"><ele>592.5</ele><time>2026-05-02T18:02:06.865Z</time></trkpt><trkpt lat="42.3340283" lon="13.4683217"><ele>593.0</ele><time>2026-05-02T18:02:07.866Z</time></trkpt><trkpt lat="42.3339767" lon="13.4685033"><ele>593.0</ele><time>2026-05-02T18:02:08.865Z</time></trkpt><trkpt lat="42.33392" lon="13.4687"><ele>593.0</ele><time>2026-05-02T18:02:09.865Z</time></trkpt><trkpt lat="42.3338683" lon="13.4688867"><ele>593.0</ele><time>2026-05-02T18:02:10.865Z</time></trkpt><trkpt lat="42.3338183" lon="13.4690733"><ele>592.5</ele><time>2026-05-02T18:02:11.865Z</time></trkpt><trkpt lat="42.3337633" lon="13.4692533"><ele>592.0</ele><time>2026-05-02T18:02:12.865Z</time></trkpt><trkpt lat="42.3337083" lon="13.4694317"><ele>591.5</ele><time>2026-05-02T18:02:13.866Z</time></trkpt><trkpt lat="42.3336533" lon="13.4696167"><ele>591.0</ele><time>2026-05-02T18:02:14.866Z</time></trkpt><trkpt lat="42.33361" lon="13.4697933"><ele>591.0</ele><time>2026-05-02T18:02:15.865Z</time></trkpt><trkpt lat="42.3335683" lon="13.46996"><ele>591.0</ele><time>2026-05-02T18:02:16.865Z</time></trkpt><trkpt lat="42.333535" lon="13.4701317"><ele>591.0</ele><time>2026-05-02T18:02:17.865Z</time></trkpt><trkpt lat="42.3335067" lon="13.4702933"><ele>591.0</ele><time>2026-05-02T18:02:18.866Z</time></trkpt><trkpt lat="42.333485" lon="13.47044"><ele>591.25</ele><time>2026-05-02T18:02:19.865Z</time></trkpt><trkpt lat="42.3334733" lon="13.4705817"><ele>591.5</ele><time>2026-05-02T18:02:20.865Z</time></trkpt><trkpt lat="42.3334467" lon="13.4707367"><ele>591.75</ele><time>2026-05-02T18:02:21.866Z</time></trkpt><trkpt lat="42.3334167" lon="13.4708917"><ele>592.0</ele><time>2026-05-02T18:02:22.865Z</time></trkpt><trkpt lat="42.3333717" lon="13.4710583"><ele>592.0</ele><time>2026-05-02T18:02:23.866Z</time></trkpt><trkpt lat="42.3333267" lon="13.47123"><ele>592.0</ele><time>2026-05-02T18:02:24.866Z</time></trkpt><trkpt lat="42.3332683" lon="13.4714117"><ele>592.0</ele><time>2026-05-02T18:02:25.865Z</time></trkpt><trkpt lat="42.33321" lon="13.471595"><ele>592.0</ele><time>2026-05-02T18:02:26.866Z</time></trkpt><trkpt lat="42.3331467" lon="13.4717867"><ele>591.6666666666667</ele><time>2026-05-02T18:02:27.866Z</time></trkpt><trkpt lat="42.3330817" lon="13.4719817"><ele>591.3333333333334</ele><time>2026-05-02T18:02:28.866Z</time></trkpt><trkpt lat="42.3330217" lon="13.472185"><ele>591.0</ele><time>2026-05-02T18:02:29.865Z</time></trkpt><trkpt lat="42.3329683" lon="13.4723933"><ele>591.0</ele><time>2026-05-02T18:02:30.866Z</time></trkpt><trkpt lat="42.3329083" lon="13.4726133"><ele>591.0</ele><time>2026-05-02T18:02:31.865Z</time></trkpt><trkpt lat="42.3328483" lon="13.47284"><ele>591.0</ele><time>2026-05-02T18:02:32.866Z</time></trkpt><trkpt lat="42.3327883" lon="13.4730717"><ele>591.6666666666666</ele><time>2026-05-02T18:02:33.865Z</time></trkpt><trkpt lat="42.3327267" lon="13.4733033"><ele>592.3333333333333</ele><time>2026-05-02T18:02:34.865Z</time></trkpt><trkpt lat="42.332665" lon="13.4735367"><ele>593.0</ele><time>2026-05-02T18:02:35.865Z</time></trkpt><trkpt lat="42.3326017" lon="13.4737783"><ele>593.3333333333333</ele><time>2026-05-02T18:02:36.865Z</time></trkpt><trkpt lat="42.3325383" lon="13.4740167"><ele>593.6666666666666</ele><time>2026-05-02T18:02:37.865Z</time></trkpt><trkpt lat="42.332475" lon="13.4742567"><ele>594.0</ele><time>2026-05-02T18:02:38.865Z</time></trkpt><trkpt lat="42.3324083" lon="13.4744983"><ele>593.3333333333334</ele><time>2026-05-02T18:02:39.865Z</time></trkpt><trkpt lat="42.3323467" lon="13.4747333"><ele>592.6666666666667</ele><time>2026-05-02T18:02:40.866Z</time></trkpt><trkpt lat="42.3322833" lon="13.4749717"><ele>592.0</ele><time>2026-05-02T18:02:41.866Z</time></trkpt><trkpt lat="42.3322233" lon="13.4752017"><ele>592.0</ele><time>2026-05-02T18:02:42.866Z</time></trkpt><trkpt lat="42.3321583" lon="13.4754417"><ele>592.0</ele><time>2026-05-02T18:02:43.866Z</time></trkpt><trkpt lat="42.3320933" lon="13.47568"><ele>592.0</ele><time>2026-05-02T18:02:44.865Z</time></trkpt><trkpt lat="42.3320367" lon="13.4759067"><ele>592.0</ele><time>2026-05-02T18:02:45.865Z</time></trkpt><trkpt lat="42.3319767" lon="13.476135"><ele>592.0</ele><time>2026-05-02T18:02:46.865Z</time></trkpt><trkpt lat="42.331915" lon="13.476365"><ele>592.0</ele><time>2026-05-02T18:02:47.866Z</time></trkpt><trkpt lat="42.3318483" lon="13.4766067"><ele>592.0</ele><time>2026-05-02T18:02:48.865Z</time></trkpt><trkpt lat="42.331795" lon="13.4768317"><ele>592.0</ele><time>2026-05-02T18:02:49.866Z</time></trkpt><trkpt lat="42.3317283" lon="13.4770433"><ele>592.0</ele><time>2026-05-02T18:02:50.866Z</time></trkpt><trkpt lat="42.3316717" lon="13.47725"><ele>592.0</ele><time>2026-05-02T18:02:51.865Z</time></trkpt><trkpt lat="42.3316083" lon="13.4774517"><ele>592.0</ele><time>2026-05-02T18:02:52.865Z</time></trkpt><trkpt lat="42.3315433" lon="13.47765"><ele>592.0</ele><time>2026-05-02T18:02:53.865Z</time></trkpt><trkpt lat="42.331485" lon="13.4778317"><ele>591.5</ele><time>2026-05-02T18:02:54.865Z</time></trkpt><trkpt lat="42.3314383" lon="13.4780017"><ele>591.0</ele><time>2026-05-02T18:02:55.865Z</time></trkpt><trkpt lat="42.3313933" lon="13.4781633"><ele>590.5</ele><time>2026-05-02T18:02:56.866Z</time></trkpt><trkpt lat="42.3313517" lon="13.4783167"><ele>590.0</ele><time>2026-05-02T18:02:57.866Z</time></trkpt><trkpt lat="42.3313117" lon="13.478445"><ele>589.8333333333333</ele><time>2026-05-02T18:02:58.865Z</time></trkpt><trkpt lat="42.3312667" lon="13.478565"><ele>589.6666666666666</ele><time>2026-05-02T18:02:59.865Z</time></trkpt><trkpt lat="42.33121" lon="13.4786683"><ele>589.5</ele><time>2026-05-02T18:03:00.865Z</time></trkpt><trkpt lat="42.3311567" lon="13.478745"><ele>589.3333333333334</ele><time>2026-05-02T18:03:01.866Z</time></trkpt><trkpt lat="42.3311033" lon="13.47882"><ele>589.1666666666667</ele><time>2026-05-02T18:03:02.866Z</time></trkpt><trkpt lat="42.3310667" lon="13.4789017"><ele>589.0</ele><time>2026-05-02T18:03:03.865Z</time></trkpt><trkpt lat="42.3310583" lon="13.4790017"><ele>589.0</ele><time>2026-05-02T18:03:04.865Z</time></trkpt><trkpt lat="42.3310667" lon="13.4791117"><ele>589.0</ele><time>2026-05-02T18:03:05.866Z</time></trkpt><trkpt lat="42.3310667" lon="13.4792433"><ele>589.0</ele><time>2026-05-02T18:03:06.866Z</time></trkpt><trkpt lat="42.3310467" lon="13.4793717"><ele>589.0</ele><time>2026-05-02T18:03:07.866Z</time></trkpt><trkpt lat="42.3310067" lon="13.4795167"><ele>589.0</ele><time>2026-05-02T18:03:08.865Z</time></trkpt><trkpt lat="42.330955" lon="13.4796767"><ele>588.75</ele><time>2026-05-02T18:03:09.866Z</time></trkpt><trkpt lat="42.3309017" lon="13.4798467"><ele>588.5</ele><time>2026-05-02T18:03:10.865Z</time></trkpt><trkpt lat="42.33085" lon="13.4800183"><ele>588.25</ele><time>2026-05-02T18:03:11.866Z</time></trkpt><trkpt lat="42.3307917" lon="13.4802067"><ele>588.0</ele><time>2026-05-02T18:03:12.865Z</time></trkpt><trkpt lat="42.3307317" lon="13.480395"><ele>587.6666666666666</ele><time>2026-05-02T18:03:13.866Z</time></trkpt><trkpt lat="42.3306717" lon="13.480605"><ele>587.3333333333333</ele><time>2026-05-02T18:03:14.865Z</time></trkpt><trkpt lat="42.330605" lon="13.4808317"><ele>587.0</ele><time>2026-05-02T18:03:15.866Z</time></trkpt><trkpt lat="42.3305333" lon="13.48106"><ele>585.6666666666666</ele><time>2026-05-02T18:03:16.865Z</time></trkpt><trkpt lat="42.3304683" lon="13.4812883"><ele>584.3333333333334</ele><time>2026-05-02T18:03:17.865Z</time></trkpt><trkpt lat="42.3303983" lon="13.4815233"><ele>583.0</ele><time>2026-05-02T18:03:18.865Z</time></trkpt><trkpt lat="42.33033" lon="13.4817767"><ele>583.0</ele><time>2026-05-02T18:03:19.866Z</time></trkpt><trkpt lat="42.3302583" lon="13.4820283"><ele>583.0</ele><time>2026-05-02T18:03:20.865Z</time></trkpt><trkpt lat="42.3301883" lon="13.482275"><ele>583.0</ele><time>2026-05-02T18:03:21.866Z</time></trkpt><trkpt lat="42.3301067" lon="13.4825267"><ele>583.0</ele><time>2026-05-02T18:03:22.865Z</time></trkpt><trkpt lat="42.3300283" lon="13.4827783"><ele>583.0</ele><time>2026-05-02T18:03:23.866Z</time></trkpt><trkpt lat="42.3299533" lon="13.4830217"><ele>583.0</ele><time>2026-05-02T18:03:24.866Z</time></trkpt><trkpt lat="42.32988" lon="13.4832717"><ele>583.0</ele><time>2026-05-02T18:03:25.866Z</time></trkpt><trkpt lat="42.3297983" lon="13.48353"><ele>583.0</ele><time>2026-05-02T18:03:26.865Z</time></trkpt><trkpt lat="42.3297167" lon="13.4837783"><ele>583.0</ele><time>2026-05-02T18:03:27.866Z</time></trkpt><trkpt lat="42.329645" lon="13.4840233"><ele>582.3333333333334</ele><time>2026-05-02T18:03:28.866Z</time></trkpt><trkpt lat="42.3295733" lon="13.4842717"><ele>581.6666666666666</ele><time>2026-05-02T18:03:29.866Z</time></trkpt><trkpt lat="42.3295033" lon="13.4845317"><ele>581.0</ele><time>2026-05-02T18:03:30.866Z</time></trkpt><trkpt lat="42.3294233" lon="13.4847933"><ele>581.0</ele><time>2026-05-02T18:03:31.865Z</time></trkpt><trkpt lat="42.32934" lon="13.4850733"><ele>581.0</ele><time>2026-05-02T18:03:32.865Z</time></trkpt><trkpt lat="42.3292583" lon="13.48535"><ele>581.0</ele><time>2026-05-02T18:03:33.865Z</time></trkpt><trkpt lat="42.3291817" lon="13.4856183"><ele>581.0</ele><time>2026-05-02T18:03:34.866Z</time></trkpt><trkpt lat="42.3291133" lon="13.4858683"><ele>581.0</ele><time>2026-05-02T18:03:35.865Z</time></trkpt><trkpt lat="42.32904" lon="13.48611"><ele>581.0</ele><time>2026-05-02T18:03:36.865Z</time></trkpt><trkpt lat="42.3289667" lon="13.4863467"><ele>580.3333333333333</ele><time>2026-05-02T18:03:37.866Z</time></trkpt><trkpt lat="42.3288883" lon="13.48659"><ele>579.6666666666666</ele><time>2026-05-02T18:03:38.866Z</time></trkpt><trkpt lat="42.3288133" lon="13.4868383"><ele>579.0</ele><time>2026-05-02T18:03:39.865Z</time></trkpt><trkpt lat="42.32874" lon="13.487085"><ele>578.6666666666666</ele><time>2026-05-02T18:03:40.865Z</time></trkpt><trkpt lat="42.32867" lon="13.4873333"><ele>578.3333333333333</ele><time>2026-05-02T18:03:41.865Z</time></trkpt><trkpt lat="42.3285933" lon="13.4875783"><ele>578.0</ele><time>2026-05-02T18:03:42.865Z</time></trkpt><trkpt lat="42.328515" lon="13.4878233"><ele>578.0</ele><time>2026-05-02T18:03:43.865Z</time></trkpt><trkpt lat="42.3284367" lon="13.488065"><ele>578.0</ele><time>2026-05-02T18:03:44.866Z</time></trkpt><trkpt lat="42.32836" lon="13.4883183"><ele>578.0</ele><time>2026-05-02T18:03:45.866Z</time></trkpt><trkpt lat="42.328285" lon="13.48857"><ele>577.6666666666666</ele><time>2026-05-02T18:03:46.865Z</time></trkpt><trkpt lat="42.32821" lon="13.4888283"><ele>577.3333333333334</ele><time>2026-05-02T18:03:47.865Z</time></trkpt><trkpt lat="42.328135" lon="13.48908"><ele>577.0</ele><time>2026-05-02T18:03:48.865Z</time></trkpt><trkpt lat="42.32806" lon="13.4893333"><ele>576.6666666666667</ele><time>2026-05-02T18:03:49.865Z</time></trkpt><trkpt lat="42.3279867" lon="13.4895917"><ele>576.3333333333334</ele><time>2026-05-02T18:03:50.866Z</time></trkpt><trkpt lat="42.3279117" lon="13.4898467"><ele>576.0</ele><time>2026-05-02T18:03:51.865Z</time></trkpt><trkpt lat="42.3278333" lon="13.490105"><ele>576.0</ele><time>2026-05-02T18:03:52.865Z</time></trkpt><trkpt lat="42.327755" lon="13.49036"><ele>576.0</ele><time>2026-05-02T18:03:53.865Z</time></trkpt><trkpt lat="42.3276833" lon="13.4906167"><ele>576.0</ele><time>2026-05-02T18:03:54.865Z</time></trkpt><trkpt lat="42.3276117" lon="13.49087"><ele>576.3333333333334</ele><time>2026-05-02T18:03:55.865Z</time></trkpt><trkpt lat="42.327535" lon="13.491125"><ele>576.6666666666667</ele><time>2026-05-02T18:03:56.866Z</time></trkpt><trkpt lat="42.3274583" lon="13.4913817"><ele>577.0</ele><time>2026-05-02T18:03:57.865Z</time></trkpt><trkpt lat="42.32738" lon="13.491635"><ele>577.0</ele><time>2026-05-02T18:03:58.865Z</time></trkpt><trkpt lat="42.3273017" lon="13.49189"><ele>577.0</ele><time>2026-05-02T18:03:59.865Z</time></trkpt><trkpt lat="42.327225" lon="13.4921383"><ele>577.0</ele><time>2026-05-02T18:04:00.866Z</time></trkpt><trkpt lat="42.3271483" lon="13.49239"><ele>576.6666666666667</ele><time>2026-05-02T18:04:01.866Z</time></trkpt><trkpt lat="42.3270767" lon="13.4926483"><ele>576.3333333333334</ele><time>2026-05-02T18:04:02.865Z</time></trkpt><trkpt lat="42.327005" lon="13.4929017"><ele>576.0</ele><time>2026-05-02T18:04:03.865Z</time></trkpt><trkpt lat="42.3269267" lon="13.49315"><ele>575.6666666666666</ele><time>2026-05-02T18:04:04.865Z</time></trkpt><trkpt lat="42.32685" lon="13.493395"><ele>575.3333333333333</ele><time>2026-05-02T18:04:05.865Z</time></trkpt><trkpt lat="42.3267783" lon="13.493635"><ele>575.0</ele><time>2026-05-02T18:04:06.866Z</time></trkpt><trkpt lat="42.3267067" lon="13.4938633"><ele>575.6666666666666</ele><time>2026-05-02T18:04:07.866Z</time></trkpt><trkpt lat="42.326635" lon="13.494105"><ele>576.3333333333334</ele><time>2026-05-02T18:04:08.865Z</time></trkpt><trkpt lat="42.32656" lon="13.4943467"><ele>577.0</ele><time>2026-05-02T18:04:09.865Z</time></trkpt><trkpt lat="42.3264867" lon="13.4945967"><ele>576.3333333333334</ele><time>2026-05-02T18:04:10.866Z</time></trkpt><trkpt lat="42.3264167" lon="13.4948417"><ele>575.6666666666666</ele><time>2026-05-02T18:04:11.866Z</time></trkpt><trkpt lat="42.326345" lon="13.4950783"><ele>575.0</ele><time>2026-05-02T18:04:12.865Z</time></trkpt><trkpt lat="42.3262767" lon="13.4953067"><ele>576.0</ele><time>2026-05-02T18:04:13.866Z</time></trkpt><trkpt lat="42.3262133" lon="13.4955217"><ele>577.0</ele><time>2026-05-02T18:04:14.866Z</time></trkpt><trkpt lat="42.3261567" lon="13.4957233"><ele>578.0</ele><time>2026-05-02T18:04:15.866Z</time></trkpt><trkpt lat="42.3261067" lon="13.49591"><ele>578.0</ele><time>2026-05-02T18:04:16.865Z</time></trkpt><trkpt lat="42.326065" lon="13.4960883"><ele>578.0</ele><time>2026-05-02T18:04:17.865Z</time></trkpt><trkpt lat="42.3260233" lon="13.4962667"><ele>578.0</ele><time>2026-05-02T18:04:18.865Z</time></trkpt><trkpt lat="42.3259883" lon="13.4964267"><ele>578.0</ele><time>2026-05-02T18:04:19.866Z</time></trkpt><trkpt lat="42.3259583" lon="13.49658"><ele>578.3333333333333</ele><time>2026-05-02T18:04:20.866Z</time></trkpt><trkpt lat="42.3259267" lon="13.4967283"><ele>578.6666666666666</ele><time>2026-05-02T18:04:21.866Z</time></trkpt><trkpt lat="42.325895" lon="13.4968533"><ele>579.0</ele><time>2026-05-02T18:04:22.865Z</time></trkpt><trkpt lat="42.3258567" lon="13.49696"><ele>579.3333333333334</ele><time>2026-05-02T18:04:23.866Z</time></trkpt><trkpt lat="42.325815" lon="13.49705"><ele>579.6666666666667</ele><time>2026-05-02T18:04:24.866Z</time></trkpt><trkpt lat="42.3257867" lon="13.497135"><ele>580.0</ele><time>2026-05-02T18:04:25.865Z</time></trkpt><trkpt lat="42.3257867" lon="13.497275"><ele>581.2</ele><time>2026-05-02T18:04:27.865Z</time></trkpt><trkpt lat="42.3258283" lon="13.49744"><ele>582.4</ele><time>2026-05-02T18:04:29.865Z</time></trkpt><trkpt lat="42.3258417" lon="13.4975483"><ele>583.6</ele><time>2026-05-02T18:04:30.865Z</time></trkpt><trkpt lat="42.32584" lon="13.497675"><ele>584.8</ele><time>2026-05-02T18:04:31.866Z</time></trkpt><trkpt lat="42.3258233" lon="13.497805"><ele>586.0</ele><time>2026-05-02T18:04:32.865Z</time></trkpt><trkpt lat="42.32581" lon="13.49794"><ele>586.8</ele><time>2026-05-02T18:04:33.866Z</time></trkpt><trkpt lat="42.3257867" lon="13.49808"><ele>587.6</ele><time>2026-05-02T18:04:34.865Z</time></trkpt><trkpt lat="42.325765" lon="13.4982183"><ele>588.4</ele><time>2026-05-02T18:04:35.865Z</time></trkpt><trkpt lat="42.3257533" lon="13.49836"><ele>589.2</ele><time>2026-05-02T18:04:36.866Z</time></trkpt><trkpt lat="42.3257433" lon="13.4985017"><ele>590.0</ele><time>2026-05-02T18:04:37.865Z</time></trkpt><trkpt lat="42.3257333" lon="13.4986567"><ele>591.25</ele><time>2026-05-02T18:04:38.865Z</time></trkpt><trkpt lat="42.3257133" lon="13.4988133"><ele>592.5</ele><time>2026-05-02T18:04:39.866Z</time></trkpt><trkpt lat="42.3256933" lon="13.4989767"><ele>593.75</ele><time>2026-05-02T18:04:40.865Z</time></trkpt><trkpt lat="42.3256767" lon="13.4991367"><ele>595.0</ele><time>2026-05-02T18:04:41.866Z</time></trkpt><trkpt lat="42.325655" lon="13.4993083"><ele>595.0</ele><time>2026-05-02T18:04:42.866Z</time></trkpt><trkpt lat="42.3256317" lon="13.4994933"><ele>595.0</ele><time>2026-05-02T18:04:43.865Z</time></trkpt><trkpt lat="42.3256133" lon="13.4996833"><ele>595.0</ele><time>2026-05-02T18:04:44.865Z</time></trkpt><trkpt lat="42.3255933" lon="13.4998767"><ele>595.0</ele><time>2026-05-02T18:04:45.866Z</time></trkpt><trkpt lat="42.3255733" lon="13.5000783"><ele>594.6666666666667</ele><time>2026-05-02T18:04:46.866Z</time></trkpt><trkpt lat="42.3255467" lon="13.5002783"><ele>594.3333333333334</ele><time>2026-05-02T18:04:47.865Z</time></trkpt><trkpt lat="42.3255283" lon="13.5004867"><ele>594.0</ele><time>2026-05-02T18:04:48.865Z</time></trkpt><trkpt lat="42.3255067" lon="13.500695"><ele>594.0</ele><time>2026-05-02T18:04:49.866Z</time></trkpt><trkpt lat="42.3254817" lon="13.50091"><ele>594.0</ele><time>2026-05-02T18:04:50.865Z</time></trkpt><trkpt lat="42.3254583" lon="13.50113"><ele>594.0</ele><time>2026-05-02T18:04:51.866Z</time></trkpt><trkpt lat="42.3254367" lon="13.501365"><ele>594.6666666666666</ele><time>2026-05-02T18:04:52.865Z</time></trkpt><trkpt lat="42.3254133" lon="13.501605"><ele>595.3333333333333</ele><time>2026-05-02T18:04:53.866Z</time></trkpt><trkpt lat="42.32539" lon="13.5018367"><ele>596.0</ele><time>2026-05-02T18:04:54.865Z</time></trkpt><trkpt lat="42.3253683" lon="13.502075"><ele>597.3333333333333</ele><time>2026-05-02T18:04:55.866Z</time></trkpt><trkpt lat="42.3253467" lon="13.5023167"><ele>598.6666666666666</ele><time>2026-05-02T18:04:56.865Z</time></trkpt><trkpt lat="42.3253233" lon="13.50256"><ele>600.0</ele><time>2026-05-02T18:04:57.865Z</time></trkpt><trkpt lat="42.3253" lon="13.5028033"><ele>600.6666666666666</ele><time>2026-05-02T18:04:58.865Z</time></trkpt><trkpt lat="42.325285" lon="13.5030533"><ele>601.3333333333333</ele><time>2026-05-02T18:04:59.865Z</time></trkpt><trkpt lat="42.325265" lon="13.5032867"><ele>602.0</ele><time>2026-05-02T18:05:00.866Z</time></trkpt><trkpt lat="42.3252433" lon="13.5035183"><ele>603.3333333333333</ele><time>2026-05-02T18:05:01.865Z</time></trkpt><trkpt lat="42.3252217" lon="13.50375"><ele>604.6666666666666</ele><time>2026-05-02T18:05:02.865Z</time></trkpt><trkpt lat="42.3251967" lon="13.5039817"><ele>606.0</ele><time>2026-05-02T18:05:03.865Z</time></trkpt><trkpt lat="42.3251733" lon="13.5042083"><ele>606.0</ele><time>2026-05-02T18:05:04.865Z</time></trkpt><trkpt lat="42.3251467" lon="13.504435"><ele>606.0</ele><time>2026-05-02T18:05:05.865Z</time></trkpt><trkpt lat="42.3251267" lon="13.504655"><ele>606.0</ele><time>2026-05-02T18:05:06.865Z</time></trkpt><trkpt lat="42.3251067" lon="13.5048817"><ele>608.0</ele><time>2026-05-02T18:05:07.866Z</time></trkpt><trkpt lat="42.32509" lon="13.5051067"><ele>610.0</ele><time>2026-05-02T18:05:08.866Z</time></trkpt><trkpt lat="42.32507" lon="13.5053367"><ele>612.0</ele><time>2026-05-02T18:05:09.865Z</time></trkpt><trkpt lat="42.325045" lon="13.5055633"><ele>613.3333333333334</ele><time>2026-05-02T18:05:10.866Z</time></trkpt><trkpt lat="42.3250217" lon="13.5057867"><ele>614.6666666666667</ele><time>2026-05-02T18:05:11.865Z</time></trkpt><trkpt lat="42.325" lon="13.50601"><ele>616.0</ele><time>2026-05-02T18:05:12.866Z</time></trkpt><trkpt lat="42.3249783" lon="13.5062233"><ele>617.3333333333334</ele><time>2026-05-02T18:05:13.865Z</time></trkpt><trkpt lat="42.324955" lon="13.5064317"><ele>618.6666666666666</ele><time>2026-05-02T18:05:14.866Z</time></trkpt><trkpt lat="42.3249333" lon="13.5066433"><ele>620.0</ele><time>2026-05-02T18:05:15.865Z</time></trkpt><trkpt lat="42.3249133" lon="13.5068567"><ele>620.0</ele><time>2026-05-02T18:05:16.866Z</time></trkpt><trkpt lat="42.3248933" lon="13.5070717"><ele>620.0</ele><time>2026-05-02T18:05:17.866Z</time></trkpt><trkpt lat="42.3248717" lon="13.5072867"><ele>620.0</ele><time>2026-05-02T18:05:18.865Z</time></trkpt><trkpt lat="42.3248467" lon="13.507495"><ele>621.0</ele><time>2026-05-02T18:05:19.865Z</time></trkpt><trkpt lat="42.3248267" lon="13.5076933"><ele>622.0</ele><time>2026-05-02T18:05:20.866Z</time></trkpt><trkpt lat="42.324805" lon="13.5078933"><ele>623.0</ele><time>2026-05-02T18:05:21.866Z</time></trkpt><trkpt lat="42.3247833" lon="13.5080917"><ele>624.0</ele><time>2026-05-02T18:05:22.865Z</time></trkpt><trkpt lat="42.3247667" lon="13.5082833"><ele>624.5</ele><time>2026-05-02T18:05:23.865Z</time></trkpt><trkpt lat="42.3247517" lon="13.5084833"><ele>625.0</ele><time>2026-05-02T18:05:24.866Z</time></trkpt><trkpt lat="42.3247367" lon="13.5086833"><ele>625.5</ele><time>2026-05-02T18:05:25.865Z</time></trkpt><trkpt lat="42.3247267" lon="13.5088733"><ele>626.0</ele><time>2026-05-02T18:05:26.866Z</time></trkpt><trkpt lat="42.324705" lon="13.50906"><ele>626.0</ele><time>2026-05-02T18:05:27.866Z</time></trkpt><trkpt lat="42.3246883" lon="13.5092317"><ele>626.0</ele><time>2026-05-02T18:05:28.866Z</time></trkpt><trkpt lat="42.3246717" lon="13.509405"><ele>626.0</ele><time>2026-05-02T18:05:29.865Z</time></trkpt><trkpt lat="42.324655" lon="13.509585"><ele>626.0</ele><time>2026-05-02T18:05:30.865Z</time></trkpt><trkpt lat="42.324635" lon="13.5097717"><ele>627.3333333333333</ele><time>2026-05-02T18:05:31.865Z</time></trkpt><trkpt lat="42.3246133" lon="13.5099683"><ele>628.6666666666666</ele><time>2026-05-02T18:05:32.865Z</time></trkpt><trkpt lat="42.3245917" lon="13.5101733"><ele>630.0</ele><time>2026-05-02T18:05:33.865Z</time></trkpt><trkpt lat="42.3245733" lon="13.510385"><ele>631.0</ele><time>2026-05-02T18:05:34.866Z</time></trkpt><trkpt lat="42.3245533" lon="13.5106017"><ele>632.0</ele><time>2026-05-02T18:05:35.866Z</time></trkpt><trkpt lat="42.32453" lon="13.5108167"><ele>633.0</ele><time>2026-05-02T18:05:36.866Z</time></trkpt><trkpt lat="42.3245067" lon="13.51104"><ele>634.3333333333334</ele><time>2026-05-02T18:05:37.865Z</time></trkpt><trkpt lat="42.32449" lon="13.5112633"><ele>635.6666666666667</ele><time>2026-05-02T18:05:38.866Z</time></trkpt><trkpt lat="42.3244733" lon="13.511485"><ele>637.0</ele><time>2026-05-02T18:05:39.865Z</time></trkpt><trkpt lat="42.324455" lon="13.5117033"><ele>637.0</ele><time>2026-05-02T18:05:40.865Z</time></trkpt><trkpt lat="42.324435" lon="13.5119233"><ele>637.0</ele><time>2026-05-02T18:05:41.865Z</time></trkpt><trkpt lat="42.324415" lon="13.51214"><ele>637.0</ele><time>2026-05-02T18:05:42.866Z</time></trkpt><trkpt lat="42.3243983" lon="13.5123517"><ele>637.3333333333334</ele><time>2026-05-02T18:05:43.865Z</time></trkpt><trkpt lat="42.32438" lon="13.5125617"><ele>637.6666666666666</ele><time>2026-05-02T18:05:44.865Z</time></trkpt><trkpt lat="42.3243633" lon="13.51277"><ele>638.0</ele><time>2026-05-02T18:05:45.865Z</time></trkpt><trkpt lat="42.3243467" lon="13.5129817"><ele>638.6666666666666</ele><time>2026-05-02T18:05:46.865Z</time></trkpt><trkpt lat="42.3243267" lon="13.5132017"><ele>639.3333333333334</ele><time>2026-05-02T18:05:47.866Z</time></trkpt><trkpt lat="42.32431" lon="13.513415"><ele>640.0</ele><time>2026-05-02T18:05:48.865Z</time></trkpt><trkpt lat="42.3242917" lon="13.51363"><ele>640.6666666666667</ele><time>2026-05-02T18:05:49.866Z</time></trkpt><trkpt lat="42.3242733" lon="13.5138367"><ele>641.3333333333334</ele><time>2026-05-02T18:05:50.866Z</time></trkpt><trkpt lat="42.324255" lon="13.5140367"><ele>642.0</ele><time>2026-05-02T18:05:51.865Z</time></trkpt><trkpt lat="42.3242383" lon="13.5142383"><ele>642.0</ele><time>2026-05-02T18:05:52.866Z</time></trkpt><trkpt lat="42.3242233" lon="13.5144433"><ele>642.0</ele><time>2026-05-02T18:05:53.866Z</time></trkpt><trkpt lat="42.3242033" lon="13.5146517"><ele>642.0</ele><time>2026-05-02T18:05:54.865Z</time></trkpt><trkpt lat="42.3241833" lon="13.5148617"><ele>643.3333333333334</ele><time>2026-05-02T18:05:55.866Z</time></trkpt><trkpt lat="42.324165" lon="13.5150733"><ele>644.6666666666667</ele><time>2026-05-02T18:05:56.865Z</time></trkpt><trkpt lat="42.324145" lon="13.5152917"><ele>646.0</ele><time>2026-05-02T18:05:57.865Z</time></trkpt><trkpt lat="42.3241333" lon="13.5155183"><ele>646.6666666666667</ele><time>2026-05-02T18:05:58.865Z</time></trkpt><trkpt lat="42.3241133" lon="13.5157483"><ele>647.3333333333334</ele><time>2026-05-02T18:05:59.866Z</time></trkpt><trkpt lat="42.324095" lon="13.51598"><ele>648.0</ele><time>2026-05-02T18:06:00.866Z</time></trkpt><trkpt lat="42.3240717" lon="13.51621"><ele>649.0</ele><time>2026-05-02T18:06:01.866Z</time></trkpt><trkpt lat="42.3240533" lon="13.5164367"><ele>650.0</ele><time>2026-05-02T18:06:02.865Z</time></trkpt><trkpt lat="42.324035" lon="13.5166717"><ele>651.0</ele><time>2026-05-02T18:06:03.865Z</time></trkpt><trkpt lat="42.3240133" lon="13.5169083"><ele>652.6666666666666</ele><time>2026-05-02T18:06:04.866Z</time></trkpt><trkpt lat="42.3239933" lon="13.51714"><ele>654.3333333333333</ele><time>2026-05-02T18:06:05.866Z</time></trkpt><trkpt lat="42.3239767" lon="13.5173733"><ele>656.0</ele><time>2026-05-02T18:06:06.866Z</time></trkpt><trkpt lat="42.323955" lon="13.5176083"><ele>656.0</ele><time>2026-05-02T18:06:07.865Z</time></trkpt><trkpt lat="42.3239367" lon="13.517845"><ele>656.0</ele><time>2026-05-02T18:06:08.865Z</time></trkpt><trkpt lat="42.32392" lon="13.5180783"><ele>656.0</ele><time>2026-05-02T18:06:09.865Z</time></trkpt><trkpt lat="42.3239" lon="13.5183117"><ele>655.6666666666666</ele><time>2026-05-02T18:06:10.865Z</time></trkpt><trkpt lat="42.3238817" lon="13.51854"><ele>655.3333333333334</ele><time>2026-05-02T18:06:11.866Z</time></trkpt><trkpt lat="42.32386" lon="13.5187683"><ele>655.0</ele><time>2026-05-02T18:06:12.865Z</time></trkpt><trkpt lat="42.323835" lon="13.5189967"><ele>656.6666666666667</ele><time>2026-05-02T18:06:13.865Z</time></trkpt><trkpt lat="42.32382" lon="13.51922"><ele>658.3333333333334</ele><time>2026-05-02T18:06:14.865Z</time></trkpt><trkpt lat="42.3238033" lon="13.519445"><ele>660.0</ele><time>2026-05-02T18:06:15.865Z</time></trkpt><trkpt lat="42.3237867" lon="13.5196667"><ele>661.0</ele><time>2026-05-02T18:06:16.865Z</time></trkpt><trkpt lat="42.32377" lon="13.519885"><ele>662.0</ele><time>2026-05-02T18:06:17.866Z</time></trkpt><trkpt lat="42.3237533" lon="13.520095"><ele>663.0</ele><time>2026-05-02T18:06:18.865Z</time></trkpt><trkpt lat="42.3237357" lon="13.520303"><ele>663.6666666666666</ele><time>2026-05-02T18:06:19.865Z</time></trkpt><trkpt lat="42.3237188" lon="13.5205114"><ele>664.3333333333333</ele><time>2026-05-02T18:06:20.866Z</time></trkpt><trkpt lat="42.3237028" lon="13.520724"><ele>665.0</ele><time>2026-05-02T18:06:21.865Z</time></trkpt><trkpt lat="42.3236865" lon="13.5209418"><ele>665.0</ele><time>2026-05-02T18:06:22.865Z</time></trkpt><trkpt lat="42.3236676" lon="13.5211577"><ele>665.0</ele><time>2026-05-02T18:06:23.866Z</time></trkpt><trkpt lat="42.3236511" lon="13.5213773"><ele>665.0</ele><time>2026-05-02T18:06:24.865Z</time></trkpt><trkpt lat="42.3236351" lon="13.5216012"><ele>665.3333333333333</ele><time>2026-05-02T18:06:25.865Z</time></trkpt><trkpt lat="42.3236147" lon="13.5218247"><ele>665.6666666666666</ele><time>2026-05-02T18:06:26.865Z</time></trkpt><trkpt lat="42.3235969" lon="13.5220446"><ele>666.0</ele><time>2026-05-02T18:06:27.865Z</time></trkpt><trkpt lat="42.3235809" lon="13.5222624"><ele>667.3333333333334</ele><time>2026-05-02T18:06:28.866Z</time></trkpt><trkpt lat="42.3235731" lon="13.5224765"><ele>668.6666666666667</ele><time>2026-05-02T18:06:29.866Z</time></trkpt><trkpt lat="42.3235818" lon="13.522688"><ele>670.0</ele><time>2026-05-02T18:06:30.865Z</time></trkpt><trkpt lat="42.3236092" lon="13.5229006"><ele>671.0</ele><time>2026-05-02T18:06:31.865Z</time></trkpt><trkpt lat="42.3236433" lon="13.5231092"><ele>672.0</ele><time>2026-05-02T18:06:32.865Z</time></trkpt><trkpt lat="42.3236812" lon="13.5233251"><ele>673.0</ele><time>2026-05-02T18:06:33.865Z</time></trkpt><trkpt lat="42.3237226" lon="13.5235454"><ele>674.3333333333334</ele><time>2026-05-02T18:06:34.865Z</time></trkpt><trkpt lat="42.3237578" lon="13.5237684"><ele>675.6666666666666</ele><time>2026-05-02T18:06:35.865Z</time></trkpt><trkpt lat="42.3237906" lon="13.5239923"><ele>677.0</ele><time>2026-05-02T18:06:36.866Z</time></trkpt><trkpt lat="42.323824" lon="13.5242202"><ele>677.0</ele><time>2026-05-02T18:06:37.865Z</time></trkpt><trkpt lat="42.3238609" lon="13.5244494"><ele>677.0</ele><time>2026-05-02T18:06:38.865Z</time></trkpt><trkpt lat="42.323898" lon="13.5246812"><ele>677.0</ele><time>2026-05-02T18:06:39.865Z</time></trkpt><trkpt lat="42.3239337" lon="13.5249182"><ele>680.6666666666666</ele><time>2026-05-02T18:06:40.866Z</time></trkpt><trkpt lat="42.3239702" lon="13.5251529"><ele>684.3333333333334</ele><time>2026-05-02T18:06:41.865Z</time></trkpt><trkpt lat="42.3240044" lon="13.5253856"><ele>688.0</ele><time>2026-05-02T18:06:42.865Z</time></trkpt><trkpt lat="42.3240416" lon="13.5256186"><ele>689.3333333333334</ele><time>2026-05-02T18:06:43.866Z</time></trkpt><trkpt lat="42.3240792" lon="13.5258479"><ele>690.6666666666666</ele><time>2026-05-02T18:06:44.865Z</time></trkpt><trkpt lat="42.3241159" lon="13.5260713"><ele>692.0</ele><time>2026-05-02T18:06:45.865Z</time></trkpt><trkpt lat="42.3241519" lon="13.5262851"><ele>692.6666666666666</ele><time>2026-05-02T18:06:46.865Z</time></trkpt><trkpt lat="42.324189" lon="13.526493"><ele>693.3333333333334</ele><time>2026-05-02T18:06:47.865Z</time></trkpt><trkpt lat="42.3242203" lon="13.5267019"><ele>694.0</ele><time>2026-05-02T18:06:48.865Z</time></trkpt><trkpt lat="42.3242445" lon="13.5269155"><ele>694.6666666666667</ele><time>2026-05-02T18:06:49.866Z</time></trkpt><trkpt lat="42.3242665" lon="13.5271273"><ele>695.3333333333334</ele><time>2026-05-02T18:06:50.866Z</time></trkpt><trkpt lat="42.3242862" lon="13.5273408"><ele>696.0</ele><time>2026-05-02T18:06:51.866Z</time></trkpt><trkpt lat="42.3243085" lon="13.5275595"><ele>696.0</ele><time>2026-05-02T18:06:52.866Z</time></trkpt><trkpt lat="42.3243327" lon="13.5277835"><ele>696.0</ele><time>2026-05-02T18:06:53.866Z</time></trkpt><trkpt lat="42.3243562" lon="13.5280066"><ele>696.0</ele><time>2026-05-02T18:06:54.865Z</time></trkpt><trkpt lat="42.324382" lon="13.5282353"><ele>697.6666666666666</ele><time>2026-05-02T18:06:55.865Z</time></trkpt><trkpt lat="42.3244084" lon="13.5284658"><ele>699.3333333333333</ele><time>2026-05-02T18:06:56.865Z</time></trkpt><trkpt lat="42.3244308" lon="13.5286967"><ele>701.0</ele><time>2026-05-02T18:06:57.866Z</time></trkpt><trkpt lat="42.3244515" lon="13.5289308"><ele>701.6666666666666</ele><time>2026-05-02T18:06:58.866Z</time></trkpt><trkpt lat="42.3244665" lon="13.5291633"><ele>702.3333333333334</ele><time>2026-05-02T18:06:59.865Z</time></trkpt><trkpt lat="42.3244683" lon="13.5293917"><ele>703.0</ele><time>2026-05-02T18:07:00.866Z</time></trkpt><trkpt lat="42.3244617" lon="13.5296162"><ele>704.0</ele><time>2026-05-02T18:07:01.866Z</time></trkpt><trkpt lat="42.3244424" lon="13.5298301"><ele>705.0</ele><time>2026-05-02T18:07:02.865Z</time></trkpt><trkpt lat="42.3244137" lon="13.5300369"><ele>706.0</ele><time>2026-05-02T18:07:03.865Z</time></trkpt><trkpt lat="42.3243759" lon="13.5302357"><ele>707.75</ele><time>2026-05-02T18:07:04.865Z</time></trkpt><trkpt lat="42.324327" lon="13.5304279"><ele>709.5</ele><time>2026-05-02T18:07:05.865Z</time></trkpt><trkpt lat="42.3242695" lon="13.5306119"><ele>711.25</ele><time>2026-05-02T18:07:06.865Z</time></trkpt><trkpt lat="42.3242103" lon="13.530793"><ele>713.0</ele><time>2026-05-02T18:07:07.865Z</time></trkpt><trkpt lat="42.3241468" lon="13.5309714"><ele>713.0</ele><time>2026-05-02T18:07:08.865Z</time></trkpt><trkpt lat="42.324076" lon="13.5311529"><ele>713.0</ele><time>2026-05-02T18:07:09.865Z</time></trkpt><trkpt lat="42.3240065" lon="13.5313262"><ele>713.0</ele><time>2026-05-02T18:07:10.865Z</time></trkpt><trkpt lat="42.3239413" lon="13.5314879"><ele>713.0</ele><time>2026-05-02T18:07:11.865Z</time></trkpt><trkpt lat="42.3238858" lon="13.5316328"><ele>713.4</ele><time>2026-05-02T18:07:12.865Z</time></trkpt><trkpt lat="42.3238385" lon="13.5317588"><ele>713.8</ele><time>2026-05-02T18:07:13.865Z</time></trkpt><trkpt lat="42.3237909" lon="13.531872"><ele>714.2</ele><time>2026-05-02T18:07:14.865Z</time></trkpt><trkpt lat="42.3237494" lon="13.5319785"><ele>714.6</ele><time>2026-05-02T18:07:15.866Z</time></trkpt><trkpt lat="42.3237037" lon="13.5320943"><ele>715.0</ele><time>2026-05-02T18:07:16.865Z</time></trkpt><trkpt lat="42.3236569" lon="13.5322167"><ele>717.0</ele><time>2026-05-02T18:07:17.866Z</time></trkpt><trkpt lat="42.3236056" lon="13.5323409"><ele>719.0</ele><time>2026-05-02T18:07:18.866Z</time></trkpt><trkpt lat="42.3235496" lon="13.5324688"><ele>721.0</ele><time>2026-05-02T18:07:19.865Z</time></trkpt><trkpt lat="42.3234908" lon="13.5326101"><ele>723.0</ele><time>2026-05-02T18:07:20.865Z</time></trkpt><trkpt lat="42.3234311" lon="13.5327597"><ele>725.5</ele><time>2026-05-02T18:07:21.866Z</time></trkpt><trkpt lat="42.3233719" lon="13.5329185"><ele>728.0</ele><time>2026-05-02T18:07:22.866Z</time></trkpt><trkpt lat="42.3233131" lon="13.533084"><ele>730.5</ele><time>2026-05-02T18:07:23.865Z</time></trkpt><trkpt lat="42.3232535" lon="13.5332502"><ele>733.0</ele><time>2026-05-02T18:07:24.865Z</time></trkpt><trkpt lat="42.3231873" lon="13.5334155"><ele>733.0</ele><time>2026-05-02T18:07:25.866Z</time></trkpt><trkpt lat="42.3231153" lon="13.5335869"><ele>733.0</ele><time>2026-05-02T18:07:26.866Z</time></trkpt><trkpt lat="42.3230432" lon="13.5337595"><ele>733.0</ele><time>2026-05-02T18:07:27.866Z</time></trkpt><trkpt lat="42.3229766" lon="13.5339368"><ele>733.0</ele><time>2026-05-02T18:07:28.866Z</time></trkpt><trkpt lat="42.3229126" lon="13.5341154"><ele>733.25</ele><time>2026-05-02T18:07:29.865Z</time></trkpt><trkpt lat="42.3228564" lon="13.5342852"><ele>733.5</ele><time>2026-05-02T18:07:30.865Z</time></trkpt><trkpt lat="42.3228123" lon="13.534452"><ele>733.75</ele><time>2026-05-02T18:07:31.865Z</time></trkpt><trkpt lat="42.3227727" lon="13.5346156"><ele>734.0</ele><time>2026-05-02T18:07:32.865Z</time></trkpt><trkpt lat="42.322736" lon="13.5347707"><ele>734.0</ele><time>2026-05-02T18:07:33.865Z</time></trkpt><trkpt lat="42.3226989" lon="13.5349311"><ele>734.0</ele><time>2026-05-02T18:07:34.865Z</time></trkpt><trkpt lat="42.3226703" lon="13.5350909"><ele>734.0</ele><time>2026-05-02T18:07:35.865Z</time></trkpt><trkpt lat="42.3226349" lon="13.5352425"><ele>734.0</ele><time>2026-05-02T18:07:36.866Z</time></trkpt><trkpt lat="42.3225914" lon="13.5353916"><ele>735.0</ele><time>2026-05-02T18:07:37.866Z</time></trkpt><trkpt lat="42.3225454" lon="13.5355384"><ele>736.0</ele><time>2026-05-02T18:07:38.866Z</time></trkpt><trkpt lat="42.3225098" lon="13.5356918"><ele>737.0</ele><time>2026-05-02T18:07:39.866Z</time></trkpt><trkpt lat="42.3224951" lon="13.5358569"><ele>738.0</ele><time>2026-05-02T18:07:40.865Z</time></trkpt><trkpt lat="42.3224857" lon="13.5360273"><ele>738.0</ele><time>2026-05-02T18:07:41.865Z</time></trkpt><trkpt lat="42.3224719" lon="13.536195"><ele>738.0</ele><time>2026-05-02T18:07:42.866Z</time></trkpt><trkpt lat="42.3224455" lon="13.5363605"><ele>738.0</ele><time>2026-05-02T18:07:43.866Z</time></trkpt><trkpt lat="42.322413" lon="13.5365242"><ele>738.0</ele><time>2026-05-02T18:07:44.866Z</time></trkpt><trkpt lat="42.3223774" lon="13.5366774"><ele>739.0</ele><time>2026-05-02T18:07:45.866Z</time></trkpt><trkpt lat="42.322346" lon="13.5368288"><ele>740.0</ele><time>2026-05-02T18:07:46.865Z</time></trkpt><trkpt lat="42.3223125" lon="13.5369783"><ele>741.0</ele><time>2026-05-02T18:07:47.866Z</time></trkpt><trkpt lat="42.3222776" lon="13.5371298"><ele>742.0</ele><time>2026-05-02T18:07:48.865Z</time></trkpt><trkpt lat="42.3222412" lon="13.5372763"><ele>741.2</ele><time>2026-05-02T18:07:49.866Z</time></trkpt><trkpt lat="42.3222077" lon="13.5374156"><ele>740.4000000000001</ele><time>2026-05-02T18:07:50.865Z</time></trkpt><trkpt lat="42.3221863" lon="13.537545"><ele>739.5999999999999</ele><time>2026-05-02T18:07:51.865Z</time></trkpt><trkpt lat="42.3221681" lon="13.5376624"><ele>738.8</ele><time>2026-05-02T18:07:52.866Z</time></trkpt><trkpt lat="42.3221476" lon="13.5377558"><ele>738.0</ele><time>2026-05-02T18:07:53.865Z</time></trkpt><trkpt lat="42.3221188" lon="13.5378675"><ele>738.0</ele><time>2026-05-02T18:07:55.865Z</time></trkpt><trkpt lat="42.32206" lon="13.53791"><ele>738.0</ele><time>2026-05-02T18:07:58.865Z</time></trkpt><trkpt lat="42.32199" lon="13.5378767"><ele>738.0</ele><time>2026-05-02T18:08:00.866Z</time></trkpt><trkpt lat="42.32191" lon="13.5378567"><ele>738.0</ele><time>2026-05-02T18:08:02.865Z</time></trkpt><trkpt lat="42.3218333" lon="13.5378967"><ele>738.0</ele><time>2026-05-02T18:08:05.865Z</time></trkpt><trkpt lat="42.321775" lon="13.5379783"><ele>738.0</ele><time>2026-05-02T18:08:08.865Z</time></trkpt><trkpt lat="42.3216967" lon="13.538"><ele>738.6666666666666</ele><time>2026-05-02T18:08:11.865Z</time></trkpt><trkpt lat="42.321645" lon="13.538065"><ele>739.3333333333334</ele><time>2026-05-02T18:08:14.866Z</time></trkpt><trkpt lat="42.3217214" lon="13.5380388"><ele>740.0</ele><time>2026-05-02T18:11:53.864Z</time></trkpt><trkpt lat="42.321787" lon="13.5380754"><ele>740.6666666666667</ele><time>2026-05-02T18:12:02.929Z</time></trkpt><trkpt lat="42.3218643" lon="13.5381259"><ele>741.3333333333334</ele><time>2026-05-02T18:12:10.943Z</time></trkpt><trkpt lat="42.3218153" lon="13.5380707"><ele>742.0</ele><time>2026-05-02T18:12:15.945Z</time></trkpt><trkpt lat="42.3217351" lon="13.538087"><ele>742.0</ele><time>2026-05-02T18:12:32.967Z</time></trkpt><trkpt lat="42.3216713" lon="13.5381549"><ele>742.0</ele><time>2026-05-02T18:12:36.867Z</time></trkpt><trkpt lat="42.3216203" lon="13.5382148"><ele>742.0</ele><time>2026-05-02T18:12:40.887Z</time></trkpt><trkpt lat="42.3215054" lon="13.538231"><ele>742.0</ele><time>2026-05-02T18:13:13.92Z</time></trkpt><trkpt lat="42.3214909" lon="13.5383329"><ele>742.0</ele><time>2026-05-02T18:13:50.893Z</time></trkpt><trkpt lat="42.3214414" lon="13.5384146"><ele>742.0</ele><time>2026-05-02T18:21:51.868Z</time></trkpt><trkpt lat="42.3213953" lon="13.5383555"><ele>732.0</ele><time>2026-05-02T18:22:21.949Z</time></trkpt><trkpt lat="42.3214248" lon="13.5382774"><ele>742.0</ele><time>2026-05-02T18:29:07.891Z</time></trkpt><trkpt lat="42.3213676" lon="13.5383134"><ele>732.0</ele><time>2026-05-02T18:29:38.959Z</time></trkpt><trkpt lat="42.3213784" lon="13.5383993"><ele>732.0</ele><time>2026-05-02T18:50:03.951Z</time></trkpt><trkpt lat="42.3214392" lon="13.5383702"><ele>742.0</ele><time>2026-05-02T18:51:39.905Z</time></trkpt></trkseg></trk></gpx>